<?xml version="1.0" encoding="UTF-8" standalone="no" ?>
<gpx xmlns="http://www.topografix.com/GPX/1/1" xmlns:xsi="http://www.w3.org/2001/XMLSchema-instance" xsi:schemaLocation="http://www.topografix.com/GPX/1/1 http://www.topografix.com/GPX/1/1/gpx.xsd" version="1.1" creator="VisuGPX - https://www.visugpx.com">
  <metadata>
    <name>neige au hautacam</name>
    <desc><![CDATA[super rando au soleil; premières neiges au hautacam ]]></desc>
  </metadata>
  <trk>
    <name><![CDATA[neige au hautacam_1]]></name>
    <trkseg>
      <trkpt lat="42.97539" lon="-0.0106">
        <ele>1518</ele>
        <time>2017-01-18T09:52:18.000Z</time>
      </trkpt>
      <trkpt lat="42.9754" lon="-0.0106">
        <ele>1518</ele>
        <time>2017-01-18T09:52:19.000Z</time>
      </trkpt>
      <trkpt lat="42.97541" lon="-0.0106">
        <ele>1518</ele>
        <time>2017-01-18T09:52:20.000Z</time>
      </trkpt>
      <trkpt lat="42.97542" lon="-0.0106">
        <ele>1518</ele>
        <time>2017-01-18T09:52:21.000Z</time>
      </trkpt>
      <trkpt lat="42.97543" lon="-0.01061">
        <ele>1518</ele>
        <time>2017-01-18T09:52:22.000Z</time>
      </trkpt>
      <trkpt lat="42.97543" lon="-0.01061">
        <ele>1518</ele>
        <time>2017-01-18T09:52:23.000Z</time>
      </trkpt>
      <trkpt lat="42.97543" lon="-0.0106">
        <ele>1518</ele>
        <time>2017-01-18T09:52:24.000Z</time>
      </trkpt>
      <trkpt lat="42.97544" lon="-0.0106">
        <ele>1518</ele>
        <time>2017-01-18T09:52:25.000Z</time>
      </trkpt>
      <trkpt lat="42.97544" lon="-0.0106">
        <ele>1518</ele>
        <time>2017-01-18T09:52:26.000Z</time>
      </trkpt>
      <trkpt lat="42.97545" lon="-0.0106">
        <ele>1518</ele>
        <time>2017-01-18T09:52:27.000Z</time>
      </trkpt>
      <trkpt lat="42.97546" lon="-0.01061">
        <ele>1518</ele>
        <time>2017-01-18T09:52:28.000Z</time>
      </trkpt>
      <trkpt lat="42.97546" lon="-0.01061">
        <ele>1518</ele>
        <time>2017-01-18T09:52:29.000Z</time>
      </trkpt>
      <trkpt lat="42.97547" lon="-0.01061">
        <ele>1518</ele>
        <time>2017-01-18T09:52:30.000Z</time>
      </trkpt>
      <trkpt lat="42.97547" lon="-0.0106">
        <ele>1519</ele>
        <time>2017-01-18T09:52:31.000Z</time>
      </trkpt>
      <trkpt lat="42.97547" lon="-0.0106">
        <ele>1519</ele>
        <time>2017-01-18T09:52:32.000Z</time>
      </trkpt>
      <trkpt lat="42.97547" lon="-0.01059">
        <ele>1519</ele>
        <time>2017-01-18T09:52:33.000Z</time>
      </trkpt>
      <trkpt lat="42.97548" lon="-0.01059">
        <ele>1520</ele>
        <time>2017-01-18T09:52:34.000Z</time>
      </trkpt>
      <trkpt lat="42.97548" lon="-0.01059">
        <ele>1520</ele>
        <time>2017-01-18T09:52:35.000Z</time>
      </trkpt>
      <trkpt lat="42.97548" lon="-0.01058">
        <ele>1520</ele>
        <time>2017-01-18T09:52:36.000Z</time>
      </trkpt>
      <trkpt lat="42.97548" lon="-0.01058">
        <ele>1520</ele>
        <time>2017-01-18T09:52:37.000Z</time>
      </trkpt>
      <trkpt lat="42.97548" lon="-0.01058">
        <ele>1520</ele>
        <time>2017-01-18T09:52:38.000Z</time>
      </trkpt>
      <trkpt lat="42.97548" lon="-0.01058">
        <ele>1520</ele>
        <time>2017-01-18T09:52:39.000Z</time>
      </trkpt>
      <trkpt lat="42.97548" lon="-0.01058">
        <ele>1520</ele>
        <time>2017-01-18T09:52:40.000Z</time>
      </trkpt>
      <trkpt lat="42.97548" lon="-0.01058">
        <ele>1521</ele>
        <time>2017-01-18T09:52:41.000Z</time>
      </trkpt>
      <trkpt lat="42.97548" lon="-0.01058">
        <ele>1521</ele>
        <time>2017-01-18T09:52:42.000Z</time>
      </trkpt>
      <trkpt lat="42.97548" lon="-0.01057">
        <ele>1521</ele>
        <time>2017-01-18T09:52:43.000Z</time>
      </trkpt>
      <trkpt lat="42.97548" lon="-0.01057">
        <ele>1521</ele>
        <time>2017-01-18T09:52:44.000Z</time>
      </trkpt>
      <trkpt lat="42.97547" lon="-0.01056">
        <ele>1521</ele>
        <time>2017-01-18T09:52:45.000Z</time>
      </trkpt>
      <trkpt lat="42.97547" lon="-0.01055">
        <ele>1522</ele>
        <time>2017-01-18T09:52:46.000Z</time>
      </trkpt>
      <trkpt lat="42.97547" lon="-0.01054">
        <ele>1522</ele>
        <time>2017-01-18T09:52:47.000Z</time>
      </trkpt>
      <trkpt lat="42.97547" lon="-0.01053">
        <ele>1522</ele>
        <time>2017-01-18T09:52:48.000Z</time>
      </trkpt>
      <trkpt lat="42.97548" lon="-0.01052">
        <ele>1522</ele>
        <time>2017-01-18T09:52:49.000Z</time>
      </trkpt>
      <trkpt lat="42.97548" lon="-0.01052">
        <ele>1522</ele>
        <time>2017-01-18T09:52:50.000Z</time>
      </trkpt>
      <trkpt lat="42.97548" lon="-0.01051">
        <ele>1522</ele>
        <time>2017-01-18T09:52:51.000Z</time>
      </trkpt>
      <trkpt lat="42.97549" lon="-0.0105">
        <ele>1522</ele>
        <time>2017-01-18T09:52:52.000Z</time>
      </trkpt>
      <trkpt lat="42.97549" lon="-0.01049">
        <ele>1522</ele>
        <time>2017-01-18T09:52:53.000Z</time>
      </trkpt>
      <trkpt lat="42.97549" lon="-0.01048">
        <ele>1522</ele>
        <time>2017-01-18T09:52:54.000Z</time>
      </trkpt>
      <trkpt lat="42.97549" lon="-0.01047">
        <ele>1523</ele>
        <time>2017-01-18T09:52:55.000Z</time>
      </trkpt>
      <trkpt lat="42.97549" lon="-0.01046">
        <ele>1523</ele>
        <time>2017-01-18T09:52:56.000Z</time>
      </trkpt>
      <trkpt lat="42.9755" lon="-0.01045">
        <ele>1523</ele>
        <time>2017-01-18T09:52:57.000Z</time>
      </trkpt>
      <trkpt lat="42.9755" lon="-0.01044">
        <ele>1523</ele>
        <time>2017-01-18T09:52:58.000Z</time>
      </trkpt>
      <trkpt lat="42.9755" lon="-0.01044">
        <ele>1523</ele>
        <time>2017-01-18T09:52:59.000Z</time>
      </trkpt>
      <trkpt lat="42.9755" lon="-0.01044">
        <ele>1523</ele>
        <time>2017-01-18T09:53:00.000Z</time>
      </trkpt>
      <trkpt lat="42.9755" lon="-0.01044">
        <ele>1523</ele>
        <time>2017-01-18T09:53:01.000Z</time>
      </trkpt>
      <trkpt lat="42.9755" lon="-0.01044">
        <ele>1522</ele>
        <time>2017-01-18T09:53:02.000Z</time>
      </trkpt>
      <trkpt lat="42.9755" lon="-0.01041">
        <ele>1521</ele>
        <time>2017-01-18T09:53:03.086Z</time>
      </trkpt>
      <trkpt lat="42.9755" lon="-0.01041">
        <ele>1521</ele>
        <time>2017-01-18T09:53:04.086Z</time>
      </trkpt>
      <trkpt lat="42.9755" lon="-0.01041">
        <ele>1521</ele>
        <time>2017-01-18T09:53:05.086Z</time>
      </trkpt>
      <trkpt lat="42.9755" lon="-0.01041">
        <ele>1521</ele>
        <time>2017-01-18T09:53:06.086Z</time>
      </trkpt>
      <trkpt lat="42.9755" lon="-0.01041">
        <ele>1521</ele>
        <time>2017-01-18T09:53:07.086Z</time>
      </trkpt>
      <trkpt lat="42.9755" lon="-0.01041">
        <ele>1521</ele>
        <time>2017-01-18T09:53:08.086Z</time>
      </trkpt>
      <trkpt lat="42.97551" lon="-0.01037">
        <ele>1520</ele>
        <time>2017-01-18T09:53:09.097Z</time>
      </trkpt>
      <trkpt lat="42.97551" lon="-0.01036">
        <ele>1521</ele>
        <time>2017-01-18T09:53:10.097Z</time>
      </trkpt>
      <trkpt lat="42.97551" lon="-0.01035">
        <ele>1521</ele>
        <time>2017-01-18T09:53:11.097Z</time>
      </trkpt>
      <trkpt lat="42.97552" lon="-0.01034">
        <ele>1521</ele>
        <time>2017-01-18T09:53:12.097Z</time>
      </trkpt>
      <trkpt lat="42.97552" lon="-0.01033">
        <ele>1521</ele>
        <time>2017-01-18T09:53:13.097Z</time>
      </trkpt>
      <trkpt lat="42.97552" lon="-0.01032">
        <ele>1521</ele>
        <time>2017-01-18T09:53:14.097Z</time>
      </trkpt>
      <trkpt lat="42.97552" lon="-0.01031">
        <ele>1521</ele>
        <time>2017-01-18T09:53:15.097Z</time>
      </trkpt>
      <trkpt lat="42.97552" lon="-0.0103">
        <ele>1522</ele>
        <time>2017-01-18T09:53:16.097Z</time>
      </trkpt>
      <trkpt lat="42.97552" lon="-0.01029">
        <ele>1522</ele>
        <time>2017-01-18T09:53:17.097Z</time>
      </trkpt>
      <trkpt lat="42.97553" lon="-0.01028">
        <ele>1522</ele>
        <time>2017-01-18T09:53:18.097Z</time>
      </trkpt>
      <trkpt lat="42.97553" lon="-0.01027">
        <ele>1522</ele>
        <time>2017-01-18T09:53:19.097Z</time>
      </trkpt>
      <trkpt lat="42.97553" lon="-0.01026">
        <ele>1522</ele>
        <time>2017-01-18T09:53:20.097Z</time>
      </trkpt>
      <trkpt lat="42.97553" lon="-0.01025">
        <ele>1522</ele>
        <time>2017-01-18T09:53:21.097Z</time>
      </trkpt>
      <trkpt lat="42.97553" lon="-0.01024">
        <ele>1522</ele>
        <time>2017-01-18T09:53:22.097Z</time>
      </trkpt>
      <trkpt lat="42.97553" lon="-0.01023">
        <ele>1522</ele>
        <time>2017-01-18T09:53:23.097Z</time>
      </trkpt>
      <trkpt lat="42.97554" lon="-0.01022">
        <ele>1522</ele>
        <time>2017-01-18T09:53:24.097Z</time>
      </trkpt>
      <trkpt lat="42.97554" lon="-0.01021">
        <ele>1522</ele>
        <time>2017-01-18T09:53:25.097Z</time>
      </trkpt>
      <trkpt lat="42.97554" lon="-0.0102">
        <ele>1523</ele>
        <time>2017-01-18T09:53:26.097Z</time>
      </trkpt>
      <trkpt lat="42.97554" lon="-0.01019">
        <ele>1523</ele>
        <time>2017-01-18T09:53:27.097Z</time>
      </trkpt>
      <trkpt lat="42.97554" lon="-0.01018">
        <ele>1523</ele>
        <time>2017-01-18T09:53:28.097Z</time>
      </trkpt>
      <trkpt lat="42.97554" lon="-0.01018">
        <ele>1523</ele>
        <time>2017-01-18T09:53:29.097Z</time>
      </trkpt>
      <trkpt lat="42.97554" lon="-0.01017">
        <ele>1524</ele>
        <time>2017-01-18T09:53:30.097Z</time>
      </trkpt>
      <trkpt lat="42.97555" lon="-0.01016">
        <ele>1524</ele>
        <time>2017-01-18T09:53:31.097Z</time>
      </trkpt>
      <trkpt lat="42.97555" lon="-0.01015">
        <ele>1524</ele>
        <time>2017-01-18T09:53:32.097Z</time>
      </trkpt>
      <trkpt lat="42.97555" lon="-0.01014">
        <ele>1524</ele>
        <time>2017-01-18T09:53:33.097Z</time>
      </trkpt>
      <trkpt lat="42.97555" lon="-0.01014">
        <ele>1525</ele>
        <time>2017-01-18T09:53:34.097Z</time>
      </trkpt>
      <trkpt lat="42.97555" lon="-0.01013">
        <ele>1525</ele>
        <time>2017-01-18T09:53:35.097Z</time>
      </trkpt>
      <trkpt lat="42.97556" lon="-0.01012">
        <ele>1525</ele>
        <time>2017-01-18T09:53:36.097Z</time>
      </trkpt>
      <trkpt lat="42.97556" lon="-0.01011">
        <ele>1525</ele>
        <time>2017-01-18T09:53:37.097Z</time>
      </trkpt>
      <trkpt lat="42.97556" lon="-0.0101">
        <ele>1526</ele>
        <time>2017-01-18T09:53:38.097Z</time>
      </trkpt>
      <trkpt lat="42.97556" lon="-0.01009">
        <ele>1526</ele>
        <time>2017-01-18T09:53:39.097Z</time>
      </trkpt>
      <trkpt lat="42.97556" lon="-0.01008">
        <ele>1526</ele>
        <time>2017-01-18T09:53:40.097Z</time>
      </trkpt>
      <trkpt lat="42.97557" lon="-0.01007">
        <ele>1526</ele>
        <time>2017-01-18T09:53:41.097Z</time>
      </trkpt>
      <trkpt lat="42.97557" lon="-0.01007">
        <ele>1527</ele>
        <time>2017-01-18T09:53:42.097Z</time>
      </trkpt>
      <trkpt lat="42.97557" lon="-0.01006">
        <ele>1527</ele>
        <time>2017-01-18T09:53:43.097Z</time>
      </trkpt>
      <trkpt lat="42.97557" lon="-0.01005">
        <ele>1527</ele>
        <time>2017-01-18T09:53:44.097Z</time>
      </trkpt>
      <trkpt lat="42.97557" lon="-0.01004">
        <ele>1527</ele>
        <time>2017-01-18T09:53:45.097Z</time>
      </trkpt>
      <trkpt lat="42.97557" lon="-0.01003">
        <ele>1527</ele>
        <time>2017-01-18T09:53:46.097Z</time>
      </trkpt>
      <trkpt lat="42.97558" lon="-0.01002">
        <ele>1527</ele>
        <time>2017-01-18T09:53:47.097Z</time>
      </trkpt>
      <trkpt lat="42.97558" lon="-0.01001">
        <ele>1526</ele>
        <time>2017-01-18T09:53:48.097Z</time>
      </trkpt>
      <trkpt lat="42.97558" lon="-0.01">
        <ele>1526</ele>
        <time>2017-01-18T09:53:49.097Z</time>
      </trkpt>
      <trkpt lat="42.97558" lon="-0.00999">
        <ele>1526</ele>
        <time>2017-01-18T09:53:50.097Z</time>
      </trkpt>
      <trkpt lat="42.97558" lon="-0.00997">
        <ele>1526</ele>
        <time>2017-01-18T09:53:51.097Z</time>
      </trkpt>
      <trkpt lat="42.97558" lon="-0.00997">
        <ele>1526</ele>
        <time>2017-01-18T09:53:52.097Z</time>
      </trkpt>
      <trkpt lat="42.97558" lon="-0.00996">
        <ele>1526</ele>
        <time>2017-01-18T09:53:53.097Z</time>
      </trkpt>
      <trkpt lat="42.97558" lon="-0.00995">
        <ele>1526</ele>
        <time>2017-01-18T09:53:54.097Z</time>
      </trkpt>
      <trkpt lat="42.97558" lon="-0.00994">
        <ele>1526</ele>
        <time>2017-01-18T09:53:55.097Z</time>
      </trkpt>
      <trkpt lat="42.97559" lon="-0.00993">
        <ele>1525</ele>
        <time>2017-01-18T09:53:56.097Z</time>
      </trkpt>
      <trkpt lat="42.97559" lon="-0.00992">
        <ele>1526</ele>
        <time>2017-01-18T09:53:57.097Z</time>
      </trkpt>
      <trkpt lat="42.97559" lon="-0.00991">
        <ele>1526</ele>
        <time>2017-01-18T09:53:58.097Z</time>
      </trkpt>
      <trkpt lat="42.97559" lon="-0.00991">
        <ele>1526</ele>
        <time>2017-01-18T09:53:59.097Z</time>
      </trkpt>
      <trkpt lat="42.97559" lon="-0.0099">
        <ele>1526</ele>
        <time>2017-01-18T09:54:00.097Z</time>
      </trkpt>
      <trkpt lat="42.97559" lon="-0.00989">
        <ele>1527</ele>
        <time>2017-01-18T09:54:01.097Z</time>
      </trkpt>
      <trkpt lat="42.97559" lon="-0.00988">
        <ele>1527</ele>
        <time>2017-01-18T09:54:02.097Z</time>
      </trkpt>
      <trkpt lat="42.9756" lon="-0.00987">
        <ele>1527</ele>
        <time>2017-01-18T09:54:03.097Z</time>
      </trkpt>
      <trkpt lat="42.9756" lon="-0.00986">
        <ele>1527</ele>
        <time>2017-01-18T09:54:04.097Z</time>
      </trkpt>
      <trkpt lat="42.9756" lon="-0.00985">
        <ele>1527</ele>
        <time>2017-01-18T09:54:05.097Z</time>
      </trkpt>
      <trkpt lat="42.9756" lon="-0.00984">
        <ele>1527</ele>
        <time>2017-01-18T09:54:06.097Z</time>
      </trkpt>
      <trkpt lat="42.9756" lon="-0.00983">
        <ele>1527</ele>
        <time>2017-01-18T09:54:07.097Z</time>
      </trkpt>
      <trkpt lat="42.9756" lon="-0.00983">
        <ele>1527</ele>
        <time>2017-01-18T09:54:08.097Z</time>
      </trkpt>
      <trkpt lat="42.97561" lon="-0.00982">
        <ele>1527</ele>
        <time>2017-01-18T09:54:09.097Z</time>
      </trkpt>
      <trkpt lat="42.97561" lon="-0.00981">
        <ele>1527</ele>
        <time>2017-01-18T09:54:10.097Z</time>
      </trkpt>
      <trkpt lat="42.97561" lon="-0.0098">
        <ele>1527</ele>
        <time>2017-01-18T09:54:11.097Z</time>
      </trkpt>
      <trkpt lat="42.97561" lon="-0.00979">
        <ele>1527</ele>
        <time>2017-01-18T09:54:12.097Z</time>
      </trkpt>
      <trkpt lat="42.97561" lon="-0.00978">
        <ele>1527</ele>
        <time>2017-01-18T09:54:13.097Z</time>
      </trkpt>
      <trkpt lat="42.97561" lon="-0.00977">
        <ele>1527</ele>
        <time>2017-01-18T09:54:14.097Z</time>
      </trkpt>
      <trkpt lat="42.97561" lon="-0.00976">
        <ele>1527</ele>
        <time>2017-01-18T09:54:15.097Z</time>
      </trkpt>
      <trkpt lat="42.97562" lon="-0.00975">
        <ele>1527</ele>
        <time>2017-01-18T09:54:16.097Z</time>
      </trkpt>
      <trkpt lat="42.97562" lon="-0.00974">
        <ele>1527</ele>
        <time>2017-01-18T09:54:17.097Z</time>
      </trkpt>
      <trkpt lat="42.97562" lon="-0.00973">
        <ele>1527</ele>
        <time>2017-01-18T09:54:18.097Z</time>
      </trkpt>
      <trkpt lat="42.97562" lon="-0.00972">
        <ele>1527</ele>
        <time>2017-01-18T09:54:19.097Z</time>
      </trkpt>
      <trkpt lat="42.97562" lon="-0.00971">
        <ele>1527</ele>
        <time>2017-01-18T09:54:20.097Z</time>
      </trkpt>
      <trkpt lat="42.97562" lon="-0.0097">
        <ele>1528</ele>
        <time>2017-01-18T09:54:21.097Z</time>
      </trkpt>
      <trkpt lat="42.97562" lon="-0.0097">
        <ele>1527</ele>
        <time>2017-01-18T09:54:22.097Z</time>
      </trkpt>
      <trkpt lat="42.97563" lon="-0.00969">
        <ele>1527</ele>
        <time>2017-01-18T09:54:23.097Z</time>
      </trkpt>
      <trkpt lat="42.97563" lon="-0.00968">
        <ele>1528</ele>
        <time>2017-01-18T09:54:24.097Z</time>
      </trkpt>
      <trkpt lat="42.97563" lon="-0.00967">
        <ele>1528</ele>
        <time>2017-01-18T09:54:25.097Z</time>
      </trkpt>
      <trkpt lat="42.97563" lon="-0.00966">
        <ele>1528</ele>
        <time>2017-01-18T09:54:26.097Z</time>
      </trkpt>
      <trkpt lat="42.97563" lon="-0.00965">
        <ele>1528</ele>
        <time>2017-01-18T09:54:27.097Z</time>
      </trkpt>
      <trkpt lat="42.97563" lon="-0.00964">
        <ele>1528</ele>
        <time>2017-01-18T09:54:28.097Z</time>
      </trkpt>
      <trkpt lat="42.97563" lon="-0.00963">
        <ele>1528</ele>
        <time>2017-01-18T09:54:29.097Z</time>
      </trkpt>
      <trkpt lat="42.97563" lon="-0.00962">
        <ele>1528</ele>
        <time>2017-01-18T09:54:30.097Z</time>
      </trkpt>
      <trkpt lat="42.97563" lon="-0.00961">
        <ele>1528</ele>
        <time>2017-01-18T09:54:31.097Z</time>
      </trkpt>
      <trkpt lat="42.97563" lon="-0.00961">
        <ele>1528</ele>
        <time>2017-01-18T09:54:32.097Z</time>
      </trkpt>
      <trkpt lat="42.97564" lon="-0.0096">
        <ele>1528</ele>
        <time>2017-01-18T09:54:33.097Z</time>
      </trkpt>
      <trkpt lat="42.97564" lon="-0.00959">
        <ele>1528</ele>
        <time>2017-01-18T09:54:34.097Z</time>
      </trkpt>
      <trkpt lat="42.97564" lon="-0.00958">
        <ele>1528</ele>
        <time>2017-01-18T09:54:35.097Z</time>
      </trkpt>
      <trkpt lat="42.97564" lon="-0.00957">
        <ele>1528</ele>
        <time>2017-01-18T09:54:36.097Z</time>
      </trkpt>
      <trkpt lat="42.97564" lon="-0.00956">
        <ele>1528</ele>
        <time>2017-01-18T09:54:37.097Z</time>
      </trkpt>
      <trkpt lat="42.97565" lon="-0.00955">
        <ele>1528</ele>
        <time>2017-01-18T09:54:38.097Z</time>
      </trkpt>
      <trkpt lat="42.97565" lon="-0.00954">
        <ele>1529</ele>
        <time>2017-01-18T09:54:39.097Z</time>
      </trkpt>
      <trkpt lat="42.97565" lon="-0.00953">
        <ele>1529</ele>
        <time>2017-01-18T09:54:40.097Z</time>
      </trkpt>
      <trkpt lat="42.97565" lon="-0.00952">
        <ele>1529</ele>
        <time>2017-01-18T09:54:41.097Z</time>
      </trkpt>
      <trkpt lat="42.97566" lon="-0.00951">
        <ele>1529</ele>
        <time>2017-01-18T09:54:42.097Z</time>
      </trkpt>
      <trkpt lat="42.97566" lon="-0.00951">
        <ele>1529</ele>
        <time>2017-01-18T09:54:43.097Z</time>
      </trkpt>
      <trkpt lat="42.97566" lon="-0.0095">
        <ele>1529</ele>
        <time>2017-01-18T09:54:44.097Z</time>
      </trkpt>
      <trkpt lat="42.97566" lon="-0.00949">
        <ele>1529</ele>
        <time>2017-01-18T09:54:45.097Z</time>
      </trkpt>
      <trkpt lat="42.97566" lon="-0.00948">
        <ele>1529</ele>
        <time>2017-01-18T09:54:46.097Z</time>
      </trkpt>
      <trkpt lat="42.97566" lon="-0.00947">
        <ele>1530</ele>
        <time>2017-01-18T09:54:47.097Z</time>
      </trkpt>
      <trkpt lat="42.97567" lon="-0.00946">
        <ele>1530</ele>
        <time>2017-01-18T09:54:48.097Z</time>
      </trkpt>
      <trkpt lat="42.97567" lon="-0.00945">
        <ele>1530</ele>
        <time>2017-01-18T09:54:49.097Z</time>
      </trkpt>
      <trkpt lat="42.97567" lon="-0.00945">
        <ele>1530</ele>
        <time>2017-01-18T09:54:50.097Z</time>
      </trkpt>
      <trkpt lat="42.97567" lon="-0.00944">
        <ele>1530</ele>
        <time>2017-01-18T09:54:51.097Z</time>
      </trkpt>
      <trkpt lat="42.97568" lon="-0.00943">
        <ele>1530</ele>
        <time>2017-01-18T09:54:52.097Z</time>
      </trkpt>
      <trkpt lat="42.97568" lon="-0.00942">
        <ele>1530</ele>
        <time>2017-01-18T09:54:53.097Z</time>
      </trkpt>
      <trkpt lat="42.97568" lon="-0.00941">
        <ele>1530</ele>
        <time>2017-01-18T09:54:54.097Z</time>
      </trkpt>
      <trkpt lat="42.97568" lon="-0.0094">
        <ele>1531</ele>
        <time>2017-01-18T09:54:55.097Z</time>
      </trkpt>
      <trkpt lat="42.97568" lon="-0.00939">
        <ele>1531</ele>
        <time>2017-01-18T09:54:56.097Z</time>
      </trkpt>
      <trkpt lat="42.97568" lon="-0.00938">
        <ele>1531</ele>
        <time>2017-01-18T09:54:57.097Z</time>
      </trkpt>
      <trkpt lat="42.97568" lon="-0.00937">
        <ele>1531</ele>
        <time>2017-01-18T09:54:58.097Z</time>
      </trkpt>
      <trkpt lat="42.97568" lon="-0.00936">
        <ele>1531</ele>
        <time>2017-01-18T09:54:59.097Z</time>
      </trkpt>
      <trkpt lat="42.97568" lon="-0.00935">
        <ele>1531</ele>
        <time>2017-01-18T09:55:00.097Z</time>
      </trkpt>
      <trkpt lat="42.97568" lon="-0.00934">
        <ele>1531</ele>
        <time>2017-01-18T09:55:01.097Z</time>
      </trkpt>
      <trkpt lat="42.97568" lon="-0.00933">
        <ele>1531</ele>
        <time>2017-01-18T09:55:02.097Z</time>
      </trkpt>
      <trkpt lat="42.97568" lon="-0.00932">
        <ele>1531</ele>
        <time>2017-01-18T09:55:03.097Z</time>
      </trkpt>
      <trkpt lat="42.97568" lon="-0.00931">
        <ele>1531</ele>
        <time>2017-01-18T09:55:04.097Z</time>
      </trkpt>
      <trkpt lat="42.97568" lon="-0.00931">
        <ele>1531</ele>
        <time>2017-01-18T09:55:05.097Z</time>
      </trkpt>
      <trkpt lat="42.97568" lon="-0.0093">
        <ele>1531</ele>
        <time>2017-01-18T09:55:06.097Z</time>
      </trkpt>
      <trkpt lat="42.97568" lon="-0.00929">
        <ele>1531</ele>
        <time>2017-01-18T09:55:07.097Z</time>
      </trkpt>
      <trkpt lat="42.97568" lon="-0.00928">
        <ele>1531</ele>
        <time>2017-01-18T09:55:08.097Z</time>
      </trkpt>
      <trkpt lat="42.97568" lon="-0.00927">
        <ele>1531</ele>
        <time>2017-01-18T09:55:09.097Z</time>
      </trkpt>
      <trkpt lat="42.97568" lon="-0.00926">
        <ele>1531</ele>
        <time>2017-01-18T09:55:10.097Z</time>
      </trkpt>
      <trkpt lat="42.97568" lon="-0.00925">
        <ele>1531</ele>
        <time>2017-01-18T09:55:11.097Z</time>
      </trkpt>
      <trkpt lat="42.97568" lon="-0.00924">
        <ele>1531</ele>
        <time>2017-01-18T09:55:12.097Z</time>
      </trkpt>
      <trkpt lat="42.97568" lon="-0.00924">
        <ele>1531</ele>
        <time>2017-01-18T09:55:13.097Z</time>
      </trkpt>
      <trkpt lat="42.97568" lon="-0.00923">
        <ele>1531</ele>
        <time>2017-01-18T09:55:14.097Z</time>
      </trkpt>
      <trkpt lat="42.97568" lon="-0.00922">
        <ele>1531</ele>
        <time>2017-01-18T09:55:15.097Z</time>
      </trkpt>
      <trkpt lat="42.97568" lon="-0.00921">
        <ele>1531</ele>
        <time>2017-01-18T09:55:16.097Z</time>
      </trkpt>
      <trkpt lat="42.97568" lon="-0.0092">
        <ele>1531</ele>
        <time>2017-01-18T09:55:17.097Z</time>
      </trkpt>
      <trkpt lat="42.97569" lon="-0.00919">
        <ele>1532</ele>
        <time>2017-01-18T09:55:18.097Z</time>
      </trkpt>
      <trkpt lat="42.97569" lon="-0.00918">
        <ele>1532</ele>
        <time>2017-01-18T09:55:19.097Z</time>
      </trkpt>
      <trkpt lat="42.97569" lon="-0.00917">
        <ele>1532</ele>
        <time>2017-01-18T09:55:20.097Z</time>
      </trkpt>
      <trkpt lat="42.97569" lon="-0.00917">
        <ele>1531</ele>
        <time>2017-01-18T09:55:21.097Z</time>
      </trkpt>
      <trkpt lat="42.97569" lon="-0.00917">
        <ele>1532</ele>
        <time>2017-01-18T09:55:22.097Z</time>
      </trkpt>
      <trkpt lat="42.97569" lon="-0.00917">
        <ele>1531</ele>
        <time>2017-01-18T09:55:23.097Z</time>
      </trkpt>
      <trkpt lat="42.97569" lon="-0.00917">
        <ele>1531</ele>
        <time>2017-01-18T09:55:24.097Z</time>
      </trkpt>
      <trkpt lat="42.97569" lon="-0.00917">
        <ele>1531</ele>
        <time>2017-01-18T09:55:25.097Z</time>
      </trkpt>
      <trkpt lat="42.97569" lon="-0.00917">
        <ele>1531</ele>
        <time>2017-01-18T09:55:26.097Z</time>
      </trkpt>
      <trkpt lat="42.97569" lon="-0.00915">
        <ele>1532</ele>
        <time>2017-01-18T09:55:27.104Z</time>
      </trkpt>
      <trkpt lat="42.97569" lon="-0.00914">
        <ele>1532</ele>
        <time>2017-01-18T09:55:28.104Z</time>
      </trkpt>
      <trkpt lat="42.9757" lon="-0.00913">
        <ele>1532</ele>
        <time>2017-01-18T09:55:29.104Z</time>
      </trkpt>
      <trkpt lat="42.9757" lon="-0.00912">
        <ele>1532</ele>
        <time>2017-01-18T09:55:30.104Z</time>
      </trkpt>
      <trkpt lat="42.9757" lon="-0.00911">
        <ele>1532</ele>
        <time>2017-01-18T09:55:31.104Z</time>
      </trkpt>
      <trkpt lat="42.9757" lon="-0.0091">
        <ele>1532</ele>
        <time>2017-01-18T09:55:32.104Z</time>
      </trkpt>
      <trkpt lat="42.9757" lon="-0.00909">
        <ele>1532</ele>
        <time>2017-01-18T09:55:33.104Z</time>
      </trkpt>
      <trkpt lat="42.9757" lon="-0.00908">
        <ele>1532</ele>
        <time>2017-01-18T09:55:34.104Z</time>
      </trkpt>
      <trkpt lat="42.9757" lon="-0.00907">
        <ele>1533</ele>
        <time>2017-01-18T09:55:35.104Z</time>
      </trkpt>
      <trkpt lat="42.9757" lon="-0.00906">
        <ele>1532</ele>
        <time>2017-01-18T09:55:36.104Z</time>
      </trkpt>
      <trkpt lat="42.9757" lon="-0.00905">
        <ele>1532</ele>
        <time>2017-01-18T09:55:37.104Z</time>
      </trkpt>
      <trkpt lat="42.9757" lon="-0.00904">
        <ele>1533</ele>
        <time>2017-01-18T09:55:38.104Z</time>
      </trkpt>
      <trkpt lat="42.9757" lon="-0.00903">
        <ele>1533</ele>
        <time>2017-01-18T09:55:39.104Z</time>
      </trkpt>
      <trkpt lat="42.9757" lon="-0.00902">
        <ele>1533</ele>
        <time>2017-01-18T09:55:40.104Z</time>
      </trkpt>
      <trkpt lat="42.9757" lon="-0.00901">
        <ele>1533</ele>
        <time>2017-01-18T09:55:41.104Z</time>
      </trkpt>
      <trkpt lat="42.97569" lon="-0.009">
        <ele>1533</ele>
        <time>2017-01-18T09:55:42.104Z</time>
      </trkpt>
      <trkpt lat="42.97569" lon="-0.00899">
        <ele>1533</ele>
        <time>2017-01-18T09:55:43.104Z</time>
      </trkpt>
      <trkpt lat="42.97569" lon="-0.00898">
        <ele>1533</ele>
        <time>2017-01-18T09:55:44.104Z</time>
      </trkpt>
      <trkpt lat="42.97569" lon="-0.00897">
        <ele>1533</ele>
        <time>2017-01-18T09:55:45.104Z</time>
      </trkpt>
      <trkpt lat="42.97569" lon="-0.00896">
        <ele>1533</ele>
        <time>2017-01-18T09:55:46.104Z</time>
      </trkpt>
      <trkpt lat="42.97569" lon="-0.00895">
        <ele>1533</ele>
        <time>2017-01-18T09:55:47.104Z</time>
      </trkpt>
      <trkpt lat="42.97569" lon="-0.00893">
        <ele>1533</ele>
        <time>2017-01-18T09:55:48.104Z</time>
      </trkpt>
      <trkpt lat="42.97569" lon="-0.00892">
        <ele>1534</ele>
        <time>2017-01-18T09:55:49.104Z</time>
      </trkpt>
      <trkpt lat="42.97569" lon="-0.00891">
        <ele>1534</ele>
        <time>2017-01-18T09:55:50.104Z</time>
      </trkpt>
      <trkpt lat="42.97569" lon="-0.0089">
        <ele>1534</ele>
        <time>2017-01-18T09:55:51.104Z</time>
      </trkpt>
      <trkpt lat="42.97569" lon="-0.00889">
        <ele>1534</ele>
        <time>2017-01-18T09:55:52.104Z</time>
      </trkpt>
      <trkpt lat="42.97568" lon="-0.00889">
        <ele>1534</ele>
        <time>2017-01-18T09:55:53.104Z</time>
      </trkpt>
      <trkpt lat="42.97568" lon="-0.00888">
        <ele>1534</ele>
        <time>2017-01-18T09:55:54.104Z</time>
      </trkpt>
      <trkpt lat="42.97568" lon="-0.00887">
        <ele>1534</ele>
        <time>2017-01-18T09:55:55.104Z</time>
      </trkpt>
      <trkpt lat="42.97568" lon="-0.00886">
        <ele>1534</ele>
        <time>2017-01-18T09:55:56.104Z</time>
      </trkpt>
      <trkpt lat="42.97567" lon="-0.00885">
        <ele>1534</ele>
        <time>2017-01-18T09:55:57.104Z</time>
      </trkpt>
      <trkpt lat="42.97567" lon="-0.00884">
        <ele>1535</ele>
        <time>2017-01-18T09:55:58.104Z</time>
      </trkpt>
      <trkpt lat="42.97567" lon="-0.00883">
        <ele>1535</ele>
        <time>2017-01-18T09:55:59.104Z</time>
      </trkpt>
      <trkpt lat="42.97567" lon="-0.00882">
        <ele>1535</ele>
        <time>2017-01-18T09:56:00.104Z</time>
      </trkpt>
      <trkpt lat="42.97566" lon="-0.00881">
        <ele>1535</ele>
        <time>2017-01-18T09:56:01.104Z</time>
      </trkpt>
      <trkpt lat="42.97566" lon="-0.0088">
        <ele>1535</ele>
        <time>2017-01-18T09:56:02.104Z</time>
      </trkpt>
      <trkpt lat="42.97566" lon="-0.00879">
        <ele>1535</ele>
        <time>2017-01-18T09:56:03.104Z</time>
      </trkpt>
      <trkpt lat="42.97565" lon="-0.00878">
        <ele>1535</ele>
        <time>2017-01-18T09:56:04.104Z</time>
      </trkpt>
      <trkpt lat="42.97565" lon="-0.00877">
        <ele>1535</ele>
        <time>2017-01-18T09:56:05.104Z</time>
      </trkpt>
      <trkpt lat="42.97564" lon="-0.00876">
        <ele>1535</ele>
        <time>2017-01-18T09:56:06.104Z</time>
      </trkpt>
      <trkpt lat="42.97564" lon="-0.00876">
        <ele>1535</ele>
        <time>2017-01-18T09:56:07.104Z</time>
      </trkpt>
      <trkpt lat="42.97564" lon="-0.00875">
        <ele>1535</ele>
        <time>2017-01-18T09:56:08.104Z</time>
      </trkpt>
      <trkpt lat="42.97564" lon="-0.00874">
        <ele>1535</ele>
        <time>2017-01-18T09:56:09.104Z</time>
      </trkpt>
      <trkpt lat="42.97564" lon="-0.00873">
        <ele>1536</ele>
        <time>2017-01-18T09:56:10.104Z</time>
      </trkpt>
      <trkpt lat="42.97564" lon="-0.00872">
        <ele>1536</ele>
        <time>2017-01-18T09:56:11.104Z</time>
      </trkpt>
      <trkpt lat="42.97564" lon="-0.00871">
        <ele>1536</ele>
        <time>2017-01-18T09:56:12.104Z</time>
      </trkpt>
      <trkpt lat="42.97564" lon="-0.00871">
        <ele>1536</ele>
        <time>2017-01-18T09:56:13.104Z</time>
      </trkpt>
      <trkpt lat="42.97564" lon="-0.0087">
        <ele>1536</ele>
        <time>2017-01-18T09:56:14.104Z</time>
      </trkpt>
      <trkpt lat="42.97563" lon="-0.00869">
        <ele>1536</ele>
        <time>2017-01-18T09:56:15.104Z</time>
      </trkpt>
      <trkpt lat="42.97563" lon="-0.00868">
        <ele>1536</ele>
        <time>2017-01-18T09:56:16.104Z</time>
      </trkpt>
      <trkpt lat="42.97563" lon="-0.00867">
        <ele>1536</ele>
        <time>2017-01-18T09:56:17.104Z</time>
      </trkpt>
      <trkpt lat="42.97563" lon="-0.00866">
        <ele>1536</ele>
        <time>2017-01-18T09:56:18.104Z</time>
      </trkpt>
      <trkpt lat="42.97563" lon="-0.00865">
        <ele>1536</ele>
        <time>2017-01-18T09:56:19.104Z</time>
      </trkpt>
      <trkpt lat="42.97562" lon="-0.00864">
        <ele>1537</ele>
        <time>2017-01-18T09:56:20.104Z</time>
      </trkpt>
      <trkpt lat="42.97562" lon="-0.00863">
        <ele>1537</ele>
        <time>2017-01-18T09:56:21.104Z</time>
      </trkpt>
      <trkpt lat="42.97562" lon="-0.00863">
        <ele>1537</ele>
        <time>2017-01-18T09:56:22.104Z</time>
      </trkpt>
      <trkpt lat="42.97561" lon="-0.00862">
        <ele>1537</ele>
        <time>2017-01-18T09:56:23.104Z</time>
      </trkpt>
      <trkpt lat="42.97561" lon="-0.00861">
        <ele>1537</ele>
        <time>2017-01-18T09:56:24.104Z</time>
      </trkpt>
      <trkpt lat="42.97561" lon="-0.0086">
        <ele>1537</ele>
        <time>2017-01-18T09:56:25.104Z</time>
      </trkpt>
      <trkpt lat="42.9756" lon="-0.00859">
        <ele>1537</ele>
        <time>2017-01-18T09:56:26.104Z</time>
      </trkpt>
      <trkpt lat="42.9756" lon="-0.00858">
        <ele>1537</ele>
        <time>2017-01-18T09:56:27.104Z</time>
      </trkpt>
      <trkpt lat="42.97559" lon="-0.00858">
        <ele>1537</ele>
        <time>2017-01-18T09:56:28.104Z</time>
      </trkpt>
      <trkpt lat="42.97559" lon="-0.00857">
        <ele>1537</ele>
        <time>2017-01-18T09:56:29.104Z</time>
      </trkpt>
      <trkpt lat="42.97559" lon="-0.00856">
        <ele>1537</ele>
        <time>2017-01-18T09:56:30.104Z</time>
      </trkpt>
      <trkpt lat="42.97559" lon="-0.00855">
        <ele>1537</ele>
        <time>2017-01-18T09:56:31.104Z</time>
      </trkpt>
      <trkpt lat="42.97558" lon="-0.00854">
        <ele>1538</ele>
        <time>2017-01-18T09:56:32.104Z</time>
      </trkpt>
      <trkpt lat="42.97558" lon="-0.00853">
        <ele>1538</ele>
        <time>2017-01-18T09:56:33.104Z</time>
      </trkpt>
      <trkpt lat="42.97558" lon="-0.00852">
        <ele>1538</ele>
        <time>2017-01-18T09:56:34.104Z</time>
      </trkpt>
      <trkpt lat="42.97557" lon="-0.00852">
        <ele>1538</ele>
        <time>2017-01-18T09:56:35.104Z</time>
      </trkpt>
      <trkpt lat="42.97557" lon="-0.00851">
        <ele>1538</ele>
        <time>2017-01-18T09:56:36.104Z</time>
      </trkpt>
      <trkpt lat="42.97557" lon="-0.0085">
        <ele>1538</ele>
        <time>2017-01-18T09:56:37.104Z</time>
      </trkpt>
      <trkpt lat="42.97556" lon="-0.00849">
        <ele>1538</ele>
        <time>2017-01-18T09:56:38.104Z</time>
      </trkpt>
      <trkpt lat="42.97556" lon="-0.00848">
        <ele>1538</ele>
        <time>2017-01-18T09:56:39.104Z</time>
      </trkpt>
      <trkpt lat="42.97556" lon="-0.00848">
        <ele>1538</ele>
        <time>2017-01-18T09:56:40.104Z</time>
      </trkpt>
      <trkpt lat="42.97555" lon="-0.00847">
        <ele>1538</ele>
        <time>2017-01-18T09:56:41.104Z</time>
      </trkpt>
      <trkpt lat="42.97555" lon="-0.00846">
        <ele>1538</ele>
        <time>2017-01-18T09:56:42.104Z</time>
      </trkpt>
      <trkpt lat="42.97555" lon="-0.00846">
        <ele>1538</ele>
        <time>2017-01-18T09:56:43.104Z</time>
      </trkpt>
      <trkpt lat="42.97555" lon="-0.00846">
        <ele>1538</ele>
        <time>2017-01-18T09:56:44.104Z</time>
      </trkpt>
      <trkpt lat="42.97555" lon="-0.00846">
        <ele>1538</ele>
        <time>2017-01-18T09:56:45.104Z</time>
      </trkpt>
      <trkpt lat="42.97555" lon="-0.00846">
        <ele>1538</ele>
        <time>2017-01-18T09:56:46.104Z</time>
      </trkpt>
      <trkpt lat="42.97555" lon="-0.00846">
        <ele>1538</ele>
        <time>2017-01-18T09:56:47.104Z</time>
      </trkpt>
      <trkpt lat="42.97555" lon="-0.00846">
        <ele>1538</ele>
        <time>2017-01-18T09:56:48.104Z</time>
      </trkpt>
      <trkpt lat="42.97554" lon="-0.00843">
        <ele>1537</ele>
        <time>2017-01-18T09:56:49.111Z</time>
      </trkpt>
      <trkpt lat="42.97554" lon="-0.00843">
        <ele>1537</ele>
        <time>2017-01-18T09:56:50.111Z</time>
      </trkpt>
      <trkpt lat="42.97554" lon="-0.00842">
        <ele>1537</ele>
        <time>2017-01-18T09:56:51.111Z</time>
      </trkpt>
      <trkpt lat="42.97553" lon="-0.00841">
        <ele>1537</ele>
        <time>2017-01-18T09:56:52.111Z</time>
      </trkpt>
      <trkpt lat="42.97553" lon="-0.0084">
        <ele>1538</ele>
        <time>2017-01-18T09:56:53.111Z</time>
      </trkpt>
      <trkpt lat="42.97552" lon="-0.00839">
        <ele>1537</ele>
        <time>2017-01-18T09:56:54.111Z</time>
      </trkpt>
      <trkpt lat="42.97552" lon="-0.00838">
        <ele>1537</ele>
        <time>2017-01-18T09:56:55.111Z</time>
      </trkpt>
      <trkpt lat="42.97552" lon="-0.00837">
        <ele>1538</ele>
        <time>2017-01-18T09:56:56.111Z</time>
      </trkpt>
      <trkpt lat="42.97551" lon="-0.00837">
        <ele>1538</ele>
        <time>2017-01-18T09:56:57.111Z</time>
      </trkpt>
      <trkpt lat="42.97551" lon="-0.00836">
        <ele>1538</ele>
        <time>2017-01-18T09:56:58.111Z</time>
      </trkpt>
      <trkpt lat="42.97551" lon="-0.00835">
        <ele>1538</ele>
        <time>2017-01-18T09:56:59.111Z</time>
      </trkpt>
      <trkpt lat="42.9755" lon="-0.00834">
        <ele>1538</ele>
        <time>2017-01-18T09:57:00.111Z</time>
      </trkpt>
      <trkpt lat="42.9755" lon="-0.00833">
        <ele>1538</ele>
        <time>2017-01-18T09:57:01.111Z</time>
      </trkpt>
      <trkpt lat="42.97549" lon="-0.00832">
        <ele>1538</ele>
        <time>2017-01-18T09:57:02.111Z</time>
      </trkpt>
      <trkpt lat="42.97549" lon="-0.00831">
        <ele>1538</ele>
        <time>2017-01-18T09:57:03.111Z</time>
      </trkpt>
      <trkpt lat="42.97549" lon="-0.0083">
        <ele>1538</ele>
        <time>2017-01-18T09:57:04.111Z</time>
      </trkpt>
      <trkpt lat="42.97548" lon="-0.00829">
        <ele>1538</ele>
        <time>2017-01-18T09:57:05.111Z</time>
      </trkpt>
      <trkpt lat="42.97548" lon="-0.00828">
        <ele>1538</ele>
        <time>2017-01-18T09:57:06.111Z</time>
      </trkpt>
      <trkpt lat="42.97547" lon="-0.00827">
        <ele>1538</ele>
        <time>2017-01-18T09:57:07.111Z</time>
      </trkpt>
      <trkpt lat="42.97547" lon="-0.00826">
        <ele>1539</ele>
        <time>2017-01-18T09:57:08.111Z</time>
      </trkpt>
      <trkpt lat="42.97546" lon="-0.00825">
        <ele>1539</ele>
        <time>2017-01-18T09:57:09.111Z</time>
      </trkpt>
      <trkpt lat="42.97546" lon="-0.00824">
        <ele>1539</ele>
        <time>2017-01-18T09:57:10.111Z</time>
      </trkpt>
      <trkpt lat="42.97546" lon="-0.00824">
        <ele>1539</ele>
        <time>2017-01-18T09:57:11.111Z</time>
      </trkpt>
      <trkpt lat="42.97545" lon="-0.00823">
        <ele>1539</ele>
        <time>2017-01-18T09:57:12.111Z</time>
      </trkpt>
      <trkpt lat="42.97545" lon="-0.00822">
        <ele>1539</ele>
        <time>2017-01-18T09:57:13.111Z</time>
      </trkpt>
      <trkpt lat="42.97545" lon="-0.00821">
        <ele>1539</ele>
        <time>2017-01-18T09:57:14.111Z</time>
      </trkpt>
      <trkpt lat="42.97544" lon="-0.0082">
        <ele>1540</ele>
        <time>2017-01-18T09:57:15.111Z</time>
      </trkpt>
      <trkpt lat="42.97544" lon="-0.00819">
        <ele>1540</ele>
        <time>2017-01-18T09:57:16.111Z</time>
      </trkpt>
      <trkpt lat="42.97544" lon="-0.00818">
        <ele>1540</ele>
        <time>2017-01-18T09:57:17.111Z</time>
      </trkpt>
      <trkpt lat="42.97543" lon="-0.00817">
        <ele>1540</ele>
        <time>2017-01-18T09:57:18.111Z</time>
      </trkpt>
      <trkpt lat="42.97543" lon="-0.00816">
        <ele>1540</ele>
        <time>2017-01-18T09:57:19.111Z</time>
      </trkpt>
      <trkpt lat="42.97543" lon="-0.00815">
        <ele>1540</ele>
        <time>2017-01-18T09:57:20.111Z</time>
      </trkpt>
      <trkpt lat="42.97542" lon="-0.00814">
        <ele>1540</ele>
        <time>2017-01-18T09:57:21.111Z</time>
      </trkpt>
      <trkpt lat="42.97542" lon="-0.00813">
        <ele>1540</ele>
        <time>2017-01-18T09:57:22.111Z</time>
      </trkpt>
      <trkpt lat="42.97542" lon="-0.00812">
        <ele>1540</ele>
        <time>2017-01-18T09:57:23.111Z</time>
      </trkpt>
      <trkpt lat="42.97541" lon="-0.00811">
        <ele>1540</ele>
        <time>2017-01-18T09:57:24.111Z</time>
      </trkpt>
      <trkpt lat="42.97541" lon="-0.0081">
        <ele>1540</ele>
        <time>2017-01-18T09:57:25.111Z</time>
      </trkpt>
      <trkpt lat="42.97541" lon="-0.0081">
        <ele>1540</ele>
        <time>2017-01-18T09:57:26.111Z</time>
      </trkpt>
      <trkpt lat="42.9754" lon="-0.00809">
        <ele>1540</ele>
        <time>2017-01-18T09:57:27.111Z</time>
      </trkpt>
      <trkpt lat="42.9754" lon="-0.00808">
        <ele>1540</ele>
        <time>2017-01-18T09:57:28.111Z</time>
      </trkpt>
      <trkpt lat="42.9754" lon="-0.00807">
        <ele>1541</ele>
        <time>2017-01-18T09:57:29.111Z</time>
      </trkpt>
      <trkpt lat="42.9754" lon="-0.00806">
        <ele>1541</ele>
        <time>2017-01-18T09:57:30.111Z</time>
      </trkpt>
      <trkpt lat="42.9754" lon="-0.00805">
        <ele>1541</ele>
        <time>2017-01-18T09:57:31.111Z</time>
      </trkpt>
      <trkpt lat="42.97539" lon="-0.00804">
        <ele>1541</ele>
        <time>2017-01-18T09:57:32.111Z</time>
      </trkpt>
      <trkpt lat="42.97539" lon="-0.00804">
        <ele>1541</ele>
        <time>2017-01-18T09:57:33.111Z</time>
      </trkpt>
      <trkpt lat="42.97539" lon="-0.00803">
        <ele>1541</ele>
        <time>2017-01-18T09:57:34.111Z</time>
      </trkpt>
      <trkpt lat="42.97538" lon="-0.00802">
        <ele>1541</ele>
        <time>2017-01-18T09:57:35.111Z</time>
      </trkpt>
      <trkpt lat="42.97538" lon="-0.00801">
        <ele>1541</ele>
        <time>2017-01-18T09:57:36.111Z</time>
      </trkpt>
      <trkpt lat="42.97538" lon="-0.008">
        <ele>1540</ele>
        <time>2017-01-18T09:57:37.111Z</time>
      </trkpt>
      <trkpt lat="42.97538" lon="-0.008">
        <ele>1541</ele>
        <time>2017-01-18T09:57:38.111Z</time>
      </trkpt>
      <trkpt lat="42.97538" lon="-0.00799">
        <ele>1541</ele>
        <time>2017-01-18T09:57:39.111Z</time>
      </trkpt>
      <trkpt lat="42.97537" lon="-0.00798">
        <ele>1541</ele>
        <time>2017-01-18T09:57:40.111Z</time>
      </trkpt>
      <trkpt lat="42.97537" lon="-0.00797">
        <ele>1541</ele>
        <time>2017-01-18T09:57:41.111Z</time>
      </trkpt>
      <trkpt lat="42.97537" lon="-0.00796">
        <ele>1541</ele>
        <time>2017-01-18T09:57:42.111Z</time>
      </trkpt>
      <trkpt lat="42.97537" lon="-0.00795">
        <ele>1541</ele>
        <time>2017-01-18T09:57:43.111Z</time>
      </trkpt>
      <trkpt lat="42.97536" lon="-0.00794">
        <ele>1541</ele>
        <time>2017-01-18T09:57:44.111Z</time>
      </trkpt>
      <trkpt lat="42.97536" lon="-0.00793">
        <ele>1541</ele>
        <time>2017-01-18T09:57:45.111Z</time>
      </trkpt>
      <trkpt lat="42.97536" lon="-0.00792">
        <ele>1541</ele>
        <time>2017-01-18T09:57:46.111Z</time>
      </trkpt>
      <trkpt lat="42.97536" lon="-0.00792">
        <ele>1541</ele>
        <time>2017-01-18T09:57:47.111Z</time>
      </trkpt>
      <trkpt lat="42.97535" lon="-0.00791">
        <ele>1541</ele>
        <time>2017-01-18T09:57:48.111Z</time>
      </trkpt>
      <trkpt lat="42.97535" lon="-0.0079">
        <ele>1541</ele>
        <time>2017-01-18T09:57:49.111Z</time>
      </trkpt>
      <trkpt lat="42.97535" lon="-0.00789">
        <ele>1542</ele>
        <time>2017-01-18T09:57:50.111Z</time>
      </trkpt>
      <trkpt lat="42.97535" lon="-0.00788">
        <ele>1542</ele>
        <time>2017-01-18T09:57:51.111Z</time>
      </trkpt>
      <trkpt lat="42.97535" lon="-0.00787">
        <ele>1542</ele>
        <time>2017-01-18T09:57:52.111Z</time>
      </trkpt>
      <trkpt lat="42.97534" lon="-0.00786">
        <ele>1541</ele>
        <time>2017-01-18T09:57:53.111Z</time>
      </trkpt>
      <trkpt lat="42.97534" lon="-0.00785">
        <ele>1541</ele>
        <time>2017-01-18T09:57:54.111Z</time>
      </trkpt>
      <trkpt lat="42.97534" lon="-0.00784">
        <ele>1542</ele>
        <time>2017-01-18T09:57:55.111Z</time>
      </trkpt>
      <trkpt lat="42.97534" lon="-0.00783">
        <ele>1542</ele>
        <time>2017-01-18T09:57:56.111Z</time>
      </trkpt>
      <trkpt lat="42.97534" lon="-0.00782">
        <ele>1542</ele>
        <time>2017-01-18T09:57:57.111Z</time>
      </trkpt>
      <trkpt lat="42.97534" lon="-0.00781">
        <ele>1542</ele>
        <time>2017-01-18T09:57:58.111Z</time>
      </trkpt>
      <trkpt lat="42.97534" lon="-0.0078">
        <ele>1542</ele>
        <time>2017-01-18T09:57:59.111Z</time>
      </trkpt>
      <trkpt lat="42.97534" lon="-0.00779">
        <ele>1542</ele>
        <time>2017-01-18T09:58:00.111Z</time>
      </trkpt>
      <trkpt lat="42.97533" lon="-0.00779">
        <ele>1542</ele>
        <time>2017-01-18T09:58:01.111Z</time>
      </trkpt>
      <trkpt lat="42.97533" lon="-0.00778">
        <ele>1543</ele>
        <time>2017-01-18T09:58:02.111Z</time>
      </trkpt>
      <trkpt lat="42.97533" lon="-0.00777">
        <ele>1543</ele>
        <time>2017-01-18T09:58:03.111Z</time>
      </trkpt>
      <trkpt lat="42.97533" lon="-0.00776">
        <ele>1543</ele>
        <time>2017-01-18T09:58:04.111Z</time>
      </trkpt>
      <trkpt lat="42.97533" lon="-0.00775">
        <ele>1543</ele>
        <time>2017-01-18T09:58:05.111Z</time>
      </trkpt>
      <trkpt lat="42.97533" lon="-0.00774">
        <ele>1543</ele>
        <time>2017-01-18T09:58:06.111Z</time>
      </trkpt>
      <trkpt lat="42.97532" lon="-0.00773">
        <ele>1543</ele>
        <time>2017-01-18T09:58:07.111Z</time>
      </trkpt>
      <trkpt lat="42.97532" lon="-0.00772">
        <ele>1543</ele>
        <time>2017-01-18T09:58:08.111Z</time>
      </trkpt>
      <trkpt lat="42.97532" lon="-0.00771">
        <ele>1543</ele>
        <time>2017-01-18T09:58:09.111Z</time>
      </trkpt>
      <trkpt lat="42.97532" lon="-0.0077">
        <ele>1543</ele>
        <time>2017-01-18T09:58:10.111Z</time>
      </trkpt>
      <trkpt lat="42.97532" lon="-0.00769">
        <ele>1543</ele>
        <time>2017-01-18T09:58:11.111Z</time>
      </trkpt>
      <trkpt lat="42.97532" lon="-0.00768">
        <ele>1543</ele>
        <time>2017-01-18T09:58:12.111Z</time>
      </trkpt>
      <trkpt lat="42.97532" lon="-0.00767">
        <ele>1543</ele>
        <time>2017-01-18T09:58:13.111Z</time>
      </trkpt>
      <trkpt lat="42.97532" lon="-0.00767">
        <ele>1544</ele>
        <time>2017-01-18T09:58:14.111Z</time>
      </trkpt>
      <trkpt lat="42.97532" lon="-0.00766">
        <ele>1544</ele>
        <time>2017-01-18T09:58:15.111Z</time>
      </trkpt>
      <trkpt lat="42.97532" lon="-0.00765">
        <ele>1544</ele>
        <time>2017-01-18T09:58:16.111Z</time>
      </trkpt>
      <trkpt lat="42.97532" lon="-0.00764">
        <ele>1544</ele>
        <time>2017-01-18T09:58:17.111Z</time>
      </trkpt>
      <trkpt lat="42.97532" lon="-0.00764">
        <ele>1544</ele>
        <time>2017-01-18T09:58:18.111Z</time>
      </trkpt>
      <trkpt lat="42.97532" lon="-0.00763">
        <ele>1544</ele>
        <time>2017-01-18T09:58:19.111Z</time>
      </trkpt>
      <trkpt lat="42.97532" lon="-0.00762">
        <ele>1544</ele>
        <time>2017-01-18T09:58:20.111Z</time>
      </trkpt>
      <trkpt lat="42.97532" lon="-0.00761">
        <ele>1544</ele>
        <time>2017-01-18T09:58:21.111Z</time>
      </trkpt>
      <trkpt lat="42.97532" lon="-0.00761">
        <ele>1544</ele>
        <time>2017-01-18T09:58:22.111Z</time>
      </trkpt>
      <trkpt lat="42.97532" lon="-0.0076">
        <ele>1544</ele>
        <time>2017-01-18T09:58:23.111Z</time>
      </trkpt>
      <trkpt lat="42.97532" lon="-0.00759">
        <ele>1544</ele>
        <time>2017-01-18T09:58:24.111Z</time>
      </trkpt>
      <trkpt lat="42.97532" lon="-0.00758">
        <ele>1544</ele>
        <time>2017-01-18T09:58:25.111Z</time>
      </trkpt>
      <trkpt lat="42.97532" lon="-0.00757">
        <ele>1544</ele>
        <time>2017-01-18T09:58:26.111Z</time>
      </trkpt>
      <trkpt lat="42.97532" lon="-0.00756">
        <ele>1544</ele>
        <time>2017-01-18T09:58:27.111Z</time>
      </trkpt>
      <trkpt lat="42.97532" lon="-0.00755">
        <ele>1544</ele>
        <time>2017-01-18T09:58:28.111Z</time>
      </trkpt>
      <trkpt lat="42.97532" lon="-0.00755">
        <ele>1544</ele>
        <time>2017-01-18T09:58:29.111Z</time>
      </trkpt>
      <trkpt lat="42.97533" lon="-0.00754">
        <ele>1544</ele>
        <time>2017-01-18T09:58:30.111Z</time>
      </trkpt>
      <trkpt lat="42.97533" lon="-0.00753">
        <ele>1544</ele>
        <time>2017-01-18T09:58:31.111Z</time>
      </trkpt>
      <trkpt lat="42.97533" lon="-0.00752">
        <ele>1545</ele>
        <time>2017-01-18T09:58:32.111Z</time>
      </trkpt>
      <trkpt lat="42.97533" lon="-0.00751">
        <ele>1545</ele>
        <time>2017-01-18T09:58:33.111Z</time>
      </trkpt>
      <trkpt lat="42.97533" lon="-0.0075">
        <ele>1545</ele>
        <time>2017-01-18T09:58:34.111Z</time>
      </trkpt>
      <trkpt lat="42.97533" lon="-0.0075">
        <ele>1545</ele>
        <time>2017-01-18T09:58:35.111Z</time>
      </trkpt>
      <trkpt lat="42.97534" lon="-0.00749">
        <ele>1545</ele>
        <time>2017-01-18T09:58:36.111Z</time>
      </trkpt>
      <trkpt lat="42.97534" lon="-0.00748">
        <ele>1545</ele>
        <time>2017-01-18T09:58:37.111Z</time>
      </trkpt>
      <trkpt lat="42.97534" lon="-0.00747">
        <ele>1545</ele>
        <time>2017-01-18T09:58:38.111Z</time>
      </trkpt>
      <trkpt lat="42.97534" lon="-0.00747">
        <ele>1545</ele>
        <time>2017-01-18T09:58:39.111Z</time>
      </trkpt>
      <trkpt lat="42.97534" lon="-0.00746">
        <ele>1545</ele>
        <time>2017-01-18T09:58:40.111Z</time>
      </trkpt>
      <trkpt lat="42.97535" lon="-0.00745">
        <ele>1545</ele>
        <time>2017-01-18T09:58:41.111Z</time>
      </trkpt>
      <trkpt lat="42.97535" lon="-0.00745">
        <ele>1545</ele>
        <time>2017-01-18T09:58:42.111Z</time>
      </trkpt>
      <trkpt lat="42.97535" lon="-0.00744">
        <ele>1545</ele>
        <time>2017-01-18T09:58:43.111Z</time>
      </trkpt>
      <trkpt lat="42.97535" lon="-0.00743">
        <ele>1545</ele>
        <time>2017-01-18T09:58:44.111Z</time>
      </trkpt>
      <trkpt lat="42.97536" lon="-0.00742">
        <ele>1545</ele>
        <time>2017-01-18T09:58:45.111Z</time>
      </trkpt>
      <trkpt lat="42.97536" lon="-0.00742">
        <ele>1545</ele>
        <time>2017-01-18T09:58:46.111Z</time>
      </trkpt>
      <trkpt lat="42.97536" lon="-0.00741">
        <ele>1545</ele>
        <time>2017-01-18T09:58:47.111Z</time>
      </trkpt>
      <trkpt lat="42.97536" lon="-0.0074">
        <ele>1545</ele>
        <time>2017-01-18T09:58:48.111Z</time>
      </trkpt>
      <trkpt lat="42.97536" lon="-0.0074">
        <ele>1546</ele>
        <time>2017-01-18T09:58:49.111Z</time>
      </trkpt>
      <trkpt lat="42.97537" lon="-0.00739">
        <ele>1546</ele>
        <time>2017-01-18T09:58:50.111Z</time>
      </trkpt>
      <trkpt lat="42.97537" lon="-0.00738">
        <ele>1546</ele>
        <time>2017-01-18T09:58:51.111Z</time>
      </trkpt>
      <trkpt lat="42.97537" lon="-0.00737">
        <ele>1546</ele>
        <time>2017-01-18T09:58:52.111Z</time>
      </trkpt>
      <trkpt lat="42.97537" lon="-0.00737">
        <ele>1546</ele>
        <time>2017-01-18T09:58:53.111Z</time>
      </trkpt>
      <trkpt lat="42.97537" lon="-0.00736">
        <ele>1546</ele>
        <time>2017-01-18T09:58:54.111Z</time>
      </trkpt>
      <trkpt lat="42.97537" lon="-0.00735">
        <ele>1546</ele>
        <time>2017-01-18T09:58:55.111Z</time>
      </trkpt>
      <trkpt lat="42.97538" lon="-0.00734">
        <ele>1546</ele>
        <time>2017-01-18T09:58:56.111Z</time>
      </trkpt>
      <trkpt lat="42.97538" lon="-0.00733">
        <ele>1546</ele>
        <time>2017-01-18T09:58:57.111Z</time>
      </trkpt>
      <trkpt lat="42.97538" lon="-0.00733">
        <ele>1546</ele>
        <time>2017-01-18T09:58:58.111Z</time>
      </trkpt>
      <trkpt lat="42.97538" lon="-0.00732">
        <ele>1547</ele>
        <time>2017-01-18T09:58:59.111Z</time>
      </trkpt>
      <trkpt lat="42.97539" lon="-0.00731">
        <ele>1547</ele>
        <time>2017-01-18T09:59:00.111Z</time>
      </trkpt>
      <trkpt lat="42.97539" lon="-0.0073">
        <ele>1546</ele>
        <time>2017-01-18T09:59:01.111Z</time>
      </trkpt>
      <trkpt lat="42.97539" lon="-0.00729">
        <ele>1546</ele>
        <time>2017-01-18T09:59:02.111Z</time>
      </trkpt>
      <trkpt lat="42.9754" lon="-0.00729">
        <ele>1546</ele>
        <time>2017-01-18T09:59:03.111Z</time>
      </trkpt>
      <trkpt lat="42.9754" lon="-0.00728">
        <ele>1547</ele>
        <time>2017-01-18T09:59:04.111Z</time>
      </trkpt>
      <trkpt lat="42.9754" lon="-0.00727">
        <ele>1547</ele>
        <time>2017-01-18T09:59:05.111Z</time>
      </trkpt>
      <trkpt lat="42.9754" lon="-0.00726">
        <ele>1547</ele>
        <time>2017-01-18T09:59:06.111Z</time>
      </trkpt>
      <trkpt lat="42.97541" lon="-0.00726">
        <ele>1547</ele>
        <time>2017-01-18T09:59:07.111Z</time>
      </trkpt>
      <trkpt lat="42.97541" lon="-0.00725">
        <ele>1547</ele>
        <time>2017-01-18T09:59:08.111Z</time>
      </trkpt>
      <trkpt lat="42.97541" lon="-0.00724">
        <ele>1547</ele>
        <time>2017-01-18T09:59:09.111Z</time>
      </trkpt>
      <trkpt lat="42.97541" lon="-0.00723">
        <ele>1548</ele>
        <time>2017-01-18T09:59:10.111Z</time>
      </trkpt>
      <trkpt lat="42.97542" lon="-0.00722">
        <ele>1548</ele>
        <time>2017-01-18T09:59:11.111Z</time>
      </trkpt>
      <trkpt lat="42.97542" lon="-0.00721">
        <ele>1549</ele>
        <time>2017-01-18T09:59:12.111Z</time>
      </trkpt>
      <trkpt lat="42.97542" lon="-0.00721">
        <ele>1549</ele>
        <time>2017-01-18T09:59:13.111Z</time>
      </trkpt>
      <trkpt lat="42.97543" lon="-0.0072">
        <ele>1548</ele>
        <time>2017-01-18T09:59:14.111Z</time>
      </trkpt>
      <trkpt lat="42.97543" lon="-0.00719">
        <ele>1549</ele>
        <time>2017-01-18T09:59:15.111Z</time>
      </trkpt>
      <trkpt lat="42.97543" lon="-0.00718">
        <ele>1549</ele>
        <time>2017-01-18T09:59:16.111Z</time>
      </trkpt>
      <trkpt lat="42.97543" lon="-0.00717">
        <ele>1549</ele>
        <time>2017-01-18T09:59:17.111Z</time>
      </trkpt>
      <trkpt lat="42.97543" lon="-0.00716">
        <ele>1549</ele>
        <time>2017-01-18T09:59:18.111Z</time>
      </trkpt>
      <trkpt lat="42.97544" lon="-0.00716">
        <ele>1549</ele>
        <time>2017-01-18T09:59:19.111Z</time>
      </trkpt>
      <trkpt lat="42.97544" lon="-0.00715">
        <ele>1549</ele>
        <time>2017-01-18T09:59:20.111Z</time>
      </trkpt>
      <trkpt lat="42.97544" lon="-0.00714">
        <ele>1549</ele>
        <time>2017-01-18T09:59:21.111Z</time>
      </trkpt>
      <trkpt lat="42.97544" lon="-0.00713">
        <ele>1549</ele>
        <time>2017-01-18T09:59:22.111Z</time>
      </trkpt>
      <trkpt lat="42.97544" lon="-0.00713">
        <ele>1550</ele>
        <time>2017-01-18T09:59:23.111Z</time>
      </trkpt>
      <trkpt lat="42.97545" lon="-0.00712">
        <ele>1550</ele>
        <time>2017-01-18T09:59:24.111Z</time>
      </trkpt>
      <trkpt lat="42.97545" lon="-0.00711">
        <ele>1550</ele>
        <time>2017-01-18T09:59:25.111Z</time>
      </trkpt>
      <trkpt lat="42.97545" lon="-0.0071">
        <ele>1550</ele>
        <time>2017-01-18T09:59:26.111Z</time>
      </trkpt>
      <trkpt lat="42.97546" lon="-0.00709">
        <ele>1550</ele>
        <time>2017-01-18T09:59:27.111Z</time>
      </trkpt>
      <trkpt lat="42.97546" lon="-0.00709">
        <ele>1550</ele>
        <time>2017-01-18T09:59:28.111Z</time>
      </trkpt>
      <trkpt lat="42.97546" lon="-0.00708">
        <ele>1550</ele>
        <time>2017-01-18T09:59:29.111Z</time>
      </trkpt>
      <trkpt lat="42.97547" lon="-0.00707">
        <ele>1550</ele>
        <time>2017-01-18T09:59:30.111Z</time>
      </trkpt>
      <trkpt lat="42.97547" lon="-0.00706">
        <ele>1550</ele>
        <time>2017-01-18T09:59:31.111Z</time>
      </trkpt>
      <trkpt lat="42.97547" lon="-0.00705">
        <ele>1550</ele>
        <time>2017-01-18T09:59:32.111Z</time>
      </trkpt>
      <trkpt lat="42.97547" lon="-0.00704">
        <ele>1550</ele>
        <time>2017-01-18T09:59:33.111Z</time>
      </trkpt>
      <trkpt lat="42.97548" lon="-0.00704">
        <ele>1550</ele>
        <time>2017-01-18T09:59:34.111Z</time>
      </trkpt>
      <trkpt lat="42.97548" lon="-0.00703">
        <ele>1550</ele>
        <time>2017-01-18T09:59:35.111Z</time>
      </trkpt>
      <trkpt lat="42.97548" lon="-0.00702">
        <ele>1551</ele>
        <time>2017-01-18T09:59:36.111Z</time>
      </trkpt>
      <trkpt lat="42.97548" lon="-0.00701">
        <ele>1551</ele>
        <time>2017-01-18T09:59:37.111Z</time>
      </trkpt>
      <trkpt lat="42.97549" lon="-0.007">
        <ele>1551</ele>
        <time>2017-01-18T09:59:38.111Z</time>
      </trkpt>
      <trkpt lat="42.97549" lon="-0.00699">
        <ele>1551</ele>
        <time>2017-01-18T09:59:39.111Z</time>
      </trkpt>
      <trkpt lat="42.97549" lon="-0.00698">
        <ele>1551</ele>
        <time>2017-01-18T09:59:40.111Z</time>
      </trkpt>
      <trkpt lat="42.9755" lon="-0.00698">
        <ele>1551</ele>
        <time>2017-01-18T09:59:41.111Z</time>
      </trkpt>
      <trkpt lat="42.9755" lon="-0.00697">
        <ele>1551</ele>
        <time>2017-01-18T09:59:42.111Z</time>
      </trkpt>
      <trkpt lat="42.9755" lon="-0.00696">
        <ele>1551</ele>
        <time>2017-01-18T09:59:43.111Z</time>
      </trkpt>
      <trkpt lat="42.97551" lon="-0.00695">
        <ele>1551</ele>
        <time>2017-01-18T09:59:44.111Z</time>
      </trkpt>
      <trkpt lat="42.97551" lon="-0.00694">
        <ele>1551</ele>
        <time>2017-01-18T09:59:45.111Z</time>
      </trkpt>
      <trkpt lat="42.97551" lon="-0.00694">
        <ele>1551</ele>
        <time>2017-01-18T09:59:46.111Z</time>
      </trkpt>
      <trkpt lat="42.97552" lon="-0.00693">
        <ele>1551</ele>
        <time>2017-01-18T09:59:47.111Z</time>
      </trkpt>
      <trkpt lat="42.97552" lon="-0.00692">
        <ele>1551</ele>
        <time>2017-01-18T09:59:48.111Z</time>
      </trkpt>
      <trkpt lat="42.97552" lon="-0.00691">
        <ele>1551</ele>
        <time>2017-01-18T09:59:49.111Z</time>
      </trkpt>
      <trkpt lat="42.97552" lon="-0.0069">
        <ele>1551</ele>
        <time>2017-01-18T09:59:50.111Z</time>
      </trkpt>
      <trkpt lat="42.97552" lon="-0.00689">
        <ele>1551</ele>
        <time>2017-01-18T09:59:51.111Z</time>
      </trkpt>
      <trkpt lat="42.97552" lon="-0.00688">
        <ele>1552</ele>
        <time>2017-01-18T09:59:52.111Z</time>
      </trkpt>
      <trkpt lat="42.97553" lon="-0.00687">
        <ele>1552</ele>
        <time>2017-01-18T09:59:53.111Z</time>
      </trkpt>
      <trkpt lat="42.97553" lon="-0.00686">
        <ele>1552</ele>
        <time>2017-01-18T09:59:54.111Z</time>
      </trkpt>
      <trkpt lat="42.97553" lon="-0.00686">
        <ele>1552</ele>
        <time>2017-01-18T09:59:55.111Z</time>
      </trkpt>
      <trkpt lat="42.97553" lon="-0.00685">
        <ele>1552</ele>
        <time>2017-01-18T09:59:56.111Z</time>
      </trkpt>
      <trkpt lat="42.97553" lon="-0.00684">
        <ele>1552</ele>
        <time>2017-01-18T09:59:57.111Z</time>
      </trkpt>
      <trkpt lat="42.97554" lon="-0.00683">
        <ele>1552</ele>
        <time>2017-01-18T09:59:58.111Z</time>
      </trkpt>
      <trkpt lat="42.97554" lon="-0.00683">
        <ele>1552</ele>
        <time>2017-01-18T09:59:59.111Z</time>
      </trkpt>
      <trkpt lat="42.97554" lon="-0.00682">
        <ele>1552</ele>
        <time>2017-01-18T10:00:00.111Z</time>
      </trkpt>
      <trkpt lat="42.97554" lon="-0.00681">
        <ele>1552</ele>
        <time>2017-01-18T10:00:01.111Z</time>
      </trkpt>
      <trkpt lat="42.97555" lon="-0.00681">
        <ele>1552</ele>
        <time>2017-01-18T10:00:02.111Z</time>
      </trkpt>
      <trkpt lat="42.97555" lon="-0.0068">
        <ele>1552</ele>
        <time>2017-01-18T10:00:03.111Z</time>
      </trkpt>
      <trkpt lat="42.97555" lon="-0.00679">
        <ele>1552</ele>
        <time>2017-01-18T10:00:04.111Z</time>
      </trkpt>
      <trkpt lat="42.97556" lon="-0.00678">
        <ele>1553</ele>
        <time>2017-01-18T10:00:05.111Z</time>
      </trkpt>
      <trkpt lat="42.97556" lon="-0.00678">
        <ele>1553</ele>
        <time>2017-01-18T10:00:06.111Z</time>
      </trkpt>
      <trkpt lat="42.97556" lon="-0.00677">
        <ele>1553</ele>
        <time>2017-01-18T10:00:07.111Z</time>
      </trkpt>
      <trkpt lat="42.97557" lon="-0.00676">
        <ele>1553</ele>
        <time>2017-01-18T10:00:08.111Z</time>
      </trkpt>
      <trkpt lat="42.97557" lon="-0.00675">
        <ele>1553</ele>
        <time>2017-01-18T10:00:09.111Z</time>
      </trkpt>
      <trkpt lat="42.97557" lon="-0.00674">
        <ele>1553</ele>
        <time>2017-01-18T10:00:10.111Z</time>
      </trkpt>
      <trkpt lat="42.97558" lon="-0.00674">
        <ele>1553</ele>
        <time>2017-01-18T10:00:11.111Z</time>
      </trkpt>
      <trkpt lat="42.97558" lon="-0.00673">
        <ele>1553</ele>
        <time>2017-01-18T10:00:12.111Z</time>
      </trkpt>
      <trkpt lat="42.97558" lon="-0.00672">
        <ele>1554</ele>
        <time>2017-01-18T10:00:13.111Z</time>
      </trkpt>
      <trkpt lat="42.97558" lon="-0.00672">
        <ele>1554</ele>
        <time>2017-01-18T10:00:14.111Z</time>
      </trkpt>
      <trkpt lat="42.97559" lon="-0.00671">
        <ele>1554</ele>
        <time>2017-01-18T10:00:15.111Z</time>
      </trkpt>
      <trkpt lat="42.97559" lon="-0.0067">
        <ele>1554</ele>
        <time>2017-01-18T10:00:16.111Z</time>
      </trkpt>
      <trkpt lat="42.97559" lon="-0.00669">
        <ele>1554</ele>
        <time>2017-01-18T10:00:17.111Z</time>
      </trkpt>
      <trkpt lat="42.9756" lon="-0.00669">
        <ele>1554</ele>
        <time>2017-01-18T10:00:18.111Z</time>
      </trkpt>
      <trkpt lat="42.9756" lon="-0.00668">
        <ele>1554</ele>
        <time>2017-01-18T10:00:19.111Z</time>
      </trkpt>
      <trkpt lat="42.9756" lon="-0.00667">
        <ele>1554</ele>
        <time>2017-01-18T10:00:20.111Z</time>
      </trkpt>
      <trkpt lat="42.97561" lon="-0.00666">
        <ele>1554</ele>
        <time>2017-01-18T10:00:21.111Z</time>
      </trkpt>
      <trkpt lat="42.97561" lon="-0.00666">
        <ele>1554</ele>
        <time>2017-01-18T10:00:22.111Z</time>
      </trkpt>
      <trkpt lat="42.97561" lon="-0.00665">
        <ele>1554</ele>
        <time>2017-01-18T10:00:23.111Z</time>
      </trkpt>
      <trkpt lat="42.97562" lon="-0.00664">
        <ele>1554</ele>
        <time>2017-01-18T10:00:24.111Z</time>
      </trkpt>
      <trkpt lat="42.97562" lon="-0.00664">
        <ele>1554</ele>
        <time>2017-01-18T10:00:25.111Z</time>
      </trkpt>
      <trkpt lat="42.97562" lon="-0.00663">
        <ele>1554</ele>
        <time>2017-01-18T10:00:26.111Z</time>
      </trkpt>
      <trkpt lat="42.97563" lon="-0.00662">
        <ele>1554</ele>
        <time>2017-01-18T10:00:27.111Z</time>
      </trkpt>
      <trkpt lat="42.97563" lon="-0.00662">
        <ele>1554</ele>
        <time>2017-01-18T10:00:28.111Z</time>
      </trkpt>
      <trkpt lat="42.97563" lon="-0.00662">
        <ele>1554</ele>
        <time>2017-01-18T10:00:29.111Z</time>
      </trkpt>
      <trkpt lat="42.97563" lon="-0.00661">
        <ele>1554</ele>
        <time>2017-01-18T10:00:30.111Z</time>
      </trkpt>
      <trkpt lat="42.97563" lon="-0.00661">
        <ele>1553</ele>
        <time>2017-01-18T10:00:31.111Z</time>
      </trkpt>
      <trkpt lat="42.97563" lon="-0.00662">
        <ele>1553</ele>
        <time>2017-01-18T10:00:32.111Z</time>
      </trkpt>
      <trkpt lat="42.97563" lon="-0.00662">
        <ele>1553</ele>
        <time>2017-01-18T10:00:33.111Z</time>
      </trkpt>
      <trkpt lat="42.97564" lon="-0.00662">
        <ele>1553</ele>
        <time>2017-01-18T10:00:34.111Z</time>
      </trkpt>
      <trkpt lat="42.97564" lon="-0.00661">
        <ele>1553</ele>
        <time>2017-01-18T10:00:35.111Z</time>
      </trkpt>
      <trkpt lat="42.97564" lon="-0.00661">
        <ele>1553</ele>
        <time>2017-01-18T10:00:36.111Z</time>
      </trkpt>
      <trkpt lat="42.97565" lon="-0.0066">
        <ele>1553</ele>
        <time>2017-01-18T10:00:37.111Z</time>
      </trkpt>
      <trkpt lat="42.97565" lon="-0.00659">
        <ele>1554</ele>
        <time>2017-01-18T10:00:38.111Z</time>
      </trkpt>
      <trkpt lat="42.97565" lon="-0.00659">
        <ele>1554</ele>
        <time>2017-01-18T10:00:39.111Z</time>
      </trkpt>
      <trkpt lat="42.97566" lon="-0.00658">
        <ele>1554</ele>
        <time>2017-01-18T10:00:40.111Z</time>
      </trkpt>
      <trkpt lat="42.97566" lon="-0.00657">
        <ele>1554</ele>
        <time>2017-01-18T10:00:41.111Z</time>
      </trkpt>
      <trkpt lat="42.97567" lon="-0.00657">
        <ele>1554</ele>
        <time>2017-01-18T10:00:42.111Z</time>
      </trkpt>
      <trkpt lat="42.97567" lon="-0.00656">
        <ele>1554</ele>
        <time>2017-01-18T10:00:43.111Z</time>
      </trkpt>
      <trkpt lat="42.97568" lon="-0.00655">
        <ele>1554</ele>
        <time>2017-01-18T10:00:44.111Z</time>
      </trkpt>
      <trkpt lat="42.97568" lon="-0.00654">
        <ele>1554</ele>
        <time>2017-01-18T10:00:45.111Z</time>
      </trkpt>
      <trkpt lat="42.97569" lon="-0.00654">
        <ele>1554</ele>
        <time>2017-01-18T10:00:46.111Z</time>
      </trkpt>
      <trkpt lat="42.97569" lon="-0.00653">
        <ele>1554</ele>
        <time>2017-01-18T10:00:47.111Z</time>
      </trkpt>
      <trkpt lat="42.97569" lon="-0.00653">
        <ele>1554</ele>
        <time>2017-01-18T10:00:48.111Z</time>
      </trkpt>
      <trkpt lat="42.9757" lon="-0.00652">
        <ele>1554</ele>
        <time>2017-01-18T10:00:49.111Z</time>
      </trkpt>
      <trkpt lat="42.9757" lon="-0.00651">
        <ele>1554</ele>
        <time>2017-01-18T10:00:50.111Z</time>
      </trkpt>
      <trkpt lat="42.97571" lon="-0.00651">
        <ele>1554</ele>
        <time>2017-01-18T10:00:51.111Z</time>
      </trkpt>
      <trkpt lat="42.97571" lon="-0.0065">
        <ele>1554</ele>
        <time>2017-01-18T10:00:52.111Z</time>
      </trkpt>
      <trkpt lat="42.97572" lon="-0.00649">
        <ele>1554</ele>
        <time>2017-01-18T10:00:53.111Z</time>
      </trkpt>
      <trkpt lat="42.97572" lon="-0.00648">
        <ele>1554</ele>
        <time>2017-01-18T10:00:54.111Z</time>
      </trkpt>
      <trkpt lat="42.97573" lon="-0.00648">
        <ele>1554</ele>
        <time>2017-01-18T10:00:55.111Z</time>
      </trkpt>
      <trkpt lat="42.97573" lon="-0.00647">
        <ele>1554</ele>
        <time>2017-01-18T10:00:56.111Z</time>
      </trkpt>
      <trkpt lat="42.97574" lon="-0.00646">
        <ele>1554</ele>
        <time>2017-01-18T10:00:57.111Z</time>
      </trkpt>
      <trkpt lat="42.97574" lon="-0.00645">
        <ele>1554</ele>
        <time>2017-01-18T10:00:58.111Z</time>
      </trkpt>
      <trkpt lat="42.97575" lon="-0.00645">
        <ele>1554</ele>
        <time>2017-01-18T10:00:59.111Z</time>
      </trkpt>
      <trkpt lat="42.97576" lon="-0.00644">
        <ele>1555</ele>
        <time>2017-01-18T10:01:00.111Z</time>
      </trkpt>
      <trkpt lat="42.97576" lon="-0.00644">
        <ele>1554</ele>
        <time>2017-01-18T10:01:01.111Z</time>
      </trkpt>
      <trkpt lat="42.97577" lon="-0.00643">
        <ele>1555</ele>
        <time>2017-01-18T10:01:02.111Z</time>
      </trkpt>
      <trkpt lat="42.97577" lon="-0.00642">
        <ele>1554</ele>
        <time>2017-01-18T10:01:03.111Z</time>
      </trkpt>
      <trkpt lat="42.97578" lon="-0.00642">
        <ele>1555</ele>
        <time>2017-01-18T10:01:04.111Z</time>
      </trkpt>
      <trkpt lat="42.97579" lon="-0.00641">
        <ele>1554</ele>
        <time>2017-01-18T10:01:05.111Z</time>
      </trkpt>
      <trkpt lat="42.97579" lon="-0.00641">
        <ele>1554</ele>
        <time>2017-01-18T10:01:06.111Z</time>
      </trkpt>
      <trkpt lat="42.9758" lon="-0.0064">
        <ele>1554</ele>
        <time>2017-01-18T10:01:07.111Z</time>
      </trkpt>
      <trkpt lat="42.97581" lon="-0.0064">
        <ele>1555</ele>
        <time>2017-01-18T10:01:08.111Z</time>
      </trkpt>
      <trkpt lat="42.97581" lon="-0.00639">
        <ele>1554</ele>
        <time>2017-01-18T10:01:09.111Z</time>
      </trkpt>
      <trkpt lat="42.97582" lon="-0.00639">
        <ele>1555</ele>
        <time>2017-01-18T10:01:10.111Z</time>
      </trkpt>
      <trkpt lat="42.97583" lon="-0.00638">
        <ele>1555</ele>
        <time>2017-01-18T10:01:11.111Z</time>
      </trkpt>
      <trkpt lat="42.97584" lon="-0.00638">
        <ele>1555</ele>
        <time>2017-01-18T10:01:12.111Z</time>
      </trkpt>
      <trkpt lat="42.97584" lon="-0.00638">
        <ele>1555</ele>
        <time>2017-01-18T10:01:13.111Z</time>
      </trkpt>
      <trkpt lat="42.97585" lon="-0.00637">
        <ele>1555</ele>
        <time>2017-01-18T10:01:14.111Z</time>
      </trkpt>
      <trkpt lat="42.97585" lon="-0.00637">
        <ele>1555</ele>
        <time>2017-01-18T10:01:15.111Z</time>
      </trkpt>
      <trkpt lat="42.97586" lon="-0.00637">
        <ele>1555</ele>
        <time>2017-01-18T10:01:16.111Z</time>
      </trkpt>
      <trkpt lat="42.97587" lon="-0.00636">
        <ele>1554</ele>
        <time>2017-01-18T10:01:17.111Z</time>
      </trkpt>
      <trkpt lat="42.97587" lon="-0.00636">
        <ele>1554</ele>
        <time>2017-01-18T10:01:18.111Z</time>
      </trkpt>
      <trkpt lat="42.97588" lon="-0.00636">
        <ele>1555</ele>
        <time>2017-01-18T10:01:19.111Z</time>
      </trkpt>
      <trkpt lat="42.97589" lon="-0.00635">
        <ele>1555</ele>
        <time>2017-01-18T10:01:20.111Z</time>
      </trkpt>
      <trkpt lat="42.97589" lon="-0.00635">
        <ele>1554</ele>
        <time>2017-01-18T10:01:21.111Z</time>
      </trkpt>
      <trkpt lat="42.9759" lon="-0.00635">
        <ele>1554</ele>
        <time>2017-01-18T10:01:22.111Z</time>
      </trkpt>
      <trkpt lat="42.97591" lon="-0.00635">
        <ele>1555</ele>
        <time>2017-01-18T10:01:23.111Z</time>
      </trkpt>
      <trkpt lat="42.97591" lon="-0.00634">
        <ele>1555</ele>
        <time>2017-01-18T10:01:24.111Z</time>
      </trkpt>
      <trkpt lat="42.97592" lon="-0.00634">
        <ele>1555</ele>
        <time>2017-01-18T10:01:25.111Z</time>
      </trkpt>
      <trkpt lat="42.97593" lon="-0.00634">
        <ele>1555</ele>
        <time>2017-01-18T10:01:26.111Z</time>
      </trkpt>
      <trkpt lat="42.97593" lon="-0.00633">
        <ele>1555</ele>
        <time>2017-01-18T10:01:27.111Z</time>
      </trkpt>
      <trkpt lat="42.97594" lon="-0.00633">
        <ele>1555</ele>
        <time>2017-01-18T10:01:28.111Z</time>
      </trkpt>
      <trkpt lat="42.97595" lon="-0.00633">
        <ele>1555</ele>
        <time>2017-01-18T10:01:29.111Z</time>
      </trkpt>
      <trkpt lat="42.97596" lon="-0.00633">
        <ele>1555</ele>
        <time>2017-01-18T10:01:30.111Z</time>
      </trkpt>
      <trkpt lat="42.97597" lon="-0.00632">
        <ele>1556</ele>
        <time>2017-01-18T10:01:31.111Z</time>
      </trkpt>
      <trkpt lat="42.97597" lon="-0.00632">
        <ele>1556</ele>
        <time>2017-01-18T10:01:32.111Z</time>
      </trkpt>
      <trkpt lat="42.97598" lon="-0.00632">
        <ele>1556</ele>
        <time>2017-01-18T10:01:33.111Z</time>
      </trkpt>
      <trkpt lat="42.97599" lon="-0.00632">
        <ele>1556</ele>
        <time>2017-01-18T10:01:34.111Z</time>
      </trkpt>
      <trkpt lat="42.976" lon="-0.00632">
        <ele>1556</ele>
        <time>2017-01-18T10:01:35.111Z</time>
      </trkpt>
      <trkpt lat="42.976" lon="-0.00632">
        <ele>1555</ele>
        <time>2017-01-18T10:01:36.111Z</time>
      </trkpt>
      <trkpt lat="42.97601" lon="-0.00631">
        <ele>1555</ele>
        <time>2017-01-18T10:01:37.111Z</time>
      </trkpt>
      <trkpt lat="42.97602" lon="-0.00631">
        <ele>1555</ele>
        <time>2017-01-18T10:01:38.111Z</time>
      </trkpt>
      <trkpt lat="42.97602" lon="-0.00631">
        <ele>1555</ele>
        <time>2017-01-18T10:01:39.111Z</time>
      </trkpt>
      <trkpt lat="42.97603" lon="-0.00631">
        <ele>1555</ele>
        <time>2017-01-18T10:01:40.111Z</time>
      </trkpt>
      <trkpt lat="42.97604" lon="-0.00631">
        <ele>1555</ele>
        <time>2017-01-18T10:01:41.111Z</time>
      </trkpt>
      <trkpt lat="42.97605" lon="-0.00631">
        <ele>1555</ele>
        <time>2017-01-18T10:01:42.111Z</time>
      </trkpt>
      <trkpt lat="42.97605" lon="-0.0063">
        <ele>1555</ele>
        <time>2017-01-18T10:01:43.111Z</time>
      </trkpt>
      <trkpt lat="42.97606" lon="-0.0063">
        <ele>1555</ele>
        <time>2017-01-18T10:01:44.111Z</time>
      </trkpt>
      <trkpt lat="42.97607" lon="-0.0063">
        <ele>1555</ele>
        <time>2017-01-18T10:01:45.111Z</time>
      </trkpt>
      <trkpt lat="42.97608" lon="-0.0063">
        <ele>1556</ele>
        <time>2017-01-18T10:01:46.111Z</time>
      </trkpt>
      <trkpt lat="42.97608" lon="-0.0063">
        <ele>1556</ele>
        <time>2017-01-18T10:01:47.111Z</time>
      </trkpt>
      <trkpt lat="42.97609" lon="-0.0063">
        <ele>1556</ele>
        <time>2017-01-18T10:01:48.111Z</time>
      </trkpt>
      <trkpt lat="42.97609" lon="-0.0063">
        <ele>1556</ele>
        <time>2017-01-18T10:01:49.111Z</time>
      </trkpt>
      <trkpt lat="42.97609" lon="-0.0063">
        <ele>1556</ele>
        <time>2017-01-18T10:01:50.111Z</time>
      </trkpt>
      <trkpt lat="42.97609" lon="-0.0063">
        <ele>1556</ele>
        <time>2017-01-18T10:01:51.111Z</time>
      </trkpt>
      <trkpt lat="42.97609" lon="-0.0063">
        <ele>1556</ele>
        <time>2017-01-18T10:01:52.111Z</time>
      </trkpt>
      <trkpt lat="42.97611" lon="-0.00631">
        <ele>1557</ele>
        <time>2017-01-18T10:01:53.115Z</time>
      </trkpt>
      <trkpt lat="42.97612" lon="-0.00631">
        <ele>1557</ele>
        <time>2017-01-18T10:01:54.115Z</time>
      </trkpt>
      <trkpt lat="42.97613" lon="-0.0063">
        <ele>1557</ele>
        <time>2017-01-18T10:01:55.115Z</time>
      </trkpt>
      <trkpt lat="42.97614" lon="-0.0063">
        <ele>1558</ele>
        <time>2017-01-18T10:01:56.115Z</time>
      </trkpt>
      <trkpt lat="42.97614" lon="-0.0063">
        <ele>1558</ele>
        <time>2017-01-18T10:01:57.115Z</time>
      </trkpt>
      <trkpt lat="42.97615" lon="-0.0063">
        <ele>1558</ele>
        <time>2017-01-18T10:01:58.115Z</time>
      </trkpt>
      <trkpt lat="42.97616" lon="-0.0063">
        <ele>1558</ele>
        <time>2017-01-18T10:01:59.115Z</time>
      </trkpt>
      <trkpt lat="42.97617" lon="-0.0063">
        <ele>1558</ele>
        <time>2017-01-18T10:02:00.115Z</time>
      </trkpt>
      <trkpt lat="42.97617" lon="-0.00629">
        <ele>1558</ele>
        <time>2017-01-18T10:02:01.115Z</time>
      </trkpt>
      <trkpt lat="42.97618" lon="-0.00629">
        <ele>1558</ele>
        <time>2017-01-18T10:02:02.115Z</time>
      </trkpt>
      <trkpt lat="42.97619" lon="-0.00629">
        <ele>1558</ele>
        <time>2017-01-18T10:02:03.115Z</time>
      </trkpt>
      <trkpt lat="42.9762" lon="-0.00629">
        <ele>1558</ele>
        <time>2017-01-18T10:02:04.115Z</time>
      </trkpt>
      <trkpt lat="42.9762" lon="-0.00629">
        <ele>1558</ele>
        <time>2017-01-18T10:02:05.115Z</time>
      </trkpt>
      <trkpt lat="42.97621" lon="-0.00629">
        <ele>1558</ele>
        <time>2017-01-18T10:02:06.115Z</time>
      </trkpt>
      <trkpt lat="42.97622" lon="-0.00629">
        <ele>1558</ele>
        <time>2017-01-18T10:02:07.115Z</time>
      </trkpt>
      <trkpt lat="42.97623" lon="-0.00628">
        <ele>1558</ele>
        <time>2017-01-18T10:02:08.115Z</time>
      </trkpt>
      <trkpt lat="42.97624" lon="-0.00628">
        <ele>1558</ele>
        <time>2017-01-18T10:02:09.115Z</time>
      </trkpt>
      <trkpt lat="42.97624" lon="-0.00628">
        <ele>1558</ele>
        <time>2017-01-18T10:02:10.115Z</time>
      </trkpt>
      <trkpt lat="42.97625" lon="-0.00628">
        <ele>1559</ele>
        <time>2017-01-18T10:02:11.115Z</time>
      </trkpt>
      <trkpt lat="42.97626" lon="-0.00628">
        <ele>1559</ele>
        <time>2017-01-18T10:02:12.115Z</time>
      </trkpt>
      <trkpt lat="42.97626" lon="-0.00627">
        <ele>1559</ele>
        <time>2017-01-18T10:02:13.115Z</time>
      </trkpt>
      <trkpt lat="42.97627" lon="-0.00627">
        <ele>1559</ele>
        <time>2017-01-18T10:02:14.115Z</time>
      </trkpt>
      <trkpt lat="42.97628" lon="-0.00627">
        <ele>1559</ele>
        <time>2017-01-18T10:02:15.115Z</time>
      </trkpt>
      <trkpt lat="42.97628" lon="-0.00627">
        <ele>1559</ele>
        <time>2017-01-18T10:02:16.115Z</time>
      </trkpt>
      <trkpt lat="42.97629" lon="-0.00627">
        <ele>1559</ele>
        <time>2017-01-18T10:02:17.115Z</time>
      </trkpt>
      <trkpt lat="42.9763" lon="-0.00627">
        <ele>1559</ele>
        <time>2017-01-18T10:02:18.115Z</time>
      </trkpt>
      <trkpt lat="42.9763" lon="-0.00627">
        <ele>1559</ele>
        <time>2017-01-18T10:02:19.115Z</time>
      </trkpt>
      <trkpt lat="42.97631" lon="-0.00626">
        <ele>1559</ele>
        <time>2017-01-18T10:02:20.115Z</time>
      </trkpt>
      <trkpt lat="42.97632" lon="-0.00626">
        <ele>1560</ele>
        <time>2017-01-18T10:02:21.115Z</time>
      </trkpt>
      <trkpt lat="42.97633" lon="-0.00626">
        <ele>1560</ele>
        <time>2017-01-18T10:02:22.115Z</time>
      </trkpt>
      <trkpt lat="42.97634" lon="-0.00626">
        <ele>1560</ele>
        <time>2017-01-18T10:02:23.115Z</time>
      </trkpt>
      <trkpt lat="42.97634" lon="-0.00626">
        <ele>1560</ele>
        <time>2017-01-18T10:02:24.115Z</time>
      </trkpt>
      <trkpt lat="42.97635" lon="-0.00626">
        <ele>1560</ele>
        <time>2017-01-18T10:02:25.115Z</time>
      </trkpt>
      <trkpt lat="42.97636" lon="-0.00625">
        <ele>1560</ele>
        <time>2017-01-18T10:02:26.115Z</time>
      </trkpt>
      <trkpt lat="42.97636" lon="-0.00625">
        <ele>1560</ele>
        <time>2017-01-18T10:02:27.115Z</time>
      </trkpt>
      <trkpt lat="42.97637" lon="-0.00625">
        <ele>1560</ele>
        <time>2017-01-18T10:02:28.115Z</time>
      </trkpt>
      <trkpt lat="42.97638" lon="-0.00625">
        <ele>1560</ele>
        <time>2017-01-18T10:02:29.115Z</time>
      </trkpt>
      <trkpt lat="42.97638" lon="-0.00625">
        <ele>1560</ele>
        <time>2017-01-18T10:02:30.115Z</time>
      </trkpt>
      <trkpt lat="42.97639" lon="-0.00625">
        <ele>1560</ele>
        <time>2017-01-18T10:02:31.115Z</time>
      </trkpt>
      <trkpt lat="42.9764" lon="-0.00625">
        <ele>1560</ele>
        <time>2017-01-18T10:02:32.115Z</time>
      </trkpt>
      <trkpt lat="42.9764" lon="-0.00625">
        <ele>1560</ele>
        <time>2017-01-18T10:02:33.115Z</time>
      </trkpt>
      <trkpt lat="42.97641" lon="-0.00625">
        <ele>1560</ele>
        <time>2017-01-18T10:02:34.115Z</time>
      </trkpt>
      <trkpt lat="42.97641" lon="-0.00624">
        <ele>1560</ele>
        <time>2017-01-18T10:02:35.115Z</time>
      </trkpt>
      <trkpt lat="42.97642" lon="-0.00624">
        <ele>1560</ele>
        <time>2017-01-18T10:02:36.115Z</time>
      </trkpt>
      <trkpt lat="42.97642" lon="-0.00624">
        <ele>1560</ele>
        <time>2017-01-18T10:02:37.115Z</time>
      </trkpt>
      <trkpt lat="42.97643" lon="-0.00624">
        <ele>1560</ele>
        <time>2017-01-18T10:02:38.115Z</time>
      </trkpt>
      <trkpt lat="42.97643" lon="-0.00624">
        <ele>1560</ele>
        <time>2017-01-18T10:02:39.115Z</time>
      </trkpt>
      <trkpt lat="42.97643" lon="-0.00624">
        <ele>1560</ele>
        <time>2017-01-18T10:02:40.115Z</time>
      </trkpt>
      <trkpt lat="42.97642" lon="-0.00624">
        <ele>1560</ele>
        <time>2017-01-18T10:02:41.115Z</time>
      </trkpt>
      <trkpt lat="42.97642" lon="-0.00624">
        <ele>1560</ele>
        <time>2017-01-18T10:02:42.115Z</time>
      </trkpt>
      <trkpt lat="42.97642" lon="-0.00624">
        <ele>1560</ele>
        <time>2017-01-18T10:02:43.115Z</time>
      </trkpt>
      <trkpt lat="42.97643" lon="-0.00623">
        <ele>1559</ele>
        <time>2017-01-18T10:02:44.119Z</time>
      </trkpt>
      <trkpt lat="42.97643" lon="-0.00623">
        <ele>1559</ele>
        <time>2017-01-18T10:02:45.119Z</time>
      </trkpt>
      <trkpt lat="42.97644" lon="-0.00623">
        <ele>1559</ele>
        <time>2017-01-18T10:02:46.119Z</time>
      </trkpt>
      <trkpt lat="42.97644" lon="-0.00623">
        <ele>1559</ele>
        <time>2017-01-18T10:02:47.119Z</time>
      </trkpt>
      <trkpt lat="42.97645" lon="-0.00623">
        <ele>1559</ele>
        <time>2017-01-18T10:02:48.119Z</time>
      </trkpt>
      <trkpt lat="42.97646" lon="-0.00623">
        <ele>1560</ele>
        <time>2017-01-18T10:02:49.119Z</time>
      </trkpt>
      <trkpt lat="42.97646" lon="-0.00622">
        <ele>1560</ele>
        <time>2017-01-18T10:02:50.119Z</time>
      </trkpt>
      <trkpt lat="42.97647" lon="-0.00622">
        <ele>1560</ele>
        <time>2017-01-18T10:02:51.119Z</time>
      </trkpt>
      <trkpt lat="42.97648" lon="-0.00622">
        <ele>1560</ele>
        <time>2017-01-18T10:02:52.119Z</time>
      </trkpt>
      <trkpt lat="42.97649" lon="-0.00622">
        <ele>1560</ele>
        <time>2017-01-18T10:02:53.119Z</time>
      </trkpt>
      <trkpt lat="42.97649" lon="-0.00622">
        <ele>1560</ele>
        <time>2017-01-18T10:02:54.119Z</time>
      </trkpt>
      <trkpt lat="42.9765" lon="-0.00622">
        <ele>1560</ele>
        <time>2017-01-18T10:02:55.119Z</time>
      </trkpt>
      <trkpt lat="42.97651" lon="-0.00621">
        <ele>1560</ele>
        <time>2017-01-18T10:02:56.119Z</time>
      </trkpt>
      <trkpt lat="42.97652" lon="-0.00621">
        <ele>1560</ele>
        <time>2017-01-18T10:02:57.119Z</time>
      </trkpt>
      <trkpt lat="42.97653" lon="-0.00621">
        <ele>1560</ele>
        <time>2017-01-18T10:02:58.119Z</time>
      </trkpt>
      <trkpt lat="42.97654" lon="-0.00621">
        <ele>1560</ele>
        <time>2017-01-18T10:02:59.119Z</time>
      </trkpt>
      <trkpt lat="42.97654" lon="-0.00621">
        <ele>1560</ele>
        <time>2017-01-18T10:03:00.119Z</time>
      </trkpt>
      <trkpt lat="42.97655" lon="-0.0062">
        <ele>1560</ele>
        <time>2017-01-18T10:03:01.119Z</time>
      </trkpt>
      <trkpt lat="42.97656" lon="-0.0062">
        <ele>1561</ele>
        <time>2017-01-18T10:03:02.119Z</time>
      </trkpt>
      <trkpt lat="42.97657" lon="-0.0062">
        <ele>1561</ele>
        <time>2017-01-18T10:03:03.119Z</time>
      </trkpt>
      <trkpt lat="42.97658" lon="-0.0062">
        <ele>1561</ele>
        <time>2017-01-18T10:03:04.119Z</time>
      </trkpt>
      <trkpt lat="42.97658" lon="-0.00619">
        <ele>1561</ele>
        <time>2017-01-18T10:03:05.119Z</time>
      </trkpt>
      <trkpt lat="42.97659" lon="-0.00619">
        <ele>1561</ele>
        <time>2017-01-18T10:03:06.119Z</time>
      </trkpt>
      <trkpt lat="42.9766" lon="-0.00619">
        <ele>1561</ele>
        <time>2017-01-18T10:03:07.119Z</time>
      </trkpt>
      <trkpt lat="42.9766" lon="-0.00618">
        <ele>1561</ele>
        <time>2017-01-18T10:03:08.119Z</time>
      </trkpt>
      <trkpt lat="42.97661" lon="-0.00618">
        <ele>1561</ele>
        <time>2017-01-18T10:03:09.119Z</time>
      </trkpt>
      <trkpt lat="42.97662" lon="-0.00617">
        <ele>1561</ele>
        <time>2017-01-18T10:03:10.119Z</time>
      </trkpt>
      <trkpt lat="42.97663" lon="-0.00617">
        <ele>1561</ele>
        <time>2017-01-18T10:03:11.119Z</time>
      </trkpt>
      <trkpt lat="42.97664" lon="-0.00616">
        <ele>1561</ele>
        <time>2017-01-18T10:03:12.119Z</time>
      </trkpt>
      <trkpt lat="42.97664" lon="-0.00615">
        <ele>1561</ele>
        <time>2017-01-18T10:03:13.119Z</time>
      </trkpt>
      <trkpt lat="42.97665" lon="-0.00615">
        <ele>1561</ele>
        <time>2017-01-18T10:03:14.119Z</time>
      </trkpt>
      <trkpt lat="42.97666" lon="-0.00614">
        <ele>1561</ele>
        <time>2017-01-18T10:03:15.119Z</time>
      </trkpt>
      <trkpt lat="42.97666" lon="-0.00614">
        <ele>1561</ele>
        <time>2017-01-18T10:03:16.119Z</time>
      </trkpt>
      <trkpt lat="42.97667" lon="-0.00613">
        <ele>1561</ele>
        <time>2017-01-18T10:03:17.119Z</time>
      </trkpt>
      <trkpt lat="42.97668" lon="-0.00613">
        <ele>1561</ele>
        <time>2017-01-18T10:03:18.119Z</time>
      </trkpt>
      <trkpt lat="42.97669" lon="-0.00612">
        <ele>1561</ele>
        <time>2017-01-18T10:03:19.119Z</time>
      </trkpt>
      <trkpt lat="42.97669" lon="-0.00612">
        <ele>1561</ele>
        <time>2017-01-18T10:03:20.119Z</time>
      </trkpt>
      <trkpt lat="42.9767" lon="-0.00611">
        <ele>1561</ele>
        <time>2017-01-18T10:03:21.119Z</time>
      </trkpt>
      <trkpt lat="42.97671" lon="-0.00611">
        <ele>1561</ele>
        <time>2017-01-18T10:03:22.119Z</time>
      </trkpt>
      <trkpt lat="42.97671" lon="-0.0061">
        <ele>1562</ele>
        <time>2017-01-18T10:03:23.119Z</time>
      </trkpt>
      <trkpt lat="42.97672" lon="-0.0061">
        <ele>1562</ele>
        <time>2017-01-18T10:03:24.119Z</time>
      </trkpt>
      <trkpt lat="42.97673" lon="-0.00609">
        <ele>1562</ele>
        <time>2017-01-18T10:03:25.119Z</time>
      </trkpt>
      <trkpt lat="42.97673" lon="-0.00609">
        <ele>1562</ele>
        <time>2017-01-18T10:03:26.119Z</time>
      </trkpt>
      <trkpt lat="42.97674" lon="-0.00609">
        <ele>1562</ele>
        <time>2017-01-18T10:03:27.119Z</time>
      </trkpt>
      <trkpt lat="42.97675" lon="-0.00608">
        <ele>1562</ele>
        <time>2017-01-18T10:03:28.119Z</time>
      </trkpt>
      <trkpt lat="42.97676" lon="-0.00607">
        <ele>1562</ele>
        <time>2017-01-18T10:03:29.119Z</time>
      </trkpt>
      <trkpt lat="42.97676" lon="-0.00607">
        <ele>1562</ele>
        <time>2017-01-18T10:03:30.119Z</time>
      </trkpt>
      <trkpt lat="42.97677" lon="-0.00606">
        <ele>1562</ele>
        <time>2017-01-18T10:03:31.119Z</time>
      </trkpt>
      <trkpt lat="42.97678" lon="-0.00606">
        <ele>1563</ele>
        <time>2017-01-18T10:03:32.119Z</time>
      </trkpt>
      <trkpt lat="42.97679" lon="-0.00605">
        <ele>1563</ele>
        <time>2017-01-18T10:03:33.119Z</time>
      </trkpt>
      <trkpt lat="42.97679" lon="-0.00605">
        <ele>1563</ele>
        <time>2017-01-18T10:03:34.119Z</time>
      </trkpt>
      <trkpt lat="42.9768" lon="-0.00604">
        <ele>1563</ele>
        <time>2017-01-18T10:03:35.119Z</time>
      </trkpt>
      <trkpt lat="42.97681" lon="-0.00604">
        <ele>1563</ele>
        <time>2017-01-18T10:03:36.119Z</time>
      </trkpt>
      <trkpt lat="42.97681" lon="-0.00603">
        <ele>1563</ele>
        <time>2017-01-18T10:03:37.119Z</time>
      </trkpt>
      <trkpt lat="42.97682" lon="-0.00602">
        <ele>1563</ele>
        <time>2017-01-18T10:03:38.119Z</time>
      </trkpt>
      <trkpt lat="42.97683" lon="-0.00602">
        <ele>1563</ele>
        <time>2017-01-18T10:03:39.119Z</time>
      </trkpt>
      <trkpt lat="42.97683" lon="-0.00601">
        <ele>1563</ele>
        <time>2017-01-18T10:03:40.119Z</time>
      </trkpt>
      <trkpt lat="42.97684" lon="-0.006">
        <ele>1563</ele>
        <time>2017-01-18T10:03:41.119Z</time>
      </trkpt>
      <trkpt lat="42.97684" lon="-0.00599">
        <ele>1564</ele>
        <time>2017-01-18T10:03:42.119Z</time>
      </trkpt>
      <trkpt lat="42.97685" lon="-0.00599">
        <ele>1563</ele>
        <time>2017-01-18T10:03:43.119Z</time>
      </trkpt>
      <trkpt lat="42.97686" lon="-0.00598">
        <ele>1564</ele>
        <time>2017-01-18T10:03:44.119Z</time>
      </trkpt>
      <trkpt lat="42.97686" lon="-0.00597">
        <ele>1564</ele>
        <time>2017-01-18T10:03:45.119Z</time>
      </trkpt>
      <trkpt lat="42.97687" lon="-0.00597">
        <ele>1564</ele>
        <time>2017-01-18T10:03:46.119Z</time>
      </trkpt>
      <trkpt lat="42.97687" lon="-0.00596">
        <ele>1563</ele>
        <time>2017-01-18T10:03:47.119Z</time>
      </trkpt>
      <trkpt lat="42.97688" lon="-0.00595">
        <ele>1563</ele>
        <time>2017-01-18T10:03:48.119Z</time>
      </trkpt>
      <trkpt lat="42.97688" lon="-0.00595">
        <ele>1563</ele>
        <time>2017-01-18T10:03:49.119Z</time>
      </trkpt>
      <trkpt lat="42.97689" lon="-0.00594">
        <ele>1563</ele>
        <time>2017-01-18T10:03:50.119Z</time>
      </trkpt>
      <trkpt lat="42.9769" lon="-0.00593">
        <ele>1563</ele>
        <time>2017-01-18T10:03:51.119Z</time>
      </trkpt>
      <trkpt lat="42.9769" lon="-0.00593">
        <ele>1563</ele>
        <time>2017-01-18T10:03:52.119Z</time>
      </trkpt>
      <trkpt lat="42.97691" lon="-0.00592">
        <ele>1563</ele>
        <time>2017-01-18T10:03:53.119Z</time>
      </trkpt>
      <trkpt lat="42.97691" lon="-0.00591">
        <ele>1564</ele>
        <time>2017-01-18T10:03:54.119Z</time>
      </trkpt>
      <trkpt lat="42.97692" lon="-0.0059">
        <ele>1564</ele>
        <time>2017-01-18T10:03:55.119Z</time>
      </trkpt>
      <trkpt lat="42.97692" lon="-0.00589">
        <ele>1564</ele>
        <time>2017-01-18T10:03:56.119Z</time>
      </trkpt>
      <trkpt lat="42.97693" lon="-0.00588">
        <ele>1564</ele>
        <time>2017-01-18T10:03:57.119Z</time>
      </trkpt>
      <trkpt lat="42.97694" lon="-0.00587">
        <ele>1564</ele>
        <time>2017-01-18T10:03:58.119Z</time>
      </trkpt>
      <trkpt lat="42.97694" lon="-0.00587">
        <ele>1564</ele>
        <time>2017-01-18T10:03:59.119Z</time>
      </trkpt>
      <trkpt lat="42.97695" lon="-0.00586">
        <ele>1564</ele>
        <time>2017-01-18T10:04:00.119Z</time>
      </trkpt>
      <trkpt lat="42.97695" lon="-0.00585">
        <ele>1565</ele>
        <time>2017-01-18T10:04:01.119Z</time>
      </trkpt>
      <trkpt lat="42.97696" lon="-0.00584">
        <ele>1565</ele>
        <time>2017-01-18T10:04:02.119Z</time>
      </trkpt>
      <trkpt lat="42.97696" lon="-0.00584">
        <ele>1565</ele>
        <time>2017-01-18T10:04:03.119Z</time>
      </trkpt>
      <trkpt lat="42.97697" lon="-0.00583">
        <ele>1565</ele>
        <time>2017-01-18T10:04:04.119Z</time>
      </trkpt>
      <trkpt lat="42.97697" lon="-0.00582">
        <ele>1565</ele>
        <time>2017-01-18T10:04:05.119Z</time>
      </trkpt>
      <trkpt lat="42.97698" lon="-0.00581">
        <ele>1565</ele>
        <time>2017-01-18T10:04:06.119Z</time>
      </trkpt>
      <trkpt lat="42.97698" lon="-0.0058">
        <ele>1565</ele>
        <time>2017-01-18T10:04:07.119Z</time>
      </trkpt>
      <trkpt lat="42.97698" lon="-0.00579">
        <ele>1564</ele>
        <time>2017-01-18T10:04:08.119Z</time>
      </trkpt>
      <trkpt lat="42.97698" lon="-0.00579">
        <ele>1564</ele>
        <time>2017-01-18T10:04:09.119Z</time>
      </trkpt>
      <trkpt lat="42.97698" lon="-0.00579">
        <ele>1563</ele>
        <time>2017-01-18T10:04:10.119Z</time>
      </trkpt>
      <trkpt lat="42.97698" lon="-0.00578">
        <ele>1563</ele>
        <time>2017-01-18T10:04:11.119Z</time>
      </trkpt>
      <trkpt lat="42.97698" lon="-0.00578">
        <ele>1563</ele>
        <time>2017-01-18T10:04:12.119Z</time>
      </trkpt>
      <trkpt lat="42.97698" lon="-0.00578">
        <ele>1563</ele>
        <time>2017-01-18T10:04:13.119Z</time>
      </trkpt>
      <trkpt lat="42.97698" lon="-0.00578">
        <ele>1563</ele>
        <time>2017-01-18T10:04:14.119Z</time>
      </trkpt>
      <trkpt lat="42.97698" lon="-0.00578">
        <ele>1563</ele>
        <time>2017-01-18T10:04:15.119Z</time>
      </trkpt>
      <trkpt lat="42.97698" lon="-0.00578">
        <ele>1563</ele>
        <time>2017-01-18T10:04:16.119Z</time>
      </trkpt>
      <trkpt lat="42.97698" lon="-0.00578">
        <ele>1563</ele>
        <time>2017-01-18T10:04:17.119Z</time>
      </trkpt>
      <trkpt lat="42.97698" lon="-0.00578">
        <ele>1563</ele>
        <time>2017-01-18T10:04:18.119Z</time>
      </trkpt>
      <trkpt lat="42.97698" lon="-0.00578">
        <ele>1562</ele>
        <time>2017-01-18T10:04:19.119Z</time>
      </trkpt>
      <trkpt lat="42.97698" lon="-0.00578">
        <ele>1563</ele>
        <time>2017-01-18T10:04:20.119Z</time>
      </trkpt>
      <trkpt lat="42.97698" lon="-0.00578">
        <ele>1563</ele>
        <time>2017-01-18T10:04:21.119Z</time>
      </trkpt>
      <trkpt lat="42.97698" lon="-0.00578">
        <ele>1563</ele>
        <time>2017-01-18T10:04:22.119Z</time>
      </trkpt>
      <trkpt lat="42.97699" lon="-0.00577">
        <ele>1563</ele>
        <time>2017-01-18T10:04:23.119Z</time>
      </trkpt>
      <trkpt lat="42.97699" lon="-0.00577">
        <ele>1563</ele>
        <time>2017-01-18T10:04:24.119Z</time>
      </trkpt>
      <trkpt lat="42.977" lon="-0.00576">
        <ele>1563</ele>
        <time>2017-01-18T10:04:25.119Z</time>
      </trkpt>
      <trkpt lat="42.977" lon="-0.00575">
        <ele>1563</ele>
        <time>2017-01-18T10:04:26.119Z</time>
      </trkpt>
      <trkpt lat="42.97701" lon="-0.00575">
        <ele>1563</ele>
        <time>2017-01-18T10:04:27.119Z</time>
      </trkpt>
      <trkpt lat="42.97701" lon="-0.00574">
        <ele>1563</ele>
        <time>2017-01-18T10:04:28.119Z</time>
      </trkpt>
      <trkpt lat="42.97701" lon="-0.00574">
        <ele>1563</ele>
        <time>2017-01-18T10:04:29.119Z</time>
      </trkpt>
      <trkpt lat="42.97703" lon="-0.00571">
        <ele>1564</ele>
        <time>2017-01-18T10:04:30.010Z</time>
      </trkpt>
      <trkpt lat="42.97703" lon="-0.0057">
        <ele>1564</ele>
        <time>2017-01-18T10:04:31.010Z</time>
      </trkpt>
      <trkpt lat="42.97704" lon="-0.00569">
        <ele>1565</ele>
        <time>2017-01-18T10:04:32.010Z</time>
      </trkpt>
      <trkpt lat="42.97704" lon="-0.00569">
        <ele>1565</ele>
        <time>2017-01-18T10:04:33.010Z</time>
      </trkpt>
      <trkpt lat="42.97704" lon="-0.00568">
        <ele>1565</ele>
        <time>2017-01-18T10:04:34.010Z</time>
      </trkpt>
      <trkpt lat="42.97705" lon="-0.00567">
        <ele>1564</ele>
        <time>2017-01-18T10:04:35.010Z</time>
      </trkpt>
      <trkpt lat="42.97705" lon="-0.00566">
        <ele>1565</ele>
        <time>2017-01-18T10:04:36.010Z</time>
      </trkpt>
      <trkpt lat="42.97706" lon="-0.00565">
        <ele>1565</ele>
        <time>2017-01-18T10:04:37.010Z</time>
      </trkpt>
      <trkpt lat="42.97707" lon="-0.00564">
        <ele>1565</ele>
        <time>2017-01-18T10:04:38.010Z</time>
      </trkpt>
      <trkpt lat="42.97707" lon="-0.00564">
        <ele>1565</ele>
        <time>2017-01-18T10:04:39.010Z</time>
      </trkpt>
      <trkpt lat="42.97707" lon="-0.00563">
        <ele>1565</ele>
        <time>2017-01-18T10:04:40.010Z</time>
      </trkpt>
      <trkpt lat="42.97707" lon="-0.00562">
        <ele>1565</ele>
        <time>2017-01-18T10:04:41.010Z</time>
      </trkpt>
      <trkpt lat="42.97708" lon="-0.00561">
        <ele>1565</ele>
        <time>2017-01-18T10:04:42.010Z</time>
      </trkpt>
      <trkpt lat="42.97708" lon="-0.0056">
        <ele>1565</ele>
        <time>2017-01-18T10:04:43.010Z</time>
      </trkpt>
      <trkpt lat="42.97708" lon="-0.00559">
        <ele>1565</ele>
        <time>2017-01-18T10:04:44.010Z</time>
      </trkpt>
      <trkpt lat="42.97709" lon="-0.00559">
        <ele>1565</ele>
        <time>2017-01-18T10:04:45.010Z</time>
      </trkpt>
      <trkpt lat="42.97709" lon="-0.00558">
        <ele>1565</ele>
        <time>2017-01-18T10:04:46.010Z</time>
      </trkpt>
      <trkpt lat="42.9771" lon="-0.00557">
        <ele>1565</ele>
        <time>2017-01-18T10:04:47.010Z</time>
      </trkpt>
      <trkpt lat="42.9771" lon="-0.00556">
        <ele>1565</ele>
        <time>2017-01-18T10:04:48.010Z</time>
      </trkpt>
      <trkpt lat="42.97711" lon="-0.00556">
        <ele>1564</ele>
        <time>2017-01-18T10:04:49.010Z</time>
      </trkpt>
      <trkpt lat="42.97711" lon="-0.00555">
        <ele>1565</ele>
        <time>2017-01-18T10:04:50.010Z</time>
      </trkpt>
      <trkpt lat="42.97712" lon="-0.00554">
        <ele>1565</ele>
        <time>2017-01-18T10:04:51.010Z</time>
      </trkpt>
      <trkpt lat="42.97712" lon="-0.00553">
        <ele>1565</ele>
        <time>2017-01-18T10:04:52.010Z</time>
      </trkpt>
      <trkpt lat="42.97713" lon="-0.00552">
        <ele>1565</ele>
        <time>2017-01-18T10:04:53.010Z</time>
      </trkpt>
      <trkpt lat="42.97713" lon="-0.00551">
        <ele>1565</ele>
        <time>2017-01-18T10:04:54.010Z</time>
      </trkpt>
      <trkpt lat="42.97713" lon="-0.0055">
        <ele>1565</ele>
        <time>2017-01-18T10:04:55.010Z</time>
      </trkpt>
      <trkpt lat="42.97714" lon="-0.00549">
        <ele>1565</ele>
        <time>2017-01-18T10:04:56.010Z</time>
      </trkpt>
      <trkpt lat="42.97714" lon="-0.00548">
        <ele>1565</ele>
        <time>2017-01-18T10:04:57.010Z</time>
      </trkpt>
      <trkpt lat="42.97715" lon="-0.00547">
        <ele>1565</ele>
        <time>2017-01-18T10:04:58.010Z</time>
      </trkpt>
      <trkpt lat="42.97715" lon="-0.00547">
        <ele>1565</ele>
        <time>2017-01-18T10:04:59.010Z</time>
      </trkpt>
      <trkpt lat="42.97715" lon="-0.00546">
        <ele>1565</ele>
        <time>2017-01-18T10:05:00.010Z</time>
      </trkpt>
      <trkpt lat="42.97716" lon="-0.00545">
        <ele>1565</ele>
        <time>2017-01-18T10:05:01.010Z</time>
      </trkpt>
      <trkpt lat="42.97716" lon="-0.00544">
        <ele>1565</ele>
        <time>2017-01-18T10:05:02.010Z</time>
      </trkpt>
      <trkpt lat="42.97717" lon="-0.00544">
        <ele>1565</ele>
        <time>2017-01-18T10:05:03.010Z</time>
      </trkpt>
      <trkpt lat="42.97717" lon="-0.00543">
        <ele>1565</ele>
        <time>2017-01-18T10:05:04.010Z</time>
      </trkpt>
      <trkpt lat="42.97717" lon="-0.00542">
        <ele>1565</ele>
        <time>2017-01-18T10:05:05.010Z</time>
      </trkpt>
      <trkpt lat="42.97718" lon="-0.00541">
        <ele>1565</ele>
        <time>2017-01-18T10:05:06.010Z</time>
      </trkpt>
      <trkpt lat="42.97718" lon="-0.0054">
        <ele>1565</ele>
        <time>2017-01-18T10:05:07.010Z</time>
      </trkpt>
      <trkpt lat="42.97719" lon="-0.0054">
        <ele>1565</ele>
        <time>2017-01-18T10:05:08.010Z</time>
      </trkpt>
      <trkpt lat="42.97719" lon="-0.00539">
        <ele>1565</ele>
        <time>2017-01-18T10:05:09.010Z</time>
      </trkpt>
      <trkpt lat="42.97719" lon="-0.00538">
        <ele>1565</ele>
        <time>2017-01-18T10:05:10.010Z</time>
      </trkpt>
      <trkpt lat="42.9772" lon="-0.00537">
        <ele>1565</ele>
        <time>2017-01-18T10:05:11.010Z</time>
      </trkpt>
      <trkpt lat="42.9772" lon="-0.00536">
        <ele>1566</ele>
        <time>2017-01-18T10:05:12.010Z</time>
      </trkpt>
      <trkpt lat="42.97721" lon="-0.00535">
        <ele>1565</ele>
        <time>2017-01-18T10:05:13.010Z</time>
      </trkpt>
      <trkpt lat="42.97721" lon="-0.00535">
        <ele>1565</ele>
        <time>2017-01-18T10:05:14.010Z</time>
      </trkpt>
      <trkpt lat="42.97722" lon="-0.00534">
        <ele>1566</ele>
        <time>2017-01-18T10:05:15.010Z</time>
      </trkpt>
      <trkpt lat="42.97722" lon="-0.00533">
        <ele>1566</ele>
        <time>2017-01-18T10:05:16.010Z</time>
      </trkpt>
      <trkpt lat="42.97722" lon="-0.00532">
        <ele>1566</ele>
        <time>2017-01-18T10:05:17.010Z</time>
      </trkpt>
      <trkpt lat="42.97723" lon="-0.00531">
        <ele>1566</ele>
        <time>2017-01-18T10:05:18.010Z</time>
      </trkpt>
      <trkpt lat="42.97723" lon="-0.00531">
        <ele>1566</ele>
        <time>2017-01-18T10:05:19.010Z</time>
      </trkpt>
      <trkpt lat="42.97723" lon="-0.0053">
        <ele>1566</ele>
        <time>2017-01-18T10:05:20.010Z</time>
      </trkpt>
      <trkpt lat="42.97724" lon="-0.00529">
        <ele>1566</ele>
        <time>2017-01-18T10:05:21.010Z</time>
      </trkpt>
      <trkpt lat="42.97724" lon="-0.00528">
        <ele>1566</ele>
        <time>2017-01-18T10:05:22.010Z</time>
      </trkpt>
      <trkpt lat="42.97725" lon="-0.00528">
        <ele>1566</ele>
        <time>2017-01-18T10:05:23.010Z</time>
      </trkpt>
      <trkpt lat="42.97725" lon="-0.00527">
        <ele>1566</ele>
        <time>2017-01-18T10:05:24.010Z</time>
      </trkpt>
      <trkpt lat="42.97726" lon="-0.00526">
        <ele>1566</ele>
        <time>2017-01-18T10:05:25.010Z</time>
      </trkpt>
      <trkpt lat="42.97726" lon="-0.00525">
        <ele>1566</ele>
        <time>2017-01-18T10:05:26.010Z</time>
      </trkpt>
      <trkpt lat="42.97726" lon="-0.00525">
        <ele>1567</ele>
        <time>2017-01-18T10:05:27.010Z</time>
      </trkpt>
      <trkpt lat="42.97727" lon="-0.00524">
        <ele>1567</ele>
        <time>2017-01-18T10:05:28.010Z</time>
      </trkpt>
      <trkpt lat="42.97727" lon="-0.00523">
        <ele>1567</ele>
        <time>2017-01-18T10:05:29.010Z</time>
      </trkpt>
      <trkpt lat="42.97728" lon="-0.00522">
        <ele>1567</ele>
        <time>2017-01-18T10:05:30.010Z</time>
      </trkpt>
      <trkpt lat="42.97728" lon="-0.00521">
        <ele>1567</ele>
        <time>2017-01-18T10:05:31.010Z</time>
      </trkpt>
      <trkpt lat="42.97728" lon="-0.00521">
        <ele>1567</ele>
        <time>2017-01-18T10:05:32.010Z</time>
      </trkpt>
      <trkpt lat="42.97729" lon="-0.0052">
        <ele>1567</ele>
        <time>2017-01-18T10:05:33.010Z</time>
      </trkpt>
      <trkpt lat="42.97729" lon="-0.00519">
        <ele>1567</ele>
        <time>2017-01-18T10:05:34.010Z</time>
      </trkpt>
      <trkpt lat="42.97729" lon="-0.00518">
        <ele>1568</ele>
        <time>2017-01-18T10:05:35.010Z</time>
      </trkpt>
      <trkpt lat="42.9773" lon="-0.00517">
        <ele>1567</ele>
        <time>2017-01-18T10:05:36.010Z</time>
      </trkpt>
      <trkpt lat="42.9773" lon="-0.00516">
        <ele>1568</ele>
        <time>2017-01-18T10:05:37.010Z</time>
      </trkpt>
      <trkpt lat="42.9773" lon="-0.00516">
        <ele>1568</ele>
        <time>2017-01-18T10:05:38.010Z</time>
      </trkpt>
      <trkpt lat="42.9773" lon="-0.00515">
        <ele>1568</ele>
        <time>2017-01-18T10:05:39.010Z</time>
      </trkpt>
      <trkpt lat="42.97731" lon="-0.00514">
        <ele>1568</ele>
        <time>2017-01-18T10:05:40.010Z</time>
      </trkpt>
      <trkpt lat="42.97731" lon="-0.00513">
        <ele>1568</ele>
        <time>2017-01-18T10:05:41.010Z</time>
      </trkpt>
      <trkpt lat="42.97731" lon="-0.00512">
        <ele>1568</ele>
        <time>2017-01-18T10:05:42.010Z</time>
      </trkpt>
      <trkpt lat="42.97731" lon="-0.00511">
        <ele>1568</ele>
        <time>2017-01-18T10:05:43.010Z</time>
      </trkpt>
      <trkpt lat="42.97732" lon="-0.0051">
        <ele>1568</ele>
        <time>2017-01-18T10:05:44.010Z</time>
      </trkpt>
      <trkpt lat="42.97732" lon="-0.00509">
        <ele>1568</ele>
        <time>2017-01-18T10:05:45.010Z</time>
      </trkpt>
      <trkpt lat="42.97732" lon="-0.00508">
        <ele>1568</ele>
        <time>2017-01-18T10:05:46.010Z</time>
      </trkpt>
      <trkpt lat="42.97732" lon="-0.00507">
        <ele>1568</ele>
        <time>2017-01-18T10:05:47.010Z</time>
      </trkpt>
      <trkpt lat="42.97733" lon="-0.00507">
        <ele>1568</ele>
        <time>2017-01-18T10:05:48.010Z</time>
      </trkpt>
      <trkpt lat="42.97732" lon="-0.00506">
        <ele>1568</ele>
        <time>2017-01-18T10:05:49.010Z</time>
      </trkpt>
      <trkpt lat="42.97732" lon="-0.00506">
        <ele>1568</ele>
        <time>2017-01-18T10:05:50.010Z</time>
      </trkpt>
      <trkpt lat="42.97732" lon="-0.00506">
        <ele>1567</ele>
        <time>2017-01-18T10:05:51.010Z</time>
      </trkpt>
      <trkpt lat="42.97732" lon="-0.00506">
        <ele>1567</ele>
        <time>2017-01-18T10:05:52.010Z</time>
      </trkpt>
      <trkpt lat="42.97733" lon="-0.00506">
        <ele>1568</ele>
        <time>2017-01-18T10:05:53.010Z</time>
      </trkpt>
      <trkpt lat="42.97733" lon="-0.00506">
        <ele>1568</ele>
        <time>2017-01-18T10:05:54.010Z</time>
      </trkpt>
      <trkpt lat="42.97733" lon="-0.00506">
        <ele>1568</ele>
        <time>2017-01-18T10:05:55.010Z</time>
      </trkpt>
      <trkpt lat="42.97732" lon="-0.00506">
        <ele>1568</ele>
        <time>2017-01-18T10:05:56.010Z</time>
      </trkpt>
      <trkpt lat="42.97732" lon="-0.00506">
        <ele>1568</ele>
        <time>2017-01-18T10:05:57.010Z</time>
      </trkpt>
      <trkpt lat="42.97732" lon="-0.00506">
        <ele>1568</ele>
        <time>2017-01-18T10:05:58.010Z</time>
      </trkpt>
      <trkpt lat="42.97732" lon="-0.00506">
        <ele>1567</ele>
        <time>2017-01-18T10:05:59.022Z</time>
      </trkpt>
      <trkpt lat="42.97733" lon="-0.00506">
        <ele>1567</ele>
        <time>2017-01-18T10:06:00.022Z</time>
      </trkpt>
      <trkpt lat="42.97733" lon="-0.00505">
        <ele>1568</ele>
        <time>2017-01-18T10:06:01.022Z</time>
      </trkpt>
      <trkpt lat="42.97733" lon="-0.00505">
        <ele>1568</ele>
        <time>2017-01-18T10:06:02.022Z</time>
      </trkpt>
      <trkpt lat="42.97733" lon="-0.00504">
        <ele>1568</ele>
        <time>2017-01-18T10:06:03.022Z</time>
      </trkpt>
      <trkpt lat="42.97733" lon="-0.00504">
        <ele>1568</ele>
        <time>2017-01-18T10:06:04.022Z</time>
      </trkpt>
      <trkpt lat="42.97733" lon="-0.00503">
        <ele>1568</ele>
        <time>2017-01-18T10:06:05.022Z</time>
      </trkpt>
      <trkpt lat="42.97734" lon="-0.00502">
        <ele>1569</ele>
        <time>2017-01-18T10:06:06.022Z</time>
      </trkpt>
      <trkpt lat="42.97734" lon="-0.00501">
        <ele>1569</ele>
        <time>2017-01-18T10:06:07.022Z</time>
      </trkpt>
      <trkpt lat="42.97734" lon="-0.005">
        <ele>1569</ele>
        <time>2017-01-18T10:06:08.022Z</time>
      </trkpt>
      <trkpt lat="42.97734" lon="-0.00499">
        <ele>1569</ele>
        <time>2017-01-18T10:06:09.022Z</time>
      </trkpt>
      <trkpt lat="42.97735" lon="-0.00498">
        <ele>1569</ele>
        <time>2017-01-18T10:06:10.022Z</time>
      </trkpt>
      <trkpt lat="42.97735" lon="-0.00497">
        <ele>1569</ele>
        <time>2017-01-18T10:06:11.022Z</time>
      </trkpt>
      <trkpt lat="42.97736" lon="-0.00496">
        <ele>1569</ele>
        <time>2017-01-18T10:06:12.022Z</time>
      </trkpt>
      <trkpt lat="42.97736" lon="-0.00495">
        <ele>1569</ele>
        <time>2017-01-18T10:06:13.022Z</time>
      </trkpt>
      <trkpt lat="42.97736" lon="-0.00494">
        <ele>1569</ele>
        <time>2017-01-18T10:06:14.022Z</time>
      </trkpt>
      <trkpt lat="42.97737" lon="-0.00493">
        <ele>1569</ele>
        <time>2017-01-18T10:06:15.022Z</time>
      </trkpt>
      <trkpt lat="42.97737" lon="-0.00492">
        <ele>1569</ele>
        <time>2017-01-18T10:06:16.022Z</time>
      </trkpt>
      <trkpt lat="42.97737" lon="-0.00491">
        <ele>1569</ele>
        <time>2017-01-18T10:06:17.022Z</time>
      </trkpt>
      <trkpt lat="42.97738" lon="-0.0049">
        <ele>1569</ele>
        <time>2017-01-18T10:06:18.022Z</time>
      </trkpt>
      <trkpt lat="42.97738" lon="-0.00489">
        <ele>1569</ele>
        <time>2017-01-18T10:06:19.022Z</time>
      </trkpt>
      <trkpt lat="42.97738" lon="-0.00489">
        <ele>1569</ele>
        <time>2017-01-18T10:06:20.022Z</time>
      </trkpt>
      <trkpt lat="42.97739" lon="-0.00488">
        <ele>1569</ele>
        <time>2017-01-18T10:06:21.022Z</time>
      </trkpt>
      <trkpt lat="42.97739" lon="-0.00487">
        <ele>1569</ele>
        <time>2017-01-18T10:06:22.022Z</time>
      </trkpt>
      <trkpt lat="42.9774" lon="-0.00486">
        <ele>1569</ele>
        <time>2017-01-18T10:06:23.022Z</time>
      </trkpt>
      <trkpt lat="42.9774" lon="-0.00485">
        <ele>1569</ele>
        <time>2017-01-18T10:06:24.022Z</time>
      </trkpt>
      <trkpt lat="42.97741" lon="-0.00484">
        <ele>1569</ele>
        <time>2017-01-18T10:06:25.022Z</time>
      </trkpt>
      <trkpt lat="42.97741" lon="-0.00483">
        <ele>1569</ele>
        <time>2017-01-18T10:06:26.022Z</time>
      </trkpt>
      <trkpt lat="42.97742" lon="-0.00482">
        <ele>1569</ele>
        <time>2017-01-18T10:06:27.022Z</time>
      </trkpt>
      <trkpt lat="42.97742" lon="-0.00482">
        <ele>1569</ele>
        <time>2017-01-18T10:06:28.022Z</time>
      </trkpt>
      <trkpt lat="42.97743" lon="-0.00481">
        <ele>1569</ele>
        <time>2017-01-18T10:06:29.022Z</time>
      </trkpt>
      <trkpt lat="42.97743" lon="-0.0048">
        <ele>1569</ele>
        <time>2017-01-18T10:06:30.022Z</time>
      </trkpt>
      <trkpt lat="42.97744" lon="-0.00479">
        <ele>1569</ele>
        <time>2017-01-18T10:06:31.022Z</time>
      </trkpt>
      <trkpt lat="42.97744" lon="-0.00478">
        <ele>1569</ele>
        <time>2017-01-18T10:06:32.022Z</time>
      </trkpt>
      <trkpt lat="42.97745" lon="-0.00477">
        <ele>1570</ele>
        <time>2017-01-18T10:06:33.022Z</time>
      </trkpt>
      <trkpt lat="42.97745" lon="-0.00477">
        <ele>1570</ele>
        <time>2017-01-18T10:06:34.022Z</time>
      </trkpt>
      <trkpt lat="42.97745" lon="-0.00476">
        <ele>1570</ele>
        <time>2017-01-18T10:06:35.022Z</time>
      </trkpt>
      <trkpt lat="42.97746" lon="-0.00475">
        <ele>1570</ele>
        <time>2017-01-18T10:06:36.022Z</time>
      </trkpt>
      <trkpt lat="42.97746" lon="-0.00474">
        <ele>1570</ele>
        <time>2017-01-18T10:06:37.022Z</time>
      </trkpt>
      <trkpt lat="42.97746" lon="-0.00473">
        <ele>1570</ele>
        <time>2017-01-18T10:06:38.022Z</time>
      </trkpt>
      <trkpt lat="42.97747" lon="-0.00472">
        <ele>1570</ele>
        <time>2017-01-18T10:06:39.022Z</time>
      </trkpt>
      <trkpt lat="42.97747" lon="-0.00472">
        <ele>1570</ele>
        <time>2017-01-18T10:06:40.022Z</time>
      </trkpt>
      <trkpt lat="42.97748" lon="-0.00471">
        <ele>1570</ele>
        <time>2017-01-18T10:06:41.022Z</time>
      </trkpt>
      <trkpt lat="42.97748" lon="-0.0047">
        <ele>1571</ele>
        <time>2017-01-18T10:06:42.022Z</time>
      </trkpt>
      <trkpt lat="42.97749" lon="-0.00469">
        <ele>1571</ele>
        <time>2017-01-18T10:06:43.022Z</time>
      </trkpt>
      <trkpt lat="42.97749" lon="-0.00468">
        <ele>1571</ele>
        <time>2017-01-18T10:06:44.022Z</time>
      </trkpt>
      <trkpt lat="42.9775" lon="-0.00468">
        <ele>1571</ele>
        <time>2017-01-18T10:06:45.022Z</time>
      </trkpt>
      <trkpt lat="42.9775" lon="-0.00467">
        <ele>1571</ele>
        <time>2017-01-18T10:06:46.022Z</time>
      </trkpt>
      <trkpt lat="42.97751" lon="-0.00466">
        <ele>1571</ele>
        <time>2017-01-18T10:06:47.022Z</time>
      </trkpt>
      <trkpt lat="42.97751" lon="-0.00465">
        <ele>1571</ele>
        <time>2017-01-18T10:06:48.022Z</time>
      </trkpt>
      <trkpt lat="42.97752" lon="-0.00464">
        <ele>1571</ele>
        <time>2017-01-18T10:06:49.022Z</time>
      </trkpt>
      <trkpt lat="42.97752" lon="-0.00463">
        <ele>1571</ele>
        <time>2017-01-18T10:06:50.022Z</time>
      </trkpt>
      <trkpt lat="42.97753" lon="-0.00463">
        <ele>1572</ele>
        <time>2017-01-18T10:06:51.022Z</time>
      </trkpt>
      <trkpt lat="42.97753" lon="-0.00462">
        <ele>1571</ele>
        <time>2017-01-18T10:06:52.022Z</time>
      </trkpt>
      <trkpt lat="42.97754" lon="-0.00461">
        <ele>1572</ele>
        <time>2017-01-18T10:06:53.022Z</time>
      </trkpt>
      <trkpt lat="42.97754" lon="-0.0046">
        <ele>1572</ele>
        <time>2017-01-18T10:06:54.022Z</time>
      </trkpt>
      <trkpt lat="42.97755" lon="-0.00459">
        <ele>1572</ele>
        <time>2017-01-18T10:06:55.022Z</time>
      </trkpt>
      <trkpt lat="42.97755" lon="-0.00458">
        <ele>1572</ele>
        <time>2017-01-18T10:06:56.022Z</time>
      </trkpt>
      <trkpt lat="42.97756" lon="-0.00458">
        <ele>1572</ele>
        <time>2017-01-18T10:06:57.022Z</time>
      </trkpt>
      <trkpt lat="42.97757" lon="-0.00457">
        <ele>1572</ele>
        <time>2017-01-18T10:06:58.022Z</time>
      </trkpt>
      <trkpt lat="42.97757" lon="-0.00456">
        <ele>1572</ele>
        <time>2017-01-18T10:06:59.022Z</time>
      </trkpt>
      <trkpt lat="42.97758" lon="-0.00455">
        <ele>1572</ele>
        <time>2017-01-18T10:07:00.022Z</time>
      </trkpt>
      <trkpt lat="42.97758" lon="-0.00454">
        <ele>1572</ele>
        <time>2017-01-18T10:07:01.022Z</time>
      </trkpt>
      <trkpt lat="42.97759" lon="-0.00454">
        <ele>1572</ele>
        <time>2017-01-18T10:07:02.022Z</time>
      </trkpt>
      <trkpt lat="42.97759" lon="-0.00453">
        <ele>1572</ele>
        <time>2017-01-18T10:07:03.022Z</time>
      </trkpt>
      <trkpt lat="42.9776" lon="-0.00452">
        <ele>1572</ele>
        <time>2017-01-18T10:07:04.022Z</time>
      </trkpt>
      <trkpt lat="42.97761" lon="-0.00451">
        <ele>1572</ele>
        <time>2017-01-18T10:07:05.022Z</time>
      </trkpt>
      <trkpt lat="42.97761" lon="-0.00451">
        <ele>1572</ele>
        <time>2017-01-18T10:07:06.022Z</time>
      </trkpt>
      <trkpt lat="42.97762" lon="-0.0045">
        <ele>1572</ele>
        <time>2017-01-18T10:07:07.022Z</time>
      </trkpt>
      <trkpt lat="42.97762" lon="-0.00449">
        <ele>1572</ele>
        <time>2017-01-18T10:07:08.022Z</time>
      </trkpt>
      <trkpt lat="42.97763" lon="-0.00448">
        <ele>1572</ele>
        <time>2017-01-18T10:07:09.022Z</time>
      </trkpt>
      <trkpt lat="42.97763" lon="-0.00448">
        <ele>1573</ele>
        <time>2017-01-18T10:07:10.022Z</time>
      </trkpt>
      <trkpt lat="42.97764" lon="-0.00447">
        <ele>1573</ele>
        <time>2017-01-18T10:07:11.022Z</time>
      </trkpt>
      <trkpt lat="42.97764" lon="-0.00446">
        <ele>1573</ele>
        <time>2017-01-18T10:07:12.022Z</time>
      </trkpt>
      <trkpt lat="42.97765" lon="-0.00445">
        <ele>1573</ele>
        <time>2017-01-18T10:07:13.022Z</time>
      </trkpt>
      <trkpt lat="42.97765" lon="-0.00444">
        <ele>1573</ele>
        <time>2017-01-18T10:07:14.022Z</time>
      </trkpt>
      <trkpt lat="42.97766" lon="-0.00444">
        <ele>1573</ele>
        <time>2017-01-18T10:07:15.022Z</time>
      </trkpt>
      <trkpt lat="42.97766" lon="-0.00443">
        <ele>1573</ele>
        <time>2017-01-18T10:07:16.022Z</time>
      </trkpt>
      <trkpt lat="42.97767" lon="-0.00442">
        <ele>1573</ele>
        <time>2017-01-18T10:07:17.022Z</time>
      </trkpt>
      <trkpt lat="42.97767" lon="-0.00441">
        <ele>1573</ele>
        <time>2017-01-18T10:07:18.022Z</time>
      </trkpt>
      <trkpt lat="42.97768" lon="-0.00441">
        <ele>1573</ele>
        <time>2017-01-18T10:07:19.022Z</time>
      </trkpt>
      <trkpt lat="42.97768" lon="-0.0044">
        <ele>1573</ele>
        <time>2017-01-18T10:07:20.022Z</time>
      </trkpt>
      <trkpt lat="42.97769" lon="-0.00439">
        <ele>1573</ele>
        <time>2017-01-18T10:07:21.022Z</time>
      </trkpt>
      <trkpt lat="42.97769" lon="-0.00439">
        <ele>1573</ele>
        <time>2017-01-18T10:07:22.022Z</time>
      </trkpt>
      <trkpt lat="42.9777" lon="-0.00438">
        <ele>1573</ele>
        <time>2017-01-18T10:07:23.022Z</time>
      </trkpt>
      <trkpt lat="42.9777" lon="-0.00437">
        <ele>1573</ele>
        <time>2017-01-18T10:07:24.022Z</time>
      </trkpt>
      <trkpt lat="42.97771" lon="-0.00437">
        <ele>1573</ele>
        <time>2017-01-18T10:07:25.022Z</time>
      </trkpt>
      <trkpt lat="42.97771" lon="-0.00436">
        <ele>1573</ele>
        <time>2017-01-18T10:07:26.022Z</time>
      </trkpt>
      <trkpt lat="42.97772" lon="-0.00436">
        <ele>1573</ele>
        <time>2017-01-18T10:07:27.022Z</time>
      </trkpt>
      <trkpt lat="42.97772" lon="-0.00435">
        <ele>1573</ele>
        <time>2017-01-18T10:07:28.022Z</time>
      </trkpt>
      <trkpt lat="42.97773" lon="-0.00434">
        <ele>1574</ele>
        <time>2017-01-18T10:07:29.022Z</time>
      </trkpt>
      <trkpt lat="42.97773" lon="-0.00434">
        <ele>1573</ele>
        <time>2017-01-18T10:07:30.022Z</time>
      </trkpt>
      <trkpt lat="42.97774" lon="-0.00433">
        <ele>1574</ele>
        <time>2017-01-18T10:07:31.022Z</time>
      </trkpt>
      <trkpt lat="42.97774" lon="-0.00432">
        <ele>1574</ele>
        <time>2017-01-18T10:07:32.022Z</time>
      </trkpt>
      <trkpt lat="42.97775" lon="-0.00431">
        <ele>1574</ele>
        <time>2017-01-18T10:07:33.022Z</time>
      </trkpt>
      <trkpt lat="42.97776" lon="-0.00431">
        <ele>1574</ele>
        <time>2017-01-18T10:07:34.022Z</time>
      </trkpt>
      <trkpt lat="42.97776" lon="-0.0043">
        <ele>1574</ele>
        <time>2017-01-18T10:07:35.022Z</time>
      </trkpt>
      <trkpt lat="42.97777" lon="-0.00429">
        <ele>1574</ele>
        <time>2017-01-18T10:07:36.022Z</time>
      </trkpt>
      <trkpt lat="42.97777" lon="-0.00429">
        <ele>1574</ele>
        <time>2017-01-18T10:07:37.022Z</time>
      </trkpt>
      <trkpt lat="42.97778" lon="-0.00428">
        <ele>1574</ele>
        <time>2017-01-18T10:07:38.022Z</time>
      </trkpt>
      <trkpt lat="42.97778" lon="-0.00427">
        <ele>1574</ele>
        <time>2017-01-18T10:07:39.022Z</time>
      </trkpt>
      <trkpt lat="42.97778" lon="-0.00427">
        <ele>1574</ele>
        <time>2017-01-18T10:07:40.022Z</time>
      </trkpt>
      <trkpt lat="42.97779" lon="-0.00426">
        <ele>1574</ele>
        <time>2017-01-18T10:07:41.022Z</time>
      </trkpt>
      <trkpt lat="42.97779" lon="-0.00425">
        <ele>1574</ele>
        <time>2017-01-18T10:07:42.022Z</time>
      </trkpt>
      <trkpt lat="42.9778" lon="-0.00425">
        <ele>1574</ele>
        <time>2017-01-18T10:07:43.022Z</time>
      </trkpt>
      <trkpt lat="42.9778" lon="-0.00424">
        <ele>1574</ele>
        <time>2017-01-18T10:07:44.022Z</time>
      </trkpt>
      <trkpt lat="42.97781" lon="-0.00423">
        <ele>1574</ele>
        <time>2017-01-18T10:07:45.022Z</time>
      </trkpt>
      <trkpt lat="42.97781" lon="-0.00422">
        <ele>1574</ele>
        <time>2017-01-18T10:07:46.022Z</time>
      </trkpt>
      <trkpt lat="42.97782" lon="-0.00422">
        <ele>1575</ele>
        <time>2017-01-18T10:07:47.022Z</time>
      </trkpt>
      <trkpt lat="42.97782" lon="-0.00421">
        <ele>1575</ele>
        <time>2017-01-18T10:07:48.022Z</time>
      </trkpt>
      <trkpt lat="42.97783" lon="-0.0042">
        <ele>1575</ele>
        <time>2017-01-18T10:07:49.022Z</time>
      </trkpt>
      <trkpt lat="42.97783" lon="-0.0042">
        <ele>1575</ele>
        <time>2017-01-18T10:07:50.022Z</time>
      </trkpt>
      <trkpt lat="42.97784" lon="-0.00419">
        <ele>1575</ele>
        <time>2017-01-18T10:07:51.022Z</time>
      </trkpt>
      <trkpt lat="42.97784" lon="-0.00418">
        <ele>1575</ele>
        <time>2017-01-18T10:07:52.022Z</time>
      </trkpt>
      <trkpt lat="42.97785" lon="-0.00418">
        <ele>1575</ele>
        <time>2017-01-18T10:07:53.022Z</time>
      </trkpt>
      <trkpt lat="42.97785" lon="-0.00417">
        <ele>1575</ele>
        <time>2017-01-18T10:07:54.022Z</time>
      </trkpt>
      <trkpt lat="42.97786" lon="-0.00416">
        <ele>1576</ele>
        <time>2017-01-18T10:07:55.022Z</time>
      </trkpt>
      <trkpt lat="42.97786" lon="-0.00415">
        <ele>1575</ele>
        <time>2017-01-18T10:07:56.022Z</time>
      </trkpt>
      <trkpt lat="42.97787" lon="-0.00415">
        <ele>1576</ele>
        <time>2017-01-18T10:07:57.022Z</time>
      </trkpt>
      <trkpt lat="42.97787" lon="-0.00414">
        <ele>1576</ele>
        <time>2017-01-18T10:07:58.022Z</time>
      </trkpt>
      <trkpt lat="42.97788" lon="-0.00413">
        <ele>1575</ele>
        <time>2017-01-18T10:07:59.022Z</time>
      </trkpt>
      <trkpt lat="42.97788" lon="-0.00412">
        <ele>1575</ele>
        <time>2017-01-18T10:08:00.022Z</time>
      </trkpt>
      <trkpt lat="42.97789" lon="-0.00412">
        <ele>1575</ele>
        <time>2017-01-18T10:08:01.022Z</time>
      </trkpt>
      <trkpt lat="42.97789" lon="-0.00411">
        <ele>1575</ele>
        <time>2017-01-18T10:08:02.022Z</time>
      </trkpt>
      <trkpt lat="42.9779" lon="-0.0041">
        <ele>1575</ele>
        <time>2017-01-18T10:08:03.022Z</time>
      </trkpt>
      <trkpt lat="42.9779" lon="-0.00409">
        <ele>1575</ele>
        <time>2017-01-18T10:08:04.022Z</time>
      </trkpt>
      <trkpt lat="42.97791" lon="-0.00409">
        <ele>1575</ele>
        <time>2017-01-18T10:08:05.022Z</time>
      </trkpt>
      <trkpt lat="42.97792" lon="-0.00408">
        <ele>1575</ele>
        <time>2017-01-18T10:08:06.022Z</time>
      </trkpt>
      <trkpt lat="42.97792" lon="-0.00407">
        <ele>1575</ele>
        <time>2017-01-18T10:08:07.022Z</time>
      </trkpt>
      <trkpt lat="42.97793" lon="-0.00406">
        <ele>1576</ele>
        <time>2017-01-18T10:08:08.022Z</time>
      </trkpt>
      <trkpt lat="42.97793" lon="-0.00406">
        <ele>1576</ele>
        <time>2017-01-18T10:08:09.022Z</time>
      </trkpt>
      <trkpt lat="42.97794" lon="-0.00405">
        <ele>1575</ele>
        <time>2017-01-18T10:08:10.022Z</time>
      </trkpt>
      <trkpt lat="42.97794" lon="-0.00404">
        <ele>1576</ele>
        <time>2017-01-18T10:08:11.022Z</time>
      </trkpt>
      <trkpt lat="42.97795" lon="-0.00404">
        <ele>1576</ele>
        <time>2017-01-18T10:08:12.022Z</time>
      </trkpt>
      <trkpt lat="42.97796" lon="-0.00403">
        <ele>1576</ele>
        <time>2017-01-18T10:08:13.022Z</time>
      </trkpt>
      <trkpt lat="42.97796" lon="-0.00402">
        <ele>1576</ele>
        <time>2017-01-18T10:08:14.022Z</time>
      </trkpt>
      <trkpt lat="42.97797" lon="-0.00402">
        <ele>1576</ele>
        <time>2017-01-18T10:08:15.022Z</time>
      </trkpt>
      <trkpt lat="42.97797" lon="-0.00401">
        <ele>1576</ele>
        <time>2017-01-18T10:08:16.022Z</time>
      </trkpt>
      <trkpt lat="42.97798" lon="-0.004">
        <ele>1576</ele>
        <time>2017-01-18T10:08:17.022Z</time>
      </trkpt>
      <trkpt lat="42.97798" lon="-0.00399">
        <ele>1576</ele>
        <time>2017-01-18T10:08:18.022Z</time>
      </trkpt>
      <trkpt lat="42.97799" lon="-0.00399">
        <ele>1577</ele>
        <time>2017-01-18T10:08:19.022Z</time>
      </trkpt>
      <trkpt lat="42.97799" lon="-0.00398">
        <ele>1577</ele>
        <time>2017-01-18T10:08:20.022Z</time>
      </trkpt>
      <trkpt lat="42.97799" lon="-0.00397">
        <ele>1577</ele>
        <time>2017-01-18T10:08:21.022Z</time>
      </trkpt>
      <trkpt lat="42.978" lon="-0.00397">
        <ele>1577</ele>
        <time>2017-01-18T10:08:22.022Z</time>
      </trkpt>
      <trkpt lat="42.978" lon="-0.00396">
        <ele>1577</ele>
        <time>2017-01-18T10:08:23.022Z</time>
      </trkpt>
      <trkpt lat="42.97801" lon="-0.00395">
        <ele>1577</ele>
        <time>2017-01-18T10:08:24.022Z</time>
      </trkpt>
      <trkpt lat="42.97802" lon="-0.00394">
        <ele>1577</ele>
        <time>2017-01-18T10:08:25.022Z</time>
      </trkpt>
      <trkpt lat="42.97802" lon="-0.00394">
        <ele>1577</ele>
        <time>2017-01-18T10:08:26.022Z</time>
      </trkpt>
      <trkpt lat="42.97803" lon="-0.00393">
        <ele>1577</ele>
        <time>2017-01-18T10:08:27.022Z</time>
      </trkpt>
      <trkpt lat="42.97803" lon="-0.00392">
        <ele>1577</ele>
        <time>2017-01-18T10:08:28.022Z</time>
      </trkpt>
      <trkpt lat="42.97804" lon="-0.00392">
        <ele>1577</ele>
        <time>2017-01-18T10:08:29.022Z</time>
      </trkpt>
      <trkpt lat="42.97804" lon="-0.00391">
        <ele>1577</ele>
        <time>2017-01-18T10:08:30.022Z</time>
      </trkpt>
      <trkpt lat="42.97805" lon="-0.0039">
        <ele>1577</ele>
        <time>2017-01-18T10:08:31.022Z</time>
      </trkpt>
      <trkpt lat="42.97806" lon="-0.0039">
        <ele>1577</ele>
        <time>2017-01-18T10:08:32.022Z</time>
      </trkpt>
      <trkpt lat="42.97806" lon="-0.00389">
        <ele>1577</ele>
        <time>2017-01-18T10:08:33.022Z</time>
      </trkpt>
      <trkpt lat="42.97807" lon="-0.00388">
        <ele>1577</ele>
        <time>2017-01-18T10:08:34.022Z</time>
      </trkpt>
      <trkpt lat="42.97807" lon="-0.00388">
        <ele>1577</ele>
        <time>2017-01-18T10:08:35.022Z</time>
      </trkpt>
      <trkpt lat="42.97808" lon="-0.00387">
        <ele>1578</ele>
        <time>2017-01-18T10:08:36.022Z</time>
      </trkpt>
      <trkpt lat="42.97808" lon="-0.00386">
        <ele>1578</ele>
        <time>2017-01-18T10:08:37.022Z</time>
      </trkpt>
      <trkpt lat="42.97809" lon="-0.00385">
        <ele>1578</ele>
        <time>2017-01-18T10:08:38.022Z</time>
      </trkpt>
      <trkpt lat="42.97809" lon="-0.00384">
        <ele>1578</ele>
        <time>2017-01-18T10:08:39.022Z</time>
      </trkpt>
      <trkpt lat="42.9781" lon="-0.00384">
        <ele>1578</ele>
        <time>2017-01-18T10:08:40.022Z</time>
      </trkpt>
      <trkpt lat="42.9781" lon="-0.00383">
        <ele>1578</ele>
        <time>2017-01-18T10:08:41.022Z</time>
      </trkpt>
      <trkpt lat="42.97811" lon="-0.00382">
        <ele>1578</ele>
        <time>2017-01-18T10:08:42.022Z</time>
      </trkpt>
      <trkpt lat="42.97811" lon="-0.00382">
        <ele>1578</ele>
        <time>2017-01-18T10:08:43.022Z</time>
      </trkpt>
      <trkpt lat="42.97812" lon="-0.00381">
        <ele>1579</ele>
        <time>2017-01-18T10:08:44.022Z</time>
      </trkpt>
      <trkpt lat="42.97812" lon="-0.0038">
        <ele>1579</ele>
        <time>2017-01-18T10:08:45.022Z</time>
      </trkpt>
      <trkpt lat="42.97813" lon="-0.00379">
        <ele>1579</ele>
        <time>2017-01-18T10:08:46.022Z</time>
      </trkpt>
      <trkpt lat="42.97813" lon="-0.00379">
        <ele>1579</ele>
        <time>2017-01-18T10:08:47.022Z</time>
      </trkpt>
      <trkpt lat="42.97814" lon="-0.00378">
        <ele>1579</ele>
        <time>2017-01-18T10:08:48.022Z</time>
      </trkpt>
      <trkpt lat="42.97814" lon="-0.00377">
        <ele>1579</ele>
        <time>2017-01-18T10:08:49.022Z</time>
      </trkpt>
      <trkpt lat="42.97815" lon="-0.00376">
        <ele>1579</ele>
        <time>2017-01-18T10:08:50.022Z</time>
      </trkpt>
      <trkpt lat="42.97815" lon="-0.00376">
        <ele>1579</ele>
        <time>2017-01-18T10:08:51.022Z</time>
      </trkpt>
      <trkpt lat="42.97815" lon="-0.00375">
        <ele>1579</ele>
        <time>2017-01-18T10:08:52.022Z</time>
      </trkpt>
      <trkpt lat="42.97816" lon="-0.00374">
        <ele>1579</ele>
        <time>2017-01-18T10:08:53.022Z</time>
      </trkpt>
      <trkpt lat="42.97816" lon="-0.00373">
        <ele>1579</ele>
        <time>2017-01-18T10:08:54.022Z</time>
      </trkpt>
      <trkpt lat="42.97817" lon="-0.00372">
        <ele>1579</ele>
        <time>2017-01-18T10:08:55.022Z</time>
      </trkpt>
      <trkpt lat="42.97817" lon="-0.00372">
        <ele>1579</ele>
        <time>2017-01-18T10:08:56.022Z</time>
      </trkpt>
      <trkpt lat="42.97817" lon="-0.00371">
        <ele>1579</ele>
        <time>2017-01-18T10:08:57.022Z</time>
      </trkpt>
      <trkpt lat="42.97818" lon="-0.0037">
        <ele>1579</ele>
        <time>2017-01-18T10:08:58.022Z</time>
      </trkpt>
      <trkpt lat="42.97818" lon="-0.00369">
        <ele>1580</ele>
        <time>2017-01-18T10:08:59.022Z</time>
      </trkpt>
      <trkpt lat="42.97818" lon="-0.00368">
        <ele>1580</ele>
        <time>2017-01-18T10:09:00.022Z</time>
      </trkpt>
      <trkpt lat="42.97818" lon="-0.00368">
        <ele>1580</ele>
        <time>2017-01-18T10:09:01.022Z</time>
      </trkpt>
      <trkpt lat="42.97819" lon="-0.00367">
        <ele>1580</ele>
        <time>2017-01-18T10:09:02.022Z</time>
      </trkpt>
      <trkpt lat="42.97819" lon="-0.00366">
        <ele>1580</ele>
        <time>2017-01-18T10:09:03.022Z</time>
      </trkpt>
      <trkpt lat="42.9782" lon="-0.00365">
        <ele>1580</ele>
        <time>2017-01-18T10:09:04.022Z</time>
      </trkpt>
      <trkpt lat="42.9782" lon="-0.00364">
        <ele>1580</ele>
        <time>2017-01-18T10:09:05.022Z</time>
      </trkpt>
      <trkpt lat="42.97821" lon="-0.00363">
        <ele>1580</ele>
        <time>2017-01-18T10:09:06.022Z</time>
      </trkpt>
      <trkpt lat="42.97821" lon="-0.00363">
        <ele>1579</ele>
        <time>2017-01-18T10:09:07.022Z</time>
      </trkpt>
      <trkpt lat="42.97821" lon="-0.00362">
        <ele>1579</ele>
        <time>2017-01-18T10:09:08.022Z</time>
      </trkpt>
      <trkpt lat="42.97822" lon="-0.00361">
        <ele>1579</ele>
        <time>2017-01-18T10:09:09.022Z</time>
      </trkpt>
      <trkpt lat="42.97822" lon="-0.0036">
        <ele>1579</ele>
        <time>2017-01-18T10:09:10.022Z</time>
      </trkpt>
      <trkpt lat="42.97823" lon="-0.00359">
        <ele>1579</ele>
        <time>2017-01-18T10:09:11.022Z</time>
      </trkpt>
      <trkpt lat="42.97823" lon="-0.00359">
        <ele>1579</ele>
        <time>2017-01-18T10:09:12.022Z</time>
      </trkpt>
      <trkpt lat="42.97824" lon="-0.00358">
        <ele>1579</ele>
        <time>2017-01-18T10:09:13.022Z</time>
      </trkpt>
      <trkpt lat="42.97824" lon="-0.00357">
        <ele>1579</ele>
        <time>2017-01-18T10:09:14.022Z</time>
      </trkpt>
      <trkpt lat="42.97825" lon="-0.00356">
        <ele>1579</ele>
        <time>2017-01-18T10:09:15.022Z</time>
      </trkpt>
      <trkpt lat="42.97825" lon="-0.00356">
        <ele>1579</ele>
        <time>2017-01-18T10:09:16.022Z</time>
      </trkpt>
      <trkpt lat="42.97826" lon="-0.00355">
        <ele>1579</ele>
        <time>2017-01-18T10:09:17.022Z</time>
      </trkpt>
      <trkpt lat="42.97826" lon="-0.00354">
        <ele>1579</ele>
        <time>2017-01-18T10:09:18.022Z</time>
      </trkpt>
      <trkpt lat="42.97827" lon="-0.00353">
        <ele>1579</ele>
        <time>2017-01-18T10:09:19.022Z</time>
      </trkpt>
      <trkpt lat="42.97827" lon="-0.00352">
        <ele>1579</ele>
        <time>2017-01-18T10:09:20.022Z</time>
      </trkpt>
      <trkpt lat="42.97828" lon="-0.00352">
        <ele>1579</ele>
        <time>2017-01-18T10:09:21.022Z</time>
      </trkpt>
      <trkpt lat="42.97828" lon="-0.00351">
        <ele>1579</ele>
        <time>2017-01-18T10:09:22.022Z</time>
      </trkpt>
      <trkpt lat="42.97829" lon="-0.0035">
        <ele>1579</ele>
        <time>2017-01-18T10:09:23.022Z</time>
      </trkpt>
      <trkpt lat="42.97829" lon="-0.00349">
        <ele>1579</ele>
        <time>2017-01-18T10:09:24.022Z</time>
      </trkpt>
      <trkpt lat="42.97829" lon="-0.00348">
        <ele>1580</ele>
        <time>2017-01-18T10:09:25.022Z</time>
      </trkpt>
      <trkpt lat="42.9783" lon="-0.00348">
        <ele>1580</ele>
        <time>2017-01-18T10:09:26.022Z</time>
      </trkpt>
      <trkpt lat="42.9783" lon="-0.00347">
        <ele>1580</ele>
        <time>2017-01-18T10:09:27.022Z</time>
      </trkpt>
      <trkpt lat="42.97831" lon="-0.00346">
        <ele>1580</ele>
        <time>2017-01-18T10:09:28.022Z</time>
      </trkpt>
      <trkpt lat="42.97831" lon="-0.00346">
        <ele>1580</ele>
        <time>2017-01-18T10:09:29.022Z</time>
      </trkpt>
      <trkpt lat="42.97832" lon="-0.00345">
        <ele>1580</ele>
        <time>2017-01-18T10:09:30.022Z</time>
      </trkpt>
      <trkpt lat="42.97832" lon="-0.00344">
        <ele>1580</ele>
        <time>2017-01-18T10:09:31.022Z</time>
      </trkpt>
      <trkpt lat="42.97833" lon="-0.00343">
        <ele>1580</ele>
        <time>2017-01-18T10:09:32.022Z</time>
      </trkpt>
      <trkpt lat="42.97833" lon="-0.00343">
        <ele>1580</ele>
        <time>2017-01-18T10:09:33.022Z</time>
      </trkpt>
      <trkpt lat="42.97834" lon="-0.00342">
        <ele>1580</ele>
        <time>2017-01-18T10:09:34.022Z</time>
      </trkpt>
      <trkpt lat="42.97834" lon="-0.00341">
        <ele>1580</ele>
        <time>2017-01-18T10:09:35.022Z</time>
      </trkpt>
      <trkpt lat="42.97835" lon="-0.00341">
        <ele>1581</ele>
        <time>2017-01-18T10:09:36.022Z</time>
      </trkpt>
      <trkpt lat="42.97835" lon="-0.0034">
        <ele>1581</ele>
        <time>2017-01-18T10:09:37.022Z</time>
      </trkpt>
      <trkpt lat="42.97836" lon="-0.00339">
        <ele>1581</ele>
        <time>2017-01-18T10:09:38.022Z</time>
      </trkpt>
      <trkpt lat="42.97836" lon="-0.00338">
        <ele>1581</ele>
        <time>2017-01-18T10:09:39.022Z</time>
      </trkpt>
      <trkpt lat="42.97836" lon="-0.00338">
        <ele>1581</ele>
        <time>2017-01-18T10:09:40.022Z</time>
      </trkpt>
      <trkpt lat="42.97837" lon="-0.00337">
        <ele>1581</ele>
        <time>2017-01-18T10:09:41.022Z</time>
      </trkpt>
      <trkpt lat="42.97837" lon="-0.00336">
        <ele>1581</ele>
        <time>2017-01-18T10:09:42.022Z</time>
      </trkpt>
      <trkpt lat="42.97838" lon="-0.00335">
        <ele>1581</ele>
        <time>2017-01-18T10:09:43.022Z</time>
      </trkpt>
      <trkpt lat="42.97838" lon="-0.00334">
        <ele>1581</ele>
        <time>2017-01-18T10:09:44.022Z</time>
      </trkpt>
      <trkpt lat="42.97838" lon="-0.00334">
        <ele>1581</ele>
        <time>2017-01-18T10:09:45.022Z</time>
      </trkpt>
      <trkpt lat="42.97839" lon="-0.00333">
        <ele>1581</ele>
        <time>2017-01-18T10:09:46.022Z</time>
      </trkpt>
      <trkpt lat="42.97839" lon="-0.00332">
        <ele>1581</ele>
        <time>2017-01-18T10:09:47.022Z</time>
      </trkpt>
      <trkpt lat="42.9784" lon="-0.00332">
        <ele>1581</ele>
        <time>2017-01-18T10:09:48.022Z</time>
      </trkpt>
      <trkpt lat="42.9784" lon="-0.00331">
        <ele>1582</ele>
        <time>2017-01-18T10:09:49.022Z</time>
      </trkpt>
      <trkpt lat="42.97841" lon="-0.00331">
        <ele>1581</ele>
        <time>2017-01-18T10:09:50.022Z</time>
      </trkpt>
      <trkpt lat="42.97841" lon="-0.00331">
        <ele>1582</ele>
        <time>2017-01-18T10:09:51.022Z</time>
      </trkpt>
      <trkpt lat="42.97842" lon="-0.0033">
        <ele>1581</ele>
        <time>2017-01-18T10:09:52.022Z</time>
      </trkpt>
      <trkpt lat="42.97842" lon="-0.0033">
        <ele>1582</ele>
        <time>2017-01-18T10:09:53.022Z</time>
      </trkpt>
      <trkpt lat="42.97843" lon="-0.00329">
        <ele>1582</ele>
        <time>2017-01-18T10:09:54.022Z</time>
      </trkpt>
      <trkpt lat="42.97843" lon="-0.00328">
        <ele>1582</ele>
        <time>2017-01-18T10:09:55.022Z</time>
      </trkpt>
      <trkpt lat="42.97844" lon="-0.00328">
        <ele>1582</ele>
        <time>2017-01-18T10:09:56.022Z</time>
      </trkpt>
      <trkpt lat="42.97844" lon="-0.00327">
        <ele>1582</ele>
        <time>2017-01-18T10:09:57.022Z</time>
      </trkpt>
      <trkpt lat="42.97844" lon="-0.00326">
        <ele>1582</ele>
        <time>2017-01-18T10:09:58.022Z</time>
      </trkpt>
      <trkpt lat="42.97845" lon="-0.00326">
        <ele>1582</ele>
        <time>2017-01-18T10:09:59.022Z</time>
      </trkpt>
      <trkpt lat="42.97845" lon="-0.00325">
        <ele>1582</ele>
        <time>2017-01-18T10:10:00.022Z</time>
      </trkpt>
      <trkpt lat="42.97846" lon="-0.00324">
        <ele>1582</ele>
        <time>2017-01-18T10:10:01.022Z</time>
      </trkpt>
      <trkpt lat="42.97846" lon="-0.00324">
        <ele>1582</ele>
        <time>2017-01-18T10:10:02.022Z</time>
      </trkpt>
      <trkpt lat="42.97846" lon="-0.00323">
        <ele>1582</ele>
        <time>2017-01-18T10:10:03.022Z</time>
      </trkpt>
      <trkpt lat="42.97847" lon="-0.00322">
        <ele>1582</ele>
        <time>2017-01-18T10:10:04.022Z</time>
      </trkpt>
      <trkpt lat="42.97847" lon="-0.00322">
        <ele>1582</ele>
        <time>2017-01-18T10:10:05.022Z</time>
      </trkpt>
      <trkpt lat="42.97848" lon="-0.00321">
        <ele>1582</ele>
        <time>2017-01-18T10:10:06.022Z</time>
      </trkpt>
      <trkpt lat="42.97848" lon="-0.0032">
        <ele>1582</ele>
        <time>2017-01-18T10:10:07.022Z</time>
      </trkpt>
      <trkpt lat="42.97848" lon="-0.00319">
        <ele>1582</ele>
        <time>2017-01-18T10:10:08.022Z</time>
      </trkpt>
      <trkpt lat="42.97849" lon="-0.00319">
        <ele>1582</ele>
        <time>2017-01-18T10:10:09.022Z</time>
      </trkpt>
      <trkpt lat="42.97849" lon="-0.00318">
        <ele>1582</ele>
        <time>2017-01-18T10:10:10.022Z</time>
      </trkpt>
      <trkpt lat="42.97849" lon="-0.00317">
        <ele>1582</ele>
        <time>2017-01-18T10:10:11.022Z</time>
      </trkpt>
      <trkpt lat="42.9785" lon="-0.00316">
        <ele>1582</ele>
        <time>2017-01-18T10:10:12.022Z</time>
      </trkpt>
      <trkpt lat="42.9785" lon="-0.00315">
        <ele>1582</ele>
        <time>2017-01-18T10:10:13.022Z</time>
      </trkpt>
      <trkpt lat="42.97851" lon="-0.00315">
        <ele>1582</ele>
        <time>2017-01-18T10:10:14.022Z</time>
      </trkpt>
      <trkpt lat="42.97851" lon="-0.00314">
        <ele>1582</ele>
        <time>2017-01-18T10:10:15.022Z</time>
      </trkpt>
      <trkpt lat="42.97852" lon="-0.00313">
        <ele>1582</ele>
        <time>2017-01-18T10:10:16.022Z</time>
      </trkpt>
      <trkpt lat="42.97852" lon="-0.00313">
        <ele>1582</ele>
        <time>2017-01-18T10:10:17.022Z</time>
      </trkpt>
      <trkpt lat="42.97853" lon="-0.00312">
        <ele>1582</ele>
        <time>2017-01-18T10:10:18.022Z</time>
      </trkpt>
      <trkpt lat="42.97853" lon="-0.00312">
        <ele>1583</ele>
        <time>2017-01-18T10:10:19.022Z</time>
      </trkpt>
      <trkpt lat="42.97854" lon="-0.00311">
        <ele>1583</ele>
        <time>2017-01-18T10:10:20.022Z</time>
      </trkpt>
      <trkpt lat="42.97854" lon="-0.0031">
        <ele>1583</ele>
        <time>2017-01-18T10:10:21.022Z</time>
      </trkpt>
      <trkpt lat="42.97854" lon="-0.0031">
        <ele>1583</ele>
        <time>2017-01-18T10:10:22.022Z</time>
      </trkpt>
      <trkpt lat="42.97855" lon="-0.00309">
        <ele>1583</ele>
        <time>2017-01-18T10:10:23.022Z</time>
      </trkpt>
      <trkpt lat="42.97855" lon="-0.00308">
        <ele>1583</ele>
        <time>2017-01-18T10:10:24.022Z</time>
      </trkpt>
      <trkpt lat="42.97856" lon="-0.00307">
        <ele>1583</ele>
        <time>2017-01-18T10:10:25.022Z</time>
      </trkpt>
      <trkpt lat="42.97856" lon="-0.00307">
        <ele>1583</ele>
        <time>2017-01-18T10:10:26.022Z</time>
      </trkpt>
      <trkpt lat="42.97857" lon="-0.00306">
        <ele>1583</ele>
        <time>2017-01-18T10:10:27.022Z</time>
      </trkpt>
      <trkpt lat="42.97857" lon="-0.00305">
        <ele>1583</ele>
        <time>2017-01-18T10:10:28.022Z</time>
      </trkpt>
      <trkpt lat="42.97857" lon="-0.00304">
        <ele>1583</ele>
        <time>2017-01-18T10:10:29.022Z</time>
      </trkpt>
      <trkpt lat="42.97858" lon="-0.00303">
        <ele>1583</ele>
        <time>2017-01-18T10:10:30.022Z</time>
      </trkpt>
      <trkpt lat="42.97858" lon="-0.00303">
        <ele>1584</ele>
        <time>2017-01-18T10:10:31.022Z</time>
      </trkpt>
      <trkpt lat="42.97858" lon="-0.00302">
        <ele>1583</ele>
        <time>2017-01-18T10:10:32.022Z</time>
      </trkpt>
      <trkpt lat="42.97859" lon="-0.00301">
        <ele>1583</ele>
        <time>2017-01-18T10:10:33.022Z</time>
      </trkpt>
      <trkpt lat="42.97859" lon="-0.003">
        <ele>1583</ele>
        <time>2017-01-18T10:10:34.022Z</time>
      </trkpt>
      <trkpt lat="42.97859" lon="-0.00299">
        <ele>1583</ele>
        <time>2017-01-18T10:10:35.022Z</time>
      </trkpt>
      <trkpt lat="42.9786" lon="-0.00299">
        <ele>1584</ele>
        <time>2017-01-18T10:10:36.022Z</time>
      </trkpt>
      <trkpt lat="42.9786" lon="-0.00298">
        <ele>1584</ele>
        <time>2017-01-18T10:10:37.022Z</time>
      </trkpt>
      <trkpt lat="42.9786" lon="-0.00297">
        <ele>1584</ele>
        <time>2017-01-18T10:10:38.022Z</time>
      </trkpt>
      <trkpt lat="42.97861" lon="-0.00296">
        <ele>1584</ele>
        <time>2017-01-18T10:10:39.022Z</time>
      </trkpt>
      <trkpt lat="42.97861" lon="-0.00295">
        <ele>1584</ele>
        <time>2017-01-18T10:10:40.022Z</time>
      </trkpt>
      <trkpt lat="42.97862" lon="-0.00295">
        <ele>1584</ele>
        <time>2017-01-18T10:10:41.022Z</time>
      </trkpt>
      <trkpt lat="42.97862" lon="-0.00294">
        <ele>1584</ele>
        <time>2017-01-18T10:10:42.022Z</time>
      </trkpt>
      <trkpt lat="42.97862" lon="-0.00293">
        <ele>1584</ele>
        <time>2017-01-18T10:10:43.022Z</time>
      </trkpt>
      <trkpt lat="42.97863" lon="-0.00292">
        <ele>1584</ele>
        <time>2017-01-18T10:10:44.022Z</time>
      </trkpt>
      <trkpt lat="42.97863" lon="-0.00291">
        <ele>1584</ele>
        <time>2017-01-18T10:10:45.022Z</time>
      </trkpt>
      <trkpt lat="42.97863" lon="-0.0029">
        <ele>1584</ele>
        <time>2017-01-18T10:10:46.022Z</time>
      </trkpt>
      <trkpt lat="42.97863" lon="-0.00289">
        <ele>1584</ele>
        <time>2017-01-18T10:10:47.022Z</time>
      </trkpt>
      <trkpt lat="42.97864" lon="-0.00289">
        <ele>1584</ele>
        <time>2017-01-18T10:10:48.022Z</time>
      </trkpt>
      <trkpt lat="42.97864" lon="-0.00288">
        <ele>1584</ele>
        <time>2017-01-18T10:10:49.022Z</time>
      </trkpt>
      <trkpt lat="42.97864" lon="-0.00287">
        <ele>1584</ele>
        <time>2017-01-18T10:10:50.022Z</time>
      </trkpt>
      <trkpt lat="42.97864" lon="-0.00286">
        <ele>1584</ele>
        <time>2017-01-18T10:10:51.022Z</time>
      </trkpt>
      <trkpt lat="42.97865" lon="-0.00285">
        <ele>1584</ele>
        <time>2017-01-18T10:10:52.022Z</time>
      </trkpt>
      <trkpt lat="42.97865" lon="-0.00284">
        <ele>1584</ele>
        <time>2017-01-18T10:10:53.022Z</time>
      </trkpt>
      <trkpt lat="42.97865" lon="-0.00283">
        <ele>1584</ele>
        <time>2017-01-18T10:10:54.022Z</time>
      </trkpt>
      <trkpt lat="42.97865" lon="-0.00282">
        <ele>1584</ele>
        <time>2017-01-18T10:10:55.022Z</time>
      </trkpt>
      <trkpt lat="42.97865" lon="-0.00282">
        <ele>1584</ele>
        <time>2017-01-18T10:10:56.022Z</time>
      </trkpt>
      <trkpt lat="42.97866" lon="-0.00281">
        <ele>1585</ele>
        <time>2017-01-18T10:10:57.022Z</time>
      </trkpt>
      <trkpt lat="42.97866" lon="-0.00281">
        <ele>1584</ele>
        <time>2017-01-18T10:10:58.022Z</time>
      </trkpt>
      <trkpt lat="42.97866" lon="-0.00281">
        <ele>1585</ele>
        <time>2017-01-18T10:10:59.022Z</time>
      </trkpt>
      <trkpt lat="42.97866" lon="-0.00281">
        <ele>1585</ele>
        <time>2017-01-18T10:11:00.022Z</time>
      </trkpt>
      <trkpt lat="42.97866" lon="-0.00281">
        <ele>1585</ele>
        <time>2017-01-18T10:11:01.022Z</time>
      </trkpt>
      <trkpt lat="42.97866" lon="-0.0028">
        <ele>1585</ele>
        <time>2017-01-18T10:11:02.022Z</time>
      </trkpt>
      <trkpt lat="42.97866" lon="-0.0028">
        <ele>1584</ele>
        <time>2017-01-18T10:11:03.022Z</time>
      </trkpt>
      <trkpt lat="42.97866" lon="-0.00279">
        <ele>1585</ele>
        <time>2017-01-18T10:11:04.022Z</time>
      </trkpt>
      <trkpt lat="42.97866" lon="-0.00279">
        <ele>1585</ele>
        <time>2017-01-18T10:11:05.022Z</time>
      </trkpt>
      <trkpt lat="42.97866" lon="-0.00278">
        <ele>1585</ele>
        <time>2017-01-18T10:11:06.022Z</time>
      </trkpt>
      <trkpt lat="42.97866" lon="-0.00278">
        <ele>1585</ele>
        <time>2017-01-18T10:11:07.022Z</time>
      </trkpt>
      <trkpt lat="42.97867" lon="-0.00277">
        <ele>1585</ele>
        <time>2017-01-18T10:11:08.022Z</time>
      </trkpt>
      <trkpt lat="42.97867" lon="-0.00276">
        <ele>1585</ele>
        <time>2017-01-18T10:11:09.022Z</time>
      </trkpt>
      <trkpt lat="42.97867" lon="-0.00275">
        <ele>1585</ele>
        <time>2017-01-18T10:11:10.022Z</time>
      </trkpt>
      <trkpt lat="42.97867" lon="-0.00275">
        <ele>1585</ele>
        <time>2017-01-18T10:11:11.022Z</time>
      </trkpt>
      <trkpt lat="42.97868" lon="-0.00274">
        <ele>1585</ele>
        <time>2017-01-18T10:11:12.022Z</time>
      </trkpt>
      <trkpt lat="42.97868" lon="-0.00273">
        <ele>1585</ele>
        <time>2017-01-18T10:11:13.022Z</time>
      </trkpt>
      <trkpt lat="42.97868" lon="-0.00272">
        <ele>1585</ele>
        <time>2017-01-18T10:11:14.022Z</time>
      </trkpt>
      <trkpt lat="42.97869" lon="-0.00272">
        <ele>1585</ele>
        <time>2017-01-18T10:11:15.022Z</time>
      </trkpt>
      <trkpt lat="42.97869" lon="-0.00271">
        <ele>1585</ele>
        <time>2017-01-18T10:11:16.022Z</time>
      </trkpt>
      <trkpt lat="42.97869" lon="-0.0027">
        <ele>1585</ele>
        <time>2017-01-18T10:11:17.022Z</time>
      </trkpt>
      <trkpt lat="42.9787" lon="-0.00269">
        <ele>1585</ele>
        <time>2017-01-18T10:11:18.022Z</time>
      </trkpt>
      <trkpt lat="42.9787" lon="-0.00269">
        <ele>1585</ele>
        <time>2017-01-18T10:11:19.022Z</time>
      </trkpt>
      <trkpt lat="42.9787" lon="-0.00268">
        <ele>1585</ele>
        <time>2017-01-18T10:11:20.022Z</time>
      </trkpt>
      <trkpt lat="42.97871" lon="-0.00267">
        <ele>1585</ele>
        <time>2017-01-18T10:11:21.022Z</time>
      </trkpt>
      <trkpt lat="42.97871" lon="-0.00266">
        <ele>1585</ele>
        <time>2017-01-18T10:11:22.022Z</time>
      </trkpt>
      <trkpt lat="42.97872" lon="-0.00266">
        <ele>1585</ele>
        <time>2017-01-18T10:11:23.022Z</time>
      </trkpt>
      <trkpt lat="42.97872" lon="-0.00265">
        <ele>1585</ele>
        <time>2017-01-18T10:11:24.022Z</time>
      </trkpt>
      <trkpt lat="42.97872" lon="-0.00264">
        <ele>1585</ele>
        <time>2017-01-18T10:11:25.022Z</time>
      </trkpt>
      <trkpt lat="42.97873" lon="-0.00263">
        <ele>1585</ele>
        <time>2017-01-18T10:11:26.022Z</time>
      </trkpt>
      <trkpt lat="42.97873" lon="-0.00263">
        <ele>1585</ele>
        <time>2017-01-18T10:11:27.022Z</time>
      </trkpt>
      <trkpt lat="42.97874" lon="-0.00262">
        <ele>1585</ele>
        <time>2017-01-18T10:11:28.022Z</time>
      </trkpt>
      <trkpt lat="42.97874" lon="-0.00261">
        <ele>1585</ele>
        <time>2017-01-18T10:11:29.022Z</time>
      </trkpt>
      <trkpt lat="42.97875" lon="-0.0026">
        <ele>1585</ele>
        <time>2017-01-18T10:11:30.022Z</time>
      </trkpt>
      <trkpt lat="42.97875" lon="-0.0026">
        <ele>1585</ele>
        <time>2017-01-18T10:11:31.022Z</time>
      </trkpt>
      <trkpt lat="42.97876" lon="-0.00259">
        <ele>1585</ele>
        <time>2017-01-18T10:11:32.022Z</time>
      </trkpt>
      <trkpt lat="42.97876" lon="-0.00258">
        <ele>1586</ele>
        <time>2017-01-18T10:11:33.022Z</time>
      </trkpt>
      <trkpt lat="42.97876" lon="-0.00257">
        <ele>1586</ele>
        <time>2017-01-18T10:11:34.022Z</time>
      </trkpt>
      <trkpt lat="42.97877" lon="-0.00257">
        <ele>1586</ele>
        <time>2017-01-18T10:11:35.022Z</time>
      </trkpt>
      <trkpt lat="42.97877" lon="-0.00256">
        <ele>1586</ele>
        <time>2017-01-18T10:11:36.022Z</time>
      </trkpt>
      <trkpt lat="42.97878" lon="-0.00256">
        <ele>1586</ele>
        <time>2017-01-18T10:11:37.022Z</time>
      </trkpt>
      <trkpt lat="42.97878" lon="-0.00255">
        <ele>1586</ele>
        <time>2017-01-18T10:11:38.022Z</time>
      </trkpt>
      <trkpt lat="42.97879" lon="-0.00254">
        <ele>1586</ele>
        <time>2017-01-18T10:11:39.022Z</time>
      </trkpt>
      <trkpt lat="42.97879" lon="-0.00254">
        <ele>1586</ele>
        <time>2017-01-18T10:11:40.022Z</time>
      </trkpt>
      <trkpt lat="42.9788" lon="-0.00253">
        <ele>1586</ele>
        <time>2017-01-18T10:11:41.022Z</time>
      </trkpt>
      <trkpt lat="42.9788" lon="-0.00252">
        <ele>1586</ele>
        <time>2017-01-18T10:11:42.022Z</time>
      </trkpt>
      <trkpt lat="42.97881" lon="-0.00251">
        <ele>1586</ele>
        <time>2017-01-18T10:11:43.022Z</time>
      </trkpt>
      <trkpt lat="42.97881" lon="-0.00251">
        <ele>1586</ele>
        <time>2017-01-18T10:11:44.022Z</time>
      </trkpt>
      <trkpt lat="42.97882" lon="-0.0025">
        <ele>1586</ele>
        <time>2017-01-18T10:11:45.022Z</time>
      </trkpt>
      <trkpt lat="42.97882" lon="-0.00249">
        <ele>1586</ele>
        <time>2017-01-18T10:11:46.022Z</time>
      </trkpt>
      <trkpt lat="42.97883" lon="-0.00249">
        <ele>1586</ele>
        <time>2017-01-18T10:11:47.022Z</time>
      </trkpt>
      <trkpt lat="42.97883" lon="-0.00248">
        <ele>1586</ele>
        <time>2017-01-18T10:11:48.022Z</time>
      </trkpt>
      <trkpt lat="42.97884" lon="-0.00247">
        <ele>1586</ele>
        <time>2017-01-18T10:11:49.022Z</time>
      </trkpt>
      <trkpt lat="42.97884" lon="-0.00247">
        <ele>1586</ele>
        <time>2017-01-18T10:11:50.022Z</time>
      </trkpt>
      <trkpt lat="42.97885" lon="-0.00246">
        <ele>1586</ele>
        <time>2017-01-18T10:11:51.022Z</time>
      </trkpt>
      <trkpt lat="42.97885" lon="-0.00245">
        <ele>1587</ele>
        <time>2017-01-18T10:11:52.022Z</time>
      </trkpt>
      <trkpt lat="42.97886" lon="-0.00245">
        <ele>1587</ele>
        <time>2017-01-18T10:11:53.022Z</time>
      </trkpt>
      <trkpt lat="42.97886" lon="-0.00244">
        <ele>1587</ele>
        <time>2017-01-18T10:11:54.022Z</time>
      </trkpt>
      <trkpt lat="42.97887" lon="-0.00243">
        <ele>1587</ele>
        <time>2017-01-18T10:11:55.022Z</time>
      </trkpt>
      <trkpt lat="42.97887" lon="-0.00243">
        <ele>1587</ele>
        <time>2017-01-18T10:11:56.022Z</time>
      </trkpt>
      <trkpt lat="42.97888" lon="-0.00242">
        <ele>1587</ele>
        <time>2017-01-18T10:11:57.022Z</time>
      </trkpt>
      <trkpt lat="42.97888" lon="-0.00241">
        <ele>1587</ele>
        <time>2017-01-18T10:11:58.022Z</time>
      </trkpt>
      <trkpt lat="42.97889" lon="-0.00241">
        <ele>1587</ele>
        <time>2017-01-18T10:11:59.022Z</time>
      </trkpt>
      <trkpt lat="42.97889" lon="-0.0024">
        <ele>1588</ele>
        <time>2017-01-18T10:12:00.022Z</time>
      </trkpt>
      <trkpt lat="42.9789" lon="-0.0024">
        <ele>1588</ele>
        <time>2017-01-18T10:12:01.022Z</time>
      </trkpt>
      <trkpt lat="42.97891" lon="-0.00239">
        <ele>1588</ele>
        <time>2017-01-18T10:12:02.022Z</time>
      </trkpt>
      <trkpt lat="42.97891" lon="-0.00239">
        <ele>1588</ele>
        <time>2017-01-18T10:12:03.022Z</time>
      </trkpt>
      <trkpt lat="42.97892" lon="-0.00238">
        <ele>1588</ele>
        <time>2017-01-18T10:12:04.022Z</time>
      </trkpt>
      <trkpt lat="42.97892" lon="-0.00238">
        <ele>1588</ele>
        <time>2017-01-18T10:12:05.022Z</time>
      </trkpt>
      <trkpt lat="42.97893" lon="-0.00237">
        <ele>1588</ele>
        <time>2017-01-18T10:12:06.022Z</time>
      </trkpt>
      <trkpt lat="42.97893" lon="-0.00236">
        <ele>1588</ele>
        <time>2017-01-18T10:12:07.022Z</time>
      </trkpt>
      <trkpt lat="42.97894" lon="-0.00236">
        <ele>1588</ele>
        <time>2017-01-18T10:12:08.022Z</time>
      </trkpt>
      <trkpt lat="42.97894" lon="-0.00235">
        <ele>1588</ele>
        <time>2017-01-18T10:12:09.022Z</time>
      </trkpt>
      <trkpt lat="42.97895" lon="-0.00235">
        <ele>1588</ele>
        <time>2017-01-18T10:12:10.022Z</time>
      </trkpt>
      <trkpt lat="42.97896" lon="-0.00234">
        <ele>1588</ele>
        <time>2017-01-18T10:12:11.022Z</time>
      </trkpt>
      <trkpt lat="42.97896" lon="-0.00234">
        <ele>1588</ele>
        <time>2017-01-18T10:12:12.022Z</time>
      </trkpt>
      <trkpt lat="42.97897" lon="-0.00233">
        <ele>1588</ele>
        <time>2017-01-18T10:12:13.022Z</time>
      </trkpt>
      <trkpt lat="42.97897" lon="-0.00232">
        <ele>1588</ele>
        <time>2017-01-18T10:12:14.022Z</time>
      </trkpt>
      <trkpt lat="42.97898" lon="-0.00232">
        <ele>1589</ele>
        <time>2017-01-18T10:12:15.022Z</time>
      </trkpt>
      <trkpt lat="42.97898" lon="-0.00231">
        <ele>1589</ele>
        <time>2017-01-18T10:12:16.022Z</time>
      </trkpt>
      <trkpt lat="42.97899" lon="-0.00231">
        <ele>1589</ele>
        <time>2017-01-18T10:12:17.022Z</time>
      </trkpt>
      <trkpt lat="42.97899" lon="-0.00231">
        <ele>1589</ele>
        <time>2017-01-18T10:12:18.022Z</time>
      </trkpt>
      <trkpt lat="42.97899" lon="-0.00231">
        <ele>1589</ele>
        <time>2017-01-18T10:12:19.022Z</time>
      </trkpt>
      <trkpt lat="42.97899" lon="-0.0023">
        <ele>1589</ele>
        <time>2017-01-18T10:12:20.022Z</time>
      </trkpt>
      <trkpt lat="42.97898" lon="-0.0023">
        <ele>1589</ele>
        <time>2017-01-18T10:12:21.022Z</time>
      </trkpt>
      <trkpt lat="42.979" lon="-0.00229">
        <ele>1588</ele>
        <time>2017-01-18T10:12:22.030Z</time>
      </trkpt>
      <trkpt lat="42.97901" lon="-0.00228">
        <ele>1589</ele>
        <time>2017-01-18T10:12:23.030Z</time>
      </trkpt>
      <trkpt lat="42.97902" lon="-0.00228">
        <ele>1589</ele>
        <time>2017-01-18T10:12:24.030Z</time>
      </trkpt>
      <trkpt lat="42.97902" lon="-0.00227">
        <ele>1589</ele>
        <time>2017-01-18T10:12:25.030Z</time>
      </trkpt>
      <trkpt lat="42.97903" lon="-0.00227">
        <ele>1589</ele>
        <time>2017-01-18T10:12:26.030Z</time>
      </trkpt>
      <trkpt lat="42.97903" lon="-0.00227">
        <ele>1589</ele>
        <time>2017-01-18T10:12:27.030Z</time>
      </trkpt>
      <trkpt lat="42.97904" lon="-0.00226">
        <ele>1589</ele>
        <time>2017-01-18T10:12:28.030Z</time>
      </trkpt>
      <trkpt lat="42.97905" lon="-0.00226">
        <ele>1589</ele>
        <time>2017-01-18T10:12:29.030Z</time>
      </trkpt>
      <trkpt lat="42.97905" lon="-0.00225">
        <ele>1589</ele>
        <time>2017-01-18T10:12:30.030Z</time>
      </trkpt>
      <trkpt lat="42.97906" lon="-0.00225">
        <ele>1589</ele>
        <time>2017-01-18T10:12:31.030Z</time>
      </trkpt>
      <trkpt lat="42.97907" lon="-0.00224">
        <ele>1589</ele>
        <time>2017-01-18T10:12:32.030Z</time>
      </trkpt>
      <trkpt lat="42.97907" lon="-0.00224">
        <ele>1590</ele>
        <time>2017-01-18T10:12:33.030Z</time>
      </trkpt>
      <trkpt lat="42.97908" lon="-0.00223">
        <ele>1590</ele>
        <time>2017-01-18T10:12:34.030Z</time>
      </trkpt>
      <trkpt lat="42.97909" lon="-0.00223">
        <ele>1590</ele>
        <time>2017-01-18T10:12:35.030Z</time>
      </trkpt>
      <trkpt lat="42.97909" lon="-0.00223">
        <ele>1589</ele>
        <time>2017-01-18T10:12:36.030Z</time>
      </trkpt>
      <trkpt lat="42.9791" lon="-0.00222">
        <ele>1590</ele>
        <time>2017-01-18T10:12:37.030Z</time>
      </trkpt>
      <trkpt lat="42.9791" lon="-0.00222">
        <ele>1590</ele>
        <time>2017-01-18T10:12:38.030Z</time>
      </trkpt>
      <trkpt lat="42.97911" lon="-0.00221">
        <ele>1590</ele>
        <time>2017-01-18T10:12:39.030Z</time>
      </trkpt>
      <trkpt lat="42.97912" lon="-0.00221">
        <ele>1590</ele>
        <time>2017-01-18T10:12:40.030Z</time>
      </trkpt>
      <trkpt lat="42.97912" lon="-0.0022">
        <ele>1590</ele>
        <time>2017-01-18T10:12:41.030Z</time>
      </trkpt>
      <trkpt lat="42.97913" lon="-0.0022">
        <ele>1590</ele>
        <time>2017-01-18T10:12:42.030Z</time>
      </trkpt>
      <trkpt lat="42.97913" lon="-0.00219">
        <ele>1590</ele>
        <time>2017-01-18T10:12:43.030Z</time>
      </trkpt>
      <trkpt lat="42.97914" lon="-0.00219">
        <ele>1590</ele>
        <time>2017-01-18T10:12:44.030Z</time>
      </trkpt>
      <trkpt lat="42.97915" lon="-0.00219">
        <ele>1590</ele>
        <time>2017-01-18T10:12:45.030Z</time>
      </trkpt>
      <trkpt lat="42.97915" lon="-0.00218">
        <ele>1590</ele>
        <time>2017-01-18T10:12:46.030Z</time>
      </trkpt>
      <trkpt lat="42.97916" lon="-0.00218">
        <ele>1590</ele>
        <time>2017-01-18T10:12:47.030Z</time>
      </trkpt>
      <trkpt lat="42.97917" lon="-0.00218">
        <ele>1590</ele>
        <time>2017-01-18T10:12:48.030Z</time>
      </trkpt>
      <trkpt lat="42.97918" lon="-0.00217">
        <ele>1590</ele>
        <time>2017-01-18T10:12:49.030Z</time>
      </trkpt>
      <trkpt lat="42.97918" lon="-0.00217">
        <ele>1590</ele>
        <time>2017-01-18T10:12:50.030Z</time>
      </trkpt>
      <trkpt lat="42.97919" lon="-0.00216">
        <ele>1590</ele>
        <time>2017-01-18T10:12:51.030Z</time>
      </trkpt>
      <trkpt lat="42.97919" lon="-0.00216">
        <ele>1591</ele>
        <time>2017-01-18T10:12:52.030Z</time>
      </trkpt>
      <trkpt lat="42.9792" lon="-0.00216">
        <ele>1591</ele>
        <time>2017-01-18T10:12:53.030Z</time>
      </trkpt>
      <trkpt lat="42.97921" lon="-0.00215">
        <ele>1591</ele>
        <time>2017-01-18T10:12:54.030Z</time>
      </trkpt>
      <trkpt lat="42.97921" lon="-0.00215">
        <ele>1591</ele>
        <time>2017-01-18T10:12:55.030Z</time>
      </trkpt>
      <trkpt lat="42.97922" lon="-0.00215">
        <ele>1591</ele>
        <time>2017-01-18T10:12:56.030Z</time>
      </trkpt>
      <trkpt lat="42.97923" lon="-0.00214">
        <ele>1591</ele>
        <time>2017-01-18T10:12:57.030Z</time>
      </trkpt>
      <trkpt lat="42.97923" lon="-0.00214">
        <ele>1590</ele>
        <time>2017-01-18T10:12:58.030Z</time>
      </trkpt>
      <trkpt lat="42.97924" lon="-0.00214">
        <ele>1591</ele>
        <time>2017-01-18T10:12:59.030Z</time>
      </trkpt>
      <trkpt lat="42.97924" lon="-0.00213">
        <ele>1591</ele>
        <time>2017-01-18T10:13:00.030Z</time>
      </trkpt>
      <trkpt lat="42.97925" lon="-0.00213">
        <ele>1591</ele>
        <time>2017-01-18T10:13:01.030Z</time>
      </trkpt>
      <trkpt lat="42.97926" lon="-0.00213">
        <ele>1591</ele>
        <time>2017-01-18T10:13:02.030Z</time>
      </trkpt>
      <trkpt lat="42.97926" lon="-0.00213">
        <ele>1591</ele>
        <time>2017-01-18T10:13:03.030Z</time>
      </trkpt>
      <trkpt lat="42.97927" lon="-0.00213">
        <ele>1591</ele>
        <time>2017-01-18T10:13:04.030Z</time>
      </trkpt>
      <trkpt lat="42.97927" lon="-0.00212">
        <ele>1591</ele>
        <time>2017-01-18T10:13:05.030Z</time>
      </trkpt>
      <trkpt lat="42.97928" lon="-0.00212">
        <ele>1591</ele>
        <time>2017-01-18T10:13:06.030Z</time>
      </trkpt>
      <trkpt lat="42.97928" lon="-0.00212">
        <ele>1591</ele>
        <time>2017-01-18T10:13:07.030Z</time>
      </trkpt>
      <trkpt lat="42.97929" lon="-0.00211">
        <ele>1591</ele>
        <time>2017-01-18T10:13:08.030Z</time>
      </trkpt>
      <trkpt lat="42.97929" lon="-0.00211">
        <ele>1591</ele>
        <time>2017-01-18T10:13:09.030Z</time>
      </trkpt>
      <trkpt lat="42.9793" lon="-0.00211">
        <ele>1591</ele>
        <time>2017-01-18T10:13:10.030Z</time>
      </trkpt>
      <trkpt lat="42.97931" lon="-0.00211">
        <ele>1591</ele>
        <time>2017-01-18T10:13:11.030Z</time>
      </trkpt>
      <trkpt lat="42.97931" lon="-0.0021">
        <ele>1591</ele>
        <time>2017-01-18T10:13:12.030Z</time>
      </trkpt>
      <trkpt lat="42.97932" lon="-0.0021">
        <ele>1591</ele>
        <time>2017-01-18T10:13:13.030Z</time>
      </trkpt>
      <trkpt lat="42.97933" lon="-0.0021">
        <ele>1592</ele>
        <time>2017-01-18T10:13:14.030Z</time>
      </trkpt>
      <trkpt lat="42.97933" lon="-0.0021">
        <ele>1591</ele>
        <time>2017-01-18T10:13:15.030Z</time>
      </trkpt>
      <trkpt lat="42.97934" lon="-0.00209">
        <ele>1592</ele>
        <time>2017-01-18T10:13:16.030Z</time>
      </trkpt>
      <trkpt lat="42.97934" lon="-0.00209">
        <ele>1592</ele>
        <time>2017-01-18T10:13:17.030Z</time>
      </trkpt>
      <trkpt lat="42.97935" lon="-0.00209">
        <ele>1592</ele>
        <time>2017-01-18T10:13:18.030Z</time>
      </trkpt>
      <trkpt lat="42.97935" lon="-0.00208">
        <ele>1592</ele>
        <time>2017-01-18T10:13:19.030Z</time>
      </trkpt>
      <trkpt lat="42.97936" lon="-0.00208">
        <ele>1592</ele>
        <time>2017-01-18T10:13:20.030Z</time>
      </trkpt>
      <trkpt lat="42.97937" lon="-0.00208">
        <ele>1592</ele>
        <time>2017-01-18T10:13:21.030Z</time>
      </trkpt>
      <trkpt lat="42.97937" lon="-0.00207">
        <ele>1592</ele>
        <time>2017-01-18T10:13:22.030Z</time>
      </trkpt>
      <trkpt lat="42.97938" lon="-0.00207">
        <ele>1592</ele>
        <time>2017-01-18T10:13:23.030Z</time>
      </trkpt>
      <trkpt lat="42.97939" lon="-0.00207">
        <ele>1592</ele>
        <time>2017-01-18T10:13:24.030Z</time>
      </trkpt>
      <trkpt lat="42.97939" lon="-0.00206">
        <ele>1592</ele>
        <time>2017-01-18T10:13:25.030Z</time>
      </trkpt>
      <trkpt lat="42.9794" lon="-0.00206">
        <ele>1592</ele>
        <time>2017-01-18T10:13:26.030Z</time>
      </trkpt>
      <trkpt lat="42.9794" lon="-0.00206">
        <ele>1592</ele>
        <time>2017-01-18T10:13:27.030Z</time>
      </trkpt>
      <trkpt lat="42.97941" lon="-0.00205">
        <ele>1592</ele>
        <time>2017-01-18T10:13:28.030Z</time>
      </trkpt>
      <trkpt lat="42.97941" lon="-0.00205">
        <ele>1592</ele>
        <time>2017-01-18T10:13:29.030Z</time>
      </trkpt>
      <trkpt lat="42.97942" lon="-0.00205">
        <ele>1592</ele>
        <time>2017-01-18T10:13:30.030Z</time>
      </trkpt>
      <trkpt lat="42.97943" lon="-0.00204">
        <ele>1592</ele>
        <time>2017-01-18T10:13:31.030Z</time>
      </trkpt>
      <trkpt lat="42.97943" lon="-0.00204">
        <ele>1592</ele>
        <time>2017-01-18T10:13:32.030Z</time>
      </trkpt>
      <trkpt lat="42.97944" lon="-0.00204">
        <ele>1592</ele>
        <time>2017-01-18T10:13:33.030Z</time>
      </trkpt>
      <trkpt lat="42.97944" lon="-0.00204">
        <ele>1592</ele>
        <time>2017-01-18T10:13:34.030Z</time>
      </trkpt>
      <trkpt lat="42.97945" lon="-0.00203">
        <ele>1592</ele>
        <time>2017-01-18T10:13:35.030Z</time>
      </trkpt>
      <trkpt lat="42.97945" lon="-0.00203">
        <ele>1592</ele>
        <time>2017-01-18T10:13:36.030Z</time>
      </trkpt>
      <trkpt lat="42.97946" lon="-0.00203">
        <ele>1592</ele>
        <time>2017-01-18T10:13:37.030Z</time>
      </trkpt>
      <trkpt lat="42.97946" lon="-0.00202">
        <ele>1592</ele>
        <time>2017-01-18T10:13:38.030Z</time>
      </trkpt>
      <trkpt lat="42.97947" lon="-0.00202">
        <ele>1593</ele>
        <time>2017-01-18T10:13:39.030Z</time>
      </trkpt>
      <trkpt lat="42.97948" lon="-0.00202">
        <ele>1592</ele>
        <time>2017-01-18T10:13:40.030Z</time>
      </trkpt>
      <trkpt lat="42.97948" lon="-0.00202">
        <ele>1593</ele>
        <time>2017-01-18T10:13:41.030Z</time>
      </trkpt>
      <trkpt lat="42.97949" lon="-0.00201">
        <ele>1592</ele>
        <time>2017-01-18T10:13:42.030Z</time>
      </trkpt>
      <trkpt lat="42.97949" lon="-0.00201">
        <ele>1593</ele>
        <time>2017-01-18T10:13:43.030Z</time>
      </trkpt>
      <trkpt lat="42.9795" lon="-0.00201">
        <ele>1593</ele>
        <time>2017-01-18T10:13:44.030Z</time>
      </trkpt>
      <trkpt lat="42.97951" lon="-0.002">
        <ele>1592</ele>
        <time>2017-01-18T10:13:45.030Z</time>
      </trkpt>
      <trkpt lat="42.97951" lon="-0.002">
        <ele>1593</ele>
        <time>2017-01-18T10:13:46.030Z</time>
      </trkpt>
      <trkpt lat="42.97952" lon="-0.002">
        <ele>1593</ele>
        <time>2017-01-18T10:13:47.030Z</time>
      </trkpt>
      <trkpt lat="42.97952" lon="-0.00199">
        <ele>1593</ele>
        <time>2017-01-18T10:13:48.030Z</time>
      </trkpt>
      <trkpt lat="42.97953" lon="-0.00199">
        <ele>1593</ele>
        <time>2017-01-18T10:13:49.030Z</time>
      </trkpt>
      <trkpt lat="42.97954" lon="-0.00199">
        <ele>1593</ele>
        <time>2017-01-18T10:13:50.030Z</time>
      </trkpt>
      <trkpt lat="42.97954" lon="-0.00198">
        <ele>1593</ele>
        <time>2017-01-18T10:13:51.030Z</time>
      </trkpt>
      <trkpt lat="42.97955" lon="-0.00198">
        <ele>1593</ele>
        <time>2017-01-18T10:13:52.030Z</time>
      </trkpt>
      <trkpt lat="42.97956" lon="-0.00198">
        <ele>1593</ele>
        <time>2017-01-18T10:13:53.030Z</time>
      </trkpt>
      <trkpt lat="42.97956" lon="-0.00198">
        <ele>1593</ele>
        <time>2017-01-18T10:13:54.030Z</time>
      </trkpt>
      <trkpt lat="42.97957" lon="-0.00197">
        <ele>1593</ele>
        <time>2017-01-18T10:13:55.030Z</time>
      </trkpt>
      <trkpt lat="42.97957" lon="-0.00197">
        <ele>1593</ele>
        <time>2017-01-18T10:13:56.030Z</time>
      </trkpt>
      <trkpt lat="42.97958" lon="-0.00197">
        <ele>1593</ele>
        <time>2017-01-18T10:13:57.030Z</time>
      </trkpt>
      <trkpt lat="42.97959" lon="-0.00197">
        <ele>1593</ele>
        <time>2017-01-18T10:13:58.030Z</time>
      </trkpt>
      <trkpt lat="42.97959" lon="-0.00197">
        <ele>1593</ele>
        <time>2017-01-18T10:13:59.030Z</time>
      </trkpt>
      <trkpt lat="42.9796" lon="-0.00197">
        <ele>1593</ele>
        <time>2017-01-18T10:14:00.030Z</time>
      </trkpt>
      <trkpt lat="42.9796" lon="-0.00197">
        <ele>1593</ele>
        <time>2017-01-18T10:14:01.030Z</time>
      </trkpt>
      <trkpt lat="42.97961" lon="-0.00196">
        <ele>1593</ele>
        <time>2017-01-18T10:14:02.030Z</time>
      </trkpt>
      <trkpt lat="42.97962" lon="-0.00196">
        <ele>1593</ele>
        <time>2017-01-18T10:14:03.030Z</time>
      </trkpt>
      <trkpt lat="42.97962" lon="-0.00196">
        <ele>1593</ele>
        <time>2017-01-18T10:14:04.030Z</time>
      </trkpt>
      <trkpt lat="42.97963" lon="-0.00196">
        <ele>1593</ele>
        <time>2017-01-18T10:14:05.030Z</time>
      </trkpt>
      <trkpt lat="42.97964" lon="-0.00196">
        <ele>1593</ele>
        <time>2017-01-18T10:14:06.030Z</time>
      </trkpt>
      <trkpt lat="42.97964" lon="-0.00196">
        <ele>1593</ele>
        <time>2017-01-18T10:14:07.030Z</time>
      </trkpt>
      <trkpt lat="42.97965" lon="-0.00196">
        <ele>1593</ele>
        <time>2017-01-18T10:14:08.030Z</time>
      </trkpt>
      <trkpt lat="42.97965" lon="-0.00195">
        <ele>1593</ele>
        <time>2017-01-18T10:14:09.030Z</time>
      </trkpt>
      <trkpt lat="42.97966" lon="-0.00195">
        <ele>1593</ele>
        <time>2017-01-18T10:14:10.030Z</time>
      </trkpt>
      <trkpt lat="42.97966" lon="-0.00195">
        <ele>1593</ele>
        <time>2017-01-18T10:14:11.030Z</time>
      </trkpt>
      <trkpt lat="42.97967" lon="-0.00195">
        <ele>1593</ele>
        <time>2017-01-18T10:14:12.030Z</time>
      </trkpt>
      <trkpt lat="42.97967" lon="-0.00195">
        <ele>1593</ele>
        <time>2017-01-18T10:14:13.030Z</time>
      </trkpt>
      <trkpt lat="42.97968" lon="-0.00195">
        <ele>1593</ele>
        <time>2017-01-18T10:14:14.030Z</time>
      </trkpt>
      <trkpt lat="42.97968" lon="-0.00195">
        <ele>1593</ele>
        <time>2017-01-18T10:14:15.030Z</time>
      </trkpt>
      <trkpt lat="42.97969" lon="-0.00194">
        <ele>1593</ele>
        <time>2017-01-18T10:14:16.030Z</time>
      </trkpt>
      <trkpt lat="42.97969" lon="-0.00194">
        <ele>1593</ele>
        <time>2017-01-18T10:14:17.030Z</time>
      </trkpt>
      <trkpt lat="42.9797" lon="-0.00194">
        <ele>1593</ele>
        <time>2017-01-18T10:14:18.030Z</time>
      </trkpt>
      <trkpt lat="42.9797" lon="-0.00194">
        <ele>1593</ele>
        <time>2017-01-18T10:14:19.030Z</time>
      </trkpt>
      <trkpt lat="42.97971" lon="-0.00194">
        <ele>1593</ele>
        <time>2017-01-18T10:14:20.030Z</time>
      </trkpt>
      <trkpt lat="42.97971" lon="-0.00194">
        <ele>1593</ele>
        <time>2017-01-18T10:14:21.030Z</time>
      </trkpt>
      <trkpt lat="42.97972" lon="-0.00193">
        <ele>1593</ele>
        <time>2017-01-18T10:14:22.030Z</time>
      </trkpt>
      <trkpt lat="42.97972" lon="-0.00193">
        <ele>1593</ele>
        <time>2017-01-18T10:14:23.030Z</time>
      </trkpt>
      <trkpt lat="42.97973" lon="-0.00193">
        <ele>1593</ele>
        <time>2017-01-18T10:14:24.030Z</time>
      </trkpt>
      <trkpt lat="42.97974" lon="-0.00193">
        <ele>1593</ele>
        <time>2017-01-18T10:14:25.030Z</time>
      </trkpt>
      <trkpt lat="42.97974" lon="-0.00193">
        <ele>1593</ele>
        <time>2017-01-18T10:14:26.030Z</time>
      </trkpt>
      <trkpt lat="42.97975" lon="-0.00193">
        <ele>1593</ele>
        <time>2017-01-18T10:14:27.030Z</time>
      </trkpt>
      <trkpt lat="42.97975" lon="-0.00193">
        <ele>1593</ele>
        <time>2017-01-18T10:14:28.030Z</time>
      </trkpt>
      <trkpt lat="42.97976" lon="-0.00193">
        <ele>1593</ele>
        <time>2017-01-18T10:14:29.030Z</time>
      </trkpt>
      <trkpt lat="42.97976" lon="-0.00194">
        <ele>1593</ele>
        <time>2017-01-18T10:14:30.030Z</time>
      </trkpt>
      <trkpt lat="42.97976" lon="-0.00194">
        <ele>1593</ele>
        <time>2017-01-18T10:14:31.030Z</time>
      </trkpt>
      <trkpt lat="42.97977" lon="-0.00194">
        <ele>1593</ele>
        <time>2017-01-18T10:14:32.030Z</time>
      </trkpt>
      <trkpt lat="42.97977" lon="-0.00194">
        <ele>1593</ele>
        <time>2017-01-18T10:14:33.030Z</time>
      </trkpt>
      <trkpt lat="42.97978" lon="-0.00194">
        <ele>1593</ele>
        <time>2017-01-18T10:14:34.030Z</time>
      </trkpt>
      <trkpt lat="42.97979" lon="-0.00195">
        <ele>1593</ele>
        <time>2017-01-18T10:14:35.030Z</time>
      </trkpt>
      <trkpt lat="42.97979" lon="-0.00195">
        <ele>1593</ele>
        <time>2017-01-18T10:14:36.030Z</time>
      </trkpt>
      <trkpt lat="42.9798" lon="-0.00195">
        <ele>1594</ele>
        <time>2017-01-18T10:14:37.030Z</time>
      </trkpt>
      <trkpt lat="42.9798" lon="-0.00195">
        <ele>1594</ele>
        <time>2017-01-18T10:14:38.030Z</time>
      </trkpt>
      <trkpt lat="42.97981" lon="-0.00195">
        <ele>1594</ele>
        <time>2017-01-18T10:14:39.030Z</time>
      </trkpt>
      <trkpt lat="42.97982" lon="-0.00195">
        <ele>1594</ele>
        <time>2017-01-18T10:14:40.030Z</time>
      </trkpt>
      <trkpt lat="42.97982" lon="-0.00194">
        <ele>1594</ele>
        <time>2017-01-18T10:14:41.030Z</time>
      </trkpt>
      <trkpt lat="42.97983" lon="-0.00194">
        <ele>1594</ele>
        <time>2017-01-18T10:14:42.030Z</time>
      </trkpt>
      <trkpt lat="42.97984" lon="-0.00194">
        <ele>1594</ele>
        <time>2017-01-18T10:14:43.030Z</time>
      </trkpt>
      <trkpt lat="42.97984" lon="-0.00194">
        <ele>1593</ele>
        <time>2017-01-18T10:14:44.030Z</time>
      </trkpt>
      <trkpt lat="42.97985" lon="-0.00194">
        <ele>1594</ele>
        <time>2017-01-18T10:14:45.030Z</time>
      </trkpt>
      <trkpt lat="42.97985" lon="-0.00194">
        <ele>1594</ele>
        <time>2017-01-18T10:14:46.030Z</time>
      </trkpt>
      <trkpt lat="42.97986" lon="-0.00194">
        <ele>1594</ele>
        <time>2017-01-18T10:14:47.030Z</time>
      </trkpt>
      <trkpt lat="42.97986" lon="-0.00194">
        <ele>1594</ele>
        <time>2017-01-18T10:14:48.030Z</time>
      </trkpt>
      <trkpt lat="42.97987" lon="-0.00194">
        <ele>1594</ele>
        <time>2017-01-18T10:14:49.030Z</time>
      </trkpt>
      <trkpt lat="42.97988" lon="-0.00194">
        <ele>1594</ele>
        <time>2017-01-18T10:14:50.030Z</time>
      </trkpt>
      <trkpt lat="42.97988" lon="-0.00194">
        <ele>1594</ele>
        <time>2017-01-18T10:14:51.030Z</time>
      </trkpt>
      <trkpt lat="42.97989" lon="-0.00194">
        <ele>1594</ele>
        <time>2017-01-18T10:14:52.030Z</time>
      </trkpt>
      <trkpt lat="42.9799" lon="-0.00194">
        <ele>1594</ele>
        <time>2017-01-18T10:14:53.030Z</time>
      </trkpt>
      <trkpt lat="42.9799" lon="-0.00194">
        <ele>1594</ele>
        <time>2017-01-18T10:14:54.030Z</time>
      </trkpt>
      <trkpt lat="42.97991" lon="-0.00194">
        <ele>1594</ele>
        <time>2017-01-18T10:14:55.030Z</time>
      </trkpt>
      <trkpt lat="42.97991" lon="-0.00194">
        <ele>1594</ele>
        <time>2017-01-18T10:14:56.030Z</time>
      </trkpt>
      <trkpt lat="42.97992" lon="-0.00194">
        <ele>1594</ele>
        <time>2017-01-18T10:14:57.030Z</time>
      </trkpt>
      <trkpt lat="42.97993" lon="-0.00194">
        <ele>1594</ele>
        <time>2017-01-18T10:14:58.030Z</time>
      </trkpt>
      <trkpt lat="42.97994" lon="-0.00194">
        <ele>1595</ele>
        <time>2017-01-18T10:14:59.030Z</time>
      </trkpt>
      <trkpt lat="42.97994" lon="-0.00194">
        <ele>1595</ele>
        <time>2017-01-18T10:15:00.030Z</time>
      </trkpt>
      <trkpt lat="42.97995" lon="-0.00194">
        <ele>1595</ele>
        <time>2017-01-18T10:15:01.030Z</time>
      </trkpt>
      <trkpt lat="42.97995" lon="-0.00194">
        <ele>1594</ele>
        <time>2017-01-18T10:15:02.030Z</time>
      </trkpt>
      <trkpt lat="42.97995" lon="-0.00194">
        <ele>1594</ele>
        <time>2017-01-18T10:15:03.030Z</time>
      </trkpt>
      <trkpt lat="42.97995" lon="-0.00194">
        <ele>1594</ele>
        <time>2017-01-18T10:15:04.030Z</time>
      </trkpt>
      <trkpt lat="42.97995" lon="-0.00194">
        <ele>1595</ele>
        <time>2017-01-18T10:15:05.030Z</time>
      </trkpt>
      <trkpt lat="42.97996" lon="-0.00194">
        <ele>1595</ele>
        <time>2017-01-18T10:15:06.030Z</time>
      </trkpt>
      <trkpt lat="42.97996" lon="-0.00194">
        <ele>1595</ele>
        <time>2017-01-18T10:15:07.030Z</time>
      </trkpt>
      <trkpt lat="42.97996" lon="-0.00194">
        <ele>1594</ele>
        <time>2017-01-18T10:15:08.030Z</time>
      </trkpt>
      <trkpt lat="42.97996" lon="-0.00194">
        <ele>1594</ele>
        <time>2017-01-18T10:15:09.030Z</time>
      </trkpt>
      <trkpt lat="42.97996" lon="-0.00194">
        <ele>1595</ele>
        <time>2017-01-18T10:15:10.030Z</time>
      </trkpt>
      <trkpt lat="42.97996" lon="-0.00194">
        <ele>1593</ele>
        <time>2017-01-18T10:15:11.038Z</time>
      </trkpt>
      <trkpt lat="42.97997" lon="-0.00195">
        <ele>1594</ele>
        <time>2017-01-18T10:15:12.038Z</time>
      </trkpt>
      <trkpt lat="42.97997" lon="-0.00195">
        <ele>1594</ele>
        <time>2017-01-18T10:15:13.038Z</time>
      </trkpt>
      <trkpt lat="42.97997" lon="-0.00195">
        <ele>1595</ele>
        <time>2017-01-18T10:15:14.038Z</time>
      </trkpt>
      <trkpt lat="42.97997" lon="-0.00195">
        <ele>1595</ele>
        <time>2017-01-18T10:15:15.038Z</time>
      </trkpt>
      <trkpt lat="42.97998" lon="-0.00195">
        <ele>1595</ele>
        <time>2017-01-18T10:15:16.038Z</time>
      </trkpt>
      <trkpt lat="42.97998" lon="-0.00195">
        <ele>1595</ele>
        <time>2017-01-18T10:15:17.038Z</time>
      </trkpt>
      <trkpt lat="42.97999" lon="-0.00195">
        <ele>1595</ele>
        <time>2017-01-18T10:15:18.038Z</time>
      </trkpt>
      <trkpt lat="42.97999" lon="-0.00195">
        <ele>1595</ele>
        <time>2017-01-18T10:15:19.038Z</time>
      </trkpt>
      <trkpt lat="42.98" lon="-0.00195">
        <ele>1596</ele>
        <time>2017-01-18T10:15:20.038Z</time>
      </trkpt>
      <trkpt lat="42.98" lon="-0.00195">
        <ele>1596</ele>
        <time>2017-01-18T10:15:21.038Z</time>
      </trkpt>
      <trkpt lat="42.98001" lon="-0.00195">
        <ele>1596</ele>
        <time>2017-01-18T10:15:22.038Z</time>
      </trkpt>
      <trkpt lat="42.98001" lon="-0.00195">
        <ele>1596</ele>
        <time>2017-01-18T10:15:23.038Z</time>
      </trkpt>
      <trkpt lat="42.98002" lon="-0.00195">
        <ele>1596</ele>
        <time>2017-01-18T10:15:24.038Z</time>
      </trkpt>
      <trkpt lat="42.98002" lon="-0.00195">
        <ele>1596</ele>
        <time>2017-01-18T10:15:25.038Z</time>
      </trkpt>
      <trkpt lat="42.98003" lon="-0.00195">
        <ele>1596</ele>
        <time>2017-01-18T10:15:26.038Z</time>
      </trkpt>
      <trkpt lat="42.98003" lon="-0.00195">
        <ele>1596</ele>
        <time>2017-01-18T10:15:27.038Z</time>
      </trkpt>
      <trkpt lat="42.98004" lon="-0.00195">
        <ele>1596</ele>
        <time>2017-01-18T10:15:28.038Z</time>
      </trkpt>
      <trkpt lat="42.98004" lon="-0.00195">
        <ele>1597</ele>
        <time>2017-01-18T10:15:29.038Z</time>
      </trkpt>
      <trkpt lat="42.98005" lon="-0.00195">
        <ele>1597</ele>
        <time>2017-01-18T10:15:30.038Z</time>
      </trkpt>
      <trkpt lat="42.98006" lon="-0.00195">
        <ele>1597</ele>
        <time>2017-01-18T10:15:31.038Z</time>
      </trkpt>
      <trkpt lat="42.98006" lon="-0.00195">
        <ele>1597</ele>
        <time>2017-01-18T10:15:32.038Z</time>
      </trkpt>
      <trkpt lat="42.98007" lon="-0.00195">
        <ele>1597</ele>
        <time>2017-01-18T10:15:33.038Z</time>
      </trkpt>
      <trkpt lat="42.98007" lon="-0.00195">
        <ele>1597</ele>
        <time>2017-01-18T10:15:34.038Z</time>
      </trkpt>
      <trkpt lat="42.98008" lon="-0.00195">
        <ele>1597</ele>
        <time>2017-01-18T10:15:35.038Z</time>
      </trkpt>
      <trkpt lat="42.98008" lon="-0.00195">
        <ele>1597</ele>
        <time>2017-01-18T10:15:36.038Z</time>
      </trkpt>
      <trkpt lat="42.98009" lon="-0.00195">
        <ele>1597</ele>
        <time>2017-01-18T10:15:37.038Z</time>
      </trkpt>
      <trkpt lat="42.9801" lon="-0.00195">
        <ele>1597</ele>
        <time>2017-01-18T10:15:38.038Z</time>
      </trkpt>
      <trkpt lat="42.9801" lon="-0.00195">
        <ele>1597</ele>
        <time>2017-01-18T10:15:39.038Z</time>
      </trkpt>
      <trkpt lat="42.98011" lon="-0.00195">
        <ele>1597</ele>
        <time>2017-01-18T10:15:40.038Z</time>
      </trkpt>
      <trkpt lat="42.98011" lon="-0.00195">
        <ele>1597</ele>
        <time>2017-01-18T10:15:41.038Z</time>
      </trkpt>
      <trkpt lat="42.98012" lon="-0.00195">
        <ele>1597</ele>
        <time>2017-01-18T10:15:42.038Z</time>
      </trkpt>
      <trkpt lat="42.98013" lon="-0.00195">
        <ele>1597</ele>
        <time>2017-01-18T10:15:43.038Z</time>
      </trkpt>
      <trkpt lat="42.98013" lon="-0.00195">
        <ele>1597</ele>
        <time>2017-01-18T10:15:44.038Z</time>
      </trkpt>
      <trkpt lat="42.98014" lon="-0.00195">
        <ele>1597</ele>
        <time>2017-01-18T10:15:45.038Z</time>
      </trkpt>
      <trkpt lat="42.98014" lon="-0.00195">
        <ele>1597</ele>
        <time>2017-01-18T10:15:46.038Z</time>
      </trkpt>
      <trkpt lat="42.98015" lon="-0.00195">
        <ele>1597</ele>
        <time>2017-01-18T10:15:47.038Z</time>
      </trkpt>
      <trkpt lat="42.98015" lon="-0.00195">
        <ele>1597</ele>
        <time>2017-01-18T10:15:48.038Z</time>
      </trkpt>
      <trkpt lat="42.98016" lon="-0.00195">
        <ele>1597</ele>
        <time>2017-01-18T10:15:49.038Z</time>
      </trkpt>
      <trkpt lat="42.98016" lon="-0.00195">
        <ele>1597</ele>
        <time>2017-01-18T10:15:50.038Z</time>
      </trkpt>
      <trkpt lat="42.98017" lon="-0.00195">
        <ele>1597</ele>
        <time>2017-01-18T10:15:51.038Z</time>
      </trkpt>
      <trkpt lat="42.98017" lon="-0.00195">
        <ele>1597</ele>
        <time>2017-01-18T10:15:52.038Z</time>
      </trkpt>
      <trkpt lat="42.98018" lon="-0.00195">
        <ele>1597</ele>
        <time>2017-01-18T10:15:53.038Z</time>
      </trkpt>
      <trkpt lat="42.98019" lon="-0.00195">
        <ele>1597</ele>
        <time>2017-01-18T10:15:54.038Z</time>
      </trkpt>
      <trkpt lat="42.98019" lon="-0.00195">
        <ele>1597</ele>
        <time>2017-01-18T10:15:55.038Z</time>
      </trkpt>
      <trkpt lat="42.9802" lon="-0.00195">
        <ele>1597</ele>
        <time>2017-01-18T10:15:56.038Z</time>
      </trkpt>
      <trkpt lat="42.9802" lon="-0.00195">
        <ele>1597</ele>
        <time>2017-01-18T10:15:57.038Z</time>
      </trkpt>
      <trkpt lat="42.98021" lon="-0.00195">
        <ele>1597</ele>
        <time>2017-01-18T10:15:58.038Z</time>
      </trkpt>
      <trkpt lat="42.98021" lon="-0.00196">
        <ele>1597</ele>
        <time>2017-01-18T10:15:59.038Z</time>
      </trkpt>
      <trkpt lat="42.98022" lon="-0.00196">
        <ele>1597</ele>
        <time>2017-01-18T10:16:00.038Z</time>
      </trkpt>
      <trkpt lat="42.98022" lon="-0.00196">
        <ele>1597</ele>
        <time>2017-01-18T10:16:01.038Z</time>
      </trkpt>
      <trkpt lat="42.98023" lon="-0.00196">
        <ele>1597</ele>
        <time>2017-01-18T10:16:02.038Z</time>
      </trkpt>
      <trkpt lat="42.98024" lon="-0.00196">
        <ele>1597</ele>
        <time>2017-01-18T10:16:03.038Z</time>
      </trkpt>
      <trkpt lat="42.98024" lon="-0.00196">
        <ele>1597</ele>
        <time>2017-01-18T10:16:04.038Z</time>
      </trkpt>
      <trkpt lat="42.98025" lon="-0.00196">
        <ele>1597</ele>
        <time>2017-01-18T10:16:05.038Z</time>
      </trkpt>
      <trkpt lat="42.98026" lon="-0.00196">
        <ele>1597</ele>
        <time>2017-01-18T10:16:06.038Z</time>
      </trkpt>
      <trkpt lat="42.98026" lon="-0.00197">
        <ele>1597</ele>
        <time>2017-01-18T10:16:07.038Z</time>
      </trkpt>
      <trkpt lat="42.98027" lon="-0.00197">
        <ele>1597</ele>
        <time>2017-01-18T10:16:08.038Z</time>
      </trkpt>
      <trkpt lat="42.98027" lon="-0.00197">
        <ele>1597</ele>
        <time>2017-01-18T10:16:09.038Z</time>
      </trkpt>
      <trkpt lat="42.98028" lon="-0.00197">
        <ele>1597</ele>
        <time>2017-01-18T10:16:10.038Z</time>
      </trkpt>
      <trkpt lat="42.98029" lon="-0.00197">
        <ele>1597</ele>
        <time>2017-01-18T10:16:11.038Z</time>
      </trkpt>
      <trkpt lat="42.98029" lon="-0.00198">
        <ele>1598</ele>
        <time>2017-01-18T10:16:12.038Z</time>
      </trkpt>
      <trkpt lat="42.9803" lon="-0.00198">
        <ele>1598</ele>
        <time>2017-01-18T10:16:13.038Z</time>
      </trkpt>
      <trkpt lat="42.9803" lon="-0.00198">
        <ele>1598</ele>
        <time>2017-01-18T10:16:14.038Z</time>
      </trkpt>
      <trkpt lat="42.98031" lon="-0.00198">
        <ele>1598</ele>
        <time>2017-01-18T10:16:15.038Z</time>
      </trkpt>
      <trkpt lat="42.98032" lon="-0.00198">
        <ele>1598</ele>
        <time>2017-01-18T10:16:16.038Z</time>
      </trkpt>
      <trkpt lat="42.98032" lon="-0.00198">
        <ele>1598</ele>
        <time>2017-01-18T10:16:17.038Z</time>
      </trkpt>
      <trkpt lat="42.98033" lon="-0.00198">
        <ele>1597</ele>
        <time>2017-01-18T10:16:18.038Z</time>
      </trkpt>
      <trkpt lat="42.98033" lon="-0.00198">
        <ele>1597</ele>
        <time>2017-01-18T10:16:19.038Z</time>
      </trkpt>
      <trkpt lat="42.98034" lon="-0.00198">
        <ele>1597</ele>
        <time>2017-01-18T10:16:20.038Z</time>
      </trkpt>
      <trkpt lat="42.98035" lon="-0.00198">
        <ele>1597</ele>
        <time>2017-01-18T10:16:21.038Z</time>
      </trkpt>
      <trkpt lat="42.98035" lon="-0.00198">
        <ele>1597</ele>
        <time>2017-01-18T10:16:22.038Z</time>
      </trkpt>
      <trkpt lat="42.98036" lon="-0.00198">
        <ele>1597</ele>
        <time>2017-01-18T10:16:23.038Z</time>
      </trkpt>
      <trkpt lat="42.98037" lon="-0.00198">
        <ele>1597</ele>
        <time>2017-01-18T10:16:24.038Z</time>
      </trkpt>
      <trkpt lat="42.98037" lon="-0.00198">
        <ele>1597</ele>
        <time>2017-01-18T10:16:25.038Z</time>
      </trkpt>
      <trkpt lat="42.98038" lon="-0.00198">
        <ele>1597</ele>
        <time>2017-01-18T10:16:26.038Z</time>
      </trkpt>
      <trkpt lat="42.98038" lon="-0.00198">
        <ele>1597</ele>
        <time>2017-01-18T10:16:27.038Z</time>
      </trkpt>
      <trkpt lat="42.98039" lon="-0.00199">
        <ele>1597</ele>
        <time>2017-01-18T10:16:28.038Z</time>
      </trkpt>
      <trkpt lat="42.98039" lon="-0.00199">
        <ele>1597</ele>
        <time>2017-01-18T10:16:29.038Z</time>
      </trkpt>
      <trkpt lat="42.9804" lon="-0.00199">
        <ele>1597</ele>
        <time>2017-01-18T10:16:30.038Z</time>
      </trkpt>
      <trkpt lat="42.98041" lon="-0.00199">
        <ele>1597</ele>
        <time>2017-01-18T10:16:31.038Z</time>
      </trkpt>
      <trkpt lat="42.98041" lon="-0.00199">
        <ele>1597</ele>
        <time>2017-01-18T10:16:32.038Z</time>
      </trkpt>
      <trkpt lat="42.98042" lon="-0.00199">
        <ele>1597</ele>
        <time>2017-01-18T10:16:33.038Z</time>
      </trkpt>
      <trkpt lat="42.98042" lon="-0.00199">
        <ele>1597</ele>
        <time>2017-01-18T10:16:34.038Z</time>
      </trkpt>
      <trkpt lat="42.98043" lon="-0.002">
        <ele>1597</ele>
        <time>2017-01-18T10:16:35.038Z</time>
      </trkpt>
      <trkpt lat="42.98043" lon="-0.002">
        <ele>1598</ele>
        <time>2017-01-18T10:16:36.038Z</time>
      </trkpt>
      <trkpt lat="42.98044" lon="-0.002">
        <ele>1598</ele>
        <time>2017-01-18T10:16:37.038Z</time>
      </trkpt>
      <trkpt lat="42.98044" lon="-0.002">
        <ele>1598</ele>
        <time>2017-01-18T10:16:38.038Z</time>
      </trkpt>
      <trkpt lat="42.98043" lon="-0.00199">
        <ele>1598</ele>
        <time>2017-01-18T10:16:39.038Z</time>
      </trkpt>
      <trkpt lat="42.98044" lon="-0.00199">
        <ele>1598</ele>
        <time>2017-01-18T10:16:40.038Z</time>
      </trkpt>
      <trkpt lat="42.98044" lon="-0.00199">
        <ele>1598</ele>
        <time>2017-01-18T10:16:41.038Z</time>
      </trkpt>
      <trkpt lat="42.98044" lon="-0.00199">
        <ele>1598</ele>
        <time>2017-01-18T10:16:42.038Z</time>
      </trkpt>
      <trkpt lat="42.98044" lon="-0.00199">
        <ele>1597</ele>
        <time>2017-01-18T10:16:43.038Z</time>
      </trkpt>
      <trkpt lat="42.98044" lon="-0.00199">
        <ele>1597</ele>
        <time>2017-01-18T10:16:44.038Z</time>
      </trkpt>
      <trkpt lat="42.98044" lon="-0.00199">
        <ele>1597</ele>
        <time>2017-01-18T10:16:45.038Z</time>
      </trkpt>
      <trkpt lat="42.98045" lon="-0.00199">
        <ele>1597</ele>
        <time>2017-01-18T10:16:46.038Z</time>
      </trkpt>
      <trkpt lat="42.98046" lon="-0.00198">
        <ele>1597</ele>
        <time>2017-01-18T10:16:47.054Z</time>
      </trkpt>
      <trkpt lat="42.98046" lon="-0.00198">
        <ele>1597</ele>
        <time>2017-01-18T10:16:48.054Z</time>
      </trkpt>
      <trkpt lat="42.98047" lon="-0.00198">
        <ele>1596</ele>
        <time>2017-01-18T10:16:49.054Z</time>
      </trkpt>
      <trkpt lat="42.98047" lon="-0.00198">
        <ele>1597</ele>
        <time>2017-01-18T10:16:50.054Z</time>
      </trkpt>
      <trkpt lat="42.98048" lon="-0.00198">
        <ele>1597</ele>
        <time>2017-01-18T10:16:51.054Z</time>
      </trkpt>
      <trkpt lat="42.98049" lon="-0.00198">
        <ele>1597</ele>
        <time>2017-01-18T10:16:52.054Z</time>
      </trkpt>
      <trkpt lat="42.98049" lon="-0.00198">
        <ele>1597</ele>
        <time>2017-01-18T10:16:53.054Z</time>
      </trkpt>
      <trkpt lat="42.9805" lon="-0.00198">
        <ele>1597</ele>
        <time>2017-01-18T10:16:54.054Z</time>
      </trkpt>
      <trkpt lat="42.9805" lon="-0.00198">
        <ele>1597</ele>
        <time>2017-01-18T10:16:55.054Z</time>
      </trkpt>
      <trkpt lat="42.98051" lon="-0.00199">
        <ele>1597</ele>
        <time>2017-01-18T10:16:56.054Z</time>
      </trkpt>
      <trkpt lat="42.98051" lon="-0.00199">
        <ele>1597</ele>
        <time>2017-01-18T10:16:57.054Z</time>
      </trkpt>
      <trkpt lat="42.98052" lon="-0.00199">
        <ele>1597</ele>
        <time>2017-01-18T10:16:58.054Z</time>
      </trkpt>
      <trkpt lat="42.98053" lon="-0.00199">
        <ele>1597</ele>
        <time>2017-01-18T10:16:59.054Z</time>
      </trkpt>
      <trkpt lat="42.98053" lon="-0.00199">
        <ele>1597</ele>
        <time>2017-01-18T10:17:00.054Z</time>
      </trkpt>
      <trkpt lat="42.98054" lon="-0.00199">
        <ele>1597</ele>
        <time>2017-01-18T10:17:01.054Z</time>
      </trkpt>
      <trkpt lat="42.98055" lon="-0.00199">
        <ele>1597</ele>
        <time>2017-01-18T10:17:02.054Z</time>
      </trkpt>
      <trkpt lat="42.98055" lon="-0.00199">
        <ele>1597</ele>
        <time>2017-01-18T10:17:03.054Z</time>
      </trkpt>
      <trkpt lat="42.98056" lon="-0.00199">
        <ele>1598</ele>
        <time>2017-01-18T10:17:04.054Z</time>
      </trkpt>
      <trkpt lat="42.98057" lon="-0.002">
        <ele>1598</ele>
        <time>2017-01-18T10:17:05.054Z</time>
      </trkpt>
      <trkpt lat="42.98057" lon="-0.002">
        <ele>1598</ele>
        <time>2017-01-18T10:17:06.054Z</time>
      </trkpt>
      <trkpt lat="42.98058" lon="-0.00199">
        <ele>1598</ele>
        <time>2017-01-18T10:17:07.054Z</time>
      </trkpt>
      <trkpt lat="42.98058" lon="-0.00199">
        <ele>1598</ele>
        <time>2017-01-18T10:17:08.054Z</time>
      </trkpt>
      <trkpt lat="42.98059" lon="-0.00199">
        <ele>1598</ele>
        <time>2017-01-18T10:17:09.054Z</time>
      </trkpt>
      <trkpt lat="42.9806" lon="-0.00199">
        <ele>1598</ele>
        <time>2017-01-18T10:17:10.054Z</time>
      </trkpt>
      <trkpt lat="42.9806" lon="-0.00199">
        <ele>1598</ele>
        <time>2017-01-18T10:17:11.054Z</time>
      </trkpt>
      <trkpt lat="42.98061" lon="-0.002">
        <ele>1598</ele>
        <time>2017-01-18T10:17:12.054Z</time>
      </trkpt>
      <trkpt lat="42.98062" lon="-0.002">
        <ele>1598</ele>
        <time>2017-01-18T10:17:13.054Z</time>
      </trkpt>
      <trkpt lat="42.98062" lon="-0.002">
        <ele>1598</ele>
        <time>2017-01-18T10:17:14.054Z</time>
      </trkpt>
      <trkpt lat="42.98063" lon="-0.002">
        <ele>1598</ele>
        <time>2017-01-18T10:17:15.054Z</time>
      </trkpt>
      <trkpt lat="42.98064" lon="-0.002">
        <ele>1598</ele>
        <time>2017-01-18T10:17:16.054Z</time>
      </trkpt>
      <trkpt lat="42.98065" lon="-0.002">
        <ele>1598</ele>
        <time>2017-01-18T10:17:17.054Z</time>
      </trkpt>
      <trkpt lat="42.98065" lon="-0.002">
        <ele>1598</ele>
        <time>2017-01-18T10:17:18.054Z</time>
      </trkpt>
      <trkpt lat="42.98066" lon="-0.002">
        <ele>1598</ele>
        <time>2017-01-18T10:17:19.054Z</time>
      </trkpt>
      <trkpt lat="42.98067" lon="-0.002">
        <ele>1599</ele>
        <time>2017-01-18T10:17:20.054Z</time>
      </trkpt>
      <trkpt lat="42.98067" lon="-0.002">
        <ele>1599</ele>
        <time>2017-01-18T10:17:21.054Z</time>
      </trkpt>
      <trkpt lat="42.98068" lon="-0.002">
        <ele>1599</ele>
        <time>2017-01-18T10:17:22.054Z</time>
      </trkpt>
      <trkpt lat="42.98068" lon="-0.002">
        <ele>1599</ele>
        <time>2017-01-18T10:17:23.054Z</time>
      </trkpt>
      <trkpt lat="42.98069" lon="-0.002">
        <ele>1599</ele>
        <time>2017-01-18T10:17:24.054Z</time>
      </trkpt>
      <trkpt lat="42.9807" lon="-0.002">
        <ele>1599</ele>
        <time>2017-01-18T10:17:25.054Z</time>
      </trkpt>
      <trkpt lat="42.9807" lon="-0.002">
        <ele>1599</ele>
        <time>2017-01-18T10:17:26.054Z</time>
      </trkpt>
      <trkpt lat="42.98071" lon="-0.002">
        <ele>1599</ele>
        <time>2017-01-18T10:17:27.054Z</time>
      </trkpt>
      <trkpt lat="42.98072" lon="-0.002">
        <ele>1599</ele>
        <time>2017-01-18T10:17:28.054Z</time>
      </trkpt>
      <trkpt lat="42.98072" lon="-0.002">
        <ele>1599</ele>
        <time>2017-01-18T10:17:29.054Z</time>
      </trkpt>
      <trkpt lat="42.98073" lon="-0.002">
        <ele>1599</ele>
        <time>2017-01-18T10:17:30.054Z</time>
      </trkpt>
      <trkpt lat="42.98074" lon="-0.002">
        <ele>1599</ele>
        <time>2017-01-18T10:17:31.054Z</time>
      </trkpt>
      <trkpt lat="42.98074" lon="-0.002">
        <ele>1599</ele>
        <time>2017-01-18T10:17:32.054Z</time>
      </trkpt>
      <trkpt lat="42.98075" lon="-0.002">
        <ele>1599</ele>
        <time>2017-01-18T10:17:33.054Z</time>
      </trkpt>
      <trkpt lat="42.98076" lon="-0.002">
        <ele>1599</ele>
        <time>2017-01-18T10:17:34.054Z</time>
      </trkpt>
      <trkpt lat="42.98076" lon="-0.00199">
        <ele>1599</ele>
        <time>2017-01-18T10:17:35.054Z</time>
      </trkpt>
      <trkpt lat="42.98077" lon="-0.00199">
        <ele>1599</ele>
        <time>2017-01-18T10:17:36.054Z</time>
      </trkpt>
      <trkpt lat="42.98078" lon="-0.00199">
        <ele>1599</ele>
        <time>2017-01-18T10:17:37.054Z</time>
      </trkpt>
      <trkpt lat="42.98078" lon="-0.00199">
        <ele>1599</ele>
        <time>2017-01-18T10:17:38.054Z</time>
      </trkpt>
      <trkpt lat="42.98079" lon="-0.00199">
        <ele>1599</ele>
        <time>2017-01-18T10:17:39.054Z</time>
      </trkpt>
      <trkpt lat="42.9808" lon="-0.00199">
        <ele>1600</ele>
        <time>2017-01-18T10:17:40.054Z</time>
      </trkpt>
      <trkpt lat="42.9808" lon="-0.00199">
        <ele>1600</ele>
        <time>2017-01-18T10:17:41.054Z</time>
      </trkpt>
      <trkpt lat="42.98081" lon="-0.00199">
        <ele>1600</ele>
        <time>2017-01-18T10:17:42.054Z</time>
      </trkpt>
      <trkpt lat="42.98082" lon="-0.00199">
        <ele>1600</ele>
        <time>2017-01-18T10:17:43.054Z</time>
      </trkpt>
      <trkpt lat="42.98082" lon="-0.00199">
        <ele>1600</ele>
        <time>2017-01-18T10:17:44.054Z</time>
      </trkpt>
      <trkpt lat="42.98083" lon="-0.00199">
        <ele>1600</ele>
        <time>2017-01-18T10:17:45.054Z</time>
      </trkpt>
      <trkpt lat="42.98084" lon="-0.00199">
        <ele>1600</ele>
        <time>2017-01-18T10:17:46.054Z</time>
      </trkpt>
      <trkpt lat="42.98084" lon="-0.00199">
        <ele>1600</ele>
        <time>2017-01-18T10:17:47.054Z</time>
      </trkpt>
      <trkpt lat="42.98085" lon="-0.00199">
        <ele>1600</ele>
        <time>2017-01-18T10:17:48.054Z</time>
      </trkpt>
      <trkpt lat="42.98086" lon="-0.00199">
        <ele>1600</ele>
        <time>2017-01-18T10:17:49.054Z</time>
      </trkpt>
      <trkpt lat="42.98086" lon="-0.00199">
        <ele>1600</ele>
        <time>2017-01-18T10:17:50.054Z</time>
      </trkpt>
      <trkpt lat="42.98087" lon="-0.00198">
        <ele>1600</ele>
        <time>2017-01-18T10:17:51.054Z</time>
      </trkpt>
      <trkpt lat="42.98088" lon="-0.00198">
        <ele>1600</ele>
        <time>2017-01-18T10:17:52.054Z</time>
      </trkpt>
      <trkpt lat="42.98088" lon="-0.00198">
        <ele>1600</ele>
        <time>2017-01-18T10:17:53.054Z</time>
      </trkpt>
      <trkpt lat="42.98089" lon="-0.00198">
        <ele>1600</ele>
        <time>2017-01-18T10:17:54.054Z</time>
      </trkpt>
      <trkpt lat="42.9809" lon="-0.00198">
        <ele>1600</ele>
        <time>2017-01-18T10:17:55.054Z</time>
      </trkpt>
      <trkpt lat="42.9809" lon="-0.00198">
        <ele>1600</ele>
        <time>2017-01-18T10:17:56.054Z</time>
      </trkpt>
      <trkpt lat="42.98091" lon="-0.00198">
        <ele>1600</ele>
        <time>2017-01-18T10:17:57.054Z</time>
      </trkpt>
      <trkpt lat="42.98092" lon="-0.00198">
        <ele>1600</ele>
        <time>2017-01-18T10:17:58.054Z</time>
      </trkpt>
      <trkpt lat="42.98092" lon="-0.00198">
        <ele>1600</ele>
        <time>2017-01-18T10:17:59.054Z</time>
      </trkpt>
      <trkpt lat="42.98093" lon="-0.00198">
        <ele>1600</ele>
        <time>2017-01-18T10:18:00.054Z</time>
      </trkpt>
      <trkpt lat="42.98094" lon="-0.00198">
        <ele>1600</ele>
        <time>2017-01-18T10:18:01.054Z</time>
      </trkpt>
      <trkpt lat="42.98094" lon="-0.00198">
        <ele>1600</ele>
        <time>2017-01-18T10:18:02.054Z</time>
      </trkpt>
      <trkpt lat="42.98095" lon="-0.00198">
        <ele>1600</ele>
        <time>2017-01-18T10:18:03.054Z</time>
      </trkpt>
      <trkpt lat="42.98096" lon="-0.00198">
        <ele>1600</ele>
        <time>2017-01-18T10:18:04.054Z</time>
      </trkpt>
      <trkpt lat="42.98097" lon="-0.00197">
        <ele>1600</ele>
        <time>2017-01-18T10:18:05.054Z</time>
      </trkpt>
      <trkpt lat="42.98097" lon="-0.00197">
        <ele>1601</ele>
        <time>2017-01-18T10:18:06.054Z</time>
      </trkpt>
      <trkpt lat="42.98098" lon="-0.00197">
        <ele>1601</ele>
        <time>2017-01-18T10:18:07.054Z</time>
      </trkpt>
      <trkpt lat="42.98099" lon="-0.00197">
        <ele>1601</ele>
        <time>2017-01-18T10:18:08.054Z</time>
      </trkpt>
      <trkpt lat="42.981" lon="-0.00197">
        <ele>1601</ele>
        <time>2017-01-18T10:18:09.054Z</time>
      </trkpt>
      <trkpt lat="42.981" lon="-0.00197">
        <ele>1601</ele>
        <time>2017-01-18T10:18:10.054Z</time>
      </trkpt>
      <trkpt lat="42.98101" lon="-0.00197">
        <ele>1601</ele>
        <time>2017-01-18T10:18:11.054Z</time>
      </trkpt>
      <trkpt lat="42.98101" lon="-0.00197">
        <ele>1601</ele>
        <time>2017-01-18T10:18:12.054Z</time>
      </trkpt>
      <trkpt lat="42.98102" lon="-0.00196">
        <ele>1601</ele>
        <time>2017-01-18T10:18:13.054Z</time>
      </trkpt>
      <trkpt lat="42.98102" lon="-0.00196">
        <ele>1602</ele>
        <time>2017-01-18T10:18:14.054Z</time>
      </trkpt>
      <trkpt lat="42.98103" lon="-0.00196">
        <ele>1602</ele>
        <time>2017-01-18T10:18:15.054Z</time>
      </trkpt>
      <trkpt lat="42.98103" lon="-0.00196">
        <ele>1602</ele>
        <time>2017-01-18T10:18:16.054Z</time>
      </trkpt>
      <trkpt lat="42.98104" lon="-0.00196">
        <ele>1601</ele>
        <time>2017-01-18T10:18:17.054Z</time>
      </trkpt>
      <trkpt lat="42.98104" lon="-0.00196">
        <ele>1602</ele>
        <time>2017-01-18T10:18:18.054Z</time>
      </trkpt>
      <trkpt lat="42.98105" lon="-0.00196">
        <ele>1602</ele>
        <time>2017-01-18T10:18:19.054Z</time>
      </trkpt>
      <trkpt lat="42.98105" lon="-0.00196">
        <ele>1602</ele>
        <time>2017-01-18T10:18:20.054Z</time>
      </trkpt>
      <trkpt lat="42.98106" lon="-0.00195">
        <ele>1602</ele>
        <time>2017-01-18T10:18:21.054Z</time>
      </trkpt>
      <trkpt lat="42.98106" lon="-0.00195">
        <ele>1602</ele>
        <time>2017-01-18T10:18:22.054Z</time>
      </trkpt>
      <trkpt lat="42.98106" lon="-0.00195">
        <ele>1602</ele>
        <time>2017-01-18T10:18:23.054Z</time>
      </trkpt>
      <trkpt lat="42.98106" lon="-0.00195">
        <ele>1602</ele>
        <time>2017-01-18T10:18:24.054Z</time>
      </trkpt>
      <trkpt lat="42.98106" lon="-0.00195">
        <ele>1602</ele>
        <time>2017-01-18T10:18:25.054Z</time>
      </trkpt>
      <trkpt lat="42.98106" lon="-0.00195">
        <ele>1602</ele>
        <time>2017-01-18T10:18:26.054Z</time>
      </trkpt>
      <trkpt lat="42.98106" lon="-0.00196">
        <ele>1602</ele>
        <time>2017-01-18T10:18:27.054Z</time>
      </trkpt>
      <trkpt lat="42.98106" lon="-0.00196">
        <ele>1602</ele>
        <time>2017-01-18T10:18:28.054Z</time>
      </trkpt>
      <trkpt lat="42.98106" lon="-0.00196">
        <ele>1602</ele>
        <time>2017-01-18T10:18:29.054Z</time>
      </trkpt>
      <trkpt lat="42.98107" lon="-0.00196">
        <ele>1602</ele>
        <time>2017-01-18T10:18:30.054Z</time>
      </trkpt>
      <trkpt lat="42.98107" lon="-0.00196">
        <ele>1602</ele>
        <time>2017-01-18T10:18:31.054Z</time>
      </trkpt>
      <trkpt lat="42.98108" lon="-0.00196">
        <ele>1602</ele>
        <time>2017-01-18T10:18:32.054Z</time>
      </trkpt>
      <trkpt lat="42.98108" lon="-0.00196">
        <ele>1602</ele>
        <time>2017-01-18T10:18:33.054Z</time>
      </trkpt>
      <trkpt lat="42.98109" lon="-0.00195">
        <ele>1602</ele>
        <time>2017-01-18T10:18:34.054Z</time>
      </trkpt>
      <trkpt lat="42.9811" lon="-0.00195">
        <ele>1602</ele>
        <time>2017-01-18T10:18:35.054Z</time>
      </trkpt>
      <trkpt lat="42.9811" lon="-0.00195">
        <ele>1602</ele>
        <time>2017-01-18T10:18:36.054Z</time>
      </trkpt>
      <trkpt lat="42.98111" lon="-0.00195">
        <ele>1602</ele>
        <time>2017-01-18T10:18:37.054Z</time>
      </trkpt>
      <trkpt lat="42.98111" lon="-0.00195">
        <ele>1602</ele>
        <time>2017-01-18T10:18:38.054Z</time>
      </trkpt>
      <trkpt lat="42.98112" lon="-0.00195">
        <ele>1602</ele>
        <time>2017-01-18T10:18:39.054Z</time>
      </trkpt>
      <trkpt lat="42.98113" lon="-0.00195">
        <ele>1602</ele>
        <time>2017-01-18T10:18:40.054Z</time>
      </trkpt>
      <trkpt lat="42.98113" lon="-0.00195">
        <ele>1602</ele>
        <time>2017-01-18T10:18:41.054Z</time>
      </trkpt>
      <trkpt lat="42.98114" lon="-0.00195">
        <ele>1602</ele>
        <time>2017-01-18T10:18:42.054Z</time>
      </trkpt>
      <trkpt lat="42.98114" lon="-0.00195">
        <ele>1603</ele>
        <time>2017-01-18T10:18:43.054Z</time>
      </trkpt>
      <trkpt lat="42.98115" lon="-0.00195">
        <ele>1602</ele>
        <time>2017-01-18T10:18:44.054Z</time>
      </trkpt>
      <trkpt lat="42.98116" lon="-0.00195">
        <ele>1602</ele>
        <time>2017-01-18T10:18:45.054Z</time>
      </trkpt>
      <trkpt lat="42.98116" lon="-0.00195">
        <ele>1603</ele>
        <time>2017-01-18T10:18:46.054Z</time>
      </trkpt>
      <trkpt lat="42.98117" lon="-0.00195">
        <ele>1603</ele>
        <time>2017-01-18T10:18:47.054Z</time>
      </trkpt>
      <trkpt lat="42.98118" lon="-0.00195">
        <ele>1603</ele>
        <time>2017-01-18T10:18:48.054Z</time>
      </trkpt>
      <trkpt lat="42.98118" lon="-0.00195">
        <ele>1603</ele>
        <time>2017-01-18T10:18:49.054Z</time>
      </trkpt>
      <trkpt lat="42.98119" lon="-0.00195">
        <ele>1603</ele>
        <time>2017-01-18T10:18:50.054Z</time>
      </trkpt>
      <trkpt lat="42.98119" lon="-0.00196">
        <ele>1603</ele>
        <time>2017-01-18T10:18:51.054Z</time>
      </trkpt>
      <trkpt lat="42.9812" lon="-0.00196">
        <ele>1604</ele>
        <time>2017-01-18T10:18:52.054Z</time>
      </trkpt>
      <trkpt lat="42.9812" lon="-0.00196">
        <ele>1604</ele>
        <time>2017-01-18T10:18:53.054Z</time>
      </trkpt>
      <trkpt lat="42.98121" lon="-0.00196">
        <ele>1603</ele>
        <time>2017-01-18T10:18:54.054Z</time>
      </trkpt>
      <trkpt lat="42.98121" lon="-0.00196">
        <ele>1604</ele>
        <time>2017-01-18T10:18:55.054Z</time>
      </trkpt>
      <trkpt lat="42.98122" lon="-0.00197">
        <ele>1604</ele>
        <time>2017-01-18T10:18:56.054Z</time>
      </trkpt>
      <trkpt lat="42.98122" lon="-0.00197">
        <ele>1603</ele>
        <time>2017-01-18T10:18:57.054Z</time>
      </trkpt>
      <trkpt lat="42.98123" lon="-0.00197">
        <ele>1603</ele>
        <time>2017-01-18T10:18:58.054Z</time>
      </trkpt>
      <trkpt lat="42.98124" lon="-0.00197">
        <ele>1603</ele>
        <time>2017-01-18T10:18:59.054Z</time>
      </trkpt>
      <trkpt lat="42.98124" lon="-0.00197">
        <ele>1603</ele>
        <time>2017-01-18T10:19:00.054Z</time>
      </trkpt>
      <trkpt lat="42.98125" lon="-0.00198">
        <ele>1604</ele>
        <time>2017-01-18T10:19:01.054Z</time>
      </trkpt>
      <trkpt lat="42.98126" lon="-0.00198">
        <ele>1603</ele>
        <time>2017-01-18T10:19:02.054Z</time>
      </trkpt>
      <trkpt lat="42.98126" lon="-0.00198">
        <ele>1604</ele>
        <time>2017-01-18T10:19:03.054Z</time>
      </trkpt>
      <trkpt lat="42.98127" lon="-0.00198">
        <ele>1604</ele>
        <time>2017-01-18T10:19:04.054Z</time>
      </trkpt>
      <trkpt lat="42.98127" lon="-0.00199">
        <ele>1604</ele>
        <time>2017-01-18T10:19:05.054Z</time>
      </trkpt>
      <trkpt lat="42.98128" lon="-0.00199">
        <ele>1604</ele>
        <time>2017-01-18T10:19:06.054Z</time>
      </trkpt>
      <trkpt lat="42.98129" lon="-0.00199">
        <ele>1604</ele>
        <time>2017-01-18T10:19:07.054Z</time>
      </trkpt>
      <trkpt lat="42.98129" lon="-0.00199">
        <ele>1604</ele>
        <time>2017-01-18T10:19:08.054Z</time>
      </trkpt>
      <trkpt lat="42.9813" lon="-0.002">
        <ele>1604</ele>
        <time>2017-01-18T10:19:09.054Z</time>
      </trkpt>
      <trkpt lat="42.98131" lon="-0.002">
        <ele>1604</ele>
        <time>2017-01-18T10:19:10.054Z</time>
      </trkpt>
      <trkpt lat="42.98131" lon="-0.002">
        <ele>1604</ele>
        <time>2017-01-18T10:19:11.054Z</time>
      </trkpt>
      <trkpt lat="42.98132" lon="-0.00201">
        <ele>1604</ele>
        <time>2017-01-18T10:19:12.054Z</time>
      </trkpt>
      <trkpt lat="42.98132" lon="-0.00201">
        <ele>1604</ele>
        <time>2017-01-18T10:19:13.054Z</time>
      </trkpt>
      <trkpt lat="42.98133" lon="-0.00201">
        <ele>1604</ele>
        <time>2017-01-18T10:19:14.054Z</time>
      </trkpt>
      <trkpt lat="42.98134" lon="-0.00202">
        <ele>1604</ele>
        <time>2017-01-18T10:19:15.054Z</time>
      </trkpt>
      <trkpt lat="42.98134" lon="-0.00202">
        <ele>1604</ele>
        <time>2017-01-18T10:19:16.054Z</time>
      </trkpt>
      <trkpt lat="42.98135" lon="-0.00202">
        <ele>1604</ele>
        <time>2017-01-18T10:19:17.054Z</time>
      </trkpt>
      <trkpt lat="42.98136" lon="-0.00202">
        <ele>1604</ele>
        <time>2017-01-18T10:19:18.054Z</time>
      </trkpt>
      <trkpt lat="42.98136" lon="-0.00203">
        <ele>1604</ele>
        <time>2017-01-18T10:19:19.054Z</time>
      </trkpt>
      <trkpt lat="42.98137" lon="-0.00203">
        <ele>1604</ele>
        <time>2017-01-18T10:19:20.054Z</time>
      </trkpt>
      <trkpt lat="42.98137" lon="-0.00204">
        <ele>1604</ele>
        <time>2017-01-18T10:19:21.054Z</time>
      </trkpt>
      <trkpt lat="42.98138" lon="-0.00204">
        <ele>1604</ele>
        <time>2017-01-18T10:19:22.054Z</time>
      </trkpt>
      <trkpt lat="42.98139" lon="-0.00204">
        <ele>1604</ele>
        <time>2017-01-18T10:19:23.054Z</time>
      </trkpt>
      <trkpt lat="42.98139" lon="-0.00205">
        <ele>1604</ele>
        <time>2017-01-18T10:19:24.054Z</time>
      </trkpt>
      <trkpt lat="42.9814" lon="-0.00205">
        <ele>1604</ele>
        <time>2017-01-18T10:19:25.054Z</time>
      </trkpt>
      <trkpt lat="42.9814" lon="-0.00205">
        <ele>1604</ele>
        <time>2017-01-18T10:19:26.054Z</time>
      </trkpt>
      <trkpt lat="42.98141" lon="-0.00206">
        <ele>1604</ele>
        <time>2017-01-18T10:19:27.054Z</time>
      </trkpt>
      <trkpt lat="42.98142" lon="-0.00206">
        <ele>1604</ele>
        <time>2017-01-18T10:19:28.054Z</time>
      </trkpt>
      <trkpt lat="42.98142" lon="-0.00207">
        <ele>1604</ele>
        <time>2017-01-18T10:19:29.054Z</time>
      </trkpt>
      <trkpt lat="42.98143" lon="-0.00207">
        <ele>1604</ele>
        <time>2017-01-18T10:19:30.054Z</time>
      </trkpt>
      <trkpt lat="42.98143" lon="-0.00208">
        <ele>1604</ele>
        <time>2017-01-18T10:19:31.054Z</time>
      </trkpt>
      <trkpt lat="42.98144" lon="-0.00208">
        <ele>1604</ele>
        <time>2017-01-18T10:19:32.054Z</time>
      </trkpt>
      <trkpt lat="42.98144" lon="-0.00209">
        <ele>1604</ele>
        <time>2017-01-18T10:19:33.054Z</time>
      </trkpt>
      <trkpt lat="42.98145" lon="-0.00209">
        <ele>1604</ele>
        <time>2017-01-18T10:19:34.054Z</time>
      </trkpt>
      <trkpt lat="42.98146" lon="-0.00209">
        <ele>1604</ele>
        <time>2017-01-18T10:19:35.054Z</time>
      </trkpt>
      <trkpt lat="42.98146" lon="-0.0021">
        <ele>1604</ele>
        <time>2017-01-18T10:19:36.054Z</time>
      </trkpt>
      <trkpt lat="42.98147" lon="-0.0021">
        <ele>1604</ele>
        <time>2017-01-18T10:19:37.054Z</time>
      </trkpt>
      <trkpt lat="42.98148" lon="-0.00211">
        <ele>1604</ele>
        <time>2017-01-18T10:19:38.054Z</time>
      </trkpt>
      <trkpt lat="42.98148" lon="-0.00211">
        <ele>1604</ele>
        <time>2017-01-18T10:19:39.054Z</time>
      </trkpt>
      <trkpt lat="42.98149" lon="-0.00211">
        <ele>1604</ele>
        <time>2017-01-18T10:19:40.054Z</time>
      </trkpt>
      <trkpt lat="42.9815" lon="-0.00212">
        <ele>1605</ele>
        <time>2017-01-18T10:19:41.054Z</time>
      </trkpt>
      <trkpt lat="42.9815" lon="-0.00212">
        <ele>1604</ele>
        <time>2017-01-18T10:19:42.054Z</time>
      </trkpt>
      <trkpt lat="42.98151" lon="-0.00213">
        <ele>1604</ele>
        <time>2017-01-18T10:19:43.054Z</time>
      </trkpt>
      <trkpt lat="42.98151" lon="-0.00213">
        <ele>1604</ele>
        <time>2017-01-18T10:19:44.054Z</time>
      </trkpt>
      <trkpt lat="42.98152" lon="-0.00214">
        <ele>1604</ele>
        <time>2017-01-18T10:19:45.054Z</time>
      </trkpt>
      <trkpt lat="42.98153" lon="-0.00214">
        <ele>1604</ele>
        <time>2017-01-18T10:19:46.054Z</time>
      </trkpt>
      <trkpt lat="42.98153" lon="-0.00214">
        <ele>1604</ele>
        <time>2017-01-18T10:19:47.054Z</time>
      </trkpt>
      <trkpt lat="42.98154" lon="-0.00215">
        <ele>1604</ele>
        <time>2017-01-18T10:19:48.054Z</time>
      </trkpt>
      <trkpt lat="42.98154" lon="-0.00215">
        <ele>1605</ele>
        <time>2017-01-18T10:19:49.054Z</time>
      </trkpt>
      <trkpt lat="42.98155" lon="-0.00216">
        <ele>1604</ele>
        <time>2017-01-18T10:19:50.054Z</time>
      </trkpt>
      <trkpt lat="42.98155" lon="-0.00216">
        <ele>1605</ele>
        <time>2017-01-18T10:19:51.054Z</time>
      </trkpt>
      <trkpt lat="42.98156" lon="-0.00217">
        <ele>1605</ele>
        <time>2017-01-18T10:19:52.054Z</time>
      </trkpt>
      <trkpt lat="42.98156" lon="-0.00217">
        <ele>1605</ele>
        <time>2017-01-18T10:19:53.054Z</time>
      </trkpt>
      <trkpt lat="42.98157" lon="-0.00218">
        <ele>1605</ele>
        <time>2017-01-18T10:19:54.054Z</time>
      </trkpt>
      <trkpt lat="42.98157" lon="-0.00219">
        <ele>1605</ele>
        <time>2017-01-18T10:19:55.054Z</time>
      </trkpt>
      <trkpt lat="42.98158" lon="-0.00219">
        <ele>1605</ele>
        <time>2017-01-18T10:19:56.054Z</time>
      </trkpt>
      <trkpt lat="42.98158" lon="-0.0022">
        <ele>1605</ele>
        <time>2017-01-18T10:19:57.054Z</time>
      </trkpt>
      <trkpt lat="42.98159" lon="-0.00221">
        <ele>1605</ele>
        <time>2017-01-18T10:19:58.054Z</time>
      </trkpt>
      <trkpt lat="42.98159" lon="-0.00221">
        <ele>1605</ele>
        <time>2017-01-18T10:19:59.054Z</time>
      </trkpt>
      <trkpt lat="42.9816" lon="-0.00222">
        <ele>1605</ele>
        <time>2017-01-18T10:20:00.054Z</time>
      </trkpt>
      <trkpt lat="42.98161" lon="-0.00222">
        <ele>1605</ele>
        <time>2017-01-18T10:20:01.054Z</time>
      </trkpt>
      <trkpt lat="42.98161" lon="-0.00223">
        <ele>1605</ele>
        <time>2017-01-18T10:20:02.054Z</time>
      </trkpt>
      <trkpt lat="42.98162" lon="-0.00223">
        <ele>1606</ele>
        <time>2017-01-18T10:20:03.054Z</time>
      </trkpt>
      <trkpt lat="42.98162" lon="-0.00224">
        <ele>1606</ele>
        <time>2017-01-18T10:20:04.054Z</time>
      </trkpt>
      <trkpt lat="42.98163" lon="-0.00225">
        <ele>1606</ele>
        <time>2017-01-18T10:20:05.054Z</time>
      </trkpt>
      <trkpt lat="42.98163" lon="-0.00225">
        <ele>1606</ele>
        <time>2017-01-18T10:20:06.054Z</time>
      </trkpt>
      <trkpt lat="42.98164" lon="-0.00226">
        <ele>1606</ele>
        <time>2017-01-18T10:20:07.054Z</time>
      </trkpt>
      <trkpt lat="42.98164" lon="-0.00226">
        <ele>1605</ele>
        <time>2017-01-18T10:20:08.054Z</time>
      </trkpt>
      <trkpt lat="42.98165" lon="-0.00227">
        <ele>1605</ele>
        <time>2017-01-18T10:20:09.054Z</time>
      </trkpt>
      <trkpt lat="42.98166" lon="-0.00228">
        <ele>1605</ele>
        <time>2017-01-18T10:20:10.054Z</time>
      </trkpt>
      <trkpt lat="42.98166" lon="-0.00228">
        <ele>1605</ele>
        <time>2017-01-18T10:20:11.054Z</time>
      </trkpt>
      <trkpt lat="42.98167" lon="-0.00229">
        <ele>1605</ele>
        <time>2017-01-18T10:20:12.054Z</time>
      </trkpt>
      <trkpt lat="42.98167" lon="-0.0023">
        <ele>1605</ele>
        <time>2017-01-18T10:20:13.054Z</time>
      </trkpt>
      <trkpt lat="42.98168" lon="-0.0023">
        <ele>1606</ele>
        <time>2017-01-18T10:20:14.054Z</time>
      </trkpt>
      <trkpt lat="42.98168" lon="-0.00231">
        <ele>1606</ele>
        <time>2017-01-18T10:20:15.054Z</time>
      </trkpt>
      <trkpt lat="42.98169" lon="-0.00232">
        <ele>1606</ele>
        <time>2017-01-18T10:20:16.054Z</time>
      </trkpt>
      <trkpt lat="42.98169" lon="-0.00233">
        <ele>1606</ele>
        <time>2017-01-18T10:20:17.054Z</time>
      </trkpt>
      <trkpt lat="42.9817" lon="-0.00233">
        <ele>1606</ele>
        <time>2017-01-18T10:20:18.054Z</time>
      </trkpt>
      <trkpt lat="42.9817" lon="-0.00234">
        <ele>1606</ele>
        <time>2017-01-18T10:20:19.054Z</time>
      </trkpt>
      <trkpt lat="42.98171" lon="-0.00235">
        <ele>1606</ele>
        <time>2017-01-18T10:20:20.054Z</time>
      </trkpt>
      <trkpt lat="42.98171" lon="-0.00235">
        <ele>1606</ele>
        <time>2017-01-18T10:20:21.054Z</time>
      </trkpt>
      <trkpt lat="42.98172" lon="-0.00236">
        <ele>1606</ele>
        <time>2017-01-18T10:20:22.054Z</time>
      </trkpt>
      <trkpt lat="42.98172" lon="-0.00237">
        <ele>1606</ele>
        <time>2017-01-18T10:20:23.054Z</time>
      </trkpt>
      <trkpt lat="42.98173" lon="-0.00237">
        <ele>1606</ele>
        <time>2017-01-18T10:20:24.054Z</time>
      </trkpt>
      <trkpt lat="42.98173" lon="-0.00238">
        <ele>1606</ele>
        <time>2017-01-18T10:20:25.054Z</time>
      </trkpt>
      <trkpt lat="42.98173" lon="-0.00239">
        <ele>1606</ele>
        <time>2017-01-18T10:20:26.054Z</time>
      </trkpt>
      <trkpt lat="42.98174" lon="-0.0024">
        <ele>1606</ele>
        <time>2017-01-18T10:20:27.054Z</time>
      </trkpt>
      <trkpt lat="42.98174" lon="-0.00241">
        <ele>1606</ele>
        <time>2017-01-18T10:20:28.054Z</time>
      </trkpt>
      <trkpt lat="42.98175" lon="-0.00241">
        <ele>1606</ele>
        <time>2017-01-18T10:20:29.054Z</time>
      </trkpt>
      <trkpt lat="42.98175" lon="-0.00241">
        <ele>1606</ele>
        <time>2017-01-18T10:20:30.054Z</time>
      </trkpt>
      <trkpt lat="42.98175" lon="-0.00241">
        <ele>1606</ele>
        <time>2017-01-18T10:20:31.054Z</time>
      </trkpt>
      <trkpt lat="42.98175" lon="-0.00241">
        <ele>1606</ele>
        <time>2017-01-18T10:20:32.054Z</time>
      </trkpt>
      <trkpt lat="42.98175" lon="-0.00241">
        <ele>1606</ele>
        <time>2017-01-18T10:20:33.054Z</time>
      </trkpt>
      <trkpt lat="42.98175" lon="-0.00241">
        <ele>1606</ele>
        <time>2017-01-18T10:20:34.054Z</time>
      </trkpt>
      <trkpt lat="42.98175" lon="-0.00241">
        <ele>1606</ele>
        <time>2017-01-18T10:20:35.054Z</time>
      </trkpt>
      <trkpt lat="42.98175" lon="-0.00241">
        <ele>1606</ele>
        <time>2017-01-18T10:20:36.054Z</time>
      </trkpt>
      <trkpt lat="42.98176" lon="-0.00242">
        <ele>1607</ele>
        <time>2017-01-18T10:20:37.062Z</time>
      </trkpt>
      <trkpt lat="42.98176" lon="-0.00243">
        <ele>1607</ele>
        <time>2017-01-18T10:20:38.062Z</time>
      </trkpt>
      <trkpt lat="42.98176" lon="-0.00244">
        <ele>1607</ele>
        <time>2017-01-18T10:20:39.062Z</time>
      </trkpt>
      <trkpt lat="42.98177" lon="-0.00244">
        <ele>1607</ele>
        <time>2017-01-18T10:20:40.062Z</time>
      </trkpt>
      <trkpt lat="42.98177" lon="-0.00245">
        <ele>1607</ele>
        <time>2017-01-18T10:20:41.062Z</time>
      </trkpt>
      <trkpt lat="42.98177" lon="-0.00246">
        <ele>1607</ele>
        <time>2017-01-18T10:20:42.062Z</time>
      </trkpt>
      <trkpt lat="42.98178" lon="-0.00246">
        <ele>1607</ele>
        <time>2017-01-18T10:20:43.062Z</time>
      </trkpt>
      <trkpt lat="42.98178" lon="-0.00247">
        <ele>1607</ele>
        <time>2017-01-18T10:20:44.062Z</time>
      </trkpt>
      <trkpt lat="42.98178" lon="-0.00247">
        <ele>1607</ele>
        <time>2017-01-18T10:20:45.062Z</time>
      </trkpt>
      <trkpt lat="42.98179" lon="-0.00248">
        <ele>1607</ele>
        <time>2017-01-18T10:20:46.062Z</time>
      </trkpt>
      <trkpt lat="42.98179" lon="-0.00248">
        <ele>1607</ele>
        <time>2017-01-18T10:20:47.062Z</time>
      </trkpt>
      <trkpt lat="42.98179" lon="-0.00249">
        <ele>1607</ele>
        <time>2017-01-18T10:20:48.062Z</time>
      </trkpt>
      <trkpt lat="42.9818" lon="-0.0025">
        <ele>1607</ele>
        <time>2017-01-18T10:20:49.062Z</time>
      </trkpt>
      <trkpt lat="42.9818" lon="-0.0025">
        <ele>1607</ele>
        <time>2017-01-18T10:20:50.062Z</time>
      </trkpt>
      <trkpt lat="42.9818" lon="-0.00251">
        <ele>1607</ele>
        <time>2017-01-18T10:20:51.062Z</time>
      </trkpt>
      <trkpt lat="42.98181" lon="-0.00251">
        <ele>1607</ele>
        <time>2017-01-18T10:20:52.062Z</time>
      </trkpt>
      <trkpt lat="42.98181" lon="-0.00252">
        <ele>1607</ele>
        <time>2017-01-18T10:20:53.062Z</time>
      </trkpt>
      <trkpt lat="42.98181" lon="-0.00252">
        <ele>1607</ele>
        <time>2017-01-18T10:20:54.062Z</time>
      </trkpt>
      <trkpt lat="42.98182" lon="-0.00253">
        <ele>1607</ele>
        <time>2017-01-18T10:20:55.062Z</time>
      </trkpt>
      <trkpt lat="42.98182" lon="-0.00254">
        <ele>1607</ele>
        <time>2017-01-18T10:20:56.062Z</time>
      </trkpt>
      <trkpt lat="42.98183" lon="-0.00255">
        <ele>1607</ele>
        <time>2017-01-18T10:20:57.062Z</time>
      </trkpt>
      <trkpt lat="42.98183" lon="-0.00255">
        <ele>1607</ele>
        <time>2017-01-18T10:20:58.062Z</time>
      </trkpt>
      <trkpt lat="42.98183" lon="-0.00256">
        <ele>1607</ele>
        <time>2017-01-18T10:20:59.062Z</time>
      </trkpt>
      <trkpt lat="42.98184" lon="-0.00257">
        <ele>1607</ele>
        <time>2017-01-18T10:21:00.062Z</time>
      </trkpt>
      <trkpt lat="42.98184" lon="-0.00257">
        <ele>1607</ele>
        <time>2017-01-18T10:21:01.062Z</time>
      </trkpt>
      <trkpt lat="42.98185" lon="-0.00258">
        <ele>1607</ele>
        <time>2017-01-18T10:21:02.062Z</time>
      </trkpt>
      <trkpt lat="42.98186" lon="-0.00258">
        <ele>1607</ele>
        <time>2017-01-18T10:21:03.062Z</time>
      </trkpt>
      <trkpt lat="42.98186" lon="-0.00259">
        <ele>1607</ele>
        <time>2017-01-18T10:21:04.062Z</time>
      </trkpt>
      <trkpt lat="42.98187" lon="-0.0026">
        <ele>1607</ele>
        <time>2017-01-18T10:21:05.062Z</time>
      </trkpt>
      <trkpt lat="42.98187" lon="-0.0026">
        <ele>1608</ele>
        <time>2017-01-18T10:21:06.062Z</time>
      </trkpt>
      <trkpt lat="42.98187" lon="-0.00261">
        <ele>1607</ele>
        <time>2017-01-18T10:21:07.062Z</time>
      </trkpt>
      <trkpt lat="42.98188" lon="-0.00261">
        <ele>1607</ele>
        <time>2017-01-18T10:21:08.062Z</time>
      </trkpt>
      <trkpt lat="42.98189" lon="-0.00262">
        <ele>1607</ele>
        <time>2017-01-18T10:21:09.062Z</time>
      </trkpt>
      <trkpt lat="42.98189" lon="-0.00262">
        <ele>1607</ele>
        <time>2017-01-18T10:21:10.062Z</time>
      </trkpt>
      <trkpt lat="42.98189" lon="-0.00263">
        <ele>1608</ele>
        <time>2017-01-18T10:21:11.062Z</time>
      </trkpt>
      <trkpt lat="42.9819" lon="-0.00263">
        <ele>1608</ele>
        <time>2017-01-18T10:21:12.062Z</time>
      </trkpt>
      <trkpt lat="42.9819" lon="-0.00263">
        <ele>1607</ele>
        <time>2017-01-18T10:21:13.062Z</time>
      </trkpt>
      <trkpt lat="42.9819" lon="-0.00263">
        <ele>1607</ele>
        <time>2017-01-18T10:21:14.062Z</time>
      </trkpt>
      <trkpt lat="42.9819" lon="-0.00263">
        <ele>1608</ele>
        <time>2017-01-18T10:21:15.062Z</time>
      </trkpt>
      <trkpt lat="42.9819" lon="-0.00264">
        <ele>1608</ele>
        <time>2017-01-18T10:21:16.062Z</time>
      </trkpt>
      <trkpt lat="42.9819" lon="-0.00264">
        <ele>1608</ele>
        <time>2017-01-18T10:21:17.062Z</time>
      </trkpt>
      <trkpt lat="42.9819" lon="-0.00264">
        <ele>1608</ele>
        <time>2017-01-18T10:21:18.062Z</time>
      </trkpt>
      <trkpt lat="42.9819" lon="-0.00265">
        <ele>1608</ele>
        <time>2017-01-18T10:21:19.062Z</time>
      </trkpt>
      <trkpt lat="42.98191" lon="-0.00265">
        <ele>1608</ele>
        <time>2017-01-18T10:21:20.062Z</time>
      </trkpt>
      <trkpt lat="42.98191" lon="-0.00266">
        <ele>1608</ele>
        <time>2017-01-18T10:21:21.062Z</time>
      </trkpt>
      <trkpt lat="42.98192" lon="-0.00266">
        <ele>1608</ele>
        <time>2017-01-18T10:21:22.062Z</time>
      </trkpt>
      <trkpt lat="42.98192" lon="-0.00267">
        <ele>1608</ele>
        <time>2017-01-18T10:21:23.062Z</time>
      </trkpt>
      <trkpt lat="42.98192" lon="-0.00267">
        <ele>1608</ele>
        <time>2017-01-18T10:21:24.062Z</time>
      </trkpt>
      <trkpt lat="42.98193" lon="-0.00268">
        <ele>1608</ele>
        <time>2017-01-18T10:21:25.062Z</time>
      </trkpt>
      <trkpt lat="42.98193" lon="-0.00268">
        <ele>1608</ele>
        <time>2017-01-18T10:21:26.062Z</time>
      </trkpt>
      <trkpt lat="42.98194" lon="-0.00269">
        <ele>1608</ele>
        <time>2017-01-18T10:21:27.062Z</time>
      </trkpt>
      <trkpt lat="42.98194" lon="-0.00269">
        <ele>1608</ele>
        <time>2017-01-18T10:21:28.062Z</time>
      </trkpt>
      <trkpt lat="42.98195" lon="-0.0027">
        <ele>1608</ele>
        <time>2017-01-18T10:21:29.062Z</time>
      </trkpt>
      <trkpt lat="42.98195" lon="-0.0027">
        <ele>1608</ele>
        <time>2017-01-18T10:21:30.062Z</time>
      </trkpt>
      <trkpt lat="42.98196" lon="-0.0027">
        <ele>1608</ele>
        <time>2017-01-18T10:21:31.062Z</time>
      </trkpt>
      <trkpt lat="42.98196" lon="-0.00271">
        <ele>1608</ele>
        <time>2017-01-18T10:21:32.062Z</time>
      </trkpt>
      <trkpt lat="42.98196" lon="-0.00271">
        <ele>1609</ele>
        <time>2017-01-18T10:21:33.062Z</time>
      </trkpt>
      <trkpt lat="42.98197" lon="-0.00271">
        <ele>1608</ele>
        <time>2017-01-18T10:21:34.062Z</time>
      </trkpt>
      <trkpt lat="42.98197" lon="-0.00272">
        <ele>1608</ele>
        <time>2017-01-18T10:21:35.062Z</time>
      </trkpt>
      <trkpt lat="42.98198" lon="-0.00272">
        <ele>1608</ele>
        <time>2017-01-18T10:21:36.062Z</time>
      </trkpt>
      <trkpt lat="42.98198" lon="-0.00273">
        <ele>1608</ele>
        <time>2017-01-18T10:21:37.062Z</time>
      </trkpt>
      <trkpt lat="42.98199" lon="-0.00273">
        <ele>1608</ele>
        <time>2017-01-18T10:21:38.062Z</time>
      </trkpt>
      <trkpt lat="42.98199" lon="-0.00273">
        <ele>1608</ele>
        <time>2017-01-18T10:21:39.062Z</time>
      </trkpt>
      <trkpt lat="42.982" lon="-0.00274">
        <ele>1609</ele>
        <time>2017-01-18T10:21:40.062Z</time>
      </trkpt>
      <trkpt lat="42.982" lon="-0.00274">
        <ele>1608</ele>
        <time>2017-01-18T10:21:41.062Z</time>
      </trkpt>
      <trkpt lat="42.98201" lon="-0.00275">
        <ele>1608</ele>
        <time>2017-01-18T10:21:42.062Z</time>
      </trkpt>
      <trkpt lat="42.98201" lon="-0.00275">
        <ele>1608</ele>
        <time>2017-01-18T10:21:43.062Z</time>
      </trkpt>
      <trkpt lat="42.98202" lon="-0.00275">
        <ele>1608</ele>
        <time>2017-01-18T10:21:44.062Z</time>
      </trkpt>
      <trkpt lat="42.98202" lon="-0.00276">
        <ele>1609</ele>
        <time>2017-01-18T10:21:45.062Z</time>
      </trkpt>
      <trkpt lat="42.98203" lon="-0.00276">
        <ele>1608</ele>
        <time>2017-01-18T10:21:46.062Z</time>
      </trkpt>
      <trkpt lat="42.98203" lon="-0.00276">
        <ele>1609</ele>
        <time>2017-01-18T10:21:47.062Z</time>
      </trkpt>
      <trkpt lat="42.98204" lon="-0.00277">
        <ele>1609</ele>
        <time>2017-01-18T10:21:48.062Z</time>
      </trkpt>
      <trkpt lat="42.98204" lon="-0.00277">
        <ele>1608</ele>
        <time>2017-01-18T10:21:49.062Z</time>
      </trkpt>
      <trkpt lat="42.98205" lon="-0.00277">
        <ele>1609</ele>
        <time>2017-01-18T10:21:50.062Z</time>
      </trkpt>
      <trkpt lat="42.98205" lon="-0.00278">
        <ele>1608</ele>
        <time>2017-01-18T10:21:51.062Z</time>
      </trkpt>
      <trkpt lat="42.98206" lon="-0.00278">
        <ele>1609</ele>
        <time>2017-01-18T10:21:52.062Z</time>
      </trkpt>
      <trkpt lat="42.98207" lon="-0.00278">
        <ele>1609</ele>
        <time>2017-01-18T10:21:53.062Z</time>
      </trkpt>
      <trkpt lat="42.98207" lon="-0.00278">
        <ele>1609</ele>
        <time>2017-01-18T10:21:54.062Z</time>
      </trkpt>
      <trkpt lat="42.98208" lon="-0.00279">
        <ele>1609</ele>
        <time>2017-01-18T10:21:55.062Z</time>
      </trkpt>
      <trkpt lat="42.98209" lon="-0.00279">
        <ele>1608</ele>
        <time>2017-01-18T10:21:56.062Z</time>
      </trkpt>
      <trkpt lat="42.98209" lon="-0.00279">
        <ele>1609</ele>
        <time>2017-01-18T10:21:57.062Z</time>
      </trkpt>
      <trkpt lat="42.9821" lon="-0.00279">
        <ele>1609</ele>
        <time>2017-01-18T10:21:58.062Z</time>
      </trkpt>
      <trkpt lat="42.9821" lon="-0.0028">
        <ele>1609</ele>
        <time>2017-01-18T10:21:59.062Z</time>
      </trkpt>
      <trkpt lat="42.98211" lon="-0.0028">
        <ele>1609</ele>
        <time>2017-01-18T10:22:00.062Z</time>
      </trkpt>
      <trkpt lat="42.98212" lon="-0.0028">
        <ele>1609</ele>
        <time>2017-01-18T10:22:01.062Z</time>
      </trkpt>
      <trkpt lat="42.98212" lon="-0.0028">
        <ele>1609</ele>
        <time>2017-01-18T10:22:02.062Z</time>
      </trkpt>
      <trkpt lat="42.98213" lon="-0.0028">
        <ele>1609</ele>
        <time>2017-01-18T10:22:03.062Z</time>
      </trkpt>
      <trkpt lat="42.98214" lon="-0.00281">
        <ele>1609</ele>
        <time>2017-01-18T10:22:04.062Z</time>
      </trkpt>
      <trkpt lat="42.98214" lon="-0.00281">
        <ele>1609</ele>
        <time>2017-01-18T10:22:05.062Z</time>
      </trkpt>
      <trkpt lat="42.98215" lon="-0.00281">
        <ele>1609</ele>
        <time>2017-01-18T10:22:06.062Z</time>
      </trkpt>
      <trkpt lat="42.98216" lon="-0.00281">
        <ele>1609</ele>
        <time>2017-01-18T10:22:07.062Z</time>
      </trkpt>
      <trkpt lat="42.98216" lon="-0.00281">
        <ele>1609</ele>
        <time>2017-01-18T10:22:08.062Z</time>
      </trkpt>
      <trkpt lat="42.98217" lon="-0.00282">
        <ele>1609</ele>
        <time>2017-01-18T10:22:09.062Z</time>
      </trkpt>
      <trkpt lat="42.98218" lon="-0.00282">
        <ele>1609</ele>
        <time>2017-01-18T10:22:10.062Z</time>
      </trkpt>
      <trkpt lat="42.98218" lon="-0.00282">
        <ele>1609</ele>
        <time>2017-01-18T10:22:11.062Z</time>
      </trkpt>
      <trkpt lat="42.98219" lon="-0.00282">
        <ele>1609</ele>
        <time>2017-01-18T10:22:12.062Z</time>
      </trkpt>
      <trkpt lat="42.9822" lon="-0.00283">
        <ele>1609</ele>
        <time>2017-01-18T10:22:13.062Z</time>
      </trkpt>
      <trkpt lat="42.9822" lon="-0.00283">
        <ele>1609</ele>
        <time>2017-01-18T10:22:14.062Z</time>
      </trkpt>
      <trkpt lat="42.98221" lon="-0.00283">
        <ele>1609</ele>
        <time>2017-01-18T10:22:15.062Z</time>
      </trkpt>
      <trkpt lat="42.98222" lon="-0.00283">
        <ele>1610</ele>
        <time>2017-01-18T10:22:16.062Z</time>
      </trkpt>
      <trkpt lat="42.98222" lon="-0.00283">
        <ele>1609</ele>
        <time>2017-01-18T10:22:17.062Z</time>
      </trkpt>
      <trkpt lat="42.98223" lon="-0.00284">
        <ele>1610</ele>
        <time>2017-01-18T10:22:18.062Z</time>
      </trkpt>
      <trkpt lat="42.98224" lon="-0.00284">
        <ele>1610</ele>
        <time>2017-01-18T10:22:19.062Z</time>
      </trkpt>
      <trkpt lat="42.98224" lon="-0.00284">
        <ele>1609</ele>
        <time>2017-01-18T10:22:20.062Z</time>
      </trkpt>
      <trkpt lat="42.98225" lon="-0.00284">
        <ele>1609</ele>
        <time>2017-01-18T10:22:21.062Z</time>
      </trkpt>
      <trkpt lat="42.98225" lon="-0.00284">
        <ele>1609</ele>
        <time>2017-01-18T10:22:22.062Z</time>
      </trkpt>
      <trkpt lat="42.98226" lon="-0.00284">
        <ele>1609</ele>
        <time>2017-01-18T10:22:23.062Z</time>
      </trkpt>
      <trkpt lat="42.98227" lon="-0.00284">
        <ele>1610</ele>
        <time>2017-01-18T10:22:24.062Z</time>
      </trkpt>
      <trkpt lat="42.98227" lon="-0.00284">
        <ele>1610</ele>
        <time>2017-01-18T10:22:25.062Z</time>
      </trkpt>
      <trkpt lat="42.98228" lon="-0.00285">
        <ele>1610</ele>
        <time>2017-01-18T10:22:26.062Z</time>
      </trkpt>
      <trkpt lat="42.98228" lon="-0.00285">
        <ele>1610</ele>
        <time>2017-01-18T10:22:27.062Z</time>
      </trkpt>
      <trkpt lat="42.98229" lon="-0.00285">
        <ele>1609</ele>
        <time>2017-01-18T10:22:28.062Z</time>
      </trkpt>
      <trkpt lat="42.9823" lon="-0.00285">
        <ele>1610</ele>
        <time>2017-01-18T10:22:29.062Z</time>
      </trkpt>
      <trkpt lat="42.9823" lon="-0.00286">
        <ele>1610</ele>
        <time>2017-01-18T10:22:30.062Z</time>
      </trkpt>
      <trkpt lat="42.98231" lon="-0.00286">
        <ele>1609</ele>
        <time>2017-01-18T10:22:31.062Z</time>
      </trkpt>
      <trkpt lat="42.98232" lon="-0.00286">
        <ele>1609</ele>
        <time>2017-01-18T10:22:32.062Z</time>
      </trkpt>
      <trkpt lat="42.98232" lon="-0.00286">
        <ele>1609</ele>
        <time>2017-01-18T10:22:33.062Z</time>
      </trkpt>
      <trkpt lat="42.98233" lon="-0.00287">
        <ele>1609</ele>
        <time>2017-01-18T10:22:34.062Z</time>
      </trkpt>
      <trkpt lat="42.98234" lon="-0.00287">
        <ele>1609</ele>
        <time>2017-01-18T10:22:35.062Z</time>
      </trkpt>
      <trkpt lat="42.98234" lon="-0.00287">
        <ele>1609</ele>
        <time>2017-01-18T10:22:36.062Z</time>
      </trkpt>
      <trkpt lat="42.98235" lon="-0.00287">
        <ele>1609</ele>
        <time>2017-01-18T10:22:37.062Z</time>
      </trkpt>
      <trkpt lat="42.98236" lon="-0.00288">
        <ele>1610</ele>
        <time>2017-01-18T10:22:38.062Z</time>
      </trkpt>
      <trkpt lat="42.98236" lon="-0.00288">
        <ele>1610</ele>
        <time>2017-01-18T10:22:39.062Z</time>
      </trkpt>
      <trkpt lat="42.98237" lon="-0.00288">
        <ele>1610</ele>
        <time>2017-01-18T10:22:40.062Z</time>
      </trkpt>
      <trkpt lat="42.98238" lon="-0.00288">
        <ele>1610</ele>
        <time>2017-01-18T10:22:41.062Z</time>
      </trkpt>
      <trkpt lat="42.98238" lon="-0.00289">
        <ele>1610</ele>
        <time>2017-01-18T10:22:42.062Z</time>
      </trkpt>
      <trkpt lat="42.98239" lon="-0.00289">
        <ele>1610</ele>
        <time>2017-01-18T10:22:43.062Z</time>
      </trkpt>
      <trkpt lat="42.9824" lon="-0.00289">
        <ele>1610</ele>
        <time>2017-01-18T10:22:44.062Z</time>
      </trkpt>
      <trkpt lat="42.9824" lon="-0.0029">
        <ele>1610</ele>
        <time>2017-01-18T10:22:45.062Z</time>
      </trkpt>
      <trkpt lat="42.98241" lon="-0.0029">
        <ele>1611</ele>
        <time>2017-01-18T10:22:46.062Z</time>
      </trkpt>
      <trkpt lat="42.98242" lon="-0.0029">
        <ele>1610</ele>
        <time>2017-01-18T10:22:47.062Z</time>
      </trkpt>
      <trkpt lat="42.98242" lon="-0.0029">
        <ele>1611</ele>
        <time>2017-01-18T10:22:48.062Z</time>
      </trkpt>
      <trkpt lat="42.98243" lon="-0.00291">
        <ele>1611</ele>
        <time>2017-01-18T10:22:49.062Z</time>
      </trkpt>
      <trkpt lat="42.98243" lon="-0.00291">
        <ele>1611</ele>
        <time>2017-01-18T10:22:50.062Z</time>
      </trkpt>
      <trkpt lat="42.98244" lon="-0.00291">
        <ele>1611</ele>
        <time>2017-01-18T10:22:51.062Z</time>
      </trkpt>
      <trkpt lat="42.98245" lon="-0.00291">
        <ele>1611</ele>
        <time>2017-01-18T10:22:52.062Z</time>
      </trkpt>
      <trkpt lat="42.98245" lon="-0.00291">
        <ele>1611</ele>
        <time>2017-01-18T10:22:53.062Z</time>
      </trkpt>
      <trkpt lat="42.98246" lon="-0.00291">
        <ele>1611</ele>
        <time>2017-01-18T10:22:54.062Z</time>
      </trkpt>
      <trkpt lat="42.98247" lon="-0.00291">
        <ele>1611</ele>
        <time>2017-01-18T10:22:55.062Z</time>
      </trkpt>
      <trkpt lat="42.98248" lon="-0.00291">
        <ele>1611</ele>
        <time>2017-01-18T10:22:56.062Z</time>
      </trkpt>
      <trkpt lat="42.98248" lon="-0.00291">
        <ele>1611</ele>
        <time>2017-01-18T10:22:57.062Z</time>
      </trkpt>
      <trkpt lat="42.98249" lon="-0.00292">
        <ele>1611</ele>
        <time>2017-01-18T10:22:58.062Z</time>
      </trkpt>
      <trkpt lat="42.9825" lon="-0.00292">
        <ele>1611</ele>
        <time>2017-01-18T10:22:59.062Z</time>
      </trkpt>
      <trkpt lat="42.9825" lon="-0.00292">
        <ele>1611</ele>
        <time>2017-01-18T10:23:00.062Z</time>
      </trkpt>
      <trkpt lat="42.98251" lon="-0.00292">
        <ele>1611</ele>
        <time>2017-01-18T10:23:01.062Z</time>
      </trkpt>
      <trkpt lat="42.98251" lon="-0.00292">
        <ele>1611</ele>
        <time>2017-01-18T10:23:02.062Z</time>
      </trkpt>
      <trkpt lat="42.98252" lon="-0.00292">
        <ele>1611</ele>
        <time>2017-01-18T10:23:03.062Z</time>
      </trkpt>
      <trkpt lat="42.98253" lon="-0.00292">
        <ele>1611</ele>
        <time>2017-01-18T10:23:04.062Z</time>
      </trkpt>
      <trkpt lat="42.98253" lon="-0.00292">
        <ele>1611</ele>
        <time>2017-01-18T10:23:05.062Z</time>
      </trkpt>
      <trkpt lat="42.98253" lon="-0.00293">
        <ele>1611</ele>
        <time>2017-01-18T10:23:06.062Z</time>
      </trkpt>
      <trkpt lat="42.98253" lon="-0.00293">
        <ele>1611</ele>
        <time>2017-01-18T10:23:07.062Z</time>
      </trkpt>
      <trkpt lat="42.98253" lon="-0.00293">
        <ele>1611</ele>
        <time>2017-01-18T10:23:08.062Z</time>
      </trkpt>
      <trkpt lat="42.98253" lon="-0.00292">
        <ele>1610</ele>
        <time>2017-01-18T10:23:09.066Z</time>
      </trkpt>
      <trkpt lat="42.98253" lon="-0.00292">
        <ele>1610</ele>
        <time>2017-01-18T10:23:10.066Z</time>
      </trkpt>
      <trkpt lat="42.98253" lon="-0.00292">
        <ele>1610</ele>
        <time>2017-01-18T10:23:11.066Z</time>
      </trkpt>
      <trkpt lat="42.98253" lon="-0.00292">
        <ele>1610</ele>
        <time>2017-01-18T10:23:12.066Z</time>
      </trkpt>
      <trkpt lat="42.98253" lon="-0.00292">
        <ele>1610</ele>
        <time>2017-01-18T10:23:13.066Z</time>
      </trkpt>
      <trkpt lat="42.98253" lon="-0.00292">
        <ele>1610</ele>
        <time>2017-01-18T10:23:14.066Z</time>
      </trkpt>
      <trkpt lat="42.98253" lon="-0.00293">
        <ele>1610</ele>
        <time>2017-01-18T10:23:15.078Z</time>
      </trkpt>
      <trkpt lat="42.98254" lon="-0.00293">
        <ele>1610</ele>
        <time>2017-01-18T10:23:16.078Z</time>
      </trkpt>
      <trkpt lat="42.98255" lon="-0.00293">
        <ele>1610</ele>
        <time>2017-01-18T10:23:17.078Z</time>
      </trkpt>
      <trkpt lat="42.98255" lon="-0.00293">
        <ele>1610</ele>
        <time>2017-01-18T10:23:18.078Z</time>
      </trkpt>
      <trkpt lat="42.98256" lon="-0.00294">
        <ele>1610</ele>
        <time>2017-01-18T10:23:19.078Z</time>
      </trkpt>
      <trkpt lat="42.98256" lon="-0.00294">
        <ele>1610</ele>
        <time>2017-01-18T10:23:20.078Z</time>
      </trkpt>
      <trkpt lat="42.98257" lon="-0.00294">
        <ele>1610</ele>
        <time>2017-01-18T10:23:21.078Z</time>
      </trkpt>
      <trkpt lat="42.98258" lon="-0.00295">
        <ele>1610</ele>
        <time>2017-01-18T10:23:22.078Z</time>
      </trkpt>
      <trkpt lat="42.98258" lon="-0.00295">
        <ele>1610</ele>
        <time>2017-01-18T10:23:23.078Z</time>
      </trkpt>
      <trkpt lat="42.98259" lon="-0.00295">
        <ele>1610</ele>
        <time>2017-01-18T10:23:24.078Z</time>
      </trkpt>
      <trkpt lat="42.98259" lon="-0.00295">
        <ele>1610</ele>
        <time>2017-01-18T10:23:25.078Z</time>
      </trkpt>
      <trkpt lat="42.9826" lon="-0.00295">
        <ele>1610</ele>
        <time>2017-01-18T10:23:26.078Z</time>
      </trkpt>
      <trkpt lat="42.98261" lon="-0.00295">
        <ele>1610</ele>
        <time>2017-01-18T10:23:27.078Z</time>
      </trkpt>
      <trkpt lat="42.98261" lon="-0.00295">
        <ele>1610</ele>
        <time>2017-01-18T10:23:28.078Z</time>
      </trkpt>
      <trkpt lat="42.98262" lon="-0.00295">
        <ele>1610</ele>
        <time>2017-01-18T10:23:29.078Z</time>
      </trkpt>
      <trkpt lat="42.98262" lon="-0.00295">
        <ele>1611</ele>
        <time>2017-01-18T10:23:30.078Z</time>
      </trkpt>
      <trkpt lat="42.98263" lon="-0.00295">
        <ele>1611</ele>
        <time>2017-01-18T10:23:31.078Z</time>
      </trkpt>
      <trkpt lat="42.98264" lon="-0.00296">
        <ele>1611</ele>
        <time>2017-01-18T10:23:32.078Z</time>
      </trkpt>
      <trkpt lat="42.98264" lon="-0.00296">
        <ele>1611</ele>
        <time>2017-01-18T10:23:33.078Z</time>
      </trkpt>
      <trkpt lat="42.98265" lon="-0.00296">
        <ele>1611</ele>
        <time>2017-01-18T10:23:34.078Z</time>
      </trkpt>
      <trkpt lat="42.98266" lon="-0.00297">
        <ele>1611</ele>
        <time>2017-01-18T10:23:35.078Z</time>
      </trkpt>
      <trkpt lat="42.98266" lon="-0.00297">
        <ele>1611</ele>
        <time>2017-01-18T10:23:36.078Z</time>
      </trkpt>
      <trkpt lat="42.98267" lon="-0.00297">
        <ele>1611</ele>
        <time>2017-01-18T10:23:37.078Z</time>
      </trkpt>
      <trkpt lat="42.98267" lon="-0.00297">
        <ele>1612</ele>
        <time>2017-01-18T10:23:38.078Z</time>
      </trkpt>
      <trkpt lat="42.98268" lon="-0.00297">
        <ele>1612</ele>
        <time>2017-01-18T10:23:39.078Z</time>
      </trkpt>
      <trkpt lat="42.98269" lon="-0.00298">
        <ele>1612</ele>
        <time>2017-01-18T10:23:40.078Z</time>
      </trkpt>
      <trkpt lat="42.98269" lon="-0.00298">
        <ele>1612</ele>
        <time>2017-01-18T10:23:41.078Z</time>
      </trkpt>
      <trkpt lat="42.9827" lon="-0.00298">
        <ele>1612</ele>
        <time>2017-01-18T10:23:42.078Z</time>
      </trkpt>
      <trkpt lat="42.98271" lon="-0.00298">
        <ele>1612</ele>
        <time>2017-01-18T10:23:43.078Z</time>
      </trkpt>
      <trkpt lat="42.98271" lon="-0.00298">
        <ele>1612</ele>
        <time>2017-01-18T10:23:44.078Z</time>
      </trkpt>
      <trkpt lat="42.98272" lon="-0.00298">
        <ele>1612</ele>
        <time>2017-01-18T10:23:45.078Z</time>
      </trkpt>
      <trkpt lat="42.98272" lon="-0.00299">
        <ele>1612</ele>
        <time>2017-01-18T10:23:46.078Z</time>
      </trkpt>
      <trkpt lat="42.98273" lon="-0.00299">
        <ele>1612</ele>
        <time>2017-01-18T10:23:47.078Z</time>
      </trkpt>
      <trkpt lat="42.98273" lon="-0.00299">
        <ele>1613</ele>
        <time>2017-01-18T10:23:48.078Z</time>
      </trkpt>
      <trkpt lat="42.98274" lon="-0.00299">
        <ele>1613</ele>
        <time>2017-01-18T10:23:49.078Z</time>
      </trkpt>
      <trkpt lat="42.98275" lon="-0.00299">
        <ele>1613</ele>
        <time>2017-01-18T10:23:50.078Z</time>
      </trkpt>
      <trkpt lat="42.98275" lon="-0.003">
        <ele>1613</ele>
        <time>2017-01-18T10:23:51.078Z</time>
      </trkpt>
      <trkpt lat="42.98276" lon="-0.003">
        <ele>1613</ele>
        <time>2017-01-18T10:23:52.078Z</time>
      </trkpt>
      <trkpt lat="42.98276" lon="-0.003">
        <ele>1613</ele>
        <time>2017-01-18T10:23:53.078Z</time>
      </trkpt>
      <trkpt lat="42.98277" lon="-0.003">
        <ele>1613</ele>
        <time>2017-01-18T10:23:54.078Z</time>
      </trkpt>
      <trkpt lat="42.98277" lon="-0.00301">
        <ele>1613</ele>
        <time>2017-01-18T10:23:55.078Z</time>
      </trkpt>
      <trkpt lat="42.98278" lon="-0.00301">
        <ele>1613</ele>
        <time>2017-01-18T10:23:56.078Z</time>
      </trkpt>
      <trkpt lat="42.98279" lon="-0.00301">
        <ele>1613</ele>
        <time>2017-01-18T10:23:57.078Z</time>
      </trkpt>
      <trkpt lat="42.98279" lon="-0.00301">
        <ele>1613</ele>
        <time>2017-01-18T10:23:58.078Z</time>
      </trkpt>
      <trkpt lat="42.9828" lon="-0.00302">
        <ele>1613</ele>
        <time>2017-01-18T10:23:59.078Z</time>
      </trkpt>
      <trkpt lat="42.9828" lon="-0.00302">
        <ele>1614</ele>
        <time>2017-01-18T10:24:00.078Z</time>
      </trkpt>
      <trkpt lat="42.98281" lon="-0.00302">
        <ele>1613</ele>
        <time>2017-01-18T10:24:01.078Z</time>
      </trkpt>
      <trkpt lat="42.98281" lon="-0.00302">
        <ele>1614</ele>
        <time>2017-01-18T10:24:02.078Z</time>
      </trkpt>
      <trkpt lat="42.98282" lon="-0.00302">
        <ele>1614</ele>
        <time>2017-01-18T10:24:03.078Z</time>
      </trkpt>
      <trkpt lat="42.98282" lon="-0.00303">
        <ele>1614</ele>
        <time>2017-01-18T10:24:04.078Z</time>
      </trkpt>
      <trkpt lat="42.98283" lon="-0.00303">
        <ele>1614</ele>
        <time>2017-01-18T10:24:05.078Z</time>
      </trkpt>
      <trkpt lat="42.98284" lon="-0.00303">
        <ele>1613</ele>
        <time>2017-01-18T10:24:06.078Z</time>
      </trkpt>
      <trkpt lat="42.98284" lon="-0.00303">
        <ele>1613</ele>
        <time>2017-01-18T10:24:07.078Z</time>
      </trkpt>
      <trkpt lat="42.98284" lon="-0.00303">
        <ele>1613</ele>
        <time>2017-01-18T10:24:08.078Z</time>
      </trkpt>
      <trkpt lat="42.98285" lon="-0.00303">
        <ele>1613</ele>
        <time>2017-01-18T10:24:09.078Z</time>
      </trkpt>
      <trkpt lat="42.98285" lon="-0.00303">
        <ele>1613</ele>
        <time>2017-01-18T10:24:10.078Z</time>
      </trkpt>
      <trkpt lat="42.98285" lon="-0.00303">
        <ele>1613</ele>
        <time>2017-01-18T10:24:11.078Z</time>
      </trkpt>
      <trkpt lat="42.98285" lon="-0.00303">
        <ele>1613</ele>
        <time>2017-01-18T10:24:12.078Z</time>
      </trkpt>
      <trkpt lat="42.98285" lon="-0.00303">
        <ele>1613</ele>
        <time>2017-01-18T10:24:13.078Z</time>
      </trkpt>
      <trkpt lat="42.98285" lon="-0.00303">
        <ele>1613</ele>
        <time>2017-01-18T10:24:14.078Z</time>
      </trkpt>
      <trkpt lat="42.98286" lon="-0.00302">
        <ele>1613</ele>
        <time>2017-01-18T10:24:15.090Z</time>
      </trkpt>
      <trkpt lat="42.98286" lon="-0.00302">
        <ele>1613</ele>
        <time>2017-01-18T10:24:16.090Z</time>
      </trkpt>
      <trkpt lat="42.98287" lon="-0.00302">
        <ele>1613</ele>
        <time>2017-01-18T10:24:17.090Z</time>
      </trkpt>
      <trkpt lat="42.98287" lon="-0.00302">
        <ele>1613</ele>
        <time>2017-01-18T10:24:18.090Z</time>
      </trkpt>
      <trkpt lat="42.98287" lon="-0.00302">
        <ele>1613</ele>
        <time>2017-01-18T10:24:19.090Z</time>
      </trkpt>
      <trkpt lat="42.98287" lon="-0.00303">
        <ele>1612</ele>
        <time>2017-01-18T10:24:20.090Z</time>
      </trkpt>
      <trkpt lat="42.98289" lon="-0.00303">
        <ele>1613</ele>
        <time>2017-01-18T10:24:21.102Z</time>
      </trkpt>
      <trkpt lat="42.98289" lon="-0.00304">
        <ele>1613</ele>
        <time>2017-01-18T10:24:22.102Z</time>
      </trkpt>
      <trkpt lat="42.9829" lon="-0.00304">
        <ele>1613</ele>
        <time>2017-01-18T10:24:23.102Z</time>
      </trkpt>
      <trkpt lat="42.9829" lon="-0.00305">
        <ele>1613</ele>
        <time>2017-01-18T10:24:24.102Z</time>
      </trkpt>
      <trkpt lat="42.98291" lon="-0.00306">
        <ele>1613</ele>
        <time>2017-01-18T10:24:25.102Z</time>
      </trkpt>
      <trkpt lat="42.98292" lon="-0.00306">
        <ele>1613</ele>
        <time>2017-01-18T10:24:26.102Z</time>
      </trkpt>
      <trkpt lat="42.98292" lon="-0.00307">
        <ele>1613</ele>
        <time>2017-01-18T10:24:27.102Z</time>
      </trkpt>
      <trkpt lat="42.98293" lon="-0.00308">
        <ele>1613</ele>
        <time>2017-01-18T10:24:28.102Z</time>
      </trkpt>
      <trkpt lat="42.98294" lon="-0.00308">
        <ele>1613</ele>
        <time>2017-01-18T10:24:29.102Z</time>
      </trkpt>
      <trkpt lat="42.98294" lon="-0.00309">
        <ele>1612</ele>
        <time>2017-01-18T10:24:30.102Z</time>
      </trkpt>
      <trkpt lat="42.98295" lon="-0.00309">
        <ele>1612</ele>
        <time>2017-01-18T10:24:31.102Z</time>
      </trkpt>
      <trkpt lat="42.98295" lon="-0.0031">
        <ele>1612</ele>
        <time>2017-01-18T10:24:32.102Z</time>
      </trkpt>
      <trkpt lat="42.98296" lon="-0.00311">
        <ele>1612</ele>
        <time>2017-01-18T10:24:33.102Z</time>
      </trkpt>
      <trkpt lat="42.98296" lon="-0.00312">
        <ele>1612</ele>
        <time>2017-01-18T10:24:34.102Z</time>
      </trkpt>
      <trkpt lat="42.98297" lon="-0.00312">
        <ele>1611</ele>
        <time>2017-01-18T10:24:35.102Z</time>
      </trkpt>
      <trkpt lat="42.98298" lon="-0.00313">
        <ele>1612</ele>
        <time>2017-01-18T10:24:36.102Z</time>
      </trkpt>
      <trkpt lat="42.98298" lon="-0.00314">
        <ele>1611</ele>
        <time>2017-01-18T10:24:37.102Z</time>
      </trkpt>
      <trkpt lat="42.98299" lon="-0.00314">
        <ele>1611</ele>
        <time>2017-01-18T10:24:38.102Z</time>
      </trkpt>
      <trkpt lat="42.98299" lon="-0.00315">
        <ele>1612</ele>
        <time>2017-01-18T10:24:39.102Z</time>
      </trkpt>
      <trkpt lat="42.983" lon="-0.00316">
        <ele>1611</ele>
        <time>2017-01-18T10:24:40.102Z</time>
      </trkpt>
      <trkpt lat="42.98301" lon="-0.00317">
        <ele>1611</ele>
        <time>2017-01-18T10:24:41.102Z</time>
      </trkpt>
      <trkpt lat="42.98301" lon="-0.00317">
        <ele>1611</ele>
        <time>2017-01-18T10:24:42.102Z</time>
      </trkpt>
      <trkpt lat="42.98302" lon="-0.00318">
        <ele>1611</ele>
        <time>2017-01-18T10:24:43.102Z</time>
      </trkpt>
      <trkpt lat="42.98302" lon="-0.00319">
        <ele>1611</ele>
        <time>2017-01-18T10:24:44.102Z</time>
      </trkpt>
      <trkpt lat="42.98303" lon="-0.00319">
        <ele>1611</ele>
        <time>2017-01-18T10:24:45.102Z</time>
      </trkpt>
      <trkpt lat="42.98303" lon="-0.0032">
        <ele>1610</ele>
        <time>2017-01-18T10:24:46.102Z</time>
      </trkpt>
      <trkpt lat="42.98304" lon="-0.00321">
        <ele>1610</ele>
        <time>2017-01-18T10:24:47.102Z</time>
      </trkpt>
      <trkpt lat="42.98304" lon="-0.00322">
        <ele>1610</ele>
        <time>2017-01-18T10:24:48.102Z</time>
      </trkpt>
      <trkpt lat="42.98305" lon="-0.00323">
        <ele>1610</ele>
        <time>2017-01-18T10:24:49.102Z</time>
      </trkpt>
      <trkpt lat="42.98305" lon="-0.00324">
        <ele>1609</ele>
        <time>2017-01-18T10:24:50.102Z</time>
      </trkpt>
      <trkpt lat="42.98306" lon="-0.00325">
        <ele>1610</ele>
        <time>2017-01-18T10:24:51.102Z</time>
      </trkpt>
      <trkpt lat="42.98306" lon="-0.00325">
        <ele>1609</ele>
        <time>2017-01-18T10:24:52.102Z</time>
      </trkpt>
      <trkpt lat="42.98307" lon="-0.00326">
        <ele>1609</ele>
        <time>2017-01-18T10:24:53.102Z</time>
      </trkpt>
      <trkpt lat="42.98307" lon="-0.00326">
        <ele>1609</ele>
        <time>2017-01-18T10:24:54.102Z</time>
      </trkpt>
      <trkpt lat="42.98307" lon="-0.00327">
        <ele>1609</ele>
        <time>2017-01-18T10:24:55.102Z</time>
      </trkpt>
      <trkpt lat="42.98308" lon="-0.00327">
        <ele>1609</ele>
        <time>2017-01-18T10:24:56.102Z</time>
      </trkpt>
      <trkpt lat="42.98308" lon="-0.00328">
        <ele>1609</ele>
        <time>2017-01-18T10:24:57.102Z</time>
      </trkpt>
      <trkpt lat="42.98309" lon="-0.00328">
        <ele>1609</ele>
        <time>2017-01-18T10:24:58.102Z</time>
      </trkpt>
      <trkpt lat="42.98309" lon="-0.00329">
        <ele>1609</ele>
        <time>2017-01-18T10:24:59.102Z</time>
      </trkpt>
      <trkpt lat="42.9831" lon="-0.0033">
        <ele>1609</ele>
        <time>2017-01-18T10:25:00.102Z</time>
      </trkpt>
      <trkpt lat="42.9831" lon="-0.00331">
        <ele>1609</ele>
        <time>2017-01-18T10:25:01.102Z</time>
      </trkpt>
      <trkpt lat="42.98311" lon="-0.00332">
        <ele>1609</ele>
        <time>2017-01-18T10:25:02.102Z</time>
      </trkpt>
      <trkpt lat="42.98311" lon="-0.00333">
        <ele>1609</ele>
        <time>2017-01-18T10:25:03.102Z</time>
      </trkpt>
      <trkpt lat="42.98312" lon="-0.00334">
        <ele>1608</ele>
        <time>2017-01-18T10:25:04.102Z</time>
      </trkpt>
      <trkpt lat="42.98312" lon="-0.00335">
        <ele>1608</ele>
        <time>2017-01-18T10:25:05.102Z</time>
      </trkpt>
      <trkpt lat="42.98313" lon="-0.00336">
        <ele>1608</ele>
        <time>2017-01-18T10:25:06.102Z</time>
      </trkpt>
      <trkpt lat="42.98313" lon="-0.00336">
        <ele>1608</ele>
        <time>2017-01-18T10:25:07.102Z</time>
      </trkpt>
      <trkpt lat="42.98314" lon="-0.00337">
        <ele>1608</ele>
        <time>2017-01-18T10:25:08.102Z</time>
      </trkpt>
      <trkpt lat="42.98314" lon="-0.00338">
        <ele>1608</ele>
        <time>2017-01-18T10:25:09.102Z</time>
      </trkpt>
      <trkpt lat="42.98315" lon="-0.00339">
        <ele>1608</ele>
        <time>2017-01-18T10:25:10.102Z</time>
      </trkpt>
      <trkpt lat="42.98316" lon="-0.0034">
        <ele>1608</ele>
        <time>2017-01-18T10:25:11.102Z</time>
      </trkpt>
      <trkpt lat="42.98316" lon="-0.0034">
        <ele>1607</ele>
        <time>2017-01-18T10:25:12.102Z</time>
      </trkpt>
      <trkpt lat="42.98317" lon="-0.00341">
        <ele>1607</ele>
        <time>2017-01-18T10:25:13.102Z</time>
      </trkpt>
      <trkpt lat="42.98317" lon="-0.00342">
        <ele>1607</ele>
        <time>2017-01-18T10:25:14.102Z</time>
      </trkpt>
      <trkpt lat="42.98318" lon="-0.00343">
        <ele>1607</ele>
        <time>2017-01-18T10:25:15.102Z</time>
      </trkpt>
      <trkpt lat="42.98318" lon="-0.00344">
        <ele>1607</ele>
        <time>2017-01-18T10:25:16.102Z</time>
      </trkpt>
      <trkpt lat="42.98319" lon="-0.00344">
        <ele>1607</ele>
        <time>2017-01-18T10:25:17.102Z</time>
      </trkpt>
      <trkpt lat="42.9832" lon="-0.00345">
        <ele>1607</ele>
        <time>2017-01-18T10:25:18.102Z</time>
      </trkpt>
      <trkpt lat="42.9832" lon="-0.00346">
        <ele>1607</ele>
        <time>2017-01-18T10:25:19.102Z</time>
      </trkpt>
      <trkpt lat="42.98321" lon="-0.00347">
        <ele>1607</ele>
        <time>2017-01-18T10:25:20.102Z</time>
      </trkpt>
      <trkpt lat="42.98321" lon="-0.00348">
        <ele>1607</ele>
        <time>2017-01-18T10:25:21.102Z</time>
      </trkpt>
      <trkpt lat="42.98322" lon="-0.00349">
        <ele>1607</ele>
        <time>2017-01-18T10:25:22.102Z</time>
      </trkpt>
      <trkpt lat="42.98323" lon="-0.00349">
        <ele>1607</ele>
        <time>2017-01-18T10:25:23.102Z</time>
      </trkpt>
      <trkpt lat="42.98323" lon="-0.0035">
        <ele>1607</ele>
        <time>2017-01-18T10:25:24.102Z</time>
      </trkpt>
      <trkpt lat="42.98324" lon="-0.00351">
        <ele>1607</ele>
        <time>2017-01-18T10:25:25.102Z</time>
      </trkpt>
      <trkpt lat="42.98324" lon="-0.00352">
        <ele>1607</ele>
        <time>2017-01-18T10:25:26.102Z</time>
      </trkpt>
      <trkpt lat="42.98325" lon="-0.00353">
        <ele>1607</ele>
        <time>2017-01-18T10:25:27.102Z</time>
      </trkpt>
      <trkpt lat="42.98326" lon="-0.00354">
        <ele>1606</ele>
        <time>2017-01-18T10:25:28.102Z</time>
      </trkpt>
      <trkpt lat="42.98326" lon="-0.00355">
        <ele>1606</ele>
        <time>2017-01-18T10:25:29.102Z</time>
      </trkpt>
      <trkpt lat="42.98327" lon="-0.00356">
        <ele>1606</ele>
        <time>2017-01-18T10:25:30.102Z</time>
      </trkpt>
      <trkpt lat="42.98327" lon="-0.00357">
        <ele>1606</ele>
        <time>2017-01-18T10:25:31.102Z</time>
      </trkpt>
      <trkpt lat="42.98328" lon="-0.00357">
        <ele>1606</ele>
        <time>2017-01-18T10:25:32.102Z</time>
      </trkpt>
      <trkpt lat="42.98328" lon="-0.00358">
        <ele>1606</ele>
        <time>2017-01-18T10:25:33.102Z</time>
      </trkpt>
      <trkpt lat="42.98329" lon="-0.0036">
        <ele>1606</ele>
        <time>2017-01-18T10:25:34.102Z</time>
      </trkpt>
      <trkpt lat="42.98329" lon="-0.00361">
        <ele>1606</ele>
        <time>2017-01-18T10:25:35.102Z</time>
      </trkpt>
      <trkpt lat="42.9833" lon="-0.00362">
        <ele>1606</ele>
        <time>2017-01-18T10:25:36.102Z</time>
      </trkpt>
      <trkpt lat="42.9833" lon="-0.00363">
        <ele>1605</ele>
        <time>2017-01-18T10:25:37.102Z</time>
      </trkpt>
      <trkpt lat="42.98331" lon="-0.00364">
        <ele>1605</ele>
        <time>2017-01-18T10:25:38.102Z</time>
      </trkpt>
      <trkpt lat="42.98331" lon="-0.00365">
        <ele>1606</ele>
        <time>2017-01-18T10:25:39.102Z</time>
      </trkpt>
      <trkpt lat="42.98332" lon="-0.00366">
        <ele>1606</ele>
        <time>2017-01-18T10:25:40.102Z</time>
      </trkpt>
      <trkpt lat="42.98332" lon="-0.00367">
        <ele>1605</ele>
        <time>2017-01-18T10:25:41.102Z</time>
      </trkpt>
      <trkpt lat="42.98333" lon="-0.00368">
        <ele>1605</ele>
        <time>2017-01-18T10:25:42.102Z</time>
      </trkpt>
      <trkpt lat="42.98333" lon="-0.00369">
        <ele>1605</ele>
        <time>2017-01-18T10:25:43.102Z</time>
      </trkpt>
      <trkpt lat="42.98334" lon="-0.0037">
        <ele>1606</ele>
        <time>2017-01-18T10:25:44.102Z</time>
      </trkpt>
      <trkpt lat="42.98334" lon="-0.00371">
        <ele>1605</ele>
        <time>2017-01-18T10:25:45.102Z</time>
      </trkpt>
      <trkpt lat="42.98335" lon="-0.00372">
        <ele>1606</ele>
        <time>2017-01-18T10:25:46.102Z</time>
      </trkpt>
      <trkpt lat="42.98335" lon="-0.00373">
        <ele>1606</ele>
        <time>2017-01-18T10:25:47.102Z</time>
      </trkpt>
      <trkpt lat="42.98335" lon="-0.00374">
        <ele>1606</ele>
        <time>2017-01-18T10:25:48.102Z</time>
      </trkpt>
      <trkpt lat="42.98336" lon="-0.00375">
        <ele>1606</ele>
        <time>2017-01-18T10:25:49.102Z</time>
      </trkpt>
      <trkpt lat="42.98336" lon="-0.00375">
        <ele>1605</ele>
        <time>2017-01-18T10:25:50.102Z</time>
      </trkpt>
      <trkpt lat="42.98337" lon="-0.00376">
        <ele>1605</ele>
        <time>2017-01-18T10:25:51.102Z</time>
      </trkpt>
      <trkpt lat="42.98337" lon="-0.00377">
        <ele>1605</ele>
        <time>2017-01-18T10:25:52.102Z</time>
      </trkpt>
      <trkpt lat="42.98338" lon="-0.00377">
        <ele>1605</ele>
        <time>2017-01-18T10:25:53.102Z</time>
      </trkpt>
      <trkpt lat="42.98338" lon="-0.00378">
        <ele>1605</ele>
        <time>2017-01-18T10:25:54.102Z</time>
      </trkpt>
      <trkpt lat="42.98339" lon="-0.00379">
        <ele>1605</ele>
        <time>2017-01-18T10:25:55.102Z</time>
      </trkpt>
      <trkpt lat="42.98339" lon="-0.0038">
        <ele>1605</ele>
        <time>2017-01-18T10:25:56.102Z</time>
      </trkpt>
      <trkpt lat="42.98339" lon="-0.00381">
        <ele>1605</ele>
        <time>2017-01-18T10:25:57.102Z</time>
      </trkpt>
      <trkpt lat="42.9834" lon="-0.00382">
        <ele>1605</ele>
        <time>2017-01-18T10:25:58.102Z</time>
      </trkpt>
      <trkpt lat="42.9834" lon="-0.00383">
        <ele>1605</ele>
        <time>2017-01-18T10:25:59.102Z</time>
      </trkpt>
      <trkpt lat="42.98341" lon="-0.00383">
        <ele>1605</ele>
        <time>2017-01-18T10:26:00.102Z</time>
      </trkpt>
      <trkpt lat="42.98341" lon="-0.00384">
        <ele>1605</ele>
        <time>2017-01-18T10:26:01.102Z</time>
      </trkpt>
      <trkpt lat="42.98342" lon="-0.00385">
        <ele>1605</ele>
        <time>2017-01-18T10:26:02.102Z</time>
      </trkpt>
      <trkpt lat="42.98342" lon="-0.00386">
        <ele>1605</ele>
        <time>2017-01-18T10:26:03.102Z</time>
      </trkpt>
      <trkpt lat="42.98343" lon="-0.00387">
        <ele>1605</ele>
        <time>2017-01-18T10:26:04.102Z</time>
      </trkpt>
      <trkpt lat="42.98343" lon="-0.00388">
        <ele>1605</ele>
        <time>2017-01-18T10:26:05.102Z</time>
      </trkpt>
      <trkpt lat="42.98343" lon="-0.00389">
        <ele>1605</ele>
        <time>2017-01-18T10:26:06.102Z</time>
      </trkpt>
      <trkpt lat="42.98344" lon="-0.0039">
        <ele>1605</ele>
        <time>2017-01-18T10:26:07.102Z</time>
      </trkpt>
      <trkpt lat="42.98344" lon="-0.00391">
        <ele>1605</ele>
        <time>2017-01-18T10:26:08.102Z</time>
      </trkpt>
      <trkpt lat="42.98345" lon="-0.00392">
        <ele>1605</ele>
        <time>2017-01-18T10:26:09.102Z</time>
      </trkpt>
      <trkpt lat="42.98345" lon="-0.00393">
        <ele>1605</ele>
        <time>2017-01-18T10:26:10.102Z</time>
      </trkpt>
      <trkpt lat="42.98346" lon="-0.00394">
        <ele>1604</ele>
        <time>2017-01-18T10:26:11.102Z</time>
      </trkpt>
      <trkpt lat="42.98346" lon="-0.00395">
        <ele>1604</ele>
        <time>2017-01-18T10:26:12.102Z</time>
      </trkpt>
      <trkpt lat="42.98347" lon="-0.00396">
        <ele>1604</ele>
        <time>2017-01-18T10:26:13.102Z</time>
      </trkpt>
      <trkpt lat="42.98347" lon="-0.00397">
        <ele>1604</ele>
        <time>2017-01-18T10:26:14.102Z</time>
      </trkpt>
      <trkpt lat="42.98348" lon="-0.00398">
        <ele>1604</ele>
        <time>2017-01-18T10:26:15.102Z</time>
      </trkpt>
      <trkpt lat="42.98348" lon="-0.00399">
        <ele>1604</ele>
        <time>2017-01-18T10:26:16.102Z</time>
      </trkpt>
      <trkpt lat="42.98349" lon="-0.004">
        <ele>1604</ele>
        <time>2017-01-18T10:26:17.102Z</time>
      </trkpt>
      <trkpt lat="42.98349" lon="-0.00402">
        <ele>1604</ele>
        <time>2017-01-18T10:26:18.102Z</time>
      </trkpt>
      <trkpt lat="42.9835" lon="-0.00403">
        <ele>1604</ele>
        <time>2017-01-18T10:26:19.102Z</time>
      </trkpt>
      <trkpt lat="42.9835" lon="-0.00404">
        <ele>1604</ele>
        <time>2017-01-18T10:26:20.102Z</time>
      </trkpt>
      <trkpt lat="42.98351" lon="-0.00405">
        <ele>1604</ele>
        <time>2017-01-18T10:26:21.102Z</time>
      </trkpt>
      <trkpt lat="42.98351" lon="-0.00406">
        <ele>1604</ele>
        <time>2017-01-18T10:26:22.102Z</time>
      </trkpt>
      <trkpt lat="42.98352" lon="-0.00407">
        <ele>1604</ele>
        <time>2017-01-18T10:26:23.102Z</time>
      </trkpt>
      <trkpt lat="42.98352" lon="-0.00408">
        <ele>1604</ele>
        <time>2017-01-18T10:26:24.102Z</time>
      </trkpt>
      <trkpt lat="42.98353" lon="-0.00409">
        <ele>1604</ele>
        <time>2017-01-18T10:26:25.102Z</time>
      </trkpt>
      <trkpt lat="42.98353" lon="-0.0041">
        <ele>1604</ele>
        <time>2017-01-18T10:26:26.102Z</time>
      </trkpt>
      <trkpt lat="42.98354" lon="-0.00411">
        <ele>1603</ele>
        <time>2017-01-18T10:26:27.102Z</time>
      </trkpt>
      <trkpt lat="42.98354" lon="-0.00412">
        <ele>1603</ele>
        <time>2017-01-18T10:26:28.102Z</time>
      </trkpt>
      <trkpt lat="42.98355" lon="-0.00413">
        <ele>1603</ele>
        <time>2017-01-18T10:26:29.102Z</time>
      </trkpt>
      <trkpt lat="42.98355" lon="-0.00414">
        <ele>1603</ele>
        <time>2017-01-18T10:26:30.102Z</time>
      </trkpt>
      <trkpt lat="42.98356" lon="-0.00415">
        <ele>1603</ele>
        <time>2017-01-18T10:26:31.102Z</time>
      </trkpt>
      <trkpt lat="42.98356" lon="-0.00416">
        <ele>1603</ele>
        <time>2017-01-18T10:26:32.102Z</time>
      </trkpt>
      <trkpt lat="42.98357" lon="-0.00417">
        <ele>1603</ele>
        <time>2017-01-18T10:26:33.102Z</time>
      </trkpt>
      <trkpt lat="42.98357" lon="-0.00418">
        <ele>1603</ele>
        <time>2017-01-18T10:26:34.102Z</time>
      </trkpt>
      <trkpt lat="42.98358" lon="-0.00419">
        <ele>1603</ele>
        <time>2017-01-18T10:26:35.102Z</time>
      </trkpt>
      <trkpt lat="42.98358" lon="-0.0042">
        <ele>1603</ele>
        <time>2017-01-18T10:26:36.102Z</time>
      </trkpt>
      <trkpt lat="42.98359" lon="-0.00421">
        <ele>1603</ele>
        <time>2017-01-18T10:26:37.102Z</time>
      </trkpt>
      <trkpt lat="42.98359" lon="-0.00422">
        <ele>1602</ele>
        <time>2017-01-18T10:26:38.102Z</time>
      </trkpt>
      <trkpt lat="42.9836" lon="-0.00423">
        <ele>1602</ele>
        <time>2017-01-18T10:26:39.102Z</time>
      </trkpt>
      <trkpt lat="42.98361" lon="-0.00424">
        <ele>1602</ele>
        <time>2017-01-18T10:26:40.102Z</time>
      </trkpt>
      <trkpt lat="42.98361" lon="-0.00425">
        <ele>1602</ele>
        <time>2017-01-18T10:26:41.102Z</time>
      </trkpt>
      <trkpt lat="42.98362" lon="-0.00426">
        <ele>1602</ele>
        <time>2017-01-18T10:26:42.102Z</time>
      </trkpt>
      <trkpt lat="42.98362" lon="-0.00427">
        <ele>1602</ele>
        <time>2017-01-18T10:26:43.102Z</time>
      </trkpt>
      <trkpt lat="42.98363" lon="-0.00428">
        <ele>1602</ele>
        <time>2017-01-18T10:26:44.102Z</time>
      </trkpt>
      <trkpt lat="42.98363" lon="-0.00429">
        <ele>1602</ele>
        <time>2017-01-18T10:26:45.102Z</time>
      </trkpt>
      <trkpt lat="42.98364" lon="-0.0043">
        <ele>1602</ele>
        <time>2017-01-18T10:26:46.102Z</time>
      </trkpt>
      <trkpt lat="42.98364" lon="-0.00431">
        <ele>1602</ele>
        <time>2017-01-18T10:26:47.102Z</time>
      </trkpt>
      <trkpt lat="42.98365" lon="-0.00432">
        <ele>1602</ele>
        <time>2017-01-18T10:26:48.102Z</time>
      </trkpt>
      <trkpt lat="42.98365" lon="-0.00433">
        <ele>1602</ele>
        <time>2017-01-18T10:26:49.102Z</time>
      </trkpt>
      <trkpt lat="42.98366" lon="-0.00434">
        <ele>1602</ele>
        <time>2017-01-18T10:26:50.102Z</time>
      </trkpt>
      <trkpt lat="42.98366" lon="-0.00435">
        <ele>1602</ele>
        <time>2017-01-18T10:26:51.102Z</time>
      </trkpt>
      <trkpt lat="42.98367" lon="-0.00436">
        <ele>1602</ele>
        <time>2017-01-18T10:26:52.102Z</time>
      </trkpt>
      <trkpt lat="42.98368" lon="-0.00437">
        <ele>1602</ele>
        <time>2017-01-18T10:26:53.102Z</time>
      </trkpt>
      <trkpt lat="42.98368" lon="-0.00438">
        <ele>1601</ele>
        <time>2017-01-18T10:26:54.102Z</time>
      </trkpt>
      <trkpt lat="42.98369" lon="-0.00439">
        <ele>1601</ele>
        <time>2017-01-18T10:26:55.102Z</time>
      </trkpt>
      <trkpt lat="42.98369" lon="-0.0044">
        <ele>1601</ele>
        <time>2017-01-18T10:26:56.102Z</time>
      </trkpt>
      <trkpt lat="42.9837" lon="-0.00441">
        <ele>1601</ele>
        <time>2017-01-18T10:26:57.102Z</time>
      </trkpt>
      <trkpt lat="42.9837" lon="-0.00442">
        <ele>1601</ele>
        <time>2017-01-18T10:26:58.102Z</time>
      </trkpt>
      <trkpt lat="42.98371" lon="-0.00442">
        <ele>1601</ele>
        <time>2017-01-18T10:26:59.102Z</time>
      </trkpt>
      <trkpt lat="42.98371" lon="-0.00443">
        <ele>1601</ele>
        <time>2017-01-18T10:27:00.102Z</time>
      </trkpt>
      <trkpt lat="42.98372" lon="-0.00444">
        <ele>1601</ele>
        <time>2017-01-18T10:27:01.102Z</time>
      </trkpt>
      <trkpt lat="42.98373" lon="-0.00445">
        <ele>1601</ele>
        <time>2017-01-18T10:27:02.102Z</time>
      </trkpt>
      <trkpt lat="42.98373" lon="-0.00446">
        <ele>1601</ele>
        <time>2017-01-18T10:27:03.102Z</time>
      </trkpt>
      <trkpt lat="42.98374" lon="-0.00447">
        <ele>1601</ele>
        <time>2017-01-18T10:27:04.102Z</time>
      </trkpt>
      <trkpt lat="42.98375" lon="-0.00448">
        <ele>1600</ele>
        <time>2017-01-18T10:27:05.102Z</time>
      </trkpt>
      <trkpt lat="42.98375" lon="-0.00449">
        <ele>1600</ele>
        <time>2017-01-18T10:27:06.102Z</time>
      </trkpt>
      <trkpt lat="42.98376" lon="-0.0045">
        <ele>1600</ele>
        <time>2017-01-18T10:27:07.102Z</time>
      </trkpt>
      <trkpt lat="42.98376" lon="-0.00451">
        <ele>1600</ele>
        <time>2017-01-18T10:27:08.102Z</time>
      </trkpt>
      <trkpt lat="42.98377" lon="-0.00452">
        <ele>1600</ele>
        <time>2017-01-18T10:27:09.102Z</time>
      </trkpt>
      <trkpt lat="42.98377" lon="-0.00453">
        <ele>1600</ele>
        <time>2017-01-18T10:27:10.102Z</time>
      </trkpt>
      <trkpt lat="42.98378" lon="-0.00454">
        <ele>1600</ele>
        <time>2017-01-18T10:27:11.102Z</time>
      </trkpt>
      <trkpt lat="42.98378" lon="-0.00455">
        <ele>1600</ele>
        <time>2017-01-18T10:27:12.102Z</time>
      </trkpt>
      <trkpt lat="42.98379" lon="-0.00455">
        <ele>1600</ele>
        <time>2017-01-18T10:27:13.102Z</time>
      </trkpt>
      <trkpt lat="42.98379" lon="-0.00456">
        <ele>1600</ele>
        <time>2017-01-18T10:27:14.102Z</time>
      </trkpt>
      <trkpt lat="42.9838" lon="-0.00457">
        <ele>1600</ele>
        <time>2017-01-18T10:27:15.102Z</time>
      </trkpt>
      <trkpt lat="42.9838" lon="-0.00458">
        <ele>1600</ele>
        <time>2017-01-18T10:27:16.102Z</time>
      </trkpt>
      <trkpt lat="42.98381" lon="-0.00459">
        <ele>1600</ele>
        <time>2017-01-18T10:27:17.102Z</time>
      </trkpt>
      <trkpt lat="42.98381" lon="-0.0046">
        <ele>1600</ele>
        <time>2017-01-18T10:27:18.102Z</time>
      </trkpt>
      <trkpt lat="42.98382" lon="-0.00461">
        <ele>1600</ele>
        <time>2017-01-18T10:27:19.102Z</time>
      </trkpt>
      <trkpt lat="42.98383" lon="-0.00462">
        <ele>1599</ele>
        <time>2017-01-18T10:27:20.102Z</time>
      </trkpt>
      <trkpt lat="42.98383" lon="-0.00463">
        <ele>1599</ele>
        <time>2017-01-18T10:27:21.102Z</time>
      </trkpt>
      <trkpt lat="42.98384" lon="-0.00464">
        <ele>1599</ele>
        <time>2017-01-18T10:27:22.102Z</time>
      </trkpt>
      <trkpt lat="42.98385" lon="-0.00465">
        <ele>1599</ele>
        <time>2017-01-18T10:27:23.102Z</time>
      </trkpt>
      <trkpt lat="42.98385" lon="-0.00466">
        <ele>1599</ele>
        <time>2017-01-18T10:27:24.102Z</time>
      </trkpt>
      <trkpt lat="42.98386" lon="-0.00467">
        <ele>1599</ele>
        <time>2017-01-18T10:27:25.102Z</time>
      </trkpt>
      <trkpt lat="42.98386" lon="-0.00468">
        <ele>1599</ele>
        <time>2017-01-18T10:27:26.102Z</time>
      </trkpt>
      <trkpt lat="42.98387" lon="-0.00469">
        <ele>1599</ele>
        <time>2017-01-18T10:27:27.102Z</time>
      </trkpt>
      <trkpt lat="42.98387" lon="-0.0047">
        <ele>1599</ele>
        <time>2017-01-18T10:27:28.102Z</time>
      </trkpt>
      <trkpt lat="42.98388" lon="-0.0047">
        <ele>1599</ele>
        <time>2017-01-18T10:27:29.102Z</time>
      </trkpt>
      <trkpt lat="42.98389" lon="-0.00471">
        <ele>1599</ele>
        <time>2017-01-18T10:27:30.102Z</time>
      </trkpt>
      <trkpt lat="42.98389" lon="-0.00472">
        <ele>1599</ele>
        <time>2017-01-18T10:27:31.102Z</time>
      </trkpt>
      <trkpt lat="42.9839" lon="-0.00473">
        <ele>1598</ele>
        <time>2017-01-18T10:27:32.102Z</time>
      </trkpt>
      <trkpt lat="42.9839" lon="-0.00474">
        <ele>1598</ele>
        <time>2017-01-18T10:27:33.102Z</time>
      </trkpt>
      <trkpt lat="42.98391" lon="-0.00475">
        <ele>1598</ele>
        <time>2017-01-18T10:27:34.102Z</time>
      </trkpt>
      <trkpt lat="42.98392" lon="-0.00475">
        <ele>1598</ele>
        <time>2017-01-18T10:27:35.102Z</time>
      </trkpt>
      <trkpt lat="42.98392" lon="-0.00476">
        <ele>1598</ele>
        <time>2017-01-18T10:27:36.102Z</time>
      </trkpt>
      <trkpt lat="42.98393" lon="-0.00477">
        <ele>1598</ele>
        <time>2017-01-18T10:27:37.102Z</time>
      </trkpt>
      <trkpt lat="42.98393" lon="-0.00478">
        <ele>1598</ele>
        <time>2017-01-18T10:27:38.102Z</time>
      </trkpt>
      <trkpt lat="42.98394" lon="-0.00479">
        <ele>1597</ele>
        <time>2017-01-18T10:27:39.102Z</time>
      </trkpt>
      <trkpt lat="42.98395" lon="-0.0048">
        <ele>1598</ele>
        <time>2017-01-18T10:27:40.102Z</time>
      </trkpt>
      <trkpt lat="42.98395" lon="-0.00481">
        <ele>1597</ele>
        <time>2017-01-18T10:27:41.102Z</time>
      </trkpt>
      <trkpt lat="42.98396" lon="-0.00482">
        <ele>1597</ele>
        <time>2017-01-18T10:27:42.102Z</time>
      </trkpt>
      <trkpt lat="42.98396" lon="-0.00483">
        <ele>1597</ele>
        <time>2017-01-18T10:27:43.102Z</time>
      </trkpt>
      <trkpt lat="42.98397" lon="-0.00484">
        <ele>1597</ele>
        <time>2017-01-18T10:27:44.102Z</time>
      </trkpt>
      <trkpt lat="42.98397" lon="-0.00484">
        <ele>1597</ele>
        <time>2017-01-18T10:27:45.102Z</time>
      </trkpt>
      <trkpt lat="42.98397" lon="-0.00485">
        <ele>1597</ele>
        <time>2017-01-18T10:27:46.102Z</time>
      </trkpt>
      <trkpt lat="42.98398" lon="-0.00486">
        <ele>1597</ele>
        <time>2017-01-18T10:27:47.102Z</time>
      </trkpt>
      <trkpt lat="42.98398" lon="-0.00487">
        <ele>1597</ele>
        <time>2017-01-18T10:27:48.102Z</time>
      </trkpt>
      <trkpt lat="42.98399" lon="-0.00488">
        <ele>1597</ele>
        <time>2017-01-18T10:27:49.102Z</time>
      </trkpt>
      <trkpt lat="42.98399" lon="-0.00489">
        <ele>1597</ele>
        <time>2017-01-18T10:27:50.102Z</time>
      </trkpt>
      <trkpt lat="42.984" lon="-0.00489">
        <ele>1597</ele>
        <time>2017-01-18T10:27:51.102Z</time>
      </trkpt>
      <trkpt lat="42.984" lon="-0.0049">
        <ele>1597</ele>
        <time>2017-01-18T10:27:52.102Z</time>
      </trkpt>
      <trkpt lat="42.98401" lon="-0.00491">
        <ele>1598</ele>
        <time>2017-01-18T10:27:53.102Z</time>
      </trkpt>
      <trkpt lat="42.98401" lon="-0.00492">
        <ele>1598</ele>
        <time>2017-01-18T10:27:54.102Z</time>
      </trkpt>
      <trkpt lat="42.98402" lon="-0.00493">
        <ele>1597</ele>
        <time>2017-01-18T10:27:55.102Z</time>
      </trkpt>
      <trkpt lat="42.98402" lon="-0.00494">
        <ele>1597</ele>
        <time>2017-01-18T10:27:56.102Z</time>
      </trkpt>
      <trkpt lat="42.98403" lon="-0.00495">
        <ele>1597</ele>
        <time>2017-01-18T10:27:57.102Z</time>
      </trkpt>
      <trkpt lat="42.98403" lon="-0.00495">
        <ele>1597</ele>
        <time>2017-01-18T10:27:58.102Z</time>
      </trkpt>
      <trkpt lat="42.98404" lon="-0.00496">
        <ele>1597</ele>
        <time>2017-01-18T10:27:59.102Z</time>
      </trkpt>
      <trkpt lat="42.98404" lon="-0.00497">
        <ele>1597</ele>
        <time>2017-01-18T10:28:00.102Z</time>
      </trkpt>
      <trkpt lat="42.98405" lon="-0.00498">
        <ele>1597</ele>
        <time>2017-01-18T10:28:01.102Z</time>
      </trkpt>
      <trkpt lat="42.98405" lon="-0.00499">
        <ele>1597</ele>
        <time>2017-01-18T10:28:02.102Z</time>
      </trkpt>
      <trkpt lat="42.98406" lon="-0.005">
        <ele>1597</ele>
        <time>2017-01-18T10:28:03.102Z</time>
      </trkpt>
      <trkpt lat="42.98406" lon="-0.005">
        <ele>1597</ele>
        <time>2017-01-18T10:28:04.102Z</time>
      </trkpt>
      <trkpt lat="42.98406" lon="-0.00501">
        <ele>1597</ele>
        <time>2017-01-18T10:28:05.102Z</time>
      </trkpt>
      <trkpt lat="42.98407" lon="-0.00502">
        <ele>1598</ele>
        <time>2017-01-18T10:28:06.102Z</time>
      </trkpt>
      <trkpt lat="42.98408" lon="-0.00503">
        <ele>1597</ele>
        <time>2017-01-18T10:28:07.102Z</time>
      </trkpt>
      <trkpt lat="42.98408" lon="-0.00504">
        <ele>1597</ele>
        <time>2017-01-18T10:28:08.102Z</time>
      </trkpt>
      <trkpt lat="42.98409" lon="-0.00504">
        <ele>1598</ele>
        <time>2017-01-18T10:28:09.102Z</time>
      </trkpt>
      <trkpt lat="42.98409" lon="-0.00505">
        <ele>1598</ele>
        <time>2017-01-18T10:28:10.102Z</time>
      </trkpt>
      <trkpt lat="42.9841" lon="-0.00506">
        <ele>1597</ele>
        <time>2017-01-18T10:28:11.102Z</time>
      </trkpt>
      <trkpt lat="42.9841" lon="-0.00507">
        <ele>1597</ele>
        <time>2017-01-18T10:28:12.102Z</time>
      </trkpt>
      <trkpt lat="42.98411" lon="-0.00508">
        <ele>1597</ele>
        <time>2017-01-18T10:28:13.102Z</time>
      </trkpt>
      <trkpt lat="42.98412" lon="-0.00509">
        <ele>1597</ele>
        <time>2017-01-18T10:28:14.102Z</time>
      </trkpt>
      <trkpt lat="42.98412" lon="-0.0051">
        <ele>1597</ele>
        <time>2017-01-18T10:28:15.102Z</time>
      </trkpt>
      <trkpt lat="42.98413" lon="-0.00511">
        <ele>1597</ele>
        <time>2017-01-18T10:28:16.102Z</time>
      </trkpt>
      <trkpt lat="42.98413" lon="-0.00512">
        <ele>1597</ele>
        <time>2017-01-18T10:28:17.102Z</time>
      </trkpt>
      <trkpt lat="42.98414" lon="-0.00513">
        <ele>1597</ele>
        <time>2017-01-18T10:28:18.102Z</time>
      </trkpt>
      <trkpt lat="42.98415" lon="-0.00514">
        <ele>1597</ele>
        <time>2017-01-18T10:28:19.102Z</time>
      </trkpt>
      <trkpt lat="42.98415" lon="-0.00514">
        <ele>1597</ele>
        <time>2017-01-18T10:28:20.102Z</time>
      </trkpt>
      <trkpt lat="42.98416" lon="-0.00515">
        <ele>1597</ele>
        <time>2017-01-18T10:28:21.102Z</time>
      </trkpt>
      <trkpt lat="42.98416" lon="-0.00516">
        <ele>1597</ele>
        <time>2017-01-18T10:28:22.102Z</time>
      </trkpt>
      <trkpt lat="42.98417" lon="-0.00516">
        <ele>1597</ele>
        <time>2017-01-18T10:28:23.102Z</time>
      </trkpt>
      <trkpt lat="42.98417" lon="-0.00516">
        <ele>1597</ele>
        <time>2017-01-18T10:28:24.102Z</time>
      </trkpt>
      <trkpt lat="42.98418" lon="-0.00516">
        <ele>1597</ele>
        <time>2017-01-18T10:28:25.102Z</time>
      </trkpt>
      <trkpt lat="42.98418" lon="-0.00516">
        <ele>1597</ele>
        <time>2017-01-18T10:28:26.102Z</time>
      </trkpt>
      <trkpt lat="42.98418" lon="-0.00516">
        <ele>1597</ele>
        <time>2017-01-18T10:28:27.102Z</time>
      </trkpt>
      <trkpt lat="42.98419" lon="-0.00516">
        <ele>1597</ele>
        <time>2017-01-18T10:28:28.102Z</time>
      </trkpt>
      <trkpt lat="42.98419" lon="-0.00515">
        <ele>1597</ele>
        <time>2017-01-18T10:28:29.102Z</time>
      </trkpt>
      <trkpt lat="42.9842" lon="-0.00515">
        <ele>1597</ele>
        <time>2017-01-18T10:28:30.102Z</time>
      </trkpt>
      <trkpt lat="42.9842" lon="-0.00515">
        <ele>1597</ele>
        <time>2017-01-18T10:28:31.102Z</time>
      </trkpt>
      <trkpt lat="42.98421" lon="-0.00515">
        <ele>1597</ele>
        <time>2017-01-18T10:28:32.102Z</time>
      </trkpt>
      <trkpt lat="42.98421" lon="-0.00514">
        <ele>1597</ele>
        <time>2017-01-18T10:28:33.102Z</time>
      </trkpt>
      <trkpt lat="42.98422" lon="-0.00514">
        <ele>1597</ele>
        <time>2017-01-18T10:28:34.102Z</time>
      </trkpt>
      <trkpt lat="42.98423" lon="-0.00514">
        <ele>1597</ele>
        <time>2017-01-18T10:28:35.102Z</time>
      </trkpt>
      <trkpt lat="42.98424" lon="-0.00515">
        <ele>1597</ele>
        <time>2017-01-18T10:28:36.102Z</time>
      </trkpt>
      <trkpt lat="42.98424" lon="-0.00515">
        <ele>1597</ele>
        <time>2017-01-18T10:28:37.102Z</time>
      </trkpt>
      <trkpt lat="42.98425" lon="-0.00515">
        <ele>1597</ele>
        <time>2017-01-18T10:28:38.102Z</time>
      </trkpt>
      <trkpt lat="42.98426" lon="-0.00515">
        <ele>1597</ele>
        <time>2017-01-18T10:28:39.102Z</time>
      </trkpt>
      <trkpt lat="42.98426" lon="-0.00516">
        <ele>1597</ele>
        <time>2017-01-18T10:28:40.102Z</time>
      </trkpt>
      <trkpt lat="42.98427" lon="-0.00517">
        <ele>1597</ele>
        <time>2017-01-18T10:28:41.102Z</time>
      </trkpt>
      <trkpt lat="42.98427" lon="-0.00517">
        <ele>1597</ele>
        <time>2017-01-18T10:28:42.102Z</time>
      </trkpt>
      <trkpt lat="42.98428" lon="-0.00518">
        <ele>1597</ele>
        <time>2017-01-18T10:28:43.102Z</time>
      </trkpt>
      <trkpt lat="42.98429" lon="-0.00519">
        <ele>1598</ele>
        <time>2017-01-18T10:28:44.102Z</time>
      </trkpt>
      <trkpt lat="42.98429" lon="-0.0052">
        <ele>1598</ele>
        <time>2017-01-18T10:28:45.102Z</time>
      </trkpt>
      <trkpt lat="42.98429" lon="-0.00521">
        <ele>1597</ele>
        <time>2017-01-18T10:28:46.102Z</time>
      </trkpt>
      <trkpt lat="42.9843" lon="-0.00522">
        <ele>1597</ele>
        <time>2017-01-18T10:28:47.102Z</time>
      </trkpt>
      <trkpt lat="42.9843" lon="-0.00523">
        <ele>1598</ele>
        <time>2017-01-18T10:28:48.102Z</time>
      </trkpt>
      <trkpt lat="42.98431" lon="-0.00524">
        <ele>1597</ele>
        <time>2017-01-18T10:28:49.102Z</time>
      </trkpt>
      <trkpt lat="42.98431" lon="-0.00524">
        <ele>1597</ele>
        <time>2017-01-18T10:28:50.102Z</time>
      </trkpt>
      <trkpt lat="42.98432" lon="-0.00525">
        <ele>1597</ele>
        <time>2017-01-18T10:28:51.102Z</time>
      </trkpt>
      <trkpt lat="42.98432" lon="-0.00526">
        <ele>1597</ele>
        <time>2017-01-18T10:28:52.102Z</time>
      </trkpt>
      <trkpt lat="42.98432" lon="-0.00527">
        <ele>1597</ele>
        <time>2017-01-18T10:28:53.102Z</time>
      </trkpt>
      <trkpt lat="42.98433" lon="-0.00527">
        <ele>1597</ele>
        <time>2017-01-18T10:28:54.102Z</time>
      </trkpt>
      <trkpt lat="42.98433" lon="-0.00528">
        <ele>1597</ele>
        <time>2017-01-18T10:28:55.102Z</time>
      </trkpt>
      <trkpt lat="42.98434" lon="-0.00529">
        <ele>1597</ele>
        <time>2017-01-18T10:28:56.102Z</time>
      </trkpt>
      <trkpt lat="42.98434" lon="-0.0053">
        <ele>1598</ele>
        <time>2017-01-18T10:28:57.102Z</time>
      </trkpt>
      <trkpt lat="42.98435" lon="-0.00531">
        <ele>1598</ele>
        <time>2017-01-18T10:28:58.102Z</time>
      </trkpt>
      <trkpt lat="42.98435" lon="-0.00532">
        <ele>1598</ele>
        <time>2017-01-18T10:28:59.102Z</time>
      </trkpt>
      <trkpt lat="42.98435" lon="-0.00533">
        <ele>1598</ele>
        <time>2017-01-18T10:29:00.102Z</time>
      </trkpt>
      <trkpt lat="42.98436" lon="-0.00533">
        <ele>1597</ele>
        <time>2017-01-18T10:29:01.102Z</time>
      </trkpt>
      <trkpt lat="42.98436" lon="-0.00534">
        <ele>1598</ele>
        <time>2017-01-18T10:29:02.102Z</time>
      </trkpt>
      <trkpt lat="42.98437" lon="-0.00535">
        <ele>1598</ele>
        <time>2017-01-18T10:29:03.102Z</time>
      </trkpt>
      <trkpt lat="42.98437" lon="-0.00536">
        <ele>1598</ele>
        <time>2017-01-18T10:29:04.102Z</time>
      </trkpt>
      <trkpt lat="42.98437" lon="-0.00536">
        <ele>1598</ele>
        <time>2017-01-18T10:29:05.102Z</time>
      </trkpt>
      <trkpt lat="42.98438" lon="-0.00537">
        <ele>1598</ele>
        <time>2017-01-18T10:29:06.102Z</time>
      </trkpt>
      <trkpt lat="42.98438" lon="-0.00538">
        <ele>1598</ele>
        <time>2017-01-18T10:29:07.102Z</time>
      </trkpt>
      <trkpt lat="42.98438" lon="-0.00538">
        <ele>1598</ele>
        <time>2017-01-18T10:29:08.102Z</time>
      </trkpt>
      <trkpt lat="42.98439" lon="-0.00539">
        <ele>1598</ele>
        <time>2017-01-18T10:29:09.102Z</time>
      </trkpt>
      <trkpt lat="42.98439" lon="-0.0054">
        <ele>1598</ele>
        <time>2017-01-18T10:29:10.102Z</time>
      </trkpt>
      <trkpt lat="42.9844" lon="-0.0054">
        <ele>1598</ele>
        <time>2017-01-18T10:29:11.102Z</time>
      </trkpt>
      <trkpt lat="42.9844" lon="-0.00541">
        <ele>1598</ele>
        <time>2017-01-18T10:29:12.102Z</time>
      </trkpt>
      <trkpt lat="42.98441" lon="-0.00542">
        <ele>1598</ele>
        <time>2017-01-18T10:29:13.102Z</time>
      </trkpt>
      <trkpt lat="42.98441" lon="-0.00543">
        <ele>1598</ele>
        <time>2017-01-18T10:29:14.102Z</time>
      </trkpt>
      <trkpt lat="42.98441" lon="-0.00544">
        <ele>1598</ele>
        <time>2017-01-18T10:29:15.102Z</time>
      </trkpt>
      <trkpt lat="42.98441" lon="-0.00544">
        <ele>1599</ele>
        <time>2017-01-18T10:29:16.102Z</time>
      </trkpt>
      <trkpt lat="42.98442" lon="-0.00545">
        <ele>1599</ele>
        <time>2017-01-18T10:29:17.102Z</time>
      </trkpt>
      <trkpt lat="42.98442" lon="-0.00546">
        <ele>1599</ele>
        <time>2017-01-18T10:29:18.102Z</time>
      </trkpt>
      <trkpt lat="42.98442" lon="-0.00547">
        <ele>1599</ele>
        <time>2017-01-18T10:29:19.102Z</time>
      </trkpt>
      <trkpt lat="42.98443" lon="-0.00547">
        <ele>1599</ele>
        <time>2017-01-18T10:29:20.102Z</time>
      </trkpt>
      <trkpt lat="42.98443" lon="-0.00548">
        <ele>1599</ele>
        <time>2017-01-18T10:29:21.102Z</time>
      </trkpt>
      <trkpt lat="42.98443" lon="-0.00549">
        <ele>1599</ele>
        <time>2017-01-18T10:29:22.102Z</time>
      </trkpt>
      <trkpt lat="42.98444" lon="-0.00549">
        <ele>1599</ele>
        <time>2017-01-18T10:29:23.102Z</time>
      </trkpt>
      <trkpt lat="42.98444" lon="-0.0055">
        <ele>1599</ele>
        <time>2017-01-18T10:29:24.102Z</time>
      </trkpt>
      <trkpt lat="42.98444" lon="-0.00551">
        <ele>1599</ele>
        <time>2017-01-18T10:29:25.102Z</time>
      </trkpt>
      <trkpt lat="42.98444" lon="-0.00551">
        <ele>1599</ele>
        <time>2017-01-18T10:29:26.102Z</time>
      </trkpt>
      <trkpt lat="42.98445" lon="-0.00552">
        <ele>1599</ele>
        <time>2017-01-18T10:29:27.102Z</time>
      </trkpt>
      <trkpt lat="42.98445" lon="-0.00553">
        <ele>1599</ele>
        <time>2017-01-18T10:29:28.102Z</time>
      </trkpt>
      <trkpt lat="42.98445" lon="-0.00553">
        <ele>1599</ele>
        <time>2017-01-18T10:29:29.102Z</time>
      </trkpt>
      <trkpt lat="42.98446" lon="-0.00554">
        <ele>1600</ele>
        <time>2017-01-18T10:29:30.102Z</time>
      </trkpt>
      <trkpt lat="42.98446" lon="-0.00554">
        <ele>1600</ele>
        <time>2017-01-18T10:29:31.102Z</time>
      </trkpt>
      <trkpt lat="42.98447" lon="-0.00555">
        <ele>1600</ele>
        <time>2017-01-18T10:29:32.102Z</time>
      </trkpt>
      <trkpt lat="42.98447" lon="-0.00556">
        <ele>1600</ele>
        <time>2017-01-18T10:29:33.102Z</time>
      </trkpt>
      <trkpt lat="42.98447" lon="-0.00556">
        <ele>1600</ele>
        <time>2017-01-18T10:29:34.102Z</time>
      </trkpt>
      <trkpt lat="42.98448" lon="-0.00557">
        <ele>1600</ele>
        <time>2017-01-18T10:29:35.102Z</time>
      </trkpt>
      <trkpt lat="42.98449" lon="-0.00557">
        <ele>1600</ele>
        <time>2017-01-18T10:29:36.102Z</time>
      </trkpt>
      <trkpt lat="42.98449" lon="-0.00558">
        <ele>1600</ele>
        <time>2017-01-18T10:29:37.102Z</time>
      </trkpt>
      <trkpt lat="42.98449" lon="-0.00558">
        <ele>1600</ele>
        <time>2017-01-18T10:29:38.102Z</time>
      </trkpt>
      <trkpt lat="42.9845" lon="-0.00559">
        <ele>1601</ele>
        <time>2017-01-18T10:29:39.102Z</time>
      </trkpt>
      <trkpt lat="42.9845" lon="-0.0056">
        <ele>1601</ele>
        <time>2017-01-18T10:29:40.102Z</time>
      </trkpt>
      <trkpt lat="42.9845" lon="-0.0056">
        <ele>1601</ele>
        <time>2017-01-18T10:29:41.102Z</time>
      </trkpt>
      <trkpt lat="42.9845" lon="-0.00561">
        <ele>1601</ele>
        <time>2017-01-18T10:29:42.102Z</time>
      </trkpt>
      <trkpt lat="42.9845" lon="-0.00561">
        <ele>1601</ele>
        <time>2017-01-18T10:29:43.102Z</time>
      </trkpt>
      <trkpt lat="42.98451" lon="-0.00562">
        <ele>1601</ele>
        <time>2017-01-18T10:29:44.102Z</time>
      </trkpt>
      <trkpt lat="42.98451" lon="-0.00563">
        <ele>1601</ele>
        <time>2017-01-18T10:29:45.102Z</time>
      </trkpt>
      <trkpt lat="42.98451" lon="-0.00563">
        <ele>1601</ele>
        <time>2017-01-18T10:29:46.102Z</time>
      </trkpt>
      <trkpt lat="42.98451" lon="-0.00564">
        <ele>1601</ele>
        <time>2017-01-18T10:29:47.102Z</time>
      </trkpt>
      <trkpt lat="42.98451" lon="-0.00564">
        <ele>1601</ele>
        <time>2017-01-18T10:29:48.102Z</time>
      </trkpt>
      <trkpt lat="42.98452" lon="-0.00565">
        <ele>1602</ele>
        <time>2017-01-18T10:29:49.102Z</time>
      </trkpt>
      <trkpt lat="42.98452" lon="-0.00565">
        <ele>1602</ele>
        <time>2017-01-18T10:29:50.102Z</time>
      </trkpt>
      <trkpt lat="42.98452" lon="-0.00566">
        <ele>1602</ele>
        <time>2017-01-18T10:29:51.102Z</time>
      </trkpt>
      <trkpt lat="42.98452" lon="-0.00567">
        <ele>1602</ele>
        <time>2017-01-18T10:29:52.102Z</time>
      </trkpt>
      <trkpt lat="42.98453" lon="-0.00567">
        <ele>1602</ele>
        <time>2017-01-18T10:29:53.102Z</time>
      </trkpt>
      <trkpt lat="42.98453" lon="-0.00568">
        <ele>1602</ele>
        <time>2017-01-18T10:29:54.102Z</time>
      </trkpt>
      <trkpt lat="42.98453" lon="-0.00569">
        <ele>1602</ele>
        <time>2017-01-18T10:29:55.102Z</time>
      </trkpt>
      <trkpt lat="42.98454" lon="-0.00569">
        <ele>1602</ele>
        <time>2017-01-18T10:29:56.102Z</time>
      </trkpt>
      <trkpt lat="42.98454" lon="-0.0057">
        <ele>1602</ele>
        <time>2017-01-18T10:29:57.102Z</time>
      </trkpt>
      <trkpt lat="42.98454" lon="-0.00571">
        <ele>1602</ele>
        <time>2017-01-18T10:29:58.102Z</time>
      </trkpt>
      <trkpt lat="42.98454" lon="-0.00572">
        <ele>1602</ele>
        <time>2017-01-18T10:29:59.102Z</time>
      </trkpt>
      <trkpt lat="42.98454" lon="-0.00573">
        <ele>1602</ele>
        <time>2017-01-18T10:30:00.102Z</time>
      </trkpt>
      <trkpt lat="42.98455" lon="-0.00574">
        <ele>1602</ele>
        <time>2017-01-18T10:30:01.102Z</time>
      </trkpt>
      <trkpt lat="42.98455" lon="-0.00574">
        <ele>1602</ele>
        <time>2017-01-18T10:30:02.102Z</time>
      </trkpt>
      <trkpt lat="42.98455" lon="-0.00575">
        <ele>1602</ele>
        <time>2017-01-18T10:30:03.102Z</time>
      </trkpt>
      <trkpt lat="42.98455" lon="-0.00576">
        <ele>1603</ele>
        <time>2017-01-18T10:30:04.102Z</time>
      </trkpt>
      <trkpt lat="42.98455" lon="-0.00577">
        <ele>1602</ele>
        <time>2017-01-18T10:30:05.102Z</time>
      </trkpt>
      <trkpt lat="42.98456" lon="-0.00578">
        <ele>1602</ele>
        <time>2017-01-18T10:30:06.102Z</time>
      </trkpt>
      <trkpt lat="42.98456" lon="-0.00579">
        <ele>1603</ele>
        <time>2017-01-18T10:30:07.102Z</time>
      </trkpt>
      <trkpt lat="42.98456" lon="-0.0058">
        <ele>1602</ele>
        <time>2017-01-18T10:30:08.102Z</time>
      </trkpt>
      <trkpt lat="42.98456" lon="-0.00581">
        <ele>1602</ele>
        <time>2017-01-18T10:30:09.102Z</time>
      </trkpt>
      <trkpt lat="42.98457" lon="-0.00582">
        <ele>1602</ele>
        <time>2017-01-18T10:30:10.102Z</time>
      </trkpt>
      <trkpt lat="42.98457" lon="-0.00582">
        <ele>1602</ele>
        <time>2017-01-18T10:30:11.102Z</time>
      </trkpt>
      <trkpt lat="42.98457" lon="-0.00583">
        <ele>1603</ele>
        <time>2017-01-18T10:30:12.102Z</time>
      </trkpt>
      <trkpt lat="42.98457" lon="-0.00584">
        <ele>1602</ele>
        <time>2017-01-18T10:30:13.102Z</time>
      </trkpt>
      <trkpt lat="42.98458" lon="-0.00585">
        <ele>1603</ele>
        <time>2017-01-18T10:30:14.102Z</time>
      </trkpt>
      <trkpt lat="42.98458" lon="-0.00586">
        <ele>1603</ele>
        <time>2017-01-18T10:30:15.102Z</time>
      </trkpt>
      <trkpt lat="42.98458" lon="-0.00587">
        <ele>1603</ele>
        <time>2017-01-18T10:30:16.102Z</time>
      </trkpt>
      <trkpt lat="42.98458" lon="-0.00588">
        <ele>1603</ele>
        <time>2017-01-18T10:30:17.102Z</time>
      </trkpt>
      <trkpt lat="42.98458" lon="-0.00589">
        <ele>1603</ele>
        <time>2017-01-18T10:30:18.102Z</time>
      </trkpt>
      <trkpt lat="42.98459" lon="-0.0059">
        <ele>1603</ele>
        <time>2017-01-18T10:30:19.102Z</time>
      </trkpt>
      <trkpt lat="42.98459" lon="-0.00591">
        <ele>1603</ele>
        <time>2017-01-18T10:30:20.102Z</time>
      </trkpt>
      <trkpt lat="42.98459" lon="-0.00592">
        <ele>1603</ele>
        <time>2017-01-18T10:30:21.102Z</time>
      </trkpt>
      <trkpt lat="42.98459" lon="-0.00593">
        <ele>1603</ele>
        <time>2017-01-18T10:30:22.102Z</time>
      </trkpt>
      <trkpt lat="42.9846" lon="-0.00594">
        <ele>1604</ele>
        <time>2017-01-18T10:30:23.102Z</time>
      </trkpt>
      <trkpt lat="42.9846" lon="-0.00595">
        <ele>1604</ele>
        <time>2017-01-18T10:30:24.102Z</time>
      </trkpt>
      <trkpt lat="42.9846" lon="-0.00596">
        <ele>1604</ele>
        <time>2017-01-18T10:30:25.102Z</time>
      </trkpt>
      <trkpt lat="42.98461" lon="-0.00597">
        <ele>1604</ele>
        <time>2017-01-18T10:30:26.102Z</time>
      </trkpt>
      <trkpt lat="42.98461" lon="-0.00598">
        <ele>1604</ele>
        <time>2017-01-18T10:30:27.102Z</time>
      </trkpt>
      <trkpt lat="42.98461" lon="-0.00599">
        <ele>1604</ele>
        <time>2017-01-18T10:30:28.102Z</time>
      </trkpt>
      <trkpt lat="42.98462" lon="-0.00599">
        <ele>1604</ele>
        <time>2017-01-18T10:30:29.102Z</time>
      </trkpt>
      <trkpt lat="42.98462" lon="-0.006">
        <ele>1604</ele>
        <time>2017-01-18T10:30:30.102Z</time>
      </trkpt>
      <trkpt lat="42.98462" lon="-0.00601">
        <ele>1604</ele>
        <time>2017-01-18T10:30:31.102Z</time>
      </trkpt>
      <trkpt lat="42.98463" lon="-0.00602">
        <ele>1604</ele>
        <time>2017-01-18T10:30:32.102Z</time>
      </trkpt>
      <trkpt lat="42.98463" lon="-0.00603">
        <ele>1604</ele>
        <time>2017-01-18T10:30:33.102Z</time>
      </trkpt>
      <trkpt lat="42.98463" lon="-0.00603">
        <ele>1604</ele>
        <time>2017-01-18T10:30:34.102Z</time>
      </trkpt>
      <trkpt lat="42.98464" lon="-0.00604">
        <ele>1604</ele>
        <time>2017-01-18T10:30:35.102Z</time>
      </trkpt>
      <trkpt lat="42.98464" lon="-0.00605">
        <ele>1604</ele>
        <time>2017-01-18T10:30:36.102Z</time>
      </trkpt>
      <trkpt lat="42.98465" lon="-0.00606">
        <ele>1604</ele>
        <time>2017-01-18T10:30:37.102Z</time>
      </trkpt>
      <trkpt lat="42.98465" lon="-0.00607">
        <ele>1604</ele>
        <time>2017-01-18T10:30:38.102Z</time>
      </trkpt>
      <trkpt lat="42.98465" lon="-0.00608">
        <ele>1604</ele>
        <time>2017-01-18T10:30:39.102Z</time>
      </trkpt>
      <trkpt lat="42.98466" lon="-0.00609">
        <ele>1604</ele>
        <time>2017-01-18T10:30:40.102Z</time>
      </trkpt>
      <trkpt lat="42.98466" lon="-0.00609">
        <ele>1604</ele>
        <time>2017-01-18T10:30:41.102Z</time>
      </trkpt>
      <trkpt lat="42.98467" lon="-0.0061">
        <ele>1604</ele>
        <time>2017-01-18T10:30:42.102Z</time>
      </trkpt>
      <trkpt lat="42.98467" lon="-0.00611">
        <ele>1604</ele>
        <time>2017-01-18T10:30:43.102Z</time>
      </trkpt>
      <trkpt lat="42.98467" lon="-0.00612">
        <ele>1604</ele>
        <time>2017-01-18T10:30:44.102Z</time>
      </trkpt>
      <trkpt lat="42.98468" lon="-0.00613">
        <ele>1604</ele>
        <time>2017-01-18T10:30:45.102Z</time>
      </trkpt>
      <trkpt lat="42.98468" lon="-0.00613">
        <ele>1604</ele>
        <time>2017-01-18T10:30:46.102Z</time>
      </trkpt>
      <trkpt lat="42.98469" lon="-0.00614">
        <ele>1604</ele>
        <time>2017-01-18T10:30:47.102Z</time>
      </trkpt>
      <trkpt lat="42.9847" lon="-0.00615">
        <ele>1604</ele>
        <time>2017-01-18T10:30:48.102Z</time>
      </trkpt>
      <trkpt lat="42.9847" lon="-0.00615">
        <ele>1604</ele>
        <time>2017-01-18T10:30:49.102Z</time>
      </trkpt>
      <trkpt lat="42.98471" lon="-0.00616">
        <ele>1604</ele>
        <time>2017-01-18T10:30:50.102Z</time>
      </trkpt>
      <trkpt lat="42.98472" lon="-0.00616">
        <ele>1604</ele>
        <time>2017-01-18T10:30:51.102Z</time>
      </trkpt>
      <trkpt lat="42.98472" lon="-0.00617">
        <ele>1604</ele>
        <time>2017-01-18T10:30:52.102Z</time>
      </trkpt>
      <trkpt lat="42.98473" lon="-0.00617">
        <ele>1604</ele>
        <time>2017-01-18T10:30:53.102Z</time>
      </trkpt>
      <trkpt lat="42.98473" lon="-0.00618">
        <ele>1604</ele>
        <time>2017-01-18T10:30:54.102Z</time>
      </trkpt>
      <trkpt lat="42.98473" lon="-0.00619">
        <ele>1604</ele>
        <time>2017-01-18T10:30:55.102Z</time>
      </trkpt>
      <trkpt lat="42.98474" lon="-0.00619">
        <ele>1604</ele>
        <time>2017-01-18T10:30:56.102Z</time>
      </trkpt>
      <trkpt lat="42.98474" lon="-0.0062">
        <ele>1604</ele>
        <time>2017-01-18T10:30:57.102Z</time>
      </trkpt>
      <trkpt lat="42.98475" lon="-0.00621">
        <ele>1604</ele>
        <time>2017-01-18T10:30:58.102Z</time>
      </trkpt>
      <trkpt lat="42.98476" lon="-0.00621">
        <ele>1604</ele>
        <time>2017-01-18T10:30:59.102Z</time>
      </trkpt>
      <trkpt lat="42.98476" lon="-0.00622">
        <ele>1604</ele>
        <time>2017-01-18T10:31:00.102Z</time>
      </trkpt>
      <trkpt lat="42.98477" lon="-0.00622">
        <ele>1604</ele>
        <time>2017-01-18T10:31:01.102Z</time>
      </trkpt>
      <trkpt lat="42.98477" lon="-0.00623">
        <ele>1604</ele>
        <time>2017-01-18T10:31:02.102Z</time>
      </trkpt>
      <trkpt lat="42.98478" lon="-0.00623">
        <ele>1604</ele>
        <time>2017-01-18T10:31:03.102Z</time>
      </trkpt>
      <trkpt lat="42.98479" lon="-0.00623">
        <ele>1604</ele>
        <time>2017-01-18T10:31:04.102Z</time>
      </trkpt>
      <trkpt lat="42.9848" lon="-0.00623">
        <ele>1604</ele>
        <time>2017-01-18T10:31:05.102Z</time>
      </trkpt>
      <trkpt lat="42.9848" lon="-0.00623">
        <ele>1604</ele>
        <time>2017-01-18T10:31:06.102Z</time>
      </trkpt>
      <trkpt lat="42.98481" lon="-0.00623">
        <ele>1604</ele>
        <time>2017-01-18T10:31:07.102Z</time>
      </trkpt>
      <trkpt lat="42.98481" lon="-0.00623">
        <ele>1604</ele>
        <time>2017-01-18T10:31:08.102Z</time>
      </trkpt>
      <trkpt lat="42.98482" lon="-0.00623">
        <ele>1605</ele>
        <time>2017-01-18T10:31:09.102Z</time>
      </trkpt>
      <trkpt lat="42.98482" lon="-0.00623">
        <ele>1605</ele>
        <time>2017-01-18T10:31:10.102Z</time>
      </trkpt>
      <trkpt lat="42.98483" lon="-0.00623">
        <ele>1605</ele>
        <time>2017-01-18T10:31:11.102Z</time>
      </trkpt>
      <trkpt lat="42.98484" lon="-0.00623">
        <ele>1605</ele>
        <time>2017-01-18T10:31:12.102Z</time>
      </trkpt>
      <trkpt lat="42.98484" lon="-0.00623">
        <ele>1605</ele>
        <time>2017-01-18T10:31:13.102Z</time>
      </trkpt>
      <trkpt lat="42.98485" lon="-0.00623">
        <ele>1606</ele>
        <time>2017-01-18T10:31:14.102Z</time>
      </trkpt>
      <trkpt lat="42.98485" lon="-0.00623">
        <ele>1606</ele>
        <time>2017-01-18T10:31:15.102Z</time>
      </trkpt>
      <trkpt lat="42.98486" lon="-0.00623">
        <ele>1606</ele>
        <time>2017-01-18T10:31:16.102Z</time>
      </trkpt>
      <trkpt lat="42.98487" lon="-0.00623">
        <ele>1606</ele>
        <time>2017-01-18T10:31:17.102Z</time>
      </trkpt>
      <trkpt lat="42.98487" lon="-0.00623">
        <ele>1606</ele>
        <time>2017-01-18T10:31:18.102Z</time>
      </trkpt>
      <trkpt lat="42.98488" lon="-0.00623">
        <ele>1606</ele>
        <time>2017-01-18T10:31:19.102Z</time>
      </trkpt>
      <trkpt lat="42.98489" lon="-0.00623">
        <ele>1606</ele>
        <time>2017-01-18T10:31:20.102Z</time>
      </trkpt>
      <trkpt lat="42.98489" lon="-0.00623">
        <ele>1606</ele>
        <time>2017-01-18T10:31:21.102Z</time>
      </trkpt>
      <trkpt lat="42.9849" lon="-0.00623">
        <ele>1607</ele>
        <time>2017-01-18T10:31:22.102Z</time>
      </trkpt>
      <trkpt lat="42.9849" lon="-0.00623">
        <ele>1607</ele>
        <time>2017-01-18T10:31:23.102Z</time>
      </trkpt>
      <trkpt lat="42.98491" lon="-0.00623">
        <ele>1607</ele>
        <time>2017-01-18T10:31:24.102Z</time>
      </trkpt>
      <trkpt lat="42.98491" lon="-0.00623">
        <ele>1607</ele>
        <time>2017-01-18T10:31:25.102Z</time>
      </trkpt>
      <trkpt lat="42.98492" lon="-0.00622">
        <ele>1607</ele>
        <time>2017-01-18T10:31:26.102Z</time>
      </trkpt>
      <trkpt lat="42.98493" lon="-0.00622">
        <ele>1607</ele>
        <time>2017-01-18T10:31:27.102Z</time>
      </trkpt>
      <trkpt lat="42.98493" lon="-0.00622">
        <ele>1608</ele>
        <time>2017-01-18T10:31:28.102Z</time>
      </trkpt>
      <trkpt lat="42.98494" lon="-0.00622">
        <ele>1608</ele>
        <time>2017-01-18T10:31:29.102Z</time>
      </trkpt>
      <trkpt lat="42.98494" lon="-0.00623">
        <ele>1608</ele>
        <time>2017-01-18T10:31:30.102Z</time>
      </trkpt>
      <trkpt lat="42.98495" lon="-0.00623">
        <ele>1608</ele>
        <time>2017-01-18T10:31:31.102Z</time>
      </trkpt>
      <trkpt lat="42.98495" lon="-0.00623">
        <ele>1608</ele>
        <time>2017-01-18T10:31:32.102Z</time>
      </trkpt>
      <trkpt lat="42.98496" lon="-0.00623">
        <ele>1608</ele>
        <time>2017-01-18T10:31:33.102Z</time>
      </trkpt>
      <trkpt lat="42.98497" lon="-0.00623">
        <ele>1608</ele>
        <time>2017-01-18T10:31:34.102Z</time>
      </trkpt>
      <trkpt lat="42.98497" lon="-0.00622">
        <ele>1608</ele>
        <time>2017-01-18T10:31:35.102Z</time>
      </trkpt>
      <trkpt lat="42.98498" lon="-0.00622">
        <ele>1608</ele>
        <time>2017-01-18T10:31:36.102Z</time>
      </trkpt>
      <trkpt lat="42.98499" lon="-0.00622">
        <ele>1608</ele>
        <time>2017-01-18T10:31:37.102Z</time>
      </trkpt>
      <trkpt lat="42.98499" lon="-0.00622">
        <ele>1608</ele>
        <time>2017-01-18T10:31:38.102Z</time>
      </trkpt>
      <trkpt lat="42.985" lon="-0.00622">
        <ele>1608</ele>
        <time>2017-01-18T10:31:39.102Z</time>
      </trkpt>
      <trkpt lat="42.98501" lon="-0.00622">
        <ele>1608</ele>
        <time>2017-01-18T10:31:40.102Z</time>
      </trkpt>
      <trkpt lat="42.98501" lon="-0.00622">
        <ele>1608</ele>
        <time>2017-01-18T10:31:41.102Z</time>
      </trkpt>
      <trkpt lat="42.98502" lon="-0.00622">
        <ele>1608</ele>
        <time>2017-01-18T10:31:42.102Z</time>
      </trkpt>
      <trkpt lat="42.98502" lon="-0.00622">
        <ele>1608</ele>
        <time>2017-01-18T10:31:43.102Z</time>
      </trkpt>
      <trkpt lat="42.98503" lon="-0.00622">
        <ele>1608</ele>
        <time>2017-01-18T10:31:44.102Z</time>
      </trkpt>
      <trkpt lat="42.98503" lon="-0.00622">
        <ele>1608</ele>
        <time>2017-01-18T10:31:45.102Z</time>
      </trkpt>
      <trkpt lat="42.98504" lon="-0.00622">
        <ele>1608</ele>
        <time>2017-01-18T10:31:46.102Z</time>
      </trkpt>
      <trkpt lat="42.98505" lon="-0.00622">
        <ele>1608</ele>
        <time>2017-01-18T10:31:47.102Z</time>
      </trkpt>
      <trkpt lat="42.98505" lon="-0.00622">
        <ele>1608</ele>
        <time>2017-01-18T10:31:48.102Z</time>
      </trkpt>
      <trkpt lat="42.98506" lon="-0.00622">
        <ele>1609</ele>
        <time>2017-01-18T10:31:49.102Z</time>
      </trkpt>
      <trkpt lat="42.98506" lon="-0.00623">
        <ele>1609</ele>
        <time>2017-01-18T10:31:50.102Z</time>
      </trkpt>
      <trkpt lat="42.98506" lon="-0.00623">
        <ele>1609</ele>
        <time>2017-01-18T10:31:51.102Z</time>
      </trkpt>
      <trkpt lat="42.98506" lon="-0.00624">
        <ele>1609</ele>
        <time>2017-01-18T10:31:52.102Z</time>
      </trkpt>
      <trkpt lat="42.98507" lon="-0.00624">
        <ele>1609</ele>
        <time>2017-01-18T10:31:53.102Z</time>
      </trkpt>
      <trkpt lat="42.98507" lon="-0.00625">
        <ele>1609</ele>
        <time>2017-01-18T10:31:54.102Z</time>
      </trkpt>
      <trkpt lat="42.98507" lon="-0.00626">
        <ele>1609</ele>
        <time>2017-01-18T10:31:55.102Z</time>
      </trkpt>
      <trkpt lat="42.98508" lon="-0.00626">
        <ele>1609</ele>
        <time>2017-01-18T10:31:56.102Z</time>
      </trkpt>
      <trkpt lat="42.98508" lon="-0.00627">
        <ele>1609</ele>
        <time>2017-01-18T10:31:57.102Z</time>
      </trkpt>
      <trkpt lat="42.98508" lon="-0.00627">
        <ele>1609</ele>
        <time>2017-01-18T10:31:58.102Z</time>
      </trkpt>
      <trkpt lat="42.98508" lon="-0.00628">
        <ele>1609</ele>
        <time>2017-01-18T10:31:59.102Z</time>
      </trkpt>
      <trkpt lat="42.98509" lon="-0.00629">
        <ele>1609</ele>
        <time>2017-01-18T10:32:00.102Z</time>
      </trkpt>
      <trkpt lat="42.98509" lon="-0.00629">
        <ele>1609</ele>
        <time>2017-01-18T10:32:01.102Z</time>
      </trkpt>
      <trkpt lat="42.98509" lon="-0.0063">
        <ele>1610</ele>
        <time>2017-01-18T10:32:02.102Z</time>
      </trkpt>
      <trkpt lat="42.98509" lon="-0.00631">
        <ele>1610</ele>
        <time>2017-01-18T10:32:03.102Z</time>
      </trkpt>
      <trkpt lat="42.9851" lon="-0.00631">
        <ele>1610</ele>
        <time>2017-01-18T10:32:04.102Z</time>
      </trkpt>
      <trkpt lat="42.9851" lon="-0.00632">
        <ele>1610</ele>
        <time>2017-01-18T10:32:05.102Z</time>
      </trkpt>
      <trkpt lat="42.9851" lon="-0.00633">
        <ele>1610</ele>
        <time>2017-01-18T10:32:06.102Z</time>
      </trkpt>
      <trkpt lat="42.9851" lon="-0.00633">
        <ele>1610</ele>
        <time>2017-01-18T10:32:07.102Z</time>
      </trkpt>
      <trkpt lat="42.9851" lon="-0.00634">
        <ele>1610</ele>
        <time>2017-01-18T10:32:08.102Z</time>
      </trkpt>
      <trkpt lat="42.98511" lon="-0.00635">
        <ele>1610</ele>
        <time>2017-01-18T10:32:09.102Z</time>
      </trkpt>
      <trkpt lat="42.98511" lon="-0.00635">
        <ele>1610</ele>
        <time>2017-01-18T10:32:10.102Z</time>
      </trkpt>
      <trkpt lat="42.98511" lon="-0.00636">
        <ele>1610</ele>
        <time>2017-01-18T10:32:11.102Z</time>
      </trkpt>
      <trkpt lat="42.98512" lon="-0.00636">
        <ele>1610</ele>
        <time>2017-01-18T10:32:12.102Z</time>
      </trkpt>
      <trkpt lat="42.98512" lon="-0.00637">
        <ele>1610</ele>
        <time>2017-01-18T10:32:13.102Z</time>
      </trkpt>
      <trkpt lat="42.98512" lon="-0.00637">
        <ele>1610</ele>
        <time>2017-01-18T10:32:14.102Z</time>
      </trkpt>
      <trkpt lat="42.98513" lon="-0.00638">
        <ele>1610</ele>
        <time>2017-01-18T10:32:15.102Z</time>
      </trkpt>
      <trkpt lat="42.98513" lon="-0.00638">
        <ele>1610</ele>
        <time>2017-01-18T10:32:16.102Z</time>
      </trkpt>
      <trkpt lat="42.98513" lon="-0.00639">
        <ele>1610</ele>
        <time>2017-01-18T10:32:17.102Z</time>
      </trkpt>
      <trkpt lat="42.98514" lon="-0.0064">
        <ele>1611</ele>
        <time>2017-01-18T10:32:18.102Z</time>
      </trkpt>
      <trkpt lat="42.98514" lon="-0.0064">
        <ele>1611</ele>
        <time>2017-01-18T10:32:19.102Z</time>
      </trkpt>
      <trkpt lat="42.98514" lon="-0.00641">
        <ele>1611</ele>
        <time>2017-01-18T10:32:20.102Z</time>
      </trkpt>
      <trkpt lat="42.98515" lon="-0.00641">
        <ele>1611</ele>
        <time>2017-01-18T10:32:21.102Z</time>
      </trkpt>
      <trkpt lat="42.98515" lon="-0.00642">
        <ele>1611</ele>
        <time>2017-01-18T10:32:22.102Z</time>
      </trkpt>
      <trkpt lat="42.98515" lon="-0.00643">
        <ele>1611</ele>
        <time>2017-01-18T10:32:23.102Z</time>
      </trkpt>
      <trkpt lat="42.98516" lon="-0.00644">
        <ele>1611</ele>
        <time>2017-01-18T10:32:24.102Z</time>
      </trkpt>
      <trkpt lat="42.98516" lon="-0.00644">
        <ele>1611</ele>
        <time>2017-01-18T10:32:25.102Z</time>
      </trkpt>
      <trkpt lat="42.98516" lon="-0.00645">
        <ele>1611</ele>
        <time>2017-01-18T10:32:26.102Z</time>
      </trkpt>
      <trkpt lat="42.98516" lon="-0.00645">
        <ele>1611</ele>
        <time>2017-01-18T10:32:27.102Z</time>
      </trkpt>
      <trkpt lat="42.98517" lon="-0.00646">
        <ele>1611</ele>
        <time>2017-01-18T10:32:28.102Z</time>
      </trkpt>
      <trkpt lat="42.98517" lon="-0.00647">
        <ele>1612</ele>
        <time>2017-01-18T10:32:29.102Z</time>
      </trkpt>
      <trkpt lat="42.98517" lon="-0.00647">
        <ele>1612</ele>
        <time>2017-01-18T10:32:30.102Z</time>
      </trkpt>
      <trkpt lat="42.98518" lon="-0.00648">
        <ele>1612</ele>
        <time>2017-01-18T10:32:31.102Z</time>
      </trkpt>
      <trkpt lat="42.98518" lon="-0.00648">
        <ele>1612</ele>
        <time>2017-01-18T10:32:32.102Z</time>
      </trkpt>
      <trkpt lat="42.98519" lon="-0.00648">
        <ele>1612</ele>
        <time>2017-01-18T10:32:33.102Z</time>
      </trkpt>
      <trkpt lat="42.98519" lon="-0.00649">
        <ele>1612</ele>
        <time>2017-01-18T10:32:34.102Z</time>
      </trkpt>
      <trkpt lat="42.98519" lon="-0.00649">
        <ele>1612</ele>
        <time>2017-01-18T10:32:35.102Z</time>
      </trkpt>
      <trkpt lat="42.9852" lon="-0.00649">
        <ele>1612</ele>
        <time>2017-01-18T10:32:36.102Z</time>
      </trkpt>
      <trkpt lat="42.9852" lon="-0.00649">
        <ele>1612</ele>
        <time>2017-01-18T10:32:37.102Z</time>
      </trkpt>
      <trkpt lat="42.98521" lon="-0.00649">
        <ele>1612</ele>
        <time>2017-01-18T10:32:38.102Z</time>
      </trkpt>
      <trkpt lat="42.98521" lon="-0.0065">
        <ele>1612</ele>
        <time>2017-01-18T10:32:39.102Z</time>
      </trkpt>
      <trkpt lat="42.98522" lon="-0.0065">
        <ele>1612</ele>
        <time>2017-01-18T10:32:40.102Z</time>
      </trkpt>
      <trkpt lat="42.98522" lon="-0.0065">
        <ele>1612</ele>
        <time>2017-01-18T10:32:41.102Z</time>
      </trkpt>
      <trkpt lat="42.98523" lon="-0.0065">
        <ele>1612</ele>
        <time>2017-01-18T10:32:42.102Z</time>
      </trkpt>
      <trkpt lat="42.98523" lon="-0.0065">
        <ele>1612</ele>
        <time>2017-01-18T10:32:43.102Z</time>
      </trkpt>
      <trkpt lat="42.98524" lon="-0.0065">
        <ele>1612</ele>
        <time>2017-01-18T10:32:44.102Z</time>
      </trkpt>
      <trkpt lat="42.98524" lon="-0.0065">
        <ele>1612</ele>
        <time>2017-01-18T10:32:45.102Z</time>
      </trkpt>
      <trkpt lat="42.98525" lon="-0.0065">
        <ele>1612</ele>
        <time>2017-01-18T10:32:46.102Z</time>
      </trkpt>
      <trkpt lat="42.98526" lon="-0.0065">
        <ele>1612</ele>
        <time>2017-01-18T10:32:47.102Z</time>
      </trkpt>
      <trkpt lat="42.98526" lon="-0.0065">
        <ele>1612</ele>
        <time>2017-01-18T10:32:48.102Z</time>
      </trkpt>
      <trkpt lat="42.98527" lon="-0.00651">
        <ele>1612</ele>
        <time>2017-01-18T10:32:49.102Z</time>
      </trkpt>
      <trkpt lat="42.98527" lon="-0.0065">
        <ele>1612</ele>
        <time>2017-01-18T10:32:50.102Z</time>
      </trkpt>
      <trkpt lat="42.98527" lon="-0.00651">
        <ele>1613</ele>
        <time>2017-01-18T10:32:51.102Z</time>
      </trkpt>
      <trkpt lat="42.98528" lon="-0.00651">
        <ele>1613</ele>
        <time>2017-01-18T10:32:52.102Z</time>
      </trkpt>
      <trkpt lat="42.98528" lon="-0.00651">
        <ele>1613</ele>
        <time>2017-01-18T10:32:53.102Z</time>
      </trkpt>
      <trkpt lat="42.98529" lon="-0.00651">
        <ele>1613</ele>
        <time>2017-01-18T10:32:54.102Z</time>
      </trkpt>
      <trkpt lat="42.98529" lon="-0.00651">
        <ele>1613</ele>
        <time>2017-01-18T10:32:55.102Z</time>
      </trkpt>
      <trkpt lat="42.98529" lon="-0.00652">
        <ele>1613</ele>
        <time>2017-01-18T10:32:56.102Z</time>
      </trkpt>
      <trkpt lat="42.9853" lon="-0.00652">
        <ele>1613</ele>
        <time>2017-01-18T10:32:57.102Z</time>
      </trkpt>
      <trkpt lat="42.9853" lon="-0.00653">
        <ele>1613</ele>
        <time>2017-01-18T10:32:58.102Z</time>
      </trkpt>
      <trkpt lat="42.9853" lon="-0.00654">
        <ele>1613</ele>
        <time>2017-01-18T10:32:59.102Z</time>
      </trkpt>
      <trkpt lat="42.9853" lon="-0.00654">
        <ele>1613</ele>
        <time>2017-01-18T10:33:00.102Z</time>
      </trkpt>
      <trkpt lat="42.9853" lon="-0.00655">
        <ele>1614</ele>
        <time>2017-01-18T10:33:01.102Z</time>
      </trkpt>
      <trkpt lat="42.9853" lon="-0.00656">
        <ele>1614</ele>
        <time>2017-01-18T10:33:02.102Z</time>
      </trkpt>
      <trkpt lat="42.9853" lon="-0.00656">
        <ele>1614</ele>
        <time>2017-01-18T10:33:03.102Z</time>
      </trkpt>
      <trkpt lat="42.9853" lon="-0.00657">
        <ele>1614</ele>
        <time>2017-01-18T10:33:04.102Z</time>
      </trkpt>
      <trkpt lat="42.9853" lon="-0.00658">
        <ele>1614</ele>
        <time>2017-01-18T10:33:05.102Z</time>
      </trkpt>
      <trkpt lat="42.9853" lon="-0.00659">
        <ele>1614</ele>
        <time>2017-01-18T10:33:06.102Z</time>
      </trkpt>
      <trkpt lat="42.98531" lon="-0.00659">
        <ele>1614</ele>
        <time>2017-01-18T10:33:07.102Z</time>
      </trkpt>
      <trkpt lat="42.98531" lon="-0.0066">
        <ele>1615</ele>
        <time>2017-01-18T10:33:08.102Z</time>
      </trkpt>
      <trkpt lat="42.98531" lon="-0.0066">
        <ele>1614</ele>
        <time>2017-01-18T10:33:09.102Z</time>
      </trkpt>
      <trkpt lat="42.98531" lon="-0.00661">
        <ele>1615</ele>
        <time>2017-01-18T10:33:10.102Z</time>
      </trkpt>
      <trkpt lat="42.98531" lon="-0.00662">
        <ele>1615</ele>
        <time>2017-01-18T10:33:11.102Z</time>
      </trkpt>
      <trkpt lat="42.98531" lon="-0.00662">
        <ele>1615</ele>
        <time>2017-01-18T10:33:12.102Z</time>
      </trkpt>
      <trkpt lat="42.98531" lon="-0.00663">
        <ele>1615</ele>
        <time>2017-01-18T10:33:13.102Z</time>
      </trkpt>
      <trkpt lat="42.98532" lon="-0.00663">
        <ele>1615</ele>
        <time>2017-01-18T10:33:14.102Z</time>
      </trkpt>
      <trkpt lat="42.98532" lon="-0.00664">
        <ele>1615</ele>
        <time>2017-01-18T10:33:15.102Z</time>
      </trkpt>
      <trkpt lat="42.98532" lon="-0.00665">
        <ele>1615</ele>
        <time>2017-01-18T10:33:16.102Z</time>
      </trkpt>
      <trkpt lat="42.98532" lon="-0.00665">
        <ele>1615</ele>
        <time>2017-01-18T10:33:17.102Z</time>
      </trkpt>
      <trkpt lat="42.98533" lon="-0.00666">
        <ele>1615</ele>
        <time>2017-01-18T10:33:18.102Z</time>
      </trkpt>
      <trkpt lat="42.98533" lon="-0.00666">
        <ele>1615</ele>
        <time>2017-01-18T10:33:19.102Z</time>
      </trkpt>
      <trkpt lat="42.98533" lon="-0.00667">
        <ele>1615</ele>
        <time>2017-01-18T10:33:20.102Z</time>
      </trkpt>
      <trkpt lat="42.98534" lon="-0.00668">
        <ele>1615</ele>
        <time>2017-01-18T10:33:21.102Z</time>
      </trkpt>
      <trkpt lat="42.98534" lon="-0.00668">
        <ele>1615</ele>
        <time>2017-01-18T10:33:22.102Z</time>
      </trkpt>
      <trkpt lat="42.98534" lon="-0.00669">
        <ele>1615</ele>
        <time>2017-01-18T10:33:23.102Z</time>
      </trkpt>
      <trkpt lat="42.98535" lon="-0.0067">
        <ele>1615</ele>
        <time>2017-01-18T10:33:24.102Z</time>
      </trkpt>
      <trkpt lat="42.98535" lon="-0.0067">
        <ele>1615</ele>
        <time>2017-01-18T10:33:25.102Z</time>
      </trkpt>
      <trkpt lat="42.98536" lon="-0.00671">
        <ele>1615</ele>
        <time>2017-01-18T10:33:26.102Z</time>
      </trkpt>
      <trkpt lat="42.98536" lon="-0.00672">
        <ele>1616</ele>
        <time>2017-01-18T10:33:27.102Z</time>
      </trkpt>
      <trkpt lat="42.98537" lon="-0.00672">
        <ele>1616</ele>
        <time>2017-01-18T10:33:28.102Z</time>
      </trkpt>
      <trkpt lat="42.98538" lon="-0.00673">
        <ele>1616</ele>
        <time>2017-01-18T10:33:29.102Z</time>
      </trkpt>
      <trkpt lat="42.98538" lon="-0.00673">
        <ele>1615</ele>
        <time>2017-01-18T10:33:30.102Z</time>
      </trkpt>
      <trkpt lat="42.98539" lon="-0.00673">
        <ele>1615</ele>
        <time>2017-01-18T10:33:31.102Z</time>
      </trkpt>
      <trkpt lat="42.9854" lon="-0.00673">
        <ele>1615</ele>
        <time>2017-01-18T10:33:32.102Z</time>
      </trkpt>
      <trkpt lat="42.9854" lon="-0.00673">
        <ele>1615</ele>
        <time>2017-01-18T10:33:33.102Z</time>
      </trkpt>
      <trkpt lat="42.98541" lon="-0.00673">
        <ele>1615</ele>
        <time>2017-01-18T10:33:34.102Z</time>
      </trkpt>
      <trkpt lat="42.98542" lon="-0.00673">
        <ele>1615</ele>
        <time>2017-01-18T10:33:35.102Z</time>
      </trkpt>
      <trkpt lat="42.98542" lon="-0.00673">
        <ele>1615</ele>
        <time>2017-01-18T10:33:36.102Z</time>
      </trkpt>
      <trkpt lat="42.98543" lon="-0.00673">
        <ele>1615</ele>
        <time>2017-01-18T10:33:37.102Z</time>
      </trkpt>
      <trkpt lat="42.98544" lon="-0.00673">
        <ele>1615</ele>
        <time>2017-01-18T10:33:38.102Z</time>
      </trkpt>
      <trkpt lat="42.98544" lon="-0.00674">
        <ele>1615</ele>
        <time>2017-01-18T10:33:39.102Z</time>
      </trkpt>
      <trkpt lat="42.98545" lon="-0.00674">
        <ele>1615</ele>
        <time>2017-01-18T10:33:40.102Z</time>
      </trkpt>
      <trkpt lat="42.98546" lon="-0.00674">
        <ele>1615</ele>
        <time>2017-01-18T10:33:41.102Z</time>
      </trkpt>
      <trkpt lat="42.98547" lon="-0.00674">
        <ele>1615</ele>
        <time>2017-01-18T10:33:42.102Z</time>
      </trkpt>
      <trkpt lat="42.98548" lon="-0.00674">
        <ele>1615</ele>
        <time>2017-01-18T10:33:43.102Z</time>
      </trkpt>
      <trkpt lat="42.98548" lon="-0.00674">
        <ele>1615</ele>
        <time>2017-01-18T10:33:44.102Z</time>
      </trkpt>
      <trkpt lat="42.98549" lon="-0.00673">
        <ele>1615</ele>
        <time>2017-01-18T10:33:45.102Z</time>
      </trkpt>
      <trkpt lat="42.9855" lon="-0.00673">
        <ele>1615</ele>
        <time>2017-01-18T10:33:46.102Z</time>
      </trkpt>
      <trkpt lat="42.9855" lon="-0.00673">
        <ele>1616</ele>
        <time>2017-01-18T10:33:47.102Z</time>
      </trkpt>
      <trkpt lat="42.98551" lon="-0.00673">
        <ele>1615</ele>
        <time>2017-01-18T10:33:48.102Z</time>
      </trkpt>
      <trkpt lat="42.98552" lon="-0.00673">
        <ele>1615</ele>
        <time>2017-01-18T10:33:49.102Z</time>
      </trkpt>
      <trkpt lat="42.98553" lon="-0.00673">
        <ele>1616</ele>
        <time>2017-01-18T10:33:50.102Z</time>
      </trkpt>
      <trkpt lat="42.98553" lon="-0.00673">
        <ele>1616</ele>
        <time>2017-01-18T10:33:51.102Z</time>
      </trkpt>
      <trkpt lat="42.98554" lon="-0.00673">
        <ele>1616</ele>
        <time>2017-01-18T10:33:52.102Z</time>
      </trkpt>
      <trkpt lat="42.98555" lon="-0.00673">
        <ele>1616</ele>
        <time>2017-01-18T10:33:53.102Z</time>
      </trkpt>
      <trkpt lat="42.98556" lon="-0.00673">
        <ele>1616</ele>
        <time>2017-01-18T10:33:54.102Z</time>
      </trkpt>
      <trkpt lat="42.98556" lon="-0.00673">
        <ele>1616</ele>
        <time>2017-01-18T10:33:55.102Z</time>
      </trkpt>
      <trkpt lat="42.98557" lon="-0.00673">
        <ele>1616</ele>
        <time>2017-01-18T10:33:56.102Z</time>
      </trkpt>
      <trkpt lat="42.98558" lon="-0.00673">
        <ele>1615</ele>
        <time>2017-01-18T10:33:57.102Z</time>
      </trkpt>
      <trkpt lat="42.98559" lon="-0.00673">
        <ele>1615</ele>
        <time>2017-01-18T10:33:58.102Z</time>
      </trkpt>
      <trkpt lat="42.9856" lon="-0.00673">
        <ele>1615</ele>
        <time>2017-01-18T10:33:59.102Z</time>
      </trkpt>
      <trkpt lat="42.98561" lon="-0.00673">
        <ele>1615</ele>
        <time>2017-01-18T10:34:00.102Z</time>
      </trkpt>
      <trkpt lat="42.98562" lon="-0.00673">
        <ele>1615</ele>
        <time>2017-01-18T10:34:01.102Z</time>
      </trkpt>
      <trkpt lat="42.98563" lon="-0.00673">
        <ele>1615</ele>
        <time>2017-01-18T10:34:02.102Z</time>
      </trkpt>
      <trkpt lat="42.98564" lon="-0.00673">
        <ele>1615</ele>
        <time>2017-01-18T10:34:03.102Z</time>
      </trkpt>
      <trkpt lat="42.98565" lon="-0.00673">
        <ele>1615</ele>
        <time>2017-01-18T10:34:04.102Z</time>
      </trkpt>
      <trkpt lat="42.98565" lon="-0.00674">
        <ele>1615</ele>
        <time>2017-01-18T10:34:05.102Z</time>
      </trkpt>
      <trkpt lat="42.98566" lon="-0.00674">
        <ele>1615</ele>
        <time>2017-01-18T10:34:06.102Z</time>
      </trkpt>
      <trkpt lat="42.98567" lon="-0.00674">
        <ele>1615</ele>
        <time>2017-01-18T10:34:07.102Z</time>
      </trkpt>
      <trkpt lat="42.98568" lon="-0.00674">
        <ele>1615</ele>
        <time>2017-01-18T10:34:08.102Z</time>
      </trkpt>
      <trkpt lat="42.98569" lon="-0.00674">
        <ele>1615</ele>
        <time>2017-01-18T10:34:09.102Z</time>
      </trkpt>
      <trkpt lat="42.9857" lon="-0.00674">
        <ele>1615</ele>
        <time>2017-01-18T10:34:10.102Z</time>
      </trkpt>
      <trkpt lat="42.98571" lon="-0.00674">
        <ele>1615</ele>
        <time>2017-01-18T10:34:11.102Z</time>
      </trkpt>
      <trkpt lat="42.98572" lon="-0.00674">
        <ele>1614</ele>
        <time>2017-01-18T10:34:12.102Z</time>
      </trkpt>
      <trkpt lat="42.98573" lon="-0.00674">
        <ele>1614</ele>
        <time>2017-01-18T10:34:13.102Z</time>
      </trkpt>
      <trkpt lat="42.98574" lon="-0.00674">
        <ele>1614</ele>
        <time>2017-01-18T10:34:14.102Z</time>
      </trkpt>
      <trkpt lat="42.98574" lon="-0.00674">
        <ele>1614</ele>
        <time>2017-01-18T10:34:15.102Z</time>
      </trkpt>
      <trkpt lat="42.98576" lon="-0.00674">
        <ele>1614</ele>
        <time>2017-01-18T10:34:16.102Z</time>
      </trkpt>
      <trkpt lat="42.98577" lon="-0.00674">
        <ele>1614</ele>
        <time>2017-01-18T10:34:17.102Z</time>
      </trkpt>
      <trkpt lat="42.98578" lon="-0.00674">
        <ele>1614</ele>
        <time>2017-01-18T10:34:18.102Z</time>
      </trkpt>
      <trkpt lat="42.98578" lon="-0.00674">
        <ele>1614</ele>
        <time>2017-01-18T10:34:19.102Z</time>
      </trkpt>
      <trkpt lat="42.98579" lon="-0.00674">
        <ele>1614</ele>
        <time>2017-01-18T10:34:20.102Z</time>
      </trkpt>
      <trkpt lat="42.9858" lon="-0.00674">
        <ele>1614</ele>
        <time>2017-01-18T10:34:21.102Z</time>
      </trkpt>
      <trkpt lat="42.98581" lon="-0.00674">
        <ele>1614</ele>
        <time>2017-01-18T10:34:22.102Z</time>
      </trkpt>
      <trkpt lat="42.98582" lon="-0.00674">
        <ele>1614</ele>
        <time>2017-01-18T10:34:23.102Z</time>
      </trkpt>
      <trkpt lat="42.98583" lon="-0.00674">
        <ele>1613</ele>
        <time>2017-01-18T10:34:24.102Z</time>
      </trkpt>
      <trkpt lat="42.98584" lon="-0.00674">
        <ele>1613</ele>
        <time>2017-01-18T10:34:25.102Z</time>
      </trkpt>
      <trkpt lat="42.98585" lon="-0.00674">
        <ele>1613</ele>
        <time>2017-01-18T10:34:26.102Z</time>
      </trkpt>
      <trkpt lat="42.98586" lon="-0.00674">
        <ele>1613</ele>
        <time>2017-01-18T10:34:27.102Z</time>
      </trkpt>
      <trkpt lat="42.98587" lon="-0.00674">
        <ele>1613</ele>
        <time>2017-01-18T10:34:28.102Z</time>
      </trkpt>
      <trkpt lat="42.98588" lon="-0.00674">
        <ele>1613</ele>
        <time>2017-01-18T10:34:29.102Z</time>
      </trkpt>
      <trkpt lat="42.98589" lon="-0.00675">
        <ele>1613</ele>
        <time>2017-01-18T10:34:30.102Z</time>
      </trkpt>
      <trkpt lat="42.9859" lon="-0.00675">
        <ele>1613</ele>
        <time>2017-01-18T10:34:31.102Z</time>
      </trkpt>
      <trkpt lat="42.98591" lon="-0.00675">
        <ele>1613</ele>
        <time>2017-01-18T10:34:32.102Z</time>
      </trkpt>
      <trkpt lat="42.98592" lon="-0.00675">
        <ele>1613</ele>
        <time>2017-01-18T10:34:33.102Z</time>
      </trkpt>
      <trkpt lat="42.98593" lon="-0.00676">
        <ele>1612</ele>
        <time>2017-01-18T10:34:34.102Z</time>
      </trkpt>
      <trkpt lat="42.98594" lon="-0.00676">
        <ele>1612</ele>
        <time>2017-01-18T10:34:35.102Z</time>
      </trkpt>
      <trkpt lat="42.98595" lon="-0.00676">
        <ele>1612</ele>
        <time>2017-01-18T10:34:36.102Z</time>
      </trkpt>
      <trkpt lat="42.98596" lon="-0.00676">
        <ele>1612</ele>
        <time>2017-01-18T10:34:37.102Z</time>
      </trkpt>
      <trkpt lat="42.98597" lon="-0.00676">
        <ele>1612</ele>
        <time>2017-01-18T10:34:38.102Z</time>
      </trkpt>
      <trkpt lat="42.98598" lon="-0.00676">
        <ele>1612</ele>
        <time>2017-01-18T10:34:39.102Z</time>
      </trkpt>
      <trkpt lat="42.98599" lon="-0.00676">
        <ele>1612</ele>
        <time>2017-01-18T10:34:40.102Z</time>
      </trkpt>
      <trkpt lat="42.986" lon="-0.00676">
        <ele>1612</ele>
        <time>2017-01-18T10:34:41.102Z</time>
      </trkpt>
      <trkpt lat="42.98601" lon="-0.00676">
        <ele>1612</ele>
        <time>2017-01-18T10:34:42.102Z</time>
      </trkpt>
      <trkpt lat="42.98602" lon="-0.00676">
        <ele>1611</ele>
        <time>2017-01-18T10:34:43.102Z</time>
      </trkpt>
      <trkpt lat="42.98602" lon="-0.00677">
        <ele>1611</ele>
        <time>2017-01-18T10:34:44.102Z</time>
      </trkpt>
      <trkpt lat="42.98603" lon="-0.00677">
        <ele>1611</ele>
        <time>2017-01-18T10:34:45.102Z</time>
      </trkpt>
      <trkpt lat="42.98604" lon="-0.00677">
        <ele>1611</ele>
        <time>2017-01-18T10:34:46.102Z</time>
      </trkpt>
      <trkpt lat="42.98605" lon="-0.00677">
        <ele>1611</ele>
        <time>2017-01-18T10:34:47.102Z</time>
      </trkpt>
      <trkpt lat="42.98606" lon="-0.00677">
        <ele>1611</ele>
        <time>2017-01-18T10:34:48.102Z</time>
      </trkpt>
      <trkpt lat="42.98607" lon="-0.00677">
        <ele>1611</ele>
        <time>2017-01-18T10:34:49.102Z</time>
      </trkpt>
      <trkpt lat="42.98608" lon="-0.00677">
        <ele>1611</ele>
        <time>2017-01-18T10:34:50.102Z</time>
      </trkpt>
      <trkpt lat="42.98609" lon="-0.00677">
        <ele>1611</ele>
        <time>2017-01-18T10:34:51.102Z</time>
      </trkpt>
      <trkpt lat="42.9861" lon="-0.00677">
        <ele>1611</ele>
        <time>2017-01-18T10:34:52.102Z</time>
      </trkpt>
      <trkpt lat="42.98611" lon="-0.00678">
        <ele>1611</ele>
        <time>2017-01-18T10:34:53.102Z</time>
      </trkpt>
      <trkpt lat="42.98611" lon="-0.00678">
        <ele>1611</ele>
        <time>2017-01-18T10:34:54.102Z</time>
      </trkpt>
      <trkpt lat="42.98611" lon="-0.00678">
        <ele>1611</ele>
        <time>2017-01-18T10:34:55.102Z</time>
      </trkpt>
      <trkpt lat="42.98611" lon="-0.00678">
        <ele>1611</ele>
        <time>2017-01-18T10:34:56.102Z</time>
      </trkpt>
      <trkpt lat="42.98611" lon="-0.00678">
        <ele>1611</ele>
        <time>2017-01-18T10:34:57.102Z</time>
      </trkpt>
      <trkpt lat="42.98611" lon="-0.00678">
        <ele>1611</ele>
        <time>2017-01-18T10:34:58.102Z</time>
      </trkpt>
      <trkpt lat="42.98612" lon="-0.00678">
        <ele>1611</ele>
        <time>2017-01-18T10:34:59.102Z</time>
      </trkpt>
      <trkpt lat="42.98612" lon="-0.00678">
        <ele>1611</ele>
        <time>2017-01-18T10:35:00.102Z</time>
      </trkpt>
      <trkpt lat="42.98613" lon="-0.00678">
        <ele>1611</ele>
        <time>2017-01-18T10:35:01.102Z</time>
      </trkpt>
      <trkpt lat="42.98614" lon="-0.00678">
        <ele>1611</ele>
        <time>2017-01-18T10:35:02.102Z</time>
      </trkpt>
      <trkpt lat="42.98614" lon="-0.00678">
        <ele>1611</ele>
        <time>2017-01-18T10:35:03.102Z</time>
      </trkpt>
      <trkpt lat="42.98615" lon="-0.00678">
        <ele>1611</ele>
        <time>2017-01-18T10:35:04.102Z</time>
      </trkpt>
      <trkpt lat="42.98616" lon="-0.00678">
        <ele>1611</ele>
        <time>2017-01-18T10:35:05.102Z</time>
      </trkpt>
      <trkpt lat="42.98616" lon="-0.00678">
        <ele>1611</ele>
        <time>2017-01-18T10:35:06.102Z</time>
      </trkpt>
      <trkpt lat="42.98617" lon="-0.00678">
        <ele>1611</ele>
        <time>2017-01-18T10:35:07.102Z</time>
      </trkpt>
      <trkpt lat="42.98618" lon="-0.00678">
        <ele>1610</ele>
        <time>2017-01-18T10:35:08.102Z</time>
      </trkpt>
      <trkpt lat="42.98618" lon="-0.00678">
        <ele>1610</ele>
        <time>2017-01-18T10:35:09.102Z</time>
      </trkpt>
      <trkpt lat="42.98619" lon="-0.00678">
        <ele>1610</ele>
        <time>2017-01-18T10:35:10.102Z</time>
      </trkpt>
      <trkpt lat="42.98619" lon="-0.00678">
        <ele>1610</ele>
        <time>2017-01-18T10:35:11.102Z</time>
      </trkpt>
      <trkpt lat="42.9862" lon="-0.00678">
        <ele>1610</ele>
        <time>2017-01-18T10:35:12.102Z</time>
      </trkpt>
      <trkpt lat="42.9862" lon="-0.00678">
        <ele>1610</ele>
        <time>2017-01-18T10:35:13.102Z</time>
      </trkpt>
      <trkpt lat="42.98621" lon="-0.00678">
        <ele>1610</ele>
        <time>2017-01-18T10:35:14.102Z</time>
      </trkpt>
      <trkpt lat="42.98621" lon="-0.00678">
        <ele>1610</ele>
        <time>2017-01-18T10:35:15.102Z</time>
      </trkpt>
      <trkpt lat="42.98622" lon="-0.00678">
        <ele>1610</ele>
        <time>2017-01-18T10:35:16.102Z</time>
      </trkpt>
      <trkpt lat="42.98622" lon="-0.00678">
        <ele>1610</ele>
        <time>2017-01-18T10:35:17.102Z</time>
      </trkpt>
      <trkpt lat="42.98623" lon="-0.00678">
        <ele>1610</ele>
        <time>2017-01-18T10:35:18.102Z</time>
      </trkpt>
      <trkpt lat="42.98623" lon="-0.00678">
        <ele>1610</ele>
        <time>2017-01-18T10:35:19.102Z</time>
      </trkpt>
      <trkpt lat="42.98624" lon="-0.00678">
        <ele>1610</ele>
        <time>2017-01-18T10:35:20.102Z</time>
      </trkpt>
      <trkpt lat="42.98624" lon="-0.00678">
        <ele>1610</ele>
        <time>2017-01-18T10:35:21.102Z</time>
      </trkpt>
      <trkpt lat="42.98623" lon="-0.00678">
        <ele>1610</ele>
        <time>2017-01-18T10:35:22.102Z</time>
      </trkpt>
      <trkpt lat="42.98623" lon="-0.00678">
        <ele>1610</ele>
        <time>2017-01-18T10:35:23.102Z</time>
      </trkpt>
      <trkpt lat="42.98623" lon="-0.00678">
        <ele>1610</ele>
        <time>2017-01-18T10:35:24.102Z</time>
      </trkpt>
      <trkpt lat="42.98623" lon="-0.00678">
        <ele>1610</ele>
        <time>2017-01-18T10:35:25.102Z</time>
      </trkpt>
      <trkpt lat="42.98625" lon="-0.00678">
        <ele>1609</ele>
        <time>2017-01-18T10:35:26.106Z</time>
      </trkpt>
      <trkpt lat="42.98625" lon="-0.00678">
        <ele>1609</ele>
        <time>2017-01-18T10:35:27.106Z</time>
      </trkpt>
      <trkpt lat="42.98625" lon="-0.00678">
        <ele>1609</ele>
        <time>2017-01-18T10:35:28.106Z</time>
      </trkpt>
      <trkpt lat="42.98625" lon="-0.00679">
        <ele>1609</ele>
        <time>2017-01-18T10:35:29.106Z</time>
      </trkpt>
      <trkpt lat="42.98625" lon="-0.00678">
        <ele>1610</ele>
        <time>2017-01-18T10:35:30.106Z</time>
      </trkpt>
      <trkpt lat="42.98625" lon="-0.00678">
        <ele>1610</ele>
        <time>2017-01-18T10:35:31.106Z</time>
      </trkpt>
      <trkpt lat="42.98627" lon="-0.00678">
        <ele>1609</ele>
        <time>2017-01-18T10:35:32.106Z</time>
      </trkpt>
      <trkpt lat="42.98628" lon="-0.00679">
        <ele>1609</ele>
        <time>2017-01-18T10:35:33.106Z</time>
      </trkpt>
      <trkpt lat="42.98629" lon="-0.00679">
        <ele>1609</ele>
        <time>2017-01-18T10:35:34.106Z</time>
      </trkpt>
      <trkpt lat="42.9863" lon="-0.00679">
        <ele>1609</ele>
        <time>2017-01-18T10:35:35.106Z</time>
      </trkpt>
      <trkpt lat="42.98631" lon="-0.00679">
        <ele>1609</ele>
        <time>2017-01-18T10:35:36.106Z</time>
      </trkpt>
      <trkpt lat="42.98632" lon="-0.00679">
        <ele>1609</ele>
        <time>2017-01-18T10:35:37.106Z</time>
      </trkpt>
      <trkpt lat="42.98633" lon="-0.00679">
        <ele>1608</ele>
        <time>2017-01-18T10:35:38.106Z</time>
      </trkpt>
      <trkpt lat="42.98633" lon="-0.0068">
        <ele>1608</ele>
        <time>2017-01-18T10:35:39.106Z</time>
      </trkpt>
      <trkpt lat="42.98634" lon="-0.0068">
        <ele>1608</ele>
        <time>2017-01-18T10:35:40.106Z</time>
      </trkpt>
      <trkpt lat="42.98635" lon="-0.0068">
        <ele>1608</ele>
        <time>2017-01-18T10:35:41.106Z</time>
      </trkpt>
      <trkpt lat="42.98636" lon="-0.00681">
        <ele>1608</ele>
        <time>2017-01-18T10:35:42.106Z</time>
      </trkpt>
      <trkpt lat="42.98637" lon="-0.00681">
        <ele>1608</ele>
        <time>2017-01-18T10:35:43.106Z</time>
      </trkpt>
      <trkpt lat="42.98637" lon="-0.00681">
        <ele>1608</ele>
        <time>2017-01-18T10:35:44.106Z</time>
      </trkpt>
      <trkpt lat="42.98638" lon="-0.00682">
        <ele>1608</ele>
        <time>2017-01-18T10:35:45.106Z</time>
      </trkpt>
      <trkpt lat="42.98639" lon="-0.00682">
        <ele>1608</ele>
        <time>2017-01-18T10:35:46.106Z</time>
      </trkpt>
      <trkpt lat="42.9864" lon="-0.00682">
        <ele>1608</ele>
        <time>2017-01-18T10:35:47.106Z</time>
      </trkpt>
      <trkpt lat="42.98641" lon="-0.00682">
        <ele>1608</ele>
        <time>2017-01-18T10:35:48.106Z</time>
      </trkpt>
      <trkpt lat="42.98642" lon="-0.00682">
        <ele>1608</ele>
        <time>2017-01-18T10:35:49.106Z</time>
      </trkpt>
      <trkpt lat="42.98643" lon="-0.00683">
        <ele>1608</ele>
        <time>2017-01-18T10:35:50.106Z</time>
      </trkpt>
      <trkpt lat="42.98644" lon="-0.00683">
        <ele>1607</ele>
        <time>2017-01-18T10:35:51.106Z</time>
      </trkpt>
      <trkpt lat="42.98645" lon="-0.00683">
        <ele>1607</ele>
        <time>2017-01-18T10:35:52.106Z</time>
      </trkpt>
      <trkpt lat="42.98645" lon="-0.00683">
        <ele>1607</ele>
        <time>2017-01-18T10:35:53.106Z</time>
      </trkpt>
      <trkpt lat="42.98646" lon="-0.00683">
        <ele>1607</ele>
        <time>2017-01-18T10:35:54.106Z</time>
      </trkpt>
      <trkpt lat="42.98646" lon="-0.00683">
        <ele>1607</ele>
        <time>2017-01-18T10:35:55.106Z</time>
      </trkpt>
      <trkpt lat="42.98646" lon="-0.00683">
        <ele>1607</ele>
        <time>2017-01-18T10:35:56.106Z</time>
      </trkpt>
      <trkpt lat="42.98646" lon="-0.00683">
        <ele>1607</ele>
        <time>2017-01-18T10:35:57.106Z</time>
      </trkpt>
      <trkpt lat="42.98646" lon="-0.00683">
        <ele>1606</ele>
        <time>2017-01-18T10:35:58.106Z</time>
      </trkpt>
      <trkpt lat="42.98646" lon="-0.00683">
        <ele>1606</ele>
        <time>2017-01-18T10:35:59.106Z</time>
      </trkpt>
      <trkpt lat="42.98646" lon="-0.00683">
        <ele>1607</ele>
        <time>2017-01-18T10:36:00.106Z</time>
      </trkpt>
      <trkpt lat="42.98649" lon="-0.00683">
        <ele>1606</ele>
        <time>2017-01-18T10:36:01.117Z</time>
      </trkpt>
      <trkpt lat="42.98649" lon="-0.00683">
        <ele>1606</ele>
        <time>2017-01-18T10:36:02.117Z</time>
      </trkpt>
      <trkpt lat="42.98649" lon="-0.00683">
        <ele>1606</ele>
        <time>2017-01-18T10:36:03.117Z</time>
      </trkpt>
      <trkpt lat="42.98649" lon="-0.00683">
        <ele>1606</ele>
        <time>2017-01-18T10:36:04.117Z</time>
      </trkpt>
      <trkpt lat="42.98649" lon="-0.00683">
        <ele>1606</ele>
        <time>2017-01-18T10:36:05.117Z</time>
      </trkpt>
      <trkpt lat="42.98649" lon="-0.00683">
        <ele>1606</ele>
        <time>2017-01-18T10:36:06.117Z</time>
      </trkpt>
      <trkpt lat="42.9865" lon="-0.00683">
        <ele>1606</ele>
        <time>2017-01-18T10:36:07.117Z</time>
      </trkpt>
      <trkpt lat="42.9865" lon="-0.00683">
        <ele>1607</ele>
        <time>2017-01-18T10:36:08.117Z</time>
      </trkpt>
      <trkpt lat="42.98651" lon="-0.00683">
        <ele>1606</ele>
        <time>2017-01-18T10:36:09.117Z</time>
      </trkpt>
      <trkpt lat="42.98651" lon="-0.00683">
        <ele>1606</ele>
        <time>2017-01-18T10:36:10.117Z</time>
      </trkpt>
      <trkpt lat="42.98652" lon="-0.00684">
        <ele>1606</ele>
        <time>2017-01-18T10:36:11.117Z</time>
      </trkpt>
      <trkpt lat="42.98653" lon="-0.00684">
        <ele>1606</ele>
        <time>2017-01-18T10:36:12.117Z</time>
      </trkpt>
      <trkpt lat="42.98653" lon="-0.00684">
        <ele>1606</ele>
        <time>2017-01-18T10:36:13.117Z</time>
      </trkpt>
      <trkpt lat="42.98654" lon="-0.00684">
        <ele>1606</ele>
        <time>2017-01-18T10:36:14.117Z</time>
      </trkpt>
      <trkpt lat="42.98655" lon="-0.00684">
        <ele>1606</ele>
        <time>2017-01-18T10:36:15.117Z</time>
      </trkpt>
      <trkpt lat="42.98656" lon="-0.00684">
        <ele>1606</ele>
        <time>2017-01-18T10:36:16.117Z</time>
      </trkpt>
      <trkpt lat="42.98657" lon="-0.00684">
        <ele>1606</ele>
        <time>2017-01-18T10:36:17.117Z</time>
      </trkpt>
      <trkpt lat="42.98657" lon="-0.00684">
        <ele>1606</ele>
        <time>2017-01-18T10:36:18.117Z</time>
      </trkpt>
      <trkpt lat="42.98658" lon="-0.00684">
        <ele>1606</ele>
        <time>2017-01-18T10:36:19.117Z</time>
      </trkpt>
      <trkpt lat="42.98659" lon="-0.00685">
        <ele>1606</ele>
        <time>2017-01-18T10:36:20.117Z</time>
      </trkpt>
      <trkpt lat="42.9866" lon="-0.00685">
        <ele>1606</ele>
        <time>2017-01-18T10:36:21.117Z</time>
      </trkpt>
      <trkpt lat="42.9866" lon="-0.00685">
        <ele>1606</ele>
        <time>2017-01-18T10:36:22.117Z</time>
      </trkpt>
      <trkpt lat="42.98661" lon="-0.00685">
        <ele>1606</ele>
        <time>2017-01-18T10:36:23.117Z</time>
      </trkpt>
      <trkpt lat="42.98662" lon="-0.00685">
        <ele>1606</ele>
        <time>2017-01-18T10:36:24.117Z</time>
      </trkpt>
      <trkpt lat="42.98662" lon="-0.00685">
        <ele>1606</ele>
        <time>2017-01-18T10:36:25.117Z</time>
      </trkpt>
      <trkpt lat="42.98663" lon="-0.00685">
        <ele>1606</ele>
        <time>2017-01-18T10:36:26.117Z</time>
      </trkpt>
      <trkpt lat="42.98664" lon="-0.00685">
        <ele>1606</ele>
        <time>2017-01-18T10:36:27.117Z</time>
      </trkpt>
      <trkpt lat="42.98665" lon="-0.00685">
        <ele>1606</ele>
        <time>2017-01-18T10:36:28.117Z</time>
      </trkpt>
      <trkpt lat="42.98665" lon="-0.00685">
        <ele>1606</ele>
        <time>2017-01-18T10:36:29.117Z</time>
      </trkpt>
      <trkpt lat="42.98666" lon="-0.00685">
        <ele>1606</ele>
        <time>2017-01-18T10:36:30.117Z</time>
      </trkpt>
      <trkpt lat="42.98667" lon="-0.00685">
        <ele>1606</ele>
        <time>2017-01-18T10:36:31.117Z</time>
      </trkpt>
      <trkpt lat="42.98668" lon="-0.00685">
        <ele>1606</ele>
        <time>2017-01-18T10:36:32.117Z</time>
      </trkpt>
      <trkpt lat="42.98669" lon="-0.00685">
        <ele>1606</ele>
        <time>2017-01-18T10:36:33.117Z</time>
      </trkpt>
      <trkpt lat="42.9867" lon="-0.00685">
        <ele>1605</ele>
        <time>2017-01-18T10:36:34.117Z</time>
      </trkpt>
      <trkpt lat="42.9867" lon="-0.00686">
        <ele>1605</ele>
        <time>2017-01-18T10:36:35.117Z</time>
      </trkpt>
      <trkpt lat="42.98671" lon="-0.00686">
        <ele>1606</ele>
        <time>2017-01-18T10:36:36.117Z</time>
      </trkpt>
      <trkpt lat="42.98672" lon="-0.00686">
        <ele>1606</ele>
        <time>2017-01-18T10:36:37.117Z</time>
      </trkpt>
      <trkpt lat="42.98672" lon="-0.00686">
        <ele>1605</ele>
        <time>2017-01-18T10:36:38.117Z</time>
      </trkpt>
      <trkpt lat="42.98673" lon="-0.00686">
        <ele>1605</ele>
        <time>2017-01-18T10:36:39.117Z</time>
      </trkpt>
      <trkpt lat="42.98674" lon="-0.00686">
        <ele>1605</ele>
        <time>2017-01-18T10:36:40.117Z</time>
      </trkpt>
      <trkpt lat="42.98675" lon="-0.00686">
        <ele>1605</ele>
        <time>2017-01-18T10:36:41.117Z</time>
      </trkpt>
      <trkpt lat="42.98675" lon="-0.00687">
        <ele>1605</ele>
        <time>2017-01-18T10:36:42.117Z</time>
      </trkpt>
      <trkpt lat="42.98676" lon="-0.00687">
        <ele>1605</ele>
        <time>2017-01-18T10:36:43.117Z</time>
      </trkpt>
      <trkpt lat="42.98677" lon="-0.00687">
        <ele>1605</ele>
        <time>2017-01-18T10:36:44.117Z</time>
      </trkpt>
      <trkpt lat="42.98677" lon="-0.00687">
        <ele>1605</ele>
        <time>2017-01-18T10:36:45.117Z</time>
      </trkpt>
      <trkpt lat="42.98678" lon="-0.00687">
        <ele>1605</ele>
        <time>2017-01-18T10:36:46.117Z</time>
      </trkpt>
      <trkpt lat="42.98679" lon="-0.00687">
        <ele>1605</ele>
        <time>2017-01-18T10:36:47.117Z</time>
      </trkpt>
      <trkpt lat="42.9868" lon="-0.00688">
        <ele>1605</ele>
        <time>2017-01-18T10:36:48.117Z</time>
      </trkpt>
      <trkpt lat="42.98681" lon="-0.00688">
        <ele>1605</ele>
        <time>2017-01-18T10:36:49.117Z</time>
      </trkpt>
      <trkpt lat="42.98681" lon="-0.00688">
        <ele>1605</ele>
        <time>2017-01-18T10:36:50.117Z</time>
      </trkpt>
      <trkpt lat="42.98682" lon="-0.00688">
        <ele>1605</ele>
        <time>2017-01-18T10:36:51.117Z</time>
      </trkpt>
      <trkpt lat="42.98683" lon="-0.00688">
        <ele>1605</ele>
        <time>2017-01-18T10:36:52.117Z</time>
      </trkpt>
      <trkpt lat="42.98684" lon="-0.00688">
        <ele>1605</ele>
        <time>2017-01-18T10:36:53.117Z</time>
      </trkpt>
      <trkpt lat="42.98685" lon="-0.00689">
        <ele>1605</ele>
        <time>2017-01-18T10:36:54.117Z</time>
      </trkpt>
      <trkpt lat="42.98685" lon="-0.00689">
        <ele>1605</ele>
        <time>2017-01-18T10:36:55.117Z</time>
      </trkpt>
      <trkpt lat="42.98686" lon="-0.00689">
        <ele>1605</ele>
        <time>2017-01-18T10:36:56.117Z</time>
      </trkpt>
      <trkpt lat="42.98687" lon="-0.00689">
        <ele>1605</ele>
        <time>2017-01-18T10:36:57.117Z</time>
      </trkpt>
      <trkpt lat="42.98688" lon="-0.0069">
        <ele>1605</ele>
        <time>2017-01-18T10:36:58.117Z</time>
      </trkpt>
      <trkpt lat="42.98689" lon="-0.0069">
        <ele>1604</ele>
        <time>2017-01-18T10:36:59.117Z</time>
      </trkpt>
      <trkpt lat="42.98689" lon="-0.0069">
        <ele>1604</ele>
        <time>2017-01-18T10:37:00.117Z</time>
      </trkpt>
      <trkpt lat="42.9869" lon="-0.0069">
        <ele>1604</ele>
        <time>2017-01-18T10:37:01.117Z</time>
      </trkpt>
      <trkpt lat="42.98691" lon="-0.00691">
        <ele>1604</ele>
        <time>2017-01-18T10:37:02.117Z</time>
      </trkpt>
      <trkpt lat="42.98692" lon="-0.00691">
        <ele>1604</ele>
        <time>2017-01-18T10:37:03.117Z</time>
      </trkpt>
      <trkpt lat="42.98693" lon="-0.00691">
        <ele>1604</ele>
        <time>2017-01-18T10:37:04.117Z</time>
      </trkpt>
      <trkpt lat="42.98693" lon="-0.00692">
        <ele>1604</ele>
        <time>2017-01-18T10:37:05.117Z</time>
      </trkpt>
      <trkpt lat="42.98694" lon="-0.00692">
        <ele>1604</ele>
        <time>2017-01-18T10:37:06.117Z</time>
      </trkpt>
      <trkpt lat="42.98695" lon="-0.00692">
        <ele>1603</ele>
        <time>2017-01-18T10:37:07.117Z</time>
      </trkpt>
      <trkpt lat="42.98696" lon="-0.00693">
        <ele>1603</ele>
        <time>2017-01-18T10:37:08.117Z</time>
      </trkpt>
      <trkpt lat="42.98696" lon="-0.00693">
        <ele>1603</ele>
        <time>2017-01-18T10:37:09.117Z</time>
      </trkpt>
      <trkpt lat="42.98697" lon="-0.00694">
        <ele>1603</ele>
        <time>2017-01-18T10:37:10.117Z</time>
      </trkpt>
      <trkpt lat="42.98698" lon="-0.00694">
        <ele>1603</ele>
        <time>2017-01-18T10:37:11.117Z</time>
      </trkpt>
      <trkpt lat="42.98699" lon="-0.00694">
        <ele>1603</ele>
        <time>2017-01-18T10:37:12.117Z</time>
      </trkpt>
      <trkpt lat="42.98699" lon="-0.00695">
        <ele>1603</ele>
        <time>2017-01-18T10:37:13.117Z</time>
      </trkpt>
      <trkpt lat="42.987" lon="-0.00695">
        <ele>1603</ele>
        <time>2017-01-18T10:37:14.117Z</time>
      </trkpt>
      <trkpt lat="42.98701" lon="-0.00695">
        <ele>1603</ele>
        <time>2017-01-18T10:37:15.117Z</time>
      </trkpt>
      <trkpt lat="42.98702" lon="-0.00695">
        <ele>1603</ele>
        <time>2017-01-18T10:37:16.117Z</time>
      </trkpt>
      <trkpt lat="42.98703" lon="-0.00696">
        <ele>1603</ele>
        <time>2017-01-18T10:37:17.117Z</time>
      </trkpt>
      <trkpt lat="42.98704" lon="-0.00696">
        <ele>1602</ele>
        <time>2017-01-18T10:37:18.117Z</time>
      </trkpt>
      <trkpt lat="42.98704" lon="-0.00696">
        <ele>1602</ele>
        <time>2017-01-18T10:37:19.117Z</time>
      </trkpt>
      <trkpt lat="42.98705" lon="-0.00697">
        <ele>1602</ele>
        <time>2017-01-18T10:37:20.117Z</time>
      </trkpt>
      <trkpt lat="42.98706" lon="-0.00697">
        <ele>1602</ele>
        <time>2017-01-18T10:37:21.117Z</time>
      </trkpt>
      <trkpt lat="42.98707" lon="-0.00698">
        <ele>1602</ele>
        <time>2017-01-18T10:37:22.117Z</time>
      </trkpt>
      <trkpt lat="42.98707" lon="-0.00698">
        <ele>1602</ele>
        <time>2017-01-18T10:37:23.117Z</time>
      </trkpt>
      <trkpt lat="42.98708" lon="-0.00698">
        <ele>1602</ele>
        <time>2017-01-18T10:37:24.117Z</time>
      </trkpt>
      <trkpt lat="42.98709" lon="-0.00699">
        <ele>1602</ele>
        <time>2017-01-18T10:37:25.117Z</time>
      </trkpt>
      <trkpt lat="42.9871" lon="-0.00699">
        <ele>1602</ele>
        <time>2017-01-18T10:37:26.117Z</time>
      </trkpt>
      <trkpt lat="42.9871" lon="-0.00699">
        <ele>1602</ele>
        <time>2017-01-18T10:37:27.117Z</time>
      </trkpt>
      <trkpt lat="42.98711" lon="-0.007">
        <ele>1602</ele>
        <time>2017-01-18T10:37:28.117Z</time>
      </trkpt>
      <trkpt lat="42.98712" lon="-0.007">
        <ele>1601</ele>
        <time>2017-01-18T10:37:29.117Z</time>
      </trkpt>
      <trkpt lat="42.98713" lon="-0.007">
        <ele>1601</ele>
        <time>2017-01-18T10:37:30.117Z</time>
      </trkpt>
      <trkpt lat="42.98714" lon="-0.00701">
        <ele>1601</ele>
        <time>2017-01-18T10:37:31.117Z</time>
      </trkpt>
      <trkpt lat="42.98715" lon="-0.00701">
        <ele>1601</ele>
        <time>2017-01-18T10:37:32.117Z</time>
      </trkpt>
      <trkpt lat="42.98715" lon="-0.00701">
        <ele>1601</ele>
        <time>2017-01-18T10:37:33.117Z</time>
      </trkpt>
      <trkpt lat="42.98716" lon="-0.00701">
        <ele>1601</ele>
        <time>2017-01-18T10:37:34.117Z</time>
      </trkpt>
      <trkpt lat="42.98717" lon="-0.00702">
        <ele>1601</ele>
        <time>2017-01-18T10:37:35.117Z</time>
      </trkpt>
      <trkpt lat="42.98718" lon="-0.00702">
        <ele>1600</ele>
        <time>2017-01-18T10:37:36.117Z</time>
      </trkpt>
      <trkpt lat="42.98719" lon="-0.00702">
        <ele>1600</ele>
        <time>2017-01-18T10:37:37.117Z</time>
      </trkpt>
      <trkpt lat="42.98719" lon="-0.00702">
        <ele>1600</ele>
        <time>2017-01-18T10:37:38.117Z</time>
      </trkpt>
      <trkpt lat="42.9872" lon="-0.00703">
        <ele>1600</ele>
        <time>2017-01-18T10:37:39.117Z</time>
      </trkpt>
      <trkpt lat="42.98721" lon="-0.00703">
        <ele>1600</ele>
        <time>2017-01-18T10:37:40.117Z</time>
      </trkpt>
      <trkpt lat="42.98722" lon="-0.00703">
        <ele>1600</ele>
        <time>2017-01-18T10:37:41.117Z</time>
      </trkpt>
      <trkpt lat="42.98722" lon="-0.00703">
        <ele>1600</ele>
        <time>2017-01-18T10:37:42.117Z</time>
      </trkpt>
      <trkpt lat="42.98723" lon="-0.00703">
        <ele>1600</ele>
        <time>2017-01-18T10:37:43.117Z</time>
      </trkpt>
      <trkpt lat="42.98724" lon="-0.00704">
        <ele>1600</ele>
        <time>2017-01-18T10:37:44.117Z</time>
      </trkpt>
      <trkpt lat="42.98725" lon="-0.00704">
        <ele>1599</ele>
        <time>2017-01-18T10:37:45.117Z</time>
      </trkpt>
      <trkpt lat="42.98726" lon="-0.00704">
        <ele>1599</ele>
        <time>2017-01-18T10:37:46.117Z</time>
      </trkpt>
      <trkpt lat="42.98726" lon="-0.00704">
        <ele>1599</ele>
        <time>2017-01-18T10:37:47.117Z</time>
      </trkpt>
      <trkpt lat="42.98727" lon="-0.00705">
        <ele>1599</ele>
        <time>2017-01-18T10:37:48.117Z</time>
      </trkpt>
      <trkpt lat="42.98728" lon="-0.00705">
        <ele>1599</ele>
        <time>2017-01-18T10:37:49.117Z</time>
      </trkpt>
      <trkpt lat="42.98729" lon="-0.00705">
        <ele>1599</ele>
        <time>2017-01-18T10:37:50.117Z</time>
      </trkpt>
      <trkpt lat="42.9873" lon="-0.00705">
        <ele>1599</ele>
        <time>2017-01-18T10:37:51.117Z</time>
      </trkpt>
      <trkpt lat="42.9873" lon="-0.00705">
        <ele>1599</ele>
        <time>2017-01-18T10:37:52.117Z</time>
      </trkpt>
      <trkpt lat="42.98731" lon="-0.00705">
        <ele>1598</ele>
        <time>2017-01-18T10:37:53.117Z</time>
      </trkpt>
      <trkpt lat="42.98732" lon="-0.00705">
        <ele>1598</ele>
        <time>2017-01-18T10:37:54.117Z</time>
      </trkpt>
      <trkpt lat="42.98733" lon="-0.00706">
        <ele>1598</ele>
        <time>2017-01-18T10:37:55.117Z</time>
      </trkpt>
      <trkpt lat="42.98734" lon="-0.00706">
        <ele>1598</ele>
        <time>2017-01-18T10:37:56.117Z</time>
      </trkpt>
      <trkpt lat="42.98735" lon="-0.00706">
        <ele>1597</ele>
        <time>2017-01-18T10:37:57.117Z</time>
      </trkpt>
      <trkpt lat="42.98736" lon="-0.00706">
        <ele>1597</ele>
        <time>2017-01-18T10:37:58.117Z</time>
      </trkpt>
      <trkpt lat="42.98736" lon="-0.00706">
        <ele>1597</ele>
        <time>2017-01-18T10:37:59.117Z</time>
      </trkpt>
      <trkpt lat="42.98737" lon="-0.00706">
        <ele>1597</ele>
        <time>2017-01-18T10:38:00.117Z</time>
      </trkpt>
      <trkpt lat="42.98738" lon="-0.00706">
        <ele>1597</ele>
        <time>2017-01-18T10:38:01.117Z</time>
      </trkpt>
      <trkpt lat="42.98739" lon="-0.00707">
        <ele>1597</ele>
        <time>2017-01-18T10:38:02.117Z</time>
      </trkpt>
      <trkpt lat="42.9874" lon="-0.00707">
        <ele>1597</ele>
        <time>2017-01-18T10:38:03.117Z</time>
      </trkpt>
      <trkpt lat="42.9874" lon="-0.00707">
        <ele>1597</ele>
        <time>2017-01-18T10:38:04.117Z</time>
      </trkpt>
      <trkpt lat="42.98741" lon="-0.00707">
        <ele>1597</ele>
        <time>2017-01-18T10:38:05.117Z</time>
      </trkpt>
      <trkpt lat="42.98742" lon="-0.00708">
        <ele>1597</ele>
        <time>2017-01-18T10:38:06.117Z</time>
      </trkpt>
      <trkpt lat="42.98743" lon="-0.00708">
        <ele>1596</ele>
        <time>2017-01-18T10:38:07.117Z</time>
      </trkpt>
      <trkpt lat="42.98744" lon="-0.00708">
        <ele>1596</ele>
        <time>2017-01-18T10:38:08.117Z</time>
      </trkpt>
      <trkpt lat="42.98744" lon="-0.00708">
        <ele>1596</ele>
        <time>2017-01-18T10:38:09.117Z</time>
      </trkpt>
      <trkpt lat="42.98745" lon="-0.00708">
        <ele>1596</ele>
        <time>2017-01-18T10:38:10.117Z</time>
      </trkpt>
      <trkpt lat="42.98746" lon="-0.00708">
        <ele>1596</ele>
        <time>2017-01-18T10:38:11.117Z</time>
      </trkpt>
      <trkpt lat="42.98747" lon="-0.00708">
        <ele>1596</ele>
        <time>2017-01-18T10:38:12.117Z</time>
      </trkpt>
      <trkpt lat="42.98748" lon="-0.00708">
        <ele>1596</ele>
        <time>2017-01-18T10:38:13.117Z</time>
      </trkpt>
      <trkpt lat="42.98749" lon="-0.00708">
        <ele>1596</ele>
        <time>2017-01-18T10:38:14.117Z</time>
      </trkpt>
      <trkpt lat="42.9875" lon="-0.00708">
        <ele>1596</ele>
        <time>2017-01-18T10:38:15.117Z</time>
      </trkpt>
      <trkpt lat="42.98751" lon="-0.00708">
        <ele>1596</ele>
        <time>2017-01-18T10:38:16.117Z</time>
      </trkpt>
      <trkpt lat="42.98751" lon="-0.00708">
        <ele>1595</ele>
        <time>2017-01-18T10:38:17.117Z</time>
      </trkpt>
      <trkpt lat="42.98752" lon="-0.00708">
        <ele>1595</ele>
        <time>2017-01-18T10:38:18.117Z</time>
      </trkpt>
      <trkpt lat="42.98753" lon="-0.00708">
        <ele>1595</ele>
        <time>2017-01-18T10:38:19.117Z</time>
      </trkpt>
      <trkpt lat="42.98754" lon="-0.00708">
        <ele>1595</ele>
        <time>2017-01-18T10:38:20.117Z</time>
      </trkpt>
      <trkpt lat="42.98755" lon="-0.00708">
        <ele>1595</ele>
        <time>2017-01-18T10:38:21.117Z</time>
      </trkpt>
      <trkpt lat="42.98756" lon="-0.00709">
        <ele>1595</ele>
        <time>2017-01-18T10:38:22.117Z</time>
      </trkpt>
      <trkpt lat="42.98756" lon="-0.00709">
        <ele>1595</ele>
        <time>2017-01-18T10:38:23.117Z</time>
      </trkpt>
      <trkpt lat="42.98757" lon="-0.00709">
        <ele>1595</ele>
        <time>2017-01-18T10:38:24.117Z</time>
      </trkpt>
      <trkpt lat="42.98758" lon="-0.0071">
        <ele>1595</ele>
        <time>2017-01-18T10:38:25.117Z</time>
      </trkpt>
      <trkpt lat="42.98759" lon="-0.0071">
        <ele>1595</ele>
        <time>2017-01-18T10:38:26.117Z</time>
      </trkpt>
      <trkpt lat="42.9876" lon="-0.0071">
        <ele>1595</ele>
        <time>2017-01-18T10:38:27.117Z</time>
      </trkpt>
      <trkpt lat="42.9876" lon="-0.0071">
        <ele>1595</ele>
        <time>2017-01-18T10:38:28.117Z</time>
      </trkpt>
      <trkpt lat="42.98761" lon="-0.0071">
        <ele>1595</ele>
        <time>2017-01-18T10:38:29.117Z</time>
      </trkpt>
      <trkpt lat="42.98761" lon="-0.0071">
        <ele>1595</ele>
        <time>2017-01-18T10:38:30.117Z</time>
      </trkpt>
      <trkpt lat="42.98762" lon="-0.0071">
        <ele>1595</ele>
        <time>2017-01-18T10:38:31.117Z</time>
      </trkpt>
      <trkpt lat="42.98763" lon="-0.0071">
        <ele>1595</ele>
        <time>2017-01-18T10:38:32.117Z</time>
      </trkpt>
      <trkpt lat="42.98763" lon="-0.0071">
        <ele>1595</ele>
        <time>2017-01-18T10:38:33.117Z</time>
      </trkpt>
      <trkpt lat="42.98764" lon="-0.0071">
        <ele>1595</ele>
        <time>2017-01-18T10:38:34.117Z</time>
      </trkpt>
      <trkpt lat="42.98764" lon="-0.0071">
        <ele>1595</ele>
        <time>2017-01-18T10:38:35.117Z</time>
      </trkpt>
      <trkpt lat="42.98765" lon="-0.0071">
        <ele>1595</ele>
        <time>2017-01-18T10:38:36.117Z</time>
      </trkpt>
      <trkpt lat="42.98766" lon="-0.00711">
        <ele>1595</ele>
        <time>2017-01-18T10:38:37.117Z</time>
      </trkpt>
      <trkpt lat="42.98766" lon="-0.00711">
        <ele>1595</ele>
        <time>2017-01-18T10:38:38.117Z</time>
      </trkpt>
      <trkpt lat="42.98767" lon="-0.00712">
        <ele>1595</ele>
        <time>2017-01-18T10:38:39.117Z</time>
      </trkpt>
      <trkpt lat="42.98768" lon="-0.00712">
        <ele>1595</ele>
        <time>2017-01-18T10:38:40.117Z</time>
      </trkpt>
      <trkpt lat="42.98768" lon="-0.00712">
        <ele>1595</ele>
        <time>2017-01-18T10:38:41.117Z</time>
      </trkpt>
      <trkpt lat="42.98769" lon="-0.00713">
        <ele>1595</ele>
        <time>2017-01-18T10:38:42.117Z</time>
      </trkpt>
      <trkpt lat="42.98769" lon="-0.00713">
        <ele>1595</ele>
        <time>2017-01-18T10:38:43.117Z</time>
      </trkpt>
      <trkpt lat="42.9877" lon="-0.00714">
        <ele>1595</ele>
        <time>2017-01-18T10:38:44.117Z</time>
      </trkpt>
      <trkpt lat="42.9877" lon="-0.00714">
        <ele>1595</ele>
        <time>2017-01-18T10:38:45.117Z</time>
      </trkpt>
      <trkpt lat="42.98771" lon="-0.00715">
        <ele>1595</ele>
        <time>2017-01-18T10:38:46.117Z</time>
      </trkpt>
      <trkpt lat="42.98771" lon="-0.00716">
        <ele>1595</ele>
        <time>2017-01-18T10:38:47.117Z</time>
      </trkpt>
      <trkpt lat="42.98772" lon="-0.00716">
        <ele>1595</ele>
        <time>2017-01-18T10:38:48.117Z</time>
      </trkpt>
      <trkpt lat="42.98772" lon="-0.00717">
        <ele>1595</ele>
        <time>2017-01-18T10:38:49.117Z</time>
      </trkpt>
      <trkpt lat="42.98772" lon="-0.00718">
        <ele>1595</ele>
        <time>2017-01-18T10:38:50.117Z</time>
      </trkpt>
      <trkpt lat="42.98773" lon="-0.00718">
        <ele>1595</ele>
        <time>2017-01-18T10:38:51.117Z</time>
      </trkpt>
      <trkpt lat="42.98773" lon="-0.00719">
        <ele>1595</ele>
        <time>2017-01-18T10:38:52.117Z</time>
      </trkpt>
      <trkpt lat="42.98773" lon="-0.00719">
        <ele>1595</ele>
        <time>2017-01-18T10:38:53.117Z</time>
      </trkpt>
      <trkpt lat="42.98774" lon="-0.0072">
        <ele>1596</ele>
        <time>2017-01-18T10:38:54.117Z</time>
      </trkpt>
      <trkpt lat="42.98774" lon="-0.00721">
        <ele>1596</ele>
        <time>2017-01-18T10:38:55.117Z</time>
      </trkpt>
      <trkpt lat="42.98774" lon="-0.00721">
        <ele>1596</ele>
        <time>2017-01-18T10:38:56.117Z</time>
      </trkpt>
      <trkpt lat="42.98775" lon="-0.00722">
        <ele>1596</ele>
        <time>2017-01-18T10:38:57.117Z</time>
      </trkpt>
      <trkpt lat="42.98775" lon="-0.00723">
        <ele>1596</ele>
        <time>2017-01-18T10:38:58.117Z</time>
      </trkpt>
      <trkpt lat="42.98775" lon="-0.00723">
        <ele>1596</ele>
        <time>2017-01-18T10:38:59.117Z</time>
      </trkpt>
      <trkpt lat="42.98776" lon="-0.00724">
        <ele>1596</ele>
        <time>2017-01-18T10:39:00.117Z</time>
      </trkpt>
      <trkpt lat="42.98776" lon="-0.00725">
        <ele>1596</ele>
        <time>2017-01-18T10:39:01.117Z</time>
      </trkpt>
      <trkpt lat="42.98777" lon="-0.00725">
        <ele>1596</ele>
        <time>2017-01-18T10:39:02.117Z</time>
      </trkpt>
      <trkpt lat="42.98777" lon="-0.00726">
        <ele>1596</ele>
        <time>2017-01-18T10:39:03.117Z</time>
      </trkpt>
      <trkpt lat="42.98778" lon="-0.00727">
        <ele>1596</ele>
        <time>2017-01-18T10:39:04.117Z</time>
      </trkpt>
      <trkpt lat="42.98778" lon="-0.00728">
        <ele>1595</ele>
        <time>2017-01-18T10:39:05.117Z</time>
      </trkpt>
      <trkpt lat="42.98779" lon="-0.00728">
        <ele>1595</ele>
        <time>2017-01-18T10:39:06.117Z</time>
      </trkpt>
      <trkpt lat="42.98779" lon="-0.00729">
        <ele>1595</ele>
        <time>2017-01-18T10:39:07.117Z</time>
      </trkpt>
      <trkpt lat="42.9878" lon="-0.0073">
        <ele>1595</ele>
        <time>2017-01-18T10:39:08.117Z</time>
      </trkpt>
      <trkpt lat="42.9878" lon="-0.0073">
        <ele>1595</ele>
        <time>2017-01-18T10:39:09.117Z</time>
      </trkpt>
      <trkpt lat="42.98781" lon="-0.00731">
        <ele>1595</ele>
        <time>2017-01-18T10:39:10.117Z</time>
      </trkpt>
      <trkpt lat="42.98781" lon="-0.00732">
        <ele>1595</ele>
        <time>2017-01-18T10:39:11.117Z</time>
      </trkpt>
      <trkpt lat="42.98781" lon="-0.00732">
        <ele>1595</ele>
        <time>2017-01-18T10:39:12.117Z</time>
      </trkpt>
      <trkpt lat="42.98782" lon="-0.00733">
        <ele>1595</ele>
        <time>2017-01-18T10:39:13.117Z</time>
      </trkpt>
      <trkpt lat="42.98782" lon="-0.00734">
        <ele>1595</ele>
        <time>2017-01-18T10:39:14.117Z</time>
      </trkpt>
      <trkpt lat="42.98782" lon="-0.00735">
        <ele>1596</ele>
        <time>2017-01-18T10:39:15.117Z</time>
      </trkpt>
      <trkpt lat="42.98783" lon="-0.00736">
        <ele>1596</ele>
        <time>2017-01-18T10:39:16.117Z</time>
      </trkpt>
      <trkpt lat="42.98783" lon="-0.00737">
        <ele>1596</ele>
        <time>2017-01-18T10:39:17.117Z</time>
      </trkpt>
      <trkpt lat="42.98783" lon="-0.00737">
        <ele>1596</ele>
        <time>2017-01-18T10:39:18.117Z</time>
      </trkpt>
      <trkpt lat="42.98783" lon="-0.00738">
        <ele>1596</ele>
        <time>2017-01-18T10:39:19.117Z</time>
      </trkpt>
      <trkpt lat="42.98784" lon="-0.00739">
        <ele>1596</ele>
        <time>2017-01-18T10:39:20.117Z</time>
      </trkpt>
      <trkpt lat="42.98783" lon="-0.0074">
        <ele>1596</ele>
        <time>2017-01-18T10:39:21.117Z</time>
      </trkpt>
      <trkpt lat="42.98783" lon="-0.00741">
        <ele>1596</ele>
        <time>2017-01-18T10:39:22.117Z</time>
      </trkpt>
      <trkpt lat="42.98783" lon="-0.00742">
        <ele>1596</ele>
        <time>2017-01-18T10:39:23.117Z</time>
      </trkpt>
      <trkpt lat="42.98783" lon="-0.00742">
        <ele>1596</ele>
        <time>2017-01-18T10:39:24.117Z</time>
      </trkpt>
      <trkpt lat="42.98783" lon="-0.00743">
        <ele>1596</ele>
        <time>2017-01-18T10:39:25.117Z</time>
      </trkpt>
      <trkpt lat="42.98783" lon="-0.00744">
        <ele>1596</ele>
        <time>2017-01-18T10:39:26.117Z</time>
      </trkpt>
      <trkpt lat="42.98782" lon="-0.00744">
        <ele>1596</ele>
        <time>2017-01-18T10:39:27.117Z</time>
      </trkpt>
      <trkpt lat="42.98782" lon="-0.00745">
        <ele>1596</ele>
        <time>2017-01-18T10:39:28.117Z</time>
      </trkpt>
      <trkpt lat="42.98782" lon="-0.00746">
        <ele>1597</ele>
        <time>2017-01-18T10:39:29.117Z</time>
      </trkpt>
      <trkpt lat="42.98782" lon="-0.00747">
        <ele>1597</ele>
        <time>2017-01-18T10:39:30.117Z</time>
      </trkpt>
      <trkpt lat="42.98781" lon="-0.00747">
        <ele>1597</ele>
        <time>2017-01-18T10:39:31.117Z</time>
      </trkpt>
      <trkpt lat="42.98781" lon="-0.00748">
        <ele>1597</ele>
        <time>2017-01-18T10:39:32.117Z</time>
      </trkpt>
      <trkpt lat="42.98781" lon="-0.00749">
        <ele>1597</ele>
        <time>2017-01-18T10:39:33.117Z</time>
      </trkpt>
      <trkpt lat="42.9878" lon="-0.0075">
        <ele>1597</ele>
        <time>2017-01-18T10:39:34.117Z</time>
      </trkpt>
      <trkpt lat="42.9878" lon="-0.0075">
        <ele>1597</ele>
        <time>2017-01-18T10:39:35.117Z</time>
      </trkpt>
      <trkpt lat="42.9878" lon="-0.00751">
        <ele>1597</ele>
        <time>2017-01-18T10:39:36.117Z</time>
      </trkpt>
      <trkpt lat="42.9878" lon="-0.00752">
        <ele>1597</ele>
        <time>2017-01-18T10:39:37.117Z</time>
      </trkpt>
      <trkpt lat="42.98779" lon="-0.00752">
        <ele>1598</ele>
        <time>2017-01-18T10:39:38.117Z</time>
      </trkpt>
      <trkpt lat="42.98779" lon="-0.00753">
        <ele>1598</ele>
        <time>2017-01-18T10:39:39.117Z</time>
      </trkpt>
      <trkpt lat="42.98779" lon="-0.00754">
        <ele>1598</ele>
        <time>2017-01-18T10:39:40.117Z</time>
      </trkpt>
      <trkpt lat="42.98779" lon="-0.00755">
        <ele>1598</ele>
        <time>2017-01-18T10:39:41.117Z</time>
      </trkpt>
      <trkpt lat="42.98779" lon="-0.00756">
        <ele>1598</ele>
        <time>2017-01-18T10:39:42.117Z</time>
      </trkpt>
      <trkpt lat="42.98778" lon="-0.00756">
        <ele>1598</ele>
        <time>2017-01-18T10:39:43.117Z</time>
      </trkpt>
      <trkpt lat="42.98778" lon="-0.00757">
        <ele>1599</ele>
        <time>2017-01-18T10:39:44.117Z</time>
      </trkpt>
      <trkpt lat="42.98778" lon="-0.00758">
        <ele>1599</ele>
        <time>2017-01-18T10:39:45.117Z</time>
      </trkpt>
      <trkpt lat="42.98778" lon="-0.00759">
        <ele>1598</ele>
        <time>2017-01-18T10:39:46.117Z</time>
      </trkpt>
      <trkpt lat="42.98778" lon="-0.0076">
        <ele>1598</ele>
        <time>2017-01-18T10:39:47.117Z</time>
      </trkpt>
      <trkpt lat="42.98778" lon="-0.0076">
        <ele>1599</ele>
        <time>2017-01-18T10:39:48.117Z</time>
      </trkpt>
      <trkpt lat="42.98778" lon="-0.00761">
        <ele>1599</ele>
        <time>2017-01-18T10:39:49.117Z</time>
      </trkpt>
      <trkpt lat="42.98778" lon="-0.00762">
        <ele>1599</ele>
        <time>2017-01-18T10:39:50.117Z</time>
      </trkpt>
      <trkpt lat="42.98779" lon="-0.00762">
        <ele>1599</ele>
        <time>2017-01-18T10:39:51.117Z</time>
      </trkpt>
      <trkpt lat="42.98779" lon="-0.00763">
        <ele>1599</ele>
        <time>2017-01-18T10:39:52.117Z</time>
      </trkpt>
      <trkpt lat="42.9878" lon="-0.00763">
        <ele>1599</ele>
        <time>2017-01-18T10:39:53.117Z</time>
      </trkpt>
      <trkpt lat="42.9878" lon="-0.00763">
        <ele>1599</ele>
        <time>2017-01-18T10:39:54.117Z</time>
      </trkpt>
      <trkpt lat="42.9878" lon="-0.00763">
        <ele>1600</ele>
        <time>2017-01-18T10:39:55.117Z</time>
      </trkpt>
      <trkpt lat="42.98781" lon="-0.00763">
        <ele>1600</ele>
        <time>2017-01-18T10:39:56.117Z</time>
      </trkpt>
      <trkpt lat="42.98781" lon="-0.00764">
        <ele>1600</ele>
        <time>2017-01-18T10:39:57.117Z</time>
      </trkpt>
      <trkpt lat="42.98781" lon="-0.00764">
        <ele>1600</ele>
        <time>2017-01-18T10:39:58.117Z</time>
      </trkpt>
      <trkpt lat="42.98781" lon="-0.00764">
        <ele>1600</ele>
        <time>2017-01-18T10:39:59.117Z</time>
      </trkpt>
      <trkpt lat="42.98782" lon="-0.00765">
        <ele>1600</ele>
        <time>2017-01-18T10:40:00.117Z</time>
      </trkpt>
      <trkpt lat="42.98782" lon="-0.00765">
        <ele>1600</ele>
        <time>2017-01-18T10:40:01.117Z</time>
      </trkpt>
      <trkpt lat="42.98782" lon="-0.00766">
        <ele>1600</ele>
        <time>2017-01-18T10:40:02.117Z</time>
      </trkpt>
      <trkpt lat="42.98782" lon="-0.00767">
        <ele>1600</ele>
        <time>2017-01-18T10:40:03.117Z</time>
      </trkpt>
      <trkpt lat="42.98782" lon="-0.00767">
        <ele>1600</ele>
        <time>2017-01-18T10:40:04.117Z</time>
      </trkpt>
      <trkpt lat="42.98782" lon="-0.00768">
        <ele>1601</ele>
        <time>2017-01-18T10:40:05.117Z</time>
      </trkpt>
      <trkpt lat="42.98782" lon="-0.00768">
        <ele>1601</ele>
        <time>2017-01-18T10:40:06.117Z</time>
      </trkpt>
      <trkpt lat="42.98782" lon="-0.00769">
        <ele>1601</ele>
        <time>2017-01-18T10:40:07.117Z</time>
      </trkpt>
      <trkpt lat="42.98782" lon="-0.00769">
        <ele>1601</ele>
        <time>2017-01-18T10:40:08.117Z</time>
      </trkpt>
      <trkpt lat="42.98782" lon="-0.0077">
        <ele>1601</ele>
        <time>2017-01-18T10:40:09.117Z</time>
      </trkpt>
      <trkpt lat="42.98782" lon="-0.00771">
        <ele>1602</ele>
        <time>2017-01-18T10:40:10.117Z</time>
      </trkpt>
      <trkpt lat="42.98782" lon="-0.00771">
        <ele>1602</ele>
        <time>2017-01-18T10:40:11.117Z</time>
      </trkpt>
      <trkpt lat="42.98782" lon="-0.00771">
        <ele>1602</ele>
        <time>2017-01-18T10:40:12.117Z</time>
      </trkpt>
      <trkpt lat="42.98783" lon="-0.00772">
        <ele>1602</ele>
        <time>2017-01-18T10:40:13.117Z</time>
      </trkpt>
      <trkpt lat="42.98783" lon="-0.00772">
        <ele>1602</ele>
        <time>2017-01-18T10:40:14.117Z</time>
      </trkpt>
      <trkpt lat="42.98783" lon="-0.00773">
        <ele>1602</ele>
        <time>2017-01-18T10:40:15.117Z</time>
      </trkpt>
      <trkpt lat="42.98783" lon="-0.00773">
        <ele>1603</ele>
        <time>2017-01-18T10:40:16.117Z</time>
      </trkpt>
      <trkpt lat="42.98783" lon="-0.00773">
        <ele>1603</ele>
        <time>2017-01-18T10:40:17.117Z</time>
      </trkpt>
      <trkpt lat="42.98784" lon="-0.00774">
        <ele>1603</ele>
        <time>2017-01-18T10:40:18.117Z</time>
      </trkpt>
      <trkpt lat="42.98784" lon="-0.00774">
        <ele>1603</ele>
        <time>2017-01-18T10:40:19.117Z</time>
      </trkpt>
      <trkpt lat="42.98784" lon="-0.00774">
        <ele>1603</ele>
        <time>2017-01-18T10:40:20.117Z</time>
      </trkpt>
      <trkpt lat="42.98784" lon="-0.00775">
        <ele>1603</ele>
        <time>2017-01-18T10:40:21.117Z</time>
      </trkpt>
      <trkpt lat="42.98785" lon="-0.00775">
        <ele>1603</ele>
        <time>2017-01-18T10:40:22.117Z</time>
      </trkpt>
      <trkpt lat="42.98785" lon="-0.00775">
        <ele>1603</ele>
        <time>2017-01-18T10:40:23.117Z</time>
      </trkpt>
      <trkpt lat="42.98785" lon="-0.00776">
        <ele>1604</ele>
        <time>2017-01-18T10:40:24.117Z</time>
      </trkpt>
      <trkpt lat="42.98786" lon="-0.00776">
        <ele>1604</ele>
        <time>2017-01-18T10:40:25.117Z</time>
      </trkpt>
      <trkpt lat="42.98786" lon="-0.00777">
        <ele>1604</ele>
        <time>2017-01-18T10:40:26.117Z</time>
      </trkpt>
      <trkpt lat="42.98786" lon="-0.00777">
        <ele>1604</ele>
        <time>2017-01-18T10:40:27.117Z</time>
      </trkpt>
      <trkpt lat="42.98787" lon="-0.00777">
        <ele>1604</ele>
        <time>2017-01-18T10:40:28.117Z</time>
      </trkpt>
      <trkpt lat="42.98787" lon="-0.00776">
        <ele>1604</ele>
        <time>2017-01-18T10:40:29.117Z</time>
      </trkpt>
      <trkpt lat="42.98788" lon="-0.00776">
        <ele>1604</ele>
        <time>2017-01-18T10:40:30.117Z</time>
      </trkpt>
      <trkpt lat="42.98788" lon="-0.00776">
        <ele>1604</ele>
        <time>2017-01-18T10:40:31.117Z</time>
      </trkpt>
      <trkpt lat="42.98788" lon="-0.00776">
        <ele>1605</ele>
        <time>2017-01-18T10:40:32.117Z</time>
      </trkpt>
      <trkpt lat="42.98789" lon="-0.00776">
        <ele>1605</ele>
        <time>2017-01-18T10:40:33.117Z</time>
      </trkpt>
      <trkpt lat="42.98789" lon="-0.00776">
        <ele>1605</ele>
        <time>2017-01-18T10:40:34.117Z</time>
      </trkpt>
      <trkpt lat="42.98789" lon="-0.00776">
        <ele>1605</ele>
        <time>2017-01-18T10:40:35.117Z</time>
      </trkpt>
      <trkpt lat="42.9879" lon="-0.00776">
        <ele>1606</ele>
        <time>2017-01-18T10:40:36.117Z</time>
      </trkpt>
      <trkpt lat="42.9879" lon="-0.00776">
        <ele>1606</ele>
        <time>2017-01-18T10:40:37.117Z</time>
      </trkpt>
      <trkpt lat="42.9879" lon="-0.00775">
        <ele>1606</ele>
        <time>2017-01-18T10:40:38.117Z</time>
      </trkpt>
      <trkpt lat="42.98791" lon="-0.00775">
        <ele>1606</ele>
        <time>2017-01-18T10:40:39.117Z</time>
      </trkpt>
      <trkpt lat="42.98791" lon="-0.00775">
        <ele>1606</ele>
        <time>2017-01-18T10:40:40.117Z</time>
      </trkpt>
      <trkpt lat="42.98791" lon="-0.00775">
        <ele>1606</ele>
        <time>2017-01-18T10:40:41.117Z</time>
      </trkpt>
      <trkpt lat="42.98792" lon="-0.00776">
        <ele>1606</ele>
        <time>2017-01-18T10:40:42.117Z</time>
      </trkpt>
      <trkpt lat="42.98792" lon="-0.00776">
        <ele>1606</ele>
        <time>2017-01-18T10:40:43.117Z</time>
      </trkpt>
      <trkpt lat="42.98792" lon="-0.00776">
        <ele>1606</ele>
        <time>2017-01-18T10:40:44.117Z</time>
      </trkpt>
      <trkpt lat="42.98792" lon="-0.00777">
        <ele>1606</ele>
        <time>2017-01-18T10:40:45.117Z</time>
      </trkpt>
      <trkpt lat="42.98793" lon="-0.00777">
        <ele>1607</ele>
        <time>2017-01-18T10:40:46.117Z</time>
      </trkpt>
      <trkpt lat="42.98793" lon="-0.00778">
        <ele>1607</ele>
        <time>2017-01-18T10:40:47.117Z</time>
      </trkpt>
      <trkpt lat="42.98793" lon="-0.00778">
        <ele>1607</ele>
        <time>2017-01-18T10:40:48.117Z</time>
      </trkpt>
      <trkpt lat="42.98794" lon="-0.00778">
        <ele>1607</ele>
        <time>2017-01-18T10:40:49.117Z</time>
      </trkpt>
      <trkpt lat="42.98794" lon="-0.00778">
        <ele>1606</ele>
        <time>2017-01-18T10:40:50.117Z</time>
      </trkpt>
      <trkpt lat="42.98795" lon="-0.00779">
        <ele>1606</ele>
        <time>2017-01-18T10:40:51.117Z</time>
      </trkpt>
      <trkpt lat="42.98795" lon="-0.00779">
        <ele>1606</ele>
        <time>2017-01-18T10:40:52.117Z</time>
      </trkpt>
      <trkpt lat="42.98796" lon="-0.00779">
        <ele>1606</ele>
        <time>2017-01-18T10:40:53.117Z</time>
      </trkpt>
      <trkpt lat="42.98796" lon="-0.00779">
        <ele>1606</ele>
        <time>2017-01-18T10:40:54.117Z</time>
      </trkpt>
      <trkpt lat="42.98797" lon="-0.00779">
        <ele>1606</ele>
        <time>2017-01-18T10:40:55.117Z</time>
      </trkpt>
      <trkpt lat="42.98797" lon="-0.0078">
        <ele>1606</ele>
        <time>2017-01-18T10:40:56.117Z</time>
      </trkpt>
      <trkpt lat="42.98798" lon="-0.0078">
        <ele>1607</ele>
        <time>2017-01-18T10:40:57.117Z</time>
      </trkpt>
      <trkpt lat="42.98798" lon="-0.0078">
        <ele>1607</ele>
        <time>2017-01-18T10:40:58.117Z</time>
      </trkpt>
      <trkpt lat="42.98799" lon="-0.0078">
        <ele>1607</ele>
        <time>2017-01-18T10:40:59.117Z</time>
      </trkpt>
      <trkpt lat="42.98799" lon="-0.0078">
        <ele>1607</ele>
        <time>2017-01-18T10:41:00.117Z</time>
      </trkpt>
      <trkpt lat="42.988" lon="-0.0078">
        <ele>1608</ele>
        <time>2017-01-18T10:41:01.117Z</time>
      </trkpt>
      <trkpt lat="42.988" lon="-0.0078">
        <ele>1608</ele>
        <time>2017-01-18T10:41:02.117Z</time>
      </trkpt>
      <trkpt lat="42.98801" lon="-0.0078">
        <ele>1608</ele>
        <time>2017-01-18T10:41:03.117Z</time>
      </trkpt>
      <trkpt lat="42.98801" lon="-0.0078">
        <ele>1608</ele>
        <time>2017-01-18T10:41:04.117Z</time>
      </trkpt>
      <trkpt lat="42.98802" lon="-0.00779">
        <ele>1608</ele>
        <time>2017-01-18T10:41:05.117Z</time>
      </trkpt>
      <trkpt lat="42.98802" lon="-0.00779">
        <ele>1608</ele>
        <time>2017-01-18T10:41:06.117Z</time>
      </trkpt>
      <trkpt lat="42.98803" lon="-0.00779">
        <ele>1608</ele>
        <time>2017-01-18T10:41:07.117Z</time>
      </trkpt>
      <trkpt lat="42.98803" lon="-0.00779">
        <ele>1608</ele>
        <time>2017-01-18T10:41:08.117Z</time>
      </trkpt>
      <trkpt lat="42.98804" lon="-0.00779">
        <ele>1608</ele>
        <time>2017-01-18T10:41:09.117Z</time>
      </trkpt>
      <trkpt lat="42.98804" lon="-0.00779">
        <ele>1608</ele>
        <time>2017-01-18T10:41:10.117Z</time>
      </trkpt>
      <trkpt lat="42.98805" lon="-0.00779">
        <ele>1608</ele>
        <time>2017-01-18T10:41:11.117Z</time>
      </trkpt>
      <trkpt lat="42.98806" lon="-0.00779">
        <ele>1608</ele>
        <time>2017-01-18T10:41:12.117Z</time>
      </trkpt>
      <trkpt lat="42.98806" lon="-0.00779">
        <ele>1608</ele>
        <time>2017-01-18T10:41:13.117Z</time>
      </trkpt>
      <trkpt lat="42.98807" lon="-0.00779">
        <ele>1608</ele>
        <time>2017-01-18T10:41:14.117Z</time>
      </trkpt>
      <trkpt lat="42.98807" lon="-0.0078">
        <ele>1608</ele>
        <time>2017-01-18T10:41:15.117Z</time>
      </trkpt>
      <trkpt lat="42.98808" lon="-0.0078">
        <ele>1608</ele>
        <time>2017-01-18T10:41:16.117Z</time>
      </trkpt>
      <trkpt lat="42.98808" lon="-0.0078">
        <ele>1608</ele>
        <time>2017-01-18T10:41:17.117Z</time>
      </trkpt>
      <trkpt lat="42.98809" lon="-0.00781">
        <ele>1608</ele>
        <time>2017-01-18T10:41:18.117Z</time>
      </trkpt>
      <trkpt lat="42.98809" lon="-0.00781">
        <ele>1608</ele>
        <time>2017-01-18T10:41:19.117Z</time>
      </trkpt>
      <trkpt lat="42.9881" lon="-0.00781">
        <ele>1608</ele>
        <time>2017-01-18T10:41:20.117Z</time>
      </trkpt>
      <trkpt lat="42.98811" lon="-0.00782">
        <ele>1608</ele>
        <time>2017-01-18T10:41:21.117Z</time>
      </trkpt>
      <trkpt lat="42.98811" lon="-0.00782">
        <ele>1608</ele>
        <time>2017-01-18T10:41:22.117Z</time>
      </trkpt>
      <trkpt lat="42.98812" lon="-0.00782">
        <ele>1608</ele>
        <time>2017-01-18T10:41:23.117Z</time>
      </trkpt>
      <trkpt lat="42.98813" lon="-0.00782">
        <ele>1608</ele>
        <time>2017-01-18T10:41:24.117Z</time>
      </trkpt>
      <trkpt lat="42.98813" lon="-0.00782">
        <ele>1608</ele>
        <time>2017-01-18T10:41:25.117Z</time>
      </trkpt>
      <trkpt lat="42.98814" lon="-0.00783">
        <ele>1608</ele>
        <time>2017-01-18T10:41:26.117Z</time>
      </trkpt>
      <trkpt lat="42.98814" lon="-0.00783">
        <ele>1608</ele>
        <time>2017-01-18T10:41:27.117Z</time>
      </trkpt>
      <trkpt lat="42.98815" lon="-0.00783">
        <ele>1608</ele>
        <time>2017-01-18T10:41:28.117Z</time>
      </trkpt>
      <trkpt lat="42.98816" lon="-0.00783">
        <ele>1608</ele>
        <time>2017-01-18T10:41:29.117Z</time>
      </trkpt>
      <trkpt lat="42.98816" lon="-0.00784">
        <ele>1608</ele>
        <time>2017-01-18T10:41:30.117Z</time>
      </trkpt>
      <trkpt lat="42.98817" lon="-0.00784">
        <ele>1608</ele>
        <time>2017-01-18T10:41:31.117Z</time>
      </trkpt>
      <trkpt lat="42.98817" lon="-0.00784">
        <ele>1608</ele>
        <time>2017-01-18T10:41:32.117Z</time>
      </trkpt>
      <trkpt lat="42.98818" lon="-0.00785">
        <ele>1608</ele>
        <time>2017-01-18T10:41:33.117Z</time>
      </trkpt>
      <trkpt lat="42.98819" lon="-0.00785">
        <ele>1609</ele>
        <time>2017-01-18T10:41:34.117Z</time>
      </trkpt>
      <trkpt lat="42.98819" lon="-0.00785">
        <ele>1609</ele>
        <time>2017-01-18T10:41:35.117Z</time>
      </trkpt>
      <trkpt lat="42.9882" lon="-0.00786">
        <ele>1609</ele>
        <time>2017-01-18T10:41:36.117Z</time>
      </trkpt>
      <trkpt lat="42.9882" lon="-0.00786">
        <ele>1609</ele>
        <time>2017-01-18T10:41:37.117Z</time>
      </trkpt>
      <trkpt lat="42.98821" lon="-0.00786">
        <ele>1609</ele>
        <time>2017-01-18T10:41:38.117Z</time>
      </trkpt>
      <trkpt lat="42.98822" lon="-0.00786">
        <ele>1609</ele>
        <time>2017-01-18T10:41:39.117Z</time>
      </trkpt>
      <trkpt lat="42.98822" lon="-0.00787">
        <ele>1609</ele>
        <time>2017-01-18T10:41:40.117Z</time>
      </trkpt>
      <trkpt lat="42.98823" lon="-0.00787">
        <ele>1609</ele>
        <time>2017-01-18T10:41:41.117Z</time>
      </trkpt>
      <trkpt lat="42.98823" lon="-0.00787">
        <ele>1609</ele>
        <time>2017-01-18T10:41:42.117Z</time>
      </trkpt>
      <trkpt lat="42.98824" lon="-0.00787">
        <ele>1609</ele>
        <time>2017-01-18T10:41:43.117Z</time>
      </trkpt>
      <trkpt lat="42.98825" lon="-0.00787">
        <ele>1609</ele>
        <time>2017-01-18T10:41:44.117Z</time>
      </trkpt>
      <trkpt lat="42.98825" lon="-0.00788">
        <ele>1609</ele>
        <time>2017-01-18T10:41:45.117Z</time>
      </trkpt>
      <trkpt lat="42.98826" lon="-0.00788">
        <ele>1609</ele>
        <time>2017-01-18T10:41:46.117Z</time>
      </trkpt>
      <trkpt lat="42.98827" lon="-0.00788">
        <ele>1609</ele>
        <time>2017-01-18T10:41:47.117Z</time>
      </trkpt>
      <trkpt lat="42.98827" lon="-0.00788">
        <ele>1609</ele>
        <time>2017-01-18T10:41:48.117Z</time>
      </trkpt>
      <trkpt lat="42.98828" lon="-0.00787">
        <ele>1609</ele>
        <time>2017-01-18T10:41:49.117Z</time>
      </trkpt>
      <trkpt lat="42.98828" lon="-0.00787">
        <ele>1609</ele>
        <time>2017-01-18T10:41:50.117Z</time>
      </trkpt>
      <trkpt lat="42.98828" lon="-0.00787">
        <ele>1609</ele>
        <time>2017-01-18T10:41:51.117Z</time>
      </trkpt>
      <trkpt lat="42.98828" lon="-0.00787">
        <ele>1609</ele>
        <time>2017-01-18T10:41:52.117Z</time>
      </trkpt>
      <trkpt lat="42.98828" lon="-0.00787">
        <ele>1609</ele>
        <time>2017-01-18T10:41:53.117Z</time>
      </trkpt>
      <trkpt lat="42.98828" lon="-0.00786">
        <ele>1608</ele>
        <time>2017-01-18T10:41:54.121Z</time>
      </trkpt>
      <trkpt lat="42.98828" lon="-0.00786">
        <ele>1608</ele>
        <time>2017-01-18T10:41:55.121Z</time>
      </trkpt>
      <trkpt lat="42.98828" lon="-0.00786">
        <ele>1608</ele>
        <time>2017-01-18T10:41:56.121Z</time>
      </trkpt>
      <trkpt lat="42.98828" lon="-0.00786">
        <ele>1608</ele>
        <time>2017-01-18T10:41:57.121Z</time>
      </trkpt>
      <trkpt lat="42.98828" lon="-0.00786">
        <ele>1608</ele>
        <time>2017-01-18T10:41:58.121Z</time>
      </trkpt>
      <trkpt lat="42.98828" lon="-0.00786">
        <ele>1609</ele>
        <time>2017-01-18T10:41:59.121Z</time>
      </trkpt>
      <trkpt lat="42.98829" lon="-0.00786">
        <ele>1610</ele>
        <time>2017-01-18T10:42:00.000Z</time>
      </trkpt>
      <trkpt lat="42.98829" lon="-0.00787">
        <ele>1610</ele>
        <time>2017-01-18T10:42:01.000Z</time>
      </trkpt>
      <trkpt lat="42.9883" lon="-0.00787">
        <ele>1610</ele>
        <time>2017-01-18T10:42:02.000Z</time>
      </trkpt>
      <trkpt lat="42.9883" lon="-0.00788">
        <ele>1610</ele>
        <time>2017-01-18T10:42:03.000Z</time>
      </trkpt>
      <trkpt lat="42.98831" lon="-0.00788">
        <ele>1610</ele>
        <time>2017-01-18T10:42:04.000Z</time>
      </trkpt>
      <trkpt lat="42.98831" lon="-0.00789">
        <ele>1610</ele>
        <time>2017-01-18T10:42:05.000Z</time>
      </trkpt>
      <trkpt lat="42.98832" lon="-0.0079">
        <ele>1610</ele>
        <time>2017-01-18T10:42:06.000Z</time>
      </trkpt>
      <trkpt lat="42.98833" lon="-0.0079">
        <ele>1611</ele>
        <time>2017-01-18T10:42:07.000Z</time>
      </trkpt>
      <trkpt lat="42.98833" lon="-0.00791">
        <ele>1611</ele>
        <time>2017-01-18T10:42:08.000Z</time>
      </trkpt>
      <trkpt lat="42.98834" lon="-0.00791">
        <ele>1611</ele>
        <time>2017-01-18T10:42:09.000Z</time>
      </trkpt>
      <trkpt lat="42.98835" lon="-0.00792">
        <ele>1611</ele>
        <time>2017-01-18T10:42:10.000Z</time>
      </trkpt>
      <trkpt lat="42.98835" lon="-0.00792">
        <ele>1610</ele>
        <time>2017-01-18T10:42:11.000Z</time>
      </trkpt>
      <trkpt lat="42.98836" lon="-0.00792">
        <ele>1611</ele>
        <time>2017-01-18T10:42:12.000Z</time>
      </trkpt>
      <trkpt lat="42.98837" lon="-0.00793">
        <ele>1611</ele>
        <time>2017-01-18T10:42:13.000Z</time>
      </trkpt>
      <trkpt lat="42.98837" lon="-0.00793">
        <ele>1611</ele>
        <time>2017-01-18T10:42:14.000Z</time>
      </trkpt>
      <trkpt lat="42.98838" lon="-0.00794">
        <ele>1611</ele>
        <time>2017-01-18T10:42:15.000Z</time>
      </trkpt>
      <trkpt lat="42.98839" lon="-0.00794">
        <ele>1611</ele>
        <time>2017-01-18T10:42:16.000Z</time>
      </trkpt>
      <trkpt lat="42.98839" lon="-0.00795">
        <ele>1611</ele>
        <time>2017-01-18T10:42:17.000Z</time>
      </trkpt>
      <trkpt lat="42.9884" lon="-0.00795">
        <ele>1611</ele>
        <time>2017-01-18T10:42:18.000Z</time>
      </trkpt>
      <trkpt lat="42.98841" lon="-0.00796">
        <ele>1611</ele>
        <time>2017-01-18T10:42:19.000Z</time>
      </trkpt>
      <trkpt lat="42.98841" lon="-0.00796">
        <ele>1611</ele>
        <time>2017-01-18T10:42:20.000Z</time>
      </trkpt>
      <trkpt lat="42.98842" lon="-0.00797">
        <ele>1611</ele>
        <time>2017-01-18T10:42:21.000Z</time>
      </trkpt>
      <trkpt lat="42.98843" lon="-0.00797">
        <ele>1610</ele>
        <time>2017-01-18T10:42:22.000Z</time>
      </trkpt>
      <trkpt lat="42.98844" lon="-0.00797">
        <ele>1610</ele>
        <time>2017-01-18T10:42:23.000Z</time>
      </trkpt>
      <trkpt lat="42.98844" lon="-0.00798">
        <ele>1610</ele>
        <time>2017-01-18T10:42:24.000Z</time>
      </trkpt>
      <trkpt lat="42.98845" lon="-0.00798">
        <ele>1610</ele>
        <time>2017-01-18T10:42:25.000Z</time>
      </trkpt>
      <trkpt lat="42.98846" lon="-0.00798">
        <ele>1611</ele>
        <time>2017-01-18T10:42:26.000Z</time>
      </trkpt>
      <trkpt lat="42.98846" lon="-0.00799">
        <ele>1610</ele>
        <time>2017-01-18T10:42:27.000Z</time>
      </trkpt>
      <trkpt lat="42.98847" lon="-0.00799">
        <ele>1611</ele>
        <time>2017-01-18T10:42:28.000Z</time>
      </trkpt>
      <trkpt lat="42.98848" lon="-0.00799">
        <ele>1611</ele>
        <time>2017-01-18T10:42:29.000Z</time>
      </trkpt>
      <trkpt lat="42.98848" lon="-0.008">
        <ele>1610</ele>
        <time>2017-01-18T10:42:30.000Z</time>
      </trkpt>
      <trkpt lat="42.98849" lon="-0.008">
        <ele>1610</ele>
        <time>2017-01-18T10:42:31.000Z</time>
      </trkpt>
      <trkpt lat="42.9885" lon="-0.008">
        <ele>1611</ele>
        <time>2017-01-18T10:42:32.000Z</time>
      </trkpt>
      <trkpt lat="42.9885" lon="-0.00801">
        <ele>1611</ele>
        <time>2017-01-18T10:42:33.000Z</time>
      </trkpt>
      <trkpt lat="42.98851" lon="-0.00801">
        <ele>1611</ele>
        <time>2017-01-18T10:42:34.000Z</time>
      </trkpt>
      <trkpt lat="42.98852" lon="-0.00802">
        <ele>1611</ele>
        <time>2017-01-18T10:42:35.000Z</time>
      </trkpt>
      <trkpt lat="42.98852" lon="-0.00802">
        <ele>1611</ele>
        <time>2017-01-18T10:42:36.000Z</time>
      </trkpt>
      <trkpt lat="42.98853" lon="-0.00802">
        <ele>1610</ele>
        <time>2017-01-18T10:42:37.000Z</time>
      </trkpt>
      <trkpt lat="42.98854" lon="-0.00802">
        <ele>1610</ele>
        <time>2017-01-18T10:42:38.000Z</time>
      </trkpt>
      <trkpt lat="42.98855" lon="-0.00803">
        <ele>1610</ele>
        <time>2017-01-18T10:42:39.000Z</time>
      </trkpt>
      <trkpt lat="42.98855" lon="-0.00803">
        <ele>1610</ele>
        <time>2017-01-18T10:42:40.000Z</time>
      </trkpt>
      <trkpt lat="42.98856" lon="-0.00803">
        <ele>1610</ele>
        <time>2017-01-18T10:42:41.000Z</time>
      </trkpt>
      <trkpt lat="42.98857" lon="-0.00804">
        <ele>1610</ele>
        <time>2017-01-18T10:42:42.000Z</time>
      </trkpt>
      <trkpt lat="42.98858" lon="-0.00804">
        <ele>1610</ele>
        <time>2017-01-18T10:42:43.000Z</time>
      </trkpt>
      <trkpt lat="42.98858" lon="-0.00804">
        <ele>1610</ele>
        <time>2017-01-18T10:42:44.000Z</time>
      </trkpt>
      <trkpt lat="42.98859" lon="-0.00805">
        <ele>1611</ele>
        <time>2017-01-18T10:42:45.000Z</time>
      </trkpt>
      <trkpt lat="42.9886" lon="-0.00805">
        <ele>1610</ele>
        <time>2017-01-18T10:42:46.000Z</time>
      </trkpt>
      <trkpt lat="42.9886" lon="-0.00806">
        <ele>1610</ele>
        <time>2017-01-18T10:42:47.000Z</time>
      </trkpt>
      <trkpt lat="42.98861" lon="-0.00806">
        <ele>1610</ele>
        <time>2017-01-18T10:42:48.000Z</time>
      </trkpt>
      <trkpt lat="42.98862" lon="-0.00806">
        <ele>1610</ele>
        <time>2017-01-18T10:42:49.000Z</time>
      </trkpt>
      <trkpt lat="42.98863" lon="-0.00807">
        <ele>1610</ele>
        <time>2017-01-18T10:42:50.000Z</time>
      </trkpt>
      <trkpt lat="42.98863" lon="-0.00807">
        <ele>1610</ele>
        <time>2017-01-18T10:42:51.000Z</time>
      </trkpt>
      <trkpt lat="42.98864" lon="-0.00808">
        <ele>1610</ele>
        <time>2017-01-18T10:42:52.000Z</time>
      </trkpt>
      <trkpt lat="42.98865" lon="-0.00808">
        <ele>1610</ele>
        <time>2017-01-18T10:42:53.000Z</time>
      </trkpt>
      <trkpt lat="42.98866" lon="-0.00808">
        <ele>1610</ele>
        <time>2017-01-18T10:42:54.000Z</time>
      </trkpt>
      <trkpt lat="42.98866" lon="-0.00808">
        <ele>1610</ele>
        <time>2017-01-18T10:42:55.000Z</time>
      </trkpt>
      <trkpt lat="42.98867" lon="-0.00809">
        <ele>1610</ele>
        <time>2017-01-18T10:42:56.000Z</time>
      </trkpt>
      <trkpt lat="42.98868" lon="-0.00809">
        <ele>1610</ele>
        <time>2017-01-18T10:42:57.000Z</time>
      </trkpt>
      <trkpt lat="42.98868" lon="-0.0081">
        <ele>1610</ele>
        <time>2017-01-18T10:42:58.000Z</time>
      </trkpt>
      <trkpt lat="42.98869" lon="-0.0081">
        <ele>1610</ele>
        <time>2017-01-18T10:42:59.000Z</time>
      </trkpt>
      <trkpt lat="42.9887" lon="-0.00811">
        <ele>1610</ele>
        <time>2017-01-18T10:43:00.000Z</time>
      </trkpt>
      <trkpt lat="42.98871" lon="-0.00811">
        <ele>1610</ele>
        <time>2017-01-18T10:43:01.000Z</time>
      </trkpt>
      <trkpt lat="42.98871" lon="-0.00812">
        <ele>1610</ele>
        <time>2017-01-18T10:43:02.000Z</time>
      </trkpt>
      <trkpt lat="42.98872" lon="-0.00812">
        <ele>1610</ele>
        <time>2017-01-18T10:43:03.000Z</time>
      </trkpt>
      <trkpt lat="42.98873" lon="-0.00813">
        <ele>1610</ele>
        <time>2017-01-18T10:43:04.000Z</time>
      </trkpt>
      <trkpt lat="42.98873" lon="-0.00814">
        <ele>1610</ele>
        <time>2017-01-18T10:43:05.000Z</time>
      </trkpt>
      <trkpt lat="42.98874" lon="-0.00814">
        <ele>1610</ele>
        <time>2017-01-18T10:43:06.000Z</time>
      </trkpt>
      <trkpt lat="42.98875" lon="-0.00815">
        <ele>1610</ele>
        <time>2017-01-18T10:43:07.000Z</time>
      </trkpt>
      <trkpt lat="42.98875" lon="-0.00815">
        <ele>1610</ele>
        <time>2017-01-18T10:43:08.000Z</time>
      </trkpt>
      <trkpt lat="42.98876" lon="-0.00816">
        <ele>1609</ele>
        <time>2017-01-18T10:43:09.000Z</time>
      </trkpt>
      <trkpt lat="42.98877" lon="-0.00816">
        <ele>1609</ele>
        <time>2017-01-18T10:43:10.000Z</time>
      </trkpt>
      <trkpt lat="42.98877" lon="-0.00817">
        <ele>1609</ele>
        <time>2017-01-18T10:43:11.000Z</time>
      </trkpt>
      <trkpt lat="42.98878" lon="-0.00817">
        <ele>1609</ele>
        <time>2017-01-18T10:43:12.000Z</time>
      </trkpt>
      <trkpt lat="42.98879" lon="-0.00818">
        <ele>1610</ele>
        <time>2017-01-18T10:43:13.000Z</time>
      </trkpt>
      <trkpt lat="42.98879" lon="-0.00818">
        <ele>1610</ele>
        <time>2017-01-18T10:43:14.000Z</time>
      </trkpt>
      <trkpt lat="42.9888" lon="-0.00818">
        <ele>1610</ele>
        <time>2017-01-18T10:43:15.000Z</time>
      </trkpt>
      <trkpt lat="42.98881" lon="-0.00819">
        <ele>1610</ele>
        <time>2017-01-18T10:43:16.000Z</time>
      </trkpt>
      <trkpt lat="42.98882" lon="-0.00819">
        <ele>1611</ele>
        <time>2017-01-18T10:43:17.000Z</time>
      </trkpt>
      <trkpt lat="42.98882" lon="-0.00819">
        <ele>1610</ele>
        <time>2017-01-18T10:43:18.000Z</time>
      </trkpt>
      <trkpt lat="42.98883" lon="-0.0082">
        <ele>1611</ele>
        <time>2017-01-18T10:43:19.000Z</time>
      </trkpt>
      <trkpt lat="42.98884" lon="-0.0082">
        <ele>1611</ele>
        <time>2017-01-18T10:43:20.000Z</time>
      </trkpt>
      <trkpt lat="42.98884" lon="-0.0082">
        <ele>1611</ele>
        <time>2017-01-18T10:43:21.000Z</time>
      </trkpt>
      <trkpt lat="42.98885" lon="-0.0082">
        <ele>1611</ele>
        <time>2017-01-18T10:43:22.000Z</time>
      </trkpt>
      <trkpt lat="42.98885" lon="-0.0082">
        <ele>1611</ele>
        <time>2017-01-18T10:43:23.000Z</time>
      </trkpt>
      <trkpt lat="42.98886" lon="-0.00821">
        <ele>1611</ele>
        <time>2017-01-18T10:43:24.000Z</time>
      </trkpt>
      <trkpt lat="42.98886" lon="-0.00821">
        <ele>1611</ele>
        <time>2017-01-18T10:43:25.000Z</time>
      </trkpt>
      <trkpt lat="42.98887" lon="-0.00822">
        <ele>1611</ele>
        <time>2017-01-18T10:43:26.000Z</time>
      </trkpt>
      <trkpt lat="42.98888" lon="-0.00822">
        <ele>1612</ele>
        <time>2017-01-18T10:43:27.000Z</time>
      </trkpt>
      <trkpt lat="42.98888" lon="-0.00822">
        <ele>1612</ele>
        <time>2017-01-18T10:43:28.000Z</time>
      </trkpt>
      <trkpt lat="42.98889" lon="-0.00823">
        <ele>1612</ele>
        <time>2017-01-18T10:43:29.000Z</time>
      </trkpt>
      <trkpt lat="42.9889" lon="-0.00823">
        <ele>1612</ele>
        <time>2017-01-18T10:43:30.000Z</time>
      </trkpt>
      <trkpt lat="42.9889" lon="-0.00823">
        <ele>1612</ele>
        <time>2017-01-18T10:43:31.000Z</time>
      </trkpt>
      <trkpt lat="42.98891" lon="-0.00823">
        <ele>1612</ele>
        <time>2017-01-18T10:43:32.000Z</time>
      </trkpt>
      <trkpt lat="42.98892" lon="-0.00823">
        <ele>1612</ele>
        <time>2017-01-18T10:43:33.000Z</time>
      </trkpt>
      <trkpt lat="42.98892" lon="-0.00823">
        <ele>1612</ele>
        <time>2017-01-18T10:43:34.000Z</time>
      </trkpt>
      <trkpt lat="42.98893" lon="-0.00823">
        <ele>1612</ele>
        <time>2017-01-18T10:43:35.000Z</time>
      </trkpt>
      <trkpt lat="42.98894" lon="-0.00823">
        <ele>1612</ele>
        <time>2017-01-18T10:43:36.000Z</time>
      </trkpt>
      <trkpt lat="42.98894" lon="-0.00823">
        <ele>1612</ele>
        <time>2017-01-18T10:43:37.000Z</time>
      </trkpt>
      <trkpt lat="42.98895" lon="-0.00823">
        <ele>1612</ele>
        <time>2017-01-18T10:43:38.000Z</time>
      </trkpt>
      <trkpt lat="42.98895" lon="-0.00823">
        <ele>1612</ele>
        <time>2017-01-18T10:43:39.000Z</time>
      </trkpt>
      <trkpt lat="42.98896" lon="-0.00823">
        <ele>1612</ele>
        <time>2017-01-18T10:43:40.000Z</time>
      </trkpt>
      <trkpt lat="42.98896" lon="-0.00824">
        <ele>1612</ele>
        <time>2017-01-18T10:43:41.000Z</time>
      </trkpt>
      <trkpt lat="42.98897" lon="-0.00824">
        <ele>1612</ele>
        <time>2017-01-18T10:43:42.000Z</time>
      </trkpt>
      <trkpt lat="42.98897" lon="-0.00824">
        <ele>1612</ele>
        <time>2017-01-18T10:43:43.000Z</time>
      </trkpt>
      <trkpt lat="42.98898" lon="-0.00824">
        <ele>1612</ele>
        <time>2017-01-18T10:43:44.000Z</time>
      </trkpt>
      <trkpt lat="42.98898" lon="-0.00824">
        <ele>1613</ele>
        <time>2017-01-18T10:43:45.000Z</time>
      </trkpt>
      <trkpt lat="42.98899" lon="-0.00824">
        <ele>1613</ele>
        <time>2017-01-18T10:43:46.000Z</time>
      </trkpt>
      <trkpt lat="42.98899" lon="-0.00824">
        <ele>1613</ele>
        <time>2017-01-18T10:43:47.000Z</time>
      </trkpt>
      <trkpt lat="42.98899" lon="-0.00824">
        <ele>1613</ele>
        <time>2017-01-18T10:43:48.000Z</time>
      </trkpt>
      <trkpt lat="42.989" lon="-0.00824">
        <ele>1613</ele>
        <time>2017-01-18T10:43:49.000Z</time>
      </trkpt>
      <trkpt lat="42.989" lon="-0.00825">
        <ele>1613</ele>
        <time>2017-01-18T10:43:50.000Z</time>
      </trkpt>
      <trkpt lat="42.98901" lon="-0.00825">
        <ele>1614</ele>
        <time>2017-01-18T10:43:51.000Z</time>
      </trkpt>
      <trkpt lat="42.98901" lon="-0.00825">
        <ele>1613</ele>
        <time>2017-01-18T10:43:52.000Z</time>
      </trkpt>
      <trkpt lat="42.98902" lon="-0.00825">
        <ele>1614</ele>
        <time>2017-01-18T10:43:53.000Z</time>
      </trkpt>
      <trkpt lat="42.98902" lon="-0.00825">
        <ele>1614</ele>
        <time>2017-01-18T10:43:54.000Z</time>
      </trkpt>
      <trkpt lat="42.98903" lon="-0.00825">
        <ele>1614</ele>
        <time>2017-01-18T10:43:55.000Z</time>
      </trkpt>
      <trkpt lat="42.98903" lon="-0.00825">
        <ele>1614</ele>
        <time>2017-01-18T10:43:56.000Z</time>
      </trkpt>
      <trkpt lat="42.98903" lon="-0.00825">
        <ele>1614</ele>
        <time>2017-01-18T10:43:57.000Z</time>
      </trkpt>
      <trkpt lat="42.98904" lon="-0.00825">
        <ele>1614</ele>
        <time>2017-01-18T10:43:58.000Z</time>
      </trkpt>
      <trkpt lat="42.98904" lon="-0.00825">
        <ele>1614</ele>
        <time>2017-01-18T10:43:59.000Z</time>
      </trkpt>
      <trkpt lat="42.98904" lon="-0.00826">
        <ele>1614</ele>
        <time>2017-01-18T10:44:00.000Z</time>
      </trkpt>
      <trkpt lat="42.98905" lon="-0.00826">
        <ele>1615</ele>
        <time>2017-01-18T10:44:01.000Z</time>
      </trkpt>
      <trkpt lat="42.98905" lon="-0.00826">
        <ele>1615</ele>
        <time>2017-01-18T10:44:02.000Z</time>
      </trkpt>
      <trkpt lat="42.98906" lon="-0.00826">
        <ele>1615</ele>
        <time>2017-01-18T10:44:03.000Z</time>
      </trkpt>
      <trkpt lat="42.98906" lon="-0.00826">
        <ele>1615</ele>
        <time>2017-01-18T10:44:04.000Z</time>
      </trkpt>
      <trkpt lat="42.98907" lon="-0.00826">
        <ele>1615</ele>
        <time>2017-01-18T10:44:05.000Z</time>
      </trkpt>
      <trkpt lat="42.98907" lon="-0.00826">
        <ele>1615</ele>
        <time>2017-01-18T10:44:06.000Z</time>
      </trkpt>
      <trkpt lat="42.98908" lon="-0.00826">
        <ele>1614</ele>
        <time>2017-01-18T10:44:07.000Z</time>
      </trkpt>
      <trkpt lat="42.98908" lon="-0.00826">
        <ele>1614</ele>
        <time>2017-01-18T10:44:08.000Z</time>
      </trkpt>
      <trkpt lat="42.98909" lon="-0.00826">
        <ele>1614</ele>
        <time>2017-01-18T10:44:09.000Z</time>
      </trkpt>
      <trkpt lat="42.98909" lon="-0.00826">
        <ele>1614</ele>
        <time>2017-01-18T10:44:10.000Z</time>
      </trkpt>
      <trkpt lat="42.9891" lon="-0.00826">
        <ele>1614</ele>
        <time>2017-01-18T10:44:11.000Z</time>
      </trkpt>
      <trkpt lat="42.9891" lon="-0.00826">
        <ele>1615</ele>
        <time>2017-01-18T10:44:12.000Z</time>
      </trkpt>
      <trkpt lat="42.9891" lon="-0.00826">
        <ele>1615</ele>
        <time>2017-01-18T10:44:13.000Z</time>
      </trkpt>
      <trkpt lat="42.98911" lon="-0.00826">
        <ele>1615</ele>
        <time>2017-01-18T10:44:14.000Z</time>
      </trkpt>
      <trkpt lat="42.98911" lon="-0.00826">
        <ele>1615</ele>
        <time>2017-01-18T10:44:15.000Z</time>
      </trkpt>
      <trkpt lat="42.98912" lon="-0.00827">
        <ele>1616</ele>
        <time>2017-01-18T10:44:16.000Z</time>
      </trkpt>
      <trkpt lat="42.98912" lon="-0.00827">
        <ele>1616</ele>
        <time>2017-01-18T10:44:17.000Z</time>
      </trkpt>
      <trkpt lat="42.98913" lon="-0.00827">
        <ele>1616</ele>
        <time>2017-01-18T10:44:18.000Z</time>
      </trkpt>
      <trkpt lat="42.98913" lon="-0.00827">
        <ele>1616</ele>
        <time>2017-01-18T10:44:19.000Z</time>
      </trkpt>
      <trkpt lat="42.98914" lon="-0.00827">
        <ele>1616</ele>
        <time>2017-01-18T10:44:20.000Z</time>
      </trkpt>
      <trkpt lat="42.98914" lon="-0.00827">
        <ele>1616</ele>
        <time>2017-01-18T10:44:21.000Z</time>
      </trkpt>
      <trkpt lat="42.98915" lon="-0.00827">
        <ele>1616</ele>
        <time>2017-01-18T10:44:22.000Z</time>
      </trkpt>
      <trkpt lat="42.98915" lon="-0.00827">
        <ele>1616</ele>
        <time>2017-01-18T10:44:23.000Z</time>
      </trkpt>
      <trkpt lat="42.98916" lon="-0.00827">
        <ele>1616</ele>
        <time>2017-01-18T10:44:24.000Z</time>
      </trkpt>
      <trkpt lat="42.98916" lon="-0.00828">
        <ele>1616</ele>
        <time>2017-01-18T10:44:25.000Z</time>
      </trkpt>
      <trkpt lat="42.98917" lon="-0.00828">
        <ele>1616</ele>
        <time>2017-01-18T10:44:26.000Z</time>
      </trkpt>
      <trkpt lat="42.98917" lon="-0.00828">
        <ele>1617</ele>
        <time>2017-01-18T10:44:27.000Z</time>
      </trkpt>
      <trkpt lat="42.98918" lon="-0.00828">
        <ele>1616</ele>
        <time>2017-01-18T10:44:28.000Z</time>
      </trkpt>
      <trkpt lat="42.98918" lon="-0.00829">
        <ele>1617</ele>
        <time>2017-01-18T10:44:29.000Z</time>
      </trkpt>
      <trkpt lat="42.98918" lon="-0.00829">
        <ele>1616</ele>
        <time>2017-01-18T10:44:30.000Z</time>
      </trkpt>
      <trkpt lat="42.98919" lon="-0.00829">
        <ele>1616</ele>
        <time>2017-01-18T10:44:31.000Z</time>
      </trkpt>
      <trkpt lat="42.98919" lon="-0.0083">
        <ele>1616</ele>
        <time>2017-01-18T10:44:32.000Z</time>
      </trkpt>
      <trkpt lat="42.9892" lon="-0.0083">
        <ele>1616</ele>
        <time>2017-01-18T10:44:33.000Z</time>
      </trkpt>
      <trkpt lat="42.9892" lon="-0.00831">
        <ele>1616</ele>
        <time>2017-01-18T10:44:34.000Z</time>
      </trkpt>
      <trkpt lat="42.98921" lon="-0.00831">
        <ele>1616</ele>
        <time>2017-01-18T10:44:35.000Z</time>
      </trkpt>
      <trkpt lat="42.98921" lon="-0.00832">
        <ele>1616</ele>
        <time>2017-01-18T10:44:36.000Z</time>
      </trkpt>
      <trkpt lat="42.98921" lon="-0.00833">
        <ele>1616</ele>
        <time>2017-01-18T10:44:37.000Z</time>
      </trkpt>
      <trkpt lat="42.98922" lon="-0.00833">
        <ele>1617</ele>
        <time>2017-01-18T10:44:38.000Z</time>
      </trkpt>
      <trkpt lat="42.98922" lon="-0.00834">
        <ele>1616</ele>
        <time>2017-01-18T10:44:39.000Z</time>
      </trkpt>
      <trkpt lat="42.98922" lon="-0.00834">
        <ele>1616</ele>
        <time>2017-01-18T10:44:40.000Z</time>
      </trkpt>
      <trkpt lat="42.98923" lon="-0.00835">
        <ele>1617</ele>
        <time>2017-01-18T10:44:41.000Z</time>
      </trkpt>
      <trkpt lat="42.98923" lon="-0.00836">
        <ele>1617</ele>
        <time>2017-01-18T10:44:42.000Z</time>
      </trkpt>
      <trkpt lat="42.98923" lon="-0.00836">
        <ele>1617</ele>
        <time>2017-01-18T10:44:43.000Z</time>
      </trkpt>
      <trkpt lat="42.98924" lon="-0.00837">
        <ele>1617</ele>
        <time>2017-01-18T10:44:44.000Z</time>
      </trkpt>
      <trkpt lat="42.98924" lon="-0.00837">
        <ele>1617</ele>
        <time>2017-01-18T10:44:45.000Z</time>
      </trkpt>
      <trkpt lat="42.98924" lon="-0.00838">
        <ele>1617</ele>
        <time>2017-01-18T10:44:46.000Z</time>
      </trkpt>
      <trkpt lat="42.98924" lon="-0.00838">
        <ele>1617</ele>
        <time>2017-01-18T10:44:47.000Z</time>
      </trkpt>
      <trkpt lat="42.98925" lon="-0.00839">
        <ele>1617</ele>
        <time>2017-01-18T10:44:48.000Z</time>
      </trkpt>
      <trkpt lat="42.98925" lon="-0.00839">
        <ele>1617</ele>
        <time>2017-01-18T10:44:49.000Z</time>
      </trkpt>
      <trkpt lat="42.98926" lon="-0.0084">
        <ele>1617</ele>
        <time>2017-01-18T10:44:50.000Z</time>
      </trkpt>
      <trkpt lat="42.98926" lon="-0.0084">
        <ele>1618</ele>
        <time>2017-01-18T10:44:51.000Z</time>
      </trkpt>
      <trkpt lat="42.98926" lon="-0.00841">
        <ele>1618</ele>
        <time>2017-01-18T10:44:52.000Z</time>
      </trkpt>
      <trkpt lat="42.98926" lon="-0.00841">
        <ele>1618</ele>
        <time>2017-01-18T10:44:53.000Z</time>
      </trkpt>
      <trkpt lat="42.98926" lon="-0.00842">
        <ele>1618</ele>
        <time>2017-01-18T10:44:54.000Z</time>
      </trkpt>
      <trkpt lat="42.98926" lon="-0.00842">
        <ele>1618</ele>
        <time>2017-01-18T10:44:55.000Z</time>
      </trkpt>
      <trkpt lat="42.98926" lon="-0.00843">
        <ele>1618</ele>
        <time>2017-01-18T10:44:56.000Z</time>
      </trkpt>
      <trkpt lat="42.98926" lon="-0.00844">
        <ele>1618</ele>
        <time>2017-01-18T10:44:57.000Z</time>
      </trkpt>
      <trkpt lat="42.98926" lon="-0.00844">
        <ele>1618</ele>
        <time>2017-01-18T10:44:58.000Z</time>
      </trkpt>
      <trkpt lat="42.98926" lon="-0.00845">
        <ele>1619</ele>
        <time>2017-01-18T10:44:59.000Z</time>
      </trkpt>
      <trkpt lat="42.98925" lon="-0.00846">
        <ele>1619</ele>
        <time>2017-01-18T10:45:00.000Z</time>
      </trkpt>
      <trkpt lat="42.98925" lon="-0.00846">
        <ele>1619</ele>
        <time>2017-01-18T10:45:01.000Z</time>
      </trkpt>
      <trkpt lat="42.98926" lon="-0.00847">
        <ele>1619</ele>
        <time>2017-01-18T10:45:02.000Z</time>
      </trkpt>
      <trkpt lat="42.98926" lon="-0.00848">
        <ele>1619</ele>
        <time>2017-01-18T10:45:03.000Z</time>
      </trkpt>
      <trkpt lat="42.98926" lon="-0.00848">
        <ele>1619</ele>
        <time>2017-01-18T10:45:04.000Z</time>
      </trkpt>
      <trkpt lat="42.98926" lon="-0.00849">
        <ele>1619</ele>
        <time>2017-01-18T10:45:05.000Z</time>
      </trkpt>
      <trkpt lat="42.98927" lon="-0.00849">
        <ele>1619</ele>
        <time>2017-01-18T10:45:06.000Z</time>
      </trkpt>
      <trkpt lat="42.98927" lon="-0.0085">
        <ele>1620</ele>
        <time>2017-01-18T10:45:07.000Z</time>
      </trkpt>
      <trkpt lat="42.98927" lon="-0.0085">
        <ele>1620</ele>
        <time>2017-01-18T10:45:08.000Z</time>
      </trkpt>
      <trkpt lat="42.98928" lon="-0.0085">
        <ele>1620</ele>
        <time>2017-01-18T10:45:09.000Z</time>
      </trkpt>
      <trkpt lat="42.98928" lon="-0.00851">
        <ele>1620</ele>
        <time>2017-01-18T10:45:10.000Z</time>
      </trkpt>
      <trkpt lat="42.98929" lon="-0.00851">
        <ele>1620</ele>
        <time>2017-01-18T10:45:11.000Z</time>
      </trkpt>
      <trkpt lat="42.98929" lon="-0.00852">
        <ele>1621</ele>
        <time>2017-01-18T10:45:12.000Z</time>
      </trkpt>
      <trkpt lat="42.9893" lon="-0.00852">
        <ele>1621</ele>
        <time>2017-01-18T10:45:13.000Z</time>
      </trkpt>
      <trkpt lat="42.9893" lon="-0.00852">
        <ele>1621</ele>
        <time>2017-01-18T10:45:14.000Z</time>
      </trkpt>
      <trkpt lat="42.98931" lon="-0.00853">
        <ele>1621</ele>
        <time>2017-01-18T10:45:15.000Z</time>
      </trkpt>
      <trkpt lat="42.98931" lon="-0.00853">
        <ele>1621</ele>
        <time>2017-01-18T10:45:16.000Z</time>
      </trkpt>
      <trkpt lat="42.98932" lon="-0.00853">
        <ele>1621</ele>
        <time>2017-01-18T10:45:17.000Z</time>
      </trkpt>
      <trkpt lat="42.98932" lon="-0.00854">
        <ele>1621</ele>
        <time>2017-01-18T10:45:18.000Z</time>
      </trkpt>
      <trkpt lat="42.98932" lon="-0.00854">
        <ele>1621</ele>
        <time>2017-01-18T10:45:19.000Z</time>
      </trkpt>
      <trkpt lat="42.98933" lon="-0.00854">
        <ele>1621</ele>
        <time>2017-01-18T10:45:20.000Z</time>
      </trkpt>
      <trkpt lat="42.98933" lon="-0.00855">
        <ele>1621</ele>
        <time>2017-01-18T10:45:21.000Z</time>
      </trkpt>
      <trkpt lat="42.98934" lon="-0.00855">
        <ele>1621</ele>
        <time>2017-01-18T10:45:22.000Z</time>
      </trkpt>
      <trkpt lat="42.98934" lon="-0.00856">
        <ele>1621</ele>
        <time>2017-01-18T10:45:23.000Z</time>
      </trkpt>
      <trkpt lat="42.98934" lon="-0.00856">
        <ele>1622</ele>
        <time>2017-01-18T10:45:24.000Z</time>
      </trkpt>
      <trkpt lat="42.98935" lon="-0.00857">
        <ele>1622</ele>
        <time>2017-01-18T10:45:25.000Z</time>
      </trkpt>
      <trkpt lat="42.98935" lon="-0.00857">
        <ele>1622</ele>
        <time>2017-01-18T10:45:26.000Z</time>
      </trkpt>
      <trkpt lat="42.98935" lon="-0.00858">
        <ele>1622</ele>
        <time>2017-01-18T10:45:27.000Z</time>
      </trkpt>
      <trkpt lat="42.98936" lon="-0.00858">
        <ele>1622</ele>
        <time>2017-01-18T10:45:28.000Z</time>
      </trkpt>
      <trkpt lat="42.98936" lon="-0.00859">
        <ele>1622</ele>
        <time>2017-01-18T10:45:29.000Z</time>
      </trkpt>
      <trkpt lat="42.98936" lon="-0.00859">
        <ele>1622</ele>
        <time>2017-01-18T10:45:30.000Z</time>
      </trkpt>
      <trkpt lat="42.98937" lon="-0.0086">
        <ele>1622</ele>
        <time>2017-01-18T10:45:31.000Z</time>
      </trkpt>
      <trkpt lat="42.98937" lon="-0.0086">
        <ele>1623</ele>
        <time>2017-01-18T10:45:32.000Z</time>
      </trkpt>
      <trkpt lat="42.98937" lon="-0.00861">
        <ele>1623</ele>
        <time>2017-01-18T10:45:33.000Z</time>
      </trkpt>
      <trkpt lat="42.98938" lon="-0.00861">
        <ele>1623</ele>
        <time>2017-01-18T10:45:34.000Z</time>
      </trkpt>
      <trkpt lat="42.98938" lon="-0.00862">
        <ele>1623</ele>
        <time>2017-01-18T10:45:35.000Z</time>
      </trkpt>
      <trkpt lat="42.98938" lon="-0.00862">
        <ele>1623</ele>
        <time>2017-01-18T10:45:36.000Z</time>
      </trkpt>
      <trkpt lat="42.98938" lon="-0.00863">
        <ele>1623</ele>
        <time>2017-01-18T10:45:37.000Z</time>
      </trkpt>
      <trkpt lat="42.98939" lon="-0.00863">
        <ele>1623</ele>
        <time>2017-01-18T10:45:38.000Z</time>
      </trkpt>
      <trkpt lat="42.98939" lon="-0.00864">
        <ele>1624</ele>
        <time>2017-01-18T10:45:39.000Z</time>
      </trkpt>
      <trkpt lat="42.98939" lon="-0.00864">
        <ele>1624</ele>
        <time>2017-01-18T10:45:40.000Z</time>
      </trkpt>
      <trkpt lat="42.9894" lon="-0.00865">
        <ele>1624</ele>
        <time>2017-01-18T10:45:41.000Z</time>
      </trkpt>
      <trkpt lat="42.9894" lon="-0.00865">
        <ele>1625</ele>
        <time>2017-01-18T10:45:42.000Z</time>
      </trkpt>
      <trkpt lat="42.9894" lon="-0.00866">
        <ele>1625</ele>
        <time>2017-01-18T10:45:43.000Z</time>
      </trkpt>
      <trkpt lat="42.9894" lon="-0.00867">
        <ele>1625</ele>
        <time>2017-01-18T10:45:44.000Z</time>
      </trkpt>
      <trkpt lat="42.98941" lon="-0.00868">
        <ele>1625</ele>
        <time>2017-01-18T10:45:45.000Z</time>
      </trkpt>
      <trkpt lat="42.98941" lon="-0.00868">
        <ele>1625</ele>
        <time>2017-01-18T10:45:46.000Z</time>
      </trkpt>
      <trkpt lat="42.98941" lon="-0.00869">
        <ele>1625</ele>
        <time>2017-01-18T10:45:47.000Z</time>
      </trkpt>
      <trkpt lat="42.98941" lon="-0.0087">
        <ele>1625</ele>
        <time>2017-01-18T10:45:48.000Z</time>
      </trkpt>
      <trkpt lat="42.98942" lon="-0.0087">
        <ele>1625</ele>
        <time>2017-01-18T10:45:49.000Z</time>
      </trkpt>
      <trkpt lat="42.98942" lon="-0.00871">
        <ele>1625</ele>
        <time>2017-01-18T10:45:50.000Z</time>
      </trkpt>
      <trkpt lat="42.98942" lon="-0.00871">
        <ele>1625</ele>
        <time>2017-01-18T10:45:51.000Z</time>
      </trkpt>
      <trkpt lat="42.98942" lon="-0.00871">
        <ele>1625</ele>
        <time>2017-01-18T10:45:52.000Z</time>
      </trkpt>
      <trkpt lat="42.98943" lon="-0.00872">
        <ele>1625</ele>
        <time>2017-01-18T10:45:53.000Z</time>
      </trkpt>
      <trkpt lat="42.98943" lon="-0.00872">
        <ele>1625</ele>
        <time>2017-01-18T10:45:54.000Z</time>
      </trkpt>
      <trkpt lat="42.98944" lon="-0.00873">
        <ele>1624</ele>
        <time>2017-01-18T10:45:55.000Z</time>
      </trkpt>
      <trkpt lat="42.98944" lon="-0.00874">
        <ele>1624</ele>
        <time>2017-01-18T10:45:56.000Z</time>
      </trkpt>
      <trkpt lat="42.98944" lon="-0.00874">
        <ele>1624</ele>
        <time>2017-01-18T10:45:57.000Z</time>
      </trkpt>
      <trkpt lat="42.98944" lon="-0.00875">
        <ele>1624</ele>
        <time>2017-01-18T10:45:58.000Z</time>
      </trkpt>
      <trkpt lat="42.98945" lon="-0.00876">
        <ele>1624</ele>
        <time>2017-01-18T10:45:59.000Z</time>
      </trkpt>
      <trkpt lat="42.98945" lon="-0.00877">
        <ele>1624</ele>
        <time>2017-01-18T10:46:00.000Z</time>
      </trkpt>
      <trkpt lat="42.98945" lon="-0.00878">
        <ele>1624</ele>
        <time>2017-01-18T10:46:01.000Z</time>
      </trkpt>
      <trkpt lat="42.98945" lon="-0.00879">
        <ele>1624</ele>
        <time>2017-01-18T10:46:02.000Z</time>
      </trkpt>
      <trkpt lat="42.98944" lon="-0.0088">
        <ele>1624</ele>
        <time>2017-01-18T10:46:03.000Z</time>
      </trkpt>
      <trkpt lat="42.98944" lon="-0.00881">
        <ele>1624</ele>
        <time>2017-01-18T10:46:04.000Z</time>
      </trkpt>
      <trkpt lat="42.98944" lon="-0.00882">
        <ele>1625</ele>
        <time>2017-01-18T10:46:05.000Z</time>
      </trkpt>
      <trkpt lat="42.98945" lon="-0.00883">
        <ele>1625</ele>
        <time>2017-01-18T10:46:06.000Z</time>
      </trkpt>
      <trkpt lat="42.98945" lon="-0.00883">
        <ele>1625</ele>
        <time>2017-01-18T10:46:07.000Z</time>
      </trkpt>
      <trkpt lat="42.98945" lon="-0.00883">
        <ele>1625</ele>
        <time>2017-01-18T10:46:08.000Z</time>
      </trkpt>
      <trkpt lat="42.98945" lon="-0.00884">
        <ele>1625</ele>
        <time>2017-01-18T10:46:09.000Z</time>
      </trkpt>
      <trkpt lat="42.98946" lon="-0.00884">
        <ele>1625</ele>
        <time>2017-01-18T10:46:10.000Z</time>
      </trkpt>
      <trkpt lat="42.98946" lon="-0.00884">
        <ele>1625</ele>
        <time>2017-01-18T10:46:11.000Z</time>
      </trkpt>
      <trkpt lat="42.98946" lon="-0.00885">
        <ele>1625</ele>
        <time>2017-01-18T10:46:12.000Z</time>
      </trkpt>
      <trkpt lat="42.98947" lon="-0.00885">
        <ele>1625</ele>
        <time>2017-01-18T10:46:13.000Z</time>
      </trkpt>
      <trkpt lat="42.98947" lon="-0.00885">
        <ele>1625</ele>
        <time>2017-01-18T10:46:14.000Z</time>
      </trkpt>
      <trkpt lat="42.98947" lon="-0.00886">
        <ele>1625</ele>
        <time>2017-01-18T10:46:15.000Z</time>
      </trkpt>
      <trkpt lat="42.98948" lon="-0.00887">
        <ele>1625</ele>
        <time>2017-01-18T10:46:16.000Z</time>
      </trkpt>
      <trkpt lat="42.98948" lon="-0.00887">
        <ele>1625</ele>
        <time>2017-01-18T10:46:17.000Z</time>
      </trkpt>
      <trkpt lat="42.98948" lon="-0.00888">
        <ele>1625</ele>
        <time>2017-01-18T10:46:18.000Z</time>
      </trkpt>
      <trkpt lat="42.98949" lon="-0.00888">
        <ele>1625</ele>
        <time>2017-01-18T10:46:19.000Z</time>
      </trkpt>
      <trkpt lat="42.98949" lon="-0.00889">
        <ele>1625</ele>
        <time>2017-01-18T10:46:20.000Z</time>
      </trkpt>
      <trkpt lat="42.98949" lon="-0.00889">
        <ele>1625</ele>
        <time>2017-01-18T10:46:21.000Z</time>
      </trkpt>
      <trkpt lat="42.9895" lon="-0.0089">
        <ele>1625</ele>
        <time>2017-01-18T10:46:22.000Z</time>
      </trkpt>
      <trkpt lat="42.9895" lon="-0.0089">
        <ele>1625</ele>
        <time>2017-01-18T10:46:23.000Z</time>
      </trkpt>
      <trkpt lat="42.98951" lon="-0.00891">
        <ele>1626</ele>
        <time>2017-01-18T10:46:24.000Z</time>
      </trkpt>
      <trkpt lat="42.98951" lon="-0.00892">
        <ele>1626</ele>
        <time>2017-01-18T10:46:25.000Z</time>
      </trkpt>
      <trkpt lat="42.98951" lon="-0.00892">
        <ele>1626</ele>
        <time>2017-01-18T10:46:26.000Z</time>
      </trkpt>
      <trkpt lat="42.98952" lon="-0.00893">
        <ele>1626</ele>
        <time>2017-01-18T10:46:27.000Z</time>
      </trkpt>
      <trkpt lat="42.98952" lon="-0.00893">
        <ele>1626</ele>
        <time>2017-01-18T10:46:28.000Z</time>
      </trkpt>
      <trkpt lat="42.98952" lon="-0.00894">
        <ele>1626</ele>
        <time>2017-01-18T10:46:29.000Z</time>
      </trkpt>
      <trkpt lat="42.98953" lon="-0.00894">
        <ele>1626</ele>
        <time>2017-01-18T10:46:30.000Z</time>
      </trkpt>
      <trkpt lat="42.98953" lon="-0.00895">
        <ele>1626</ele>
        <time>2017-01-18T10:46:31.000Z</time>
      </trkpt>
      <trkpt lat="42.98953" lon="-0.00896">
        <ele>1627</ele>
        <time>2017-01-18T10:46:32.000Z</time>
      </trkpt>
      <trkpt lat="42.98954" lon="-0.00896">
        <ele>1626</ele>
        <time>2017-01-18T10:46:33.000Z</time>
      </trkpt>
      <trkpt lat="42.98954" lon="-0.00897">
        <ele>1627</ele>
        <time>2017-01-18T10:46:34.000Z</time>
      </trkpt>
      <trkpt lat="42.98954" lon="-0.00897">
        <ele>1627</ele>
        <time>2017-01-18T10:46:35.000Z</time>
      </trkpt>
      <trkpt lat="42.98954" lon="-0.00898">
        <ele>1627</ele>
        <time>2017-01-18T10:46:36.000Z</time>
      </trkpt>
      <trkpt lat="42.98954" lon="-0.00898">
        <ele>1627</ele>
        <time>2017-01-18T10:46:37.000Z</time>
      </trkpt>
      <trkpt lat="42.98955" lon="-0.00899">
        <ele>1627</ele>
        <time>2017-01-18T10:46:38.000Z</time>
      </trkpt>
      <trkpt lat="42.98955" lon="-0.00899">
        <ele>1628</ele>
        <time>2017-01-18T10:46:39.000Z</time>
      </trkpt>
      <trkpt lat="42.98955" lon="-0.009">
        <ele>1628</ele>
        <time>2017-01-18T10:46:40.000Z</time>
      </trkpt>
      <trkpt lat="42.98955" lon="-0.00901">
        <ele>1628</ele>
        <time>2017-01-18T10:46:41.000Z</time>
      </trkpt>
      <trkpt lat="42.98955" lon="-0.00901">
        <ele>1628</ele>
        <time>2017-01-18T10:46:42.000Z</time>
      </trkpt>
      <trkpt lat="42.98956" lon="-0.00902">
        <ele>1628</ele>
        <time>2017-01-18T10:46:43.000Z</time>
      </trkpt>
      <trkpt lat="42.98956" lon="-0.00902">
        <ele>1628</ele>
        <time>2017-01-18T10:46:44.000Z</time>
      </trkpt>
      <trkpt lat="42.98956" lon="-0.00903">
        <ele>1628</ele>
        <time>2017-01-18T10:46:45.000Z</time>
      </trkpt>
      <trkpt lat="42.98956" lon="-0.00904">
        <ele>1628</ele>
        <time>2017-01-18T10:46:46.000Z</time>
      </trkpt>
      <trkpt lat="42.98956" lon="-0.00904">
        <ele>1628</ele>
        <time>2017-01-18T10:46:47.000Z</time>
      </trkpt>
      <trkpt lat="42.98957" lon="-0.00905">
        <ele>1628</ele>
        <time>2017-01-18T10:46:48.000Z</time>
      </trkpt>
      <trkpt lat="42.98957" lon="-0.00905">
        <ele>1628</ele>
        <time>2017-01-18T10:46:49.000Z</time>
      </trkpt>
      <trkpt lat="42.98957" lon="-0.00906">
        <ele>1628</ele>
        <time>2017-01-18T10:46:50.000Z</time>
      </trkpt>
      <trkpt lat="42.98957" lon="-0.00906">
        <ele>1628</ele>
        <time>2017-01-18T10:46:51.000Z</time>
      </trkpt>
      <trkpt lat="42.98957" lon="-0.00906">
        <ele>1628</ele>
        <time>2017-01-18T10:46:52.000Z</time>
      </trkpt>
      <trkpt lat="42.98957" lon="-0.00907">
        <ele>1628</ele>
        <time>2017-01-18T10:46:53.000Z</time>
      </trkpt>
      <trkpt lat="42.98957" lon="-0.00907">
        <ele>1628</ele>
        <time>2017-01-18T10:46:54.000Z</time>
      </trkpt>
      <trkpt lat="42.98957" lon="-0.00908">
        <ele>1628</ele>
        <time>2017-01-18T10:46:55.000Z</time>
      </trkpt>
      <trkpt lat="42.98958" lon="-0.00909">
        <ele>1628</ele>
        <time>2017-01-18T10:46:56.000Z</time>
      </trkpt>
      <trkpt lat="42.98958" lon="-0.0091">
        <ele>1628</ele>
        <time>2017-01-18T10:46:57.000Z</time>
      </trkpt>
      <trkpt lat="42.98958" lon="-0.0091">
        <ele>1628</ele>
        <time>2017-01-18T10:46:58.000Z</time>
      </trkpt>
      <trkpt lat="42.98958" lon="-0.0091">
        <ele>1628</ele>
        <time>2017-01-18T10:46:59.000Z</time>
      </trkpt>
      <trkpt lat="42.98958" lon="-0.00911">
        <ele>1628</ele>
        <time>2017-01-18T10:47:00.000Z</time>
      </trkpt>
      <trkpt lat="42.98958" lon="-0.00912">
        <ele>1629</ele>
        <time>2017-01-18T10:47:01.000Z</time>
      </trkpt>
      <trkpt lat="42.98958" lon="-0.00913">
        <ele>1629</ele>
        <time>2017-01-18T10:47:02.000Z</time>
      </trkpt>
      <trkpt lat="42.98958" lon="-0.00914">
        <ele>1629</ele>
        <time>2017-01-18T10:47:03.000Z</time>
      </trkpt>
      <trkpt lat="42.98958" lon="-0.00914">
        <ele>1629</ele>
        <time>2017-01-18T10:47:04.000Z</time>
      </trkpt>
      <trkpt lat="42.98958" lon="-0.00915">
        <ele>1629</ele>
        <time>2017-01-18T10:47:05.000Z</time>
      </trkpt>
      <trkpt lat="42.98958" lon="-0.00915">
        <ele>1629</ele>
        <time>2017-01-18T10:47:06.000Z</time>
      </trkpt>
      <trkpt lat="42.98958" lon="-0.00916">
        <ele>1629</ele>
        <time>2017-01-18T10:47:07.000Z</time>
      </trkpt>
      <trkpt lat="42.98958" lon="-0.00917">
        <ele>1629</ele>
        <time>2017-01-18T10:47:08.000Z</time>
      </trkpt>
      <trkpt lat="42.98958" lon="-0.00917">
        <ele>1629</ele>
        <time>2017-01-18T10:47:09.000Z</time>
      </trkpt>
      <trkpt lat="42.98958" lon="-0.00918">
        <ele>1630</ele>
        <time>2017-01-18T10:47:10.000Z</time>
      </trkpt>
      <trkpt lat="42.98958" lon="-0.00918">
        <ele>1630</ele>
        <time>2017-01-18T10:47:11.000Z</time>
      </trkpt>
      <trkpt lat="42.98958" lon="-0.00919">
        <ele>1630</ele>
        <time>2017-01-18T10:47:12.000Z</time>
      </trkpt>
      <trkpt lat="42.98958" lon="-0.0092">
        <ele>1630</ele>
        <time>2017-01-18T10:47:13.000Z</time>
      </trkpt>
      <trkpt lat="42.98958" lon="-0.0092">
        <ele>1630</ele>
        <time>2017-01-18T10:47:14.000Z</time>
      </trkpt>
      <trkpt lat="42.98958" lon="-0.00921">
        <ele>1630</ele>
        <time>2017-01-18T10:47:15.000Z</time>
      </trkpt>
      <trkpt lat="42.98959" lon="-0.00921">
        <ele>1630</ele>
        <time>2017-01-18T10:47:16.000Z</time>
      </trkpt>
      <trkpt lat="42.98959" lon="-0.00922">
        <ele>1631</ele>
        <time>2017-01-18T10:47:17.000Z</time>
      </trkpt>
      <trkpt lat="42.98959" lon="-0.00922">
        <ele>1631</ele>
        <time>2017-01-18T10:47:18.000Z</time>
      </trkpt>
      <trkpt lat="42.9896" lon="-0.00923">
        <ele>1631</ele>
        <time>2017-01-18T10:47:19.000Z</time>
      </trkpt>
      <trkpt lat="42.9896" lon="-0.00923">
        <ele>1631</ele>
        <time>2017-01-18T10:47:20.000Z</time>
      </trkpt>
      <trkpt lat="42.9896" lon="-0.00923">
        <ele>1631</ele>
        <time>2017-01-18T10:47:21.000Z</time>
      </trkpt>
      <trkpt lat="42.9896" lon="-0.00924">
        <ele>1631</ele>
        <time>2017-01-18T10:47:22.000Z</time>
      </trkpt>
      <trkpt lat="42.98961" lon="-0.00924">
        <ele>1631</ele>
        <time>2017-01-18T10:47:23.000Z</time>
      </trkpt>
      <trkpt lat="42.98961" lon="-0.00925">
        <ele>1631</ele>
        <time>2017-01-18T10:47:24.000Z</time>
      </trkpt>
      <trkpt lat="42.98961" lon="-0.00925">
        <ele>1631</ele>
        <time>2017-01-18T10:47:25.000Z</time>
      </trkpt>
      <trkpt lat="42.98962" lon="-0.00925">
        <ele>1631</ele>
        <time>2017-01-18T10:47:26.000Z</time>
      </trkpt>
      <trkpt lat="42.98962" lon="-0.00926">
        <ele>1631</ele>
        <time>2017-01-18T10:47:27.000Z</time>
      </trkpt>
      <trkpt lat="42.98962" lon="-0.00926">
        <ele>1631</ele>
        <time>2017-01-18T10:47:28.000Z</time>
      </trkpt>
      <trkpt lat="42.98963" lon="-0.00926">
        <ele>1632</ele>
        <time>2017-01-18T10:47:29.000Z</time>
      </trkpt>
      <trkpt lat="42.98963" lon="-0.00926">
        <ele>1632</ele>
        <time>2017-01-18T10:47:30.000Z</time>
      </trkpt>
      <trkpt lat="42.98963" lon="-0.00927">
        <ele>1632</ele>
        <time>2017-01-18T10:47:31.000Z</time>
      </trkpt>
      <trkpt lat="42.98963" lon="-0.00927">
        <ele>1632</ele>
        <time>2017-01-18T10:47:32.000Z</time>
      </trkpt>
      <trkpt lat="42.98964" lon="-0.00927">
        <ele>1632</ele>
        <time>2017-01-18T10:47:33.000Z</time>
      </trkpt>
      <trkpt lat="42.98964" lon="-0.00928">
        <ele>1632</ele>
        <time>2017-01-18T10:47:34.000Z</time>
      </trkpt>
      <trkpt lat="42.98964" lon="-0.00928">
        <ele>1632</ele>
        <time>2017-01-18T10:47:35.000Z</time>
      </trkpt>
      <trkpt lat="42.98965" lon="-0.00928">
        <ele>1632</ele>
        <time>2017-01-18T10:47:36.000Z</time>
      </trkpt>
      <trkpt lat="42.98965" lon="-0.00929">
        <ele>1632</ele>
        <time>2017-01-18T10:47:37.000Z</time>
      </trkpt>
      <trkpt lat="42.98965" lon="-0.00929">
        <ele>1632</ele>
        <time>2017-01-18T10:47:38.000Z</time>
      </trkpt>
      <trkpt lat="42.98965" lon="-0.00929">
        <ele>1632</ele>
        <time>2017-01-18T10:47:39.000Z</time>
      </trkpt>
      <trkpt lat="42.98966" lon="-0.0093">
        <ele>1632</ele>
        <time>2017-01-18T10:47:40.000Z</time>
      </trkpt>
      <trkpt lat="42.98966" lon="-0.0093">
        <ele>1632</ele>
        <time>2017-01-18T10:47:41.000Z</time>
      </trkpt>
      <trkpt lat="42.98966" lon="-0.0093">
        <ele>1632</ele>
        <time>2017-01-18T10:47:42.000Z</time>
      </trkpt>
      <trkpt lat="42.98966" lon="-0.0093">
        <ele>1632</ele>
        <time>2017-01-18T10:47:43.000Z</time>
      </trkpt>
      <trkpt lat="42.98966" lon="-0.0093">
        <ele>1632</ele>
        <time>2017-01-18T10:47:44.000Z</time>
      </trkpt>
      <trkpt lat="42.98966" lon="-0.0093">
        <ele>1632</ele>
        <time>2017-01-18T10:47:45.000Z</time>
      </trkpt>
      <trkpt lat="42.98966" lon="-0.0093">
        <ele>1632</ele>
        <time>2017-01-18T10:47:46.000Z</time>
      </trkpt>
      <trkpt lat="42.98966" lon="-0.0093">
        <ele>1632</ele>
        <time>2017-01-18T10:47:47.000Z</time>
      </trkpt>
      <trkpt lat="42.98967" lon="-0.0093">
        <ele>1632</ele>
        <time>2017-01-18T10:47:48.000Z</time>
      </trkpt>
      <trkpt lat="42.98968" lon="-0.00932">
        <ele>1632</ele>
        <time>2017-01-18T10:47:49.008Z</time>
      </trkpt>
      <trkpt lat="42.98968" lon="-0.00932">
        <ele>1632</ele>
        <time>2017-01-18T10:47:50.008Z</time>
      </trkpt>
      <trkpt lat="42.98968" lon="-0.00933">
        <ele>1633</ele>
        <time>2017-01-18T10:47:51.008Z</time>
      </trkpt>
      <trkpt lat="42.98968" lon="-0.00933">
        <ele>1633</ele>
        <time>2017-01-18T10:47:52.008Z</time>
      </trkpt>
      <trkpt lat="42.98969" lon="-0.00933">
        <ele>1633</ele>
        <time>2017-01-18T10:47:53.008Z</time>
      </trkpt>
      <trkpt lat="42.98969" lon="-0.00934">
        <ele>1633</ele>
        <time>2017-01-18T10:47:54.008Z</time>
      </trkpt>
      <trkpt lat="42.98969" lon="-0.00934">
        <ele>1634</ele>
        <time>2017-01-18T10:47:55.008Z</time>
      </trkpt>
      <trkpt lat="42.9897" lon="-0.00934">
        <ele>1634</ele>
        <time>2017-01-18T10:47:56.008Z</time>
      </trkpt>
      <trkpt lat="42.9897" lon="-0.00935">
        <ele>1634</ele>
        <time>2017-01-18T10:47:57.008Z</time>
      </trkpt>
      <trkpt lat="42.9897" lon="-0.00935">
        <ele>1634</ele>
        <time>2017-01-18T10:47:58.008Z</time>
      </trkpt>
      <trkpt lat="42.98971" lon="-0.00935">
        <ele>1634</ele>
        <time>2017-01-18T10:47:59.008Z</time>
      </trkpt>
      <trkpt lat="42.98971" lon="-0.00936">
        <ele>1634</ele>
        <time>2017-01-18T10:48:00.008Z</time>
      </trkpt>
      <trkpt lat="42.98971" lon="-0.00936">
        <ele>1634</ele>
        <time>2017-01-18T10:48:01.008Z</time>
      </trkpt>
      <trkpt lat="42.98972" lon="-0.00936">
        <ele>1634</ele>
        <time>2017-01-18T10:48:02.008Z</time>
      </trkpt>
      <trkpt lat="42.98972" lon="-0.00936">
        <ele>1634</ele>
        <time>2017-01-18T10:48:03.008Z</time>
      </trkpt>
      <trkpt lat="42.98972" lon="-0.00937">
        <ele>1634</ele>
        <time>2017-01-18T10:48:04.008Z</time>
      </trkpt>
      <trkpt lat="42.98973" lon="-0.00937">
        <ele>1635</ele>
        <time>2017-01-18T10:48:05.008Z</time>
      </trkpt>
      <trkpt lat="42.98973" lon="-0.00937">
        <ele>1635</ele>
        <time>2017-01-18T10:48:06.008Z</time>
      </trkpt>
      <trkpt lat="42.98973" lon="-0.00937">
        <ele>1635</ele>
        <time>2017-01-18T10:48:07.008Z</time>
      </trkpt>
      <trkpt lat="42.98974" lon="-0.00938">
        <ele>1635</ele>
        <time>2017-01-18T10:48:08.008Z</time>
      </trkpt>
      <trkpt lat="42.98974" lon="-0.00938">
        <ele>1635</ele>
        <time>2017-01-18T10:48:09.008Z</time>
      </trkpt>
      <trkpt lat="42.98974" lon="-0.00938">
        <ele>1636</ele>
        <time>2017-01-18T10:48:10.008Z</time>
      </trkpt>
      <trkpt lat="42.98975" lon="-0.00938">
        <ele>1636</ele>
        <time>2017-01-18T10:48:11.008Z</time>
      </trkpt>
      <trkpt lat="42.98975" lon="-0.00939">
        <ele>1636</ele>
        <time>2017-01-18T10:48:12.008Z</time>
      </trkpt>
      <trkpt lat="42.98975" lon="-0.00939">
        <ele>1636</ele>
        <time>2017-01-18T10:48:13.008Z</time>
      </trkpt>
      <trkpt lat="42.98976" lon="-0.00939">
        <ele>1636</ele>
        <time>2017-01-18T10:48:14.008Z</time>
      </trkpt>
      <trkpt lat="42.98976" lon="-0.00939">
        <ele>1636</ele>
        <time>2017-01-18T10:48:15.008Z</time>
      </trkpt>
      <trkpt lat="42.98976" lon="-0.0094">
        <ele>1636</ele>
        <time>2017-01-18T10:48:16.008Z</time>
      </trkpt>
      <trkpt lat="42.98977" lon="-0.0094">
        <ele>1637</ele>
        <time>2017-01-18T10:48:17.008Z</time>
      </trkpt>
      <trkpt lat="42.98977" lon="-0.0094">
        <ele>1637</ele>
        <time>2017-01-18T10:48:18.008Z</time>
      </trkpt>
      <trkpt lat="42.98978" lon="-0.0094">
        <ele>1637</ele>
        <time>2017-01-18T10:48:19.008Z</time>
      </trkpt>
      <trkpt lat="42.98978" lon="-0.00941">
        <ele>1637</ele>
        <time>2017-01-18T10:48:20.008Z</time>
      </trkpt>
      <trkpt lat="42.98978" lon="-0.00941">
        <ele>1637</ele>
        <time>2017-01-18T10:48:21.008Z</time>
      </trkpt>
      <trkpt lat="42.98979" lon="-0.00941">
        <ele>1637</ele>
        <time>2017-01-18T10:48:22.008Z</time>
      </trkpt>
      <trkpt lat="42.98979" lon="-0.00941">
        <ele>1637</ele>
        <time>2017-01-18T10:48:23.008Z</time>
      </trkpt>
      <trkpt lat="42.9898" lon="-0.00941">
        <ele>1637</ele>
        <time>2017-01-18T10:48:24.008Z</time>
      </trkpt>
      <trkpt lat="42.9898" lon="-0.00941">
        <ele>1637</ele>
        <time>2017-01-18T10:48:25.008Z</time>
      </trkpt>
      <trkpt lat="42.98981" lon="-0.00942">
        <ele>1637</ele>
        <time>2017-01-18T10:48:26.008Z</time>
      </trkpt>
      <trkpt lat="42.98981" lon="-0.00942">
        <ele>1637</ele>
        <time>2017-01-18T10:48:27.008Z</time>
      </trkpt>
      <trkpt lat="42.98982" lon="-0.00942">
        <ele>1637</ele>
        <time>2017-01-18T10:48:28.008Z</time>
      </trkpt>
      <trkpt lat="42.98982" lon="-0.00942">
        <ele>1637</ele>
        <time>2017-01-18T10:48:29.008Z</time>
      </trkpt>
      <trkpt lat="42.98982" lon="-0.00942">
        <ele>1637</ele>
        <time>2017-01-18T10:48:30.008Z</time>
      </trkpt>
      <trkpt lat="42.98983" lon="-0.00943">
        <ele>1638</ele>
        <time>2017-01-18T10:48:31.008Z</time>
      </trkpt>
      <trkpt lat="42.98983" lon="-0.00943">
        <ele>1638</ele>
        <time>2017-01-18T10:48:32.008Z</time>
      </trkpt>
      <trkpt lat="42.98984" lon="-0.00943">
        <ele>1638</ele>
        <time>2017-01-18T10:48:33.008Z</time>
      </trkpt>
      <trkpt lat="42.98984" lon="-0.00944">
        <ele>1638</ele>
        <time>2017-01-18T10:48:34.008Z</time>
      </trkpt>
      <trkpt lat="42.98984" lon="-0.00944">
        <ele>1638</ele>
        <time>2017-01-18T10:48:35.008Z</time>
      </trkpt>
      <trkpt lat="42.98985" lon="-0.00944">
        <ele>1638</ele>
        <time>2017-01-18T10:48:36.008Z</time>
      </trkpt>
      <trkpt lat="42.98985" lon="-0.00945">
        <ele>1638</ele>
        <time>2017-01-18T10:48:37.008Z</time>
      </trkpt>
      <trkpt lat="42.98986" lon="-0.00945">
        <ele>1638</ele>
        <time>2017-01-18T10:48:38.008Z</time>
      </trkpt>
      <trkpt lat="42.98986" lon="-0.00945">
        <ele>1638</ele>
        <time>2017-01-18T10:48:39.008Z</time>
      </trkpt>
      <trkpt lat="42.98986" lon="-0.00945">
        <ele>1638</ele>
        <time>2017-01-18T10:48:40.008Z</time>
      </trkpt>
      <trkpt lat="42.98987" lon="-0.00946">
        <ele>1638</ele>
        <time>2017-01-18T10:48:41.008Z</time>
      </trkpt>
      <trkpt lat="42.98987" lon="-0.00946">
        <ele>1638</ele>
        <time>2017-01-18T10:48:42.008Z</time>
      </trkpt>
      <trkpt lat="42.98988" lon="-0.00946">
        <ele>1638</ele>
        <time>2017-01-18T10:48:43.008Z</time>
      </trkpt>
      <trkpt lat="42.98988" lon="-0.00947">
        <ele>1638</ele>
        <time>2017-01-18T10:48:44.008Z</time>
      </trkpt>
      <trkpt lat="42.98989" lon="-0.00947">
        <ele>1638</ele>
        <time>2017-01-18T10:48:45.008Z</time>
      </trkpt>
      <trkpt lat="42.98989" lon="-0.00947">
        <ele>1638</ele>
        <time>2017-01-18T10:48:46.008Z</time>
      </trkpt>
      <trkpt lat="42.9899" lon="-0.00948">
        <ele>1638</ele>
        <time>2017-01-18T10:48:47.008Z</time>
      </trkpt>
      <trkpt lat="42.9899" lon="-0.00948">
        <ele>1638</ele>
        <time>2017-01-18T10:48:48.008Z</time>
      </trkpt>
      <trkpt lat="42.98991" lon="-0.00948">
        <ele>1639</ele>
        <time>2017-01-18T10:48:49.008Z</time>
      </trkpt>
      <trkpt lat="42.98991" lon="-0.00949">
        <ele>1639</ele>
        <time>2017-01-18T10:48:50.008Z</time>
      </trkpt>
      <trkpt lat="42.98992" lon="-0.00949">
        <ele>1639</ele>
        <time>2017-01-18T10:48:51.008Z</time>
      </trkpt>
      <trkpt lat="42.98992" lon="-0.0095">
        <ele>1639</ele>
        <time>2017-01-18T10:48:52.008Z</time>
      </trkpt>
      <trkpt lat="42.98993" lon="-0.0095">
        <ele>1639</ele>
        <time>2017-01-18T10:48:53.008Z</time>
      </trkpt>
      <trkpt lat="42.98993" lon="-0.00951">
        <ele>1639</ele>
        <time>2017-01-18T10:48:54.008Z</time>
      </trkpt>
      <trkpt lat="42.98994" lon="-0.00951">
        <ele>1639</ele>
        <time>2017-01-18T10:48:55.008Z</time>
      </trkpt>
      <trkpt lat="42.98994" lon="-0.00952">
        <ele>1640</ele>
        <time>2017-01-18T10:48:56.008Z</time>
      </trkpt>
      <trkpt lat="42.98995" lon="-0.00952">
        <ele>1639</ele>
        <time>2017-01-18T10:48:57.008Z</time>
      </trkpt>
      <trkpt lat="42.98995" lon="-0.00952">
        <ele>1640</ele>
        <time>2017-01-18T10:48:58.008Z</time>
      </trkpt>
      <trkpt lat="42.98996" lon="-0.00953">
        <ele>1640</ele>
        <time>2017-01-18T10:48:59.008Z</time>
      </trkpt>
      <trkpt lat="42.98996" lon="-0.00953">
        <ele>1640</ele>
        <time>2017-01-18T10:49:00.008Z</time>
      </trkpt>
      <trkpt lat="42.98997" lon="-0.00954">
        <ele>1640</ele>
        <time>2017-01-18T10:49:01.008Z</time>
      </trkpt>
      <trkpt lat="42.98997" lon="-0.00954">
        <ele>1640</ele>
        <time>2017-01-18T10:49:02.008Z</time>
      </trkpt>
      <trkpt lat="42.98998" lon="-0.00955">
        <ele>1640</ele>
        <time>2017-01-18T10:49:03.008Z</time>
      </trkpt>
      <trkpt lat="42.98999" lon="-0.00955">
        <ele>1640</ele>
        <time>2017-01-18T10:49:04.008Z</time>
      </trkpt>
      <trkpt lat="42.98999" lon="-0.00956">
        <ele>1640</ele>
        <time>2017-01-18T10:49:05.008Z</time>
      </trkpt>
      <trkpt lat="42.99" lon="-0.00956">
        <ele>1640</ele>
        <time>2017-01-18T10:49:06.008Z</time>
      </trkpt>
      <trkpt lat="42.99" lon="-0.00957">
        <ele>1640</ele>
        <time>2017-01-18T10:49:07.008Z</time>
      </trkpt>
      <trkpt lat="42.99001" lon="-0.00957">
        <ele>1640</ele>
        <time>2017-01-18T10:49:08.008Z</time>
      </trkpt>
      <trkpt lat="42.99001" lon="-0.00958">
        <ele>1640</ele>
        <time>2017-01-18T10:49:09.008Z</time>
      </trkpt>
      <trkpt lat="42.99002" lon="-0.00958">
        <ele>1640</ele>
        <time>2017-01-18T10:49:10.008Z</time>
      </trkpt>
      <trkpt lat="42.99002" lon="-0.00959">
        <ele>1641</ele>
        <time>2017-01-18T10:49:11.008Z</time>
      </trkpt>
      <trkpt lat="42.99003" lon="-0.00959">
        <ele>1641</ele>
        <time>2017-01-18T10:49:12.008Z</time>
      </trkpt>
      <trkpt lat="42.99004" lon="-0.0096">
        <ele>1641</ele>
        <time>2017-01-18T10:49:13.008Z</time>
      </trkpt>
      <trkpt lat="42.99004" lon="-0.0096">
        <ele>1641</ele>
        <time>2017-01-18T10:49:14.008Z</time>
      </trkpt>
      <trkpt lat="42.99005" lon="-0.00961">
        <ele>1641</ele>
        <time>2017-01-18T10:49:15.008Z</time>
      </trkpt>
      <trkpt lat="42.99005" lon="-0.00962">
        <ele>1642</ele>
        <time>2017-01-18T10:49:16.008Z</time>
      </trkpt>
      <trkpt lat="42.99006" lon="-0.00962">
        <ele>1642</ele>
        <time>2017-01-18T10:49:17.008Z</time>
      </trkpt>
      <trkpt lat="42.99006" lon="-0.00963">
        <ele>1642</ele>
        <time>2017-01-18T10:49:18.008Z</time>
      </trkpt>
      <trkpt lat="42.99007" lon="-0.00963">
        <ele>1642</ele>
        <time>2017-01-18T10:49:19.008Z</time>
      </trkpt>
      <trkpt lat="42.99007" lon="-0.00964">
        <ele>1642</ele>
        <time>2017-01-18T10:49:20.008Z</time>
      </trkpt>
      <trkpt lat="42.99008" lon="-0.00964">
        <ele>1642</ele>
        <time>2017-01-18T10:49:21.008Z</time>
      </trkpt>
      <trkpt lat="42.99009" lon="-0.00965">
        <ele>1642</ele>
        <time>2017-01-18T10:49:22.008Z</time>
      </trkpt>
      <trkpt lat="42.99009" lon="-0.00965">
        <ele>1642</ele>
        <time>2017-01-18T10:49:23.008Z</time>
      </trkpt>
      <trkpt lat="42.9901" lon="-0.00966">
        <ele>1642</ele>
        <time>2017-01-18T10:49:24.008Z</time>
      </trkpt>
      <trkpt lat="42.99011" lon="-0.00966">
        <ele>1642</ele>
        <time>2017-01-18T10:49:25.008Z</time>
      </trkpt>
      <trkpt lat="42.99011" lon="-0.00967">
        <ele>1642</ele>
        <time>2017-01-18T10:49:26.008Z</time>
      </trkpt>
      <trkpt lat="42.99012" lon="-0.00967">
        <ele>1642</ele>
        <time>2017-01-18T10:49:27.008Z</time>
      </trkpt>
      <trkpt lat="42.99012" lon="-0.00968">
        <ele>1642</ele>
        <time>2017-01-18T10:49:28.008Z</time>
      </trkpt>
      <trkpt lat="42.99013" lon="-0.00968">
        <ele>1642</ele>
        <time>2017-01-18T10:49:29.008Z</time>
      </trkpt>
      <trkpt lat="42.99014" lon="-0.00969">
        <ele>1642</ele>
        <time>2017-01-18T10:49:30.008Z</time>
      </trkpt>
      <trkpt lat="42.99014" lon="-0.00969">
        <ele>1642</ele>
        <time>2017-01-18T10:49:31.008Z</time>
      </trkpt>
      <trkpt lat="42.99015" lon="-0.0097">
        <ele>1642</ele>
        <time>2017-01-18T10:49:32.008Z</time>
      </trkpt>
      <trkpt lat="42.99015" lon="-0.00971">
        <ele>1642</ele>
        <time>2017-01-18T10:49:33.008Z</time>
      </trkpt>
      <trkpt lat="42.99016" lon="-0.00971">
        <ele>1642</ele>
        <time>2017-01-18T10:49:34.008Z</time>
      </trkpt>
      <trkpt lat="42.99017" lon="-0.00972">
        <ele>1642</ele>
        <time>2017-01-18T10:49:35.008Z</time>
      </trkpt>
      <trkpt lat="42.99017" lon="-0.00972">
        <ele>1642</ele>
        <time>2017-01-18T10:49:36.008Z</time>
      </trkpt>
      <trkpt lat="42.99018" lon="-0.00973">
        <ele>1642</ele>
        <time>2017-01-18T10:49:37.008Z</time>
      </trkpt>
      <trkpt lat="42.99019" lon="-0.00973">
        <ele>1642</ele>
        <time>2017-01-18T10:49:38.008Z</time>
      </trkpt>
      <trkpt lat="42.99019" lon="-0.00974">
        <ele>1642</ele>
        <time>2017-01-18T10:49:39.008Z</time>
      </trkpt>
      <trkpt lat="42.9902" lon="-0.00974">
        <ele>1642</ele>
        <time>2017-01-18T10:49:40.008Z</time>
      </trkpt>
      <trkpt lat="42.9902" lon="-0.00975">
        <ele>1642</ele>
        <time>2017-01-18T10:49:41.008Z</time>
      </trkpt>
      <trkpt lat="42.99021" lon="-0.00976">
        <ele>1642</ele>
        <time>2017-01-18T10:49:42.008Z</time>
      </trkpt>
      <trkpt lat="42.99021" lon="-0.00976">
        <ele>1642</ele>
        <time>2017-01-18T10:49:43.008Z</time>
      </trkpt>
      <trkpt lat="42.99022" lon="-0.00977">
        <ele>1642</ele>
        <time>2017-01-18T10:49:44.008Z</time>
      </trkpt>
      <trkpt lat="42.99023" lon="-0.00977">
        <ele>1642</ele>
        <time>2017-01-18T10:49:45.008Z</time>
      </trkpt>
      <trkpt lat="42.99023" lon="-0.00978">
        <ele>1643</ele>
        <time>2017-01-18T10:49:46.008Z</time>
      </trkpt>
      <trkpt lat="42.99024" lon="-0.00979">
        <ele>1642</ele>
        <time>2017-01-18T10:49:47.008Z</time>
      </trkpt>
      <trkpt lat="42.99024" lon="-0.00979">
        <ele>1642</ele>
        <time>2017-01-18T10:49:48.008Z</time>
      </trkpt>
      <trkpt lat="42.99025" lon="-0.0098">
        <ele>1642</ele>
        <time>2017-01-18T10:49:49.008Z</time>
      </trkpt>
      <trkpt lat="42.99026" lon="-0.0098">
        <ele>1642</ele>
        <time>2017-01-18T10:49:50.008Z</time>
      </trkpt>
      <trkpt lat="42.99026" lon="-0.00981">
        <ele>1642</ele>
        <time>2017-01-18T10:49:51.008Z</time>
      </trkpt>
      <trkpt lat="42.99027" lon="-0.00981">
        <ele>1642</ele>
        <time>2017-01-18T10:49:52.008Z</time>
      </trkpt>
      <trkpt lat="42.99027" lon="-0.00982">
        <ele>1643</ele>
        <time>2017-01-18T10:49:53.008Z</time>
      </trkpt>
      <trkpt lat="42.99028" lon="-0.00982">
        <ele>1643</ele>
        <time>2017-01-18T10:49:54.008Z</time>
      </trkpt>
      <trkpt lat="42.99029" lon="-0.00983">
        <ele>1643</ele>
        <time>2017-01-18T10:49:55.008Z</time>
      </trkpt>
      <trkpt lat="42.99029" lon="-0.00983">
        <ele>1643</ele>
        <time>2017-01-18T10:49:56.008Z</time>
      </trkpt>
      <trkpt lat="42.9903" lon="-0.00984">
        <ele>1643</ele>
        <time>2017-01-18T10:49:57.008Z</time>
      </trkpt>
      <trkpt lat="42.99031" lon="-0.00984">
        <ele>1643</ele>
        <time>2017-01-18T10:49:58.008Z</time>
      </trkpt>
      <trkpt lat="42.99031" lon="-0.00984">
        <ele>1643</ele>
        <time>2017-01-18T10:49:59.008Z</time>
      </trkpt>
      <trkpt lat="42.99032" lon="-0.00985">
        <ele>1644</ele>
        <time>2017-01-18T10:50:00.008Z</time>
      </trkpt>
      <trkpt lat="42.99032" lon="-0.00985">
        <ele>1644</ele>
        <time>2017-01-18T10:50:01.008Z</time>
      </trkpt>
      <trkpt lat="42.99033" lon="-0.00986">
        <ele>1644</ele>
        <time>2017-01-18T10:50:02.008Z</time>
      </trkpt>
      <trkpt lat="42.99034" lon="-0.00986">
        <ele>1644</ele>
        <time>2017-01-18T10:50:03.008Z</time>
      </trkpt>
      <trkpt lat="42.99034" lon="-0.00987">
        <ele>1644</ele>
        <time>2017-01-18T10:50:04.008Z</time>
      </trkpt>
      <trkpt lat="42.99035" lon="-0.00987">
        <ele>1644</ele>
        <time>2017-01-18T10:50:05.008Z</time>
      </trkpt>
      <trkpt lat="42.99035" lon="-0.00988">
        <ele>1644</ele>
        <time>2017-01-18T10:50:06.008Z</time>
      </trkpt>
      <trkpt lat="42.99036" lon="-0.00988">
        <ele>1644</ele>
        <time>2017-01-18T10:50:07.008Z</time>
      </trkpt>
      <trkpt lat="42.99036" lon="-0.00989">
        <ele>1644</ele>
        <time>2017-01-18T10:50:08.008Z</time>
      </trkpt>
      <trkpt lat="42.99037" lon="-0.00989">
        <ele>1644</ele>
        <time>2017-01-18T10:50:09.008Z</time>
      </trkpt>
      <trkpt lat="42.99038" lon="-0.0099">
        <ele>1644</ele>
        <time>2017-01-18T10:50:10.008Z</time>
      </trkpt>
      <trkpt lat="42.99038" lon="-0.0099">
        <ele>1645</ele>
        <time>2017-01-18T10:50:11.008Z</time>
      </trkpt>
      <trkpt lat="42.99039" lon="-0.00991">
        <ele>1645</ele>
        <time>2017-01-18T10:50:12.008Z</time>
      </trkpt>
      <trkpt lat="42.99039" lon="-0.00991">
        <ele>1645</ele>
        <time>2017-01-18T10:50:13.008Z</time>
      </trkpt>
      <trkpt lat="42.9904" lon="-0.00991">
        <ele>1645</ele>
        <time>2017-01-18T10:50:14.008Z</time>
      </trkpt>
      <trkpt lat="42.99041" lon="-0.00992">
        <ele>1645</ele>
        <time>2017-01-18T10:50:15.008Z</time>
      </trkpt>
      <trkpt lat="42.99041" lon="-0.00992">
        <ele>1645</ele>
        <time>2017-01-18T10:50:16.008Z</time>
      </trkpt>
      <trkpt lat="42.99042" lon="-0.00993">
        <ele>1645</ele>
        <time>2017-01-18T10:50:17.008Z</time>
      </trkpt>
      <trkpt lat="42.99042" lon="-0.00993">
        <ele>1645</ele>
        <time>2017-01-18T10:50:18.008Z</time>
      </trkpt>
      <trkpt lat="42.99043" lon="-0.00994">
        <ele>1646</ele>
        <time>2017-01-18T10:50:19.008Z</time>
      </trkpt>
      <trkpt lat="42.99043" lon="-0.00994">
        <ele>1646</ele>
        <time>2017-01-18T10:50:20.008Z</time>
      </trkpt>
      <trkpt lat="42.99044" lon="-0.00995">
        <ele>1646</ele>
        <time>2017-01-18T10:50:21.008Z</time>
      </trkpt>
      <trkpt lat="42.99044" lon="-0.00995">
        <ele>1646</ele>
        <time>2017-01-18T10:50:22.008Z</time>
      </trkpt>
      <trkpt lat="42.99045" lon="-0.00996">
        <ele>1646</ele>
        <time>2017-01-18T10:50:23.008Z</time>
      </trkpt>
      <trkpt lat="42.99045" lon="-0.00996">
        <ele>1646</ele>
        <time>2017-01-18T10:50:24.008Z</time>
      </trkpt>
      <trkpt lat="42.99046" lon="-0.00997">
        <ele>1647</ele>
        <time>2017-01-18T10:50:25.008Z</time>
      </trkpt>
      <trkpt lat="42.99046" lon="-0.00997">
        <ele>1646</ele>
        <time>2017-01-18T10:50:26.008Z</time>
      </trkpt>
      <trkpt lat="42.99047" lon="-0.00998">
        <ele>1646</ele>
        <time>2017-01-18T10:50:27.008Z</time>
      </trkpt>
      <trkpt lat="42.99047" lon="-0.00998">
        <ele>1647</ele>
        <time>2017-01-18T10:50:28.008Z</time>
      </trkpt>
      <trkpt lat="42.99048" lon="-0.00998">
        <ele>1647</ele>
        <time>2017-01-18T10:50:29.008Z</time>
      </trkpt>
      <trkpt lat="42.99048" lon="-0.00999">
        <ele>1647</ele>
        <time>2017-01-18T10:50:30.008Z</time>
      </trkpt>
      <trkpt lat="42.99049" lon="-0.00999">
        <ele>1646</ele>
        <time>2017-01-18T10:50:31.008Z</time>
      </trkpt>
      <trkpt lat="42.99049" lon="-0.00999">
        <ele>1646</ele>
        <time>2017-01-18T10:50:32.008Z</time>
      </trkpt>
      <trkpt lat="42.99049" lon="-0.00999">
        <ele>1646</ele>
        <time>2017-01-18T10:50:33.008Z</time>
      </trkpt>
      <trkpt lat="42.99049" lon="-0.00998">
        <ele>1646</ele>
        <time>2017-01-18T10:50:34.008Z</time>
      </trkpt>
      <trkpt lat="42.99049" lon="-0.00998">
        <ele>1646</ele>
        <time>2017-01-18T10:50:35.008Z</time>
      </trkpt>
      <trkpt lat="42.99049" lon="-0.00998">
        <ele>1645</ele>
        <time>2017-01-18T10:50:36.008Z</time>
      </trkpt>
      <trkpt lat="42.99051" lon="-0.01">
        <ele>1645</ele>
        <time>2017-01-18T10:50:37.016Z</time>
      </trkpt>
      <trkpt lat="42.99051" lon="-0.01">
        <ele>1645</ele>
        <time>2017-01-18T10:50:38.016Z</time>
      </trkpt>
      <trkpt lat="42.99052" lon="-0.01">
        <ele>1645</ele>
        <time>2017-01-18T10:50:39.016Z</time>
      </trkpt>
      <trkpt lat="42.99052" lon="-0.01">
        <ele>1645</ele>
        <time>2017-01-18T10:50:40.016Z</time>
      </trkpt>
      <trkpt lat="42.99052" lon="-0.01">
        <ele>1645</ele>
        <time>2017-01-18T10:50:41.016Z</time>
      </trkpt>
      <trkpt lat="42.99052" lon="-0.01">
        <ele>1645</ele>
        <time>2017-01-18T10:50:42.016Z</time>
      </trkpt>
      <trkpt lat="42.99052" lon="-0.01">
        <ele>1645</ele>
        <time>2017-01-18T10:50:43.016Z</time>
      </trkpt>
      <trkpt lat="42.99052" lon="-0.01">
        <ele>1645</ele>
        <time>2017-01-18T10:50:44.016Z</time>
      </trkpt>
      <trkpt lat="42.99052" lon="-0.01">
        <ele>1645</ele>
        <time>2017-01-18T10:50:45.016Z</time>
      </trkpt>
      <trkpt lat="42.99052" lon="-0.01003">
        <ele>1646</ele>
        <time>2017-01-18T10:50:46.024Z</time>
      </trkpt>
      <trkpt lat="42.99052" lon="-0.01003">
        <ele>1646</ele>
        <time>2017-01-18T10:50:47.024Z</time>
      </trkpt>
      <trkpt lat="42.99053" lon="-0.01004">
        <ele>1646</ele>
        <time>2017-01-18T10:50:48.024Z</time>
      </trkpt>
      <trkpt lat="42.99053" lon="-0.01004">
        <ele>1646</ele>
        <time>2017-01-18T10:50:49.024Z</time>
      </trkpt>
      <trkpt lat="42.99053" lon="-0.01005">
        <ele>1646</ele>
        <time>2017-01-18T10:50:50.024Z</time>
      </trkpt>
      <trkpt lat="42.99054" lon="-0.01005">
        <ele>1646</ele>
        <time>2017-01-18T10:50:51.024Z</time>
      </trkpt>
      <trkpt lat="42.99054" lon="-0.01005">
        <ele>1646</ele>
        <time>2017-01-18T10:50:52.024Z</time>
      </trkpt>
      <trkpt lat="42.99054" lon="-0.01006">
        <ele>1646</ele>
        <time>2017-01-18T10:50:53.024Z</time>
      </trkpt>
      <trkpt lat="42.99054" lon="-0.01006">
        <ele>1646</ele>
        <time>2017-01-18T10:50:54.024Z</time>
      </trkpt>
      <trkpt lat="42.99055" lon="-0.01006">
        <ele>1646</ele>
        <time>2017-01-18T10:50:55.024Z</time>
      </trkpt>
      <trkpt lat="42.99055" lon="-0.01007">
        <ele>1647</ele>
        <time>2017-01-18T10:50:56.024Z</time>
      </trkpt>
      <trkpt lat="42.99056" lon="-0.01008">
        <ele>1647</ele>
        <time>2017-01-18T10:50:57.024Z</time>
      </trkpt>
      <trkpt lat="42.99056" lon="-0.01008">
        <ele>1647</ele>
        <time>2017-01-18T10:50:58.024Z</time>
      </trkpt>
      <trkpt lat="42.99056" lon="-0.01009">
        <ele>1647</ele>
        <time>2017-01-18T10:50:59.024Z</time>
      </trkpt>
      <trkpt lat="42.99057" lon="-0.0101">
        <ele>1647</ele>
        <time>2017-01-18T10:51:00.024Z</time>
      </trkpt>
      <trkpt lat="42.99057" lon="-0.0101">
        <ele>1647</ele>
        <time>2017-01-18T10:51:01.024Z</time>
      </trkpt>
      <trkpt lat="42.99057" lon="-0.01011">
        <ele>1647</ele>
        <time>2017-01-18T10:51:02.024Z</time>
      </trkpt>
      <trkpt lat="42.99057" lon="-0.01012">
        <ele>1647</ele>
        <time>2017-01-18T10:51:03.024Z</time>
      </trkpt>
      <trkpt lat="42.99058" lon="-0.01012">
        <ele>1647</ele>
        <time>2017-01-18T10:51:04.024Z</time>
      </trkpt>
      <trkpt lat="42.99058" lon="-0.01013">
        <ele>1648</ele>
        <time>2017-01-18T10:51:05.024Z</time>
      </trkpt>
      <trkpt lat="42.99058" lon="-0.01013">
        <ele>1648</ele>
        <time>2017-01-18T10:51:06.024Z</time>
      </trkpt>
      <trkpt lat="42.99058" lon="-0.01013">
        <ele>1648</ele>
        <time>2017-01-18T10:51:07.024Z</time>
      </trkpt>
      <trkpt lat="42.99059" lon="-0.01013">
        <ele>1648</ele>
        <time>2017-01-18T10:51:08.024Z</time>
      </trkpt>
      <trkpt lat="42.99059" lon="-0.01014">
        <ele>1648</ele>
        <time>2017-01-18T10:51:09.024Z</time>
      </trkpt>
      <trkpt lat="42.99059" lon="-0.01014">
        <ele>1648</ele>
        <time>2017-01-18T10:51:10.024Z</time>
      </trkpt>
      <trkpt lat="42.9906" lon="-0.01014">
        <ele>1648</ele>
        <time>2017-01-18T10:51:11.024Z</time>
      </trkpt>
      <trkpt lat="42.99061" lon="-0.01015">
        <ele>1648</ele>
        <time>2017-01-18T10:51:12.024Z</time>
      </trkpt>
      <trkpt lat="42.99061" lon="-0.01015">
        <ele>1648</ele>
        <time>2017-01-18T10:51:13.024Z</time>
      </trkpt>
      <trkpt lat="42.99062" lon="-0.01015">
        <ele>1648</ele>
        <time>2017-01-18T10:51:14.024Z</time>
      </trkpt>
      <trkpt lat="42.99062" lon="-0.01015">
        <ele>1648</ele>
        <time>2017-01-18T10:51:15.024Z</time>
      </trkpt>
      <trkpt lat="42.99063" lon="-0.01015">
        <ele>1649</ele>
        <time>2017-01-18T10:51:16.024Z</time>
      </trkpt>
      <trkpt lat="42.99063" lon="-0.01016">
        <ele>1649</ele>
        <time>2017-01-18T10:51:17.024Z</time>
      </trkpt>
      <trkpt lat="42.99064" lon="-0.01016">
        <ele>1649</ele>
        <time>2017-01-18T10:51:18.024Z</time>
      </trkpt>
      <trkpt lat="42.99065" lon="-0.01016">
        <ele>1649</ele>
        <time>2017-01-18T10:51:19.024Z</time>
      </trkpt>
      <trkpt lat="42.99065" lon="-0.01017">
        <ele>1649</ele>
        <time>2017-01-18T10:51:20.024Z</time>
      </trkpt>
      <trkpt lat="42.99066" lon="-0.01017">
        <ele>1649</ele>
        <time>2017-01-18T10:51:21.024Z</time>
      </trkpt>
      <trkpt lat="42.99066" lon="-0.01017">
        <ele>1649</ele>
        <time>2017-01-18T10:51:22.024Z</time>
      </trkpt>
      <trkpt lat="42.99067" lon="-0.01017">
        <ele>1649</ele>
        <time>2017-01-18T10:51:23.024Z</time>
      </trkpt>
      <trkpt lat="42.99067" lon="-0.01018">
        <ele>1649</ele>
        <time>2017-01-18T10:51:24.024Z</time>
      </trkpt>
      <trkpt lat="42.99068" lon="-0.01018">
        <ele>1649</ele>
        <time>2017-01-18T10:51:25.024Z</time>
      </trkpt>
      <trkpt lat="42.99069" lon="-0.01018">
        <ele>1649</ele>
        <time>2017-01-18T10:51:26.024Z</time>
      </trkpt>
      <trkpt lat="42.99069" lon="-0.01018">
        <ele>1650</ele>
        <time>2017-01-18T10:51:27.024Z</time>
      </trkpt>
      <trkpt lat="42.9907" lon="-0.01019">
        <ele>1650</ele>
        <time>2017-01-18T10:51:28.024Z</time>
      </trkpt>
      <trkpt lat="42.99071" lon="-0.01019">
        <ele>1650</ele>
        <time>2017-01-18T10:51:29.024Z</time>
      </trkpt>
      <trkpt lat="42.99071" lon="-0.01019">
        <ele>1650</ele>
        <time>2017-01-18T10:51:30.024Z</time>
      </trkpt>
      <trkpt lat="42.99072" lon="-0.01019">
        <ele>1650</ele>
        <time>2017-01-18T10:51:31.024Z</time>
      </trkpt>
      <trkpt lat="42.99073" lon="-0.01019">
        <ele>1650</ele>
        <time>2017-01-18T10:51:32.024Z</time>
      </trkpt>
      <trkpt lat="42.99073" lon="-0.0102">
        <ele>1650</ele>
        <time>2017-01-18T10:51:33.024Z</time>
      </trkpt>
      <trkpt lat="42.99074" lon="-0.0102">
        <ele>1650</ele>
        <time>2017-01-18T10:51:34.024Z</time>
      </trkpt>
      <trkpt lat="42.99075" lon="-0.0102">
        <ele>1650</ele>
        <time>2017-01-18T10:51:35.024Z</time>
      </trkpt>
      <trkpt lat="42.99075" lon="-0.0102">
        <ele>1650</ele>
        <time>2017-01-18T10:51:36.024Z</time>
      </trkpt>
      <trkpt lat="42.99076" lon="-0.01021">
        <ele>1650</ele>
        <time>2017-01-18T10:51:37.024Z</time>
      </trkpt>
      <trkpt lat="42.99076" lon="-0.01021">
        <ele>1650</ele>
        <time>2017-01-18T10:51:38.024Z</time>
      </trkpt>
      <trkpt lat="42.99077" lon="-0.01021">
        <ele>1650</ele>
        <time>2017-01-18T10:51:39.024Z</time>
      </trkpt>
      <trkpt lat="42.99077" lon="-0.01021">
        <ele>1650</ele>
        <time>2017-01-18T10:51:40.024Z</time>
      </trkpt>
      <trkpt lat="42.99078" lon="-0.01022">
        <ele>1650</ele>
        <time>2017-01-18T10:51:41.024Z</time>
      </trkpt>
      <trkpt lat="42.99079" lon="-0.01022">
        <ele>1650</ele>
        <time>2017-01-18T10:51:42.024Z</time>
      </trkpt>
      <trkpt lat="42.99079" lon="-0.01022">
        <ele>1650</ele>
        <time>2017-01-18T10:51:43.024Z</time>
      </trkpt>
      <trkpt lat="42.9908" lon="-0.01022">
        <ele>1650</ele>
        <time>2017-01-18T10:51:44.024Z</time>
      </trkpt>
      <trkpt lat="42.9908" lon="-0.01023">
        <ele>1650</ele>
        <time>2017-01-18T10:51:45.024Z</time>
      </trkpt>
      <trkpt lat="42.99081" lon="-0.01023">
        <ele>1650</ele>
        <time>2017-01-18T10:51:46.024Z</time>
      </trkpt>
      <trkpt lat="42.99082" lon="-0.01023">
        <ele>1650</ele>
        <time>2017-01-18T10:51:47.024Z</time>
      </trkpt>
      <trkpt lat="42.99082" lon="-0.01024">
        <ele>1650</ele>
        <time>2017-01-18T10:51:48.024Z</time>
      </trkpt>
      <trkpt lat="42.99083" lon="-0.01024">
        <ele>1650</ele>
        <time>2017-01-18T10:51:49.024Z</time>
      </trkpt>
      <trkpt lat="42.99084" lon="-0.01024">
        <ele>1650</ele>
        <time>2017-01-18T10:51:50.024Z</time>
      </trkpt>
      <trkpt lat="42.99084" lon="-0.01025">
        <ele>1650</ele>
        <time>2017-01-18T10:51:51.024Z</time>
      </trkpt>
      <trkpt lat="42.99085" lon="-0.01025">
        <ele>1650</ele>
        <time>2017-01-18T10:51:52.024Z</time>
      </trkpt>
      <trkpt lat="42.99086" lon="-0.01025">
        <ele>1650</ele>
        <time>2017-01-18T10:51:53.024Z</time>
      </trkpt>
      <trkpt lat="42.99086" lon="-0.01026">
        <ele>1650</ele>
        <time>2017-01-18T10:51:54.024Z</time>
      </trkpt>
      <trkpt lat="42.99087" lon="-0.01026">
        <ele>1651</ele>
        <time>2017-01-18T10:51:55.024Z</time>
      </trkpt>
      <trkpt lat="42.99088" lon="-0.01026">
        <ele>1650</ele>
        <time>2017-01-18T10:51:56.024Z</time>
      </trkpt>
      <trkpt lat="42.99088" lon="-0.01026">
        <ele>1650</ele>
        <time>2017-01-18T10:51:57.024Z</time>
      </trkpt>
      <trkpt lat="42.99089" lon="-0.01026">
        <ele>1650</ele>
        <time>2017-01-18T10:51:58.024Z</time>
      </trkpt>
      <trkpt lat="42.9909" lon="-0.01027">
        <ele>1650</ele>
        <time>2017-01-18T10:51:59.024Z</time>
      </trkpt>
      <trkpt lat="42.9909" lon="-0.01027">
        <ele>1650</ele>
        <time>2017-01-18T10:52:00.024Z</time>
      </trkpt>
      <trkpt lat="42.99091" lon="-0.01027">
        <ele>1650</ele>
        <time>2017-01-18T10:52:01.024Z</time>
      </trkpt>
      <trkpt lat="42.99091" lon="-0.01027">
        <ele>1650</ele>
        <time>2017-01-18T10:52:02.024Z</time>
      </trkpt>
      <trkpt lat="42.99092" lon="-0.01028">
        <ele>1651</ele>
        <time>2017-01-18T10:52:03.024Z</time>
      </trkpt>
      <trkpt lat="42.99093" lon="-0.01028">
        <ele>1651</ele>
        <time>2017-01-18T10:52:04.024Z</time>
      </trkpt>
      <trkpt lat="42.99093" lon="-0.01028">
        <ele>1651</ele>
        <time>2017-01-18T10:52:05.024Z</time>
      </trkpt>
      <trkpt lat="42.99094" lon="-0.01029">
        <ele>1651</ele>
        <time>2017-01-18T10:52:06.024Z</time>
      </trkpt>
      <trkpt lat="42.99094" lon="-0.01029">
        <ele>1651</ele>
        <time>2017-01-18T10:52:07.024Z</time>
      </trkpt>
      <trkpt lat="42.99095" lon="-0.01029">
        <ele>1651</ele>
        <time>2017-01-18T10:52:08.024Z</time>
      </trkpt>
      <trkpt lat="42.99096" lon="-0.01029">
        <ele>1651</ele>
        <time>2017-01-18T10:52:09.024Z</time>
      </trkpt>
      <trkpt lat="42.99096" lon="-0.0103">
        <ele>1651</ele>
        <time>2017-01-18T10:52:10.024Z</time>
      </trkpt>
      <trkpt lat="42.99097" lon="-0.0103">
        <ele>1651</ele>
        <time>2017-01-18T10:52:11.024Z</time>
      </trkpt>
      <trkpt lat="42.99098" lon="-0.0103">
        <ele>1651</ele>
        <time>2017-01-18T10:52:12.024Z</time>
      </trkpt>
      <trkpt lat="42.99098" lon="-0.01031">
        <ele>1651</ele>
        <time>2017-01-18T10:52:13.024Z</time>
      </trkpt>
      <trkpt lat="42.99099" lon="-0.01031">
        <ele>1651</ele>
        <time>2017-01-18T10:52:14.024Z</time>
      </trkpt>
      <trkpt lat="42.991" lon="-0.01031">
        <ele>1651</ele>
        <time>2017-01-18T10:52:15.024Z</time>
      </trkpt>
      <trkpt lat="42.99101" lon="-0.01031">
        <ele>1651</ele>
        <time>2017-01-18T10:52:16.024Z</time>
      </trkpt>
      <trkpt lat="42.99101" lon="-0.01032">
        <ele>1651</ele>
        <time>2017-01-18T10:52:17.024Z</time>
      </trkpt>
      <trkpt lat="42.99102" lon="-0.01032">
        <ele>1651</ele>
        <time>2017-01-18T10:52:18.024Z</time>
      </trkpt>
      <trkpt lat="42.99103" lon="-0.01032">
        <ele>1651</ele>
        <time>2017-01-18T10:52:19.024Z</time>
      </trkpt>
      <trkpt lat="42.99103" lon="-0.01033">
        <ele>1651</ele>
        <time>2017-01-18T10:52:20.024Z</time>
      </trkpt>
      <trkpt lat="42.99104" lon="-0.01033">
        <ele>1651</ele>
        <time>2017-01-18T10:52:21.024Z</time>
      </trkpt>
      <trkpt lat="42.99105" lon="-0.01033">
        <ele>1652</ele>
        <time>2017-01-18T10:52:22.024Z</time>
      </trkpt>
      <trkpt lat="42.99106" lon="-0.01034">
        <ele>1652</ele>
        <time>2017-01-18T10:52:23.024Z</time>
      </trkpt>
      <trkpt lat="42.99106" lon="-0.01034">
        <ele>1652</ele>
        <time>2017-01-18T10:52:24.024Z</time>
      </trkpt>
      <trkpt lat="42.99107" lon="-0.01034">
        <ele>1652</ele>
        <time>2017-01-18T10:52:25.024Z</time>
      </trkpt>
      <trkpt lat="42.99108" lon="-0.01035">
        <ele>1652</ele>
        <time>2017-01-18T10:52:26.024Z</time>
      </trkpt>
      <trkpt lat="42.99108" lon="-0.01035">
        <ele>1652</ele>
        <time>2017-01-18T10:52:27.024Z</time>
      </trkpt>
      <trkpt lat="42.99109" lon="-0.01035">
        <ele>1652</ele>
        <time>2017-01-18T10:52:28.024Z</time>
      </trkpt>
      <trkpt lat="42.9911" lon="-0.01036">
        <ele>1652</ele>
        <time>2017-01-18T10:52:29.024Z</time>
      </trkpt>
      <trkpt lat="42.9911" lon="-0.01036">
        <ele>1652</ele>
        <time>2017-01-18T10:52:30.024Z</time>
      </trkpt>
      <trkpt lat="42.99111" lon="-0.01036">
        <ele>1652</ele>
        <time>2017-01-18T10:52:31.024Z</time>
      </trkpt>
      <trkpt lat="42.99112" lon="-0.01036">
        <ele>1652</ele>
        <time>2017-01-18T10:52:32.024Z</time>
      </trkpt>
      <trkpt lat="42.99112" lon="-0.01037">
        <ele>1652</ele>
        <time>2017-01-18T10:52:33.024Z</time>
      </trkpt>
      <trkpt lat="42.99113" lon="-0.01037">
        <ele>1652</ele>
        <time>2017-01-18T10:52:34.024Z</time>
      </trkpt>
      <trkpt lat="42.99114" lon="-0.01037">
        <ele>1652</ele>
        <time>2017-01-18T10:52:35.024Z</time>
      </trkpt>
      <trkpt lat="42.99115" lon="-0.01037">
        <ele>1652</ele>
        <time>2017-01-18T10:52:36.024Z</time>
      </trkpt>
      <trkpt lat="42.99115" lon="-0.01038">
        <ele>1652</ele>
        <time>2017-01-18T10:52:37.024Z</time>
      </trkpt>
      <trkpt lat="42.99116" lon="-0.01038">
        <ele>1653</ele>
        <time>2017-01-18T10:52:38.024Z</time>
      </trkpt>
      <trkpt lat="42.99117" lon="-0.01038">
        <ele>1653</ele>
        <time>2017-01-18T10:52:39.024Z</time>
      </trkpt>
      <trkpt lat="42.99117" lon="-0.01038">
        <ele>1653</ele>
        <time>2017-01-18T10:52:40.024Z</time>
      </trkpt>
      <trkpt lat="42.99118" lon="-0.01039">
        <ele>1653</ele>
        <time>2017-01-18T10:52:41.024Z</time>
      </trkpt>
      <trkpt lat="42.99119" lon="-0.01039">
        <ele>1653</ele>
        <time>2017-01-18T10:52:42.024Z</time>
      </trkpt>
      <trkpt lat="42.99119" lon="-0.0104">
        <ele>1653</ele>
        <time>2017-01-18T10:52:43.024Z</time>
      </trkpt>
      <trkpt lat="42.9912" lon="-0.0104">
        <ele>1653</ele>
        <time>2017-01-18T10:52:44.024Z</time>
      </trkpt>
      <trkpt lat="42.99121" lon="-0.0104">
        <ele>1653</ele>
        <time>2017-01-18T10:52:45.024Z</time>
      </trkpt>
      <trkpt lat="42.99122" lon="-0.0104">
        <ele>1653</ele>
        <time>2017-01-18T10:52:46.024Z</time>
      </trkpt>
      <trkpt lat="42.99122" lon="-0.0104">
        <ele>1653</ele>
        <time>2017-01-18T10:52:47.024Z</time>
      </trkpt>
      <trkpt lat="42.99123" lon="-0.01041">
        <ele>1653</ele>
        <time>2017-01-18T10:52:48.024Z</time>
      </trkpt>
      <trkpt lat="42.99123" lon="-0.01041">
        <ele>1653</ele>
        <time>2017-01-18T10:52:49.024Z</time>
      </trkpt>
      <trkpt lat="42.99124" lon="-0.01041">
        <ele>1653</ele>
        <time>2017-01-18T10:52:50.024Z</time>
      </trkpt>
      <trkpt lat="42.99125" lon="-0.01041">
        <ele>1653</ele>
        <time>2017-01-18T10:52:51.024Z</time>
      </trkpt>
      <trkpt lat="42.99126" lon="-0.01042">
        <ele>1653</ele>
        <time>2017-01-18T10:52:52.024Z</time>
      </trkpt>
      <trkpt lat="42.99126" lon="-0.01042">
        <ele>1653</ele>
        <time>2017-01-18T10:52:53.024Z</time>
      </trkpt>
      <trkpt lat="42.99127" lon="-0.01042">
        <ele>1653</ele>
        <time>2017-01-18T10:52:54.024Z</time>
      </trkpt>
      <trkpt lat="42.99128" lon="-0.01043">
        <ele>1653</ele>
        <time>2017-01-18T10:52:55.024Z</time>
      </trkpt>
      <trkpt lat="42.99128" lon="-0.01043">
        <ele>1654</ele>
        <time>2017-01-18T10:52:56.024Z</time>
      </trkpt>
      <trkpt lat="42.99129" lon="-0.01043">
        <ele>1654</ele>
        <time>2017-01-18T10:52:57.024Z</time>
      </trkpt>
      <trkpt lat="42.9913" lon="-0.01043">
        <ele>1654</ele>
        <time>2017-01-18T10:52:58.024Z</time>
      </trkpt>
      <trkpt lat="42.9913" lon="-0.01044">
        <ele>1654</ele>
        <time>2017-01-18T10:52:59.024Z</time>
      </trkpt>
      <trkpt lat="42.99131" lon="-0.01044">
        <ele>1654</ele>
        <time>2017-01-18T10:53:00.024Z</time>
      </trkpt>
      <trkpt lat="42.99132" lon="-0.01044">
        <ele>1654</ele>
        <time>2017-01-18T10:53:01.024Z</time>
      </trkpt>
      <trkpt lat="42.99132" lon="-0.01045">
        <ele>1654</ele>
        <time>2017-01-18T10:53:02.024Z</time>
      </trkpt>
      <trkpt lat="42.99133" lon="-0.01045">
        <ele>1654</ele>
        <time>2017-01-18T10:53:03.024Z</time>
      </trkpt>
      <trkpt lat="42.99134" lon="-0.01045">
        <ele>1654</ele>
        <time>2017-01-18T10:53:04.024Z</time>
      </trkpt>
      <trkpt lat="42.99134" lon="-0.01046">
        <ele>1654</ele>
        <time>2017-01-18T10:53:05.024Z</time>
      </trkpt>
      <trkpt lat="42.99135" lon="-0.01046">
        <ele>1654</ele>
        <time>2017-01-18T10:53:06.024Z</time>
      </trkpt>
      <trkpt lat="42.99136" lon="-0.01046">
        <ele>1654</ele>
        <time>2017-01-18T10:53:07.024Z</time>
      </trkpt>
      <trkpt lat="42.99136" lon="-0.01046">
        <ele>1654</ele>
        <time>2017-01-18T10:53:08.024Z</time>
      </trkpt>
      <trkpt lat="42.99137" lon="-0.01047">
        <ele>1654</ele>
        <time>2017-01-18T10:53:09.024Z</time>
      </trkpt>
      <trkpt lat="42.99137" lon="-0.01047">
        <ele>1655</ele>
        <time>2017-01-18T10:53:10.024Z</time>
      </trkpt>
      <trkpt lat="42.99138" lon="-0.01047">
        <ele>1655</ele>
        <time>2017-01-18T10:53:11.024Z</time>
      </trkpt>
      <trkpt lat="42.99139" lon="-0.01047">
        <ele>1655</ele>
        <time>2017-01-18T10:53:12.024Z</time>
      </trkpt>
      <trkpt lat="42.99139" lon="-0.01047">
        <ele>1655</ele>
        <time>2017-01-18T10:53:13.024Z</time>
      </trkpt>
      <trkpt lat="42.9914" lon="-0.01048">
        <ele>1655</ele>
        <time>2017-01-18T10:53:14.024Z</time>
      </trkpt>
      <trkpt lat="42.99141" lon="-0.01048">
        <ele>1655</ele>
        <time>2017-01-18T10:53:15.024Z</time>
      </trkpt>
      <trkpt lat="42.99141" lon="-0.01048">
        <ele>1655</ele>
        <time>2017-01-18T10:53:16.024Z</time>
      </trkpt>
      <trkpt lat="42.99142" lon="-0.01048">
        <ele>1655</ele>
        <time>2017-01-18T10:53:17.024Z</time>
      </trkpt>
      <trkpt lat="42.99143" lon="-0.01048">
        <ele>1655</ele>
        <time>2017-01-18T10:53:18.024Z</time>
      </trkpt>
      <trkpt lat="42.99143" lon="-0.01049">
        <ele>1655</ele>
        <time>2017-01-18T10:53:19.024Z</time>
      </trkpt>
      <trkpt lat="42.99144" lon="-0.01049">
        <ele>1655</ele>
        <time>2017-01-18T10:53:20.024Z</time>
      </trkpt>
      <trkpt lat="42.99145" lon="-0.01049">
        <ele>1655</ele>
        <time>2017-01-18T10:53:21.024Z</time>
      </trkpt>
      <trkpt lat="42.99145" lon="-0.01049">
        <ele>1655</ele>
        <time>2017-01-18T10:53:22.024Z</time>
      </trkpt>
      <trkpt lat="42.99146" lon="-0.01049">
        <ele>1655</ele>
        <time>2017-01-18T10:53:23.024Z</time>
      </trkpt>
      <trkpt lat="42.99146" lon="-0.01049">
        <ele>1655</ele>
        <time>2017-01-18T10:53:24.024Z</time>
      </trkpt>
      <trkpt lat="42.99147" lon="-0.0105">
        <ele>1656</ele>
        <time>2017-01-18T10:53:25.024Z</time>
      </trkpt>
      <trkpt lat="42.99147" lon="-0.0105">
        <ele>1656</ele>
        <time>2017-01-18T10:53:26.024Z</time>
      </trkpt>
      <trkpt lat="42.99148" lon="-0.0105">
        <ele>1656</ele>
        <time>2017-01-18T10:53:27.024Z</time>
      </trkpt>
      <trkpt lat="42.99148" lon="-0.0105">
        <ele>1656</ele>
        <time>2017-01-18T10:53:28.024Z</time>
      </trkpt>
      <trkpt lat="42.99149" lon="-0.0105">
        <ele>1656</ele>
        <time>2017-01-18T10:53:29.024Z</time>
      </trkpt>
      <trkpt lat="42.99149" lon="-0.0105">
        <ele>1656</ele>
        <time>2017-01-18T10:53:30.024Z</time>
      </trkpt>
      <trkpt lat="42.9915" lon="-0.0105">
        <ele>1657</ele>
        <time>2017-01-18T10:53:31.024Z</time>
      </trkpt>
      <trkpt lat="42.99151" lon="-0.0105">
        <ele>1657</ele>
        <time>2017-01-18T10:53:32.024Z</time>
      </trkpt>
      <trkpt lat="42.99151" lon="-0.0105">
        <ele>1657</ele>
        <time>2017-01-18T10:53:33.024Z</time>
      </trkpt>
      <trkpt lat="42.99151" lon="-0.0105">
        <ele>1657</ele>
        <time>2017-01-18T10:53:34.024Z</time>
      </trkpt>
      <trkpt lat="42.99152" lon="-0.0105">
        <ele>1657</ele>
        <time>2017-01-18T10:53:35.024Z</time>
      </trkpt>
      <trkpt lat="42.99152" lon="-0.0105">
        <ele>1657</ele>
        <time>2017-01-18T10:53:36.024Z</time>
      </trkpt>
      <trkpt lat="42.99152" lon="-0.01051">
        <ele>1657</ele>
        <time>2017-01-18T10:53:37.024Z</time>
      </trkpt>
      <trkpt lat="42.99152" lon="-0.01051">
        <ele>1657</ele>
        <time>2017-01-18T10:53:38.024Z</time>
      </trkpt>
      <trkpt lat="42.99153" lon="-0.01051">
        <ele>1657</ele>
        <time>2017-01-18T10:53:39.024Z</time>
      </trkpt>
      <trkpt lat="42.99153" lon="-0.01051">
        <ele>1657</ele>
        <time>2017-01-18T10:53:40.024Z</time>
      </trkpt>
      <trkpt lat="42.99154" lon="-0.01052">
        <ele>1656</ele>
        <time>2017-01-18T10:53:41.024Z</time>
      </trkpt>
      <trkpt lat="42.99154" lon="-0.01052">
        <ele>1656</ele>
        <time>2017-01-18T10:53:42.024Z</time>
      </trkpt>
      <trkpt lat="42.99154" lon="-0.01053">
        <ele>1656</ele>
        <time>2017-01-18T10:53:43.024Z</time>
      </trkpt>
      <trkpt lat="42.99155" lon="-0.01053">
        <ele>1656</ele>
        <time>2017-01-18T10:53:44.024Z</time>
      </trkpt>
      <trkpt lat="42.99155" lon="-0.01053">
        <ele>1656</ele>
        <time>2017-01-18T10:53:45.024Z</time>
      </trkpt>
      <trkpt lat="42.99155" lon="-0.01054">
        <ele>1656</ele>
        <time>2017-01-18T10:53:46.024Z</time>
      </trkpt>
      <trkpt lat="42.99155" lon="-0.01055">
        <ele>1656</ele>
        <time>2017-01-18T10:53:47.024Z</time>
      </trkpt>
      <trkpt lat="42.99155" lon="-0.01056">
        <ele>1656</ele>
        <time>2017-01-18T10:53:48.024Z</time>
      </trkpt>
      <trkpt lat="42.99156" lon="-0.01057">
        <ele>1656</ele>
        <time>2017-01-18T10:53:49.024Z</time>
      </trkpt>
      <trkpt lat="42.99156" lon="-0.01057">
        <ele>1657</ele>
        <time>2017-01-18T10:53:50.024Z</time>
      </trkpt>
      <trkpt lat="42.99156" lon="-0.01058">
        <ele>1657</ele>
        <time>2017-01-18T10:53:51.024Z</time>
      </trkpt>
      <trkpt lat="42.99157" lon="-0.01058">
        <ele>1657</ele>
        <time>2017-01-18T10:53:52.024Z</time>
      </trkpt>
      <trkpt lat="42.99157" lon="-0.01058">
        <ele>1657</ele>
        <time>2017-01-18T10:53:53.024Z</time>
      </trkpt>
      <trkpt lat="42.99158" lon="-0.01059">
        <ele>1657</ele>
        <time>2017-01-18T10:53:54.024Z</time>
      </trkpt>
      <trkpt lat="42.99158" lon="-0.01059">
        <ele>1657</ele>
        <time>2017-01-18T10:53:55.024Z</time>
      </trkpt>
      <trkpt lat="42.99158" lon="-0.0106">
        <ele>1657</ele>
        <time>2017-01-18T10:53:56.024Z</time>
      </trkpt>
      <trkpt lat="42.99158" lon="-0.0106">
        <ele>1657</ele>
        <time>2017-01-18T10:53:57.024Z</time>
      </trkpt>
      <trkpt lat="42.99159" lon="-0.01061">
        <ele>1656</ele>
        <time>2017-01-18T10:53:58.024Z</time>
      </trkpt>
      <trkpt lat="42.99159" lon="-0.01061">
        <ele>1657</ele>
        <time>2017-01-18T10:53:59.024Z</time>
      </trkpt>
      <trkpt lat="42.9916" lon="-0.01062">
        <ele>1657</ele>
        <time>2017-01-18T10:54:00.024Z</time>
      </trkpt>
      <trkpt lat="42.9916" lon="-0.01062">
        <ele>1657</ele>
        <time>2017-01-18T10:54:01.024Z</time>
      </trkpt>
      <trkpt lat="42.9916" lon="-0.01062">
        <ele>1657</ele>
        <time>2017-01-18T10:54:02.024Z</time>
      </trkpt>
      <trkpt lat="42.9916" lon="-0.01062">
        <ele>1657</ele>
        <time>2017-01-18T10:54:03.024Z</time>
      </trkpt>
      <trkpt lat="42.99161" lon="-0.01062">
        <ele>1657</ele>
        <time>2017-01-18T10:54:04.024Z</time>
      </trkpt>
      <trkpt lat="42.99161" lon="-0.01062">
        <ele>1657</ele>
        <time>2017-01-18T10:54:05.024Z</time>
      </trkpt>
      <trkpt lat="42.99161" lon="-0.01062">
        <ele>1657</ele>
        <time>2017-01-18T10:54:06.024Z</time>
      </trkpt>
      <trkpt lat="42.99162" lon="-0.01063">
        <ele>1657</ele>
        <time>2017-01-18T10:54:07.024Z</time>
      </trkpt>
      <trkpt lat="42.99162" lon="-0.01063">
        <ele>1658</ele>
        <time>2017-01-18T10:54:08.024Z</time>
      </trkpt>
      <trkpt lat="42.99163" lon="-0.01063">
        <ele>1657</ele>
        <time>2017-01-18T10:54:09.024Z</time>
      </trkpt>
      <trkpt lat="42.99163" lon="-0.01063">
        <ele>1658</ele>
        <time>2017-01-18T10:54:10.024Z</time>
      </trkpt>
      <trkpt lat="42.99164" lon="-0.01063">
        <ele>1657</ele>
        <time>2017-01-18T10:54:11.024Z</time>
      </trkpt>
      <trkpt lat="42.99164" lon="-0.01063">
        <ele>1657</ele>
        <time>2017-01-18T10:54:12.024Z</time>
      </trkpt>
      <trkpt lat="42.99164" lon="-0.01063">
        <ele>1657</ele>
        <time>2017-01-18T10:54:13.024Z</time>
      </trkpt>
      <trkpt lat="42.99165" lon="-0.01062">
        <ele>1657</ele>
        <time>2017-01-18T10:54:14.024Z</time>
      </trkpt>
      <trkpt lat="42.99165" lon="-0.01062">
        <ele>1658</ele>
        <time>2017-01-18T10:54:15.024Z</time>
      </trkpt>
      <trkpt lat="42.99166" lon="-0.01062">
        <ele>1658</ele>
        <time>2017-01-18T10:54:16.024Z</time>
      </trkpt>
      <trkpt lat="42.99167" lon="-0.01062">
        <ele>1658</ele>
        <time>2017-01-18T10:54:17.024Z</time>
      </trkpt>
      <trkpt lat="42.99167" lon="-0.01062">
        <ele>1658</ele>
        <time>2017-01-18T10:54:18.024Z</time>
      </trkpt>
      <trkpt lat="42.99167" lon="-0.01062">
        <ele>1658</ele>
        <time>2017-01-18T10:54:19.024Z</time>
      </trkpt>
      <trkpt lat="42.99168" lon="-0.01062">
        <ele>1658</ele>
        <time>2017-01-18T10:54:20.024Z</time>
      </trkpt>
      <trkpt lat="42.99168" lon="-0.01063">
        <ele>1658</ele>
        <time>2017-01-18T10:54:21.024Z</time>
      </trkpt>
      <trkpt lat="42.99169" lon="-0.01063">
        <ele>1658</ele>
        <time>2017-01-18T10:54:22.024Z</time>
      </trkpt>
      <trkpt lat="42.99169" lon="-0.01063">
        <ele>1658</ele>
        <time>2017-01-18T10:54:23.024Z</time>
      </trkpt>
      <trkpt lat="42.9917" lon="-0.01063">
        <ele>1658</ele>
        <time>2017-01-18T10:54:24.024Z</time>
      </trkpt>
      <trkpt lat="42.9917" lon="-0.01063">
        <ele>1658</ele>
        <time>2017-01-18T10:54:25.024Z</time>
      </trkpt>
      <trkpt lat="42.99171" lon="-0.01064">
        <ele>1658</ele>
        <time>2017-01-18T10:54:26.024Z</time>
      </trkpt>
      <trkpt lat="42.99171" lon="-0.01064">
        <ele>1659</ele>
        <time>2017-01-18T10:54:27.024Z</time>
      </trkpt>
      <trkpt lat="42.99171" lon="-0.01064">
        <ele>1659</ele>
        <time>2017-01-18T10:54:28.024Z</time>
      </trkpt>
      <trkpt lat="42.99172" lon="-0.01065">
        <ele>1659</ele>
        <time>2017-01-18T10:54:29.024Z</time>
      </trkpt>
      <trkpt lat="42.99172" lon="-0.01065">
        <ele>1659</ele>
        <time>2017-01-18T10:54:30.024Z</time>
      </trkpt>
      <trkpt lat="42.99173" lon="-0.01065">
        <ele>1659</ele>
        <time>2017-01-18T10:54:31.024Z</time>
      </trkpt>
      <trkpt lat="42.99173" lon="-0.01065">
        <ele>1659</ele>
        <time>2017-01-18T10:54:32.024Z</time>
      </trkpt>
      <trkpt lat="42.99174" lon="-0.01065">
        <ele>1659</ele>
        <time>2017-01-18T10:54:33.024Z</time>
      </trkpt>
      <trkpt lat="42.99174" lon="-0.01066">
        <ele>1660</ele>
        <time>2017-01-18T10:54:34.024Z</time>
      </trkpt>
      <trkpt lat="42.99174" lon="-0.01066">
        <ele>1660</ele>
        <time>2017-01-18T10:54:35.024Z</time>
      </trkpt>
      <trkpt lat="42.99175" lon="-0.01066">
        <ele>1660</ele>
        <time>2017-01-18T10:54:36.024Z</time>
      </trkpt>
      <trkpt lat="42.99175" lon="-0.01066">
        <ele>1660</ele>
        <time>2017-01-18T10:54:37.024Z</time>
      </trkpt>
      <trkpt lat="42.99176" lon="-0.01066">
        <ele>1660</ele>
        <time>2017-01-18T10:54:38.024Z</time>
      </trkpt>
      <trkpt lat="42.99176" lon="-0.01067">
        <ele>1660</ele>
        <time>2017-01-18T10:54:39.024Z</time>
      </trkpt>
      <trkpt lat="42.99176" lon="-0.01067">
        <ele>1660</ele>
        <time>2017-01-18T10:54:40.024Z</time>
      </trkpt>
      <trkpt lat="42.99177" lon="-0.01067">
        <ele>1660</ele>
        <time>2017-01-18T10:54:41.024Z</time>
      </trkpt>
      <trkpt lat="42.99177" lon="-0.01067">
        <ele>1660</ele>
        <time>2017-01-18T10:54:42.024Z</time>
      </trkpt>
      <trkpt lat="42.99177" lon="-0.01067">
        <ele>1660</ele>
        <time>2017-01-18T10:54:43.024Z</time>
      </trkpt>
      <trkpt lat="42.99178" lon="-0.01067">
        <ele>1660</ele>
        <time>2017-01-18T10:54:44.024Z</time>
      </trkpt>
      <trkpt lat="42.99178" lon="-0.01067">
        <ele>1660</ele>
        <time>2017-01-18T10:54:45.024Z</time>
      </trkpt>
      <trkpt lat="42.99178" lon="-0.01068">
        <ele>1660</ele>
        <time>2017-01-18T10:54:46.024Z</time>
      </trkpt>
      <trkpt lat="42.99179" lon="-0.01068">
        <ele>1661</ele>
        <time>2017-01-18T10:54:47.024Z</time>
      </trkpt>
      <trkpt lat="42.99179" lon="-0.01068">
        <ele>1661</ele>
        <time>2017-01-18T10:54:48.024Z</time>
      </trkpt>
      <trkpt lat="42.9918" lon="-0.01069">
        <ele>1661</ele>
        <time>2017-01-18T10:54:49.024Z</time>
      </trkpt>
      <trkpt lat="42.9918" lon="-0.01069">
        <ele>1661</ele>
        <time>2017-01-18T10:54:50.024Z</time>
      </trkpt>
      <trkpt lat="42.9918" lon="-0.01069">
        <ele>1661</ele>
        <time>2017-01-18T10:54:51.024Z</time>
      </trkpt>
      <trkpt lat="42.99181" lon="-0.01069">
        <ele>1661</ele>
        <time>2017-01-18T10:54:52.024Z</time>
      </trkpt>
      <trkpt lat="42.99181" lon="-0.0107">
        <ele>1661</ele>
        <time>2017-01-18T10:54:53.024Z</time>
      </trkpt>
      <trkpt lat="42.99182" lon="-0.0107">
        <ele>1661</ele>
        <time>2017-01-18T10:54:54.024Z</time>
      </trkpt>
      <trkpt lat="42.99182" lon="-0.0107">
        <ele>1661</ele>
        <time>2017-01-18T10:54:55.024Z</time>
      </trkpt>
      <trkpt lat="42.99183" lon="-0.0107">
        <ele>1661</ele>
        <time>2017-01-18T10:54:56.024Z</time>
      </trkpt>
      <trkpt lat="42.99183" lon="-0.01071">
        <ele>1662</ele>
        <time>2017-01-18T10:54:57.024Z</time>
      </trkpt>
      <trkpt lat="42.99183" lon="-0.01071">
        <ele>1662</ele>
        <time>2017-01-18T10:54:58.024Z</time>
      </trkpt>
      <trkpt lat="42.99184" lon="-0.01071">
        <ele>1662</ele>
        <time>2017-01-18T10:54:59.024Z</time>
      </trkpt>
      <trkpt lat="42.99184" lon="-0.01072">
        <ele>1662</ele>
        <time>2017-01-18T10:55:00.024Z</time>
      </trkpt>
      <trkpt lat="42.99185" lon="-0.01072">
        <ele>1662</ele>
        <time>2017-01-18T10:55:01.024Z</time>
      </trkpt>
      <trkpt lat="42.99185" lon="-0.01072">
        <ele>1662</ele>
        <time>2017-01-18T10:55:02.024Z</time>
      </trkpt>
      <trkpt lat="42.99186" lon="-0.01072">
        <ele>1662</ele>
        <time>2017-01-18T10:55:03.024Z</time>
      </trkpt>
      <trkpt lat="42.99186" lon="-0.01072">
        <ele>1662</ele>
        <time>2017-01-18T10:55:04.024Z</time>
      </trkpt>
      <trkpt lat="42.99187" lon="-0.01072">
        <ele>1662</ele>
        <time>2017-01-18T10:55:05.024Z</time>
      </trkpt>
      <trkpt lat="42.99187" lon="-0.01073">
        <ele>1662</ele>
        <time>2017-01-18T10:55:06.024Z</time>
      </trkpt>
      <trkpt lat="42.99188" lon="-0.01073">
        <ele>1662</ele>
        <time>2017-01-18T10:55:07.024Z</time>
      </trkpt>
      <trkpt lat="42.99188" lon="-0.01072">
        <ele>1662</ele>
        <time>2017-01-18T10:55:08.024Z</time>
      </trkpt>
      <trkpt lat="42.99188" lon="-0.01072">
        <ele>1662</ele>
        <time>2017-01-18T10:55:09.024Z</time>
      </trkpt>
      <trkpt lat="42.99188" lon="-0.01072">
        <ele>1662</ele>
        <time>2017-01-18T10:55:10.024Z</time>
      </trkpt>
      <trkpt lat="42.99188" lon="-0.01072">
        <ele>1662</ele>
        <time>2017-01-18T10:55:11.024Z</time>
      </trkpt>
      <trkpt lat="42.9919" lon="-0.01073">
        <ele>1662</ele>
        <time>2017-01-18T10:55:12.020Z</time>
      </trkpt>
      <trkpt lat="42.99191" lon="-0.01073">
        <ele>1662</ele>
        <time>2017-01-18T10:55:13.020Z</time>
      </trkpt>
      <trkpt lat="42.99191" lon="-0.01073">
        <ele>1662</ele>
        <time>2017-01-18T10:55:14.020Z</time>
      </trkpt>
      <trkpt lat="42.99192" lon="-0.01073">
        <ele>1663</ele>
        <time>2017-01-18T10:55:15.020Z</time>
      </trkpt>
      <trkpt lat="42.99192" lon="-0.01073">
        <ele>1662</ele>
        <time>2017-01-18T10:55:16.020Z</time>
      </trkpt>
      <trkpt lat="42.99193" lon="-0.01074">
        <ele>1663</ele>
        <time>2017-01-18T10:55:17.020Z</time>
      </trkpt>
      <trkpt lat="42.99193" lon="-0.01074">
        <ele>1663</ele>
        <time>2017-01-18T10:55:18.020Z</time>
      </trkpt>
      <trkpt lat="42.99194" lon="-0.01074">
        <ele>1663</ele>
        <time>2017-01-18T10:55:19.020Z</time>
      </trkpt>
      <trkpt lat="42.99194" lon="-0.01074">
        <ele>1663</ele>
        <time>2017-01-18T10:55:20.020Z</time>
      </trkpt>
      <trkpt lat="42.99195" lon="-0.01074">
        <ele>1663</ele>
        <time>2017-01-18T10:55:21.020Z</time>
      </trkpt>
      <trkpt lat="42.99195" lon="-0.01074">
        <ele>1663</ele>
        <time>2017-01-18T10:55:22.020Z</time>
      </trkpt>
      <trkpt lat="42.99196" lon="-0.01075">
        <ele>1663</ele>
        <time>2017-01-18T10:55:23.020Z</time>
      </trkpt>
      <trkpt lat="42.99196" lon="-0.01075">
        <ele>1664</ele>
        <time>2017-01-18T10:55:24.020Z</time>
      </trkpt>
      <trkpt lat="42.99197" lon="-0.01075">
        <ele>1664</ele>
        <time>2017-01-18T10:55:25.020Z</time>
      </trkpt>
      <trkpt lat="42.99197" lon="-0.01075">
        <ele>1664</ele>
        <time>2017-01-18T10:55:26.020Z</time>
      </trkpt>
      <trkpt lat="42.99198" lon="-0.01075">
        <ele>1664</ele>
        <time>2017-01-18T10:55:27.020Z</time>
      </trkpt>
      <trkpt lat="42.99198" lon="-0.01075">
        <ele>1664</ele>
        <time>2017-01-18T10:55:28.020Z</time>
      </trkpt>
      <trkpt lat="42.99198" lon="-0.01075">
        <ele>1664</ele>
        <time>2017-01-18T10:55:29.020Z</time>
      </trkpt>
      <trkpt lat="42.99199" lon="-0.01075">
        <ele>1664</ele>
        <time>2017-01-18T10:55:30.020Z</time>
      </trkpt>
      <trkpt lat="42.99199" lon="-0.01075">
        <ele>1664</ele>
        <time>2017-01-18T10:55:31.020Z</time>
      </trkpt>
      <trkpt lat="42.992" lon="-0.01075">
        <ele>1664</ele>
        <time>2017-01-18T10:55:32.020Z</time>
      </trkpt>
      <trkpt lat="42.992" lon="-0.01076">
        <ele>1664</ele>
        <time>2017-01-18T10:55:33.020Z</time>
      </trkpt>
      <trkpt lat="42.99201" lon="-0.01076">
        <ele>1664</ele>
        <time>2017-01-18T10:55:34.020Z</time>
      </trkpt>
      <trkpt lat="42.99201" lon="-0.01076">
        <ele>1665</ele>
        <time>2017-01-18T10:55:35.020Z</time>
      </trkpt>
      <trkpt lat="42.99202" lon="-0.01076">
        <ele>1665</ele>
        <time>2017-01-18T10:55:36.020Z</time>
      </trkpt>
      <trkpt lat="42.99202" lon="-0.01076">
        <ele>1665</ele>
        <time>2017-01-18T10:55:37.020Z</time>
      </trkpt>
      <trkpt lat="42.99203" lon="-0.01076">
        <ele>1665</ele>
        <time>2017-01-18T10:55:38.020Z</time>
      </trkpt>
      <trkpt lat="42.99203" lon="-0.01076">
        <ele>1665</ele>
        <time>2017-01-18T10:55:39.020Z</time>
      </trkpt>
      <trkpt lat="42.99204" lon="-0.01077">
        <ele>1665</ele>
        <time>2017-01-18T10:55:40.020Z</time>
      </trkpt>
      <trkpt lat="42.99204" lon="-0.01077">
        <ele>1665</ele>
        <time>2017-01-18T10:55:41.020Z</time>
      </trkpt>
      <trkpt lat="42.99204" lon="-0.01077">
        <ele>1665</ele>
        <time>2017-01-18T10:55:42.020Z</time>
      </trkpt>
      <trkpt lat="42.99205" lon="-0.01077">
        <ele>1665</ele>
        <time>2017-01-18T10:55:43.020Z</time>
      </trkpt>
      <trkpt lat="42.99205" lon="-0.01078">
        <ele>1666</ele>
        <time>2017-01-18T10:55:44.020Z</time>
      </trkpt>
      <trkpt lat="42.99206" lon="-0.01078">
        <ele>1666</ele>
        <time>2017-01-18T10:55:45.020Z</time>
      </trkpt>
      <trkpt lat="42.99206" lon="-0.01078">
        <ele>1666</ele>
        <time>2017-01-18T10:55:46.020Z</time>
      </trkpt>
      <trkpt lat="42.99206" lon="-0.01078">
        <ele>1665</ele>
        <time>2017-01-18T10:55:47.020Z</time>
      </trkpt>
      <trkpt lat="42.99207" lon="-0.01079">
        <ele>1666</ele>
        <time>2017-01-18T10:55:48.020Z</time>
      </trkpt>
      <trkpt lat="42.99207" lon="-0.01079">
        <ele>1665</ele>
        <time>2017-01-18T10:55:49.020Z</time>
      </trkpt>
      <trkpt lat="42.99207" lon="-0.01079">
        <ele>1666</ele>
        <time>2017-01-18T10:55:50.020Z</time>
      </trkpt>
      <trkpt lat="42.99208" lon="-0.0108">
        <ele>1666</ele>
        <time>2017-01-18T10:55:51.020Z</time>
      </trkpt>
      <trkpt lat="42.99208" lon="-0.0108">
        <ele>1666</ele>
        <time>2017-01-18T10:55:52.020Z</time>
      </trkpt>
      <trkpt lat="42.99209" lon="-0.0108">
        <ele>1666</ele>
        <time>2017-01-18T10:55:53.020Z</time>
      </trkpt>
      <trkpt lat="42.99209" lon="-0.01081">
        <ele>1667</ele>
        <time>2017-01-18T10:55:54.020Z</time>
      </trkpt>
      <trkpt lat="42.99209" lon="-0.01081">
        <ele>1667</ele>
        <time>2017-01-18T10:55:55.020Z</time>
      </trkpt>
      <trkpt lat="42.99209" lon="-0.01082">
        <ele>1667</ele>
        <time>2017-01-18T10:55:56.020Z</time>
      </trkpt>
      <trkpt lat="42.9921" lon="-0.01082">
        <ele>1667</ele>
        <time>2017-01-18T10:55:57.020Z</time>
      </trkpt>
      <trkpt lat="42.9921" lon="-0.01083">
        <ele>1667</ele>
        <time>2017-01-18T10:55:58.020Z</time>
      </trkpt>
      <trkpt lat="42.9921" lon="-0.01083">
        <ele>1668</ele>
        <time>2017-01-18T10:55:59.020Z</time>
      </trkpt>
      <trkpt lat="42.99211" lon="-0.01084">
        <ele>1668</ele>
        <time>2017-01-18T10:56:00.020Z</time>
      </trkpt>
      <trkpt lat="42.99211" lon="-0.01084">
        <ele>1668</ele>
        <time>2017-01-18T10:56:01.020Z</time>
      </trkpt>
      <trkpt lat="42.99211" lon="-0.01084">
        <ele>1668</ele>
        <time>2017-01-18T10:56:02.020Z</time>
      </trkpt>
      <trkpt lat="42.99211" lon="-0.01085">
        <ele>1668</ele>
        <time>2017-01-18T10:56:03.020Z</time>
      </trkpt>
      <trkpt lat="42.99212" lon="-0.01085">
        <ele>1668</ele>
        <time>2017-01-18T10:56:04.020Z</time>
      </trkpt>
      <trkpt lat="42.99212" lon="-0.01085">
        <ele>1668</ele>
        <time>2017-01-18T10:56:05.020Z</time>
      </trkpt>
      <trkpt lat="42.99212" lon="-0.01086">
        <ele>1668</ele>
        <time>2017-01-18T10:56:06.020Z</time>
      </trkpt>
      <trkpt lat="42.99212" lon="-0.01086">
        <ele>1668</ele>
        <time>2017-01-18T10:56:07.020Z</time>
      </trkpt>
      <trkpt lat="42.99213" lon="-0.01087">
        <ele>1669</ele>
        <time>2017-01-18T10:56:08.020Z</time>
      </trkpt>
      <trkpt lat="42.99213" lon="-0.01087">
        <ele>1669</ele>
        <time>2017-01-18T10:56:09.020Z</time>
      </trkpt>
      <trkpt lat="42.99213" lon="-0.01088">
        <ele>1669</ele>
        <time>2017-01-18T10:56:10.020Z</time>
      </trkpt>
      <trkpt lat="42.99213" lon="-0.01088">
        <ele>1669</ele>
        <time>2017-01-18T10:56:11.020Z</time>
      </trkpt>
      <trkpt lat="42.99214" lon="-0.01089">
        <ele>1669</ele>
        <time>2017-01-18T10:56:12.020Z</time>
      </trkpt>
      <trkpt lat="42.99214" lon="-0.01089">
        <ele>1669</ele>
        <time>2017-01-18T10:56:13.020Z</time>
      </trkpt>
      <trkpt lat="42.99214" lon="-0.01089">
        <ele>1669</ele>
        <time>2017-01-18T10:56:14.020Z</time>
      </trkpt>
      <trkpt lat="42.99215" lon="-0.0109">
        <ele>1669</ele>
        <time>2017-01-18T10:56:15.020Z</time>
      </trkpt>
      <trkpt lat="42.99215" lon="-0.0109">
        <ele>1669</ele>
        <time>2017-01-18T10:56:16.020Z</time>
      </trkpt>
      <trkpt lat="42.99215" lon="-0.01091">
        <ele>1670</ele>
        <time>2017-01-18T10:56:17.020Z</time>
      </trkpt>
      <trkpt lat="42.99215" lon="-0.01091">
        <ele>1670</ele>
        <time>2017-01-18T10:56:18.020Z</time>
      </trkpt>
      <trkpt lat="42.99215" lon="-0.01092">
        <ele>1670</ele>
        <time>2017-01-18T10:56:19.020Z</time>
      </trkpt>
      <trkpt lat="42.99216" lon="-0.01092">
        <ele>1670</ele>
        <time>2017-01-18T10:56:20.020Z</time>
      </trkpt>
      <trkpt lat="42.99216" lon="-0.01092">
        <ele>1670</ele>
        <time>2017-01-18T10:56:21.020Z</time>
      </trkpt>
      <trkpt lat="42.99216" lon="-0.01093">
        <ele>1670</ele>
        <time>2017-01-18T10:56:22.020Z</time>
      </trkpt>
      <trkpt lat="42.99217" lon="-0.01093">
        <ele>1670</ele>
        <time>2017-01-18T10:56:23.020Z</time>
      </trkpt>
      <trkpt lat="42.99217" lon="-0.01094">
        <ele>1670</ele>
        <time>2017-01-18T10:56:24.020Z</time>
      </trkpt>
      <trkpt lat="42.99217" lon="-0.01094">
        <ele>1670</ele>
        <time>2017-01-18T10:56:25.020Z</time>
      </trkpt>
      <trkpt lat="42.99217" lon="-0.01095">
        <ele>1670</ele>
        <time>2017-01-18T10:56:26.020Z</time>
      </trkpt>
      <trkpt lat="42.99218" lon="-0.01095">
        <ele>1671</ele>
        <time>2017-01-18T10:56:27.020Z</time>
      </trkpt>
      <trkpt lat="42.99218" lon="-0.01095">
        <ele>1671</ele>
        <time>2017-01-18T10:56:28.020Z</time>
      </trkpt>
      <trkpt lat="42.99218" lon="-0.01096">
        <ele>1671</ele>
        <time>2017-01-18T10:56:29.020Z</time>
      </trkpt>
      <trkpt lat="42.99219" lon="-0.01096">
        <ele>1671</ele>
        <time>2017-01-18T10:56:30.020Z</time>
      </trkpt>
      <trkpt lat="42.99219" lon="-0.01097">
        <ele>1671</ele>
        <time>2017-01-18T10:56:31.020Z</time>
      </trkpt>
      <trkpt lat="42.99219" lon="-0.01097">
        <ele>1671</ele>
        <time>2017-01-18T10:56:32.020Z</time>
      </trkpt>
      <trkpt lat="42.9922" lon="-0.01098">
        <ele>1671</ele>
        <time>2017-01-18T10:56:33.020Z</time>
      </trkpt>
      <trkpt lat="42.9922" lon="-0.01098">
        <ele>1671</ele>
        <time>2017-01-18T10:56:34.020Z</time>
      </trkpt>
      <trkpt lat="42.9922" lon="-0.01099">
        <ele>1671</ele>
        <time>2017-01-18T10:56:35.020Z</time>
      </trkpt>
      <trkpt lat="42.9922" lon="-0.01099">
        <ele>1671</ele>
        <time>2017-01-18T10:56:36.020Z</time>
      </trkpt>
      <trkpt lat="42.99221" lon="-0.011">
        <ele>1671</ele>
        <time>2017-01-18T10:56:37.020Z</time>
      </trkpt>
      <trkpt lat="42.99221" lon="-0.011">
        <ele>1670</ele>
        <time>2017-01-18T10:56:38.020Z</time>
      </trkpt>
      <trkpt lat="42.99221" lon="-0.011">
        <ele>1670</ele>
        <time>2017-01-18T10:56:39.020Z</time>
      </trkpt>
      <trkpt lat="42.99222" lon="-0.01101">
        <ele>1670</ele>
        <time>2017-01-18T10:56:40.020Z</time>
      </trkpt>
      <trkpt lat="42.99222" lon="-0.01101">
        <ele>1670</ele>
        <time>2017-01-18T10:56:41.020Z</time>
      </trkpt>
      <trkpt lat="42.99222" lon="-0.01101">
        <ele>1670</ele>
        <time>2017-01-18T10:56:42.020Z</time>
      </trkpt>
      <trkpt lat="42.99222" lon="-0.01102">
        <ele>1670</ele>
        <time>2017-01-18T10:56:43.020Z</time>
      </trkpt>
      <trkpt lat="42.99223" lon="-0.01102">
        <ele>1671</ele>
        <time>2017-01-18T10:56:44.020Z</time>
      </trkpt>
      <trkpt lat="42.99223" lon="-0.01102">
        <ele>1671</ele>
        <time>2017-01-18T10:56:45.020Z</time>
      </trkpt>
      <trkpt lat="42.99223" lon="-0.01103">
        <ele>1671</ele>
        <time>2017-01-18T10:56:46.020Z</time>
      </trkpt>
      <trkpt lat="42.99224" lon="-0.01103">
        <ele>1672</ele>
        <time>2017-01-18T10:56:47.020Z</time>
      </trkpt>
      <trkpt lat="42.99224" lon="-0.01104">
        <ele>1672</ele>
        <time>2017-01-18T10:56:48.020Z</time>
      </trkpt>
      <trkpt lat="42.99224" lon="-0.01104">
        <ele>1673</ele>
        <time>2017-01-18T10:56:49.020Z</time>
      </trkpt>
      <trkpt lat="42.99225" lon="-0.01105">
        <ele>1673</ele>
        <time>2017-01-18T10:56:50.020Z</time>
      </trkpt>
      <trkpt lat="42.99225" lon="-0.01105">
        <ele>1673</ele>
        <time>2017-01-18T10:56:51.020Z</time>
      </trkpt>
      <trkpt lat="42.99225" lon="-0.01105">
        <ele>1672</ele>
        <time>2017-01-18T10:56:52.020Z</time>
      </trkpt>
      <trkpt lat="42.99226" lon="-0.01105">
        <ele>1672</ele>
        <time>2017-01-18T10:56:53.020Z</time>
      </trkpt>
      <trkpt lat="42.99226" lon="-0.01106">
        <ele>1672</ele>
        <time>2017-01-18T10:56:54.020Z</time>
      </trkpt>
      <trkpt lat="42.99226" lon="-0.01106">
        <ele>1673</ele>
        <time>2017-01-18T10:56:55.020Z</time>
      </trkpt>
      <trkpt lat="42.99227" lon="-0.01106">
        <ele>1673</ele>
        <time>2017-01-18T10:56:56.020Z</time>
      </trkpt>
      <trkpt lat="42.99227" lon="-0.01107">
        <ele>1673</ele>
        <time>2017-01-18T10:56:57.020Z</time>
      </trkpt>
      <trkpt lat="42.99227" lon="-0.01107">
        <ele>1673</ele>
        <time>2017-01-18T10:56:58.020Z</time>
      </trkpt>
      <trkpt lat="42.99228" lon="-0.01108">
        <ele>1673</ele>
        <time>2017-01-18T10:56:59.020Z</time>
      </trkpt>
      <trkpt lat="42.99228" lon="-0.01108">
        <ele>1673</ele>
        <time>2017-01-18T10:57:00.020Z</time>
      </trkpt>
      <trkpt lat="42.99229" lon="-0.01108">
        <ele>1673</ele>
        <time>2017-01-18T10:57:01.020Z</time>
      </trkpt>
      <trkpt lat="42.99229" lon="-0.01108">
        <ele>1673</ele>
        <time>2017-01-18T10:57:02.020Z</time>
      </trkpt>
      <trkpt lat="42.99229" lon="-0.01109">
        <ele>1673</ele>
        <time>2017-01-18T10:57:03.020Z</time>
      </trkpt>
      <trkpt lat="42.99229" lon="-0.01109">
        <ele>1674</ele>
        <time>2017-01-18T10:57:04.020Z</time>
      </trkpt>
      <trkpt lat="42.9923" lon="-0.01109">
        <ele>1674</ele>
        <time>2017-01-18T10:57:05.020Z</time>
      </trkpt>
      <trkpt lat="42.9923" lon="-0.0111">
        <ele>1674</ele>
        <time>2017-01-18T10:57:06.020Z</time>
      </trkpt>
      <trkpt lat="42.9923" lon="-0.0111">
        <ele>1674</ele>
        <time>2017-01-18T10:57:07.020Z</time>
      </trkpt>
      <trkpt lat="42.9923" lon="-0.0111">
        <ele>1674</ele>
        <time>2017-01-18T10:57:08.020Z</time>
      </trkpt>
      <trkpt lat="42.99231" lon="-0.01111">
        <ele>1674</ele>
        <time>2017-01-18T10:57:09.020Z</time>
      </trkpt>
      <trkpt lat="42.99231" lon="-0.01111">
        <ele>1674</ele>
        <time>2017-01-18T10:57:10.020Z</time>
      </trkpt>
      <trkpt lat="42.99231" lon="-0.01112">
        <ele>1675</ele>
        <time>2017-01-18T10:57:11.020Z</time>
      </trkpt>
      <trkpt lat="42.99231" lon="-0.01112">
        <ele>1674</ele>
        <time>2017-01-18T10:57:12.020Z</time>
      </trkpt>
      <trkpt lat="42.99232" lon="-0.01112">
        <ele>1675</ele>
        <time>2017-01-18T10:57:13.020Z</time>
      </trkpt>
      <trkpt lat="42.99232" lon="-0.01113">
        <ele>1675</ele>
        <time>2017-01-18T10:57:14.020Z</time>
      </trkpt>
      <trkpt lat="42.99232" lon="-0.01113">
        <ele>1675</ele>
        <time>2017-01-18T10:57:15.020Z</time>
      </trkpt>
      <trkpt lat="42.99232" lon="-0.01114">
        <ele>1675</ele>
        <time>2017-01-18T10:57:16.020Z</time>
      </trkpt>
      <trkpt lat="42.99233" lon="-0.01114">
        <ele>1675</ele>
        <time>2017-01-18T10:57:17.020Z</time>
      </trkpt>
      <trkpt lat="42.99233" lon="-0.01115">
        <ele>1675</ele>
        <time>2017-01-18T10:57:18.020Z</time>
      </trkpt>
      <trkpt lat="42.99233" lon="-0.01115">
        <ele>1675</ele>
        <time>2017-01-18T10:57:19.020Z</time>
      </trkpt>
      <trkpt lat="42.99233" lon="-0.01116">
        <ele>1675</ele>
        <time>2017-01-18T10:57:20.020Z</time>
      </trkpt>
      <trkpt lat="42.99234" lon="-0.01116">
        <ele>1675</ele>
        <time>2017-01-18T10:57:21.020Z</time>
      </trkpt>
      <trkpt lat="42.99234" lon="-0.01116">
        <ele>1676</ele>
        <time>2017-01-18T10:57:22.020Z</time>
      </trkpt>
      <trkpt lat="42.99234" lon="-0.01117">
        <ele>1676</ele>
        <time>2017-01-18T10:57:23.020Z</time>
      </trkpt>
      <trkpt lat="42.99234" lon="-0.01117">
        <ele>1676</ele>
        <time>2017-01-18T10:57:24.020Z</time>
      </trkpt>
      <trkpt lat="42.99235" lon="-0.01118">
        <ele>1676</ele>
        <time>2017-01-18T10:57:25.020Z</time>
      </trkpt>
      <trkpt lat="42.99235" lon="-0.01118">
        <ele>1677</ele>
        <time>2017-01-18T10:57:26.020Z</time>
      </trkpt>
      <trkpt lat="42.99235" lon="-0.01119">
        <ele>1677</ele>
        <time>2017-01-18T10:57:27.020Z</time>
      </trkpt>
      <trkpt lat="42.99236" lon="-0.01119">
        <ele>1677</ele>
        <time>2017-01-18T10:57:28.020Z</time>
      </trkpt>
      <trkpt lat="42.99236" lon="-0.0112">
        <ele>1677</ele>
        <time>2017-01-18T10:57:29.020Z</time>
      </trkpt>
      <trkpt lat="42.99236" lon="-0.0112">
        <ele>1677</ele>
        <time>2017-01-18T10:57:30.020Z</time>
      </trkpt>
      <trkpt lat="42.99237" lon="-0.0112">
        <ele>1677</ele>
        <time>2017-01-18T10:57:31.020Z</time>
      </trkpt>
      <trkpt lat="42.99237" lon="-0.0112">
        <ele>1677</ele>
        <time>2017-01-18T10:57:32.020Z</time>
      </trkpt>
      <trkpt lat="42.99237" lon="-0.01121">
        <ele>1677</ele>
        <time>2017-01-18T10:57:33.020Z</time>
      </trkpt>
      <trkpt lat="42.99238" lon="-0.01121">
        <ele>1677</ele>
        <time>2017-01-18T10:57:34.020Z</time>
      </trkpt>
      <trkpt lat="42.99238" lon="-0.01122">
        <ele>1677</ele>
        <time>2017-01-18T10:57:35.020Z</time>
      </trkpt>
      <trkpt lat="42.99238" lon="-0.01122">
        <ele>1678</ele>
        <time>2017-01-18T10:57:36.020Z</time>
      </trkpt>
      <trkpt lat="42.99239" lon="-0.01122">
        <ele>1678</ele>
        <time>2017-01-18T10:57:37.020Z</time>
      </trkpt>
      <trkpt lat="42.99239" lon="-0.01123">
        <ele>1678</ele>
        <time>2017-01-18T10:57:38.020Z</time>
      </trkpt>
      <trkpt lat="42.99239" lon="-0.01123">
        <ele>1678</ele>
        <time>2017-01-18T10:57:39.020Z</time>
      </trkpt>
      <trkpt lat="42.9924" lon="-0.01123">
        <ele>1678</ele>
        <time>2017-01-18T10:57:40.020Z</time>
      </trkpt>
      <trkpt lat="42.9924" lon="-0.01124">
        <ele>1678</ele>
        <time>2017-01-18T10:57:41.020Z</time>
      </trkpt>
      <trkpt lat="42.9924" lon="-0.01124">
        <ele>1678</ele>
        <time>2017-01-18T10:57:42.020Z</time>
      </trkpt>
      <trkpt lat="42.99241" lon="-0.01124">
        <ele>1678</ele>
        <time>2017-01-18T10:57:43.020Z</time>
      </trkpt>
      <trkpt lat="42.99241" lon="-0.01124">
        <ele>1678</ele>
        <time>2017-01-18T10:57:44.020Z</time>
      </trkpt>
      <trkpt lat="42.99241" lon="-0.01125">
        <ele>1678</ele>
        <time>2017-01-18T10:57:45.020Z</time>
      </trkpt>
      <trkpt lat="42.99242" lon="-0.01125">
        <ele>1678</ele>
        <time>2017-01-18T10:57:46.020Z</time>
      </trkpt>
      <trkpt lat="42.99242" lon="-0.01125">
        <ele>1678</ele>
        <time>2017-01-18T10:57:47.020Z</time>
      </trkpt>
      <trkpt lat="42.99242" lon="-0.01125">
        <ele>1678</ele>
        <time>2017-01-18T10:57:48.020Z</time>
      </trkpt>
      <trkpt lat="42.99243" lon="-0.01126">
        <ele>1678</ele>
        <time>2017-01-18T10:57:49.020Z</time>
      </trkpt>
      <trkpt lat="42.99243" lon="-0.01126">
        <ele>1678</ele>
        <time>2017-01-18T10:57:50.020Z</time>
      </trkpt>
      <trkpt lat="42.99243" lon="-0.01126">
        <ele>1678</ele>
        <time>2017-01-18T10:57:51.020Z</time>
      </trkpt>
      <trkpt lat="42.99244" lon="-0.01127">
        <ele>1678</ele>
        <time>2017-01-18T10:57:52.020Z</time>
      </trkpt>
      <trkpt lat="42.99244" lon="-0.01127">
        <ele>1678</ele>
        <time>2017-01-18T10:57:53.020Z</time>
      </trkpt>
      <trkpt lat="42.99244" lon="-0.01127">
        <ele>1678</ele>
        <time>2017-01-18T10:57:54.020Z</time>
      </trkpt>
      <trkpt lat="42.99244" lon="-0.01128">
        <ele>1678</ele>
        <time>2017-01-18T10:57:55.020Z</time>
      </trkpt>
      <trkpt lat="42.99244" lon="-0.01128">
        <ele>1678</ele>
        <time>2017-01-18T10:57:56.020Z</time>
      </trkpt>
      <trkpt lat="42.99244" lon="-0.01128">
        <ele>1678</ele>
        <time>2017-01-18T10:57:57.020Z</time>
      </trkpt>
      <trkpt lat="42.99244" lon="-0.01129">
        <ele>1678</ele>
        <time>2017-01-18T10:57:58.020Z</time>
      </trkpt>
      <trkpt lat="42.99245" lon="-0.01129">
        <ele>1678</ele>
        <time>2017-01-18T10:57:59.020Z</time>
      </trkpt>
      <trkpt lat="42.99245" lon="-0.01129">
        <ele>1678</ele>
        <time>2017-01-18T10:58:00.020Z</time>
      </trkpt>
      <trkpt lat="42.99245" lon="-0.01129">
        <ele>1677</ele>
        <time>2017-01-18T10:58:01.020Z</time>
      </trkpt>
      <trkpt lat="42.99245" lon="-0.01129">
        <ele>1677</ele>
        <time>2017-01-18T10:58:02.020Z</time>
      </trkpt>
      <trkpt lat="42.99245" lon="-0.01129">
        <ele>1677</ele>
        <time>2017-01-18T10:58:03.020Z</time>
      </trkpt>
      <trkpt lat="42.99245" lon="-0.01129">
        <ele>1677</ele>
        <time>2017-01-18T10:58:04.020Z</time>
      </trkpt>
      <trkpt lat="42.99245" lon="-0.01129">
        <ele>1677</ele>
        <time>2017-01-18T10:58:05.020Z</time>
      </trkpt>
      <trkpt lat="42.99245" lon="-0.01128">
        <ele>1677</ele>
        <time>2017-01-18T10:58:06.020Z</time>
      </trkpt>
      <trkpt lat="42.99245" lon="-0.01128">
        <ele>1677</ele>
        <time>2017-01-18T10:58:07.020Z</time>
      </trkpt>
      <trkpt lat="42.99246" lon="-0.0113">
        <ele>1678</ele>
        <time>2017-01-18T10:58:08.032Z</time>
      </trkpt>
      <trkpt lat="42.99246" lon="-0.0113">
        <ele>1678</ele>
        <time>2017-01-18T10:58:09.032Z</time>
      </trkpt>
      <trkpt lat="42.99246" lon="-0.0113">
        <ele>1678</ele>
        <time>2017-01-18T10:58:10.032Z</time>
      </trkpt>
      <trkpt lat="42.99246" lon="-0.0113">
        <ele>1678</ele>
        <time>2017-01-18T10:58:11.032Z</time>
      </trkpt>
      <trkpt lat="42.99246" lon="-0.0113">
        <ele>1678</ele>
        <time>2017-01-18T10:58:12.032Z</time>
      </trkpt>
      <trkpt lat="42.99246" lon="-0.0113">
        <ele>1679</ele>
        <time>2017-01-18T10:58:13.032Z</time>
      </trkpt>
      <trkpt lat="42.99247" lon="-0.01131">
        <ele>1679</ele>
        <time>2017-01-18T10:58:14.040Z</time>
      </trkpt>
      <trkpt lat="42.99247" lon="-0.01131">
        <ele>1680</ele>
        <time>2017-01-18T10:58:15.040Z</time>
      </trkpt>
      <trkpt lat="42.99247" lon="-0.01132">
        <ele>1680</ele>
        <time>2017-01-18T10:58:16.040Z</time>
      </trkpt>
      <trkpt lat="42.99248" lon="-0.01132">
        <ele>1680</ele>
        <time>2017-01-18T10:58:17.040Z</time>
      </trkpt>
      <trkpt lat="42.99248" lon="-0.01133">
        <ele>1680</ele>
        <time>2017-01-18T10:58:18.040Z</time>
      </trkpt>
      <trkpt lat="42.99248" lon="-0.01133">
        <ele>1680</ele>
        <time>2017-01-18T10:58:19.040Z</time>
      </trkpt>
      <trkpt lat="42.99248" lon="-0.01134">
        <ele>1681</ele>
        <time>2017-01-18T10:58:20.040Z</time>
      </trkpt>
      <trkpt lat="42.99249" lon="-0.01134">
        <ele>1681</ele>
        <time>2017-01-18T10:58:21.040Z</time>
      </trkpt>
      <trkpt lat="42.99249" lon="-0.01135">
        <ele>1681</ele>
        <time>2017-01-18T10:58:22.040Z</time>
      </trkpt>
      <trkpt lat="42.99249" lon="-0.01135">
        <ele>1681</ele>
        <time>2017-01-18T10:58:23.040Z</time>
      </trkpt>
      <trkpt lat="42.9925" lon="-0.01136">
        <ele>1681</ele>
        <time>2017-01-18T10:58:24.040Z</time>
      </trkpt>
      <trkpt lat="42.9925" lon="-0.01136">
        <ele>1681</ele>
        <time>2017-01-18T10:58:25.040Z</time>
      </trkpt>
      <trkpt lat="42.9925" lon="-0.01137">
        <ele>1681</ele>
        <time>2017-01-18T10:58:26.040Z</time>
      </trkpt>
      <trkpt lat="42.9925" lon="-0.01137">
        <ele>1681</ele>
        <time>2017-01-18T10:58:27.040Z</time>
      </trkpt>
      <trkpt lat="42.99251" lon="-0.01138">
        <ele>1681</ele>
        <time>2017-01-18T10:58:28.040Z</time>
      </trkpt>
      <trkpt lat="42.99251" lon="-0.01138">
        <ele>1681</ele>
        <time>2017-01-18T10:58:29.040Z</time>
      </trkpt>
      <trkpt lat="42.99251" lon="-0.01139">
        <ele>1681</ele>
        <time>2017-01-18T10:58:30.040Z</time>
      </trkpt>
      <trkpt lat="42.99252" lon="-0.01139">
        <ele>1681</ele>
        <time>2017-01-18T10:58:31.040Z</time>
      </trkpt>
      <trkpt lat="42.99252" lon="-0.01139">
        <ele>1681</ele>
        <time>2017-01-18T10:58:32.040Z</time>
      </trkpt>
      <trkpt lat="42.99252" lon="-0.0114">
        <ele>1681</ele>
        <time>2017-01-18T10:58:33.040Z</time>
      </trkpt>
      <trkpt lat="42.99252" lon="-0.0114">
        <ele>1681</ele>
        <time>2017-01-18T10:58:34.040Z</time>
      </trkpt>
      <trkpt lat="42.99253" lon="-0.01141">
        <ele>1681</ele>
        <time>2017-01-18T10:58:35.040Z</time>
      </trkpt>
      <trkpt lat="42.99253" lon="-0.01141">
        <ele>1681</ele>
        <time>2017-01-18T10:58:36.040Z</time>
      </trkpt>
      <trkpt lat="42.99253" lon="-0.01141">
        <ele>1682</ele>
        <time>2017-01-18T10:58:37.040Z</time>
      </trkpt>
      <trkpt lat="42.99253" lon="-0.01142">
        <ele>1682</ele>
        <time>2017-01-18T10:58:38.040Z</time>
      </trkpt>
      <trkpt lat="42.99254" lon="-0.01142">
        <ele>1682</ele>
        <time>2017-01-18T10:58:39.040Z</time>
      </trkpt>
      <trkpt lat="42.99254" lon="-0.01143">
        <ele>1682</ele>
        <time>2017-01-18T10:58:40.040Z</time>
      </trkpt>
      <trkpt lat="42.99254" lon="-0.01143">
        <ele>1683</ele>
        <time>2017-01-18T10:58:41.040Z</time>
      </trkpt>
      <trkpt lat="42.99255" lon="-0.01143">
        <ele>1683</ele>
        <time>2017-01-18T10:58:42.040Z</time>
      </trkpt>
      <trkpt lat="42.99255" lon="-0.01144">
        <ele>1683</ele>
        <time>2017-01-18T10:58:43.040Z</time>
      </trkpt>
      <trkpt lat="42.99255" lon="-0.01144">
        <ele>1683</ele>
        <time>2017-01-18T10:58:44.040Z</time>
      </trkpt>
      <trkpt lat="42.99255" lon="-0.01145">
        <ele>1683</ele>
        <time>2017-01-18T10:58:45.040Z</time>
      </trkpt>
      <trkpt lat="42.99256" lon="-0.01145">
        <ele>1683</ele>
        <time>2017-01-18T10:58:46.040Z</time>
      </trkpt>
      <trkpt lat="42.99256" lon="-0.01145">
        <ele>1683</ele>
        <time>2017-01-18T10:58:47.040Z</time>
      </trkpt>
      <trkpt lat="42.99256" lon="-0.01146">
        <ele>1683</ele>
        <time>2017-01-18T10:58:48.040Z</time>
      </trkpt>
      <trkpt lat="42.99257" lon="-0.01146">
        <ele>1683</ele>
        <time>2017-01-18T10:58:49.040Z</time>
      </trkpt>
      <trkpt lat="42.99257" lon="-0.01147">
        <ele>1683</ele>
        <time>2017-01-18T10:58:50.040Z</time>
      </trkpt>
      <trkpt lat="42.99257" lon="-0.01147">
        <ele>1683</ele>
        <time>2017-01-18T10:58:51.040Z</time>
      </trkpt>
      <trkpt lat="42.99258" lon="-0.01148">
        <ele>1683</ele>
        <time>2017-01-18T10:58:52.040Z</time>
      </trkpt>
      <trkpt lat="42.99258" lon="-0.01148">
        <ele>1683</ele>
        <time>2017-01-18T10:58:53.040Z</time>
      </trkpt>
      <trkpt lat="42.99258" lon="-0.01148">
        <ele>1684</ele>
        <time>2017-01-18T10:58:54.040Z</time>
      </trkpt>
      <trkpt lat="42.99258" lon="-0.01149">
        <ele>1683</ele>
        <time>2017-01-18T10:58:55.040Z</time>
      </trkpt>
      <trkpt lat="42.99259" lon="-0.01149">
        <ele>1684</ele>
        <time>2017-01-18T10:58:56.040Z</time>
      </trkpt>
      <trkpt lat="42.99259" lon="-0.01149">
        <ele>1684</ele>
        <time>2017-01-18T10:58:57.040Z</time>
      </trkpt>
      <trkpt lat="42.99259" lon="-0.01149">
        <ele>1684</ele>
        <time>2017-01-18T10:58:58.040Z</time>
      </trkpt>
      <trkpt lat="42.9926" lon="-0.0115">
        <ele>1684</ele>
        <time>2017-01-18T10:58:59.040Z</time>
      </trkpt>
      <trkpt lat="42.9926" lon="-0.0115">
        <ele>1684</ele>
        <time>2017-01-18T10:59:00.040Z</time>
      </trkpt>
      <trkpt lat="42.9926" lon="-0.0115">
        <ele>1684</ele>
        <time>2017-01-18T10:59:01.040Z</time>
      </trkpt>
      <trkpt lat="42.99261" lon="-0.0115">
        <ele>1684</ele>
        <time>2017-01-18T10:59:02.040Z</time>
      </trkpt>
      <trkpt lat="42.99261" lon="-0.0115">
        <ele>1684</ele>
        <time>2017-01-18T10:59:03.040Z</time>
      </trkpt>
      <trkpt lat="42.99262" lon="-0.0115">
        <ele>1684</ele>
        <time>2017-01-18T10:59:04.040Z</time>
      </trkpt>
      <trkpt lat="42.99262" lon="-0.0115">
        <ele>1684</ele>
        <time>2017-01-18T10:59:05.040Z</time>
      </trkpt>
      <trkpt lat="42.99262" lon="-0.0115">
        <ele>1684</ele>
        <time>2017-01-18T10:59:06.040Z</time>
      </trkpt>
      <trkpt lat="42.99263" lon="-0.0115">
        <ele>1684</ele>
        <time>2017-01-18T10:59:07.040Z</time>
      </trkpt>
      <trkpt lat="42.99263" lon="-0.0115">
        <ele>1684</ele>
        <time>2017-01-18T10:59:08.040Z</time>
      </trkpt>
      <trkpt lat="42.99263" lon="-0.0115">
        <ele>1684</ele>
        <time>2017-01-18T10:59:09.040Z</time>
      </trkpt>
      <trkpt lat="42.99264" lon="-0.0115">
        <ele>1684</ele>
        <time>2017-01-18T10:59:10.040Z</time>
      </trkpt>
      <trkpt lat="42.99264" lon="-0.0115">
        <ele>1684</ele>
        <time>2017-01-18T10:59:11.040Z</time>
      </trkpt>
      <trkpt lat="42.99264" lon="-0.0115">
        <ele>1684</ele>
        <time>2017-01-18T10:59:12.040Z</time>
      </trkpt>
      <trkpt lat="42.99265" lon="-0.0115">
        <ele>1684</ele>
        <time>2017-01-18T10:59:13.040Z</time>
      </trkpt>
      <trkpt lat="42.99265" lon="-0.0115">
        <ele>1684</ele>
        <time>2017-01-18T10:59:14.040Z</time>
      </trkpt>
      <trkpt lat="42.99265" lon="-0.0115">
        <ele>1684</ele>
        <time>2017-01-18T10:59:15.040Z</time>
      </trkpt>
      <trkpt lat="42.99266" lon="-0.0115">
        <ele>1685</ele>
        <time>2017-01-18T10:59:16.040Z</time>
      </trkpt>
      <trkpt lat="42.99266" lon="-0.0115">
        <ele>1685</ele>
        <time>2017-01-18T10:59:17.040Z</time>
      </trkpt>
      <trkpt lat="42.99267" lon="-0.0115">
        <ele>1685</ele>
        <time>2017-01-18T10:59:18.040Z</time>
      </trkpt>
      <trkpt lat="42.99267" lon="-0.01149">
        <ele>1684</ele>
        <time>2017-01-18T10:59:19.040Z</time>
      </trkpt>
      <trkpt lat="42.99268" lon="-0.0115">
        <ele>1684</ele>
        <time>2017-01-18T10:59:20.040Z</time>
      </trkpt>
      <trkpt lat="42.99268" lon="-0.01149">
        <ele>1685</ele>
        <time>2017-01-18T10:59:21.040Z</time>
      </trkpt>
      <trkpt lat="42.99268" lon="-0.01149">
        <ele>1685</ele>
        <time>2017-01-18T10:59:22.040Z</time>
      </trkpt>
      <trkpt lat="42.99269" lon="-0.01149">
        <ele>1685</ele>
        <time>2017-01-18T10:59:23.040Z</time>
      </trkpt>
      <trkpt lat="42.99269" lon="-0.01149">
        <ele>1685</ele>
        <time>2017-01-18T10:59:24.040Z</time>
      </trkpt>
      <trkpt lat="42.99269" lon="-0.0115">
        <ele>1685</ele>
        <time>2017-01-18T10:59:25.040Z</time>
      </trkpt>
      <trkpt lat="42.99269" lon="-0.0115">
        <ele>1685</ele>
        <time>2017-01-18T10:59:26.040Z</time>
      </trkpt>
      <trkpt lat="42.9927" lon="-0.0115">
        <ele>1685</ele>
        <time>2017-01-18T10:59:27.040Z</time>
      </trkpt>
      <trkpt lat="42.9927" lon="-0.0115">
        <ele>1686</ele>
        <time>2017-01-18T10:59:28.040Z</time>
      </trkpt>
      <trkpt lat="42.9927" lon="-0.0115">
        <ele>1686</ele>
        <time>2017-01-18T10:59:29.040Z</time>
      </trkpt>
      <trkpt lat="42.9927" lon="-0.01151">
        <ele>1686</ele>
        <time>2017-01-18T10:59:30.040Z</time>
      </trkpt>
      <trkpt lat="42.9927" lon="-0.01151">
        <ele>1687</ele>
        <time>2017-01-18T10:59:31.040Z</time>
      </trkpt>
      <trkpt lat="42.99271" lon="-0.01151">
        <ele>1686</ele>
        <time>2017-01-18T10:59:32.040Z</time>
      </trkpt>
      <trkpt lat="42.99271" lon="-0.01151">
        <ele>1687</ele>
        <time>2017-01-18T10:59:33.040Z</time>
      </trkpt>
      <trkpt lat="42.99271" lon="-0.01152">
        <ele>1687</ele>
        <time>2017-01-18T10:59:34.040Z</time>
      </trkpt>
      <trkpt lat="42.99271" lon="-0.01152">
        <ele>1687</ele>
        <time>2017-01-18T10:59:35.040Z</time>
      </trkpt>
      <trkpt lat="42.99271" lon="-0.01152">
        <ele>1687</ele>
        <time>2017-01-18T10:59:36.040Z</time>
      </trkpt>
      <trkpt lat="42.99271" lon="-0.01152">
        <ele>1688</ele>
        <time>2017-01-18T10:59:37.040Z</time>
      </trkpt>
      <trkpt lat="42.99271" lon="-0.01153">
        <ele>1688</ele>
        <time>2017-01-18T10:59:38.040Z</time>
      </trkpt>
      <trkpt lat="42.99271" lon="-0.01153">
        <ele>1688</ele>
        <time>2017-01-18T10:59:39.040Z</time>
      </trkpt>
      <trkpt lat="42.99271" lon="-0.01153">
        <ele>1688</ele>
        <time>2017-01-18T10:59:40.040Z</time>
      </trkpt>
      <trkpt lat="42.99271" lon="-0.01154">
        <ele>1688</ele>
        <time>2017-01-18T10:59:41.040Z</time>
      </trkpt>
      <trkpt lat="42.99271" lon="-0.01154">
        <ele>1688</ele>
        <time>2017-01-18T10:59:42.040Z</time>
      </trkpt>
      <trkpt lat="42.9927" lon="-0.01154">
        <ele>1688</ele>
        <time>2017-01-18T10:59:43.040Z</time>
      </trkpt>
      <trkpt lat="42.9927" lon="-0.01154">
        <ele>1688</ele>
        <time>2017-01-18T10:59:44.040Z</time>
      </trkpt>
      <trkpt lat="42.99271" lon="-0.01157">
        <ele>1687</ele>
        <time>2017-01-18T10:59:45.048Z</time>
      </trkpt>
      <trkpt lat="42.99271" lon="-0.01157">
        <ele>1687</ele>
        <time>2017-01-18T10:59:46.048Z</time>
      </trkpt>
      <trkpt lat="42.99271" lon="-0.01158">
        <ele>1687</ele>
        <time>2017-01-18T10:59:47.048Z</time>
      </trkpt>
      <trkpt lat="42.99271" lon="-0.01158">
        <ele>1687</ele>
        <time>2017-01-18T10:59:48.048Z</time>
      </trkpt>
      <trkpt lat="42.99271" lon="-0.01159">
        <ele>1687</ele>
        <time>2017-01-18T10:59:49.048Z</time>
      </trkpt>
      <trkpt lat="42.99271" lon="-0.0116">
        <ele>1687</ele>
        <time>2017-01-18T10:59:50.048Z</time>
      </trkpt>
      <trkpt lat="42.99271" lon="-0.01161">
        <ele>1688</ele>
        <time>2017-01-18T10:59:51.048Z</time>
      </trkpt>
      <trkpt lat="42.99271" lon="-0.01161">
        <ele>1688</ele>
        <time>2017-01-18T10:59:52.048Z</time>
      </trkpt>
      <trkpt lat="42.99271" lon="-0.01162">
        <ele>1688</ele>
        <time>2017-01-18T10:59:53.048Z</time>
      </trkpt>
      <trkpt lat="42.99271" lon="-0.01163">
        <ele>1688</ele>
        <time>2017-01-18T10:59:54.048Z</time>
      </trkpt>
      <trkpt lat="42.99271" lon="-0.01164">
        <ele>1688</ele>
        <time>2017-01-18T10:59:55.048Z</time>
      </trkpt>
      <trkpt lat="42.99271" lon="-0.01164">
        <ele>1688</ele>
        <time>2017-01-18T10:59:56.048Z</time>
      </trkpt>
      <trkpt lat="42.99271" lon="-0.01165">
        <ele>1687</ele>
        <time>2017-01-18T10:59:57.048Z</time>
      </trkpt>
      <trkpt lat="42.99271" lon="-0.01166">
        <ele>1687</ele>
        <time>2017-01-18T10:59:58.048Z</time>
      </trkpt>
      <trkpt lat="42.99271" lon="-0.01167">
        <ele>1688</ele>
        <time>2017-01-18T10:59:59.048Z</time>
      </trkpt>
      <trkpt lat="42.99271" lon="-0.01168">
        <ele>1688</ele>
        <time>2017-01-18T11:00:00.048Z</time>
      </trkpt>
      <trkpt lat="42.99271" lon="-0.01168">
        <ele>1688</ele>
        <time>2017-01-18T11:00:01.048Z</time>
      </trkpt>
      <trkpt lat="42.99271" lon="-0.01169">
        <ele>1688</ele>
        <time>2017-01-18T11:00:02.048Z</time>
      </trkpt>
      <trkpt lat="42.99272" lon="-0.0117">
        <ele>1688</ele>
        <time>2017-01-18T11:00:03.048Z</time>
      </trkpt>
      <trkpt lat="42.99272" lon="-0.01171">
        <ele>1688</ele>
        <time>2017-01-18T11:00:04.048Z</time>
      </trkpt>
      <trkpt lat="42.99272" lon="-0.01172">
        <ele>1688</ele>
        <time>2017-01-18T11:00:05.048Z</time>
      </trkpt>
      <trkpt lat="42.99272" lon="-0.01172">
        <ele>1688</ele>
        <time>2017-01-18T11:00:06.048Z</time>
      </trkpt>
      <trkpt lat="42.99272" lon="-0.01173">
        <ele>1688</ele>
        <time>2017-01-18T11:00:07.048Z</time>
      </trkpt>
      <trkpt lat="42.99272" lon="-0.01174">
        <ele>1688</ele>
        <time>2017-01-18T11:00:08.048Z</time>
      </trkpt>
      <trkpt lat="42.99272" lon="-0.01175">
        <ele>1688</ele>
        <time>2017-01-18T11:00:09.048Z</time>
      </trkpt>
      <trkpt lat="42.99273" lon="-0.01175">
        <ele>1688</ele>
        <time>2017-01-18T11:00:10.048Z</time>
      </trkpt>
      <trkpt lat="42.99273" lon="-0.01176">
        <ele>1689</ele>
        <time>2017-01-18T11:00:11.048Z</time>
      </trkpt>
      <trkpt lat="42.99273" lon="-0.01177">
        <ele>1689</ele>
        <time>2017-01-18T11:00:12.048Z</time>
      </trkpt>
      <trkpt lat="42.99273" lon="-0.01177">
        <ele>1689</ele>
        <time>2017-01-18T11:00:13.048Z</time>
      </trkpt>
      <trkpt lat="42.99274" lon="-0.01177">
        <ele>1689</ele>
        <time>2017-01-18T11:00:14.048Z</time>
      </trkpt>
      <trkpt lat="42.99274" lon="-0.01178">
        <ele>1689</ele>
        <time>2017-01-18T11:00:15.048Z</time>
      </trkpt>
      <trkpt lat="42.99274" lon="-0.01178">
        <ele>1689</ele>
        <time>2017-01-18T11:00:16.048Z</time>
      </trkpt>
      <trkpt lat="42.99274" lon="-0.01179">
        <ele>1689</ele>
        <time>2017-01-18T11:00:17.048Z</time>
      </trkpt>
      <trkpt lat="42.99274" lon="-0.01179">
        <ele>1689</ele>
        <time>2017-01-18T11:00:18.048Z</time>
      </trkpt>
      <trkpt lat="42.99275" lon="-0.0118">
        <ele>1689</ele>
        <time>2017-01-18T11:00:19.048Z</time>
      </trkpt>
      <trkpt lat="42.99275" lon="-0.01181">
        <ele>1689</ele>
        <time>2017-01-18T11:00:20.048Z</time>
      </trkpt>
      <trkpt lat="42.99275" lon="-0.01181">
        <ele>1689</ele>
        <time>2017-01-18T11:00:21.048Z</time>
      </trkpt>
      <trkpt lat="42.99275" lon="-0.01182">
        <ele>1689</ele>
        <time>2017-01-18T11:00:22.048Z</time>
      </trkpt>
      <trkpt lat="42.99276" lon="-0.01182">
        <ele>1689</ele>
        <time>2017-01-18T11:00:23.048Z</time>
      </trkpt>
      <trkpt lat="42.99276" lon="-0.01183">
        <ele>1689</ele>
        <time>2017-01-18T11:00:24.048Z</time>
      </trkpt>
      <trkpt lat="42.99276" lon="-0.01183">
        <ele>1689</ele>
        <time>2017-01-18T11:00:25.048Z</time>
      </trkpt>
      <trkpt lat="42.99276" lon="-0.01184">
        <ele>1689</ele>
        <time>2017-01-18T11:00:26.048Z</time>
      </trkpt>
      <trkpt lat="42.99276" lon="-0.01185">
        <ele>1690</ele>
        <time>2017-01-18T11:00:27.048Z</time>
      </trkpt>
      <trkpt lat="42.99276" lon="-0.01185">
        <ele>1690</ele>
        <time>2017-01-18T11:00:28.048Z</time>
      </trkpt>
      <trkpt lat="42.99276" lon="-0.01186">
        <ele>1690</ele>
        <time>2017-01-18T11:00:29.048Z</time>
      </trkpt>
      <trkpt lat="42.99277" lon="-0.01187">
        <ele>1690</ele>
        <time>2017-01-18T11:00:30.048Z</time>
      </trkpt>
      <trkpt lat="42.99277" lon="-0.01187">
        <ele>1690</ele>
        <time>2017-01-18T11:00:31.048Z</time>
      </trkpt>
      <trkpt lat="42.99277" lon="-0.01188">
        <ele>1690</ele>
        <time>2017-01-18T11:00:32.048Z</time>
      </trkpt>
      <trkpt lat="42.99277" lon="-0.01188">
        <ele>1690</ele>
        <time>2017-01-18T11:00:33.048Z</time>
      </trkpt>
      <trkpt lat="42.99277" lon="-0.01189">
        <ele>1690</ele>
        <time>2017-01-18T11:00:34.048Z</time>
      </trkpt>
      <trkpt lat="42.99277" lon="-0.0119">
        <ele>1691</ele>
        <time>2017-01-18T11:00:35.048Z</time>
      </trkpt>
      <trkpt lat="42.99278" lon="-0.0119">
        <ele>1691</ele>
        <time>2017-01-18T11:00:36.048Z</time>
      </trkpt>
      <trkpt lat="42.99278" lon="-0.01191">
        <ele>1691</ele>
        <time>2017-01-18T11:00:37.048Z</time>
      </trkpt>
      <trkpt lat="42.99278" lon="-0.01192">
        <ele>1692</ele>
        <time>2017-01-18T11:00:38.048Z</time>
      </trkpt>
      <trkpt lat="42.99278" lon="-0.01192">
        <ele>1692</ele>
        <time>2017-01-18T11:00:39.048Z</time>
      </trkpt>
      <trkpt lat="42.99278" lon="-0.01193">
        <ele>1693</ele>
        <time>2017-01-18T11:00:40.048Z</time>
      </trkpt>
      <trkpt lat="42.99278" lon="-0.01194">
        <ele>1693</ele>
        <time>2017-01-18T11:00:41.048Z</time>
      </trkpt>
      <trkpt lat="42.99278" lon="-0.01195">
        <ele>1693</ele>
        <time>2017-01-18T11:00:42.048Z</time>
      </trkpt>
      <trkpt lat="42.99278" lon="-0.01195">
        <ele>1693</ele>
        <time>2017-01-18T11:00:43.048Z</time>
      </trkpt>
      <trkpt lat="42.99278" lon="-0.01196">
        <ele>1694</ele>
        <time>2017-01-18T11:00:44.048Z</time>
      </trkpt>
      <trkpt lat="42.99278" lon="-0.01196">
        <ele>1694</ele>
        <time>2017-01-18T11:00:45.048Z</time>
      </trkpt>
      <trkpt lat="42.99278" lon="-0.01197">
        <ele>1693</ele>
        <time>2017-01-18T11:00:46.048Z</time>
      </trkpt>
      <trkpt lat="42.99278" lon="-0.01198">
        <ele>1693</ele>
        <time>2017-01-18T11:00:47.048Z</time>
      </trkpt>
      <trkpt lat="42.99278" lon="-0.01198">
        <ele>1694</ele>
        <time>2017-01-18T11:00:48.048Z</time>
      </trkpt>
      <trkpt lat="42.99278" lon="-0.01199">
        <ele>1693</ele>
        <time>2017-01-18T11:00:49.048Z</time>
      </trkpt>
      <trkpt lat="42.99278" lon="-0.01199">
        <ele>1694</ele>
        <time>2017-01-18T11:00:50.048Z</time>
      </trkpt>
      <trkpt lat="42.99278" lon="-0.012">
        <ele>1694</ele>
        <time>2017-01-18T11:00:51.048Z</time>
      </trkpt>
      <trkpt lat="42.99279" lon="-0.012">
        <ele>1694</ele>
        <time>2017-01-18T11:00:52.048Z</time>
      </trkpt>
      <trkpt lat="42.99279" lon="-0.01201">
        <ele>1694</ele>
        <time>2017-01-18T11:00:53.048Z</time>
      </trkpt>
      <trkpt lat="42.99279" lon="-0.01201">
        <ele>1694</ele>
        <time>2017-01-18T11:00:54.048Z</time>
      </trkpt>
      <trkpt lat="42.99279" lon="-0.01202">
        <ele>1694</ele>
        <time>2017-01-18T11:00:55.048Z</time>
      </trkpt>
      <trkpt lat="42.99279" lon="-0.01203">
        <ele>1694</ele>
        <time>2017-01-18T11:00:56.048Z</time>
      </trkpt>
      <trkpt lat="42.99279" lon="-0.01203">
        <ele>1694</ele>
        <time>2017-01-18T11:00:57.048Z</time>
      </trkpt>
      <trkpt lat="42.99279" lon="-0.01203">
        <ele>1694</ele>
        <time>2017-01-18T11:00:58.048Z</time>
      </trkpt>
      <trkpt lat="42.99279" lon="-0.01203">
        <ele>1694</ele>
        <time>2017-01-18T11:00:59.048Z</time>
      </trkpt>
      <trkpt lat="42.99279" lon="-0.01203">
        <ele>1694</ele>
        <time>2017-01-18T11:01:00.048Z</time>
      </trkpt>
      <trkpt lat="42.99279" lon="-0.01203">
        <ele>1694</ele>
        <time>2017-01-18T11:01:01.048Z</time>
      </trkpt>
      <trkpt lat="42.99279" lon="-0.01204">
        <ele>1694</ele>
        <time>2017-01-18T11:01:02.048Z</time>
      </trkpt>
      <trkpt lat="42.99279" lon="-0.01204">
        <ele>1694</ele>
        <time>2017-01-18T11:01:03.048Z</time>
      </trkpt>
      <trkpt lat="42.9928" lon="-0.01205">
        <ele>1694</ele>
        <time>2017-01-18T11:01:04.048Z</time>
      </trkpt>
      <trkpt lat="42.9928" lon="-0.01206">
        <ele>1694</ele>
        <time>2017-01-18T11:01:05.048Z</time>
      </trkpt>
      <trkpt lat="42.9928" lon="-0.01206">
        <ele>1695</ele>
        <time>2017-01-18T11:01:06.048Z</time>
      </trkpt>
      <trkpt lat="42.99279" lon="-0.01207">
        <ele>1694</ele>
        <time>2017-01-18T11:01:07.048Z</time>
      </trkpt>
      <trkpt lat="42.99279" lon="-0.01208">
        <ele>1695</ele>
        <time>2017-01-18T11:01:08.048Z</time>
      </trkpt>
      <trkpt lat="42.99279" lon="-0.01208">
        <ele>1694</ele>
        <time>2017-01-18T11:01:09.048Z</time>
      </trkpt>
      <trkpt lat="42.99279" lon="-0.01209">
        <ele>1695</ele>
        <time>2017-01-18T11:01:10.048Z</time>
      </trkpt>
      <trkpt lat="42.99279" lon="-0.0121">
        <ele>1695</ele>
        <time>2017-01-18T11:01:11.048Z</time>
      </trkpt>
      <trkpt lat="42.99279" lon="-0.01211">
        <ele>1695</ele>
        <time>2017-01-18T11:01:12.048Z</time>
      </trkpt>
      <trkpt lat="42.99279" lon="-0.01211">
        <ele>1695</ele>
        <time>2017-01-18T11:01:13.048Z</time>
      </trkpt>
      <trkpt lat="42.99279" lon="-0.01212">
        <ele>1695</ele>
        <time>2017-01-18T11:01:14.048Z</time>
      </trkpt>
      <trkpt lat="42.99279" lon="-0.01213">
        <ele>1695</ele>
        <time>2017-01-18T11:01:15.048Z</time>
      </trkpt>
      <trkpt lat="42.9928" lon="-0.01213">
        <ele>1695</ele>
        <time>2017-01-18T11:01:16.048Z</time>
      </trkpt>
      <trkpt lat="42.9928" lon="-0.01214">
        <ele>1695</ele>
        <time>2017-01-18T11:01:17.048Z</time>
      </trkpt>
      <trkpt lat="42.9928" lon="-0.01215">
        <ele>1695</ele>
        <time>2017-01-18T11:01:18.048Z</time>
      </trkpt>
      <trkpt lat="42.9928" lon="-0.01216">
        <ele>1696</ele>
        <time>2017-01-18T11:01:19.048Z</time>
      </trkpt>
      <trkpt lat="42.9928" lon="-0.01217">
        <ele>1696</ele>
        <time>2017-01-18T11:01:20.048Z</time>
      </trkpt>
      <trkpt lat="42.9928" lon="-0.01217">
        <ele>1696</ele>
        <time>2017-01-18T11:01:21.048Z</time>
      </trkpt>
      <trkpt lat="42.9928" lon="-0.01218">
        <ele>1696</ele>
        <time>2017-01-18T11:01:22.048Z</time>
      </trkpt>
      <trkpt lat="42.9928" lon="-0.01219">
        <ele>1696</ele>
        <time>2017-01-18T11:01:23.048Z</time>
      </trkpt>
      <trkpt lat="42.9928" lon="-0.01219">
        <ele>1696</ele>
        <time>2017-01-18T11:01:24.048Z</time>
      </trkpt>
      <trkpt lat="42.9928" lon="-0.0122">
        <ele>1696</ele>
        <time>2017-01-18T11:01:25.048Z</time>
      </trkpt>
      <trkpt lat="42.9928" lon="-0.01221">
        <ele>1696</ele>
        <time>2017-01-18T11:01:26.048Z</time>
      </trkpt>
      <trkpt lat="42.9928" lon="-0.01221">
        <ele>1696</ele>
        <time>2017-01-18T11:01:27.048Z</time>
      </trkpt>
      <trkpt lat="42.9928" lon="-0.01221">
        <ele>1696</ele>
        <time>2017-01-18T11:01:28.048Z</time>
      </trkpt>
      <trkpt lat="42.9928" lon="-0.01221">
        <ele>1696</ele>
        <time>2017-01-18T11:01:29.048Z</time>
      </trkpt>
      <trkpt lat="42.9928" lon="-0.01221">
        <ele>1696</ele>
        <time>2017-01-18T11:01:30.048Z</time>
      </trkpt>
      <trkpt lat="42.9928" lon="-0.01222">
        <ele>1695</ele>
        <time>2017-01-18T11:01:31.056Z</time>
      </trkpt>
      <trkpt lat="42.9928" lon="-0.01222">
        <ele>1696</ele>
        <time>2017-01-18T11:01:32.056Z</time>
      </trkpt>
      <trkpt lat="42.9928" lon="-0.01223">
        <ele>1696</ele>
        <time>2017-01-18T11:01:33.056Z</time>
      </trkpt>
      <trkpt lat="42.9928" lon="-0.01224">
        <ele>1696</ele>
        <time>2017-01-18T11:01:34.056Z</time>
      </trkpt>
      <trkpt lat="42.9928" lon="-0.01225">
        <ele>1696</ele>
        <time>2017-01-18T11:01:35.056Z</time>
      </trkpt>
      <trkpt lat="42.9928" lon="-0.01225">
        <ele>1696</ele>
        <time>2017-01-18T11:01:36.056Z</time>
      </trkpt>
      <trkpt lat="42.99279" lon="-0.01226">
        <ele>1696</ele>
        <time>2017-01-18T11:01:37.056Z</time>
      </trkpt>
      <trkpt lat="42.99279" lon="-0.01227">
        <ele>1697</ele>
        <time>2017-01-18T11:01:38.056Z</time>
      </trkpt>
      <trkpt lat="42.99279" lon="-0.01228">
        <ele>1696</ele>
        <time>2017-01-18T11:01:39.056Z</time>
      </trkpt>
      <trkpt lat="42.99278" lon="-0.01228">
        <ele>1696</ele>
        <time>2017-01-18T11:01:40.056Z</time>
      </trkpt>
      <trkpt lat="42.99278" lon="-0.01229">
        <ele>1696</ele>
        <time>2017-01-18T11:01:41.056Z</time>
      </trkpt>
      <trkpt lat="42.99278" lon="-0.01229">
        <ele>1696</ele>
        <time>2017-01-18T11:01:42.056Z</time>
      </trkpt>
      <trkpt lat="42.99277" lon="-0.0123">
        <ele>1697</ele>
        <time>2017-01-18T11:01:43.056Z</time>
      </trkpt>
      <trkpt lat="42.99277" lon="-0.01231">
        <ele>1697</ele>
        <time>2017-01-18T11:01:44.056Z</time>
      </trkpt>
      <trkpt lat="42.99277" lon="-0.01232">
        <ele>1697</ele>
        <time>2017-01-18T11:01:45.056Z</time>
      </trkpt>
      <trkpt lat="42.99277" lon="-0.01232">
        <ele>1697</ele>
        <time>2017-01-18T11:01:46.056Z</time>
      </trkpt>
      <trkpt lat="42.99277" lon="-0.01233">
        <ele>1697</ele>
        <time>2017-01-18T11:01:47.056Z</time>
      </trkpt>
      <trkpt lat="42.99277" lon="-0.01234">
        <ele>1697</ele>
        <time>2017-01-18T11:01:48.056Z</time>
      </trkpt>
      <trkpt lat="42.99277" lon="-0.01235">
        <ele>1698</ele>
        <time>2017-01-18T11:01:49.056Z</time>
      </trkpt>
      <trkpt lat="42.99277" lon="-0.01236">
        <ele>1698</ele>
        <time>2017-01-18T11:01:50.056Z</time>
      </trkpt>
      <trkpt lat="42.99277" lon="-0.01237">
        <ele>1698</ele>
        <time>2017-01-18T11:01:51.056Z</time>
      </trkpt>
      <trkpt lat="42.99277" lon="-0.01238">
        <ele>1698</ele>
        <time>2017-01-18T11:01:52.056Z</time>
      </trkpt>
      <trkpt lat="42.99277" lon="-0.01239">
        <ele>1698</ele>
        <time>2017-01-18T11:01:53.056Z</time>
      </trkpt>
      <trkpt lat="42.99277" lon="-0.0124">
        <ele>1698</ele>
        <time>2017-01-18T11:01:54.056Z</time>
      </trkpt>
      <trkpt lat="42.99277" lon="-0.01241">
        <ele>1698</ele>
        <time>2017-01-18T11:01:55.056Z</time>
      </trkpt>
      <trkpt lat="42.99277" lon="-0.01242">
        <ele>1698</ele>
        <time>2017-01-18T11:01:56.056Z</time>
      </trkpt>
      <trkpt lat="42.99277" lon="-0.01242">
        <ele>1698</ele>
        <time>2017-01-18T11:01:57.056Z</time>
      </trkpt>
      <trkpt lat="42.99277" lon="-0.01243">
        <ele>1698</ele>
        <time>2017-01-18T11:01:58.056Z</time>
      </trkpt>
      <trkpt lat="42.99276" lon="-0.01244">
        <ele>1699</ele>
        <time>2017-01-18T11:01:59.056Z</time>
      </trkpt>
      <trkpt lat="42.99276" lon="-0.01245">
        <ele>1699</ele>
        <time>2017-01-18T11:02:00.056Z</time>
      </trkpt>
      <trkpt lat="42.99276" lon="-0.01245">
        <ele>1699</ele>
        <time>2017-01-18T11:02:01.056Z</time>
      </trkpt>
      <trkpt lat="42.99277" lon="-0.01246">
        <ele>1699</ele>
        <time>2017-01-18T11:02:02.056Z</time>
      </trkpt>
      <trkpt lat="42.99277" lon="-0.01246">
        <ele>1699</ele>
        <time>2017-01-18T11:02:03.056Z</time>
      </trkpt>
      <trkpt lat="42.99277" lon="-0.01246">
        <ele>1698</ele>
        <time>2017-01-18T11:02:04.056Z</time>
      </trkpt>
      <trkpt lat="42.99277" lon="-0.01246">
        <ele>1699</ele>
        <time>2017-01-18T11:02:05.056Z</time>
      </trkpt>
      <trkpt lat="42.99277" lon="-0.01246">
        <ele>1699</ele>
        <time>2017-01-18T11:02:06.056Z</time>
      </trkpt>
      <trkpt lat="42.99277" lon="-0.01246">
        <ele>1699</ele>
        <time>2017-01-18T11:02:07.056Z</time>
      </trkpt>
      <trkpt lat="42.99277" lon="-0.01246">
        <ele>1699</ele>
        <time>2017-01-18T11:02:08.056Z</time>
      </trkpt>
      <trkpt lat="42.99277" lon="-0.01246">
        <ele>1699</ele>
        <time>2017-01-18T11:02:09.056Z</time>
      </trkpt>
      <trkpt lat="42.99276" lon="-0.0125">
        <ele>1699</ele>
        <time>2017-01-18T11:02:10.064Z</time>
      </trkpt>
      <trkpt lat="42.99275" lon="-0.01251">
        <ele>1699</ele>
        <time>2017-01-18T11:02:11.064Z</time>
      </trkpt>
      <trkpt lat="42.99275" lon="-0.01252">
        <ele>1699</ele>
        <time>2017-01-18T11:02:12.064Z</time>
      </trkpt>
      <trkpt lat="42.99275" lon="-0.01253">
        <ele>1699</ele>
        <time>2017-01-18T11:02:13.064Z</time>
      </trkpt>
      <trkpt lat="42.99275" lon="-0.01253">
        <ele>1699</ele>
        <time>2017-01-18T11:02:14.064Z</time>
      </trkpt>
      <trkpt lat="42.99274" lon="-0.01254">
        <ele>1699</ele>
        <time>2017-01-18T11:02:15.064Z</time>
      </trkpt>
      <trkpt lat="42.99274" lon="-0.01256">
        <ele>1700</ele>
        <time>2017-01-18T11:02:16.064Z</time>
      </trkpt>
      <trkpt lat="42.99274" lon="-0.01257">
        <ele>1699</ele>
        <time>2017-01-18T11:02:17.064Z</time>
      </trkpt>
      <trkpt lat="42.99274" lon="-0.01257">
        <ele>1699</ele>
        <time>2017-01-18T11:02:18.064Z</time>
      </trkpt>
      <trkpt lat="42.99274" lon="-0.01258">
        <ele>1699</ele>
        <time>2017-01-18T11:02:19.064Z</time>
      </trkpt>
      <trkpt lat="42.99274" lon="-0.01259">
        <ele>1699</ele>
        <time>2017-01-18T11:02:20.064Z</time>
      </trkpt>
      <trkpt lat="42.99274" lon="-0.01259">
        <ele>1699</ele>
        <time>2017-01-18T11:02:21.064Z</time>
      </trkpt>
      <trkpt lat="42.99274" lon="-0.0126">
        <ele>1699</ele>
        <time>2017-01-18T11:02:22.064Z</time>
      </trkpt>
      <trkpt lat="42.99274" lon="-0.0126">
        <ele>1700</ele>
        <time>2017-01-18T11:02:23.064Z</time>
      </trkpt>
      <trkpt lat="42.99274" lon="-0.0126">
        <ele>1700</ele>
        <time>2017-01-18T11:02:24.064Z</time>
      </trkpt>
      <trkpt lat="42.99274" lon="-0.0126">
        <ele>1700</ele>
        <time>2017-01-18T11:02:25.064Z</time>
      </trkpt>
      <trkpt lat="42.99274" lon="-0.0126">
        <ele>1700</ele>
        <time>2017-01-18T11:02:26.064Z</time>
      </trkpt>
      <trkpt lat="42.99274" lon="-0.0126">
        <ele>1700</ele>
        <time>2017-01-18T11:02:27.064Z</time>
      </trkpt>
      <trkpt lat="42.99274" lon="-0.0126">
        <ele>1700</ele>
        <time>2017-01-18T11:02:28.064Z</time>
      </trkpt>
      <trkpt lat="42.99275" lon="-0.01261">
        <ele>1699</ele>
        <time>2017-01-18T11:02:29.079Z</time>
      </trkpt>
      <trkpt lat="42.99275" lon="-0.0126">
        <ele>1699</ele>
        <time>2017-01-18T11:02:30.079Z</time>
      </trkpt>
      <trkpt lat="42.99275" lon="-0.0126">
        <ele>1699</ele>
        <time>2017-01-18T11:02:31.079Z</time>
      </trkpt>
      <trkpt lat="42.99275" lon="-0.0126">
        <ele>1698</ele>
        <time>2017-01-18T11:02:32.079Z</time>
      </trkpt>
      <trkpt lat="42.99275" lon="-0.0126">
        <ele>1698</ele>
        <time>2017-01-18T11:02:33.079Z</time>
      </trkpt>
      <trkpt lat="42.99275" lon="-0.0126">
        <ele>1698</ele>
        <time>2017-01-18T11:02:34.079Z</time>
      </trkpt>
      <trkpt lat="42.99275" lon="-0.01262">
        <ele>1701</ele>
        <time>2017-01-18T11:02:35.094Z</time>
      </trkpt>
      <trkpt lat="42.99275" lon="-0.01261">
        <ele>1701</ele>
        <time>2017-01-18T11:02:36.094Z</time>
      </trkpt>
      <trkpt lat="42.99275" lon="-0.01261">
        <ele>1700</ele>
        <time>2017-01-18T11:02:37.094Z</time>
      </trkpt>
      <trkpt lat="42.99275" lon="-0.01261">
        <ele>1700</ele>
        <time>2017-01-18T11:02:38.094Z</time>
      </trkpt>
      <trkpt lat="42.99275" lon="-0.01261">
        <ele>1700</ele>
        <time>2017-01-18T11:02:39.094Z</time>
      </trkpt>
      <trkpt lat="42.99275" lon="-0.01261">
        <ele>1700</ele>
        <time>2017-01-18T11:02:40.094Z</time>
      </trkpt>
      <trkpt lat="42.99275" lon="-0.01261">
        <ele>1700</ele>
        <time>2017-01-18T11:02:41.094Z</time>
      </trkpt>
      <trkpt lat="42.99275" lon="-0.01261">
        <ele>1700</ele>
        <time>2017-01-18T11:02:42.094Z</time>
      </trkpt>
      <trkpt lat="42.99275" lon="-0.0126">
        <ele>1700</ele>
        <time>2017-01-18T11:02:43.094Z</time>
      </trkpt>
      <trkpt lat="42.99275" lon="-0.0126">
        <ele>1700</ele>
        <time>2017-01-18T11:02:44.094Z</time>
      </trkpt>
      <trkpt lat="42.99275" lon="-0.01259">
        <ele>1700</ele>
        <time>2017-01-18T11:02:45.094Z</time>
      </trkpt>
      <trkpt lat="42.99275" lon="-0.01259">
        <ele>1700</ele>
        <time>2017-01-18T11:02:46.094Z</time>
      </trkpt>
      <trkpt lat="42.99276" lon="-0.01258">
        <ele>1700</ele>
        <time>2017-01-18T11:02:47.094Z</time>
      </trkpt>
      <trkpt lat="42.99276" lon="-0.01258">
        <ele>1700</ele>
        <time>2017-01-18T11:02:48.094Z</time>
      </trkpt>
      <trkpt lat="42.99276" lon="-0.01257">
        <ele>1700</ele>
        <time>2017-01-18T11:02:49.094Z</time>
      </trkpt>
      <trkpt lat="42.99276" lon="-0.01257">
        <ele>1700</ele>
        <time>2017-01-18T11:02:50.094Z</time>
      </trkpt>
      <trkpt lat="42.99276" lon="-0.01257">
        <ele>1700</ele>
        <time>2017-01-18T11:02:51.094Z</time>
      </trkpt>
      <trkpt lat="42.99274" lon="-0.01257">
        <ele>1699</ele>
        <time>2017-01-18T11:02:52.102Z</time>
      </trkpt>
      <trkpt lat="42.99274" lon="-0.01258">
        <ele>1699</ele>
        <time>2017-01-18T11:02:53.102Z</time>
      </trkpt>
      <trkpt lat="42.99274" lon="-0.01258">
        <ele>1699</ele>
        <time>2017-01-18T11:02:54.102Z</time>
      </trkpt>
      <trkpt lat="42.99275" lon="-0.01258">
        <ele>1699</ele>
        <time>2017-01-18T11:02:55.102Z</time>
      </trkpt>
      <trkpt lat="42.99275" lon="-0.01258">
        <ele>1699</ele>
        <time>2017-01-18T11:02:56.102Z</time>
      </trkpt>
      <trkpt lat="42.99275" lon="-0.01258">
        <ele>1699</ele>
        <time>2017-01-18T11:02:57.102Z</time>
      </trkpt>
      <trkpt lat="42.99275" lon="-0.01258">
        <ele>1699</ele>
        <time>2017-01-18T11:02:58.102Z</time>
      </trkpt>
      <trkpt lat="42.99275" lon="-0.01258">
        <ele>1699</ele>
        <time>2017-01-18T11:02:59.110Z</time>
      </trkpt>
      <trkpt lat="42.99275" lon="-0.01259">
        <ele>1699</ele>
        <time>2017-01-18T11:03:00.110Z</time>
      </trkpt>
      <trkpt lat="42.99275" lon="-0.01259">
        <ele>1699</ele>
        <time>2017-01-18T11:03:01.110Z</time>
      </trkpt>
      <trkpt lat="42.99275" lon="-0.0126">
        <ele>1699</ele>
        <time>2017-01-18T11:03:02.110Z</time>
      </trkpt>
      <trkpt lat="42.99275" lon="-0.01261">
        <ele>1699</ele>
        <time>2017-01-18T11:03:03.110Z</time>
      </trkpt>
      <trkpt lat="42.99275" lon="-0.01262">
        <ele>1699</ele>
        <time>2017-01-18T11:03:04.110Z</time>
      </trkpt>
      <trkpt lat="42.99275" lon="-0.01262">
        <ele>1699</ele>
        <time>2017-01-18T11:03:05.110Z</time>
      </trkpt>
      <trkpt lat="42.99275" lon="-0.01262">
        <ele>1699</ele>
        <time>2017-01-18T11:03:06.110Z</time>
      </trkpt>
      <trkpt lat="42.99274" lon="-0.01262">
        <ele>1699</ele>
        <time>2017-01-18T11:03:07.110Z</time>
      </trkpt>
      <trkpt lat="42.99274" lon="-0.01262">
        <ele>1698</ele>
        <time>2017-01-18T11:03:08.110Z</time>
      </trkpt>
      <trkpt lat="42.99274" lon="-0.01262">
        <ele>1698</ele>
        <time>2017-01-18T11:03:09.110Z</time>
      </trkpt>
      <trkpt lat="42.99274" lon="-0.01261">
        <ele>1698</ele>
        <time>2017-01-18T11:03:10.110Z</time>
      </trkpt>
      <trkpt lat="42.99274" lon="-0.01261">
        <ele>1698</ele>
        <time>2017-01-18T11:03:11.110Z</time>
      </trkpt>
      <trkpt lat="42.99274" lon="-0.01264">
        <ele>1699</ele>
        <time>2017-01-18T11:03:12.118Z</time>
      </trkpt>
      <trkpt lat="42.99275" lon="-0.01265">
        <ele>1699</ele>
        <time>2017-01-18T11:03:13.118Z</time>
      </trkpt>
      <trkpt lat="42.99275" lon="-0.01266">
        <ele>1698</ele>
        <time>2017-01-18T11:03:14.118Z</time>
      </trkpt>
      <trkpt lat="42.99275" lon="-0.01266">
        <ele>1698</ele>
        <time>2017-01-18T11:03:15.118Z</time>
      </trkpt>
      <trkpt lat="42.99275" lon="-0.01266">
        <ele>1698</ele>
        <time>2017-01-18T11:03:16.118Z</time>
      </trkpt>
      <trkpt lat="42.99275" lon="-0.01266">
        <ele>1698</ele>
        <time>2017-01-18T11:03:17.118Z</time>
      </trkpt>
      <trkpt lat="42.99275" lon="-0.01267">
        <ele>1698</ele>
        <time>2017-01-18T11:03:18.118Z</time>
      </trkpt>
      <trkpt lat="42.99275" lon="-0.01267">
        <ele>1698</ele>
        <time>2017-01-18T11:03:19.118Z</time>
      </trkpt>
      <trkpt lat="42.99275" lon="-0.01267">
        <ele>1698</ele>
        <time>2017-01-18T11:03:20.118Z</time>
      </trkpt>
      <trkpt lat="42.99275" lon="-0.01267">
        <ele>1699</ele>
        <time>2017-01-18T11:03:21.118Z</time>
      </trkpt>
      <trkpt lat="42.99275" lon="-0.01267">
        <ele>1699</ele>
        <time>2017-01-18T11:03:22.118Z</time>
      </trkpt>
      <trkpt lat="42.99275" lon="-0.01267">
        <ele>1699</ele>
        <time>2017-01-18T11:03:23.118Z</time>
      </trkpt>
      <trkpt lat="42.99275" lon="-0.01271">
        <ele>1701</ele>
        <time>2017-01-18T11:03:24.001Z</time>
      </trkpt>
      <trkpt lat="42.99276" lon="-0.01271">
        <ele>1701</ele>
        <time>2017-01-18T11:03:25.001Z</time>
      </trkpt>
      <trkpt lat="42.99276" lon="-0.01272">
        <ele>1701</ele>
        <time>2017-01-18T11:03:26.001Z</time>
      </trkpt>
      <trkpt lat="42.99276" lon="-0.01272">
        <ele>1701</ele>
        <time>2017-01-18T11:03:27.001Z</time>
      </trkpt>
      <trkpt lat="42.99277" lon="-0.01272">
        <ele>1701</ele>
        <time>2017-01-18T11:03:28.001Z</time>
      </trkpt>
      <trkpt lat="42.99277" lon="-0.01272">
        <ele>1701</ele>
        <time>2017-01-18T11:03:29.001Z</time>
      </trkpt>
      <trkpt lat="42.99277" lon="-0.01272">
        <ele>1701</ele>
        <time>2017-01-18T11:03:30.001Z</time>
      </trkpt>
      <trkpt lat="42.99278" lon="-0.01272">
        <ele>1701</ele>
        <time>2017-01-18T11:03:31.001Z</time>
      </trkpt>
      <trkpt lat="42.99278" lon="-0.01272">
        <ele>1701</ele>
        <time>2017-01-18T11:03:32.001Z</time>
      </trkpt>
      <trkpt lat="42.99278" lon="-0.01272">
        <ele>1701</ele>
        <time>2017-01-18T11:03:33.001Z</time>
      </trkpt>
      <trkpt lat="42.99278" lon="-0.01272">
        <ele>1701</ele>
        <time>2017-01-18T11:03:34.001Z</time>
      </trkpt>
      <trkpt lat="42.99277" lon="-0.01272">
        <ele>1701</ele>
        <time>2017-01-18T11:03:35.005Z</time>
      </trkpt>
      <trkpt lat="42.99277" lon="-0.01272">
        <ele>1701</ele>
        <time>2017-01-18T11:03:36.005Z</time>
      </trkpt>
      <trkpt lat="42.99277" lon="-0.01272">
        <ele>1701</ele>
        <time>2017-01-18T11:03:37.005Z</time>
      </trkpt>
      <trkpt lat="42.99277" lon="-0.01272">
        <ele>1701</ele>
        <time>2017-01-18T11:03:38.005Z</time>
      </trkpt>
      <trkpt lat="42.99277" lon="-0.01271">
        <ele>1701</ele>
        <time>2017-01-18T11:03:39.005Z</time>
      </trkpt>
      <trkpt lat="42.99277" lon="-0.01271">
        <ele>1701</ele>
        <time>2017-01-18T11:03:40.005Z</time>
      </trkpt>
      <trkpt lat="42.99277" lon="-0.01272">
        <ele>1698</ele>
        <time>2017-01-18T11:03:41.013Z</time>
      </trkpt>
      <trkpt lat="42.99277" lon="-0.01271">
        <ele>1698</ele>
        <time>2017-01-18T11:03:42.013Z</time>
      </trkpt>
      <trkpt lat="42.99277" lon="-0.01271">
        <ele>1698</ele>
        <time>2017-01-18T11:03:43.013Z</time>
      </trkpt>
      <trkpt lat="42.99277" lon="-0.01271">
        <ele>1699</ele>
        <time>2017-01-18T11:03:44.013Z</time>
      </trkpt>
      <trkpt lat="42.99277" lon="-0.01271">
        <ele>1699</ele>
        <time>2017-01-18T11:03:45.013Z</time>
      </trkpt>
      <trkpt lat="42.99277" lon="-0.01271">
        <ele>1699</ele>
        <time>2017-01-18T11:03:46.013Z</time>
      </trkpt>
      <trkpt lat="42.99276" lon="-0.0127">
        <ele>1698</ele>
        <time>2017-01-18T11:03:47.021Z</time>
      </trkpt>
      <trkpt lat="42.99276" lon="-0.0127">
        <ele>1699</ele>
        <time>2017-01-18T11:03:48.021Z</time>
      </trkpt>
      <trkpt lat="42.99276" lon="-0.0127">
        <ele>1699</ele>
        <time>2017-01-18T11:03:49.021Z</time>
      </trkpt>
      <trkpt lat="42.99276" lon="-0.0127">
        <ele>1698</ele>
        <time>2017-01-18T11:03:50.021Z</time>
      </trkpt>
      <trkpt lat="42.99276" lon="-0.0127">
        <ele>1698</ele>
        <time>2017-01-18T11:03:51.021Z</time>
      </trkpt>
      <trkpt lat="42.99276" lon="-0.0127">
        <ele>1698</ele>
        <time>2017-01-18T11:03:52.021Z</time>
      </trkpt>
      <trkpt lat="42.99276" lon="-0.0127">
        <ele>1698</ele>
        <time>2017-01-18T11:03:53.021Z</time>
      </trkpt>
      <trkpt lat="42.99276" lon="-0.01272">
        <ele>1698</ele>
        <time>2017-01-18T11:03:54.025Z</time>
      </trkpt>
      <trkpt lat="42.99276" lon="-0.01272">
        <ele>1698</ele>
        <time>2017-01-18T11:03:55.025Z</time>
      </trkpt>
      <trkpt lat="42.99277" lon="-0.01273">
        <ele>1698</ele>
        <time>2017-01-18T11:03:56.025Z</time>
      </trkpt>
      <trkpt lat="42.99277" lon="-0.01273">
        <ele>1698</ele>
        <time>2017-01-18T11:03:57.025Z</time>
      </trkpt>
      <trkpt lat="42.99277" lon="-0.01272">
        <ele>1698</ele>
        <time>2017-01-18T11:03:58.025Z</time>
      </trkpt>
      <trkpt lat="42.99277" lon="-0.01272">
        <ele>1698</ele>
        <time>2017-01-18T11:03:59.025Z</time>
      </trkpt>
      <trkpt lat="42.99277" lon="-0.01272">
        <ele>1698</ele>
        <time>2017-01-18T11:04:00.025Z</time>
      </trkpt>
      <trkpt lat="42.99277" lon="-0.01272">
        <ele>1698</ele>
        <time>2017-01-18T11:04:01.025Z</time>
      </trkpt>
      <trkpt lat="42.99277" lon="-0.01272">
        <ele>1698</ele>
        <time>2017-01-18T11:04:02.025Z</time>
      </trkpt>
      <trkpt lat="42.99277" lon="-0.01272">
        <ele>1698</ele>
        <time>2017-01-18T11:04:03.025Z</time>
      </trkpt>
      <trkpt lat="42.99277" lon="-0.01272">
        <ele>1698</ele>
        <time>2017-01-18T11:04:04.025Z</time>
      </trkpt>
      <trkpt lat="42.99276" lon="-0.01272">
        <ele>1698</ele>
        <time>2017-01-18T11:04:05.025Z</time>
      </trkpt>
      <trkpt lat="42.99277" lon="-0.01272">
        <ele>1698</ele>
        <time>2017-01-18T11:04:06.025Z</time>
      </trkpt>
      <trkpt lat="42.99277" lon="-0.01272">
        <ele>1698</ele>
        <time>2017-01-18T11:04:07.025Z</time>
      </trkpt>
      <trkpt lat="42.99277" lon="-0.01272">
        <ele>1698</ele>
        <time>2017-01-18T11:04:08.025Z</time>
      </trkpt>
      <trkpt lat="42.99276" lon="-0.01272">
        <ele>1698</ele>
        <time>2017-01-18T11:04:09.025Z</time>
      </trkpt>
      <trkpt lat="42.99277" lon="-0.01271">
        <ele>1700</ele>
        <time>2017-01-18T11:04:10.033Z</time>
      </trkpt>
      <trkpt lat="42.99277" lon="-0.01271">
        <ele>1700</ele>
        <time>2017-01-18T11:04:11.033Z</time>
      </trkpt>
      <trkpt lat="42.99277" lon="-0.01271">
        <ele>1699</ele>
        <time>2017-01-18T11:04:12.033Z</time>
      </trkpt>
      <trkpt lat="42.99277" lon="-0.01271">
        <ele>1699</ele>
        <time>2017-01-18T11:04:13.033Z</time>
      </trkpt>
      <trkpt lat="42.99277" lon="-0.01271">
        <ele>1700</ele>
        <time>2017-01-18T11:04:14.033Z</time>
      </trkpt>
      <trkpt lat="42.99277" lon="-0.01271">
        <ele>1700</ele>
        <time>2017-01-18T11:04:15.033Z</time>
      </trkpt>
      <trkpt lat="42.99277" lon="-0.01271">
        <ele>1699</ele>
        <time>2017-01-18T11:04:16.033Z</time>
      </trkpt>
      <trkpt lat="42.99277" lon="-0.01271">
        <ele>1699</ele>
        <time>2017-01-18T11:04:17.033Z</time>
      </trkpt>
      <trkpt lat="42.99277" lon="-0.01271">
        <ele>1699</ele>
        <time>2017-01-18T11:04:18.033Z</time>
      </trkpt>
      <trkpt lat="42.99277" lon="-0.01271">
        <ele>1699</ele>
        <time>2017-01-18T11:04:19.033Z</time>
      </trkpt>
      <trkpt lat="42.99276" lon="-0.01271">
        <ele>1698</ele>
        <time>2017-01-18T11:04:20.037Z</time>
      </trkpt>
      <trkpt lat="42.99276" lon="-0.01271">
        <ele>1698</ele>
        <time>2017-01-18T11:04:21.037Z</time>
      </trkpt>
      <trkpt lat="42.99276" lon="-0.01271">
        <ele>1698</ele>
        <time>2017-01-18T11:04:22.037Z</time>
      </trkpt>
      <trkpt lat="42.99276" lon="-0.01271">
        <ele>1698</ele>
        <time>2017-01-18T11:04:23.037Z</time>
      </trkpt>
      <trkpt lat="42.99276" lon="-0.01271">
        <ele>1698</ele>
        <time>2017-01-18T11:04:24.037Z</time>
      </trkpt>
      <trkpt lat="42.99276" lon="-0.01271">
        <ele>1698</ele>
        <time>2017-01-18T11:04:25.037Z</time>
      </trkpt>
      <trkpt lat="42.99276" lon="-0.0127">
        <ele>1698</ele>
        <time>2017-01-18T11:04:26.037Z</time>
      </trkpt>
      <trkpt lat="42.99276" lon="-0.0127">
        <ele>1698</ele>
        <time>2017-01-18T11:04:27.037Z</time>
      </trkpt>
      <trkpt lat="42.99276" lon="-0.0127">
        <ele>1698</ele>
        <time>2017-01-18T11:04:28.037Z</time>
      </trkpt>
      <trkpt lat="42.99276" lon="-0.0127">
        <ele>1698</ele>
        <time>2017-01-18T11:04:29.037Z</time>
      </trkpt>
      <trkpt lat="42.99276" lon="-0.0127">
        <ele>1698</ele>
        <time>2017-01-18T11:04:30.037Z</time>
      </trkpt>
      <trkpt lat="42.99275" lon="-0.01269">
        <ele>1699</ele>
        <time>2017-01-18T11:04:31.053Z</time>
      </trkpt>
      <trkpt lat="42.99275" lon="-0.01269">
        <ele>1699</ele>
        <time>2017-01-18T11:04:32.053Z</time>
      </trkpt>
      <trkpt lat="42.99275" lon="-0.01269">
        <ele>1699</ele>
        <time>2017-01-18T11:04:33.053Z</time>
      </trkpt>
      <trkpt lat="42.99275" lon="-0.01269">
        <ele>1699</ele>
        <time>2017-01-18T11:04:34.053Z</time>
      </trkpt>
      <trkpt lat="42.99275" lon="-0.01269">
        <ele>1699</ele>
        <time>2017-01-18T11:04:35.053Z</time>
      </trkpt>
      <trkpt lat="42.99276" lon="-0.01269">
        <ele>1699</ele>
        <time>2017-01-18T11:04:36.053Z</time>
      </trkpt>
      <trkpt lat="42.99275" lon="-0.01269">
        <ele>1699</ele>
        <time>2017-01-18T11:04:37.069Z</time>
      </trkpt>
      <trkpt lat="42.99275" lon="-0.0127">
        <ele>1699</ele>
        <time>2017-01-18T11:04:38.069Z</time>
      </trkpt>
      <trkpt lat="42.99275" lon="-0.01271">
        <ele>1699</ele>
        <time>2017-01-18T11:04:39.069Z</time>
      </trkpt>
      <trkpt lat="42.99275" lon="-0.01271">
        <ele>1699</ele>
        <time>2017-01-18T11:04:40.069Z</time>
      </trkpt>
      <trkpt lat="42.99276" lon="-0.01271">
        <ele>1699</ele>
        <time>2017-01-18T11:04:41.069Z</time>
      </trkpt>
      <trkpt lat="42.99276" lon="-0.01271">
        <ele>1699</ele>
        <time>2017-01-18T11:04:42.069Z</time>
      </trkpt>
      <trkpt lat="42.99276" lon="-0.01271">
        <ele>1699</ele>
        <time>2017-01-18T11:04:43.069Z</time>
      </trkpt>
      <trkpt lat="42.99276" lon="-0.01271">
        <ele>1699</ele>
        <time>2017-01-18T11:04:44.069Z</time>
      </trkpt>
      <trkpt lat="42.99276" lon="-0.01271">
        <ele>1699</ele>
        <time>2017-01-18T11:04:45.069Z</time>
      </trkpt>
      <trkpt lat="42.99275" lon="-0.01269">
        <ele>1699</ele>
        <time>2017-01-18T11:04:46.081Z</time>
      </trkpt>
      <trkpt lat="42.99275" lon="-0.01269">
        <ele>1699</ele>
        <time>2017-01-18T11:04:47.081Z</time>
      </trkpt>
      <trkpt lat="42.99276" lon="-0.01268">
        <ele>1699</ele>
        <time>2017-01-18T11:04:48.081Z</time>
      </trkpt>
      <trkpt lat="42.99276" lon="-0.01268">
        <ele>1699</ele>
        <time>2017-01-18T11:04:49.081Z</time>
      </trkpt>
      <trkpt lat="42.99276" lon="-0.01268">
        <ele>1698</ele>
        <time>2017-01-18T11:04:50.081Z</time>
      </trkpt>
      <trkpt lat="42.99276" lon="-0.01268">
        <ele>1698</ele>
        <time>2017-01-18T11:04:51.081Z</time>
      </trkpt>
      <trkpt lat="42.99276" lon="-0.01268">
        <ele>1698</ele>
        <time>2017-01-18T11:04:52.081Z</time>
      </trkpt>
      <trkpt lat="42.99276" lon="-0.01267">
        <ele>1698</ele>
        <time>2017-01-18T11:04:53.081Z</time>
      </trkpt>
      <trkpt lat="42.99276" lon="-0.01267">
        <ele>1698</ele>
        <time>2017-01-18T11:04:54.081Z</time>
      </trkpt>
      <trkpt lat="42.99275" lon="-0.01267">
        <ele>1697</ele>
        <time>2017-01-18T11:04:55.081Z</time>
      </trkpt>
      <trkpt lat="42.99275" lon="-0.0127">
        <ele>1700</ele>
        <time>2017-01-18T11:04:56.085Z</time>
      </trkpt>
      <trkpt lat="42.99275" lon="-0.0127">
        <ele>1699</ele>
        <time>2017-01-18T11:04:57.085Z</time>
      </trkpt>
      <trkpt lat="42.99275" lon="-0.0127">
        <ele>1699</ele>
        <time>2017-01-18T11:04:58.085Z</time>
      </trkpt>
      <trkpt lat="42.99275" lon="-0.01271">
        <ele>1699</ele>
        <time>2017-01-18T11:04:59.085Z</time>
      </trkpt>
      <trkpt lat="42.99275" lon="-0.01271">
        <ele>1699</ele>
        <time>2017-01-18T11:05:00.085Z</time>
      </trkpt>
      <trkpt lat="42.99275" lon="-0.01271">
        <ele>1698</ele>
        <time>2017-01-18T11:05:01.085Z</time>
      </trkpt>
      <trkpt lat="42.99275" lon="-0.01271">
        <ele>1698</ele>
        <time>2017-01-18T11:05:02.085Z</time>
      </trkpt>
      <trkpt lat="42.99275" lon="-0.01272">
        <ele>1697</ele>
        <time>2017-01-18T11:05:03.085Z</time>
      </trkpt>
      <trkpt lat="42.99276" lon="-0.01272">
        <ele>1697</ele>
        <time>2017-01-18T11:05:04.085Z</time>
      </trkpt>
      <trkpt lat="42.99276" lon="-0.01272">
        <ele>1698</ele>
        <time>2017-01-18T11:05:05.085Z</time>
      </trkpt>
      <trkpt lat="42.99276" lon="-0.01271">
        <ele>1698</ele>
        <time>2017-01-18T11:05:06.085Z</time>
      </trkpt>
      <trkpt lat="42.99276" lon="-0.01271">
        <ele>1697</ele>
        <time>2017-01-18T11:05:07.085Z</time>
      </trkpt>
      <trkpt lat="42.99276" lon="-0.01271">
        <ele>1698</ele>
        <time>2017-01-18T11:05:08.085Z</time>
      </trkpt>
      <trkpt lat="42.99276" lon="-0.01271">
        <ele>1698</ele>
        <time>2017-01-18T11:05:09.085Z</time>
      </trkpt>
      <trkpt lat="42.99276" lon="-0.01271">
        <ele>1699</ele>
        <time>2017-01-18T11:05:10.085Z</time>
      </trkpt>
      <trkpt lat="42.99277" lon="-0.01271">
        <ele>1698</ele>
        <time>2017-01-18T11:05:11.085Z</time>
      </trkpt>
      <trkpt lat="42.99277" lon="-0.01271">
        <ele>1699</ele>
        <time>2017-01-18T11:05:12.085Z</time>
      </trkpt>
      <trkpt lat="42.99277" lon="-0.01271">
        <ele>1699</ele>
        <time>2017-01-18T11:05:13.085Z</time>
      </trkpt>
      <trkpt lat="42.99276" lon="-0.01271">
        <ele>1699</ele>
        <time>2017-01-18T11:05:14.093Z</time>
      </trkpt>
      <trkpt lat="42.99276" lon="-0.01271">
        <ele>1699</ele>
        <time>2017-01-18T11:05:15.093Z</time>
      </trkpt>
      <trkpt lat="42.99276" lon="-0.01271">
        <ele>1699</ele>
        <time>2017-01-18T11:05:16.093Z</time>
      </trkpt>
      <trkpt lat="42.99276" lon="-0.01271">
        <ele>1699</ele>
        <time>2017-01-18T11:05:17.093Z</time>
      </trkpt>
      <trkpt lat="42.99276" lon="-0.01271">
        <ele>1698</ele>
        <time>2017-01-18T11:05:18.093Z</time>
      </trkpt>
      <trkpt lat="42.99276" lon="-0.01271">
        <ele>1698</ele>
        <time>2017-01-18T11:05:19.093Z</time>
      </trkpt>
      <trkpt lat="42.99275" lon="-0.01271">
        <ele>1698</ele>
        <time>2017-01-18T11:05:20.101Z</time>
      </trkpt>
      <trkpt lat="42.99276" lon="-0.01271">
        <ele>1698</ele>
        <time>2017-01-18T11:05:21.101Z</time>
      </trkpt>
      <trkpt lat="42.99276" lon="-0.01271">
        <ele>1698</ele>
        <time>2017-01-18T11:05:22.101Z</time>
      </trkpt>
      <trkpt lat="42.99276" lon="-0.01271">
        <ele>1698</ele>
        <time>2017-01-18T11:05:23.101Z</time>
      </trkpt>
      <trkpt lat="42.99276" lon="-0.01271">
        <ele>1698</ele>
        <time>2017-01-18T11:05:24.101Z</time>
      </trkpt>
      <trkpt lat="42.99276" lon="-0.01271">
        <ele>1698</ele>
        <time>2017-01-18T11:05:25.101Z</time>
      </trkpt>
      <trkpt lat="42.99276" lon="-0.0127">
        <ele>1698</ele>
        <time>2017-01-18T11:05:26.108Z</time>
      </trkpt>
      <trkpt lat="42.99276" lon="-0.0127">
        <ele>1698</ele>
        <time>2017-01-18T11:05:27.108Z</time>
      </trkpt>
      <trkpt lat="42.99275" lon="-0.0127">
        <ele>1698</ele>
        <time>2017-01-18T11:05:28.108Z</time>
      </trkpt>
      <trkpt lat="42.99275" lon="-0.0127">
        <ele>1698</ele>
        <time>2017-01-18T11:05:29.108Z</time>
      </trkpt>
      <trkpt lat="42.99275" lon="-0.01271">
        <ele>1698</ele>
        <time>2017-01-18T11:05:30.108Z</time>
      </trkpt>
      <trkpt lat="42.99275" lon="-0.01271">
        <ele>1698</ele>
        <time>2017-01-18T11:05:31.108Z</time>
      </trkpt>
      <trkpt lat="42.99275" lon="-0.0127">
        <ele>1698</ele>
        <time>2017-01-18T11:05:32.108Z</time>
      </trkpt>
      <trkpt lat="42.99275" lon="-0.0127">
        <ele>1698</ele>
        <time>2017-01-18T11:05:33.108Z</time>
      </trkpt>
      <trkpt lat="42.99275" lon="-0.0127">
        <ele>1698</ele>
        <time>2017-01-18T11:05:34.108Z</time>
      </trkpt>
      <trkpt lat="42.99275" lon="-0.01269">
        <ele>1698</ele>
        <time>2017-01-18T11:05:35.108Z</time>
      </trkpt>
      <trkpt lat="42.99275" lon="-0.01269">
        <ele>1698</ele>
        <time>2017-01-18T11:05:36.108Z</time>
      </trkpt>
      <trkpt lat="42.99275" lon="-0.01268">
        <ele>1698</ele>
        <time>2017-01-18T11:05:37.108Z</time>
      </trkpt>
      <trkpt lat="42.99275" lon="-0.01268">
        <ele>1697</ele>
        <time>2017-01-18T11:05:38.108Z</time>
      </trkpt>
      <trkpt lat="42.99275" lon="-0.01268">
        <ele>1697</ele>
        <time>2017-01-18T11:05:39.108Z</time>
      </trkpt>
      <trkpt lat="42.99275" lon="-0.01267">
        <ele>1697</ele>
        <time>2017-01-18T11:05:40.108Z</time>
      </trkpt>
      <trkpt lat="42.99275" lon="-0.01267">
        <ele>1698</ele>
        <time>2017-01-18T11:05:41.108Z</time>
      </trkpt>
      <trkpt lat="42.99275" lon="-0.01267">
        <ele>1698</ele>
        <time>2017-01-18T11:05:42.108Z</time>
      </trkpt>
      <trkpt lat="42.99275" lon="-0.01267">
        <ele>1698</ele>
        <time>2017-01-18T11:05:43.108Z</time>
      </trkpt>
      <trkpt lat="42.99275" lon="-0.0127">
        <ele>1697</ele>
        <time>2017-01-18T11:05:44.119Z</time>
      </trkpt>
      <trkpt lat="42.99275" lon="-0.01271">
        <ele>1697</ele>
        <time>2017-01-18T11:05:45.119Z</time>
      </trkpt>
      <trkpt lat="42.99276" lon="-0.01271">
        <ele>1697</ele>
        <time>2017-01-18T11:05:46.119Z</time>
      </trkpt>
      <trkpt lat="42.99276" lon="-0.01272">
        <ele>1697</ele>
        <time>2017-01-18T11:05:47.119Z</time>
      </trkpt>
      <trkpt lat="42.99276" lon="-0.01272">
        <ele>1697</ele>
        <time>2017-01-18T11:05:48.119Z</time>
      </trkpt>
      <trkpt lat="42.99276" lon="-0.01272">
        <ele>1697</ele>
        <time>2017-01-18T11:05:49.119Z</time>
      </trkpt>
      <trkpt lat="42.99276" lon="-0.01272">
        <ele>1697</ele>
        <time>2017-01-18T11:05:50.119Z</time>
      </trkpt>
      <trkpt lat="42.99276" lon="-0.01272">
        <ele>1697</ele>
        <time>2017-01-18T11:05:51.119Z</time>
      </trkpt>
      <trkpt lat="42.99276" lon="-0.01272">
        <ele>1697</ele>
        <time>2017-01-18T11:05:52.119Z</time>
      </trkpt>
      <trkpt lat="42.99276" lon="-0.01272">
        <ele>1697</ele>
        <time>2017-01-18T11:05:53.119Z</time>
      </trkpt>
      <trkpt lat="42.99276" lon="-0.01272">
        <ele>1697</ele>
        <time>2017-01-18T11:05:54.119Z</time>
      </trkpt>
      <trkpt lat="42.99277" lon="-0.01271">
        <ele>1698</ele>
        <time>2017-01-18T11:05:55.119Z</time>
      </trkpt>
      <trkpt lat="42.99277" lon="-0.01271">
        <ele>1698</ele>
        <time>2017-01-18T11:05:57.005Z</time>
      </trkpt>
      <trkpt lat="42.99277" lon="-0.01271">
        <ele>1698</ele>
        <time>2017-01-18T11:05:58.005Z</time>
      </trkpt>
      <trkpt lat="42.99277" lon="-0.01271">
        <ele>1698</ele>
        <time>2017-01-18T11:05:59.005Z</time>
      </trkpt>
      <trkpt lat="42.99277" lon="-0.01271">
        <ele>1698</ele>
        <time>2017-01-18T11:06:00.005Z</time>
      </trkpt>
      <trkpt lat="42.99277" lon="-0.01272">
        <ele>1698</ele>
        <time>2017-01-18T11:06:01.005Z</time>
      </trkpt>
      <trkpt lat="42.99277" lon="-0.01272">
        <ele>1698</ele>
        <time>2017-01-18T11:06:02.005Z</time>
      </trkpt>
      <trkpt lat="42.99278" lon="-0.01272">
        <ele>1698</ele>
        <time>2017-01-18T11:06:03.005Z</time>
      </trkpt>
      <trkpt lat="42.99278" lon="-0.01272">
        <ele>1698</ele>
        <time>2017-01-18T11:06:04.005Z</time>
      </trkpt>
      <trkpt lat="42.99277" lon="-0.01272">
        <ele>1698</ele>
        <time>2017-01-18T11:06:05.005Z</time>
      </trkpt>
      <trkpt lat="42.99277" lon="-0.01272">
        <ele>1698</ele>
        <time>2017-01-18T11:06:06.005Z</time>
      </trkpt>
      <trkpt lat="42.99277" lon="-0.01272">
        <ele>1698</ele>
        <time>2017-01-18T11:06:07.005Z</time>
      </trkpt>
      <trkpt lat="42.99277" lon="-0.01272">
        <ele>1698</ele>
        <time>2017-01-18T11:06:08.005Z</time>
      </trkpt>
      <trkpt lat="42.99276" lon="-0.01269">
        <ele>1699</ele>
        <time>2017-01-18T11:06:09.012Z</time>
      </trkpt>
      <trkpt lat="42.99276" lon="-0.01268">
        <ele>1699</ele>
        <time>2017-01-18T11:06:10.012Z</time>
      </trkpt>
      <trkpt lat="42.99276" lon="-0.01268">
        <ele>1699</ele>
        <time>2017-01-18T11:06:11.012Z</time>
      </trkpt>
      <trkpt lat="42.99277" lon="-0.01267">
        <ele>1699</ele>
        <time>2017-01-18T11:06:12.012Z</time>
      </trkpt>
      <trkpt lat="42.99277" lon="-0.01267">
        <ele>1699</ele>
        <time>2017-01-18T11:06:13.012Z</time>
      </trkpt>
      <trkpt lat="42.99277" lon="-0.01267">
        <ele>1699</ele>
        <time>2017-01-18T11:06:14.012Z</time>
      </trkpt>
      <trkpt lat="42.99277" lon="-0.01267">
        <ele>1699</ele>
        <time>2017-01-18T11:06:15.012Z</time>
      </trkpt>
      <trkpt lat="42.99277" lon="-0.01267">
        <ele>1699</ele>
        <time>2017-01-18T11:06:16.012Z</time>
      </trkpt>
      <trkpt lat="42.99277" lon="-0.01267">
        <ele>1699</ele>
        <time>2017-01-18T11:06:17.012Z</time>
      </trkpt>
      <trkpt lat="42.99276" lon="-0.01267">
        <ele>1698</ele>
        <time>2017-01-18T11:06:18.012Z</time>
      </trkpt>
      <trkpt lat="42.99276" lon="-0.01268">
        <ele>1696</ele>
        <time>2017-01-18T11:06:19.019Z</time>
      </trkpt>
      <trkpt lat="42.99276" lon="-0.01268">
        <ele>1697</ele>
        <time>2017-01-18T11:06:20.019Z</time>
      </trkpt>
      <trkpt lat="42.99276" lon="-0.01268">
        <ele>1697</ele>
        <time>2017-01-18T11:06:21.019Z</time>
      </trkpt>
      <trkpt lat="42.99276" lon="-0.01268">
        <ele>1696</ele>
        <time>2017-01-18T11:06:22.019Z</time>
      </trkpt>
      <trkpt lat="42.99276" lon="-0.01266">
        <ele>1695</ele>
        <time>2017-01-18T11:06:24.019Z</time>
      </trkpt>
      <trkpt lat="42.99276" lon="-0.01267">
        <ele>1695</ele>
        <time>2017-01-18T11:06:25.019Z</time>
      </trkpt>
      <trkpt lat="42.99276" lon="-0.01267">
        <ele>1695</ele>
        <time>2017-01-18T11:06:26.019Z</time>
      </trkpt>
      <trkpt lat="42.99276" lon="-0.01267">
        <ele>1695</ele>
        <time>2017-01-18T11:06:27.019Z</time>
      </trkpt>
      <trkpt lat="42.99276" lon="-0.01267">
        <ele>1695</ele>
        <time>2017-01-18T11:06:28.019Z</time>
      </trkpt>
      <trkpt lat="42.99276" lon="-0.01267">
        <ele>1695</ele>
        <time>2017-01-18T11:06:29.019Z</time>
      </trkpt>
      <trkpt lat="42.99275" lon="-0.01268">
        <ele>1698</ele>
        <time>2017-01-18T11:06:30.023Z</time>
      </trkpt>
      <trkpt lat="42.99275" lon="-0.01268">
        <ele>1698</ele>
        <time>2017-01-18T11:06:31.023Z</time>
      </trkpt>
      <trkpt lat="42.99275" lon="-0.01268">
        <ele>1698</ele>
        <time>2017-01-18T11:06:32.023Z</time>
      </trkpt>
      <trkpt lat="42.99275" lon="-0.01268">
        <ele>1698</ele>
        <time>2017-01-18T11:06:33.023Z</time>
      </trkpt>
      <trkpt lat="42.99275" lon="-0.01268">
        <ele>1697</ele>
        <time>2017-01-18T11:06:34.023Z</time>
      </trkpt>
      <trkpt lat="42.99275" lon="-0.0127">
        <ele>1697</ele>
        <time>2017-01-18T11:06:36.023Z</time>
      </trkpt>
      <trkpt lat="42.99275" lon="-0.01271">
        <ele>1697</ele>
        <time>2017-01-18T11:06:37.023Z</time>
      </trkpt>
      <trkpt lat="42.99276" lon="-0.01271">
        <ele>1698</ele>
        <time>2017-01-18T11:06:38.023Z</time>
      </trkpt>
      <trkpt lat="42.99276" lon="-0.01272">
        <ele>1698</ele>
        <time>2017-01-18T11:06:39.023Z</time>
      </trkpt>
      <trkpt lat="42.99276" lon="-0.01272">
        <ele>1698</ele>
        <time>2017-01-18T11:06:40.023Z</time>
      </trkpt>
      <trkpt lat="42.99276" lon="-0.01272">
        <ele>1697</ele>
        <time>2017-01-18T11:06:41.023Z</time>
      </trkpt>
      <trkpt lat="42.99276" lon="-0.01272">
        <ele>1697</ele>
        <time>2017-01-18T11:06:42.023Z</time>
      </trkpt>
      <trkpt lat="42.99276" lon="-0.01272">
        <ele>1697</ele>
        <time>2017-01-18T11:06:43.023Z</time>
      </trkpt>
      <trkpt lat="42.99276" lon="-0.01272">
        <ele>1697</ele>
        <time>2017-01-18T11:06:44.023Z</time>
      </trkpt>
      <trkpt lat="42.99276" lon="-0.01272">
        <ele>1697</ele>
        <time>2017-01-18T11:06:45.023Z</time>
      </trkpt>
      <trkpt lat="42.99276" lon="-0.01272">
        <ele>1697</ele>
        <time>2017-01-18T11:06:46.023Z</time>
      </trkpt>
      <trkpt lat="42.99276" lon="-0.01272">
        <ele>1697</ele>
        <time>2017-01-18T11:06:47.023Z</time>
      </trkpt>
      <trkpt lat="42.99277" lon="-0.0127">
        <ele>1698</ele>
        <time>2017-01-18T11:06:48.031Z</time>
      </trkpt>
      <trkpt lat="42.99277" lon="-0.0127">
        <ele>1698</ele>
        <time>2017-01-18T11:06:49.031Z</time>
      </trkpt>
      <trkpt lat="42.99276" lon="-0.0127">
        <ele>1698</ele>
        <time>2017-01-18T11:06:50.031Z</time>
      </trkpt>
      <trkpt lat="42.99276" lon="-0.01269">
        <ele>1698</ele>
        <time>2017-01-18T11:06:51.031Z</time>
      </trkpt>
      <trkpt lat="42.99276" lon="-0.01269">
        <ele>1698</ele>
        <time>2017-01-18T11:06:52.031Z</time>
      </trkpt>
      <trkpt lat="42.99276" lon="-0.01268">
        <ele>1698</ele>
        <time>2017-01-18T11:06:53.031Z</time>
      </trkpt>
      <trkpt lat="42.99276" lon="-0.01268">
        <ele>1697</ele>
        <time>2017-01-18T11:06:54.031Z</time>
      </trkpt>
      <trkpt lat="42.99277" lon="-0.01268">
        <ele>1697</ele>
        <time>2017-01-18T11:06:55.031Z</time>
      </trkpt>
      <trkpt lat="42.99277" lon="-0.01268">
        <ele>1697</ele>
        <time>2017-01-18T11:06:56.031Z</time>
      </trkpt>
      <trkpt lat="42.99277" lon="-0.01268">
        <ele>1697</ele>
        <time>2017-01-18T11:06:57.031Z</time>
      </trkpt>
      <trkpt lat="42.99277" lon="-0.01268">
        <ele>1697</ele>
        <time>2017-01-18T11:06:58.031Z</time>
      </trkpt>
      <trkpt lat="42.99277" lon="-0.01268">
        <ele>1696</ele>
        <time>2017-01-18T11:06:59.031Z</time>
      </trkpt>
      <trkpt lat="42.99277" lon="-0.01268">
        <ele>1696</ele>
        <time>2017-01-18T11:07:00.031Z</time>
      </trkpt>
      <trkpt lat="42.99277" lon="-0.01268">
        <ele>1696</ele>
        <time>2017-01-18T11:07:01.031Z</time>
      </trkpt>
      <trkpt lat="42.99277" lon="-0.01267">
        <ele>1695</ele>
        <time>2017-01-18T11:07:02.031Z</time>
      </trkpt>
      <trkpt lat="42.99277" lon="-0.01267">
        <ele>1697</ele>
        <time>2017-01-18T11:07:03.035Z</time>
      </trkpt>
      <trkpt lat="42.99277" lon="-0.01267">
        <ele>1697</ele>
        <time>2017-01-18T11:07:04.035Z</time>
      </trkpt>
      <trkpt lat="42.99277" lon="-0.01267">
        <ele>1697</ele>
        <time>2017-01-18T11:07:05.035Z</time>
      </trkpt>
      <trkpt lat="42.99277" lon="-0.01267">
        <ele>1697</ele>
        <time>2017-01-18T11:07:06.035Z</time>
      </trkpt>
      <trkpt lat="42.99276" lon="-0.01266">
        <ele>1697</ele>
        <time>2017-01-18T11:07:07.035Z</time>
      </trkpt>
      <trkpt lat="42.99276" lon="-0.01266">
        <ele>1697</ele>
        <time>2017-01-18T11:07:08.035Z</time>
      </trkpt>
      <trkpt lat="42.99276" lon="-0.01265">
        <ele>1697</ele>
        <time>2017-01-18T11:07:09.035Z</time>
      </trkpt>
      <trkpt lat="42.99276" lon="-0.01264">
        <ele>1697</ele>
        <time>2017-01-18T11:07:10.035Z</time>
      </trkpt>
      <trkpt lat="42.99276" lon="-0.01264">
        <ele>1697</ele>
        <time>2017-01-18T11:07:11.035Z</time>
      </trkpt>
      <trkpt lat="42.99276" lon="-0.01264">
        <ele>1697</ele>
        <time>2017-01-18T11:07:12.035Z</time>
      </trkpt>
      <trkpt lat="42.99276" lon="-0.01264">
        <ele>1697</ele>
        <time>2017-01-18T11:07:13.035Z</time>
      </trkpt>
      <trkpt lat="42.99276" lon="-0.01264">
        <ele>1697</ele>
        <time>2017-01-18T11:07:14.035Z</time>
      </trkpt>
      <trkpt lat="42.99276" lon="-0.01264">
        <ele>1697</ele>
        <time>2017-01-18T11:07:15.035Z</time>
      </trkpt>
      <trkpt lat="42.99275" lon="-0.01264">
        <ele>1697</ele>
        <time>2017-01-18T11:07:16.035Z</time>
      </trkpt>
      <trkpt lat="42.99276" lon="-0.01264">
        <ele>1697</ele>
        <time>2017-01-18T11:07:17.035Z</time>
      </trkpt>
      <trkpt lat="42.99276" lon="-0.01263">
        <ele>1697</ele>
        <time>2017-01-18T11:07:18.035Z</time>
      </trkpt>
      <trkpt lat="42.99276" lon="-0.01262">
        <ele>1698</ele>
        <time>2017-01-18T11:07:19.035Z</time>
      </trkpt>
      <trkpt lat="42.99276" lon="-0.01261">
        <ele>1697</ele>
        <time>2017-01-18T11:07:20.035Z</time>
      </trkpt>
      <trkpt lat="42.99276" lon="-0.0126">
        <ele>1697</ele>
        <time>2017-01-18T11:07:21.035Z</time>
      </trkpt>
      <trkpt lat="42.99276" lon="-0.01259">
        <ele>1698</ele>
        <time>2017-01-18T11:07:22.035Z</time>
      </trkpt>
      <trkpt lat="42.99277" lon="-0.01257">
        <ele>1698</ele>
        <time>2017-01-18T11:07:23.035Z</time>
      </trkpt>
      <trkpt lat="42.99277" lon="-0.01256">
        <ele>1698</ele>
        <time>2017-01-18T11:07:24.035Z</time>
      </trkpt>
      <trkpt lat="42.99277" lon="-0.01255">
        <ele>1698</ele>
        <time>2017-01-18T11:07:25.035Z</time>
      </trkpt>
      <trkpt lat="42.99277" lon="-0.01254">
        <ele>1697</ele>
        <time>2017-01-18T11:07:26.035Z</time>
      </trkpt>
      <trkpt lat="42.99278" lon="-0.01253">
        <ele>1697</ele>
        <time>2017-01-18T11:07:27.035Z</time>
      </trkpt>
      <trkpt lat="42.99278" lon="-0.01252">
        <ele>1697</ele>
        <time>2017-01-18T11:07:28.035Z</time>
      </trkpt>
      <trkpt lat="42.99278" lon="-0.0125">
        <ele>1697</ele>
        <time>2017-01-18T11:07:29.035Z</time>
      </trkpt>
      <trkpt lat="42.99278" lon="-0.01249">
        <ele>1697</ele>
        <time>2017-01-18T11:07:30.035Z</time>
      </trkpt>
      <trkpt lat="42.99278" lon="-0.01248">
        <ele>1697</ele>
        <time>2017-01-18T11:07:31.035Z</time>
      </trkpt>
      <trkpt lat="42.99279" lon="-0.01247">
        <ele>1697</ele>
        <time>2017-01-18T11:07:32.035Z</time>
      </trkpt>
      <trkpt lat="42.99279" lon="-0.01246">
        <ele>1696</ele>
        <time>2017-01-18T11:07:33.035Z</time>
      </trkpt>
      <trkpt lat="42.99279" lon="-0.01245">
        <ele>1696</ele>
        <time>2017-01-18T11:07:34.035Z</time>
      </trkpt>
      <trkpt lat="42.99279" lon="-0.01244">
        <ele>1697</ele>
        <time>2017-01-18T11:07:35.035Z</time>
      </trkpt>
      <trkpt lat="42.99279" lon="-0.01242">
        <ele>1696</ele>
        <time>2017-01-18T11:07:36.035Z</time>
      </trkpt>
      <trkpt lat="42.9928" lon="-0.01241">
        <ele>1696</ele>
        <time>2017-01-18T11:07:37.035Z</time>
      </trkpt>
      <trkpt lat="42.9928" lon="-0.0124">
        <ele>1696</ele>
        <time>2017-01-18T11:07:38.035Z</time>
      </trkpt>
      <trkpt lat="42.9928" lon="-0.01239">
        <ele>1696</ele>
        <time>2017-01-18T11:07:39.035Z</time>
      </trkpt>
      <trkpt lat="42.99281" lon="-0.01238">
        <ele>1696</ele>
        <time>2017-01-18T11:07:40.035Z</time>
      </trkpt>
      <trkpt lat="42.99281" lon="-0.01237">
        <ele>1696</ele>
        <time>2017-01-18T11:07:41.035Z</time>
      </trkpt>
      <trkpt lat="42.99281" lon="-0.01236">
        <ele>1696</ele>
        <time>2017-01-18T11:07:42.035Z</time>
      </trkpt>
      <trkpt lat="42.99281" lon="-0.01235">
        <ele>1696</ele>
        <time>2017-01-18T11:07:43.035Z</time>
      </trkpt>
      <trkpt lat="42.99282" lon="-0.01234">
        <ele>1696</ele>
        <time>2017-01-18T11:07:44.035Z</time>
      </trkpt>
      <trkpt lat="42.99282" lon="-0.01233">
        <ele>1696</ele>
        <time>2017-01-18T11:07:45.035Z</time>
      </trkpt>
      <trkpt lat="42.99282" lon="-0.01232">
        <ele>1696</ele>
        <time>2017-01-18T11:07:46.035Z</time>
      </trkpt>
      <trkpt lat="42.99283" lon="-0.01231">
        <ele>1696</ele>
        <time>2017-01-18T11:07:47.035Z</time>
      </trkpt>
      <trkpt lat="42.99283" lon="-0.01229">
        <ele>1696</ele>
        <time>2017-01-18T11:07:48.035Z</time>
      </trkpt>
      <trkpt lat="42.99283" lon="-0.01228">
        <ele>1695</ele>
        <time>2017-01-18T11:07:49.035Z</time>
      </trkpt>
      <trkpt lat="42.99284" lon="-0.01227">
        <ele>1695</ele>
        <time>2017-01-18T11:07:50.035Z</time>
      </trkpt>
      <trkpt lat="42.99284" lon="-0.01226">
        <ele>1694</ele>
        <time>2017-01-18T11:07:51.035Z</time>
      </trkpt>
      <trkpt lat="42.99284" lon="-0.01224">
        <ele>1694</ele>
        <time>2017-01-18T11:07:52.035Z</time>
      </trkpt>
      <trkpt lat="42.99285" lon="-0.01223">
        <ele>1694</ele>
        <time>2017-01-18T11:07:53.035Z</time>
      </trkpt>
      <trkpt lat="42.99285" lon="-0.01222">
        <ele>1694</ele>
        <time>2017-01-18T11:07:54.035Z</time>
      </trkpt>
      <trkpt lat="42.99285" lon="-0.01221">
        <ele>1694</ele>
        <time>2017-01-18T11:07:55.035Z</time>
      </trkpt>
      <trkpt lat="42.99286" lon="-0.0122">
        <ele>1694</ele>
        <time>2017-01-18T11:07:56.035Z</time>
      </trkpt>
      <trkpt lat="42.99286" lon="-0.01219">
        <ele>1694</ele>
        <time>2017-01-18T11:07:57.035Z</time>
      </trkpt>
      <trkpt lat="42.99286" lon="-0.01218">
        <ele>1693</ele>
        <time>2017-01-18T11:07:58.035Z</time>
      </trkpt>
      <trkpt lat="42.99286" lon="-0.01217">
        <ele>1693</ele>
        <time>2017-01-18T11:07:59.035Z</time>
      </trkpt>
      <trkpt lat="42.99287" lon="-0.01216">
        <ele>1693</ele>
        <time>2017-01-18T11:08:00.035Z</time>
      </trkpt>
      <trkpt lat="42.99287" lon="-0.01214">
        <ele>1693</ele>
        <time>2017-01-18T11:08:01.035Z</time>
      </trkpt>
      <trkpt lat="42.99287" lon="-0.01213">
        <ele>1693</ele>
        <time>2017-01-18T11:08:02.035Z</time>
      </trkpt>
      <trkpt lat="42.99288" lon="-0.01212">
        <ele>1692</ele>
        <time>2017-01-18T11:08:03.035Z</time>
      </trkpt>
      <trkpt lat="42.99288" lon="-0.01211">
        <ele>1693</ele>
        <time>2017-01-18T11:08:04.035Z</time>
      </trkpt>
      <trkpt lat="42.99289" lon="-0.0121">
        <ele>1693</ele>
        <time>2017-01-18T11:08:05.035Z</time>
      </trkpt>
      <trkpt lat="42.99289" lon="-0.01209">
        <ele>1693</ele>
        <time>2017-01-18T11:08:06.035Z</time>
      </trkpt>
      <trkpt lat="42.99289" lon="-0.01207">
        <ele>1693</ele>
        <time>2017-01-18T11:08:07.035Z</time>
      </trkpt>
      <trkpt lat="42.9929" lon="-0.01206">
        <ele>1693</ele>
        <time>2017-01-18T11:08:08.035Z</time>
      </trkpt>
      <trkpt lat="42.9929" lon="-0.01205">
        <ele>1693</ele>
        <time>2017-01-18T11:08:09.035Z</time>
      </trkpt>
      <trkpt lat="42.9929" lon="-0.01204">
        <ele>1693</ele>
        <time>2017-01-18T11:08:10.035Z</time>
      </trkpt>
      <trkpt lat="42.99291" lon="-0.01203">
        <ele>1694</ele>
        <time>2017-01-18T11:08:11.035Z</time>
      </trkpt>
      <trkpt lat="42.99291" lon="-0.01202">
        <ele>1694</ele>
        <time>2017-01-18T11:08:12.035Z</time>
      </trkpt>
      <trkpt lat="42.99291" lon="-0.01201">
        <ele>1693</ele>
        <time>2017-01-18T11:08:13.035Z</time>
      </trkpt>
      <trkpt lat="42.99292" lon="-0.01199">
        <ele>1693</ele>
        <time>2017-01-18T11:08:14.035Z</time>
      </trkpt>
      <trkpt lat="42.99292" lon="-0.01198">
        <ele>1693</ele>
        <time>2017-01-18T11:08:15.035Z</time>
      </trkpt>
      <trkpt lat="42.99292" lon="-0.01197">
        <ele>1694</ele>
        <time>2017-01-18T11:08:16.035Z</time>
      </trkpt>
      <trkpt lat="42.99293" lon="-0.01196">
        <ele>1694</ele>
        <time>2017-01-18T11:08:17.035Z</time>
      </trkpt>
      <trkpt lat="42.99293" lon="-0.01195">
        <ele>1694</ele>
        <time>2017-01-18T11:08:18.035Z</time>
      </trkpt>
      <trkpt lat="42.99294" lon="-0.01194">
        <ele>1694</ele>
        <time>2017-01-18T11:08:19.035Z</time>
      </trkpt>
      <trkpt lat="42.99294" lon="-0.01193">
        <ele>1693</ele>
        <time>2017-01-18T11:08:20.035Z</time>
      </trkpt>
      <trkpt lat="42.99294" lon="-0.01192">
        <ele>1694</ele>
        <time>2017-01-18T11:08:21.035Z</time>
      </trkpt>
      <trkpt lat="42.99295" lon="-0.0119">
        <ele>1694</ele>
        <time>2017-01-18T11:08:22.035Z</time>
      </trkpt>
      <trkpt lat="42.99295" lon="-0.01189">
        <ele>1694</ele>
        <time>2017-01-18T11:08:23.035Z</time>
      </trkpt>
      <trkpt lat="42.99295" lon="-0.01188">
        <ele>1694</ele>
        <time>2017-01-18T11:08:24.035Z</time>
      </trkpt>
      <trkpt lat="42.99296" lon="-0.01187">
        <ele>1693</ele>
        <time>2017-01-18T11:08:25.035Z</time>
      </trkpt>
      <trkpt lat="42.99296" lon="-0.01186">
        <ele>1693</ele>
        <time>2017-01-18T11:08:26.035Z</time>
      </trkpt>
      <trkpt lat="42.99297" lon="-0.01185">
        <ele>1693</ele>
        <time>2017-01-18T11:08:27.035Z</time>
      </trkpt>
      <trkpt lat="42.99297" lon="-0.01184">
        <ele>1693</ele>
        <time>2017-01-18T11:08:28.035Z</time>
      </trkpt>
      <trkpt lat="42.99297" lon="-0.01183">
        <ele>1693</ele>
        <time>2017-01-18T11:08:29.035Z</time>
      </trkpt>
      <trkpt lat="42.99298" lon="-0.01182">
        <ele>1693</ele>
        <time>2017-01-18T11:08:30.035Z</time>
      </trkpt>
      <trkpt lat="42.99298" lon="-0.01181">
        <ele>1693</ele>
        <time>2017-01-18T11:08:31.035Z</time>
      </trkpt>
      <trkpt lat="42.99299" lon="-0.0118">
        <ele>1693</ele>
        <time>2017-01-18T11:08:32.035Z</time>
      </trkpt>
      <trkpt lat="42.993" lon="-0.01179">
        <ele>1693</ele>
        <time>2017-01-18T11:08:33.035Z</time>
      </trkpt>
      <trkpt lat="42.993" lon="-0.01178">
        <ele>1693</ele>
        <time>2017-01-18T11:08:34.035Z</time>
      </trkpt>
      <trkpt lat="42.99301" lon="-0.01177">
        <ele>1692</ele>
        <time>2017-01-18T11:08:35.035Z</time>
      </trkpt>
      <trkpt lat="42.99301" lon="-0.01176">
        <ele>1692</ele>
        <time>2017-01-18T11:08:36.035Z</time>
      </trkpt>
      <trkpt lat="42.99301" lon="-0.01175">
        <ele>1693</ele>
        <time>2017-01-18T11:08:37.035Z</time>
      </trkpt>
      <trkpt lat="42.99302" lon="-0.01174">
        <ele>1693</ele>
        <time>2017-01-18T11:08:38.035Z</time>
      </trkpt>
      <trkpt lat="42.99302" lon="-0.01173">
        <ele>1693</ele>
        <time>2017-01-18T11:08:39.035Z</time>
      </trkpt>
      <trkpt lat="42.99303" lon="-0.01172">
        <ele>1693</ele>
        <time>2017-01-18T11:08:40.035Z</time>
      </trkpt>
      <trkpt lat="42.99303" lon="-0.01171">
        <ele>1693</ele>
        <time>2017-01-18T11:08:41.035Z</time>
      </trkpt>
      <trkpt lat="42.99304" lon="-0.0117">
        <ele>1692</ele>
        <time>2017-01-18T11:08:42.035Z</time>
      </trkpt>
      <trkpt lat="42.99304" lon="-0.01169">
        <ele>1692</ele>
        <time>2017-01-18T11:08:43.035Z</time>
      </trkpt>
      <trkpt lat="42.99305" lon="-0.01168">
        <ele>1692</ele>
        <time>2017-01-18T11:08:44.035Z</time>
      </trkpt>
      <trkpt lat="42.99305" lon="-0.01167">
        <ele>1692</ele>
        <time>2017-01-18T11:08:45.035Z</time>
      </trkpt>
      <trkpt lat="42.99306" lon="-0.01166">
        <ele>1692</ele>
        <time>2017-01-18T11:08:46.035Z</time>
      </trkpt>
      <trkpt lat="42.99306" lon="-0.01165">
        <ele>1692</ele>
        <time>2017-01-18T11:08:47.035Z</time>
      </trkpt>
      <trkpt lat="42.99307" lon="-0.01164">
        <ele>1692</ele>
        <time>2017-01-18T11:08:48.035Z</time>
      </trkpt>
      <trkpt lat="42.99307" lon="-0.01163">
        <ele>1692</ele>
        <time>2017-01-18T11:08:49.035Z</time>
      </trkpt>
      <trkpt lat="42.99308" lon="-0.01162">
        <ele>1692</ele>
        <time>2017-01-18T11:08:50.035Z</time>
      </trkpt>
      <trkpt lat="42.99308" lon="-0.01161">
        <ele>1692</ele>
        <time>2017-01-18T11:08:51.035Z</time>
      </trkpt>
      <trkpt lat="42.99309" lon="-0.0116">
        <ele>1692</ele>
        <time>2017-01-18T11:08:52.035Z</time>
      </trkpt>
      <trkpt lat="42.99309" lon="-0.01159">
        <ele>1691</ele>
        <time>2017-01-18T11:08:53.035Z</time>
      </trkpt>
      <trkpt lat="42.9931" lon="-0.01158">
        <ele>1691</ele>
        <time>2017-01-18T11:08:54.035Z</time>
      </trkpt>
      <trkpt lat="42.99311" lon="-0.01157">
        <ele>1691</ele>
        <time>2017-01-18T11:08:55.035Z</time>
      </trkpt>
      <trkpt lat="42.99311" lon="-0.01156">
        <ele>1691</ele>
        <time>2017-01-18T11:08:56.035Z</time>
      </trkpt>
      <trkpt lat="42.99312" lon="-0.01155">
        <ele>1691</ele>
        <time>2017-01-18T11:08:57.035Z</time>
      </trkpt>
      <trkpt lat="42.99312" lon="-0.01154">
        <ele>1691</ele>
        <time>2017-01-18T11:08:58.035Z</time>
      </trkpt>
      <trkpt lat="42.99313" lon="-0.01153">
        <ele>1691</ele>
        <time>2017-01-18T11:08:59.035Z</time>
      </trkpt>
      <trkpt lat="42.99313" lon="-0.01152">
        <ele>1691</ele>
        <time>2017-01-18T11:09:00.035Z</time>
      </trkpt>
      <trkpt lat="42.99313" lon="-0.01151">
        <ele>1691</ele>
        <time>2017-01-18T11:09:01.035Z</time>
      </trkpt>
      <trkpt lat="42.99314" lon="-0.0115">
        <ele>1691</ele>
        <time>2017-01-18T11:09:02.035Z</time>
      </trkpt>
      <trkpt lat="42.99314" lon="-0.01149">
        <ele>1690</ele>
        <time>2017-01-18T11:09:03.035Z</time>
      </trkpt>
      <trkpt lat="42.99315" lon="-0.01148">
        <ele>1690</ele>
        <time>2017-01-18T11:09:04.035Z</time>
      </trkpt>
      <trkpt lat="42.99315" lon="-0.01147">
        <ele>1690</ele>
        <time>2017-01-18T11:09:05.035Z</time>
      </trkpt>
      <trkpt lat="42.99316" lon="-0.01146">
        <ele>1689</ele>
        <time>2017-01-18T11:09:06.035Z</time>
      </trkpt>
      <trkpt lat="42.99316" lon="-0.01145">
        <ele>1689</ele>
        <time>2017-01-18T11:09:07.035Z</time>
      </trkpt>
      <trkpt lat="42.99317" lon="-0.01144">
        <ele>1689</ele>
        <time>2017-01-18T11:09:08.035Z</time>
      </trkpt>
      <trkpt lat="42.99317" lon="-0.01143">
        <ele>1689</ele>
        <time>2017-01-18T11:09:09.035Z</time>
      </trkpt>
      <trkpt lat="42.99318" lon="-0.01141">
        <ele>1689</ele>
        <time>2017-01-18T11:09:10.035Z</time>
      </trkpt>
      <trkpt lat="42.99318" lon="-0.0114">
        <ele>1689</ele>
        <time>2017-01-18T11:09:11.035Z</time>
      </trkpt>
      <trkpt lat="42.99319" lon="-0.01139">
        <ele>1688</ele>
        <time>2017-01-18T11:09:12.035Z</time>
      </trkpt>
      <trkpt lat="42.99319" lon="-0.01138">
        <ele>1688</ele>
        <time>2017-01-18T11:09:13.035Z</time>
      </trkpt>
      <trkpt lat="42.9932" lon="-0.01137">
        <ele>1688</ele>
        <time>2017-01-18T11:09:14.035Z</time>
      </trkpt>
      <trkpt lat="42.9932" lon="-0.01136">
        <ele>1689</ele>
        <time>2017-01-18T11:09:15.035Z</time>
      </trkpt>
      <trkpt lat="42.99321" lon="-0.01135">
        <ele>1689</ele>
        <time>2017-01-18T11:09:16.035Z</time>
      </trkpt>
      <trkpt lat="42.99321" lon="-0.01134">
        <ele>1689</ele>
        <time>2017-01-18T11:09:17.035Z</time>
      </trkpt>
      <trkpt lat="42.99322" lon="-0.01133">
        <ele>1688</ele>
        <time>2017-01-18T11:09:18.035Z</time>
      </trkpt>
      <trkpt lat="42.99322" lon="-0.01132">
        <ele>1688</ele>
        <time>2017-01-18T11:09:19.035Z</time>
      </trkpt>
      <trkpt lat="42.99323" lon="-0.01131">
        <ele>1689</ele>
        <time>2017-01-18T11:09:20.035Z</time>
      </trkpt>
      <trkpt lat="42.99323" lon="-0.01129">
        <ele>1688</ele>
        <time>2017-01-18T11:09:21.035Z</time>
      </trkpt>
      <trkpt lat="42.99323" lon="-0.01128">
        <ele>1689</ele>
        <time>2017-01-18T11:09:22.035Z</time>
      </trkpt>
      <trkpt lat="42.99324" lon="-0.01127">
        <ele>1689</ele>
        <time>2017-01-18T11:09:23.035Z</time>
      </trkpt>
      <trkpt lat="42.99324" lon="-0.01126">
        <ele>1689</ele>
        <time>2017-01-18T11:09:24.035Z</time>
      </trkpt>
      <trkpt lat="42.99325" lon="-0.01125">
        <ele>1689</ele>
        <time>2017-01-18T11:09:25.035Z</time>
      </trkpt>
      <trkpt lat="42.99325" lon="-0.01124">
        <ele>1689</ele>
        <time>2017-01-18T11:09:26.035Z</time>
      </trkpt>
      <trkpt lat="42.99325" lon="-0.01123">
        <ele>1689</ele>
        <time>2017-01-18T11:09:27.035Z</time>
      </trkpt>
      <trkpt lat="42.99326" lon="-0.01122">
        <ele>1689</ele>
        <time>2017-01-18T11:09:28.035Z</time>
      </trkpt>
      <trkpt lat="42.99326" lon="-0.01121">
        <ele>1688</ele>
        <time>2017-01-18T11:09:29.035Z</time>
      </trkpt>
      <trkpt lat="42.99327" lon="-0.0112">
        <ele>1689</ele>
        <time>2017-01-18T11:09:30.035Z</time>
      </trkpt>
      <trkpt lat="42.99327" lon="-0.01119">
        <ele>1688</ele>
        <time>2017-01-18T11:09:31.035Z</time>
      </trkpt>
      <trkpt lat="42.99328" lon="-0.01118">
        <ele>1688</ele>
        <time>2017-01-18T11:09:32.035Z</time>
      </trkpt>
      <trkpt lat="42.99328" lon="-0.01117">
        <ele>1688</ele>
        <time>2017-01-18T11:09:33.035Z</time>
      </trkpt>
      <trkpt lat="42.99329" lon="-0.01116">
        <ele>1688</ele>
        <time>2017-01-18T11:09:34.035Z</time>
      </trkpt>
      <trkpt lat="42.99329" lon="-0.01115">
        <ele>1688</ele>
        <time>2017-01-18T11:09:35.035Z</time>
      </trkpt>
      <trkpt lat="42.99329" lon="-0.01114">
        <ele>1688</ele>
        <time>2017-01-18T11:09:36.035Z</time>
      </trkpt>
      <trkpt lat="42.9933" lon="-0.01113">
        <ele>1688</ele>
        <time>2017-01-18T11:09:37.035Z</time>
      </trkpt>
      <trkpt lat="42.9933" lon="-0.01112">
        <ele>1688</ele>
        <time>2017-01-18T11:09:38.035Z</time>
      </trkpt>
      <trkpt lat="42.9933" lon="-0.01111">
        <ele>1688</ele>
        <time>2017-01-18T11:09:39.035Z</time>
      </trkpt>
      <trkpt lat="42.99331" lon="-0.0111">
        <ele>1688</ele>
        <time>2017-01-18T11:09:40.035Z</time>
      </trkpt>
      <trkpt lat="42.99331" lon="-0.01109">
        <ele>1688</ele>
        <time>2017-01-18T11:09:41.035Z</time>
      </trkpt>
      <trkpt lat="42.99332" lon="-0.01108">
        <ele>1687</ele>
        <time>2017-01-18T11:09:42.035Z</time>
      </trkpt>
      <trkpt lat="42.99332" lon="-0.01107">
        <ele>1687</ele>
        <time>2017-01-18T11:09:43.035Z</time>
      </trkpt>
      <trkpt lat="42.99333" lon="-0.01106">
        <ele>1687</ele>
        <time>2017-01-18T11:09:44.035Z</time>
      </trkpt>
      <trkpt lat="42.99333" lon="-0.01105">
        <ele>1687</ele>
        <time>2017-01-18T11:09:45.035Z</time>
      </trkpt>
      <trkpt lat="42.99333" lon="-0.01104">
        <ele>1687</ele>
        <time>2017-01-18T11:09:46.035Z</time>
      </trkpt>
      <trkpt lat="42.99334" lon="-0.01103">
        <ele>1686</ele>
        <time>2017-01-18T11:09:47.035Z</time>
      </trkpt>
      <trkpt lat="42.99334" lon="-0.01102">
        <ele>1686</ele>
        <time>2017-01-18T11:09:48.035Z</time>
      </trkpt>
      <trkpt lat="42.99334" lon="-0.01101">
        <ele>1686</ele>
        <time>2017-01-18T11:09:49.035Z</time>
      </trkpt>
      <trkpt lat="42.99335" lon="-0.011">
        <ele>1686</ele>
        <time>2017-01-18T11:09:50.035Z</time>
      </trkpt>
      <trkpt lat="42.99335" lon="-0.01099">
        <ele>1686</ele>
        <time>2017-01-18T11:09:51.035Z</time>
      </trkpt>
      <trkpt lat="42.99336" lon="-0.01098">
        <ele>1686</ele>
        <time>2017-01-18T11:09:52.035Z</time>
      </trkpt>
      <trkpt lat="42.99336" lon="-0.01097">
        <ele>1686</ele>
        <time>2017-01-18T11:09:53.035Z</time>
      </trkpt>
      <trkpt lat="42.99337" lon="-0.01096">
        <ele>1685</ele>
        <time>2017-01-18T11:09:54.035Z</time>
      </trkpt>
      <trkpt lat="42.99337" lon="-0.01095">
        <ele>1685</ele>
        <time>2017-01-18T11:09:55.035Z</time>
      </trkpt>
      <trkpt lat="42.99338" lon="-0.01094">
        <ele>1685</ele>
        <time>2017-01-18T11:09:56.035Z</time>
      </trkpt>
      <trkpt lat="42.99338" lon="-0.01093">
        <ele>1685</ele>
        <time>2017-01-18T11:09:57.035Z</time>
      </trkpt>
      <trkpt lat="42.99339" lon="-0.01092">
        <ele>1685</ele>
        <time>2017-01-18T11:09:58.035Z</time>
      </trkpt>
      <trkpt lat="42.99339" lon="-0.01091">
        <ele>1685</ele>
        <time>2017-01-18T11:09:59.035Z</time>
      </trkpt>
      <trkpt lat="42.99339" lon="-0.0109">
        <ele>1685</ele>
        <time>2017-01-18T11:10:00.035Z</time>
      </trkpt>
      <trkpt lat="42.9934" lon="-0.01089">
        <ele>1685</ele>
        <time>2017-01-18T11:10:01.035Z</time>
      </trkpt>
      <trkpt lat="42.9934" lon="-0.01088">
        <ele>1685</ele>
        <time>2017-01-18T11:10:02.035Z</time>
      </trkpt>
      <trkpt lat="42.9934" lon="-0.01088">
        <ele>1685</ele>
        <time>2017-01-18T11:10:03.035Z</time>
      </trkpt>
      <trkpt lat="42.9934" lon="-0.01088">
        <ele>1684</ele>
        <time>2017-01-18T11:10:04.035Z</time>
      </trkpt>
      <trkpt lat="42.9934" lon="-0.01087">
        <ele>1687</ele>
        <time>2017-01-18T11:10:05.047Z</time>
      </trkpt>
      <trkpt lat="42.9934" lon="-0.01087">
        <ele>1688</ele>
        <time>2017-01-18T11:10:06.047Z</time>
      </trkpt>
      <trkpt lat="42.9934" lon="-0.01088">
        <ele>1689</ele>
        <time>2017-01-18T11:10:07.047Z</time>
      </trkpt>
      <trkpt lat="42.9934" lon="-0.01088">
        <ele>1688</ele>
        <time>2017-01-18T11:10:08.047Z</time>
      </trkpt>
      <trkpt lat="42.9934" lon="-0.01088">
        <ele>1688</ele>
        <time>2017-01-18T11:10:09.047Z</time>
      </trkpt>
      <trkpt lat="42.9934" lon="-0.01087">
        <ele>1688</ele>
        <time>2017-01-18T11:10:10.047Z</time>
      </trkpt>
      <trkpt lat="42.99341" lon="-0.01086">
        <ele>1687</ele>
        <time>2017-01-18T11:10:11.055Z</time>
      </trkpt>
      <trkpt lat="42.99342" lon="-0.01085">
        <ele>1687</ele>
        <time>2017-01-18T11:10:12.055Z</time>
      </trkpt>
      <trkpt lat="42.99342" lon="-0.01084">
        <ele>1686</ele>
        <time>2017-01-18T11:10:13.055Z</time>
      </trkpt>
      <trkpt lat="42.99342" lon="-0.01083">
        <ele>1686</ele>
        <time>2017-01-18T11:10:14.055Z</time>
      </trkpt>
      <trkpt lat="42.99343" lon="-0.01082">
        <ele>1686</ele>
        <time>2017-01-18T11:10:15.055Z</time>
      </trkpt>
      <trkpt lat="42.99343" lon="-0.0108">
        <ele>1686</ele>
        <time>2017-01-18T11:10:16.055Z</time>
      </trkpt>
      <trkpt lat="42.99344" lon="-0.01079">
        <ele>1685</ele>
        <time>2017-01-18T11:10:17.055Z</time>
      </trkpt>
      <trkpt lat="42.99344" lon="-0.01078">
        <ele>1685</ele>
        <time>2017-01-18T11:10:18.055Z</time>
      </trkpt>
      <trkpt lat="42.99345" lon="-0.01077">
        <ele>1685</ele>
        <time>2017-01-18T11:10:19.055Z</time>
      </trkpt>
      <trkpt lat="42.99345" lon="-0.01076">
        <ele>1685</ele>
        <time>2017-01-18T11:10:20.055Z</time>
      </trkpt>
      <trkpt lat="42.99346" lon="-0.01074">
        <ele>1685</ele>
        <time>2017-01-18T11:10:21.055Z</time>
      </trkpt>
      <trkpt lat="42.99346" lon="-0.01073">
        <ele>1685</ele>
        <time>2017-01-18T11:10:22.055Z</time>
      </trkpt>
      <trkpt lat="42.99346" lon="-0.01072">
        <ele>1684</ele>
        <time>2017-01-18T11:10:23.055Z</time>
      </trkpt>
      <trkpt lat="42.99347" lon="-0.01071">
        <ele>1684</ele>
        <time>2017-01-18T11:10:24.055Z</time>
      </trkpt>
      <trkpt lat="42.99347" lon="-0.0107">
        <ele>1684</ele>
        <time>2017-01-18T11:10:25.055Z</time>
      </trkpt>
      <trkpt lat="42.99348" lon="-0.01069">
        <ele>1684</ele>
        <time>2017-01-18T11:10:26.055Z</time>
      </trkpt>
      <trkpt lat="42.99348" lon="-0.01067">
        <ele>1684</ele>
        <time>2017-01-18T11:10:27.055Z</time>
      </trkpt>
      <trkpt lat="42.99349" lon="-0.01066">
        <ele>1683</ele>
        <time>2017-01-18T11:10:28.055Z</time>
      </trkpt>
      <trkpt lat="42.99349" lon="-0.01065">
        <ele>1683</ele>
        <time>2017-01-18T11:10:29.055Z</time>
      </trkpt>
      <trkpt lat="42.9935" lon="-0.01064">
        <ele>1683</ele>
        <time>2017-01-18T11:10:30.055Z</time>
      </trkpt>
      <trkpt lat="42.9935" lon="-0.01063">
        <ele>1683</ele>
        <time>2017-01-18T11:10:31.055Z</time>
      </trkpt>
      <trkpt lat="42.99351" lon="-0.01062">
        <ele>1683</ele>
        <time>2017-01-18T11:10:32.055Z</time>
      </trkpt>
      <trkpt lat="42.99351" lon="-0.01061">
        <ele>1683</ele>
        <time>2017-01-18T11:10:33.055Z</time>
      </trkpt>
      <trkpt lat="42.99352" lon="-0.0106">
        <ele>1682</ele>
        <time>2017-01-18T11:10:34.055Z</time>
      </trkpt>
      <trkpt lat="42.99353" lon="-0.01059">
        <ele>1682</ele>
        <time>2017-01-18T11:10:35.055Z</time>
      </trkpt>
      <trkpt lat="42.99353" lon="-0.01058">
        <ele>1682</ele>
        <time>2017-01-18T11:10:36.055Z</time>
      </trkpt>
      <trkpt lat="42.99354" lon="-0.01057">
        <ele>1682</ele>
        <time>2017-01-18T11:10:37.055Z</time>
      </trkpt>
      <trkpt lat="42.99354" lon="-0.01056">
        <ele>1681</ele>
        <time>2017-01-18T11:10:38.055Z</time>
      </trkpt>
      <trkpt lat="42.99354" lon="-0.01055">
        <ele>1681</ele>
        <time>2017-01-18T11:10:39.055Z</time>
      </trkpt>
      <trkpt lat="42.99355" lon="-0.01054">
        <ele>1681</ele>
        <time>2017-01-18T11:10:40.055Z</time>
      </trkpt>
      <trkpt lat="42.99355" lon="-0.01053">
        <ele>1681</ele>
        <time>2017-01-18T11:10:41.055Z</time>
      </trkpt>
      <trkpt lat="42.99355" lon="-0.01052">
        <ele>1681</ele>
        <time>2017-01-18T11:10:42.055Z</time>
      </trkpt>
      <trkpt lat="42.99356" lon="-0.01052">
        <ele>1681</ele>
        <time>2017-01-18T11:10:43.055Z</time>
      </trkpt>
      <trkpt lat="42.99356" lon="-0.01051">
        <ele>1681</ele>
        <time>2017-01-18T11:10:44.055Z</time>
      </trkpt>
      <trkpt lat="42.99356" lon="-0.0105">
        <ele>1680</ele>
        <time>2017-01-18T11:10:45.055Z</time>
      </trkpt>
      <trkpt lat="42.99357" lon="-0.01049">
        <ele>1680</ele>
        <time>2017-01-18T11:10:46.055Z</time>
      </trkpt>
      <trkpt lat="42.99357" lon="-0.01048">
        <ele>1680</ele>
        <time>2017-01-18T11:10:47.055Z</time>
      </trkpt>
      <trkpt lat="42.99358" lon="-0.01047">
        <ele>1680</ele>
        <time>2017-01-18T11:10:48.055Z</time>
      </trkpt>
      <trkpt lat="42.99358" lon="-0.01046">
        <ele>1680</ele>
        <time>2017-01-18T11:10:49.055Z</time>
      </trkpt>
      <trkpt lat="42.99359" lon="-0.01045">
        <ele>1680</ele>
        <time>2017-01-18T11:10:50.055Z</time>
      </trkpt>
      <trkpt lat="42.99359" lon="-0.01044">
        <ele>1680</ele>
        <time>2017-01-18T11:10:51.055Z</time>
      </trkpt>
      <trkpt lat="42.99359" lon="-0.01043">
        <ele>1680</ele>
        <time>2017-01-18T11:10:52.055Z</time>
      </trkpt>
      <trkpt lat="42.9936" lon="-0.01042">
        <ele>1679</ele>
        <time>2017-01-18T11:10:53.055Z</time>
      </trkpt>
      <trkpt lat="42.9936" lon="-0.01041">
        <ele>1680</ele>
        <time>2017-01-18T11:10:54.055Z</time>
      </trkpt>
      <trkpt lat="42.99361" lon="-0.0104">
        <ele>1679</ele>
        <time>2017-01-18T11:10:55.055Z</time>
      </trkpt>
      <trkpt lat="42.99361" lon="-0.0104">
        <ele>1679</ele>
        <time>2017-01-18T11:10:56.055Z</time>
      </trkpt>
      <trkpt lat="42.99362" lon="-0.01039">
        <ele>1679</ele>
        <time>2017-01-18T11:10:57.055Z</time>
      </trkpt>
      <trkpt lat="42.99362" lon="-0.01038">
        <ele>1679</ele>
        <time>2017-01-18T11:10:58.055Z</time>
      </trkpt>
      <trkpt lat="42.99363" lon="-0.01037">
        <ele>1679</ele>
        <time>2017-01-18T11:10:59.055Z</time>
      </trkpt>
      <trkpt lat="42.99363" lon="-0.01036">
        <ele>1679</ele>
        <time>2017-01-18T11:11:00.055Z</time>
      </trkpt>
      <trkpt lat="42.99363" lon="-0.01035">
        <ele>1679</ele>
        <time>2017-01-18T11:11:01.055Z</time>
      </trkpt>
      <trkpt lat="42.99364" lon="-0.01035">
        <ele>1678</ele>
        <time>2017-01-18T11:11:02.055Z</time>
      </trkpt>
      <trkpt lat="42.99364" lon="-0.01034">
        <ele>1678</ele>
        <time>2017-01-18T11:11:03.055Z</time>
      </trkpt>
      <trkpt lat="42.99365" lon="-0.01033">
        <ele>1678</ele>
        <time>2017-01-18T11:11:04.055Z</time>
      </trkpt>
      <trkpt lat="42.99365" lon="-0.01032">
        <ele>1678</ele>
        <time>2017-01-18T11:11:05.055Z</time>
      </trkpt>
      <trkpt lat="42.99365" lon="-0.01031">
        <ele>1678</ele>
        <time>2017-01-18T11:11:06.055Z</time>
      </trkpt>
      <trkpt lat="42.99366" lon="-0.01031">
        <ele>1678</ele>
        <time>2017-01-18T11:11:07.055Z</time>
      </trkpt>
      <trkpt lat="42.99366" lon="-0.0103">
        <ele>1677</ele>
        <time>2017-01-18T11:11:08.055Z</time>
      </trkpt>
      <trkpt lat="42.99367" lon="-0.01029">
        <ele>1677</ele>
        <time>2017-01-18T11:11:09.055Z</time>
      </trkpt>
      <trkpt lat="42.99367" lon="-0.01028">
        <ele>1677</ele>
        <time>2017-01-18T11:11:10.055Z</time>
      </trkpt>
      <trkpt lat="42.99368" lon="-0.01028">
        <ele>1677</ele>
        <time>2017-01-18T11:11:11.055Z</time>
      </trkpt>
      <trkpt lat="42.99368" lon="-0.01027">
        <ele>1676</ele>
        <time>2017-01-18T11:11:12.055Z</time>
      </trkpt>
      <trkpt lat="42.99369" lon="-0.01026">
        <ele>1676</ele>
        <time>2017-01-18T11:11:13.055Z</time>
      </trkpt>
      <trkpt lat="42.99369" lon="-0.01025">
        <ele>1676</ele>
        <time>2017-01-18T11:11:14.055Z</time>
      </trkpt>
      <trkpt lat="42.9937" lon="-0.01025">
        <ele>1676</ele>
        <time>2017-01-18T11:11:15.055Z</time>
      </trkpt>
      <trkpt lat="42.9937" lon="-0.01024">
        <ele>1676</ele>
        <time>2017-01-18T11:11:16.055Z</time>
      </trkpt>
      <trkpt lat="42.99371" lon="-0.01023">
        <ele>1676</ele>
        <time>2017-01-18T11:11:17.055Z</time>
      </trkpt>
      <trkpt lat="42.99372" lon="-0.01023">
        <ele>1675</ele>
        <time>2017-01-18T11:11:18.055Z</time>
      </trkpt>
      <trkpt lat="42.99372" lon="-0.01022">
        <ele>1675</ele>
        <time>2017-01-18T11:11:19.055Z</time>
      </trkpt>
      <trkpt lat="42.99373" lon="-0.01021">
        <ele>1675</ele>
        <time>2017-01-18T11:11:20.055Z</time>
      </trkpt>
      <trkpt lat="42.99373" lon="-0.01021">
        <ele>1675</ele>
        <time>2017-01-18T11:11:21.055Z</time>
      </trkpt>
      <trkpt lat="42.99374" lon="-0.0102">
        <ele>1675</ele>
        <time>2017-01-18T11:11:22.055Z</time>
      </trkpt>
      <trkpt lat="42.99374" lon="-0.0102">
        <ele>1675</ele>
        <time>2017-01-18T11:11:23.055Z</time>
      </trkpt>
      <trkpt lat="42.99375" lon="-0.01019">
        <ele>1675</ele>
        <time>2017-01-18T11:11:24.055Z</time>
      </trkpt>
      <trkpt lat="42.99375" lon="-0.01018">
        <ele>1675</ele>
        <time>2017-01-18T11:11:25.055Z</time>
      </trkpt>
      <trkpt lat="42.99375" lon="-0.01018">
        <ele>1674</ele>
        <time>2017-01-18T11:11:26.055Z</time>
      </trkpt>
      <trkpt lat="42.99376" lon="-0.01017">
        <ele>1674</ele>
        <time>2017-01-18T11:11:27.055Z</time>
      </trkpt>
      <trkpt lat="42.99376" lon="-0.01016">
        <ele>1674</ele>
        <time>2017-01-18T11:11:28.055Z</time>
      </trkpt>
      <trkpt lat="42.99377" lon="-0.01016">
        <ele>1673</ele>
        <time>2017-01-18T11:11:29.055Z</time>
      </trkpt>
      <trkpt lat="42.99377" lon="-0.01015">
        <ele>1673</ele>
        <time>2017-01-18T11:11:30.055Z</time>
      </trkpt>
      <trkpt lat="42.99377" lon="-0.01014">
        <ele>1673</ele>
        <time>2017-01-18T11:11:31.055Z</time>
      </trkpt>
      <trkpt lat="42.99378" lon="-0.01014">
        <ele>1673</ele>
        <time>2017-01-18T11:11:32.055Z</time>
      </trkpt>
      <trkpt lat="42.99378" lon="-0.01013">
        <ele>1673</ele>
        <time>2017-01-18T11:11:33.055Z</time>
      </trkpt>
      <trkpt lat="42.99379" lon="-0.01013">
        <ele>1673</ele>
        <time>2017-01-18T11:11:34.055Z</time>
      </trkpt>
      <trkpt lat="42.99379" lon="-0.01012">
        <ele>1673</ele>
        <time>2017-01-18T11:11:35.055Z</time>
      </trkpt>
      <trkpt lat="42.99379" lon="-0.01011">
        <ele>1673</ele>
        <time>2017-01-18T11:11:36.055Z</time>
      </trkpt>
      <trkpt lat="42.99379" lon="-0.01011">
        <ele>1673</ele>
        <time>2017-01-18T11:11:37.055Z</time>
      </trkpt>
      <trkpt lat="42.9938" lon="-0.0101">
        <ele>1672</ele>
        <time>2017-01-18T11:11:38.055Z</time>
      </trkpt>
      <trkpt lat="42.9938" lon="-0.0101">
        <ele>1672</ele>
        <time>2017-01-18T11:11:39.055Z</time>
      </trkpt>
      <trkpt lat="42.9938" lon="-0.01009">
        <ele>1672</ele>
        <time>2017-01-18T11:11:40.055Z</time>
      </trkpt>
      <trkpt lat="42.99381" lon="-0.01008">
        <ele>1672</ele>
        <time>2017-01-18T11:11:41.055Z</time>
      </trkpt>
      <trkpt lat="42.99381" lon="-0.01008">
        <ele>1671</ele>
        <time>2017-01-18T11:11:42.055Z</time>
      </trkpt>
      <trkpt lat="42.99382" lon="-0.01007">
        <ele>1671</ele>
        <time>2017-01-18T11:11:43.055Z</time>
      </trkpt>
      <trkpt lat="42.99382" lon="-0.01006">
        <ele>1671</ele>
        <time>2017-01-18T11:11:44.055Z</time>
      </trkpt>
      <trkpt lat="42.99383" lon="-0.01006">
        <ele>1671</ele>
        <time>2017-01-18T11:11:45.055Z</time>
      </trkpt>
      <trkpt lat="42.99383" lon="-0.01005">
        <ele>1671</ele>
        <time>2017-01-18T11:11:46.055Z</time>
      </trkpt>
      <trkpt lat="42.99384" lon="-0.01005">
        <ele>1671</ele>
        <time>2017-01-18T11:11:47.055Z</time>
      </trkpt>
      <trkpt lat="42.99384" lon="-0.01004">
        <ele>1670</ele>
        <time>2017-01-18T11:11:48.055Z</time>
      </trkpt>
      <trkpt lat="42.99385" lon="-0.01004">
        <ele>1670</ele>
        <time>2017-01-18T11:11:49.055Z</time>
      </trkpt>
      <trkpt lat="42.99385" lon="-0.01003">
        <ele>1670</ele>
        <time>2017-01-18T11:11:50.055Z</time>
      </trkpt>
      <trkpt lat="42.99386" lon="-0.01002">
        <ele>1670</ele>
        <time>2017-01-18T11:11:51.055Z</time>
      </trkpt>
      <trkpt lat="42.99386" lon="-0.01002">
        <ele>1670</ele>
        <time>2017-01-18T11:11:52.055Z</time>
      </trkpt>
      <trkpt lat="42.99387" lon="-0.01001">
        <ele>1670</ele>
        <time>2017-01-18T11:11:53.055Z</time>
      </trkpt>
      <trkpt lat="42.99388" lon="-0.01">
        <ele>1669</ele>
        <time>2017-01-18T11:11:54.055Z</time>
      </trkpt>
      <trkpt lat="42.99388" lon="-0.01">
        <ele>1669</ele>
        <time>2017-01-18T11:11:55.055Z</time>
      </trkpt>
      <trkpt lat="42.99388" lon="-0.01">
        <ele>1669</ele>
        <time>2017-01-18T11:11:56.055Z</time>
      </trkpt>
      <trkpt lat="42.99388" lon="-0.01">
        <ele>1670</ele>
        <time>2017-01-18T11:11:57.055Z</time>
      </trkpt>
      <trkpt lat="42.99388" lon="-0.00999">
        <ele>1670</ele>
        <time>2017-01-18T11:11:58.055Z</time>
      </trkpt>
      <trkpt lat="42.99389" lon="-0.00999">
        <ele>1669</ele>
        <time>2017-01-18T11:11:59.055Z</time>
      </trkpt>
      <trkpt lat="42.99389" lon="-0.00998">
        <ele>1670</ele>
        <time>2017-01-18T11:12:00.055Z</time>
      </trkpt>
      <trkpt lat="42.99389" lon="-0.00997">
        <ele>1670</ele>
        <time>2017-01-18T11:12:01.055Z</time>
      </trkpt>
      <trkpt lat="42.9939" lon="-0.00996">
        <ele>1670</ele>
        <time>2017-01-18T11:12:02.055Z</time>
      </trkpt>
      <trkpt lat="42.9939" lon="-0.00995">
        <ele>1670</ele>
        <time>2017-01-18T11:12:03.055Z</time>
      </trkpt>
      <trkpt lat="42.9939" lon="-0.00994">
        <ele>1669</ele>
        <time>2017-01-18T11:12:04.055Z</time>
      </trkpt>
      <trkpt lat="42.99391" lon="-0.00994">
        <ele>1670</ele>
        <time>2017-01-18T11:12:05.055Z</time>
      </trkpt>
      <trkpt lat="42.99391" lon="-0.00994">
        <ele>1670</ele>
        <time>2017-01-18T11:12:06.055Z</time>
      </trkpt>
      <trkpt lat="42.99391" lon="-0.00993">
        <ele>1669</ele>
        <time>2017-01-18T11:12:07.055Z</time>
      </trkpt>
      <trkpt lat="42.99391" lon="-0.00993">
        <ele>1669</ele>
        <time>2017-01-18T11:12:08.055Z</time>
      </trkpt>
      <trkpt lat="42.99391" lon="-0.00993">
        <ele>1669</ele>
        <time>2017-01-18T11:12:09.055Z</time>
      </trkpt>
      <trkpt lat="42.99391" lon="-0.00992">
        <ele>1669</ele>
        <time>2017-01-18T11:12:10.055Z</time>
      </trkpt>
      <trkpt lat="42.99391" lon="-0.00992">
        <ele>1669</ele>
        <time>2017-01-18T11:12:11.055Z</time>
      </trkpt>
      <trkpt lat="42.99391" lon="-0.0099">
        <ele>1669</ele>
        <time>2017-01-18T11:12:12.055Z</time>
      </trkpt>
      <trkpt lat="42.99391" lon="-0.00989">
        <ele>1668</ele>
        <time>2017-01-18T11:12:13.055Z</time>
      </trkpt>
      <trkpt lat="42.99391" lon="-0.00988">
        <ele>1669</ele>
        <time>2017-01-18T11:12:14.055Z</time>
      </trkpt>
      <trkpt lat="42.99391" lon="-0.00987">
        <ele>1668</ele>
        <time>2017-01-18T11:12:15.055Z</time>
      </trkpt>
      <trkpt lat="42.99391" lon="-0.00985">
        <ele>1668</ele>
        <time>2017-01-18T11:12:16.055Z</time>
      </trkpt>
      <trkpt lat="42.99391" lon="-0.00985">
        <ele>1668</ele>
        <time>2017-01-18T11:12:17.055Z</time>
      </trkpt>
      <trkpt lat="42.99391" lon="-0.00984">
        <ele>1668</ele>
        <time>2017-01-18T11:12:18.055Z</time>
      </trkpt>
      <trkpt lat="42.99391" lon="-0.00983">
        <ele>1668</ele>
        <time>2017-01-18T11:12:19.055Z</time>
      </trkpt>
      <trkpt lat="42.99391" lon="-0.00981">
        <ele>1668</ele>
        <time>2017-01-18T11:12:20.055Z</time>
      </trkpt>
      <trkpt lat="42.99391" lon="-0.0098">
        <ele>1668</ele>
        <time>2017-01-18T11:12:21.055Z</time>
      </trkpt>
      <trkpt lat="42.99391" lon="-0.00979">
        <ele>1668</ele>
        <time>2017-01-18T11:12:22.055Z</time>
      </trkpt>
      <trkpt lat="42.99391" lon="-0.00978">
        <ele>1668</ele>
        <time>2017-01-18T11:12:23.055Z</time>
      </trkpt>
      <trkpt lat="42.99391" lon="-0.00977">
        <ele>1668</ele>
        <time>2017-01-18T11:12:24.055Z</time>
      </trkpt>
      <trkpt lat="42.99391" lon="-0.00976">
        <ele>1668</ele>
        <time>2017-01-18T11:12:25.055Z</time>
      </trkpt>
      <trkpt lat="42.99391" lon="-0.00975">
        <ele>1669</ele>
        <time>2017-01-18T11:12:26.055Z</time>
      </trkpt>
      <trkpt lat="42.99391" lon="-0.00972">
        <ele>1670</ele>
        <time>2017-01-18T11:12:27.055Z</time>
      </trkpt>
      <trkpt lat="42.99391" lon="-0.00971">
        <ele>1669</ele>
        <time>2017-01-18T11:12:28.055Z</time>
      </trkpt>
      <trkpt lat="42.99391" lon="-0.00971">
        <ele>1669</ele>
        <time>2017-01-18T11:12:29.055Z</time>
      </trkpt>
      <trkpt lat="42.99391" lon="-0.0097">
        <ele>1669</ele>
        <time>2017-01-18T11:12:30.055Z</time>
      </trkpt>
      <trkpt lat="42.99391" lon="-0.00968">
        <ele>1669</ele>
        <time>2017-01-18T11:12:31.055Z</time>
      </trkpt>
      <trkpt lat="42.99392" lon="-0.00966">
        <ele>1669</ele>
        <time>2017-01-18T11:12:32.055Z</time>
      </trkpt>
      <trkpt lat="42.99392" lon="-0.00966">
        <ele>1669</ele>
        <time>2017-01-18T11:12:33.055Z</time>
      </trkpt>
      <trkpt lat="42.99392" lon="-0.00965">
        <ele>1668</ele>
        <time>2017-01-18T11:12:34.055Z</time>
      </trkpt>
      <trkpt lat="42.99392" lon="-0.00963">
        <ele>1668</ele>
        <time>2017-01-18T11:12:35.055Z</time>
      </trkpt>
      <trkpt lat="42.99392" lon="-0.00962">
        <ele>1668</ele>
        <time>2017-01-18T11:12:36.055Z</time>
      </trkpt>
      <trkpt lat="42.99392" lon="-0.00961">
        <ele>1668</ele>
        <time>2017-01-18T11:12:37.055Z</time>
      </trkpt>
      <trkpt lat="42.99392" lon="-0.0096">
        <ele>1667</ele>
        <time>2017-01-18T11:12:38.055Z</time>
      </trkpt>
      <trkpt lat="42.99393" lon="-0.00958">
        <ele>1668</ele>
        <time>2017-01-18T11:12:39.055Z</time>
      </trkpt>
      <trkpt lat="42.99393" lon="-0.00957">
        <ele>1667</ele>
        <time>2017-01-18T11:12:40.055Z</time>
      </trkpt>
      <trkpt lat="42.99393" lon="-0.00956">
        <ele>1667</ele>
        <time>2017-01-18T11:12:41.055Z</time>
      </trkpt>
      <trkpt lat="42.99394" lon="-0.00953">
        <ele>1667</ele>
        <time>2017-01-18T11:12:42.055Z</time>
      </trkpt>
      <trkpt lat="42.99394" lon="-0.00952">
        <ele>1666</ele>
        <time>2017-01-18T11:12:43.055Z</time>
      </trkpt>
      <trkpt lat="42.99394" lon="-0.00952">
        <ele>1666</ele>
        <time>2017-01-18T11:12:44.055Z</time>
      </trkpt>
      <trkpt lat="42.99395" lon="-0.00949">
        <ele>1666</ele>
        <time>2017-01-18T11:12:45.055Z</time>
      </trkpt>
      <trkpt lat="42.99395" lon="-0.00948">
        <ele>1666</ele>
        <time>2017-01-18T11:12:46.055Z</time>
      </trkpt>
      <trkpt lat="42.99395" lon="-0.00947">
        <ele>1666</ele>
        <time>2017-01-18T11:12:47.055Z</time>
      </trkpt>
      <trkpt lat="42.99395" lon="-0.00947">
        <ele>1666</ele>
        <time>2017-01-18T11:12:48.055Z</time>
      </trkpt>
      <trkpt lat="42.99395" lon="-0.00945">
        <ele>1666</ele>
        <time>2017-01-18T11:12:49.055Z</time>
      </trkpt>
      <trkpt lat="42.99395" lon="-0.00944">
        <ele>1665</ele>
        <time>2017-01-18T11:12:50.055Z</time>
      </trkpt>
      <trkpt lat="42.99395" lon="-0.00941">
        <ele>1665</ele>
        <time>2017-01-18T11:12:51.055Z</time>
      </trkpt>
      <trkpt lat="42.99395" lon="-0.0094">
        <ele>1665</ele>
        <time>2017-01-18T11:12:52.055Z</time>
      </trkpt>
      <trkpt lat="42.99395" lon="-0.00939">
        <ele>1665</ele>
        <time>2017-01-18T11:12:53.055Z</time>
      </trkpt>
      <trkpt lat="42.99395" lon="-0.00939">
        <ele>1665</ele>
        <time>2017-01-18T11:12:54.055Z</time>
      </trkpt>
      <trkpt lat="42.99395" lon="-0.00936">
        <ele>1665</ele>
        <time>2017-01-18T11:12:55.055Z</time>
      </trkpt>
      <trkpt lat="42.99395" lon="-0.00935">
        <ele>1665</ele>
        <time>2017-01-18T11:12:56.055Z</time>
      </trkpt>
      <trkpt lat="42.99395" lon="-0.00934">
        <ele>1665</ele>
        <time>2017-01-18T11:12:57.055Z</time>
      </trkpt>
      <trkpt lat="42.99395" lon="-0.00933">
        <ele>1665</ele>
        <time>2017-01-18T11:12:58.055Z</time>
      </trkpt>
      <trkpt lat="42.99395" lon="-0.00932">
        <ele>1665</ele>
        <time>2017-01-18T11:12:59.055Z</time>
      </trkpt>
      <trkpt lat="42.99395" lon="-0.00932">
        <ele>1665</ele>
        <time>2017-01-18T11:13:00.055Z</time>
      </trkpt>
      <trkpt lat="42.99395" lon="-0.00931">
        <ele>1665</ele>
        <time>2017-01-18T11:13:01.055Z</time>
      </trkpt>
      <trkpt lat="42.99395" lon="-0.0093">
        <ele>1665</ele>
        <time>2017-01-18T11:13:02.055Z</time>
      </trkpt>
      <trkpt lat="42.99395" lon="-0.00928">
        <ele>1665</ele>
        <time>2017-01-18T11:13:03.055Z</time>
      </trkpt>
      <trkpt lat="42.99395" lon="-0.00926">
        <ele>1666</ele>
        <time>2017-01-18T11:13:04.055Z</time>
      </trkpt>
      <trkpt lat="42.99395" lon="-0.00926">
        <ele>1666</ele>
        <time>2017-01-18T11:13:05.055Z</time>
      </trkpt>
      <trkpt lat="42.99395" lon="-0.00924">
        <ele>1665</ele>
        <time>2017-01-18T11:13:06.055Z</time>
      </trkpt>
      <trkpt lat="42.99395" lon="-0.00923">
        <ele>1665</ele>
        <time>2017-01-18T11:13:07.055Z</time>
      </trkpt>
      <trkpt lat="42.99394" lon="-0.00922">
        <ele>1666</ele>
        <time>2017-01-18T11:13:08.055Z</time>
      </trkpt>
      <trkpt lat="42.99394" lon="-0.00921">
        <ele>1665</ele>
        <time>2017-01-18T11:13:09.055Z</time>
      </trkpt>
      <trkpt lat="42.99394" lon="-0.0092">
        <ele>1665</ele>
        <time>2017-01-18T11:13:10.055Z</time>
      </trkpt>
      <trkpt lat="42.99394" lon="-0.0092">
        <ele>1665</ele>
        <time>2017-01-18T11:13:11.055Z</time>
      </trkpt>
      <trkpt lat="42.99394" lon="-0.00918">
        <ele>1665</ele>
        <time>2017-01-18T11:13:12.055Z</time>
      </trkpt>
      <trkpt lat="42.99393" lon="-0.00916">
        <ele>1665</ele>
        <time>2017-01-18T11:13:13.055Z</time>
      </trkpt>
      <trkpt lat="42.99393" lon="-0.00915">
        <ele>1665</ele>
        <time>2017-01-18T11:13:14.055Z</time>
      </trkpt>
      <trkpt lat="42.99393" lon="-0.00914">
        <ele>1665</ele>
        <time>2017-01-18T11:13:15.055Z</time>
      </trkpt>
      <trkpt lat="42.99392" lon="-0.00913">
        <ele>1665</ele>
        <time>2017-01-18T11:13:16.055Z</time>
      </trkpt>
      <trkpt lat="42.99392" lon="-0.00912">
        <ele>1665</ele>
        <time>2017-01-18T11:13:17.055Z</time>
      </trkpt>
      <trkpt lat="42.99392" lon="-0.00911">
        <ele>1665</ele>
        <time>2017-01-18T11:13:18.055Z</time>
      </trkpt>
      <trkpt lat="42.99392" lon="-0.0091">
        <ele>1665</ele>
        <time>2017-01-18T11:13:19.055Z</time>
      </trkpt>
      <trkpt lat="42.99391" lon="-0.00909">
        <ele>1665</ele>
        <time>2017-01-18T11:13:20.055Z</time>
      </trkpt>
      <trkpt lat="42.99391" lon="-0.00908">
        <ele>1665</ele>
        <time>2017-01-18T11:13:21.055Z</time>
      </trkpt>
      <trkpt lat="42.99391" lon="-0.00907">
        <ele>1665</ele>
        <time>2017-01-18T11:13:22.055Z</time>
      </trkpt>
      <trkpt lat="42.99391" lon="-0.00906">
        <ele>1665</ele>
        <time>2017-01-18T11:13:23.055Z</time>
      </trkpt>
      <trkpt lat="42.99391" lon="-0.00905">
        <ele>1665</ele>
        <time>2017-01-18T11:13:24.055Z</time>
      </trkpt>
      <trkpt lat="42.9939" lon="-0.00904">
        <ele>1665</ele>
        <time>2017-01-18T11:13:25.055Z</time>
      </trkpt>
      <trkpt lat="42.9939" lon="-0.00903">
        <ele>1665</ele>
        <time>2017-01-18T11:13:26.055Z</time>
      </trkpt>
      <trkpt lat="42.9939" lon="-0.00902">
        <ele>1665</ele>
        <time>2017-01-18T11:13:27.055Z</time>
      </trkpt>
      <trkpt lat="42.9939" lon="-0.00901">
        <ele>1666</ele>
        <time>2017-01-18T11:13:28.055Z</time>
      </trkpt>
      <trkpt lat="42.9939" lon="-0.009">
        <ele>1666</ele>
        <time>2017-01-18T11:13:29.055Z</time>
      </trkpt>
      <trkpt lat="42.9939" lon="-0.00899">
        <ele>1666</ele>
        <time>2017-01-18T11:13:30.055Z</time>
      </trkpt>
      <trkpt lat="42.9939" lon="-0.00899">
        <ele>1666</ele>
        <time>2017-01-18T11:13:31.055Z</time>
      </trkpt>
      <trkpt lat="42.99389" lon="-0.00897">
        <ele>1665</ele>
        <time>2017-01-18T11:13:32.055Z</time>
      </trkpt>
      <trkpt lat="42.99389" lon="-0.00896">
        <ele>1666</ele>
        <time>2017-01-18T11:13:33.055Z</time>
      </trkpt>
      <trkpt lat="42.99389" lon="-0.00895">
        <ele>1666</ele>
        <time>2017-01-18T11:13:34.055Z</time>
      </trkpt>
      <trkpt lat="42.99389" lon="-0.00895">
        <ele>1666</ele>
        <time>2017-01-18T11:13:35.055Z</time>
      </trkpt>
      <trkpt lat="42.99389" lon="-0.00893">
        <ele>1666</ele>
        <time>2017-01-18T11:13:36.055Z</time>
      </trkpt>
      <trkpt lat="42.99388" lon="-0.00892">
        <ele>1667</ele>
        <time>2017-01-18T11:13:37.055Z</time>
      </trkpt>
      <trkpt lat="42.99388" lon="-0.00891">
        <ele>1667</ele>
        <time>2017-01-18T11:13:38.055Z</time>
      </trkpt>
      <trkpt lat="42.99388" lon="-0.00891">
        <ele>1668</ele>
        <time>2017-01-18T11:13:39.055Z</time>
      </trkpt>
      <trkpt lat="42.99387" lon="-0.0089">
        <ele>1668</ele>
        <time>2017-01-18T11:13:40.055Z</time>
      </trkpt>
      <trkpt lat="42.99387" lon="-0.00889">
        <ele>1668</ele>
        <time>2017-01-18T11:13:41.055Z</time>
      </trkpt>
      <trkpt lat="42.99387" lon="-0.00888">
        <ele>1668</ele>
        <time>2017-01-18T11:13:42.055Z</time>
      </trkpt>
      <trkpt lat="42.99387" lon="-0.00887">
        <ele>1668</ele>
        <time>2017-01-18T11:13:43.055Z</time>
      </trkpt>
      <trkpt lat="42.99386" lon="-0.00887">
        <ele>1668</ele>
        <time>2017-01-18T11:13:44.055Z</time>
      </trkpt>
      <trkpt lat="42.99386" lon="-0.00886">
        <ele>1668</ele>
        <time>2017-01-18T11:13:45.055Z</time>
      </trkpt>
      <trkpt lat="42.99386" lon="-0.00885">
        <ele>1668</ele>
        <time>2017-01-18T11:13:46.055Z</time>
      </trkpt>
      <trkpt lat="42.99386" lon="-0.00884">
        <ele>1669</ele>
        <time>2017-01-18T11:13:47.055Z</time>
      </trkpt>
      <trkpt lat="42.99385" lon="-0.00883">
        <ele>1668</ele>
        <time>2017-01-18T11:13:48.055Z</time>
      </trkpt>
      <trkpt lat="42.99385" lon="-0.00882">
        <ele>1668</ele>
        <time>2017-01-18T11:13:49.055Z</time>
      </trkpt>
      <trkpt lat="42.99385" lon="-0.00882">
        <ele>1668</ele>
        <time>2017-01-18T11:13:50.055Z</time>
      </trkpt>
      <trkpt lat="42.99385" lon="-0.00881">
        <ele>1669</ele>
        <time>2017-01-18T11:13:51.055Z</time>
      </trkpt>
      <trkpt lat="42.99384" lon="-0.0088">
        <ele>1669</ele>
        <time>2017-01-18T11:13:52.055Z</time>
      </trkpt>
      <trkpt lat="42.99384" lon="-0.00879">
        <ele>1669</ele>
        <time>2017-01-18T11:13:53.055Z</time>
      </trkpt>
      <trkpt lat="42.99384" lon="-0.00878">
        <ele>1669</ele>
        <time>2017-01-18T11:13:54.055Z</time>
      </trkpt>
      <trkpt lat="42.99383" lon="-0.00877">
        <ele>1668</ele>
        <time>2017-01-18T11:13:55.055Z</time>
      </trkpt>
      <trkpt lat="42.99383" lon="-0.00877">
        <ele>1669</ele>
        <time>2017-01-18T11:13:56.055Z</time>
      </trkpt>
      <trkpt lat="42.99383" lon="-0.00876">
        <ele>1669</ele>
        <time>2017-01-18T11:13:57.055Z</time>
      </trkpt>
      <trkpt lat="42.99383" lon="-0.00875">
        <ele>1669</ele>
        <time>2017-01-18T11:13:58.055Z</time>
      </trkpt>
      <trkpt lat="42.99383" lon="-0.00874">
        <ele>1669</ele>
        <time>2017-01-18T11:13:59.055Z</time>
      </trkpt>
      <trkpt lat="42.99383" lon="-0.00873">
        <ele>1669</ele>
        <time>2017-01-18T11:14:00.055Z</time>
      </trkpt>
      <trkpt lat="42.99382" lon="-0.00873">
        <ele>1669</ele>
        <time>2017-01-18T11:14:01.055Z</time>
      </trkpt>
      <trkpt lat="42.99382" lon="-0.00872">
        <ele>1669</ele>
        <time>2017-01-18T11:14:02.055Z</time>
      </trkpt>
      <trkpt lat="42.99382" lon="-0.00871">
        <ele>1669</ele>
        <time>2017-01-18T11:14:03.055Z</time>
      </trkpt>
      <trkpt lat="42.99382" lon="-0.0087">
        <ele>1669</ele>
        <time>2017-01-18T11:14:04.055Z</time>
      </trkpt>
      <trkpt lat="42.99381" lon="-0.0087">
        <ele>1669</ele>
        <time>2017-01-18T11:14:05.055Z</time>
      </trkpt>
      <trkpt lat="42.99381" lon="-0.00869">
        <ele>1670</ele>
        <time>2017-01-18T11:14:06.055Z</time>
      </trkpt>
      <trkpt lat="42.99381" lon="-0.00868">
        <ele>1670</ele>
        <time>2017-01-18T11:14:07.055Z</time>
      </trkpt>
      <trkpt lat="42.99381" lon="-0.00868">
        <ele>1670</ele>
        <time>2017-01-18T11:14:08.055Z</time>
      </trkpt>
      <trkpt lat="42.99381" lon="-0.00867">
        <ele>1670</ele>
        <time>2017-01-18T11:14:09.055Z</time>
      </trkpt>
      <trkpt lat="42.99381" lon="-0.00866">
        <ele>1670</ele>
        <time>2017-01-18T11:14:10.055Z</time>
      </trkpt>
      <trkpt lat="42.9938" lon="-0.00865">
        <ele>1670</ele>
        <time>2017-01-18T11:14:11.055Z</time>
      </trkpt>
      <trkpt lat="42.9938" lon="-0.00865">
        <ele>1670</ele>
        <time>2017-01-18T11:14:12.055Z</time>
      </trkpt>
      <trkpt lat="42.9938" lon="-0.00864">
        <ele>1670</ele>
        <time>2017-01-18T11:14:13.055Z</time>
      </trkpt>
      <trkpt lat="42.9938" lon="-0.00863">
        <ele>1670</ele>
        <time>2017-01-18T11:14:14.055Z</time>
      </trkpt>
      <trkpt lat="42.9938" lon="-0.00863">
        <ele>1670</ele>
        <time>2017-01-18T11:14:15.055Z</time>
      </trkpt>
      <trkpt lat="42.9938" lon="-0.00862">
        <ele>1670</ele>
        <time>2017-01-18T11:14:16.055Z</time>
      </trkpt>
      <trkpt lat="42.99379" lon="-0.00862">
        <ele>1670</ele>
        <time>2017-01-18T11:14:17.055Z</time>
      </trkpt>
      <trkpt lat="42.99379" lon="-0.00861">
        <ele>1670</ele>
        <time>2017-01-18T11:14:18.055Z</time>
      </trkpt>
      <trkpt lat="42.99379" lon="-0.00861">
        <ele>1670</ele>
        <time>2017-01-18T11:14:19.055Z</time>
      </trkpt>
      <trkpt lat="42.99379" lon="-0.0086">
        <ele>1670</ele>
        <time>2017-01-18T11:14:20.055Z</time>
      </trkpt>
      <trkpt lat="42.99379" lon="-0.00859">
        <ele>1670</ele>
        <time>2017-01-18T11:14:21.055Z</time>
      </trkpt>
      <trkpt lat="42.99378" lon="-0.00858">
        <ele>1669</ele>
        <time>2017-01-18T11:14:22.055Z</time>
      </trkpt>
      <trkpt lat="42.99378" lon="-0.00858">
        <ele>1670</ele>
        <time>2017-01-18T11:14:23.055Z</time>
      </trkpt>
      <trkpt lat="42.99378" lon="-0.00857">
        <ele>1670</ele>
        <time>2017-01-18T11:14:24.055Z</time>
      </trkpt>
      <trkpt lat="42.99378" lon="-0.00856">
        <ele>1670</ele>
        <time>2017-01-18T11:14:25.055Z</time>
      </trkpt>
      <trkpt lat="42.99377" lon="-0.00856">
        <ele>1670</ele>
        <time>2017-01-18T11:14:26.055Z</time>
      </trkpt>
      <trkpt lat="42.99377" lon="-0.00855">
        <ele>1670</ele>
        <time>2017-01-18T11:14:27.055Z</time>
      </trkpt>
      <trkpt lat="42.99377" lon="-0.00854">
        <ele>1670</ele>
        <time>2017-01-18T11:14:28.055Z</time>
      </trkpt>
      <trkpt lat="42.99377" lon="-0.00853">
        <ele>1670</ele>
        <time>2017-01-18T11:14:29.055Z</time>
      </trkpt>
      <trkpt lat="42.99377" lon="-0.00853">
        <ele>1670</ele>
        <time>2017-01-18T11:14:30.055Z</time>
      </trkpt>
      <trkpt lat="42.99377" lon="-0.00852">
        <ele>1671</ele>
        <time>2017-01-18T11:14:31.055Z</time>
      </trkpt>
      <trkpt lat="42.99377" lon="-0.00851">
        <ele>1671</ele>
        <time>2017-01-18T11:14:32.055Z</time>
      </trkpt>
      <trkpt lat="42.99377" lon="-0.00851">
        <ele>1671</ele>
        <time>2017-01-18T11:14:33.055Z</time>
      </trkpt>
      <trkpt lat="42.99377" lon="-0.0085">
        <ele>1671</ele>
        <time>2017-01-18T11:14:34.055Z</time>
      </trkpt>
      <trkpt lat="42.99377" lon="-0.00849">
        <ele>1671</ele>
        <time>2017-01-18T11:14:35.055Z</time>
      </trkpt>
      <trkpt lat="42.99377" lon="-0.00849">
        <ele>1672</ele>
        <time>2017-01-18T11:14:36.055Z</time>
      </trkpt>
      <trkpt lat="42.99376" lon="-0.00848">
        <ele>1672</ele>
        <time>2017-01-18T11:14:37.055Z</time>
      </trkpt>
      <trkpt lat="42.99376" lon="-0.00848">
        <ele>1672</ele>
        <time>2017-01-18T11:14:38.055Z</time>
      </trkpt>
      <trkpt lat="42.99376" lon="-0.00847">
        <ele>1672</ele>
        <time>2017-01-18T11:14:39.055Z</time>
      </trkpt>
      <trkpt lat="42.99376" lon="-0.00846">
        <ele>1672</ele>
        <time>2017-01-18T11:14:40.055Z</time>
      </trkpt>
      <trkpt lat="42.99376" lon="-0.00846">
        <ele>1672</ele>
        <time>2017-01-18T11:14:41.055Z</time>
      </trkpt>
      <trkpt lat="42.99376" lon="-0.00845">
        <ele>1672</ele>
        <time>2017-01-18T11:14:42.055Z</time>
      </trkpt>
      <trkpt lat="42.99376" lon="-0.00844">
        <ele>1672</ele>
        <time>2017-01-18T11:14:43.055Z</time>
      </trkpt>
      <trkpt lat="42.99376" lon="-0.00844">
        <ele>1672</ele>
        <time>2017-01-18T11:14:44.055Z</time>
      </trkpt>
      <trkpt lat="42.99376" lon="-0.00843">
        <ele>1672</ele>
        <time>2017-01-18T11:14:45.055Z</time>
      </trkpt>
      <trkpt lat="42.99375" lon="-0.00842">
        <ele>1672</ele>
        <time>2017-01-18T11:14:46.055Z</time>
      </trkpt>
      <trkpt lat="42.99375" lon="-0.00841">
        <ele>1672</ele>
        <time>2017-01-18T11:14:47.055Z</time>
      </trkpt>
      <trkpt lat="42.99375" lon="-0.00841">
        <ele>1672</ele>
        <time>2017-01-18T11:14:48.055Z</time>
      </trkpt>
      <trkpt lat="42.99375" lon="-0.0084">
        <ele>1672</ele>
        <time>2017-01-18T11:14:49.055Z</time>
      </trkpt>
      <trkpt lat="42.99375" lon="-0.0084">
        <ele>1672</ele>
        <time>2017-01-18T11:14:50.055Z</time>
      </trkpt>
      <trkpt lat="42.99375" lon="-0.00839">
        <ele>1672</ele>
        <time>2017-01-18T11:14:51.055Z</time>
      </trkpt>
      <trkpt lat="42.99375" lon="-0.00839">
        <ele>1672</ele>
        <time>2017-01-18T11:14:52.055Z</time>
      </trkpt>
      <trkpt lat="42.99374" lon="-0.00838">
        <ele>1672</ele>
        <time>2017-01-18T11:14:53.055Z</time>
      </trkpt>
      <trkpt lat="42.99374" lon="-0.00837">
        <ele>1672</ele>
        <time>2017-01-18T11:14:54.055Z</time>
      </trkpt>
      <trkpt lat="42.99374" lon="-0.00837">
        <ele>1672</ele>
        <time>2017-01-18T11:14:55.055Z</time>
      </trkpt>
      <trkpt lat="42.99374" lon="-0.00836">
        <ele>1672</ele>
        <time>2017-01-18T11:14:56.055Z</time>
      </trkpt>
      <trkpt lat="42.99374" lon="-0.00835">
        <ele>1672</ele>
        <time>2017-01-18T11:14:57.055Z</time>
      </trkpt>
      <trkpt lat="42.99374" lon="-0.00835">
        <ele>1672</ele>
        <time>2017-01-18T11:14:58.055Z</time>
      </trkpt>
      <trkpt lat="42.99374" lon="-0.00834">
        <ele>1672</ele>
        <time>2017-01-18T11:14:59.055Z</time>
      </trkpt>
      <trkpt lat="42.99373" lon="-0.00833">
        <ele>1673</ele>
        <time>2017-01-18T11:15:00.055Z</time>
      </trkpt>
      <trkpt lat="42.99373" lon="-0.00833">
        <ele>1673</ele>
        <time>2017-01-18T11:15:01.055Z</time>
      </trkpt>
      <trkpt lat="42.99373" lon="-0.00832">
        <ele>1673</ele>
        <time>2017-01-18T11:15:02.055Z</time>
      </trkpt>
      <trkpt lat="42.99373" lon="-0.00831">
        <ele>1673</ele>
        <time>2017-01-18T11:15:03.055Z</time>
      </trkpt>
      <trkpt lat="42.99373" lon="-0.00831">
        <ele>1673</ele>
        <time>2017-01-18T11:15:04.055Z</time>
      </trkpt>
      <trkpt lat="42.99373" lon="-0.0083">
        <ele>1673</ele>
        <time>2017-01-18T11:15:05.055Z</time>
      </trkpt>
      <trkpt lat="42.99372" lon="-0.0083">
        <ele>1673</ele>
        <time>2017-01-18T11:15:06.055Z</time>
      </trkpt>
      <trkpt lat="42.99372" lon="-0.00829">
        <ele>1673</ele>
        <time>2017-01-18T11:15:07.055Z</time>
      </trkpt>
      <trkpt lat="42.99372" lon="-0.00828">
        <ele>1673</ele>
        <time>2017-01-18T11:15:08.055Z</time>
      </trkpt>
      <trkpt lat="42.99372" lon="-0.00828">
        <ele>1672</ele>
        <time>2017-01-18T11:15:09.055Z</time>
      </trkpt>
      <trkpt lat="42.99371" lon="-0.00827">
        <ele>1672</ele>
        <time>2017-01-18T11:15:10.055Z</time>
      </trkpt>
      <trkpt lat="42.99371" lon="-0.00826">
        <ele>1672</ele>
        <time>2017-01-18T11:15:11.055Z</time>
      </trkpt>
      <trkpt lat="42.99371" lon="-0.00825">
        <ele>1672</ele>
        <time>2017-01-18T11:15:12.055Z</time>
      </trkpt>
      <trkpt lat="42.99371" lon="-0.00825">
        <ele>1673</ele>
        <time>2017-01-18T11:15:13.055Z</time>
      </trkpt>
      <trkpt lat="42.99371" lon="-0.00824">
        <ele>1672</ele>
        <time>2017-01-18T11:15:14.055Z</time>
      </trkpt>
      <trkpt lat="42.99371" lon="-0.00823">
        <ele>1673</ele>
        <time>2017-01-18T11:15:15.055Z</time>
      </trkpt>
      <trkpt lat="42.99371" lon="-0.00823">
        <ele>1673</ele>
        <time>2017-01-18T11:15:16.055Z</time>
      </trkpt>
      <trkpt lat="42.99371" lon="-0.00822">
        <ele>1673</ele>
        <time>2017-01-18T11:15:17.055Z</time>
      </trkpt>
      <trkpt lat="42.99371" lon="-0.00821">
        <ele>1674</ele>
        <time>2017-01-18T11:15:18.055Z</time>
      </trkpt>
      <trkpt lat="42.99371" lon="-0.0082">
        <ele>1674</ele>
        <time>2017-01-18T11:15:19.055Z</time>
      </trkpt>
      <trkpt lat="42.99371" lon="-0.0082">
        <ele>1674</ele>
        <time>2017-01-18T11:15:20.055Z</time>
      </trkpt>
      <trkpt lat="42.99371" lon="-0.00819">
        <ele>1674</ele>
        <time>2017-01-18T11:15:21.055Z</time>
      </trkpt>
      <trkpt lat="42.99371" lon="-0.00818">
        <ele>1674</ele>
        <time>2017-01-18T11:15:22.055Z</time>
      </trkpt>
      <trkpt lat="42.9937" lon="-0.00817">
        <ele>1674</ele>
        <time>2017-01-18T11:15:23.055Z</time>
      </trkpt>
      <trkpt lat="42.9937" lon="-0.00817">
        <ele>1674</ele>
        <time>2017-01-18T11:15:24.055Z</time>
      </trkpt>
      <trkpt lat="42.9937" lon="-0.00816">
        <ele>1674</ele>
        <time>2017-01-18T11:15:25.055Z</time>
      </trkpt>
      <trkpt lat="42.99371" lon="-0.00815">
        <ele>1675</ele>
        <time>2017-01-18T11:15:26.055Z</time>
      </trkpt>
      <trkpt lat="42.99371" lon="-0.00815">
        <ele>1675</ele>
        <time>2017-01-18T11:15:27.055Z</time>
      </trkpt>
      <trkpt lat="42.99371" lon="-0.00814">
        <ele>1675</ele>
        <time>2017-01-18T11:15:28.055Z</time>
      </trkpt>
      <trkpt lat="42.99371" lon="-0.00813">
        <ele>1675</ele>
        <time>2017-01-18T11:15:29.055Z</time>
      </trkpt>
      <trkpt lat="42.9937" lon="-0.00812">
        <ele>1675</ele>
        <time>2017-01-18T11:15:30.055Z</time>
      </trkpt>
      <trkpt lat="42.9937" lon="-0.00812">
        <ele>1675</ele>
        <time>2017-01-18T11:15:31.055Z</time>
      </trkpt>
      <trkpt lat="42.9937" lon="-0.00811">
        <ele>1675</ele>
        <time>2017-01-18T11:15:32.055Z</time>
      </trkpt>
      <trkpt lat="42.9937" lon="-0.0081">
        <ele>1675</ele>
        <time>2017-01-18T11:15:33.055Z</time>
      </trkpt>
      <trkpt lat="42.99371" lon="-0.00809">
        <ele>1675</ele>
        <time>2017-01-18T11:15:34.055Z</time>
      </trkpt>
      <trkpt lat="42.99371" lon="-0.00809">
        <ele>1675</ele>
        <time>2017-01-18T11:15:35.055Z</time>
      </trkpt>
      <trkpt lat="42.99371" lon="-0.00808">
        <ele>1675</ele>
        <time>2017-01-18T11:15:36.055Z</time>
      </trkpt>
      <trkpt lat="42.9937" lon="-0.00807">
        <ele>1675</ele>
        <time>2017-01-18T11:15:37.055Z</time>
      </trkpt>
      <trkpt lat="42.9937" lon="-0.00806">
        <ele>1675</ele>
        <time>2017-01-18T11:15:38.055Z</time>
      </trkpt>
      <trkpt lat="42.99371" lon="-0.00806">
        <ele>1675</ele>
        <time>2017-01-18T11:15:39.055Z</time>
      </trkpt>
      <trkpt lat="42.99371" lon="-0.00805">
        <ele>1676</ele>
        <time>2017-01-18T11:15:40.055Z</time>
      </trkpt>
      <trkpt lat="42.99371" lon="-0.00804">
        <ele>1676</ele>
        <time>2017-01-18T11:15:41.055Z</time>
      </trkpt>
      <trkpt lat="42.99371" lon="-0.00803">
        <ele>1676</ele>
        <time>2017-01-18T11:15:42.055Z</time>
      </trkpt>
      <trkpt lat="42.9937" lon="-0.00802">
        <ele>1676</ele>
        <time>2017-01-18T11:15:43.055Z</time>
      </trkpt>
      <trkpt lat="42.9937" lon="-0.00802">
        <ele>1676</ele>
        <time>2017-01-18T11:15:44.055Z</time>
      </trkpt>
      <trkpt lat="42.9937" lon="-0.00801">
        <ele>1676</ele>
        <time>2017-01-18T11:15:45.055Z</time>
      </trkpt>
      <trkpt lat="42.99371" lon="-0.008">
        <ele>1676</ele>
        <time>2017-01-18T11:15:46.055Z</time>
      </trkpt>
      <trkpt lat="42.99371" lon="-0.00799">
        <ele>1676</ele>
        <time>2017-01-18T11:15:47.055Z</time>
      </trkpt>
      <trkpt lat="42.99371" lon="-0.00798">
        <ele>1676</ele>
        <time>2017-01-18T11:15:48.055Z</time>
      </trkpt>
      <trkpt lat="42.99371" lon="-0.00797">
        <ele>1676</ele>
        <time>2017-01-18T11:15:49.055Z</time>
      </trkpt>
      <trkpt lat="42.99371" lon="-0.00796">
        <ele>1676</ele>
        <time>2017-01-18T11:15:50.055Z</time>
      </trkpt>
      <trkpt lat="42.99371" lon="-0.00795">
        <ele>1676</ele>
        <time>2017-01-18T11:15:51.055Z</time>
      </trkpt>
      <trkpt lat="42.99371" lon="-0.00795">
        <ele>1676</ele>
        <time>2017-01-18T11:15:52.055Z</time>
      </trkpt>
      <trkpt lat="42.99371" lon="-0.00794">
        <ele>1675</ele>
        <time>2017-01-18T11:15:53.055Z</time>
      </trkpt>
      <trkpt lat="42.99371" lon="-0.00793">
        <ele>1676</ele>
        <time>2017-01-18T11:15:54.055Z</time>
      </trkpt>
      <trkpt lat="42.99371" lon="-0.00792">
        <ele>1675</ele>
        <time>2017-01-18T11:15:55.055Z</time>
      </trkpt>
      <trkpt lat="42.99371" lon="-0.00791">
        <ele>1675</ele>
        <time>2017-01-18T11:15:56.055Z</time>
      </trkpt>
      <trkpt lat="42.99371" lon="-0.00791">
        <ele>1675</ele>
        <time>2017-01-18T11:15:57.055Z</time>
      </trkpt>
      <trkpt lat="42.99371" lon="-0.0079">
        <ele>1675</ele>
        <time>2017-01-18T11:15:58.055Z</time>
      </trkpt>
      <trkpt lat="42.99371" lon="-0.00789">
        <ele>1675</ele>
        <time>2017-01-18T11:15:59.055Z</time>
      </trkpt>
      <trkpt lat="42.99371" lon="-0.00788">
        <ele>1675</ele>
        <time>2017-01-18T11:16:00.055Z</time>
      </trkpt>
      <trkpt lat="42.99371" lon="-0.00787">
        <ele>1675</ele>
        <time>2017-01-18T11:16:01.055Z</time>
      </trkpt>
      <trkpt lat="42.9937" lon="-0.00786">
        <ele>1675</ele>
        <time>2017-01-18T11:16:02.055Z</time>
      </trkpt>
      <trkpt lat="42.9937" lon="-0.00786">
        <ele>1675</ele>
        <time>2017-01-18T11:16:03.055Z</time>
      </trkpt>
      <trkpt lat="42.9937" lon="-0.00785">
        <ele>1675</ele>
        <time>2017-01-18T11:16:04.055Z</time>
      </trkpt>
      <trkpt lat="42.9937" lon="-0.00784">
        <ele>1675</ele>
        <time>2017-01-18T11:16:05.055Z</time>
      </trkpt>
      <trkpt lat="42.9937" lon="-0.00783">
        <ele>1675</ele>
        <time>2017-01-18T11:16:06.055Z</time>
      </trkpt>
      <trkpt lat="42.9937" lon="-0.00782">
        <ele>1675</ele>
        <time>2017-01-18T11:16:07.055Z</time>
      </trkpt>
      <trkpt lat="42.99369" lon="-0.00782">
        <ele>1675</ele>
        <time>2017-01-18T11:16:08.055Z</time>
      </trkpt>
      <trkpt lat="42.99369" lon="-0.00781">
        <ele>1675</ele>
        <time>2017-01-18T11:16:09.055Z</time>
      </trkpt>
      <trkpt lat="42.99369" lon="-0.0078">
        <ele>1675</ele>
        <time>2017-01-18T11:16:10.055Z</time>
      </trkpt>
      <trkpt lat="42.99369" lon="-0.00779">
        <ele>1675</ele>
        <time>2017-01-18T11:16:11.055Z</time>
      </trkpt>
      <trkpt lat="42.99369" lon="-0.00778">
        <ele>1675</ele>
        <time>2017-01-18T11:16:12.055Z</time>
      </trkpt>
      <trkpt lat="42.99369" lon="-0.00777">
        <ele>1675</ele>
        <time>2017-01-18T11:16:13.055Z</time>
      </trkpt>
      <trkpt lat="42.99369" lon="-0.00776">
        <ele>1675</ele>
        <time>2017-01-18T11:16:14.055Z</time>
      </trkpt>
      <trkpt lat="42.9937" lon="-0.00775">
        <ele>1675</ele>
        <time>2017-01-18T11:16:15.055Z</time>
      </trkpt>
      <trkpt lat="42.9937" lon="-0.00775">
        <ele>1675</ele>
        <time>2017-01-18T11:16:16.055Z</time>
      </trkpt>
      <trkpt lat="42.9937" lon="-0.00774">
        <ele>1675</ele>
        <time>2017-01-18T11:16:17.055Z</time>
      </trkpt>
      <trkpt lat="42.9937" lon="-0.00773">
        <ele>1675</ele>
        <time>2017-01-18T11:16:18.055Z</time>
      </trkpt>
      <trkpt lat="42.9937" lon="-0.00772">
        <ele>1675</ele>
        <time>2017-01-18T11:16:19.055Z</time>
      </trkpt>
      <trkpt lat="42.9937" lon="-0.00771">
        <ele>1676</ele>
        <time>2017-01-18T11:16:20.055Z</time>
      </trkpt>
      <trkpt lat="42.9937" lon="-0.0077">
        <ele>1675</ele>
        <time>2017-01-18T11:16:21.055Z</time>
      </trkpt>
      <trkpt lat="42.9937" lon="-0.00769">
        <ele>1675</ele>
        <time>2017-01-18T11:16:22.055Z</time>
      </trkpt>
      <trkpt lat="42.9937" lon="-0.00768">
        <ele>1675</ele>
        <time>2017-01-18T11:16:23.055Z</time>
      </trkpt>
      <trkpt lat="42.9937" lon="-0.00767">
        <ele>1675</ele>
        <time>2017-01-18T11:16:24.055Z</time>
      </trkpt>
      <trkpt lat="42.9937" lon="-0.00766">
        <ele>1676</ele>
        <time>2017-01-18T11:16:25.055Z</time>
      </trkpt>
      <trkpt lat="42.9937" lon="-0.00766">
        <ele>1676</ele>
        <time>2017-01-18T11:16:26.055Z</time>
      </trkpt>
      <trkpt lat="42.9937" lon="-0.00765">
        <ele>1676</ele>
        <time>2017-01-18T11:16:27.055Z</time>
      </trkpt>
      <trkpt lat="42.9937" lon="-0.00764">
        <ele>1676</ele>
        <time>2017-01-18T11:16:28.055Z</time>
      </trkpt>
      <trkpt lat="42.9937" lon="-0.00763">
        <ele>1676</ele>
        <time>2017-01-18T11:16:29.055Z</time>
      </trkpt>
      <trkpt lat="42.9937" lon="-0.00762">
        <ele>1676</ele>
        <time>2017-01-18T11:16:30.055Z</time>
      </trkpt>
      <trkpt lat="42.9937" lon="-0.00762">
        <ele>1677</ele>
        <time>2017-01-18T11:16:31.055Z</time>
      </trkpt>
      <trkpt lat="42.99371" lon="-0.00761">
        <ele>1677</ele>
        <time>2017-01-18T11:16:32.055Z</time>
      </trkpt>
      <trkpt lat="42.99371" lon="-0.0076">
        <ele>1677</ele>
        <time>2017-01-18T11:16:33.055Z</time>
      </trkpt>
      <trkpt lat="42.99371" lon="-0.00759">
        <ele>1676</ele>
        <time>2017-01-18T11:16:34.055Z</time>
      </trkpt>
      <trkpt lat="42.99371" lon="-0.00758">
        <ele>1676</ele>
        <time>2017-01-18T11:16:35.055Z</time>
      </trkpt>
      <trkpt lat="42.99371" lon="-0.00757">
        <ele>1677</ele>
        <time>2017-01-18T11:16:36.055Z</time>
      </trkpt>
      <trkpt lat="42.99371" lon="-0.00756">
        <ele>1676</ele>
        <time>2017-01-18T11:16:37.055Z</time>
      </trkpt>
      <trkpt lat="42.99371" lon="-0.00755">
        <ele>1676</ele>
        <time>2017-01-18T11:16:38.055Z</time>
      </trkpt>
      <trkpt lat="42.9937" lon="-0.00755">
        <ele>1676</ele>
        <time>2017-01-18T11:16:39.055Z</time>
      </trkpt>
      <trkpt lat="42.9937" lon="-0.00754">
        <ele>1676</ele>
        <time>2017-01-18T11:16:40.055Z</time>
      </trkpt>
      <trkpt lat="42.9937" lon="-0.00752">
        <ele>1676</ele>
        <time>2017-01-18T11:16:41.055Z</time>
      </trkpt>
      <trkpt lat="42.9937" lon="-0.00751">
        <ele>1676</ele>
        <time>2017-01-18T11:16:42.055Z</time>
      </trkpt>
      <trkpt lat="42.9937" lon="-0.0075">
        <ele>1676</ele>
        <time>2017-01-18T11:16:43.055Z</time>
      </trkpt>
      <trkpt lat="42.9937" lon="-0.00749">
        <ele>1676</ele>
        <time>2017-01-18T11:16:44.055Z</time>
      </trkpt>
      <trkpt lat="42.9937" lon="-0.00748">
        <ele>1676</ele>
        <time>2017-01-18T11:16:45.055Z</time>
      </trkpt>
      <trkpt lat="42.9937" lon="-0.00747">
        <ele>1676</ele>
        <time>2017-01-18T11:16:46.055Z</time>
      </trkpt>
      <trkpt lat="42.9937" lon="-0.00747">
        <ele>1676</ele>
        <time>2017-01-18T11:16:47.055Z</time>
      </trkpt>
      <trkpt lat="42.9937" lon="-0.00746">
        <ele>1676</ele>
        <time>2017-01-18T11:16:48.055Z</time>
      </trkpt>
      <trkpt lat="42.9937" lon="-0.00745">
        <ele>1676</ele>
        <time>2017-01-18T11:16:49.055Z</time>
      </trkpt>
      <trkpt lat="42.99369" lon="-0.00744">
        <ele>1676</ele>
        <time>2017-01-18T11:16:50.055Z</time>
      </trkpt>
      <trkpt lat="42.99369" lon="-0.00743">
        <ele>1677</ele>
        <time>2017-01-18T11:16:51.055Z</time>
      </trkpt>
      <trkpt lat="42.99369" lon="-0.00743">
        <ele>1676</ele>
        <time>2017-01-18T11:16:52.055Z</time>
      </trkpt>
      <trkpt lat="42.99369" lon="-0.00742">
        <ele>1677</ele>
        <time>2017-01-18T11:16:53.055Z</time>
      </trkpt>
      <trkpt lat="42.99369" lon="-0.00741">
        <ele>1677</ele>
        <time>2017-01-18T11:16:54.055Z</time>
      </trkpt>
      <trkpt lat="42.99369" lon="-0.0074">
        <ele>1676</ele>
        <time>2017-01-18T11:16:55.055Z</time>
      </trkpt>
      <trkpt lat="42.99369" lon="-0.00739">
        <ele>1677</ele>
        <time>2017-01-18T11:16:56.055Z</time>
      </trkpt>
      <trkpt lat="42.99369" lon="-0.00739">
        <ele>1677</ele>
        <time>2017-01-18T11:16:57.055Z</time>
      </trkpt>
      <trkpt lat="42.99369" lon="-0.00738">
        <ele>1677</ele>
        <time>2017-01-18T11:16:58.055Z</time>
      </trkpt>
      <trkpt lat="42.99369" lon="-0.00737">
        <ele>1677</ele>
        <time>2017-01-18T11:16:59.055Z</time>
      </trkpt>
      <trkpt lat="42.99369" lon="-0.00736">
        <ele>1677</ele>
        <time>2017-01-18T11:17:00.055Z</time>
      </trkpt>
      <trkpt lat="42.99369" lon="-0.00735">
        <ele>1677</ele>
        <time>2017-01-18T11:17:01.055Z</time>
      </trkpt>
      <trkpt lat="42.99369" lon="-0.00735">
        <ele>1677</ele>
        <time>2017-01-18T11:17:02.055Z</time>
      </trkpt>
      <trkpt lat="42.99368" lon="-0.00734">
        <ele>1677</ele>
        <time>2017-01-18T11:17:03.055Z</time>
      </trkpt>
      <trkpt lat="42.99368" lon="-0.00733">
        <ele>1677</ele>
        <time>2017-01-18T11:17:04.055Z</time>
      </trkpt>
      <trkpt lat="42.99368" lon="-0.00732">
        <ele>1678</ele>
        <time>2017-01-18T11:17:05.055Z</time>
      </trkpt>
      <trkpt lat="42.99368" lon="-0.00731">
        <ele>1678</ele>
        <time>2017-01-18T11:17:06.055Z</time>
      </trkpt>
      <trkpt lat="42.99368" lon="-0.0073">
        <ele>1678</ele>
        <time>2017-01-18T11:17:07.055Z</time>
      </trkpt>
      <trkpt lat="42.99368" lon="-0.0073">
        <ele>1678</ele>
        <time>2017-01-18T11:17:08.055Z</time>
      </trkpt>
      <trkpt lat="42.99368" lon="-0.00729">
        <ele>1678</ele>
        <time>2017-01-18T11:17:09.055Z</time>
      </trkpt>
      <trkpt lat="42.99368" lon="-0.00728">
        <ele>1677</ele>
        <time>2017-01-18T11:17:10.055Z</time>
      </trkpt>
      <trkpt lat="42.99368" lon="-0.00727">
        <ele>1677</ele>
        <time>2017-01-18T11:17:11.055Z</time>
      </trkpt>
      <trkpt lat="42.99369" lon="-0.00727">
        <ele>1677</ele>
        <time>2017-01-18T11:17:12.055Z</time>
      </trkpt>
      <trkpt lat="42.99369" lon="-0.00726">
        <ele>1677</ele>
        <time>2017-01-18T11:17:13.055Z</time>
      </trkpt>
      <trkpt lat="42.99369" lon="-0.00725">
        <ele>1677</ele>
        <time>2017-01-18T11:17:14.055Z</time>
      </trkpt>
      <trkpt lat="42.9937" lon="-0.00725">
        <ele>1677</ele>
        <time>2017-01-18T11:17:15.055Z</time>
      </trkpt>
      <trkpt lat="42.9937" lon="-0.00724">
        <ele>1677</ele>
        <time>2017-01-18T11:17:16.055Z</time>
      </trkpt>
      <trkpt lat="42.9937" lon="-0.00724">
        <ele>1677</ele>
        <time>2017-01-18T11:17:17.055Z</time>
      </trkpt>
      <trkpt lat="42.99371" lon="-0.00724">
        <ele>1676</ele>
        <time>2017-01-18T11:17:18.055Z</time>
      </trkpt>
      <trkpt lat="42.99371" lon="-0.00723">
        <ele>1677</ele>
        <time>2017-01-18T11:17:19.055Z</time>
      </trkpt>
      <trkpt lat="42.99371" lon="-0.00723">
        <ele>1677</ele>
        <time>2017-01-18T11:17:20.055Z</time>
      </trkpt>
      <trkpt lat="42.99371" lon="-0.00723">
        <ele>1677</ele>
        <time>2017-01-18T11:17:21.055Z</time>
      </trkpt>
      <trkpt lat="42.99371" lon="-0.00723">
        <ele>1677</ele>
        <time>2017-01-18T11:17:22.055Z</time>
      </trkpt>
      <trkpt lat="42.99371" lon="-0.00723">
        <ele>1677</ele>
        <time>2017-01-18T11:17:23.055Z</time>
      </trkpt>
      <trkpt lat="42.99371" lon="-0.00723">
        <ele>1677</ele>
        <time>2017-01-18T11:17:24.055Z</time>
      </trkpt>
      <trkpt lat="42.99369" lon="-0.0072">
        <ele>1679</ele>
        <time>2017-01-18T11:17:26.055Z</time>
      </trkpt>
      <trkpt lat="42.99368" lon="-0.00719">
        <ele>1679</ele>
        <time>2017-01-18T11:17:27.055Z</time>
      </trkpt>
      <trkpt lat="42.99368" lon="-0.00719">
        <ele>1679</ele>
        <time>2017-01-18T11:17:28.055Z</time>
      </trkpt>
      <trkpt lat="42.99367" lon="-0.00718">
        <ele>1679</ele>
        <time>2017-01-18T11:17:29.055Z</time>
      </trkpt>
      <trkpt lat="42.99367" lon="-0.00717">
        <ele>1679</ele>
        <time>2017-01-18T11:17:30.055Z</time>
      </trkpt>
      <trkpt lat="42.99366" lon="-0.00717">
        <ele>1679</ele>
        <time>2017-01-18T11:17:31.055Z</time>
      </trkpt>
      <trkpt lat="42.99366" lon="-0.00716">
        <ele>1679</ele>
        <time>2017-01-18T11:17:32.055Z</time>
      </trkpt>
      <trkpt lat="42.99366" lon="-0.00715">
        <ele>1679</ele>
        <time>2017-01-18T11:17:33.055Z</time>
      </trkpt>
      <trkpt lat="42.99366" lon="-0.00714">
        <ele>1679</ele>
        <time>2017-01-18T11:17:34.055Z</time>
      </trkpt>
      <trkpt lat="42.99366" lon="-0.00713">
        <ele>1679</ele>
        <time>2017-01-18T11:17:35.055Z</time>
      </trkpt>
      <trkpt lat="42.99366" lon="-0.00712">
        <ele>1679</ele>
        <time>2017-01-18T11:17:36.055Z</time>
      </trkpt>
      <trkpt lat="42.99366" lon="-0.00711">
        <ele>1679</ele>
        <time>2017-01-18T11:17:37.055Z</time>
      </trkpt>
      <trkpt lat="42.99365" lon="-0.0071">
        <ele>1679</ele>
        <time>2017-01-18T11:17:38.055Z</time>
      </trkpt>
      <trkpt lat="42.99365" lon="-0.00709">
        <ele>1679</ele>
        <time>2017-01-18T11:17:39.055Z</time>
      </trkpt>
      <trkpt lat="42.99365" lon="-0.00709">
        <ele>1679</ele>
        <time>2017-01-18T11:17:40.055Z</time>
      </trkpt>
      <trkpt lat="42.99365" lon="-0.00708">
        <ele>1679</ele>
        <time>2017-01-18T11:17:41.055Z</time>
      </trkpt>
      <trkpt lat="42.99365" lon="-0.00707">
        <ele>1679</ele>
        <time>2017-01-18T11:17:42.055Z</time>
      </trkpt>
      <trkpt lat="42.99365" lon="-0.00706">
        <ele>1679</ele>
        <time>2017-01-18T11:17:43.055Z</time>
      </trkpt>
      <trkpt lat="42.99365" lon="-0.00705">
        <ele>1679</ele>
        <time>2017-01-18T11:17:44.055Z</time>
      </trkpt>
      <trkpt lat="42.99365" lon="-0.00704">
        <ele>1679</ele>
        <time>2017-01-18T11:17:45.055Z</time>
      </trkpt>
      <trkpt lat="42.99365" lon="-0.00702">
        <ele>1680</ele>
        <time>2017-01-18T11:17:46.055Z</time>
      </trkpt>
      <trkpt lat="42.99365" lon="-0.00701">
        <ele>1679</ele>
        <time>2017-01-18T11:17:47.055Z</time>
      </trkpt>
      <trkpt lat="42.99365" lon="-0.007">
        <ele>1680</ele>
        <time>2017-01-18T11:17:48.055Z</time>
      </trkpt>
      <trkpt lat="42.99365" lon="-0.00699">
        <ele>1680</ele>
        <time>2017-01-18T11:17:49.055Z</time>
      </trkpt>
      <trkpt lat="42.99365" lon="-0.00698">
        <ele>1679</ele>
        <time>2017-01-18T11:17:50.055Z</time>
      </trkpt>
      <trkpt lat="42.99365" lon="-0.00697">
        <ele>1680</ele>
        <time>2017-01-18T11:17:51.055Z</time>
      </trkpt>
      <trkpt lat="42.99365" lon="-0.00696">
        <ele>1680</ele>
        <time>2017-01-18T11:17:52.055Z</time>
      </trkpt>
      <trkpt lat="42.99365" lon="-0.00695">
        <ele>1680</ele>
        <time>2017-01-18T11:17:53.055Z</time>
      </trkpt>
      <trkpt lat="42.99365" lon="-0.00694">
        <ele>1680</ele>
        <time>2017-01-18T11:17:54.055Z</time>
      </trkpt>
      <trkpt lat="42.99365" lon="-0.00693">
        <ele>1680</ele>
        <time>2017-01-18T11:17:55.055Z</time>
      </trkpt>
      <trkpt lat="42.99365" lon="-0.00692">
        <ele>1680</ele>
        <time>2017-01-18T11:17:56.055Z</time>
      </trkpt>
      <trkpt lat="42.99365" lon="-0.00691">
        <ele>1680</ele>
        <time>2017-01-18T11:17:57.055Z</time>
      </trkpt>
      <trkpt lat="42.99364" lon="-0.0069">
        <ele>1680</ele>
        <time>2017-01-18T11:17:58.055Z</time>
      </trkpt>
      <trkpt lat="42.99363" lon="-0.00689">
        <ele>1680</ele>
        <time>2017-01-18T11:17:59.055Z</time>
      </trkpt>
      <trkpt lat="42.99363" lon="-0.00688">
        <ele>1681</ele>
        <time>2017-01-18T11:18:00.055Z</time>
      </trkpt>
      <trkpt lat="42.99362" lon="-0.00688">
        <ele>1681</ele>
        <time>2017-01-18T11:18:01.055Z</time>
      </trkpt>
      <trkpt lat="42.99362" lon="-0.00687">
        <ele>1681</ele>
        <time>2017-01-18T11:18:02.055Z</time>
      </trkpt>
      <trkpt lat="42.99362" lon="-0.00687">
        <ele>1681</ele>
        <time>2017-01-18T11:18:03.055Z</time>
      </trkpt>
      <trkpt lat="42.99361" lon="-0.00686">
        <ele>1681</ele>
        <time>2017-01-18T11:18:04.055Z</time>
      </trkpt>
      <trkpt lat="42.99361" lon="-0.00686">
        <ele>1682</ele>
        <time>2017-01-18T11:18:05.055Z</time>
      </trkpt>
      <trkpt lat="42.99361" lon="-0.00685">
        <ele>1682</ele>
        <time>2017-01-18T11:18:06.055Z</time>
      </trkpt>
      <trkpt lat="42.9936" lon="-0.00684">
        <ele>1681</ele>
        <time>2017-01-18T11:18:07.055Z</time>
      </trkpt>
      <trkpt lat="42.9936" lon="-0.00683">
        <ele>1681</ele>
        <time>2017-01-18T11:18:08.055Z</time>
      </trkpt>
      <trkpt lat="42.9936" lon="-0.00683">
        <ele>1681</ele>
        <time>2017-01-18T11:18:09.055Z</time>
      </trkpt>
      <trkpt lat="42.9936" lon="-0.00682">
        <ele>1681</ele>
        <time>2017-01-18T11:18:10.055Z</time>
      </trkpt>
      <trkpt lat="42.9936" lon="-0.00681">
        <ele>1681</ele>
        <time>2017-01-18T11:18:11.055Z</time>
      </trkpt>
      <trkpt lat="42.99359" lon="-0.0068">
        <ele>1681</ele>
        <time>2017-01-18T11:18:12.055Z</time>
      </trkpt>
      <trkpt lat="42.99359" lon="-0.00679">
        <ele>1681</ele>
        <time>2017-01-18T11:18:13.055Z</time>
      </trkpt>
      <trkpt lat="42.99359" lon="-0.00678">
        <ele>1681</ele>
        <time>2017-01-18T11:18:14.055Z</time>
      </trkpt>
      <trkpt lat="42.99359" lon="-0.00678">
        <ele>1680</ele>
        <time>2017-01-18T11:18:15.055Z</time>
      </trkpt>
      <trkpt lat="42.99359" lon="-0.00677">
        <ele>1680</ele>
        <time>2017-01-18T11:18:16.055Z</time>
      </trkpt>
      <trkpt lat="42.99359" lon="-0.00676">
        <ele>1681</ele>
        <time>2017-01-18T11:18:17.055Z</time>
      </trkpt>
      <trkpt lat="42.99359" lon="-0.00675">
        <ele>1681</ele>
        <time>2017-01-18T11:18:18.055Z</time>
      </trkpt>
      <trkpt lat="42.99358" lon="-0.00674">
        <ele>1681</ele>
        <time>2017-01-18T11:18:19.055Z</time>
      </trkpt>
      <trkpt lat="42.99358" lon="-0.00673">
        <ele>1681</ele>
        <time>2017-01-18T11:18:20.055Z</time>
      </trkpt>
      <trkpt lat="42.99358" lon="-0.00672">
        <ele>1681</ele>
        <time>2017-01-18T11:18:21.055Z</time>
      </trkpt>
      <trkpt lat="42.99358" lon="-0.00671">
        <ele>1681</ele>
        <time>2017-01-18T11:18:22.055Z</time>
      </trkpt>
      <trkpt lat="42.99358" lon="-0.0067">
        <ele>1681</ele>
        <time>2017-01-18T11:18:23.055Z</time>
      </trkpt>
      <trkpt lat="42.99358" lon="-0.0067">
        <ele>1681</ele>
        <time>2017-01-18T11:18:24.055Z</time>
      </trkpt>
      <trkpt lat="42.99358" lon="-0.00669">
        <ele>1682</ele>
        <time>2017-01-18T11:18:25.055Z</time>
      </trkpt>
      <trkpt lat="42.99357" lon="-0.00668">
        <ele>1682</ele>
        <time>2017-01-18T11:18:26.055Z</time>
      </trkpt>
      <trkpt lat="42.99357" lon="-0.00667">
        <ele>1682</ele>
        <time>2017-01-18T11:18:27.055Z</time>
      </trkpt>
      <trkpt lat="42.99357" lon="-0.00667">
        <ele>1682</ele>
        <time>2017-01-18T11:18:28.055Z</time>
      </trkpt>
      <trkpt lat="42.99357" lon="-0.00666">
        <ele>1682</ele>
        <time>2017-01-18T11:18:29.055Z</time>
      </trkpt>
      <trkpt lat="42.99357" lon="-0.00665">
        <ele>1682</ele>
        <time>2017-01-18T11:18:30.055Z</time>
      </trkpt>
      <trkpt lat="42.99357" lon="-0.00664">
        <ele>1682</ele>
        <time>2017-01-18T11:18:31.055Z</time>
      </trkpt>
      <trkpt lat="42.99357" lon="-0.00664">
        <ele>1682</ele>
        <time>2017-01-18T11:18:32.055Z</time>
      </trkpt>
      <trkpt lat="42.99357" lon="-0.00663">
        <ele>1683</ele>
        <time>2017-01-18T11:18:33.055Z</time>
      </trkpt>
      <trkpt lat="42.99357" lon="-0.00662">
        <ele>1683</ele>
        <time>2017-01-18T11:18:34.055Z</time>
      </trkpt>
      <trkpt lat="42.99357" lon="-0.00661">
        <ele>1683</ele>
        <time>2017-01-18T11:18:35.055Z</time>
      </trkpt>
      <trkpt lat="42.99357" lon="-0.0066">
        <ele>1683</ele>
        <time>2017-01-18T11:18:36.055Z</time>
      </trkpt>
      <trkpt lat="42.99357" lon="-0.0066">
        <ele>1683</ele>
        <time>2017-01-18T11:18:37.055Z</time>
      </trkpt>
      <trkpt lat="42.99357" lon="-0.00659">
        <ele>1683</ele>
        <time>2017-01-18T11:18:38.055Z</time>
      </trkpt>
      <trkpt lat="42.99357" lon="-0.00658">
        <ele>1683</ele>
        <time>2017-01-18T11:18:39.055Z</time>
      </trkpt>
      <trkpt lat="42.99356" lon="-0.00657">
        <ele>1683</ele>
        <time>2017-01-18T11:18:40.055Z</time>
      </trkpt>
      <trkpt lat="42.99356" lon="-0.00656">
        <ele>1683</ele>
        <time>2017-01-18T11:18:41.055Z</time>
      </trkpt>
      <trkpt lat="42.99356" lon="-0.00656">
        <ele>1683</ele>
        <time>2017-01-18T11:18:42.055Z</time>
      </trkpt>
      <trkpt lat="42.99356" lon="-0.00655">
        <ele>1683</ele>
        <time>2017-01-18T11:18:43.055Z</time>
      </trkpt>
      <trkpt lat="42.99356" lon="-0.00654">
        <ele>1684</ele>
        <time>2017-01-18T11:18:44.055Z</time>
      </trkpt>
      <trkpt lat="42.99356" lon="-0.00653">
        <ele>1684</ele>
        <time>2017-01-18T11:18:45.055Z</time>
      </trkpt>
      <trkpt lat="42.99356" lon="-0.00653">
        <ele>1684</ele>
        <time>2017-01-18T11:18:46.055Z</time>
      </trkpt>
      <trkpt lat="42.99356" lon="-0.00652">
        <ele>1684</ele>
        <time>2017-01-18T11:18:47.055Z</time>
      </trkpt>
      <trkpt lat="42.99356" lon="-0.00651">
        <ele>1684</ele>
        <time>2017-01-18T11:18:48.055Z</time>
      </trkpt>
      <trkpt lat="42.99355" lon="-0.00651">
        <ele>1684</ele>
        <time>2017-01-18T11:18:49.055Z</time>
      </trkpt>
      <trkpt lat="42.99355" lon="-0.0065">
        <ele>1685</ele>
        <time>2017-01-18T11:18:50.055Z</time>
      </trkpt>
      <trkpt lat="42.99355" lon="-0.00649">
        <ele>1685</ele>
        <time>2017-01-18T11:18:51.055Z</time>
      </trkpt>
      <trkpt lat="42.99355" lon="-0.00649">
        <ele>1685</ele>
        <time>2017-01-18T11:18:52.055Z</time>
      </trkpt>
      <trkpt lat="42.99355" lon="-0.00648">
        <ele>1685</ele>
        <time>2017-01-18T11:18:53.055Z</time>
      </trkpt>
      <trkpt lat="42.99355" lon="-0.00647">
        <ele>1685</ele>
        <time>2017-01-18T11:18:54.055Z</time>
      </trkpt>
      <trkpt lat="42.99355" lon="-0.00647">
        <ele>1685</ele>
        <time>2017-01-18T11:18:55.055Z</time>
      </trkpt>
      <trkpt lat="42.99355" lon="-0.00646">
        <ele>1685</ele>
        <time>2017-01-18T11:18:56.055Z</time>
      </trkpt>
      <trkpt lat="42.99355" lon="-0.00645">
        <ele>1685</ele>
        <time>2017-01-18T11:18:57.055Z</time>
      </trkpt>
      <trkpt lat="42.99355" lon="-0.00644">
        <ele>1685</ele>
        <time>2017-01-18T11:18:58.055Z</time>
      </trkpt>
      <trkpt lat="42.99354" lon="-0.00644">
        <ele>1685</ele>
        <time>2017-01-18T11:18:59.055Z</time>
      </trkpt>
      <trkpt lat="42.99354" lon="-0.00643">
        <ele>1685</ele>
        <time>2017-01-18T11:19:00.055Z</time>
      </trkpt>
      <trkpt lat="42.99354" lon="-0.00642">
        <ele>1686</ele>
        <time>2017-01-18T11:19:01.055Z</time>
      </trkpt>
      <trkpt lat="42.99354" lon="-0.00641">
        <ele>1686</ele>
        <time>2017-01-18T11:19:02.055Z</time>
      </trkpt>
      <trkpt lat="42.99354" lon="-0.0064">
        <ele>1686</ele>
        <time>2017-01-18T11:19:03.055Z</time>
      </trkpt>
      <trkpt lat="42.99354" lon="-0.00639">
        <ele>1686</ele>
        <time>2017-01-18T11:19:04.055Z</time>
      </trkpt>
      <trkpt lat="42.99354" lon="-0.00639">
        <ele>1686</ele>
        <time>2017-01-18T11:19:05.055Z</time>
      </trkpt>
      <trkpt lat="42.99354" lon="-0.00638">
        <ele>1686</ele>
        <time>2017-01-18T11:19:06.055Z</time>
      </trkpt>
      <trkpt lat="42.99354" lon="-0.00637">
        <ele>1686</ele>
        <time>2017-01-18T11:19:07.055Z</time>
      </trkpt>
      <trkpt lat="42.99354" lon="-0.00636">
        <ele>1686</ele>
        <time>2017-01-18T11:19:08.055Z</time>
      </trkpt>
      <trkpt lat="42.99354" lon="-0.00635">
        <ele>1686</ele>
        <time>2017-01-18T11:19:09.055Z</time>
      </trkpt>
      <trkpt lat="42.99354" lon="-0.00634">
        <ele>1685</ele>
        <time>2017-01-18T11:19:10.055Z</time>
      </trkpt>
      <trkpt lat="42.99353" lon="-0.00633">
        <ele>1686</ele>
        <time>2017-01-18T11:19:11.055Z</time>
      </trkpt>
      <trkpt lat="42.99353" lon="-0.00632">
        <ele>1686</ele>
        <time>2017-01-18T11:19:12.055Z</time>
      </trkpt>
      <trkpt lat="42.99353" lon="-0.00632">
        <ele>1686</ele>
        <time>2017-01-18T11:19:13.055Z</time>
      </trkpt>
      <trkpt lat="42.99353" lon="-0.00631">
        <ele>1686</ele>
        <time>2017-01-18T11:19:14.055Z</time>
      </trkpt>
      <trkpt lat="42.99353" lon="-0.0063">
        <ele>1686</ele>
        <time>2017-01-18T11:19:15.055Z</time>
      </trkpt>
      <trkpt lat="42.99353" lon="-0.00629">
        <ele>1686</ele>
        <time>2017-01-18T11:19:16.055Z</time>
      </trkpt>
      <trkpt lat="42.99353" lon="-0.00629">
        <ele>1686</ele>
        <time>2017-01-18T11:19:17.055Z</time>
      </trkpt>
      <trkpt lat="42.99352" lon="-0.00628">
        <ele>1686</ele>
        <time>2017-01-18T11:19:18.055Z</time>
      </trkpt>
      <trkpt lat="42.99352" lon="-0.00627">
        <ele>1686</ele>
        <time>2017-01-18T11:19:19.055Z</time>
      </trkpt>
      <trkpt lat="42.99352" lon="-0.00626">
        <ele>1686</ele>
        <time>2017-01-18T11:19:20.055Z</time>
      </trkpt>
      <trkpt lat="42.99352" lon="-0.00625">
        <ele>1686</ele>
        <time>2017-01-18T11:19:21.055Z</time>
      </trkpt>
      <trkpt lat="42.99352" lon="-0.00624">
        <ele>1686</ele>
        <time>2017-01-18T11:19:22.055Z</time>
      </trkpt>
      <trkpt lat="42.99352" lon="-0.00623">
        <ele>1686</ele>
        <time>2017-01-18T11:19:23.055Z</time>
      </trkpt>
      <trkpt lat="42.99352" lon="-0.00623">
        <ele>1686</ele>
        <time>2017-01-18T11:19:24.055Z</time>
      </trkpt>
      <trkpt lat="42.99351" lon="-0.00622">
        <ele>1685</ele>
        <time>2017-01-18T11:19:25.055Z</time>
      </trkpt>
      <trkpt lat="42.99351" lon="-0.00621">
        <ele>1685</ele>
        <time>2017-01-18T11:19:26.055Z</time>
      </trkpt>
      <trkpt lat="42.99351" lon="-0.0062">
        <ele>1685</ele>
        <time>2017-01-18T11:19:27.055Z</time>
      </trkpt>
      <trkpt lat="42.99351" lon="-0.00619">
        <ele>1685</ele>
        <time>2017-01-18T11:19:28.055Z</time>
      </trkpt>
      <trkpt lat="42.99351" lon="-0.00618">
        <ele>1685</ele>
        <time>2017-01-18T11:19:29.055Z</time>
      </trkpt>
      <trkpt lat="42.9935" lon="-0.00617">
        <ele>1686</ele>
        <time>2017-01-18T11:19:30.055Z</time>
      </trkpt>
      <trkpt lat="42.9935" lon="-0.00617">
        <ele>1685</ele>
        <time>2017-01-18T11:19:31.055Z</time>
      </trkpt>
      <trkpt lat="42.9935" lon="-0.00616">
        <ele>1686</ele>
        <time>2017-01-18T11:19:32.055Z</time>
      </trkpt>
      <trkpt lat="42.9935" lon="-0.00615">
        <ele>1686</ele>
        <time>2017-01-18T11:19:33.055Z</time>
      </trkpt>
      <trkpt lat="42.9935" lon="-0.00614">
        <ele>1686</ele>
        <time>2017-01-18T11:19:34.055Z</time>
      </trkpt>
      <trkpt lat="42.9935" lon="-0.00614">
        <ele>1686</ele>
        <time>2017-01-18T11:19:35.055Z</time>
      </trkpt>
      <trkpt lat="42.99349" lon="-0.00613">
        <ele>1686</ele>
        <time>2017-01-18T11:19:36.055Z</time>
      </trkpt>
      <trkpt lat="42.99349" lon="-0.00612">
        <ele>1686</ele>
        <time>2017-01-18T11:19:37.055Z</time>
      </trkpt>
      <trkpt lat="42.99349" lon="-0.00611">
        <ele>1686</ele>
        <time>2017-01-18T11:19:38.055Z</time>
      </trkpt>
      <trkpt lat="42.99349" lon="-0.00611">
        <ele>1686</ele>
        <time>2017-01-18T11:19:39.055Z</time>
      </trkpt>
      <trkpt lat="42.99349" lon="-0.0061">
        <ele>1686</ele>
        <time>2017-01-18T11:19:40.055Z</time>
      </trkpt>
      <trkpt lat="42.99349" lon="-0.00609">
        <ele>1686</ele>
        <time>2017-01-18T11:19:41.055Z</time>
      </trkpt>
      <trkpt lat="42.99348" lon="-0.00608">
        <ele>1686</ele>
        <time>2017-01-18T11:19:42.055Z</time>
      </trkpt>
      <trkpt lat="42.99348" lon="-0.00607">
        <ele>1686</ele>
        <time>2017-01-18T11:19:43.055Z</time>
      </trkpt>
      <trkpt lat="42.99348" lon="-0.00607">
        <ele>1686</ele>
        <time>2017-01-18T11:19:44.055Z</time>
      </trkpt>
      <trkpt lat="42.99348" lon="-0.00606">
        <ele>1686</ele>
        <time>2017-01-18T11:19:45.055Z</time>
      </trkpt>
      <trkpt lat="42.99348" lon="-0.00605">
        <ele>1686</ele>
        <time>2017-01-18T11:19:46.055Z</time>
      </trkpt>
      <trkpt lat="42.99348" lon="-0.00604">
        <ele>1687</ele>
        <time>2017-01-18T11:19:47.055Z</time>
      </trkpt>
      <trkpt lat="42.99347" lon="-0.00604">
        <ele>1687</ele>
        <time>2017-01-18T11:19:48.055Z</time>
      </trkpt>
      <trkpt lat="42.99347" lon="-0.00603">
        <ele>1687</ele>
        <time>2017-01-18T11:19:49.055Z</time>
      </trkpt>
      <trkpt lat="42.99347" lon="-0.00602">
        <ele>1687</ele>
        <time>2017-01-18T11:19:50.055Z</time>
      </trkpt>
      <trkpt lat="42.99347" lon="-0.00601">
        <ele>1687</ele>
        <time>2017-01-18T11:19:51.055Z</time>
      </trkpt>
      <trkpt lat="42.99346" lon="-0.006">
        <ele>1687</ele>
        <time>2017-01-18T11:19:52.055Z</time>
      </trkpt>
      <trkpt lat="42.99346" lon="-0.00599">
        <ele>1687</ele>
        <time>2017-01-18T11:19:53.055Z</time>
      </trkpt>
      <trkpt lat="42.99346" lon="-0.00599">
        <ele>1687</ele>
        <time>2017-01-18T11:19:54.055Z</time>
      </trkpt>
      <trkpt lat="42.99345" lon="-0.00598">
        <ele>1687</ele>
        <time>2017-01-18T11:19:55.055Z</time>
      </trkpt>
      <trkpt lat="42.99345" lon="-0.00597">
        <ele>1687</ele>
        <time>2017-01-18T11:19:56.055Z</time>
      </trkpt>
      <trkpt lat="42.99345" lon="-0.00596">
        <ele>1687</ele>
        <time>2017-01-18T11:19:57.055Z</time>
      </trkpt>
      <trkpt lat="42.99345" lon="-0.00595">
        <ele>1687</ele>
        <time>2017-01-18T11:19:58.055Z</time>
      </trkpt>
      <trkpt lat="42.99345" lon="-0.00594">
        <ele>1687</ele>
        <time>2017-01-18T11:19:59.055Z</time>
      </trkpt>
      <trkpt lat="42.99345" lon="-0.00593">
        <ele>1688</ele>
        <time>2017-01-18T11:20:00.055Z</time>
      </trkpt>
      <trkpt lat="42.99345" lon="-0.00592">
        <ele>1688</ele>
        <time>2017-01-18T11:20:01.055Z</time>
      </trkpt>
      <trkpt lat="42.99345" lon="-0.00592">
        <ele>1688</ele>
        <time>2017-01-18T11:20:02.055Z</time>
      </trkpt>
      <trkpt lat="42.99345" lon="-0.00591">
        <ele>1688</ele>
        <time>2017-01-18T11:20:03.055Z</time>
      </trkpt>
      <trkpt lat="42.99345" lon="-0.0059">
        <ele>1687</ele>
        <time>2017-01-18T11:20:04.055Z</time>
      </trkpt>
      <trkpt lat="42.99345" lon="-0.00589">
        <ele>1687</ele>
        <time>2017-01-18T11:20:05.055Z</time>
      </trkpt>
      <trkpt lat="42.99344" lon="-0.00588">
        <ele>1688</ele>
        <time>2017-01-18T11:20:06.055Z</time>
      </trkpt>
      <trkpt lat="42.99344" lon="-0.00587">
        <ele>1688</ele>
        <time>2017-01-18T11:20:07.055Z</time>
      </trkpt>
      <trkpt lat="42.99344" lon="-0.00586">
        <ele>1688</ele>
        <time>2017-01-18T11:20:08.055Z</time>
      </trkpt>
      <trkpt lat="42.99344" lon="-0.00585">
        <ele>1688</ele>
        <time>2017-01-18T11:20:09.055Z</time>
      </trkpt>
      <trkpt lat="42.99344" lon="-0.00584">
        <ele>1689</ele>
        <time>2017-01-18T11:20:10.055Z</time>
      </trkpt>
      <trkpt lat="42.99344" lon="-0.00583">
        <ele>1689</ele>
        <time>2017-01-18T11:20:11.055Z</time>
      </trkpt>
      <trkpt lat="42.99344" lon="-0.00583">
        <ele>1689</ele>
        <time>2017-01-18T11:20:12.055Z</time>
      </trkpt>
      <trkpt lat="42.99344" lon="-0.00582">
        <ele>1689</ele>
        <time>2017-01-18T11:20:13.055Z</time>
      </trkpt>
      <trkpt lat="42.99344" lon="-0.00581">
        <ele>1689</ele>
        <time>2017-01-18T11:20:14.055Z</time>
      </trkpt>
      <trkpt lat="42.99344" lon="-0.0058">
        <ele>1689</ele>
        <time>2017-01-18T11:20:15.055Z</time>
      </trkpt>
      <trkpt lat="42.99344" lon="-0.00579">
        <ele>1689</ele>
        <time>2017-01-18T11:20:16.055Z</time>
      </trkpt>
      <trkpt lat="42.99344" lon="-0.00578">
        <ele>1689</ele>
        <time>2017-01-18T11:20:17.055Z</time>
      </trkpt>
      <trkpt lat="42.99345" lon="-0.00577">
        <ele>1689</ele>
        <time>2017-01-18T11:20:18.055Z</time>
      </trkpt>
      <trkpt lat="42.99344" lon="-0.00576">
        <ele>1689</ele>
        <time>2017-01-18T11:20:19.055Z</time>
      </trkpt>
      <trkpt lat="42.99344" lon="-0.00575">
        <ele>1689</ele>
        <time>2017-01-18T11:20:20.055Z</time>
      </trkpt>
      <trkpt lat="42.99344" lon="-0.00574">
        <ele>1689</ele>
        <time>2017-01-18T11:20:21.055Z</time>
      </trkpt>
      <trkpt lat="42.99344" lon="-0.00574">
        <ele>1689</ele>
        <time>2017-01-18T11:20:22.055Z</time>
      </trkpt>
      <trkpt lat="42.99344" lon="-0.00573">
        <ele>1689</ele>
        <time>2017-01-18T11:20:23.055Z</time>
      </trkpt>
      <trkpt lat="42.99344" lon="-0.00573">
        <ele>1689</ele>
        <time>2017-01-18T11:20:24.055Z</time>
      </trkpt>
      <trkpt lat="42.99344" lon="-0.00573">
        <ele>1689</ele>
        <time>2017-01-18T11:20:25.055Z</time>
      </trkpt>
      <trkpt lat="42.99344" lon="-0.00573">
        <ele>1689</ele>
        <time>2017-01-18T11:20:26.055Z</time>
      </trkpt>
      <trkpt lat="42.99345" lon="-0.00573">
        <ele>1689</ele>
        <time>2017-01-18T11:20:27.055Z</time>
      </trkpt>
      <trkpt lat="42.99345" lon="-0.00572">
        <ele>1689</ele>
        <time>2017-01-18T11:20:28.055Z</time>
      </trkpt>
      <trkpt lat="42.99345" lon="-0.00572">
        <ele>1688</ele>
        <time>2017-01-18T11:20:29.055Z</time>
      </trkpt>
      <trkpt lat="42.99345" lon="-0.00572">
        <ele>1688</ele>
        <time>2017-01-18T11:20:30.055Z</time>
      </trkpt>
      <trkpt lat="42.99345" lon="-0.00572">
        <ele>1688</ele>
        <time>2017-01-18T11:20:31.055Z</time>
      </trkpt>
      <trkpt lat="42.99345" lon="-0.00572">
        <ele>1688</ele>
        <time>2017-01-18T11:20:32.055Z</time>
      </trkpt>
      <trkpt lat="42.99345" lon="-0.00572">
        <ele>1688</ele>
        <time>2017-01-18T11:20:33.055Z</time>
      </trkpt>
      <trkpt lat="42.99344" lon="-0.00572">
        <ele>1689</ele>
        <time>2017-01-18T11:20:35.051Z</time>
      </trkpt>
      <trkpt lat="42.99344" lon="-0.00571">
        <ele>1689</ele>
        <time>2017-01-18T11:20:36.051Z</time>
      </trkpt>
      <trkpt lat="42.99344" lon="-0.0057">
        <ele>1689</ele>
        <time>2017-01-18T11:20:37.051Z</time>
      </trkpt>
      <trkpt lat="42.99343" lon="-0.00569">
        <ele>1689</ele>
        <time>2017-01-18T11:20:38.051Z</time>
      </trkpt>
      <trkpt lat="42.99344" lon="-0.00567">
        <ele>1689</ele>
        <time>2017-01-18T11:20:39.051Z</time>
      </trkpt>
      <trkpt lat="42.99344" lon="-0.00566">
        <ele>1689</ele>
        <time>2017-01-18T11:20:40.051Z</time>
      </trkpt>
      <trkpt lat="42.99344" lon="-0.00565">
        <ele>1689</ele>
        <time>2017-01-18T11:20:41.051Z</time>
      </trkpt>
      <trkpt lat="42.99343" lon="-0.00564">
        <ele>1689</ele>
        <time>2017-01-18T11:20:42.051Z</time>
      </trkpt>
      <trkpt lat="42.99343" lon="-0.00563">
        <ele>1689</ele>
        <time>2017-01-18T11:20:43.051Z</time>
      </trkpt>
      <trkpt lat="42.99343" lon="-0.00562">
        <ele>1689</ele>
        <time>2017-01-18T11:20:44.051Z</time>
      </trkpt>
      <trkpt lat="42.99343" lon="-0.0056">
        <ele>1689</ele>
        <time>2017-01-18T11:20:45.051Z</time>
      </trkpt>
      <trkpt lat="42.99343" lon="-0.00559">
        <ele>1688</ele>
        <time>2017-01-18T11:20:46.051Z</time>
      </trkpt>
      <trkpt lat="42.99343" lon="-0.00558">
        <ele>1688</ele>
        <time>2017-01-18T11:20:47.051Z</time>
      </trkpt>
      <trkpt lat="42.99343" lon="-0.00557">
        <ele>1688</ele>
        <time>2017-01-18T11:20:48.051Z</time>
      </trkpt>
      <trkpt lat="42.99342" lon="-0.00556">
        <ele>1688</ele>
        <time>2017-01-18T11:20:49.051Z</time>
      </trkpt>
      <trkpt lat="42.99342" lon="-0.00555">
        <ele>1688</ele>
        <time>2017-01-18T11:20:50.051Z</time>
      </trkpt>
      <trkpt lat="42.99342" lon="-0.00554">
        <ele>1688</ele>
        <time>2017-01-18T11:20:51.051Z</time>
      </trkpt>
      <trkpt lat="42.99342" lon="-0.00552">
        <ele>1688</ele>
        <time>2017-01-18T11:20:52.051Z</time>
      </trkpt>
      <trkpt lat="42.99342" lon="-0.00551">
        <ele>1688</ele>
        <time>2017-01-18T11:20:53.051Z</time>
      </trkpt>
      <trkpt lat="42.99341" lon="-0.0055">
        <ele>1688</ele>
        <time>2017-01-18T11:20:54.051Z</time>
      </trkpt>
      <trkpt lat="42.99341" lon="-0.00549">
        <ele>1688</ele>
        <time>2017-01-18T11:20:55.051Z</time>
      </trkpt>
      <trkpt lat="42.99341" lon="-0.00548">
        <ele>1688</ele>
        <time>2017-01-18T11:20:56.051Z</time>
      </trkpt>
      <trkpt lat="42.99341" lon="-0.00547">
        <ele>1688</ele>
        <time>2017-01-18T11:20:57.051Z</time>
      </trkpt>
      <trkpt lat="42.9934" lon="-0.00546">
        <ele>1688</ele>
        <time>2017-01-18T11:20:58.051Z</time>
      </trkpt>
      <trkpt lat="42.9934" lon="-0.00545">
        <ele>1688</ele>
        <time>2017-01-18T11:20:59.051Z</time>
      </trkpt>
      <trkpt lat="42.9934" lon="-0.00544">
        <ele>1688</ele>
        <time>2017-01-18T11:21:00.051Z</time>
      </trkpt>
      <trkpt lat="42.9934" lon="-0.00543">
        <ele>1689</ele>
        <time>2017-01-18T11:21:01.051Z</time>
      </trkpt>
      <trkpt lat="42.9934" lon="-0.00542">
        <ele>1688</ele>
        <time>2017-01-18T11:21:02.051Z</time>
      </trkpt>
      <trkpt lat="42.99339" lon="-0.00541">
        <ele>1688</ele>
        <time>2017-01-18T11:21:03.051Z</time>
      </trkpt>
      <trkpt lat="42.99339" lon="-0.0054">
        <ele>1688</ele>
        <time>2017-01-18T11:21:04.051Z</time>
      </trkpt>
      <trkpt lat="42.99339" lon="-0.00539">
        <ele>1688</ele>
        <time>2017-01-18T11:21:05.051Z</time>
      </trkpt>
      <trkpt lat="42.99338" lon="-0.00538">
        <ele>1688</ele>
        <time>2017-01-18T11:21:06.051Z</time>
      </trkpt>
      <trkpt lat="42.99338" lon="-0.00537">
        <ele>1688</ele>
        <time>2017-01-18T11:21:07.051Z</time>
      </trkpt>
      <trkpt lat="42.99338" lon="-0.00536">
        <ele>1688</ele>
        <time>2017-01-18T11:21:08.051Z</time>
      </trkpt>
      <trkpt lat="42.99338" lon="-0.00535">
        <ele>1688</ele>
        <time>2017-01-18T11:21:09.051Z</time>
      </trkpt>
      <trkpt lat="42.99337" lon="-0.00534">
        <ele>1688</ele>
        <time>2017-01-18T11:21:10.051Z</time>
      </trkpt>
      <trkpt lat="42.99337" lon="-0.00533">
        <ele>1688</ele>
        <time>2017-01-18T11:21:11.051Z</time>
      </trkpt>
      <trkpt lat="42.99337" lon="-0.00532">
        <ele>1688</ele>
        <time>2017-01-18T11:21:12.051Z</time>
      </trkpt>
      <trkpt lat="42.99336" lon="-0.00531">
        <ele>1688</ele>
        <time>2017-01-18T11:21:13.051Z</time>
      </trkpt>
      <trkpt lat="42.99336" lon="-0.0053">
        <ele>1688</ele>
        <time>2017-01-18T11:21:14.051Z</time>
      </trkpt>
      <trkpt lat="42.99336" lon="-0.00529">
        <ele>1688</ele>
        <time>2017-01-18T11:21:15.051Z</time>
      </trkpt>
      <trkpt lat="42.99335" lon="-0.00528">
        <ele>1689</ele>
        <time>2017-01-18T11:21:16.051Z</time>
      </trkpt>
      <trkpt lat="42.99335" lon="-0.00527">
        <ele>1689</ele>
        <time>2017-01-18T11:21:17.051Z</time>
      </trkpt>
      <trkpt lat="42.99335" lon="-0.00526">
        <ele>1689</ele>
        <time>2017-01-18T11:21:18.051Z</time>
      </trkpt>
      <trkpt lat="42.99335" lon="-0.00525">
        <ele>1689</ele>
        <time>2017-01-18T11:21:19.051Z</time>
      </trkpt>
      <trkpt lat="42.99334" lon="-0.00524">
        <ele>1689</ele>
        <time>2017-01-18T11:21:20.051Z</time>
      </trkpt>
      <trkpt lat="42.99334" lon="-0.00523">
        <ele>1689</ele>
        <time>2017-01-18T11:21:21.051Z</time>
      </trkpt>
      <trkpt lat="42.99333" lon="-0.00522">
        <ele>1690</ele>
        <time>2017-01-18T11:21:22.051Z</time>
      </trkpt>
      <trkpt lat="42.99333" lon="-0.00522">
        <ele>1689</ele>
        <time>2017-01-18T11:21:23.051Z</time>
      </trkpt>
      <trkpt lat="42.99333" lon="-0.00521">
        <ele>1690</ele>
        <time>2017-01-18T11:21:24.051Z</time>
      </trkpt>
      <trkpt lat="42.99332" lon="-0.0052">
        <ele>1690</ele>
        <time>2017-01-18T11:21:25.051Z</time>
      </trkpt>
      <trkpt lat="42.99332" lon="-0.00519">
        <ele>1690</ele>
        <time>2017-01-18T11:21:26.051Z</time>
      </trkpt>
      <trkpt lat="42.99332" lon="-0.00519">
        <ele>1690</ele>
        <time>2017-01-18T11:21:27.051Z</time>
      </trkpt>
      <trkpt lat="42.99331" lon="-0.00518">
        <ele>1691</ele>
        <time>2017-01-18T11:21:28.051Z</time>
      </trkpt>
      <trkpt lat="42.99331" lon="-0.00517">
        <ele>1691</ele>
        <time>2017-01-18T11:21:29.051Z</time>
      </trkpt>
      <trkpt lat="42.99331" lon="-0.00516">
        <ele>1691</ele>
        <time>2017-01-18T11:21:30.051Z</time>
      </trkpt>
      <trkpt lat="42.9933" lon="-0.00516">
        <ele>1691</ele>
        <time>2017-01-18T11:21:31.051Z</time>
      </trkpt>
      <trkpt lat="42.9933" lon="-0.00515">
        <ele>1691</ele>
        <time>2017-01-18T11:21:32.051Z</time>
      </trkpt>
      <trkpt lat="42.99329" lon="-0.00514">
        <ele>1692</ele>
        <time>2017-01-18T11:21:33.051Z</time>
      </trkpt>
      <trkpt lat="42.99329" lon="-0.00513">
        <ele>1692</ele>
        <time>2017-01-18T11:21:34.051Z</time>
      </trkpt>
      <trkpt lat="42.99328" lon="-0.00512">
        <ele>1692</ele>
        <time>2017-01-18T11:21:35.051Z</time>
      </trkpt>
      <trkpt lat="42.99328" lon="-0.00511">
        <ele>1692</ele>
        <time>2017-01-18T11:21:36.051Z</time>
      </trkpt>
      <trkpt lat="42.99328" lon="-0.00511">
        <ele>1692</ele>
        <time>2017-01-18T11:21:37.051Z</time>
      </trkpt>
      <trkpt lat="42.99327" lon="-0.0051">
        <ele>1692</ele>
        <time>2017-01-18T11:21:38.051Z</time>
      </trkpt>
      <trkpt lat="42.99327" lon="-0.00509">
        <ele>1692</ele>
        <time>2017-01-18T11:21:39.051Z</time>
      </trkpt>
      <trkpt lat="42.99327" lon="-0.00508">
        <ele>1692</ele>
        <time>2017-01-18T11:21:40.051Z</time>
      </trkpt>
      <trkpt lat="42.99326" lon="-0.00507">
        <ele>1691</ele>
        <time>2017-01-18T11:21:41.051Z</time>
      </trkpt>
      <trkpt lat="42.99326" lon="-0.00506">
        <ele>1691</ele>
        <time>2017-01-18T11:21:42.051Z</time>
      </trkpt>
      <trkpt lat="42.99326" lon="-0.00505">
        <ele>1691</ele>
        <time>2017-01-18T11:21:43.051Z</time>
      </trkpt>
      <trkpt lat="42.99326" lon="-0.00504">
        <ele>1691</ele>
        <time>2017-01-18T11:21:44.051Z</time>
      </trkpt>
      <trkpt lat="42.99325" lon="-0.00503">
        <ele>1691</ele>
        <time>2017-01-18T11:21:45.051Z</time>
      </trkpt>
      <trkpt lat="42.99325" lon="-0.00502">
        <ele>1691</ele>
        <time>2017-01-18T11:21:46.051Z</time>
      </trkpt>
      <trkpt lat="42.99324" lon="-0.00502">
        <ele>1691</ele>
        <time>2017-01-18T11:21:47.051Z</time>
      </trkpt>
      <trkpt lat="42.99324" lon="-0.00501">
        <ele>1692</ele>
        <time>2017-01-18T11:21:48.051Z</time>
      </trkpt>
      <trkpt lat="42.99324" lon="-0.005">
        <ele>1691</ele>
        <time>2017-01-18T11:21:49.051Z</time>
      </trkpt>
      <trkpt lat="42.99323" lon="-0.005">
        <ele>1692</ele>
        <time>2017-01-18T11:21:50.051Z</time>
      </trkpt>
      <trkpt lat="42.99323" lon="-0.00499">
        <ele>1692</ele>
        <time>2017-01-18T11:21:51.051Z</time>
      </trkpt>
      <trkpt lat="42.99323" lon="-0.00499">
        <ele>1692</ele>
        <time>2017-01-18T11:21:52.051Z</time>
      </trkpt>
      <trkpt lat="42.99322" lon="-0.00498">
        <ele>1692</ele>
        <time>2017-01-18T11:21:53.051Z</time>
      </trkpt>
      <trkpt lat="42.99322" lon="-0.00498">
        <ele>1693</ele>
        <time>2017-01-18T11:21:54.051Z</time>
      </trkpt>
      <trkpt lat="42.99321" lon="-0.00498">
        <ele>1693</ele>
        <time>2017-01-18T11:21:55.051Z</time>
      </trkpt>
      <trkpt lat="42.99321" lon="-0.00498">
        <ele>1693</ele>
        <time>2017-01-18T11:21:56.051Z</time>
      </trkpt>
      <trkpt lat="42.99321" lon="-0.00497">
        <ele>1693</ele>
        <time>2017-01-18T11:21:57.051Z</time>
      </trkpt>
      <trkpt lat="42.99321" lon="-0.00497">
        <ele>1693</ele>
        <time>2017-01-18T11:21:58.051Z</time>
      </trkpt>
      <trkpt lat="42.9932" lon="-0.00497">
        <ele>1694</ele>
        <time>2017-01-18T11:21:59.051Z</time>
      </trkpt>
      <trkpt lat="42.9932" lon="-0.00496">
        <ele>1694</ele>
        <time>2017-01-18T11:22:00.051Z</time>
      </trkpt>
      <trkpt lat="42.9932" lon="-0.00495">
        <ele>1694</ele>
        <time>2017-01-18T11:22:01.051Z</time>
      </trkpt>
      <trkpt lat="42.9932" lon="-0.00495">
        <ele>1694</ele>
        <time>2017-01-18T11:22:02.051Z</time>
      </trkpt>
      <trkpt lat="42.99319" lon="-0.00494">
        <ele>1694</ele>
        <time>2017-01-18T11:22:03.051Z</time>
      </trkpt>
      <trkpt lat="42.99319" lon="-0.00493">
        <ele>1694</ele>
        <time>2017-01-18T11:22:04.051Z</time>
      </trkpt>
      <trkpt lat="42.99319" lon="-0.00492">
        <ele>1694</ele>
        <time>2017-01-18T11:22:05.051Z</time>
      </trkpt>
      <trkpt lat="42.99319" lon="-0.00491">
        <ele>1694</ele>
        <time>2017-01-18T11:22:06.051Z</time>
      </trkpt>
      <trkpt lat="42.99319" lon="-0.00491">
        <ele>1693</ele>
        <time>2017-01-18T11:22:07.051Z</time>
      </trkpt>
      <trkpt lat="42.99319" lon="-0.0049">
        <ele>1694</ele>
        <time>2017-01-18T11:22:08.051Z</time>
      </trkpt>
      <trkpt lat="42.99319" lon="-0.00489">
        <ele>1693</ele>
        <time>2017-01-18T11:22:09.051Z</time>
      </trkpt>
      <trkpt lat="42.99318" lon="-0.00488">
        <ele>1694</ele>
        <time>2017-01-18T11:22:10.051Z</time>
      </trkpt>
      <trkpt lat="42.99318" lon="-0.00488">
        <ele>1694</ele>
        <time>2017-01-18T11:22:11.051Z</time>
      </trkpt>
      <trkpt lat="42.99318" lon="-0.00487">
        <ele>1694</ele>
        <time>2017-01-18T11:22:12.051Z</time>
      </trkpt>
      <trkpt lat="42.99318" lon="-0.00486">
        <ele>1694</ele>
        <time>2017-01-18T11:22:13.051Z</time>
      </trkpt>
      <trkpt lat="42.99318" lon="-0.00486">
        <ele>1694</ele>
        <time>2017-01-18T11:22:14.051Z</time>
      </trkpt>
      <trkpt lat="42.99318" lon="-0.00484">
        <ele>1694</ele>
        <time>2017-01-18T11:22:15.051Z</time>
      </trkpt>
      <trkpt lat="42.99317" lon="-0.00483">
        <ele>1694</ele>
        <time>2017-01-18T11:22:16.051Z</time>
      </trkpt>
      <trkpt lat="42.99317" lon="-0.00483">
        <ele>1694</ele>
        <time>2017-01-18T11:22:17.051Z</time>
      </trkpt>
      <trkpt lat="42.99317" lon="-0.00483">
        <ele>1695</ele>
        <time>2017-01-18T11:22:18.051Z</time>
      </trkpt>
      <trkpt lat="42.99317" lon="-0.00482">
        <ele>1695</ele>
        <time>2017-01-18T11:22:19.051Z</time>
      </trkpt>
      <trkpt lat="42.99317" lon="-0.00481">
        <ele>1695</ele>
        <time>2017-01-18T11:22:20.051Z</time>
      </trkpt>
      <trkpt lat="42.99317" lon="-0.00481">
        <ele>1695</ele>
        <time>2017-01-18T11:22:21.051Z</time>
      </trkpt>
      <trkpt lat="42.99316" lon="-0.00479">
        <ele>1695</ele>
        <time>2017-01-18T11:22:22.051Z</time>
      </trkpt>
      <trkpt lat="42.99316" lon="-0.00479">
        <ele>1695</ele>
        <time>2017-01-18T11:22:23.051Z</time>
      </trkpt>
      <trkpt lat="42.99316" lon="-0.00479">
        <ele>1695</ele>
        <time>2017-01-18T11:22:24.051Z</time>
      </trkpt>
      <trkpt lat="42.99316" lon="-0.00478">
        <ele>1695</ele>
        <time>2017-01-18T11:22:25.051Z</time>
      </trkpt>
      <trkpt lat="42.99316" lon="-0.00477">
        <ele>1696</ele>
        <time>2017-01-18T11:22:26.051Z</time>
      </trkpt>
      <trkpt lat="42.99316" lon="-0.00477">
        <ele>1696</ele>
        <time>2017-01-18T11:22:27.051Z</time>
      </trkpt>
      <trkpt lat="42.99315" lon="-0.00476">
        <ele>1696</ele>
        <time>2017-01-18T11:22:28.051Z</time>
      </trkpt>
      <trkpt lat="42.99315" lon="-0.00475">
        <ele>1696</ele>
        <time>2017-01-18T11:22:29.051Z</time>
      </trkpt>
      <trkpt lat="42.99315" lon="-0.00475">
        <ele>1696</ele>
        <time>2017-01-18T11:22:30.051Z</time>
      </trkpt>
      <trkpt lat="42.99315" lon="-0.00474">
        <ele>1696</ele>
        <time>2017-01-18T11:22:31.051Z</time>
      </trkpt>
      <trkpt lat="42.99314" lon="-0.00473">
        <ele>1696</ele>
        <time>2017-01-18T11:22:32.051Z</time>
      </trkpt>
      <trkpt lat="42.99314" lon="-0.00472">
        <ele>1696</ele>
        <time>2017-01-18T11:22:33.051Z</time>
      </trkpt>
      <trkpt lat="42.99314" lon="-0.00472">
        <ele>1696</ele>
        <time>2017-01-18T11:22:34.051Z</time>
      </trkpt>
      <trkpt lat="42.99314" lon="-0.00471">
        <ele>1696</ele>
        <time>2017-01-18T11:22:35.051Z</time>
      </trkpt>
      <trkpt lat="42.99314" lon="-0.0047">
        <ele>1697</ele>
        <time>2017-01-18T11:22:36.051Z</time>
      </trkpt>
      <trkpt lat="42.99313" lon="-0.0047">
        <ele>1697</ele>
        <time>2017-01-18T11:22:37.051Z</time>
      </trkpt>
      <trkpt lat="42.99313" lon="-0.00469">
        <ele>1697</ele>
        <time>2017-01-18T11:22:38.051Z</time>
      </trkpt>
      <trkpt lat="42.99313" lon="-0.00468">
        <ele>1697</ele>
        <time>2017-01-18T11:22:39.051Z</time>
      </trkpt>
      <trkpt lat="42.99312" lon="-0.00467">
        <ele>1697</ele>
        <time>2017-01-18T11:22:40.051Z</time>
      </trkpt>
      <trkpt lat="42.99312" lon="-0.00467">
        <ele>1697</ele>
        <time>2017-01-18T11:22:41.051Z</time>
      </trkpt>
      <trkpt lat="42.99312" lon="-0.00467">
        <ele>1697</ele>
        <time>2017-01-18T11:22:42.051Z</time>
      </trkpt>
      <trkpt lat="42.99312" lon="-0.00466">
        <ele>1697</ele>
        <time>2017-01-18T11:22:43.051Z</time>
      </trkpt>
      <trkpt lat="42.99311" lon="-0.00465">
        <ele>1697</ele>
        <time>2017-01-18T11:22:44.051Z</time>
      </trkpt>
      <trkpt lat="42.99311" lon="-0.00465">
        <ele>1697</ele>
        <time>2017-01-18T11:22:45.051Z</time>
      </trkpt>
      <trkpt lat="42.99311" lon="-0.00464">
        <ele>1697</ele>
        <time>2017-01-18T11:22:46.051Z</time>
      </trkpt>
      <trkpt lat="42.99311" lon="-0.00464">
        <ele>1697</ele>
        <time>2017-01-18T11:22:47.051Z</time>
      </trkpt>
      <trkpt lat="42.99311" lon="-0.00463">
        <ele>1697</ele>
        <time>2017-01-18T11:22:48.051Z</time>
      </trkpt>
      <trkpt lat="42.9931" lon="-0.00463">
        <ele>1697</ele>
        <time>2017-01-18T11:22:49.051Z</time>
      </trkpt>
      <trkpt lat="42.9931" lon="-0.00462">
        <ele>1697</ele>
        <time>2017-01-18T11:22:50.051Z</time>
      </trkpt>
      <trkpt lat="42.9931" lon="-0.00462">
        <ele>1697</ele>
        <time>2017-01-18T11:22:51.051Z</time>
      </trkpt>
      <trkpt lat="42.99309" lon="-0.00462">
        <ele>1697</ele>
        <time>2017-01-18T11:22:52.051Z</time>
      </trkpt>
      <trkpt lat="42.99309" lon="-0.00461">
        <ele>1698</ele>
        <time>2017-01-18T11:22:53.051Z</time>
      </trkpt>
      <trkpt lat="42.99309" lon="-0.00461">
        <ele>1698</ele>
        <time>2017-01-18T11:22:54.051Z</time>
      </trkpt>
      <trkpt lat="42.99308" lon="-0.0046">
        <ele>1698</ele>
        <time>2017-01-18T11:22:55.051Z</time>
      </trkpt>
      <trkpt lat="42.99308" lon="-0.0046">
        <ele>1698</ele>
        <time>2017-01-18T11:22:56.051Z</time>
      </trkpt>
      <trkpt lat="42.99308" lon="-0.00459">
        <ele>1698</ele>
        <time>2017-01-18T11:22:57.051Z</time>
      </trkpt>
      <trkpt lat="42.99307" lon="-0.00458">
        <ele>1698</ele>
        <time>2017-01-18T11:22:58.051Z</time>
      </trkpt>
      <trkpt lat="42.99307" lon="-0.00458">
        <ele>1698</ele>
        <time>2017-01-18T11:22:59.051Z</time>
      </trkpt>
      <trkpt lat="42.99307" lon="-0.00458">
        <ele>1698</ele>
        <time>2017-01-18T11:23:00.051Z</time>
      </trkpt>
      <trkpt lat="42.99306" lon="-0.00457">
        <ele>1698</ele>
        <time>2017-01-18T11:23:01.051Z</time>
      </trkpt>
      <trkpt lat="42.99306" lon="-0.00456">
        <ele>1698</ele>
        <time>2017-01-18T11:23:02.051Z</time>
      </trkpt>
      <trkpt lat="42.99305" lon="-0.00456">
        <ele>1699</ele>
        <time>2017-01-18T11:23:03.051Z</time>
      </trkpt>
      <trkpt lat="42.99305" lon="-0.00455">
        <ele>1699</ele>
        <time>2017-01-18T11:23:04.051Z</time>
      </trkpt>
      <trkpt lat="42.99305" lon="-0.00455">
        <ele>1699</ele>
        <time>2017-01-18T11:23:05.051Z</time>
      </trkpt>
      <trkpt lat="42.99305" lon="-0.00454">
        <ele>1699</ele>
        <time>2017-01-18T11:23:06.051Z</time>
      </trkpt>
      <trkpt lat="42.99305" lon="-0.00454">
        <ele>1699</ele>
        <time>2017-01-18T11:23:07.051Z</time>
      </trkpt>
      <trkpt lat="42.99304" lon="-0.00453">
        <ele>1699</ele>
        <time>2017-01-18T11:23:08.051Z</time>
      </trkpt>
      <trkpt lat="42.99304" lon="-0.00453">
        <ele>1699</ele>
        <time>2017-01-18T11:23:09.051Z</time>
      </trkpt>
      <trkpt lat="42.99304" lon="-0.00452">
        <ele>1700</ele>
        <time>2017-01-18T11:23:10.051Z</time>
      </trkpt>
      <trkpt lat="42.99303" lon="-0.00451">
        <ele>1700</ele>
        <time>2017-01-18T11:23:11.051Z</time>
      </trkpt>
      <trkpt lat="42.99303" lon="-0.00451">
        <ele>1700</ele>
        <time>2017-01-18T11:23:12.051Z</time>
      </trkpt>
      <trkpt lat="42.99303" lon="-0.0045">
        <ele>1700</ele>
        <time>2017-01-18T11:23:13.051Z</time>
      </trkpt>
      <trkpt lat="42.99303" lon="-0.0045">
        <ele>1700</ele>
        <time>2017-01-18T11:23:14.051Z</time>
      </trkpt>
      <trkpt lat="42.99302" lon="-0.00449">
        <ele>1700</ele>
        <time>2017-01-18T11:23:15.051Z</time>
      </trkpt>
      <trkpt lat="42.99302" lon="-0.00449">
        <ele>1700</ele>
        <time>2017-01-18T11:23:16.051Z</time>
      </trkpt>
      <trkpt lat="42.99302" lon="-0.00447">
        <ele>1700</ele>
        <time>2017-01-18T11:23:17.051Z</time>
      </trkpt>
      <trkpt lat="42.99302" lon="-0.00447">
        <ele>1700</ele>
        <time>2017-01-18T11:23:18.051Z</time>
      </trkpt>
      <trkpt lat="42.99301" lon="-0.00446">
        <ele>1700</ele>
        <time>2017-01-18T11:23:19.051Z</time>
      </trkpt>
      <trkpt lat="42.99301" lon="-0.00446">
        <ele>1700</ele>
        <time>2017-01-18T11:23:20.051Z</time>
      </trkpt>
      <trkpt lat="42.99301" lon="-0.00445">
        <ele>1700</ele>
        <time>2017-01-18T11:23:21.051Z</time>
      </trkpt>
      <trkpt lat="42.99301" lon="-0.00445">
        <ele>1700</ele>
        <time>2017-01-18T11:23:22.051Z</time>
      </trkpt>
      <trkpt lat="42.993" lon="-0.00444">
        <ele>1700</ele>
        <time>2017-01-18T11:23:23.051Z</time>
      </trkpt>
      <trkpt lat="42.993" lon="-0.00443">
        <ele>1701</ele>
        <time>2017-01-18T11:23:24.051Z</time>
      </trkpt>
      <trkpt lat="42.993" lon="-0.00442">
        <ele>1701</ele>
        <time>2017-01-18T11:23:25.051Z</time>
      </trkpt>
      <trkpt lat="42.99299" lon="-0.00442">
        <ele>1701</ele>
        <time>2017-01-18T11:23:26.051Z</time>
      </trkpt>
      <trkpt lat="42.99299" lon="-0.00441">
        <ele>1701</ele>
        <time>2017-01-18T11:23:27.051Z</time>
      </trkpt>
      <trkpt lat="42.99299" lon="-0.00441">
        <ele>1701</ele>
        <time>2017-01-18T11:23:28.051Z</time>
      </trkpt>
      <trkpt lat="42.99299" lon="-0.00441">
        <ele>1701</ele>
        <time>2017-01-18T11:23:29.051Z</time>
      </trkpt>
      <trkpt lat="42.99298" lon="-0.00441">
        <ele>1701</ele>
        <time>2017-01-18T11:23:30.051Z</time>
      </trkpt>
      <trkpt lat="42.99298" lon="-0.0044">
        <ele>1701</ele>
        <time>2017-01-18T11:23:31.051Z</time>
      </trkpt>
      <trkpt lat="42.99298" lon="-0.0044">
        <ele>1701</ele>
        <time>2017-01-18T11:23:32.051Z</time>
      </trkpt>
      <trkpt lat="42.99298" lon="-0.00439">
        <ele>1701</ele>
        <time>2017-01-18T11:23:33.051Z</time>
      </trkpt>
      <trkpt lat="42.99297" lon="-0.00438">
        <ele>1701</ele>
        <time>2017-01-18T11:23:34.051Z</time>
      </trkpt>
      <trkpt lat="42.99297" lon="-0.00438">
        <ele>1701</ele>
        <time>2017-01-18T11:23:35.051Z</time>
      </trkpt>
      <trkpt lat="42.99297" lon="-0.00437">
        <ele>1701</ele>
        <time>2017-01-18T11:23:36.051Z</time>
      </trkpt>
      <trkpt lat="42.99297" lon="-0.00437">
        <ele>1701</ele>
        <time>2017-01-18T11:23:37.051Z</time>
      </trkpt>
      <trkpt lat="42.99297" lon="-0.00436">
        <ele>1702</ele>
        <time>2017-01-18T11:23:38.051Z</time>
      </trkpt>
      <trkpt lat="42.99297" lon="-0.00436">
        <ele>1702</ele>
        <time>2017-01-18T11:23:39.051Z</time>
      </trkpt>
      <trkpt lat="42.99296" lon="-0.00436">
        <ele>1702</ele>
        <time>2017-01-18T11:23:40.051Z</time>
      </trkpt>
      <trkpt lat="42.99296" lon="-0.00435">
        <ele>1702</ele>
        <time>2017-01-18T11:23:41.051Z</time>
      </trkpt>
      <trkpt lat="42.99295" lon="-0.00434">
        <ele>1702</ele>
        <time>2017-01-18T11:23:42.051Z</time>
      </trkpt>
      <trkpt lat="42.99295" lon="-0.00433">
        <ele>1702</ele>
        <time>2017-01-18T11:23:43.051Z</time>
      </trkpt>
      <trkpt lat="42.99295" lon="-0.00433">
        <ele>1702</ele>
        <time>2017-01-18T11:23:44.051Z</time>
      </trkpt>
      <trkpt lat="42.99294" lon="-0.00432">
        <ele>1702</ele>
        <time>2017-01-18T11:23:45.051Z</time>
      </trkpt>
      <trkpt lat="42.99294" lon="-0.00432">
        <ele>1702</ele>
        <time>2017-01-18T11:23:46.051Z</time>
      </trkpt>
      <trkpt lat="42.99294" lon="-0.00432">
        <ele>1703</ele>
        <time>2017-01-18T11:23:47.051Z</time>
      </trkpt>
      <trkpt lat="42.99293" lon="-0.00431">
        <ele>1703</ele>
        <time>2017-01-18T11:23:48.051Z</time>
      </trkpt>
      <trkpt lat="42.99293" lon="-0.00431">
        <ele>1703</ele>
        <time>2017-01-18T11:23:49.051Z</time>
      </trkpt>
      <trkpt lat="42.99293" lon="-0.0043">
        <ele>1703</ele>
        <time>2017-01-18T11:23:50.051Z</time>
      </trkpt>
      <trkpt lat="42.99292" lon="-0.00429">
        <ele>1703</ele>
        <time>2017-01-18T11:23:51.051Z</time>
      </trkpt>
      <trkpt lat="42.99292" lon="-0.00429">
        <ele>1703</ele>
        <time>2017-01-18T11:23:52.051Z</time>
      </trkpt>
      <trkpt lat="42.99292" lon="-0.00428">
        <ele>1703</ele>
        <time>2017-01-18T11:23:53.051Z</time>
      </trkpt>
      <trkpt lat="42.99291" lon="-0.00428">
        <ele>1703</ele>
        <time>2017-01-18T11:23:54.051Z</time>
      </trkpt>
      <trkpt lat="42.99291" lon="-0.00427">
        <ele>1703</ele>
        <time>2017-01-18T11:23:55.051Z</time>
      </trkpt>
      <trkpt lat="42.99291" lon="-0.00427">
        <ele>1703</ele>
        <time>2017-01-18T11:23:56.051Z</time>
      </trkpt>
      <trkpt lat="42.99291" lon="-0.00427">
        <ele>1703</ele>
        <time>2017-01-18T11:23:57.051Z</time>
      </trkpt>
      <trkpt lat="42.9929" lon="-0.00426">
        <ele>1703</ele>
        <time>2017-01-18T11:23:58.051Z</time>
      </trkpt>
      <trkpt lat="42.9929" lon="-0.00425">
        <ele>1704</ele>
        <time>2017-01-18T11:23:59.051Z</time>
      </trkpt>
      <trkpt lat="42.9929" lon="-0.00425">
        <ele>1704</ele>
        <time>2017-01-18T11:24:00.051Z</time>
      </trkpt>
      <trkpt lat="42.99289" lon="-0.00424">
        <ele>1704</ele>
        <time>2017-01-18T11:24:01.051Z</time>
      </trkpt>
      <trkpt lat="42.99289" lon="-0.00424">
        <ele>1704</ele>
        <time>2017-01-18T11:24:02.051Z</time>
      </trkpt>
      <trkpt lat="42.99289" lon="-0.00424">
        <ele>1704</ele>
        <time>2017-01-18T11:24:03.051Z</time>
      </trkpt>
      <trkpt lat="42.99289" lon="-0.00424">
        <ele>1704</ele>
        <time>2017-01-18T11:24:04.051Z</time>
      </trkpt>
      <trkpt lat="42.99289" lon="-0.00424">
        <ele>1704</ele>
        <time>2017-01-18T11:24:05.051Z</time>
      </trkpt>
      <trkpt lat="42.99289" lon="-0.00423">
        <ele>1704</ele>
        <time>2017-01-18T11:24:06.051Z</time>
      </trkpt>
      <trkpt lat="42.99289" lon="-0.00423">
        <ele>1704</ele>
        <time>2017-01-18T11:24:07.051Z</time>
      </trkpt>
      <trkpt lat="42.99288" lon="-0.00423">
        <ele>1705</ele>
        <time>2017-01-18T11:24:08.051Z</time>
      </trkpt>
      <trkpt lat="42.99288" lon="-0.00422">
        <ele>1705</ele>
        <time>2017-01-18T11:24:09.051Z</time>
      </trkpt>
      <trkpt lat="42.99288" lon="-0.00422">
        <ele>1705</ele>
        <time>2017-01-18T11:24:10.051Z</time>
      </trkpt>
      <trkpt lat="42.99287" lon="-0.00421">
        <ele>1705</ele>
        <time>2017-01-18T11:24:11.051Z</time>
      </trkpt>
      <trkpt lat="42.99287" lon="-0.00421">
        <ele>1705</ele>
        <time>2017-01-18T11:24:12.051Z</time>
      </trkpt>
      <trkpt lat="42.99287" lon="-0.00421">
        <ele>1705</ele>
        <time>2017-01-18T11:24:13.051Z</time>
      </trkpt>
      <trkpt lat="42.99287" lon="-0.0042">
        <ele>1705</ele>
        <time>2017-01-18T11:24:14.051Z</time>
      </trkpt>
      <trkpt lat="42.99286" lon="-0.00419">
        <ele>1705</ele>
        <time>2017-01-18T11:24:15.051Z</time>
      </trkpt>
      <trkpt lat="42.99286" lon="-0.00419">
        <ele>1705</ele>
        <time>2017-01-18T11:24:16.051Z</time>
      </trkpt>
      <trkpt lat="42.99286" lon="-0.00419">
        <ele>1705</ele>
        <time>2017-01-18T11:24:17.051Z</time>
      </trkpt>
      <trkpt lat="42.99286" lon="-0.00419">
        <ele>1705</ele>
        <time>2017-01-18T11:24:18.051Z</time>
      </trkpt>
      <trkpt lat="42.99286" lon="-0.00418">
        <ele>1705</ele>
        <time>2017-01-18T11:24:19.051Z</time>
      </trkpt>
      <trkpt lat="42.99286" lon="-0.00417">
        <ele>1705</ele>
        <time>2017-01-18T11:24:20.051Z</time>
      </trkpt>
      <trkpt lat="42.99286" lon="-0.00417">
        <ele>1705</ele>
        <time>2017-01-18T11:24:21.051Z</time>
      </trkpt>
      <trkpt lat="42.99286" lon="-0.00416">
        <ele>1705</ele>
        <time>2017-01-18T11:24:22.051Z</time>
      </trkpt>
      <trkpt lat="42.99286" lon="-0.00416">
        <ele>1705</ele>
        <time>2017-01-18T11:24:23.051Z</time>
      </trkpt>
      <trkpt lat="42.99286" lon="-0.00415">
        <ele>1705</ele>
        <time>2017-01-18T11:24:24.051Z</time>
      </trkpt>
      <trkpt lat="42.99286" lon="-0.00414">
        <ele>1705</ele>
        <time>2017-01-18T11:24:25.051Z</time>
      </trkpt>
      <trkpt lat="42.99286" lon="-0.00414">
        <ele>1705</ele>
        <time>2017-01-18T11:24:26.051Z</time>
      </trkpt>
      <trkpt lat="42.99285" lon="-0.00413">
        <ele>1705</ele>
        <time>2017-01-18T11:24:27.051Z</time>
      </trkpt>
      <trkpt lat="42.99285" lon="-0.00413">
        <ele>1705</ele>
        <time>2017-01-18T11:24:28.051Z</time>
      </trkpt>
      <trkpt lat="42.99285" lon="-0.00412">
        <ele>1705</ele>
        <time>2017-01-18T11:24:29.051Z</time>
      </trkpt>
      <trkpt lat="42.99285" lon="-0.00412">
        <ele>1705</ele>
        <time>2017-01-18T11:24:30.051Z</time>
      </trkpt>
      <trkpt lat="42.99285" lon="-0.00411">
        <ele>1705</ele>
        <time>2017-01-18T11:24:31.051Z</time>
      </trkpt>
      <trkpt lat="42.99285" lon="-0.00411">
        <ele>1705</ele>
        <time>2017-01-18T11:24:32.051Z</time>
      </trkpt>
      <trkpt lat="42.99284" lon="-0.0041">
        <ele>1705</ele>
        <time>2017-01-18T11:24:33.051Z</time>
      </trkpt>
      <trkpt lat="42.99284" lon="-0.0041">
        <ele>1705</ele>
        <time>2017-01-18T11:24:34.051Z</time>
      </trkpt>
      <trkpt lat="42.99284" lon="-0.00409">
        <ele>1705</ele>
        <time>2017-01-18T11:24:35.051Z</time>
      </trkpt>
      <trkpt lat="42.99284" lon="-0.00408">
        <ele>1706</ele>
        <time>2017-01-18T11:24:36.051Z</time>
      </trkpt>
      <trkpt lat="42.99284" lon="-0.00408">
        <ele>1706</ele>
        <time>2017-01-18T11:24:37.051Z</time>
      </trkpt>
      <trkpt lat="42.99284" lon="-0.00407">
        <ele>1706</ele>
        <time>2017-01-18T11:24:38.051Z</time>
      </trkpt>
      <trkpt lat="42.99284" lon="-0.00407">
        <ele>1706</ele>
        <time>2017-01-18T11:24:39.051Z</time>
      </trkpt>
      <trkpt lat="42.99283" lon="-0.00406">
        <ele>1706</ele>
        <time>2017-01-18T11:24:40.051Z</time>
      </trkpt>
      <trkpt lat="42.99283" lon="-0.00405">
        <ele>1706</ele>
        <time>2017-01-18T11:24:41.051Z</time>
      </trkpt>
      <trkpt lat="42.99283" lon="-0.00405">
        <ele>1707</ele>
        <time>2017-01-18T11:24:42.051Z</time>
      </trkpt>
      <trkpt lat="42.99283" lon="-0.00404">
        <ele>1707</ele>
        <time>2017-01-18T11:24:43.051Z</time>
      </trkpt>
      <trkpt lat="42.99282" lon="-0.00404">
        <ele>1707</ele>
        <time>2017-01-18T11:24:44.051Z</time>
      </trkpt>
      <trkpt lat="42.99282" lon="-0.00403">
        <ele>1707</ele>
        <time>2017-01-18T11:24:45.051Z</time>
      </trkpt>
      <trkpt lat="42.99282" lon="-0.00403">
        <ele>1706</ele>
        <time>2017-01-18T11:24:46.051Z</time>
      </trkpt>
      <trkpt lat="42.99282" lon="-0.00402">
        <ele>1707</ele>
        <time>2017-01-18T11:24:47.051Z</time>
      </trkpt>
      <trkpt lat="42.99282" lon="-0.00401">
        <ele>1707</ele>
        <time>2017-01-18T11:24:48.051Z</time>
      </trkpt>
      <trkpt lat="42.99281" lon="-0.00401">
        <ele>1707</ele>
        <time>2017-01-18T11:24:49.051Z</time>
      </trkpt>
      <trkpt lat="42.99281" lon="-0.004">
        <ele>1707</ele>
        <time>2017-01-18T11:24:50.051Z</time>
      </trkpt>
      <trkpt lat="42.99281" lon="-0.00399">
        <ele>1707</ele>
        <time>2017-01-18T11:24:51.051Z</time>
      </trkpt>
      <trkpt lat="42.9928" lon="-0.00399">
        <ele>1707</ele>
        <time>2017-01-18T11:24:52.051Z</time>
      </trkpt>
      <trkpt lat="42.9928" lon="-0.00398">
        <ele>1707</ele>
        <time>2017-01-18T11:24:53.051Z</time>
      </trkpt>
      <trkpt lat="42.9928" lon="-0.00398">
        <ele>1708</ele>
        <time>2017-01-18T11:24:54.051Z</time>
      </trkpt>
      <trkpt lat="42.99279" lon="-0.00397">
        <ele>1708</ele>
        <time>2017-01-18T11:24:55.051Z</time>
      </trkpt>
      <trkpt lat="42.99279" lon="-0.00396">
        <ele>1708</ele>
        <time>2017-01-18T11:24:56.051Z</time>
      </trkpt>
      <trkpt lat="42.99279" lon="-0.00396">
        <ele>1708</ele>
        <time>2017-01-18T11:24:57.051Z</time>
      </trkpt>
      <trkpt lat="42.99279" lon="-0.00395">
        <ele>1708</ele>
        <time>2017-01-18T11:24:58.051Z</time>
      </trkpt>
      <trkpt lat="42.99278" lon="-0.00395">
        <ele>1708</ele>
        <time>2017-01-18T11:24:59.051Z</time>
      </trkpt>
      <trkpt lat="42.99278" lon="-0.00394">
        <ele>1708</ele>
        <time>2017-01-18T11:25:00.051Z</time>
      </trkpt>
      <trkpt lat="42.99278" lon="-0.00394">
        <ele>1709</ele>
        <time>2017-01-18T11:25:01.051Z</time>
      </trkpt>
      <trkpt lat="42.99277" lon="-0.00393">
        <ele>1709</ele>
        <time>2017-01-18T11:25:02.051Z</time>
      </trkpt>
      <trkpt lat="42.99277" lon="-0.00392">
        <ele>1709</ele>
        <time>2017-01-18T11:25:03.051Z</time>
      </trkpt>
      <trkpt lat="42.99276" lon="-0.00392">
        <ele>1709</ele>
        <time>2017-01-18T11:25:04.051Z</time>
      </trkpt>
      <trkpt lat="42.99276" lon="-0.00391">
        <ele>1709</ele>
        <time>2017-01-18T11:25:05.051Z</time>
      </trkpt>
      <trkpt lat="42.99275" lon="-0.00391">
        <ele>1709</ele>
        <time>2017-01-18T11:25:06.051Z</time>
      </trkpt>
      <trkpt lat="42.99275" lon="-0.0039">
        <ele>1709</ele>
        <time>2017-01-18T11:25:07.051Z</time>
      </trkpt>
      <trkpt lat="42.99275" lon="-0.00389">
        <ele>1709</ele>
        <time>2017-01-18T11:25:08.051Z</time>
      </trkpt>
      <trkpt lat="42.99275" lon="-0.00389">
        <ele>1709</ele>
        <time>2017-01-18T11:25:09.051Z</time>
      </trkpt>
      <trkpt lat="42.99273" lon="-0.00388">
        <ele>1709</ele>
        <time>2017-01-18T11:25:10.051Z</time>
      </trkpt>
      <trkpt lat="42.99273" lon="-0.00388">
        <ele>1710</ele>
        <time>2017-01-18T11:25:11.051Z</time>
      </trkpt>
      <trkpt lat="42.99273" lon="-0.00387">
        <ele>1710</ele>
        <time>2017-01-18T11:25:12.051Z</time>
      </trkpt>
      <trkpt lat="42.99272" lon="-0.00387">
        <ele>1710</ele>
        <time>2017-01-18T11:25:13.051Z</time>
      </trkpt>
      <trkpt lat="42.99272" lon="-0.00386">
        <ele>1710</ele>
        <time>2017-01-18T11:25:14.051Z</time>
      </trkpt>
      <trkpt lat="42.99272" lon="-0.00386">
        <ele>1710</ele>
        <time>2017-01-18T11:25:15.051Z</time>
      </trkpt>
      <trkpt lat="42.99271" lon="-0.00385">
        <ele>1710</ele>
        <time>2017-01-18T11:25:16.051Z</time>
      </trkpt>
      <trkpt lat="42.99271" lon="-0.00385">
        <ele>1710</ele>
        <time>2017-01-18T11:25:17.051Z</time>
      </trkpt>
      <trkpt lat="42.9927" lon="-0.00384">
        <ele>1710</ele>
        <time>2017-01-18T11:25:18.051Z</time>
      </trkpt>
      <trkpt lat="42.9927" lon="-0.00384">
        <ele>1710</ele>
        <time>2017-01-18T11:25:19.051Z</time>
      </trkpt>
      <trkpt lat="42.99269" lon="-0.00383">
        <ele>1710</ele>
        <time>2017-01-18T11:25:20.051Z</time>
      </trkpt>
      <trkpt lat="42.99269" lon="-0.00382">
        <ele>1710</ele>
        <time>2017-01-18T11:25:21.051Z</time>
      </trkpt>
      <trkpt lat="42.99268" lon="-0.00382">
        <ele>1710</ele>
        <time>2017-01-18T11:25:22.051Z</time>
      </trkpt>
      <trkpt lat="42.99268" lon="-0.00381">
        <ele>1710</ele>
        <time>2017-01-18T11:25:23.051Z</time>
      </trkpt>
      <trkpt lat="42.99268" lon="-0.00381">
        <ele>1710</ele>
        <time>2017-01-18T11:25:24.051Z</time>
      </trkpt>
      <trkpt lat="42.99267" lon="-0.0038">
        <ele>1710</ele>
        <time>2017-01-18T11:25:25.051Z</time>
      </trkpt>
      <trkpt lat="42.99267" lon="-0.00379">
        <ele>1710</ele>
        <time>2017-01-18T11:25:26.051Z</time>
      </trkpt>
      <trkpt lat="42.99266" lon="-0.00379">
        <ele>1711</ele>
        <time>2017-01-18T11:25:27.051Z</time>
      </trkpt>
      <trkpt lat="42.99266" lon="-0.00378">
        <ele>1711</ele>
        <time>2017-01-18T11:25:28.051Z</time>
      </trkpt>
      <trkpt lat="42.99265" lon="-0.00377">
        <ele>1711</ele>
        <time>2017-01-18T11:25:29.051Z</time>
      </trkpt>
      <trkpt lat="42.99265" lon="-0.00377">
        <ele>1711</ele>
        <time>2017-01-18T11:25:30.051Z</time>
      </trkpt>
      <trkpt lat="42.99265" lon="-0.00376">
        <ele>1711</ele>
        <time>2017-01-18T11:25:31.051Z</time>
      </trkpt>
      <trkpt lat="42.99264" lon="-0.00376">
        <ele>1711</ele>
        <time>2017-01-18T11:25:32.051Z</time>
      </trkpt>
      <trkpt lat="42.99264" lon="-0.00375">
        <ele>1711</ele>
        <time>2017-01-18T11:25:33.051Z</time>
      </trkpt>
      <trkpt lat="42.99263" lon="-0.00374">
        <ele>1711</ele>
        <time>2017-01-18T11:25:34.051Z</time>
      </trkpt>
      <trkpt lat="42.99263" lon="-0.00374">
        <ele>1712</ele>
        <time>2017-01-18T11:25:35.051Z</time>
      </trkpt>
      <trkpt lat="42.99263" lon="-0.00373">
        <ele>1712</ele>
        <time>2017-01-18T11:25:36.051Z</time>
      </trkpt>
      <trkpt lat="42.99262" lon="-0.00373">
        <ele>1712</ele>
        <time>2017-01-18T11:25:37.051Z</time>
      </trkpt>
      <trkpt lat="42.99262" lon="-0.00372">
        <ele>1712</ele>
        <time>2017-01-18T11:25:38.051Z</time>
      </trkpt>
      <trkpt lat="42.99262" lon="-0.00372">
        <ele>1712</ele>
        <time>2017-01-18T11:25:39.051Z</time>
      </trkpt>
      <trkpt lat="42.99261" lon="-0.00371">
        <ele>1713</ele>
        <time>2017-01-18T11:25:40.051Z</time>
      </trkpt>
      <trkpt lat="42.99261" lon="-0.0037">
        <ele>1713</ele>
        <time>2017-01-18T11:25:41.051Z</time>
      </trkpt>
      <trkpt lat="42.99261" lon="-0.0037">
        <ele>1713</ele>
        <time>2017-01-18T11:25:42.051Z</time>
      </trkpt>
      <trkpt lat="42.9926" lon="-0.00369">
        <ele>1713</ele>
        <time>2017-01-18T11:25:43.051Z</time>
      </trkpt>
      <trkpt lat="42.9926" lon="-0.00369">
        <ele>1713</ele>
        <time>2017-01-18T11:25:44.051Z</time>
      </trkpt>
      <trkpt lat="42.9926" lon="-0.00368">
        <ele>1713</ele>
        <time>2017-01-18T11:25:45.051Z</time>
      </trkpt>
      <trkpt lat="42.99259" lon="-0.00368">
        <ele>1713</ele>
        <time>2017-01-18T11:25:46.051Z</time>
      </trkpt>
      <trkpt lat="42.99259" lon="-0.00367">
        <ele>1713</ele>
        <time>2017-01-18T11:25:47.051Z</time>
      </trkpt>
      <trkpt lat="42.99258" lon="-0.00367">
        <ele>1713</ele>
        <time>2017-01-18T11:25:48.051Z</time>
      </trkpt>
      <trkpt lat="42.99258" lon="-0.00366">
        <ele>1713</ele>
        <time>2017-01-18T11:25:49.051Z</time>
      </trkpt>
      <trkpt lat="42.99258" lon="-0.00365">
        <ele>1713</ele>
        <time>2017-01-18T11:25:50.051Z</time>
      </trkpt>
      <trkpt lat="42.99257" lon="-0.00365">
        <ele>1713</ele>
        <time>2017-01-18T11:25:51.051Z</time>
      </trkpt>
      <trkpt lat="42.99257" lon="-0.00364">
        <ele>1713</ele>
        <time>2017-01-18T11:25:52.051Z</time>
      </trkpt>
      <trkpt lat="42.99256" lon="-0.00364">
        <ele>1713</ele>
        <time>2017-01-18T11:25:53.051Z</time>
      </trkpt>
      <trkpt lat="42.99256" lon="-0.00363">
        <ele>1713</ele>
        <time>2017-01-18T11:25:54.051Z</time>
      </trkpt>
      <trkpt lat="42.99255" lon="-0.00363">
        <ele>1713</ele>
        <time>2017-01-18T11:25:55.051Z</time>
      </trkpt>
      <trkpt lat="42.99255" lon="-0.00362">
        <ele>1713</ele>
        <time>2017-01-18T11:25:56.051Z</time>
      </trkpt>
      <trkpt lat="42.99255" lon="-0.00361">
        <ele>1713</ele>
        <time>2017-01-18T11:25:57.051Z</time>
      </trkpt>
      <trkpt lat="42.99254" lon="-0.00361">
        <ele>1714</ele>
        <time>2017-01-18T11:25:58.051Z</time>
      </trkpt>
      <trkpt lat="42.99254" lon="-0.0036">
        <ele>1714</ele>
        <time>2017-01-18T11:25:59.051Z</time>
      </trkpt>
      <trkpt lat="42.99254" lon="-0.0036">
        <ele>1714</ele>
        <time>2017-01-18T11:26:00.051Z</time>
      </trkpt>
      <trkpt lat="42.99253" lon="-0.00359">
        <ele>1714</ele>
        <time>2017-01-18T11:26:01.051Z</time>
      </trkpt>
      <trkpt lat="42.99253" lon="-0.00358">
        <ele>1714</ele>
        <time>2017-01-18T11:26:02.051Z</time>
      </trkpt>
      <trkpt lat="42.99253" lon="-0.00358">
        <ele>1714</ele>
        <time>2017-01-18T11:26:03.051Z</time>
      </trkpt>
      <trkpt lat="42.99252" lon="-0.00357">
        <ele>1715</ele>
        <time>2017-01-18T11:26:04.051Z</time>
      </trkpt>
      <trkpt lat="42.99252" lon="-0.00357">
        <ele>1715</ele>
        <time>2017-01-18T11:26:05.051Z</time>
      </trkpt>
      <trkpt lat="42.99252" lon="-0.00356">
        <ele>1715</ele>
        <time>2017-01-18T11:26:06.051Z</time>
      </trkpt>
      <trkpt lat="42.99251" lon="-0.00356">
        <ele>1715</ele>
        <time>2017-01-18T11:26:07.051Z</time>
      </trkpt>
      <trkpt lat="42.99251" lon="-0.00355">
        <ele>1715</ele>
        <time>2017-01-18T11:26:08.051Z</time>
      </trkpt>
      <trkpt lat="42.99251" lon="-0.00355">
        <ele>1715</ele>
        <time>2017-01-18T11:26:09.051Z</time>
      </trkpt>
      <trkpt lat="42.99251" lon="-0.00354">
        <ele>1715</ele>
        <time>2017-01-18T11:26:10.051Z</time>
      </trkpt>
      <trkpt lat="42.9925" lon="-0.00354">
        <ele>1716</ele>
        <time>2017-01-18T11:26:11.051Z</time>
      </trkpt>
      <trkpt lat="42.9925" lon="-0.00353">
        <ele>1716</ele>
        <time>2017-01-18T11:26:12.051Z</time>
      </trkpt>
      <trkpt lat="42.9925" lon="-0.00353">
        <ele>1716</ele>
        <time>2017-01-18T11:26:13.051Z</time>
      </trkpt>
      <trkpt lat="42.99249" lon="-0.00352">
        <ele>1716</ele>
        <time>2017-01-18T11:26:14.051Z</time>
      </trkpt>
      <trkpt lat="42.99249" lon="-0.00352">
        <ele>1716</ele>
        <time>2017-01-18T11:26:15.051Z</time>
      </trkpt>
      <trkpt lat="42.99249" lon="-0.00351">
        <ele>1716</ele>
        <time>2017-01-18T11:26:16.051Z</time>
      </trkpt>
      <trkpt lat="42.99248" lon="-0.00351">
        <ele>1716</ele>
        <time>2017-01-18T11:26:17.051Z</time>
      </trkpt>
      <trkpt lat="42.99248" lon="-0.00351">
        <ele>1716</ele>
        <time>2017-01-18T11:26:18.051Z</time>
      </trkpt>
      <trkpt lat="42.99248" lon="-0.0035">
        <ele>1716</ele>
        <time>2017-01-18T11:26:19.051Z</time>
      </trkpt>
      <trkpt lat="42.99248" lon="-0.0035">
        <ele>1716</ele>
        <time>2017-01-18T11:26:20.051Z</time>
      </trkpt>
      <trkpt lat="42.99247" lon="-0.00349">
        <ele>1716</ele>
        <time>2017-01-18T11:26:21.051Z</time>
      </trkpt>
      <trkpt lat="42.99247" lon="-0.00349">
        <ele>1717</ele>
        <time>2017-01-18T11:26:22.051Z</time>
      </trkpt>
      <trkpt lat="42.99246" lon="-0.00348">
        <ele>1717</ele>
        <time>2017-01-18T11:26:23.051Z</time>
      </trkpt>
      <trkpt lat="42.99246" lon="-0.00348">
        <ele>1717</ele>
        <time>2017-01-18T11:26:24.051Z</time>
      </trkpt>
      <trkpt lat="42.99246" lon="-0.00347">
        <ele>1717</ele>
        <time>2017-01-18T11:26:25.051Z</time>
      </trkpt>
      <trkpt lat="42.99246" lon="-0.00347">
        <ele>1717</ele>
        <time>2017-01-18T11:26:26.051Z</time>
      </trkpt>
      <trkpt lat="42.99245" lon="-0.00346">
        <ele>1717</ele>
        <time>2017-01-18T11:26:27.051Z</time>
      </trkpt>
      <trkpt lat="42.99245" lon="-0.00345">
        <ele>1717</ele>
        <time>2017-01-18T11:26:28.051Z</time>
      </trkpt>
      <trkpt lat="42.99245" lon="-0.00345">
        <ele>1718</ele>
        <time>2017-01-18T11:26:29.051Z</time>
      </trkpt>
      <trkpt lat="42.99244" lon="-0.00344">
        <ele>1718</ele>
        <time>2017-01-18T11:26:30.051Z</time>
      </trkpt>
      <trkpt lat="42.99244" lon="-0.00343">
        <ele>1718</ele>
        <time>2017-01-18T11:26:31.051Z</time>
      </trkpt>
      <trkpt lat="42.99244" lon="-0.00343">
        <ele>1718</ele>
        <time>2017-01-18T11:26:32.051Z</time>
      </trkpt>
      <trkpt lat="42.99244" lon="-0.00342">
        <ele>1718</ele>
        <time>2017-01-18T11:26:33.051Z</time>
      </trkpt>
      <trkpt lat="42.99243" lon="-0.00341">
        <ele>1719</ele>
        <time>2017-01-18T11:26:34.051Z</time>
      </trkpt>
      <trkpt lat="42.99243" lon="-0.00341">
        <ele>1718</ele>
        <time>2017-01-18T11:26:35.051Z</time>
      </trkpt>
      <trkpt lat="42.99242" lon="-0.0034">
        <ele>1719</ele>
        <time>2017-01-18T11:26:36.051Z</time>
      </trkpt>
      <trkpt lat="42.99242" lon="-0.00339">
        <ele>1719</ele>
        <time>2017-01-18T11:26:37.051Z</time>
      </trkpt>
      <trkpt lat="42.99242" lon="-0.00338">
        <ele>1719</ele>
        <time>2017-01-18T11:26:38.051Z</time>
      </trkpt>
      <trkpt lat="42.99242" lon="-0.00338">
        <ele>1719</ele>
        <time>2017-01-18T11:26:39.051Z</time>
      </trkpt>
      <trkpt lat="42.99241" lon="-0.00337">
        <ele>1719</ele>
        <time>2017-01-18T11:26:40.051Z</time>
      </trkpt>
      <trkpt lat="42.99241" lon="-0.00336">
        <ele>1719</ele>
        <time>2017-01-18T11:26:41.051Z</time>
      </trkpt>
      <trkpt lat="42.99241" lon="-0.00335">
        <ele>1719</ele>
        <time>2017-01-18T11:26:42.051Z</time>
      </trkpt>
      <trkpt lat="42.99241" lon="-0.00335">
        <ele>1719</ele>
        <time>2017-01-18T11:26:43.051Z</time>
      </trkpt>
      <trkpt lat="42.9924" lon="-0.00334">
        <ele>1719</ele>
        <time>2017-01-18T11:26:44.051Z</time>
      </trkpt>
      <trkpt lat="42.9924" lon="-0.00334">
        <ele>1719</ele>
        <time>2017-01-18T11:26:45.051Z</time>
      </trkpt>
      <trkpt lat="42.9924" lon="-0.00333">
        <ele>1719</ele>
        <time>2017-01-18T11:26:46.051Z</time>
      </trkpt>
      <trkpt lat="42.9924" lon="-0.00333">
        <ele>1719</ele>
        <time>2017-01-18T11:26:47.051Z</time>
      </trkpt>
      <trkpt lat="42.9924" lon="-0.00332">
        <ele>1719</ele>
        <time>2017-01-18T11:26:48.051Z</time>
      </trkpt>
      <trkpt lat="42.9924" lon="-0.00332">
        <ele>1720</ele>
        <time>2017-01-18T11:26:49.051Z</time>
      </trkpt>
      <trkpt lat="42.99239" lon="-0.00331">
        <ele>1720</ele>
        <time>2017-01-18T11:26:50.051Z</time>
      </trkpt>
      <trkpt lat="42.99239" lon="-0.00331">
        <ele>1720</ele>
        <time>2017-01-18T11:26:51.051Z</time>
      </trkpt>
      <trkpt lat="42.99239" lon="-0.0033">
        <ele>1720</ele>
        <time>2017-01-18T11:26:52.051Z</time>
      </trkpt>
      <trkpt lat="42.99239" lon="-0.0033">
        <ele>1720</ele>
        <time>2017-01-18T11:26:53.051Z</time>
      </trkpt>
      <trkpt lat="42.99239" lon="-0.00329">
        <ele>1720</ele>
        <time>2017-01-18T11:26:54.051Z</time>
      </trkpt>
      <trkpt lat="42.99238" lon="-0.00328">
        <ele>1720</ele>
        <time>2017-01-18T11:26:55.051Z</time>
      </trkpt>
      <trkpt lat="42.99238" lon="-0.00328">
        <ele>1720</ele>
        <time>2017-01-18T11:26:56.051Z</time>
      </trkpt>
      <trkpt lat="42.99238" lon="-0.00327">
        <ele>1720</ele>
        <time>2017-01-18T11:26:57.051Z</time>
      </trkpt>
      <trkpt lat="42.99238" lon="-0.00326">
        <ele>1720</ele>
        <time>2017-01-18T11:26:58.051Z</time>
      </trkpt>
      <trkpt lat="42.99238" lon="-0.00326">
        <ele>1720</ele>
        <time>2017-01-18T11:26:59.051Z</time>
      </trkpt>
      <trkpt lat="42.99237" lon="-0.00325">
        <ele>1720</ele>
        <time>2017-01-18T11:27:00.051Z</time>
      </trkpt>
      <trkpt lat="42.99237" lon="-0.00324">
        <ele>1720</ele>
        <time>2017-01-18T11:27:01.051Z</time>
      </trkpt>
      <trkpt lat="42.99237" lon="-0.00323">
        <ele>1720</ele>
        <time>2017-01-18T11:27:02.051Z</time>
      </trkpt>
      <trkpt lat="42.99237" lon="-0.00323">
        <ele>1720</ele>
        <time>2017-01-18T11:27:03.051Z</time>
      </trkpt>
      <trkpt lat="42.99237" lon="-0.00322">
        <ele>1720</ele>
        <time>2017-01-18T11:27:04.051Z</time>
      </trkpt>
      <trkpt lat="42.99237" lon="-0.00321">
        <ele>1720</ele>
        <time>2017-01-18T11:27:05.051Z</time>
      </trkpt>
      <trkpt lat="42.99237" lon="-0.00321">
        <ele>1720</ele>
        <time>2017-01-18T11:27:06.051Z</time>
      </trkpt>
      <trkpt lat="42.99236" lon="-0.0032">
        <ele>1720</ele>
        <time>2017-01-18T11:27:07.051Z</time>
      </trkpt>
      <trkpt lat="42.99236" lon="-0.0032">
        <ele>1720</ele>
        <time>2017-01-18T11:27:08.051Z</time>
      </trkpt>
      <trkpt lat="42.99236" lon="-0.00319">
        <ele>1720</ele>
        <time>2017-01-18T11:27:09.051Z</time>
      </trkpt>
      <trkpt lat="42.99236" lon="-0.00318">
        <ele>1720</ele>
        <time>2017-01-18T11:27:10.051Z</time>
      </trkpt>
      <trkpt lat="42.99236" lon="-0.00318">
        <ele>1720</ele>
        <time>2017-01-18T11:27:11.051Z</time>
      </trkpt>
      <trkpt lat="42.99236" lon="-0.00317">
        <ele>1721</ele>
        <time>2017-01-18T11:27:12.051Z</time>
      </trkpt>
      <trkpt lat="42.99235" lon="-0.00317">
        <ele>1720</ele>
        <time>2017-01-18T11:27:13.051Z</time>
      </trkpt>
      <trkpt lat="42.99235" lon="-0.00316">
        <ele>1721</ele>
        <time>2017-01-18T11:27:14.051Z</time>
      </trkpt>
      <trkpt lat="42.99235" lon="-0.00315">
        <ele>1720</ele>
        <time>2017-01-18T11:27:15.051Z</time>
      </trkpt>
      <trkpt lat="42.99235" lon="-0.00315">
        <ele>1721</ele>
        <time>2017-01-18T11:27:16.051Z</time>
      </trkpt>
      <trkpt lat="42.99235" lon="-0.00314">
        <ele>1721</ele>
        <time>2017-01-18T11:27:17.051Z</time>
      </trkpt>
      <trkpt lat="42.99235" lon="-0.00314">
        <ele>1721</ele>
        <time>2017-01-18T11:27:18.051Z</time>
      </trkpt>
      <trkpt lat="42.99235" lon="-0.00313">
        <ele>1721</ele>
        <time>2017-01-18T11:27:19.051Z</time>
      </trkpt>
      <trkpt lat="42.99234" lon="-0.00312">
        <ele>1721</ele>
        <time>2017-01-18T11:27:20.051Z</time>
      </trkpt>
      <trkpt lat="42.99234" lon="-0.00312">
        <ele>1722</ele>
        <time>2017-01-18T11:27:21.051Z</time>
      </trkpt>
      <trkpt lat="42.99234" lon="-0.00311">
        <ele>1722</ele>
        <time>2017-01-18T11:27:22.051Z</time>
      </trkpt>
      <trkpt lat="42.99234" lon="-0.0031">
        <ele>1722</ele>
        <time>2017-01-18T11:27:23.051Z</time>
      </trkpt>
      <trkpt lat="42.99233" lon="-0.00309">
        <ele>1722</ele>
        <time>2017-01-18T11:27:24.051Z</time>
      </trkpt>
      <trkpt lat="42.99233" lon="-0.00308">
        <ele>1722</ele>
        <time>2017-01-18T11:27:25.051Z</time>
      </trkpt>
      <trkpt lat="42.99233" lon="-0.00308">
        <ele>1722</ele>
        <time>2017-01-18T11:27:26.051Z</time>
      </trkpt>
      <trkpt lat="42.99233" lon="-0.00307">
        <ele>1722</ele>
        <time>2017-01-18T11:27:27.051Z</time>
      </trkpt>
      <trkpt lat="42.99233" lon="-0.00306">
        <ele>1722</ele>
        <time>2017-01-18T11:27:28.051Z</time>
      </trkpt>
      <trkpt lat="42.99233" lon="-0.00305">
        <ele>1722</ele>
        <time>2017-01-18T11:27:29.051Z</time>
      </trkpt>
      <trkpt lat="42.99233" lon="-0.00304">
        <ele>1722</ele>
        <time>2017-01-18T11:27:30.051Z</time>
      </trkpt>
      <trkpt lat="42.99232" lon="-0.00304">
        <ele>1723</ele>
        <time>2017-01-18T11:27:31.051Z</time>
      </trkpt>
      <trkpt lat="42.99232" lon="-0.00303">
        <ele>1723</ele>
        <time>2017-01-18T11:27:32.051Z</time>
      </trkpt>
      <trkpt lat="42.99232" lon="-0.00302">
        <ele>1723</ele>
        <time>2017-01-18T11:27:33.051Z</time>
      </trkpt>
      <trkpt lat="42.99232" lon="-0.00301">
        <ele>1723</ele>
        <time>2017-01-18T11:27:34.051Z</time>
      </trkpt>
      <trkpt lat="42.99231" lon="-0.003">
        <ele>1723</ele>
        <time>2017-01-18T11:27:35.051Z</time>
      </trkpt>
      <trkpt lat="42.99231" lon="-0.003">
        <ele>1723</ele>
        <time>2017-01-18T11:27:36.051Z</time>
      </trkpt>
      <trkpt lat="42.99231" lon="-0.00299">
        <ele>1723</ele>
        <time>2017-01-18T11:27:37.051Z</time>
      </trkpt>
      <trkpt lat="42.99231" lon="-0.00298">
        <ele>1723</ele>
        <time>2017-01-18T11:27:38.051Z</time>
      </trkpt>
      <trkpt lat="42.9923" lon="-0.00297">
        <ele>1723</ele>
        <time>2017-01-18T11:27:39.051Z</time>
      </trkpt>
      <trkpt lat="42.9923" lon="-0.00296">
        <ele>1723</ele>
        <time>2017-01-18T11:27:40.051Z</time>
      </trkpt>
      <trkpt lat="42.9923" lon="-0.00296">
        <ele>1723</ele>
        <time>2017-01-18T11:27:41.051Z</time>
      </trkpt>
      <trkpt lat="42.9923" lon="-0.00295">
        <ele>1724</ele>
        <time>2017-01-18T11:27:42.051Z</time>
      </trkpt>
      <trkpt lat="42.9923" lon="-0.00294">
        <ele>1724</ele>
        <time>2017-01-18T11:27:43.051Z</time>
      </trkpt>
      <trkpt lat="42.99229" lon="-0.00294">
        <ele>1724</ele>
        <time>2017-01-18T11:27:44.051Z</time>
      </trkpt>
      <trkpt lat="42.99229" lon="-0.00293">
        <ele>1724</ele>
        <time>2017-01-18T11:27:45.051Z</time>
      </trkpt>
      <trkpt lat="42.99229" lon="-0.00292">
        <ele>1724</ele>
        <time>2017-01-18T11:27:46.051Z</time>
      </trkpt>
      <trkpt lat="42.99229" lon="-0.00291">
        <ele>1724</ele>
        <time>2017-01-18T11:27:47.051Z</time>
      </trkpt>
      <trkpt lat="42.99229" lon="-0.0029">
        <ele>1724</ele>
        <time>2017-01-18T11:27:48.051Z</time>
      </trkpt>
      <trkpt lat="42.99228" lon="-0.0029">
        <ele>1724</ele>
        <time>2017-01-18T11:27:49.051Z</time>
      </trkpt>
      <trkpt lat="42.99228" lon="-0.00289">
        <ele>1725</ele>
        <time>2017-01-18T11:27:50.051Z</time>
      </trkpt>
      <trkpt lat="42.99228" lon="-0.00288">
        <ele>1724</ele>
        <time>2017-01-18T11:27:51.051Z</time>
      </trkpt>
      <trkpt lat="42.99228" lon="-0.00287">
        <ele>1725</ele>
        <time>2017-01-18T11:27:52.051Z</time>
      </trkpt>
      <trkpt lat="42.99227" lon="-0.00286">
        <ele>1725</ele>
        <time>2017-01-18T11:27:53.051Z</time>
      </trkpt>
      <trkpt lat="42.99227" lon="-0.00285">
        <ele>1725</ele>
        <time>2017-01-18T11:27:54.051Z</time>
      </trkpt>
      <trkpt lat="42.99227" lon="-0.00285">
        <ele>1725</ele>
        <time>2017-01-18T11:27:55.051Z</time>
      </trkpt>
      <trkpt lat="42.99227" lon="-0.00284">
        <ele>1725</ele>
        <time>2017-01-18T11:27:56.051Z</time>
      </trkpt>
      <trkpt lat="42.99227" lon="-0.00283">
        <ele>1725</ele>
        <time>2017-01-18T11:27:57.051Z</time>
      </trkpt>
      <trkpt lat="42.99227" lon="-0.00282">
        <ele>1725</ele>
        <time>2017-01-18T11:27:58.051Z</time>
      </trkpt>
      <trkpt lat="42.99226" lon="-0.00281">
        <ele>1725</ele>
        <time>2017-01-18T11:27:59.051Z</time>
      </trkpt>
      <trkpt lat="42.99226" lon="-0.00281">
        <ele>1725</ele>
        <time>2017-01-18T11:28:00.051Z</time>
      </trkpt>
      <trkpt lat="42.99226" lon="-0.0028">
        <ele>1725</ele>
        <time>2017-01-18T11:28:01.051Z</time>
      </trkpt>
      <trkpt lat="42.99226" lon="-0.00279">
        <ele>1725</ele>
        <time>2017-01-18T11:28:02.051Z</time>
      </trkpt>
      <trkpt lat="42.99226" lon="-0.00278">
        <ele>1725</ele>
        <time>2017-01-18T11:28:03.051Z</time>
      </trkpt>
      <trkpt lat="42.99226" lon="-0.00277">
        <ele>1726</ele>
        <time>2017-01-18T11:28:04.051Z</time>
      </trkpt>
      <trkpt lat="42.99225" lon="-0.00276">
        <ele>1726</ele>
        <time>2017-01-18T11:28:05.051Z</time>
      </trkpt>
      <trkpt lat="42.99225" lon="-0.00276">
        <ele>1726</ele>
        <time>2017-01-18T11:28:06.051Z</time>
      </trkpt>
      <trkpt lat="42.99225" lon="-0.00275">
        <ele>1726</ele>
        <time>2017-01-18T11:28:07.051Z</time>
      </trkpt>
      <trkpt lat="42.99225" lon="-0.00274">
        <ele>1726</ele>
        <time>2017-01-18T11:28:08.051Z</time>
      </trkpt>
      <trkpt lat="42.99224" lon="-0.00273">
        <ele>1726</ele>
        <time>2017-01-18T11:28:09.051Z</time>
      </trkpt>
      <trkpt lat="42.99224" lon="-0.00272">
        <ele>1726</ele>
        <time>2017-01-18T11:28:10.051Z</time>
      </trkpt>
      <trkpt lat="42.99224" lon="-0.00271">
        <ele>1726</ele>
        <time>2017-01-18T11:28:11.051Z</time>
      </trkpt>
      <trkpt lat="42.99224" lon="-0.0027">
        <ele>1726</ele>
        <time>2017-01-18T11:28:12.051Z</time>
      </trkpt>
      <trkpt lat="42.99223" lon="-0.00269">
        <ele>1726</ele>
        <time>2017-01-18T11:28:13.051Z</time>
      </trkpt>
      <trkpt lat="42.99223" lon="-0.00268">
        <ele>1726</ele>
        <time>2017-01-18T11:28:14.051Z</time>
      </trkpt>
      <trkpt lat="42.99223" lon="-0.00267">
        <ele>1727</ele>
        <time>2017-01-18T11:28:15.051Z</time>
      </trkpt>
      <trkpt lat="42.99222" lon="-0.00266">
        <ele>1727</ele>
        <time>2017-01-18T11:28:16.051Z</time>
      </trkpt>
      <trkpt lat="42.99222" lon="-0.00265">
        <ele>1727</ele>
        <time>2017-01-18T11:28:17.051Z</time>
      </trkpt>
      <trkpt lat="42.99222" lon="-0.00264">
        <ele>1727</ele>
        <time>2017-01-18T11:28:18.051Z</time>
      </trkpt>
      <trkpt lat="42.99222" lon="-0.00263">
        <ele>1727</ele>
        <time>2017-01-18T11:28:19.051Z</time>
      </trkpt>
      <trkpt lat="42.99221" lon="-0.00262">
        <ele>1727</ele>
        <time>2017-01-18T11:28:20.051Z</time>
      </trkpt>
      <trkpt lat="42.99221" lon="-0.00261">
        <ele>1727</ele>
        <time>2017-01-18T11:28:21.051Z</time>
      </trkpt>
      <trkpt lat="42.99221" lon="-0.0026">
        <ele>1727</ele>
        <time>2017-01-18T11:28:22.051Z</time>
      </trkpt>
      <trkpt lat="42.99221" lon="-0.0026">
        <ele>1727</ele>
        <time>2017-01-18T11:28:23.051Z</time>
      </trkpt>
      <trkpt lat="42.9922" lon="-0.00259">
        <ele>1727</ele>
        <time>2017-01-18T11:28:24.051Z</time>
      </trkpt>
      <trkpt lat="42.9922" lon="-0.00258">
        <ele>1728</ele>
        <time>2017-01-18T11:28:25.051Z</time>
      </trkpt>
      <trkpt lat="42.9922" lon="-0.00257">
        <ele>1728</ele>
        <time>2017-01-18T11:28:26.051Z</time>
      </trkpt>
      <trkpt lat="42.9922" lon="-0.00256">
        <ele>1728</ele>
        <time>2017-01-18T11:28:27.051Z</time>
      </trkpt>
      <trkpt lat="42.99219" lon="-0.00255">
        <ele>1728</ele>
        <time>2017-01-18T11:28:28.051Z</time>
      </trkpt>
      <trkpt lat="42.99219" lon="-0.00255">
        <ele>1728</ele>
        <time>2017-01-18T11:28:29.051Z</time>
      </trkpt>
      <trkpt lat="42.99219" lon="-0.00254">
        <ele>1728</ele>
        <time>2017-01-18T11:28:30.051Z</time>
      </trkpt>
      <trkpt lat="42.99218" lon="-0.00253">
        <ele>1729</ele>
        <time>2017-01-18T11:28:31.051Z</time>
      </trkpt>
      <trkpt lat="42.99218" lon="-0.00252">
        <ele>1728</ele>
        <time>2017-01-18T11:28:32.051Z</time>
      </trkpt>
      <trkpt lat="42.99218" lon="-0.00251">
        <ele>1729</ele>
        <time>2017-01-18T11:28:33.051Z</time>
      </trkpt>
      <trkpt lat="42.99218" lon="-0.00251">
        <ele>1728</ele>
        <time>2017-01-18T11:28:34.051Z</time>
      </trkpt>
      <trkpt lat="42.99217" lon="-0.0025">
        <ele>1729</ele>
        <time>2017-01-18T11:28:35.051Z</time>
      </trkpt>
      <trkpt lat="42.99217" lon="-0.00249">
        <ele>1729</ele>
        <time>2017-01-18T11:28:36.051Z</time>
      </trkpt>
      <trkpt lat="42.99217" lon="-0.00249">
        <ele>1729</ele>
        <time>2017-01-18T11:28:37.051Z</time>
      </trkpt>
      <trkpt lat="42.99217" lon="-0.00248">
        <ele>1728</ele>
        <time>2017-01-18T11:28:38.051Z</time>
      </trkpt>
      <trkpt lat="42.99217" lon="-0.00247">
        <ele>1728</ele>
        <time>2017-01-18T11:28:39.051Z</time>
      </trkpt>
      <trkpt lat="42.99217" lon="-0.00246">
        <ele>1728</ele>
        <time>2017-01-18T11:28:40.051Z</time>
      </trkpt>
      <trkpt lat="42.99216" lon="-0.00245">
        <ele>1728</ele>
        <time>2017-01-18T11:28:41.051Z</time>
      </trkpt>
      <trkpt lat="42.99216" lon="-0.00244">
        <ele>1728</ele>
        <time>2017-01-18T11:28:42.051Z</time>
      </trkpt>
      <trkpt lat="42.99216" lon="-0.00244">
        <ele>1728</ele>
        <time>2017-01-18T11:28:43.051Z</time>
      </trkpt>
      <trkpt lat="42.99216" lon="-0.00243">
        <ele>1728</ele>
        <time>2017-01-18T11:28:44.051Z</time>
      </trkpt>
      <trkpt lat="42.99216" lon="-0.00242">
        <ele>1728</ele>
        <time>2017-01-18T11:28:45.051Z</time>
      </trkpt>
      <trkpt lat="42.99215" lon="-0.00241">
        <ele>1728</ele>
        <time>2017-01-18T11:28:46.051Z</time>
      </trkpt>
      <trkpt lat="42.99215" lon="-0.0024">
        <ele>1728</ele>
        <time>2017-01-18T11:28:47.051Z</time>
      </trkpt>
      <trkpt lat="42.99215" lon="-0.00239">
        <ele>1729</ele>
        <time>2017-01-18T11:28:48.051Z</time>
      </trkpt>
      <trkpt lat="42.99215" lon="-0.00238">
        <ele>1729</ele>
        <time>2017-01-18T11:28:49.051Z</time>
      </trkpt>
      <trkpt lat="42.99215" lon="-0.00237">
        <ele>1729</ele>
        <time>2017-01-18T11:28:50.051Z</time>
      </trkpt>
      <trkpt lat="42.99215" lon="-0.00237">
        <ele>1728</ele>
        <time>2017-01-18T11:28:51.051Z</time>
      </trkpt>
      <trkpt lat="42.99214" lon="-0.00236">
        <ele>1729</ele>
        <time>2017-01-18T11:28:52.051Z</time>
      </trkpt>
      <trkpt lat="42.99214" lon="-0.00235">
        <ele>1729</ele>
        <time>2017-01-18T11:28:53.051Z</time>
      </trkpt>
      <trkpt lat="42.99214" lon="-0.00234">
        <ele>1729</ele>
        <time>2017-01-18T11:28:54.051Z</time>
      </trkpt>
      <trkpt lat="42.99214" lon="-0.00233">
        <ele>1729</ele>
        <time>2017-01-18T11:28:55.051Z</time>
      </trkpt>
      <trkpt lat="42.99214" lon="-0.00233">
        <ele>1729</ele>
        <time>2017-01-18T11:28:56.051Z</time>
      </trkpt>
      <trkpt lat="42.99214" lon="-0.00232">
        <ele>1729</ele>
        <time>2017-01-18T11:28:57.051Z</time>
      </trkpt>
      <trkpt lat="42.99214" lon="-0.00231">
        <ele>1729</ele>
        <time>2017-01-18T11:28:58.051Z</time>
      </trkpt>
      <trkpt lat="42.99213" lon="-0.0023">
        <ele>1729</ele>
        <time>2017-01-18T11:28:59.051Z</time>
      </trkpt>
      <trkpt lat="42.99213" lon="-0.00229">
        <ele>1729</ele>
        <time>2017-01-18T11:29:00.051Z</time>
      </trkpt>
      <trkpt lat="42.99213" lon="-0.00228">
        <ele>1729</ele>
        <time>2017-01-18T11:29:01.051Z</time>
      </trkpt>
      <trkpt lat="42.99213" lon="-0.00227">
        <ele>1729</ele>
        <time>2017-01-18T11:29:02.051Z</time>
      </trkpt>
      <trkpt lat="42.99213" lon="-0.00227">
        <ele>1729</ele>
        <time>2017-01-18T11:29:03.051Z</time>
      </trkpt>
      <trkpt lat="42.99213" lon="-0.00226">
        <ele>1729</ele>
        <time>2017-01-18T11:29:04.051Z</time>
      </trkpt>
      <trkpt lat="42.99213" lon="-0.00226">
        <ele>1729</ele>
        <time>2017-01-18T11:29:05.051Z</time>
      </trkpt>
      <trkpt lat="42.99213" lon="-0.00225">
        <ele>1729</ele>
        <time>2017-01-18T11:29:06.051Z</time>
      </trkpt>
      <trkpt lat="42.99213" lon="-0.00224">
        <ele>1729</ele>
        <time>2017-01-18T11:29:07.051Z</time>
      </trkpt>
      <trkpt lat="42.99212" lon="-0.00223">
        <ele>1729</ele>
        <time>2017-01-18T11:29:08.051Z</time>
      </trkpt>
      <trkpt lat="42.99212" lon="-0.00222">
        <ele>1729</ele>
        <time>2017-01-18T11:29:09.051Z</time>
      </trkpt>
      <trkpt lat="42.99212" lon="-0.00221">
        <ele>1729</ele>
        <time>2017-01-18T11:29:10.051Z</time>
      </trkpt>
      <trkpt lat="42.99212" lon="-0.00221">
        <ele>1729</ele>
        <time>2017-01-18T11:29:11.051Z</time>
      </trkpt>
      <trkpt lat="42.99212" lon="-0.0022">
        <ele>1729</ele>
        <time>2017-01-18T11:29:12.051Z</time>
      </trkpt>
      <trkpt lat="42.99212" lon="-0.00219">
        <ele>1729</ele>
        <time>2017-01-18T11:29:13.051Z</time>
      </trkpt>
      <trkpt lat="42.99212" lon="-0.00219">
        <ele>1729</ele>
        <time>2017-01-18T11:29:14.051Z</time>
      </trkpt>
      <trkpt lat="42.99212" lon="-0.00219">
        <ele>1729</ele>
        <time>2017-01-18T11:29:15.051Z</time>
      </trkpt>
      <trkpt lat="42.99212" lon="-0.00219">
        <ele>1728</ele>
        <time>2017-01-18T11:29:16.051Z</time>
      </trkpt>
      <trkpt lat="42.99212" lon="-0.00219">
        <ele>1729</ele>
        <time>2017-01-18T11:29:17.051Z</time>
      </trkpt>
      <trkpt lat="42.99212" lon="-0.00219">
        <ele>1729</ele>
        <time>2017-01-18T11:29:18.051Z</time>
      </trkpt>
      <trkpt lat="42.99212" lon="-0.0022">
        <ele>1729</ele>
        <time>2017-01-18T11:29:20.047Z</time>
      </trkpt>
      <trkpt lat="42.99212" lon="-0.0022">
        <ele>1730</ele>
        <time>2017-01-18T11:29:21.047Z</time>
      </trkpt>
      <trkpt lat="42.99212" lon="-0.0022">
        <ele>1730</ele>
        <time>2017-01-18T11:29:22.047Z</time>
      </trkpt>
      <trkpt lat="42.99212" lon="-0.0022">
        <ele>1730</ele>
        <time>2017-01-18T11:29:23.047Z</time>
      </trkpt>
      <trkpt lat="42.99211" lon="-0.0022">
        <ele>1730</ele>
        <time>2017-01-18T11:29:24.047Z</time>
      </trkpt>
      <trkpt lat="42.99211" lon="-0.0022">
        <ele>1730</ele>
        <time>2017-01-18T11:29:25.047Z</time>
      </trkpt>
      <trkpt lat="42.99212" lon="-0.0022">
        <ele>1729</ele>
        <time>2017-01-18T11:29:26.059Z</time>
      </trkpt>
      <trkpt lat="42.99212" lon="-0.0022">
        <ele>1729</ele>
        <time>2017-01-18T11:29:27.059Z</time>
      </trkpt>
      <trkpt lat="42.99212" lon="-0.0022">
        <ele>1729</ele>
        <time>2017-01-18T11:29:28.059Z</time>
      </trkpt>
      <trkpt lat="42.99212" lon="-0.0022">
        <ele>1729</ele>
        <time>2017-01-18T11:29:29.059Z</time>
      </trkpt>
      <trkpt lat="42.99212" lon="-0.0022">
        <ele>1729</ele>
        <time>2017-01-18T11:29:30.059Z</time>
      </trkpt>
      <trkpt lat="42.99212" lon="-0.0022">
        <ele>1729</ele>
        <time>2017-01-18T11:29:31.059Z</time>
      </trkpt>
      <trkpt lat="42.99211" lon="-0.00221">
        <ele>1729</ele>
        <time>2017-01-18T11:29:32.071Z</time>
      </trkpt>
      <trkpt lat="42.99211" lon="-0.00222">
        <ele>1729</ele>
        <time>2017-01-18T11:29:33.071Z</time>
      </trkpt>
      <trkpt lat="42.99211" lon="-0.00222">
        <ele>1729</ele>
        <time>2017-01-18T11:29:34.071Z</time>
      </trkpt>
      <trkpt lat="42.99211" lon="-0.00223">
        <ele>1729</ele>
        <time>2017-01-18T11:29:35.071Z</time>
      </trkpt>
      <trkpt lat="42.99211" lon="-0.00223">
        <ele>1729</ele>
        <time>2017-01-18T11:29:36.071Z</time>
      </trkpt>
      <trkpt lat="42.99211" lon="-0.00224">
        <ele>1729</ele>
        <time>2017-01-18T11:29:37.071Z</time>
      </trkpt>
      <trkpt lat="42.99211" lon="-0.00225">
        <ele>1729</ele>
        <time>2017-01-18T11:29:38.071Z</time>
      </trkpt>
      <trkpt lat="42.99211" lon="-0.00226">
        <ele>1729</ele>
        <time>2017-01-18T11:29:39.071Z</time>
      </trkpt>
      <trkpt lat="42.99211" lon="-0.00226">
        <ele>1728</ele>
        <time>2017-01-18T11:29:40.071Z</time>
      </trkpt>
      <trkpt lat="42.9921" lon="-0.00227">
        <ele>1728</ele>
        <time>2017-01-18T11:29:41.071Z</time>
      </trkpt>
      <trkpt lat="42.9921" lon="-0.00228">
        <ele>1728</ele>
        <time>2017-01-18T11:29:42.071Z</time>
      </trkpt>
      <trkpt lat="42.99209" lon="-0.00229">
        <ele>1728</ele>
        <time>2017-01-18T11:29:43.071Z</time>
      </trkpt>
      <trkpt lat="42.99209" lon="-0.00229">
        <ele>1728</ele>
        <time>2017-01-18T11:29:44.071Z</time>
      </trkpt>
      <trkpt lat="42.99208" lon="-0.0023">
        <ele>1728</ele>
        <time>2017-01-18T11:29:45.071Z</time>
      </trkpt>
      <trkpt lat="42.99207" lon="-0.00231">
        <ele>1728</ele>
        <time>2017-01-18T11:29:46.071Z</time>
      </trkpt>
      <trkpt lat="42.99207" lon="-0.00231">
        <ele>1728</ele>
        <time>2017-01-18T11:29:47.071Z</time>
      </trkpt>
      <trkpt lat="42.99206" lon="-0.00232">
        <ele>1728</ele>
        <time>2017-01-18T11:29:48.071Z</time>
      </trkpt>
      <trkpt lat="42.99205" lon="-0.00233">
        <ele>1728</ele>
        <time>2017-01-18T11:29:49.071Z</time>
      </trkpt>
      <trkpt lat="42.99204" lon="-0.00233">
        <ele>1727</ele>
        <time>2017-01-18T11:29:50.071Z</time>
      </trkpt>
      <trkpt lat="42.99204" lon="-0.00234">
        <ele>1727</ele>
        <time>2017-01-18T11:29:51.071Z</time>
      </trkpt>
      <trkpt lat="42.99203" lon="-0.00235">
        <ele>1727</ele>
        <time>2017-01-18T11:29:52.071Z</time>
      </trkpt>
      <trkpt lat="42.99203" lon="-0.00236">
        <ele>1727</ele>
        <time>2017-01-18T11:29:53.071Z</time>
      </trkpt>
      <trkpt lat="42.99202" lon="-0.00236">
        <ele>1727</ele>
        <time>2017-01-18T11:29:54.071Z</time>
      </trkpt>
      <trkpt lat="42.99202" lon="-0.00237">
        <ele>1727</ele>
        <time>2017-01-18T11:29:55.071Z</time>
      </trkpt>
      <trkpt lat="42.99201" lon="-0.00238">
        <ele>1727</ele>
        <time>2017-01-18T11:29:56.071Z</time>
      </trkpt>
      <trkpt lat="42.992" lon="-0.00239">
        <ele>1727</ele>
        <time>2017-01-18T11:29:57.071Z</time>
      </trkpt>
      <trkpt lat="42.992" lon="-0.0024">
        <ele>1727</ele>
        <time>2017-01-18T11:29:58.071Z</time>
      </trkpt>
      <trkpt lat="42.99199" lon="-0.00241">
        <ele>1726</ele>
        <time>2017-01-18T11:29:59.071Z</time>
      </trkpt>
      <trkpt lat="42.99199" lon="-0.00242">
        <ele>1726</ele>
        <time>2017-01-18T11:30:00.071Z</time>
      </trkpt>
      <trkpt lat="42.99198" lon="-0.00242">
        <ele>1726</ele>
        <time>2017-01-18T11:30:01.071Z</time>
      </trkpt>
      <trkpt lat="42.99198" lon="-0.00243">
        <ele>1725</ele>
        <time>2017-01-18T11:30:02.071Z</time>
      </trkpt>
      <trkpt lat="42.99197" lon="-0.00244">
        <ele>1725</ele>
        <time>2017-01-18T11:30:03.071Z</time>
      </trkpt>
      <trkpt lat="42.99197" lon="-0.00245">
        <ele>1725</ele>
        <time>2017-01-18T11:30:04.071Z</time>
      </trkpt>
      <trkpt lat="42.99196" lon="-0.00246">
        <ele>1725</ele>
        <time>2017-01-18T11:30:05.071Z</time>
      </trkpt>
      <trkpt lat="42.99196" lon="-0.00247">
        <ele>1725</ele>
        <time>2017-01-18T11:30:06.071Z</time>
      </trkpt>
      <trkpt lat="42.99195" lon="-0.00248">
        <ele>1725</ele>
        <time>2017-01-18T11:30:07.071Z</time>
      </trkpt>
      <trkpt lat="42.99195" lon="-0.00249">
        <ele>1725</ele>
        <time>2017-01-18T11:30:08.071Z</time>
      </trkpt>
      <trkpt lat="42.99195" lon="-0.0025">
        <ele>1724</ele>
        <time>2017-01-18T11:30:09.071Z</time>
      </trkpt>
      <trkpt lat="42.99194" lon="-0.00251">
        <ele>1724</ele>
        <time>2017-01-18T11:30:10.071Z</time>
      </trkpt>
      <trkpt lat="42.99194" lon="-0.00252">
        <ele>1724</ele>
        <time>2017-01-18T11:30:11.071Z</time>
      </trkpt>
      <trkpt lat="42.99193" lon="-0.00253">
        <ele>1724</ele>
        <time>2017-01-18T11:30:12.071Z</time>
      </trkpt>
      <trkpt lat="42.99193" lon="-0.00254">
        <ele>1723</ele>
        <time>2017-01-18T11:30:13.071Z</time>
      </trkpt>
      <trkpt lat="42.99193" lon="-0.00255">
        <ele>1723</ele>
        <time>2017-01-18T11:30:14.071Z</time>
      </trkpt>
      <trkpt lat="42.99192" lon="-0.00256">
        <ele>1723</ele>
        <time>2017-01-18T11:30:15.071Z</time>
      </trkpt>
      <trkpt lat="42.99192" lon="-0.00257">
        <ele>1723</ele>
        <time>2017-01-18T11:30:16.071Z</time>
      </trkpt>
      <trkpt lat="42.99191" lon="-0.00258">
        <ele>1723</ele>
        <time>2017-01-18T11:30:17.071Z</time>
      </trkpt>
      <trkpt lat="42.99191" lon="-0.00259">
        <ele>1723</ele>
        <time>2017-01-18T11:30:18.071Z</time>
      </trkpt>
      <trkpt lat="42.9919" lon="-0.0026">
        <ele>1723</ele>
        <time>2017-01-18T11:30:19.071Z</time>
      </trkpt>
      <trkpt lat="42.9919" lon="-0.00261">
        <ele>1723</ele>
        <time>2017-01-18T11:30:20.071Z</time>
      </trkpt>
      <trkpt lat="42.9919" lon="-0.00262">
        <ele>1723</ele>
        <time>2017-01-18T11:30:21.071Z</time>
      </trkpt>
      <trkpt lat="42.99189" lon="-0.00263">
        <ele>1722</ele>
        <time>2017-01-18T11:30:22.071Z</time>
      </trkpt>
      <trkpt lat="42.99189" lon="-0.00263">
        <ele>1722</ele>
        <time>2017-01-18T11:30:23.071Z</time>
      </trkpt>
      <trkpt lat="42.99188" lon="-0.00264">
        <ele>1722</ele>
        <time>2017-01-18T11:30:24.071Z</time>
      </trkpt>
      <trkpt lat="42.99188" lon="-0.00265">
        <ele>1722</ele>
        <time>2017-01-18T11:30:25.071Z</time>
      </trkpt>
      <trkpt lat="42.99187" lon="-0.00266">
        <ele>1722</ele>
        <time>2017-01-18T11:30:26.071Z</time>
      </trkpt>
      <trkpt lat="42.99187" lon="-0.00267">
        <ele>1722</ele>
        <time>2017-01-18T11:30:27.071Z</time>
      </trkpt>
      <trkpt lat="42.99186" lon="-0.00268">
        <ele>1722</ele>
        <time>2017-01-18T11:30:28.071Z</time>
      </trkpt>
      <trkpt lat="42.99186" lon="-0.00269">
        <ele>1722</ele>
        <time>2017-01-18T11:30:29.071Z</time>
      </trkpt>
      <trkpt lat="42.99185" lon="-0.0027">
        <ele>1722</ele>
        <time>2017-01-18T11:30:30.071Z</time>
      </trkpt>
      <trkpt lat="42.99185" lon="-0.0027">
        <ele>1722</ele>
        <time>2017-01-18T11:30:31.071Z</time>
      </trkpt>
      <trkpt lat="42.99184" lon="-0.00271">
        <ele>1722</ele>
        <time>2017-01-18T11:30:32.071Z</time>
      </trkpt>
      <trkpt lat="42.99184" lon="-0.00272">
        <ele>1721</ele>
        <time>2017-01-18T11:30:33.071Z</time>
      </trkpt>
      <trkpt lat="42.99183" lon="-0.00273">
        <ele>1721</ele>
        <time>2017-01-18T11:30:34.071Z</time>
      </trkpt>
      <trkpt lat="42.99183" lon="-0.00274">
        <ele>1721</ele>
        <time>2017-01-18T11:30:35.071Z</time>
      </trkpt>
      <trkpt lat="42.99182" lon="-0.00274">
        <ele>1721</ele>
        <time>2017-01-18T11:30:36.071Z</time>
      </trkpt>
      <trkpt lat="42.99182" lon="-0.00275">
        <ele>1721</ele>
        <time>2017-01-18T11:30:37.071Z</time>
      </trkpt>
      <trkpt lat="42.99181" lon="-0.00276">
        <ele>1720</ele>
        <time>2017-01-18T11:30:38.071Z</time>
      </trkpt>
      <trkpt lat="42.99181" lon="-0.00277">
        <ele>1720</ele>
        <time>2017-01-18T11:30:39.071Z</time>
      </trkpt>
      <trkpt lat="42.9918" lon="-0.00278">
        <ele>1720</ele>
        <time>2017-01-18T11:30:40.071Z</time>
      </trkpt>
      <trkpt lat="42.9918" lon="-0.00279">
        <ele>1720</ele>
        <time>2017-01-18T11:30:41.071Z</time>
      </trkpt>
      <trkpt lat="42.9918" lon="-0.0028">
        <ele>1720</ele>
        <time>2017-01-18T11:30:42.071Z</time>
      </trkpt>
      <trkpt lat="42.99179" lon="-0.00281">
        <ele>1719</ele>
        <time>2017-01-18T11:30:43.071Z</time>
      </trkpt>
      <trkpt lat="42.99179" lon="-0.00281">
        <ele>1719</ele>
        <time>2017-01-18T11:30:44.071Z</time>
      </trkpt>
      <trkpt lat="42.99178" lon="-0.00282">
        <ele>1719</ele>
        <time>2017-01-18T11:30:45.071Z</time>
      </trkpt>
      <trkpt lat="42.99178" lon="-0.00283">
        <ele>1719</ele>
        <time>2017-01-18T11:30:46.071Z</time>
      </trkpt>
      <trkpt lat="42.99177" lon="-0.00284">
        <ele>1719</ele>
        <time>2017-01-18T11:30:47.071Z</time>
      </trkpt>
      <trkpt lat="42.99177" lon="-0.00284">
        <ele>1719</ele>
        <time>2017-01-18T11:30:48.071Z</time>
      </trkpt>
      <trkpt lat="42.99176" lon="-0.00285">
        <ele>1719</ele>
        <time>2017-01-18T11:30:49.071Z</time>
      </trkpt>
      <trkpt lat="42.99176" lon="-0.00286">
        <ele>1719</ele>
        <time>2017-01-18T11:30:50.071Z</time>
      </trkpt>
      <trkpt lat="42.99175" lon="-0.00287">
        <ele>1719</ele>
        <time>2017-01-18T11:30:51.071Z</time>
      </trkpt>
      <trkpt lat="42.99175" lon="-0.00288">
        <ele>1718</ele>
        <time>2017-01-18T11:30:52.071Z</time>
      </trkpt>
      <trkpt lat="42.99174" lon="-0.00289">
        <ele>1718</ele>
        <time>2017-01-18T11:30:53.071Z</time>
      </trkpt>
      <trkpt lat="42.99174" lon="-0.00289">
        <ele>1718</ele>
        <time>2017-01-18T11:30:54.071Z</time>
      </trkpt>
      <trkpt lat="42.99173" lon="-0.0029">
        <ele>1718</ele>
        <time>2017-01-18T11:30:55.071Z</time>
      </trkpt>
      <trkpt lat="42.99173" lon="-0.00291">
        <ele>1718</ele>
        <time>2017-01-18T11:30:56.071Z</time>
      </trkpt>
      <trkpt lat="42.99172" lon="-0.00292">
        <ele>1718</ele>
        <time>2017-01-18T11:30:57.071Z</time>
      </trkpt>
      <trkpt lat="42.99172" lon="-0.00293">
        <ele>1718</ele>
        <time>2017-01-18T11:30:58.071Z</time>
      </trkpt>
      <trkpt lat="42.99172" lon="-0.00294">
        <ele>1717</ele>
        <time>2017-01-18T11:30:59.071Z</time>
      </trkpt>
      <trkpt lat="42.99171" lon="-0.00295">
        <ele>1717</ele>
        <time>2017-01-18T11:31:00.071Z</time>
      </trkpt>
      <trkpt lat="42.99171" lon="-0.00296">
        <ele>1717</ele>
        <time>2017-01-18T11:31:01.071Z</time>
      </trkpt>
      <trkpt lat="42.9917" lon="-0.00297">
        <ele>1717</ele>
        <time>2017-01-18T11:31:02.071Z</time>
      </trkpt>
      <trkpt lat="42.9917" lon="-0.00298">
        <ele>1717</ele>
        <time>2017-01-18T11:31:03.071Z</time>
      </trkpt>
      <trkpt lat="42.9917" lon="-0.00299">
        <ele>1717</ele>
        <time>2017-01-18T11:31:04.071Z</time>
      </trkpt>
      <trkpt lat="42.9917" lon="-0.003">
        <ele>1716</ele>
        <time>2017-01-18T11:31:05.071Z</time>
      </trkpt>
      <trkpt lat="42.9917" lon="-0.00301">
        <ele>1716</ele>
        <time>2017-01-18T11:31:06.071Z</time>
      </trkpt>
      <trkpt lat="42.99169" lon="-0.00302">
        <ele>1716</ele>
        <time>2017-01-18T11:31:07.071Z</time>
      </trkpt>
      <trkpt lat="42.99169" lon="-0.00303">
        <ele>1716</ele>
        <time>2017-01-18T11:31:08.071Z</time>
      </trkpt>
      <trkpt lat="42.99169" lon="-0.00304">
        <ele>1716</ele>
        <time>2017-01-18T11:31:09.071Z</time>
      </trkpt>
      <trkpt lat="42.99168" lon="-0.00305">
        <ele>1716</ele>
        <time>2017-01-18T11:31:10.071Z</time>
      </trkpt>
      <trkpt lat="42.99168" lon="-0.00306">
        <ele>1715</ele>
        <time>2017-01-18T11:31:11.071Z</time>
      </trkpt>
      <trkpt lat="42.99168" lon="-0.00307">
        <ele>1715</ele>
        <time>2017-01-18T11:31:12.071Z</time>
      </trkpt>
      <trkpt lat="42.99167" lon="-0.00308">
        <ele>1715</ele>
        <time>2017-01-18T11:31:13.071Z</time>
      </trkpt>
      <trkpt lat="42.99167" lon="-0.00309">
        <ele>1715</ele>
        <time>2017-01-18T11:31:14.071Z</time>
      </trkpt>
      <trkpt lat="42.99167" lon="-0.0031">
        <ele>1715</ele>
        <time>2017-01-18T11:31:15.071Z</time>
      </trkpt>
      <trkpt lat="42.99166" lon="-0.0031">
        <ele>1715</ele>
        <time>2017-01-18T11:31:16.071Z</time>
      </trkpt>
      <trkpt lat="42.99166" lon="-0.00311">
        <ele>1715</ele>
        <time>2017-01-18T11:31:17.071Z</time>
      </trkpt>
      <trkpt lat="42.99166" lon="-0.00312">
        <ele>1715</ele>
        <time>2017-01-18T11:31:18.071Z</time>
      </trkpt>
      <trkpt lat="42.99165" lon="-0.00313">
        <ele>1715</ele>
        <time>2017-01-18T11:31:19.071Z</time>
      </trkpt>
      <trkpt lat="42.99165" lon="-0.00314">
        <ele>1715</ele>
        <time>2017-01-18T11:31:20.071Z</time>
      </trkpt>
      <trkpt lat="42.99165" lon="-0.00315">
        <ele>1714</ele>
        <time>2017-01-18T11:31:21.071Z</time>
      </trkpt>
      <trkpt lat="42.99164" lon="-0.00315">
        <ele>1714</ele>
        <time>2017-01-18T11:31:22.071Z</time>
      </trkpt>
      <trkpt lat="42.99164" lon="-0.00316">
        <ele>1714</ele>
        <time>2017-01-18T11:31:23.071Z</time>
      </trkpt>
      <trkpt lat="42.99163" lon="-0.00317">
        <ele>1714</ele>
        <time>2017-01-18T11:31:24.071Z</time>
      </trkpt>
      <trkpt lat="42.99163" lon="-0.00318">
        <ele>1713</ele>
        <time>2017-01-18T11:31:25.071Z</time>
      </trkpt>
      <trkpt lat="42.99163" lon="-0.00319">
        <ele>1713</ele>
        <time>2017-01-18T11:31:26.071Z</time>
      </trkpt>
      <trkpt lat="42.99163" lon="-0.0032">
        <ele>1713</ele>
        <time>2017-01-18T11:31:27.071Z</time>
      </trkpt>
      <trkpt lat="42.99162" lon="-0.00321">
        <ele>1713</ele>
        <time>2017-01-18T11:31:28.071Z</time>
      </trkpt>
      <trkpt lat="42.99162" lon="-0.00321">
        <ele>1713</ele>
        <time>2017-01-18T11:31:29.071Z</time>
      </trkpt>
      <trkpt lat="42.99162" lon="-0.00322">
        <ele>1713</ele>
        <time>2017-01-18T11:31:30.071Z</time>
      </trkpt>
      <trkpt lat="42.99161" lon="-0.00323">
        <ele>1712</ele>
        <time>2017-01-18T11:31:31.071Z</time>
      </trkpt>
      <trkpt lat="42.99161" lon="-0.00324">
        <ele>1712</ele>
        <time>2017-01-18T11:31:32.071Z</time>
      </trkpt>
      <trkpt lat="42.99161" lon="-0.00325">
        <ele>1712</ele>
        <time>2017-01-18T11:31:33.071Z</time>
      </trkpt>
      <trkpt lat="42.99161" lon="-0.00326">
        <ele>1712</ele>
        <time>2017-01-18T11:31:34.071Z</time>
      </trkpt>
      <trkpt lat="42.9916" lon="-0.00327">
        <ele>1711</ele>
        <time>2017-01-18T11:31:35.071Z</time>
      </trkpt>
      <trkpt lat="42.9916" lon="-0.00328">
        <ele>1711</ele>
        <time>2017-01-18T11:31:36.071Z</time>
      </trkpt>
      <trkpt lat="42.9916" lon="-0.00329">
        <ele>1711</ele>
        <time>2017-01-18T11:31:37.071Z</time>
      </trkpt>
      <trkpt lat="42.99159" lon="-0.0033">
        <ele>1711</ele>
        <time>2017-01-18T11:31:38.071Z</time>
      </trkpt>
      <trkpt lat="42.99159" lon="-0.00331">
        <ele>1711</ele>
        <time>2017-01-18T11:31:39.071Z</time>
      </trkpt>
      <trkpt lat="42.99159" lon="-0.00332">
        <ele>1711</ele>
        <time>2017-01-18T11:31:40.071Z</time>
      </trkpt>
      <trkpt lat="42.99159" lon="-0.00333">
        <ele>1711</ele>
        <time>2017-01-18T11:31:41.071Z</time>
      </trkpt>
      <trkpt lat="42.99159" lon="-0.00334">
        <ele>1710</ele>
        <time>2017-01-18T11:31:42.071Z</time>
      </trkpt>
      <trkpt lat="42.99159" lon="-0.00335">
        <ele>1710</ele>
        <time>2017-01-18T11:31:43.071Z</time>
      </trkpt>
      <trkpt lat="42.99159" lon="-0.00336">
        <ele>1710</ele>
        <time>2017-01-18T11:31:44.071Z</time>
      </trkpt>
      <trkpt lat="42.99158" lon="-0.00336">
        <ele>1710</ele>
        <time>2017-01-18T11:31:45.071Z</time>
      </trkpt>
      <trkpt lat="42.99158" lon="-0.00337">
        <ele>1710</ele>
        <time>2017-01-18T11:31:46.071Z</time>
      </trkpt>
      <trkpt lat="42.99158" lon="-0.00338">
        <ele>1710</ele>
        <time>2017-01-18T11:31:47.071Z</time>
      </trkpt>
      <trkpt lat="42.99158" lon="-0.00339">
        <ele>1709</ele>
        <time>2017-01-18T11:31:48.071Z</time>
      </trkpt>
      <trkpt lat="42.99158" lon="-0.0034">
        <ele>1709</ele>
        <time>2017-01-18T11:31:49.071Z</time>
      </trkpt>
      <trkpt lat="42.99158" lon="-0.00341">
        <ele>1709</ele>
        <time>2017-01-18T11:31:50.071Z</time>
      </trkpt>
      <trkpt lat="42.99158" lon="-0.00342">
        <ele>1709</ele>
        <time>2017-01-18T11:31:51.071Z</time>
      </trkpt>
      <trkpt lat="42.99158" lon="-0.00343">
        <ele>1708</ele>
        <time>2017-01-18T11:31:52.071Z</time>
      </trkpt>
      <trkpt lat="42.99158" lon="-0.00344">
        <ele>1709</ele>
        <time>2017-01-18T11:31:53.071Z</time>
      </trkpt>
      <trkpt lat="42.99157" lon="-0.00345">
        <ele>1709</ele>
        <time>2017-01-18T11:31:54.071Z</time>
      </trkpt>
      <trkpt lat="42.99157" lon="-0.00346">
        <ele>1708</ele>
        <time>2017-01-18T11:31:55.071Z</time>
      </trkpt>
      <trkpt lat="42.99157" lon="-0.00347">
        <ele>1708</ele>
        <time>2017-01-18T11:31:56.071Z</time>
      </trkpt>
      <trkpt lat="42.99157" lon="-0.00347">
        <ele>1708</ele>
        <time>2017-01-18T11:31:57.071Z</time>
      </trkpt>
      <trkpt lat="42.99157" lon="-0.00348">
        <ele>1708</ele>
        <time>2017-01-18T11:31:58.071Z</time>
      </trkpt>
      <trkpt lat="42.99157" lon="-0.00349">
        <ele>1708</ele>
        <time>2017-01-18T11:31:59.071Z</time>
      </trkpt>
      <trkpt lat="42.99157" lon="-0.0035">
        <ele>1707</ele>
        <time>2017-01-18T11:32:00.071Z</time>
      </trkpt>
      <trkpt lat="42.99157" lon="-0.00351">
        <ele>1707</ele>
        <time>2017-01-18T11:32:01.071Z</time>
      </trkpt>
      <trkpt lat="42.99156" lon="-0.00352">
        <ele>1707</ele>
        <time>2017-01-18T11:32:02.071Z</time>
      </trkpt>
      <trkpt lat="42.99156" lon="-0.00353">
        <ele>1707</ele>
        <time>2017-01-18T11:32:03.071Z</time>
      </trkpt>
      <trkpt lat="42.99156" lon="-0.00353">
        <ele>1707</ele>
        <time>2017-01-18T11:32:04.071Z</time>
      </trkpt>
      <trkpt lat="42.99155" lon="-0.00354">
        <ele>1707</ele>
        <time>2017-01-18T11:32:05.071Z</time>
      </trkpt>
      <trkpt lat="42.99155" lon="-0.00355">
        <ele>1707</ele>
        <time>2017-01-18T11:32:06.071Z</time>
      </trkpt>
      <trkpt lat="42.99155" lon="-0.00356">
        <ele>1706</ele>
        <time>2017-01-18T11:32:07.071Z</time>
      </trkpt>
      <trkpt lat="42.99155" lon="-0.00357">
        <ele>1706</ele>
        <time>2017-01-18T11:32:08.071Z</time>
      </trkpt>
      <trkpt lat="42.99154" lon="-0.00358">
        <ele>1706</ele>
        <time>2017-01-18T11:32:09.071Z</time>
      </trkpt>
      <trkpt lat="42.99154" lon="-0.00359">
        <ele>1706</ele>
        <time>2017-01-18T11:32:10.071Z</time>
      </trkpt>
      <trkpt lat="42.99154" lon="-0.00359">
        <ele>1705</ele>
        <time>2017-01-18T11:32:11.071Z</time>
      </trkpt>
      <trkpt lat="42.99154" lon="-0.0036">
        <ele>1705</ele>
        <time>2017-01-18T11:32:12.071Z</time>
      </trkpt>
      <trkpt lat="42.99153" lon="-0.00361">
        <ele>1705</ele>
        <time>2017-01-18T11:32:13.071Z</time>
      </trkpt>
      <trkpt lat="42.99153" lon="-0.00362">
        <ele>1704</ele>
        <time>2017-01-18T11:32:14.071Z</time>
      </trkpt>
      <trkpt lat="42.99153" lon="-0.00363">
        <ele>1704</ele>
        <time>2017-01-18T11:32:15.071Z</time>
      </trkpt>
      <trkpt lat="42.99153" lon="-0.00364">
        <ele>1704</ele>
        <time>2017-01-18T11:32:16.071Z</time>
      </trkpt>
      <trkpt lat="42.99153" lon="-0.00365">
        <ele>1704</ele>
        <time>2017-01-18T11:32:17.071Z</time>
      </trkpt>
      <trkpt lat="42.99152" lon="-0.00366">
        <ele>1704</ele>
        <time>2017-01-18T11:32:18.071Z</time>
      </trkpt>
      <trkpt lat="42.99152" lon="-0.00367">
        <ele>1703</ele>
        <time>2017-01-18T11:32:19.071Z</time>
      </trkpt>
      <trkpt lat="42.99152" lon="-0.00367">
        <ele>1703</ele>
        <time>2017-01-18T11:32:20.071Z</time>
      </trkpt>
      <trkpt lat="42.99152" lon="-0.00368">
        <ele>1703</ele>
        <time>2017-01-18T11:32:21.071Z</time>
      </trkpt>
      <trkpt lat="42.99152" lon="-0.00369">
        <ele>1703</ele>
        <time>2017-01-18T11:32:22.071Z</time>
      </trkpt>
      <trkpt lat="42.99151" lon="-0.0037">
        <ele>1702</ele>
        <time>2017-01-18T11:32:23.071Z</time>
      </trkpt>
      <trkpt lat="42.99151" lon="-0.0037">
        <ele>1702</ele>
        <time>2017-01-18T11:32:24.071Z</time>
      </trkpt>
      <trkpt lat="42.99151" lon="-0.00371">
        <ele>1702</ele>
        <time>2017-01-18T11:32:25.071Z</time>
      </trkpt>
      <trkpt lat="42.9915" lon="-0.00372">
        <ele>1702</ele>
        <time>2017-01-18T11:32:26.071Z</time>
      </trkpt>
      <trkpt lat="42.9915" lon="-0.00372">
        <ele>1702</ele>
        <time>2017-01-18T11:32:27.071Z</time>
      </trkpt>
      <trkpt lat="42.9915" lon="-0.00373">
        <ele>1702</ele>
        <time>2017-01-18T11:32:28.071Z</time>
      </trkpt>
      <trkpt lat="42.99149" lon="-0.00374">
        <ele>1702</ele>
        <time>2017-01-18T11:32:29.071Z</time>
      </trkpt>
      <trkpt lat="42.99149" lon="-0.00374">
        <ele>1701</ele>
        <time>2017-01-18T11:32:30.071Z</time>
      </trkpt>
      <trkpt lat="42.99149" lon="-0.00375">
        <ele>1701</ele>
        <time>2017-01-18T11:32:31.071Z</time>
      </trkpt>
      <trkpt lat="42.99149" lon="-0.00376">
        <ele>1701</ele>
        <time>2017-01-18T11:32:32.071Z</time>
      </trkpt>
      <trkpt lat="42.99148" lon="-0.00376">
        <ele>1701</ele>
        <time>2017-01-18T11:32:33.071Z</time>
      </trkpt>
      <trkpt lat="42.99148" lon="-0.00377">
        <ele>1701</ele>
        <time>2017-01-18T11:32:34.071Z</time>
      </trkpt>
      <trkpt lat="42.99147" lon="-0.00378">
        <ele>1700</ele>
        <time>2017-01-18T11:32:35.071Z</time>
      </trkpt>
      <trkpt lat="42.99147" lon="-0.00378">
        <ele>1700</ele>
        <time>2017-01-18T11:32:36.071Z</time>
      </trkpt>
      <trkpt lat="42.99146" lon="-0.00379">
        <ele>1700</ele>
        <time>2017-01-18T11:32:37.071Z</time>
      </trkpt>
      <trkpt lat="42.99146" lon="-0.0038">
        <ele>1700</ele>
        <time>2017-01-18T11:32:38.071Z</time>
      </trkpt>
      <trkpt lat="42.99146" lon="-0.0038">
        <ele>1700</ele>
        <time>2017-01-18T11:32:39.071Z</time>
      </trkpt>
      <trkpt lat="42.99145" lon="-0.00381">
        <ele>1699</ele>
        <time>2017-01-18T11:32:40.071Z</time>
      </trkpt>
      <trkpt lat="42.99145" lon="-0.00382">
        <ele>1699</ele>
        <time>2017-01-18T11:32:41.071Z</time>
      </trkpt>
      <trkpt lat="42.99145" lon="-0.00383">
        <ele>1699</ele>
        <time>2017-01-18T11:32:42.071Z</time>
      </trkpt>
      <trkpt lat="42.99144" lon="-0.00383">
        <ele>1699</ele>
        <time>2017-01-18T11:32:43.071Z</time>
      </trkpt>
      <trkpt lat="42.99144" lon="-0.00384">
        <ele>1699</ele>
        <time>2017-01-18T11:32:44.071Z</time>
      </trkpt>
      <trkpt lat="42.99143" lon="-0.00384">
        <ele>1699</ele>
        <time>2017-01-18T11:32:45.071Z</time>
      </trkpt>
      <trkpt lat="42.99143" lon="-0.00385">
        <ele>1699</ele>
        <time>2017-01-18T11:32:46.071Z</time>
      </trkpt>
      <trkpt lat="42.99142" lon="-0.00386">
        <ele>1699</ele>
        <time>2017-01-18T11:32:47.071Z</time>
      </trkpt>
      <trkpt lat="42.99142" lon="-0.00386">
        <ele>1698</ele>
        <time>2017-01-18T11:32:48.071Z</time>
      </trkpt>
      <trkpt lat="42.99142" lon="-0.00387">
        <ele>1699</ele>
        <time>2017-01-18T11:32:49.071Z</time>
      </trkpt>
      <trkpt lat="42.99141" lon="-0.00387">
        <ele>1698</ele>
        <time>2017-01-18T11:32:50.071Z</time>
      </trkpt>
      <trkpt lat="42.99141" lon="-0.00388">
        <ele>1698</ele>
        <time>2017-01-18T11:32:51.071Z</time>
      </trkpt>
      <trkpt lat="42.9914" lon="-0.00388">
        <ele>1698</ele>
        <time>2017-01-18T11:32:52.071Z</time>
      </trkpt>
      <trkpt lat="42.9914" lon="-0.00389">
        <ele>1698</ele>
        <time>2017-01-18T11:32:53.071Z</time>
      </trkpt>
      <trkpt lat="42.9914" lon="-0.00389">
        <ele>1698</ele>
        <time>2017-01-18T11:32:54.071Z</time>
      </trkpt>
      <trkpt lat="42.99139" lon="-0.0039">
        <ele>1698</ele>
        <time>2017-01-18T11:32:55.071Z</time>
      </trkpt>
      <trkpt lat="42.99139" lon="-0.0039">
        <ele>1698</ele>
        <time>2017-01-18T11:32:56.071Z</time>
      </trkpt>
      <trkpt lat="42.99138" lon="-0.00391">
        <ele>1698</ele>
        <time>2017-01-18T11:32:57.071Z</time>
      </trkpt>
      <trkpt lat="42.99138" lon="-0.00391">
        <ele>1698</ele>
        <time>2017-01-18T11:32:58.071Z</time>
      </trkpt>
      <trkpt lat="42.99137" lon="-0.00392">
        <ele>1697</ele>
        <time>2017-01-18T11:32:59.071Z</time>
      </trkpt>
      <trkpt lat="42.99137" lon="-0.00392">
        <ele>1697</ele>
        <time>2017-01-18T11:33:00.071Z</time>
      </trkpt>
      <trkpt lat="42.99137" lon="-0.00393">
        <ele>1697</ele>
        <time>2017-01-18T11:33:01.071Z</time>
      </trkpt>
      <trkpt lat="42.99136" lon="-0.00394">
        <ele>1697</ele>
        <time>2017-01-18T11:33:02.071Z</time>
      </trkpt>
      <trkpt lat="42.99136" lon="-0.00394">
        <ele>1697</ele>
        <time>2017-01-18T11:33:03.071Z</time>
      </trkpt>
      <trkpt lat="42.99135" lon="-0.00395">
        <ele>1697</ele>
        <time>2017-01-18T11:33:04.071Z</time>
      </trkpt>
      <trkpt lat="42.99135" lon="-0.00395">
        <ele>1696</ele>
        <time>2017-01-18T11:33:05.071Z</time>
      </trkpt>
      <trkpt lat="42.99134" lon="-0.00396">
        <ele>1696</ele>
        <time>2017-01-18T11:33:06.071Z</time>
      </trkpt>
      <trkpt lat="42.99134" lon="-0.00397">
        <ele>1696</ele>
        <time>2017-01-18T11:33:07.071Z</time>
      </trkpt>
      <trkpt lat="42.99133" lon="-0.00397">
        <ele>1696</ele>
        <time>2017-01-18T11:33:08.071Z</time>
      </trkpt>
      <trkpt lat="42.99133" lon="-0.00398">
        <ele>1696</ele>
        <time>2017-01-18T11:33:09.071Z</time>
      </trkpt>
      <trkpt lat="42.99132" lon="-0.00398">
        <ele>1696</ele>
        <time>2017-01-18T11:33:10.071Z</time>
      </trkpt>
      <trkpt lat="42.99132" lon="-0.00399">
        <ele>1695</ele>
        <time>2017-01-18T11:33:11.071Z</time>
      </trkpt>
      <trkpt lat="42.99131" lon="-0.00399">
        <ele>1695</ele>
        <time>2017-01-18T11:33:12.071Z</time>
      </trkpt>
      <trkpt lat="42.99131" lon="-0.004">
        <ele>1695</ele>
        <time>2017-01-18T11:33:13.071Z</time>
      </trkpt>
      <trkpt lat="42.99131" lon="-0.004">
        <ele>1695</ele>
        <time>2017-01-18T11:33:14.071Z</time>
      </trkpt>
      <trkpt lat="42.9913" lon="-0.00401">
        <ele>1695</ele>
        <time>2017-01-18T11:33:15.071Z</time>
      </trkpt>
      <trkpt lat="42.9913" lon="-0.00401">
        <ele>1695</ele>
        <time>2017-01-18T11:33:16.071Z</time>
      </trkpt>
      <trkpt lat="42.99129" lon="-0.00402">
        <ele>1694</ele>
        <time>2017-01-18T11:33:17.071Z</time>
      </trkpt>
      <trkpt lat="42.99129" lon="-0.00403">
        <ele>1694</ele>
        <time>2017-01-18T11:33:18.071Z</time>
      </trkpt>
      <trkpt lat="42.99128" lon="-0.00403">
        <ele>1694</ele>
        <time>2017-01-18T11:33:19.071Z</time>
      </trkpt>
      <trkpt lat="42.99128" lon="-0.00404">
        <ele>1694</ele>
        <time>2017-01-18T11:33:20.071Z</time>
      </trkpt>
      <trkpt lat="42.99127" lon="-0.00405">
        <ele>1694</ele>
        <time>2017-01-18T11:33:21.071Z</time>
      </trkpt>
      <trkpt lat="42.99127" lon="-0.00405">
        <ele>1694</ele>
        <time>2017-01-18T11:33:22.071Z</time>
      </trkpt>
      <trkpt lat="42.99126" lon="-0.00406">
        <ele>1693</ele>
        <time>2017-01-18T11:33:23.071Z</time>
      </trkpt>
      <trkpt lat="42.99126" lon="-0.00406">
        <ele>1693</ele>
        <time>2017-01-18T11:33:24.071Z</time>
      </trkpt>
      <trkpt lat="42.99125" lon="-0.00407">
        <ele>1693</ele>
        <time>2017-01-18T11:33:25.071Z</time>
      </trkpt>
      <trkpt lat="42.99125" lon="-0.00408">
        <ele>1693</ele>
        <time>2017-01-18T11:33:26.071Z</time>
      </trkpt>
      <trkpt lat="42.99125" lon="-0.00408">
        <ele>1693</ele>
        <time>2017-01-18T11:33:27.071Z</time>
      </trkpt>
      <trkpt lat="42.99124" lon="-0.00409">
        <ele>1692</ele>
        <time>2017-01-18T11:33:28.071Z</time>
      </trkpt>
      <trkpt lat="42.99124" lon="-0.00409">
        <ele>1692</ele>
        <time>2017-01-18T11:33:29.071Z</time>
      </trkpt>
      <trkpt lat="42.99123" lon="-0.0041">
        <ele>1692</ele>
        <time>2017-01-18T11:33:30.071Z</time>
      </trkpt>
      <trkpt lat="42.99123" lon="-0.00411">
        <ele>1692</ele>
        <time>2017-01-18T11:33:31.071Z</time>
      </trkpt>
      <trkpt lat="42.99123" lon="-0.00411">
        <ele>1692</ele>
        <time>2017-01-18T11:33:32.071Z</time>
      </trkpt>
      <trkpt lat="42.99122" lon="-0.00411">
        <ele>1691</ele>
        <time>2017-01-18T11:33:33.071Z</time>
      </trkpt>
      <trkpt lat="42.99122" lon="-0.00412">
        <ele>1691</ele>
        <time>2017-01-18T11:33:34.071Z</time>
      </trkpt>
      <trkpt lat="42.99121" lon="-0.00412">
        <ele>1691</ele>
        <time>2017-01-18T11:33:35.071Z</time>
      </trkpt>
      <trkpt lat="42.99121" lon="-0.00413">
        <ele>1691</ele>
        <time>2017-01-18T11:33:36.071Z</time>
      </trkpt>
      <trkpt lat="42.9912" lon="-0.00413">
        <ele>1691</ele>
        <time>2017-01-18T11:33:37.071Z</time>
      </trkpt>
      <trkpt lat="42.9912" lon="-0.00414">
        <ele>1691</ele>
        <time>2017-01-18T11:33:38.071Z</time>
      </trkpt>
      <trkpt lat="42.99119" lon="-0.00415">
        <ele>1690</ele>
        <time>2017-01-18T11:33:39.071Z</time>
      </trkpt>
      <trkpt lat="42.99119" lon="-0.00415">
        <ele>1690</ele>
        <time>2017-01-18T11:33:40.071Z</time>
      </trkpt>
      <trkpt lat="42.99118" lon="-0.00415">
        <ele>1690</ele>
        <time>2017-01-18T11:33:41.071Z</time>
      </trkpt>
      <trkpt lat="42.99118" lon="-0.00415">
        <ele>1690</ele>
        <time>2017-01-18T11:33:42.071Z</time>
      </trkpt>
      <trkpt lat="42.99117" lon="-0.00416">
        <ele>1690</ele>
        <time>2017-01-18T11:33:43.071Z</time>
      </trkpt>
      <trkpt lat="42.99117" lon="-0.00416">
        <ele>1690</ele>
        <time>2017-01-18T11:33:44.071Z</time>
      </trkpt>
      <trkpt lat="42.99116" lon="-0.00417">
        <ele>1689</ele>
        <time>2017-01-18T11:33:45.071Z</time>
      </trkpt>
      <trkpt lat="42.99116" lon="-0.00417">
        <ele>1689</ele>
        <time>2017-01-18T11:33:46.071Z</time>
      </trkpt>
      <trkpt lat="42.99115" lon="-0.00418">
        <ele>1689</ele>
        <time>2017-01-18T11:33:47.071Z</time>
      </trkpt>
      <trkpt lat="42.99115" lon="-0.00419">
        <ele>1689</ele>
        <time>2017-01-18T11:33:48.071Z</time>
      </trkpt>
      <trkpt lat="42.99115" lon="-0.00419">
        <ele>1689</ele>
        <time>2017-01-18T11:33:49.071Z</time>
      </trkpt>
      <trkpt lat="42.99114" lon="-0.0042">
        <ele>1689</ele>
        <time>2017-01-18T11:33:50.071Z</time>
      </trkpt>
      <trkpt lat="42.99114" lon="-0.0042">
        <ele>1689</ele>
        <time>2017-01-18T11:33:51.071Z</time>
      </trkpt>
      <trkpt lat="42.99113" lon="-0.0042">
        <ele>1689</ele>
        <time>2017-01-18T11:33:52.071Z</time>
      </trkpt>
      <trkpt lat="42.99113" lon="-0.00421">
        <ele>1688</ele>
        <time>2017-01-18T11:33:53.071Z</time>
      </trkpt>
      <trkpt lat="42.99113" lon="-0.00421">
        <ele>1688</ele>
        <time>2017-01-18T11:33:54.071Z</time>
      </trkpt>
      <trkpt lat="42.99112" lon="-0.00422">
        <ele>1688</ele>
        <time>2017-01-18T11:33:55.071Z</time>
      </trkpt>
      <trkpt lat="42.99112" lon="-0.00422">
        <ele>1688</ele>
        <time>2017-01-18T11:33:56.071Z</time>
      </trkpt>
      <trkpt lat="42.99112" lon="-0.00422">
        <ele>1688</ele>
        <time>2017-01-18T11:33:57.071Z</time>
      </trkpt>
      <trkpt lat="42.99111" lon="-0.00423">
        <ele>1687</ele>
        <time>2017-01-18T11:33:58.071Z</time>
      </trkpt>
      <trkpt lat="42.99111" lon="-0.00423">
        <ele>1687</ele>
        <time>2017-01-18T11:33:59.071Z</time>
      </trkpt>
      <trkpt lat="42.99111" lon="-0.00424">
        <ele>1687</ele>
        <time>2017-01-18T11:34:00.071Z</time>
      </trkpt>
      <trkpt lat="42.99111" lon="-0.00424">
        <ele>1687</ele>
        <time>2017-01-18T11:34:01.071Z</time>
      </trkpt>
      <trkpt lat="42.9911" lon="-0.00425">
        <ele>1687</ele>
        <time>2017-01-18T11:34:02.071Z</time>
      </trkpt>
      <trkpt lat="42.9911" lon="-0.00425">
        <ele>1687</ele>
        <time>2017-01-18T11:34:03.071Z</time>
      </trkpt>
      <trkpt lat="42.99109" lon="-0.00425">
        <ele>1687</ele>
        <time>2017-01-18T11:34:04.071Z</time>
      </trkpt>
      <trkpt lat="42.99109" lon="-0.00426">
        <ele>1687</ele>
        <time>2017-01-18T11:34:05.071Z</time>
      </trkpt>
      <trkpt lat="42.99109" lon="-0.00426">
        <ele>1687</ele>
        <time>2017-01-18T11:34:06.071Z</time>
      </trkpt>
      <trkpt lat="42.99108" lon="-0.00426">
        <ele>1687</ele>
        <time>2017-01-18T11:34:07.071Z</time>
      </trkpt>
      <trkpt lat="42.99108" lon="-0.00426">
        <ele>1687</ele>
        <time>2017-01-18T11:34:08.071Z</time>
      </trkpt>
      <trkpt lat="42.99108" lon="-0.00426">
        <ele>1687</ele>
        <time>2017-01-18T11:34:09.071Z</time>
      </trkpt>
      <trkpt lat="42.99108" lon="-0.00426">
        <ele>1686</ele>
        <time>2017-01-18T11:34:10.071Z</time>
      </trkpt>
      <trkpt lat="42.99108" lon="-0.00426">
        <ele>1686</ele>
        <time>2017-01-18T11:34:11.071Z</time>
      </trkpt>
      <trkpt lat="42.99108" lon="-0.00427">
        <ele>1686</ele>
        <time>2017-01-18T11:34:12.071Z</time>
      </trkpt>
      <trkpt lat="42.99107" lon="-0.00429">
        <ele>1685</ele>
        <time>2017-01-18T11:34:13.079Z</time>
      </trkpt>
      <trkpt lat="42.99106" lon="-0.00429">
        <ele>1685</ele>
        <time>2017-01-18T11:34:14.079Z</time>
      </trkpt>
      <trkpt lat="42.99106" lon="-0.00429">
        <ele>1684</ele>
        <time>2017-01-18T11:34:15.079Z</time>
      </trkpt>
      <trkpt lat="42.99105" lon="-0.0043">
        <ele>1684</ele>
        <time>2017-01-18T11:34:16.079Z</time>
      </trkpt>
      <trkpt lat="42.99105" lon="-0.0043">
        <ele>1684</ele>
        <time>2017-01-18T11:34:17.079Z</time>
      </trkpt>
      <trkpt lat="42.99104" lon="-0.00431">
        <ele>1684</ele>
        <time>2017-01-18T11:34:18.079Z</time>
      </trkpt>
      <trkpt lat="42.99103" lon="-0.00431">
        <ele>1684</ele>
        <time>2017-01-18T11:34:19.079Z</time>
      </trkpt>
      <trkpt lat="42.99103" lon="-0.00431">
        <ele>1684</ele>
        <time>2017-01-18T11:34:20.079Z</time>
      </trkpt>
      <trkpt lat="42.99103" lon="-0.00432">
        <ele>1684</ele>
        <time>2017-01-18T11:34:21.079Z</time>
      </trkpt>
      <trkpt lat="42.99102" lon="-0.00432">
        <ele>1684</ele>
        <time>2017-01-18T11:34:22.079Z</time>
      </trkpt>
      <trkpt lat="42.99102" lon="-0.00432">
        <ele>1684</ele>
        <time>2017-01-18T11:34:23.079Z</time>
      </trkpt>
      <trkpt lat="42.99101" lon="-0.00433">
        <ele>1684</ele>
        <time>2017-01-18T11:34:24.079Z</time>
      </trkpt>
      <trkpt lat="42.99101" lon="-0.00433">
        <ele>1684</ele>
        <time>2017-01-18T11:34:25.079Z</time>
      </trkpt>
      <trkpt lat="42.991" lon="-0.00434">
        <ele>1683</ele>
        <time>2017-01-18T11:34:26.079Z</time>
      </trkpt>
      <trkpt lat="42.991" lon="-0.00434">
        <ele>1683</ele>
        <time>2017-01-18T11:34:27.079Z</time>
      </trkpt>
      <trkpt lat="42.99099" lon="-0.00434">
        <ele>1683</ele>
        <time>2017-01-18T11:34:28.079Z</time>
      </trkpt>
      <trkpt lat="42.99098" lon="-0.00434">
        <ele>1683</ele>
        <time>2017-01-18T11:34:29.079Z</time>
      </trkpt>
      <trkpt lat="42.99098" lon="-0.00435">
        <ele>1683</ele>
        <time>2017-01-18T11:34:30.079Z</time>
      </trkpt>
      <trkpt lat="42.99097" lon="-0.00435">
        <ele>1683</ele>
        <time>2017-01-18T11:34:31.079Z</time>
      </trkpt>
      <trkpt lat="42.99097" lon="-0.00435">
        <ele>1682</ele>
        <time>2017-01-18T11:34:32.079Z</time>
      </trkpt>
      <trkpt lat="42.99096" lon="-0.00436">
        <ele>1682</ele>
        <time>2017-01-18T11:34:33.079Z</time>
      </trkpt>
      <trkpt lat="42.99096" lon="-0.00436">
        <ele>1682</ele>
        <time>2017-01-18T11:34:34.079Z</time>
      </trkpt>
      <trkpt lat="42.99095" lon="-0.00436">
        <ele>1682</ele>
        <time>2017-01-18T11:34:35.079Z</time>
      </trkpt>
      <trkpt lat="42.99095" lon="-0.00437">
        <ele>1681</ele>
        <time>2017-01-18T11:34:36.079Z</time>
      </trkpt>
      <trkpt lat="42.99094" lon="-0.00437">
        <ele>1682</ele>
        <time>2017-01-18T11:34:37.079Z</time>
      </trkpt>
      <trkpt lat="42.99094" lon="-0.00437">
        <ele>1682</ele>
        <time>2017-01-18T11:34:38.079Z</time>
      </trkpt>
      <trkpt lat="42.99094" lon="-0.00438">
        <ele>1681</ele>
        <time>2017-01-18T11:34:39.079Z</time>
      </trkpt>
      <trkpt lat="42.99093" lon="-0.00438">
        <ele>1681</ele>
        <time>2017-01-18T11:34:40.079Z</time>
      </trkpt>
      <trkpt lat="42.99093" lon="-0.00438">
        <ele>1681</ele>
        <time>2017-01-18T11:34:41.079Z</time>
      </trkpt>
      <trkpt lat="42.99092" lon="-0.00439">
        <ele>1681</ele>
        <time>2017-01-18T11:34:42.079Z</time>
      </trkpt>
      <trkpt lat="42.99092" lon="-0.00439">
        <ele>1680</ele>
        <time>2017-01-18T11:34:43.079Z</time>
      </trkpt>
      <trkpt lat="42.99092" lon="-0.0044">
        <ele>1680</ele>
        <time>2017-01-18T11:34:44.079Z</time>
      </trkpt>
      <trkpt lat="42.99091" lon="-0.0044">
        <ele>1680</ele>
        <time>2017-01-18T11:34:45.079Z</time>
      </trkpt>
      <trkpt lat="42.99091" lon="-0.0044">
        <ele>1680</ele>
        <time>2017-01-18T11:34:46.079Z</time>
      </trkpt>
      <trkpt lat="42.9909" lon="-0.00441">
        <ele>1680</ele>
        <time>2017-01-18T11:34:47.079Z</time>
      </trkpt>
      <trkpt lat="42.99089" lon="-0.00442">
        <ele>1679</ele>
        <time>2017-01-18T11:34:48.079Z</time>
      </trkpt>
      <trkpt lat="42.99089" lon="-0.00442">
        <ele>1679</ele>
        <time>2017-01-18T11:34:49.079Z</time>
      </trkpt>
      <trkpt lat="42.99089" lon="-0.00442">
        <ele>1679</ele>
        <time>2017-01-18T11:34:50.079Z</time>
      </trkpt>
      <trkpt lat="42.99088" lon="-0.00443">
        <ele>1679</ele>
        <time>2017-01-18T11:34:51.079Z</time>
      </trkpt>
      <trkpt lat="42.99088" lon="-0.00443">
        <ele>1679</ele>
        <time>2017-01-18T11:34:52.079Z</time>
      </trkpt>
      <trkpt lat="42.99087" lon="-0.00443">
        <ele>1679</ele>
        <time>2017-01-18T11:34:53.079Z</time>
      </trkpt>
      <trkpt lat="42.99087" lon="-0.00444">
        <ele>1678</ele>
        <time>2017-01-18T11:34:54.079Z</time>
      </trkpt>
      <trkpt lat="42.99086" lon="-0.00444">
        <ele>1678</ele>
        <time>2017-01-18T11:34:55.079Z</time>
      </trkpt>
      <trkpt lat="42.99086" lon="-0.00445">
        <ele>1678</ele>
        <time>2017-01-18T11:34:56.079Z</time>
      </trkpt>
      <trkpt lat="42.99085" lon="-0.00445">
        <ele>1678</ele>
        <time>2017-01-18T11:34:57.079Z</time>
      </trkpt>
      <trkpt lat="42.99085" lon="-0.00446">
        <ele>1678</ele>
        <time>2017-01-18T11:34:58.079Z</time>
      </trkpt>
      <trkpt lat="42.99084" lon="-0.00446">
        <ele>1678</ele>
        <time>2017-01-18T11:34:59.079Z</time>
      </trkpt>
      <trkpt lat="42.99084" lon="-0.00446">
        <ele>1678</ele>
        <time>2017-01-18T11:35:00.079Z</time>
      </trkpt>
      <trkpt lat="42.99084" lon="-0.00447">
        <ele>1677</ele>
        <time>2017-01-18T11:35:01.079Z</time>
      </trkpt>
      <trkpt lat="42.99083" lon="-0.00448">
        <ele>1677</ele>
        <time>2017-01-18T11:35:02.079Z</time>
      </trkpt>
      <trkpt lat="42.99083" lon="-0.00448">
        <ele>1677</ele>
        <time>2017-01-18T11:35:03.079Z</time>
      </trkpt>
      <trkpt lat="42.99083" lon="-0.00449">
        <ele>1677</ele>
        <time>2017-01-18T11:35:04.079Z</time>
      </trkpt>
      <trkpt lat="42.99082" lon="-0.00449">
        <ele>1677</ele>
        <time>2017-01-18T11:35:05.079Z</time>
      </trkpt>
      <trkpt lat="42.99082" lon="-0.0045">
        <ele>1677</ele>
        <time>2017-01-18T11:35:06.079Z</time>
      </trkpt>
      <trkpt lat="42.99082" lon="-0.0045">
        <ele>1677</ele>
        <time>2017-01-18T11:35:07.079Z</time>
      </trkpt>
      <trkpt lat="42.99081" lon="-0.00451">
        <ele>1677</ele>
        <time>2017-01-18T11:35:08.079Z</time>
      </trkpt>
      <trkpt lat="42.99081" lon="-0.00451">
        <ele>1676</ele>
        <time>2017-01-18T11:35:09.079Z</time>
      </trkpt>
      <trkpt lat="42.99081" lon="-0.00452">
        <ele>1676</ele>
        <time>2017-01-18T11:35:10.079Z</time>
      </trkpt>
      <trkpt lat="42.9908" lon="-0.00452">
        <ele>1676</ele>
        <time>2017-01-18T11:35:11.079Z</time>
      </trkpt>
      <trkpt lat="42.9908" lon="-0.00453">
        <ele>1676</ele>
        <time>2017-01-18T11:35:12.079Z</time>
      </trkpt>
      <trkpt lat="42.9908" lon="-0.00453">
        <ele>1676</ele>
        <time>2017-01-18T11:35:13.079Z</time>
      </trkpt>
      <trkpt lat="42.99079" lon="-0.00454">
        <ele>1676</ele>
        <time>2017-01-18T11:35:14.079Z</time>
      </trkpt>
      <trkpt lat="42.99079" lon="-0.00454">
        <ele>1676</ele>
        <time>2017-01-18T11:35:15.079Z</time>
      </trkpt>
      <trkpt lat="42.99079" lon="-0.00455">
        <ele>1675</ele>
        <time>2017-01-18T11:35:16.079Z</time>
      </trkpt>
      <trkpt lat="42.99078" lon="-0.00456">
        <ele>1675</ele>
        <time>2017-01-18T11:35:17.079Z</time>
      </trkpt>
      <trkpt lat="42.99078" lon="-0.00456">
        <ele>1675</ele>
        <time>2017-01-18T11:35:18.079Z</time>
      </trkpt>
      <trkpt lat="42.99077" lon="-0.00456">
        <ele>1675</ele>
        <time>2017-01-18T11:35:19.079Z</time>
      </trkpt>
      <trkpt lat="42.99077" lon="-0.00457">
        <ele>1675</ele>
        <time>2017-01-18T11:35:20.079Z</time>
      </trkpt>
      <trkpt lat="42.99076" lon="-0.00457">
        <ele>1674</ele>
        <time>2017-01-18T11:35:21.079Z</time>
      </trkpt>
      <trkpt lat="42.99076" lon="-0.00458">
        <ele>1674</ele>
        <time>2017-01-18T11:35:22.079Z</time>
      </trkpt>
      <trkpt lat="42.99075" lon="-0.00459">
        <ele>1674</ele>
        <time>2017-01-18T11:35:23.079Z</time>
      </trkpt>
      <trkpt lat="42.99075" lon="-0.00459">
        <ele>1673</ele>
        <time>2017-01-18T11:35:24.079Z</time>
      </trkpt>
      <trkpt lat="42.99074" lon="-0.0046">
        <ele>1673</ele>
        <time>2017-01-18T11:35:25.079Z</time>
      </trkpt>
      <trkpt lat="42.99074" lon="-0.0046">
        <ele>1673</ele>
        <time>2017-01-18T11:35:26.079Z</time>
      </trkpt>
      <trkpt lat="42.99074" lon="-0.00461">
        <ele>1673</ele>
        <time>2017-01-18T11:35:27.079Z</time>
      </trkpt>
      <trkpt lat="42.99073" lon="-0.00462">
        <ele>1672</ele>
        <time>2017-01-18T11:35:28.079Z</time>
      </trkpt>
      <trkpt lat="42.99073" lon="-0.00462">
        <ele>1672</ele>
        <time>2017-01-18T11:35:29.079Z</time>
      </trkpt>
      <trkpt lat="42.99072" lon="-0.00462">
        <ele>1672</ele>
        <time>2017-01-18T11:35:30.079Z</time>
      </trkpt>
      <trkpt lat="42.99072" lon="-0.00463">
        <ele>1672</ele>
        <time>2017-01-18T11:35:31.079Z</time>
      </trkpt>
      <trkpt lat="42.99071" lon="-0.00463">
        <ele>1671</ele>
        <time>2017-01-18T11:35:32.079Z</time>
      </trkpt>
      <trkpt lat="42.99071" lon="-0.00464">
        <ele>1671</ele>
        <time>2017-01-18T11:35:33.079Z</time>
      </trkpt>
      <trkpt lat="42.9907" lon="-0.00464">
        <ele>1671</ele>
        <time>2017-01-18T11:35:34.079Z</time>
      </trkpt>
      <trkpt lat="42.99069" lon="-0.00466">
        <ele>1671</ele>
        <time>2017-01-18T11:35:35.079Z</time>
      </trkpt>
      <trkpt lat="42.99069" lon="-0.00466">
        <ele>1671</ele>
        <time>2017-01-18T11:35:36.079Z</time>
      </trkpt>
      <trkpt lat="42.99069" lon="-0.00466">
        <ele>1671</ele>
        <time>2017-01-18T11:35:37.079Z</time>
      </trkpt>
      <trkpt lat="42.99069" lon="-0.00467">
        <ele>1670</ele>
        <time>2017-01-18T11:35:38.079Z</time>
      </trkpt>
      <trkpt lat="42.99068" lon="-0.00468">
        <ele>1670</ele>
        <time>2017-01-18T11:35:39.079Z</time>
      </trkpt>
      <trkpt lat="42.99068" lon="-0.00468">
        <ele>1670</ele>
        <time>2017-01-18T11:35:40.079Z</time>
      </trkpt>
      <trkpt lat="42.99067" lon="-0.00468">
        <ele>1670</ele>
        <time>2017-01-18T11:35:41.079Z</time>
      </trkpt>
      <trkpt lat="42.99067" lon="-0.00469">
        <ele>1670</ele>
        <time>2017-01-18T11:35:42.079Z</time>
      </trkpt>
      <trkpt lat="42.99066" lon="-0.00469">
        <ele>1669</ele>
        <time>2017-01-18T11:35:43.079Z</time>
      </trkpt>
      <trkpt lat="42.99066" lon="-0.0047">
        <ele>1669</ele>
        <time>2017-01-18T11:35:44.079Z</time>
      </trkpt>
      <trkpt lat="42.99065" lon="-0.00471">
        <ele>1669</ele>
        <time>2017-01-18T11:35:45.079Z</time>
      </trkpt>
      <trkpt lat="42.99064" lon="-0.00472">
        <ele>1669</ele>
        <time>2017-01-18T11:35:46.079Z</time>
      </trkpt>
      <trkpt lat="42.99064" lon="-0.00472">
        <ele>1669</ele>
        <time>2017-01-18T11:35:47.079Z</time>
      </trkpt>
      <trkpt lat="42.99064" lon="-0.00472">
        <ele>1669</ele>
        <time>2017-01-18T11:35:48.079Z</time>
      </trkpt>
      <trkpt lat="42.99063" lon="-0.00473">
        <ele>1669</ele>
        <time>2017-01-18T11:35:49.079Z</time>
      </trkpt>
      <trkpt lat="42.99063" lon="-0.00474">
        <ele>1668</ele>
        <time>2017-01-18T11:35:50.079Z</time>
      </trkpt>
      <trkpt lat="42.99062" lon="-0.00474">
        <ele>1668</ele>
        <time>2017-01-18T11:35:51.079Z</time>
      </trkpt>
      <trkpt lat="42.99062" lon="-0.00475">
        <ele>1668</ele>
        <time>2017-01-18T11:35:52.079Z</time>
      </trkpt>
      <trkpt lat="42.99062" lon="-0.00476">
        <ele>1668</ele>
        <time>2017-01-18T11:35:53.079Z</time>
      </trkpt>
      <trkpt lat="42.99061" lon="-0.00476">
        <ele>1667</ele>
        <time>2017-01-18T11:35:54.079Z</time>
      </trkpt>
      <trkpt lat="42.99061" lon="-0.00477">
        <ele>1667</ele>
        <time>2017-01-18T11:35:55.079Z</time>
      </trkpt>
      <trkpt lat="42.9906" lon="-0.00477">
        <ele>1667</ele>
        <time>2017-01-18T11:35:56.079Z</time>
      </trkpt>
      <trkpt lat="42.99059" lon="-0.00478">
        <ele>1667</ele>
        <time>2017-01-18T11:35:57.079Z</time>
      </trkpt>
      <trkpt lat="42.99059" lon="-0.00478">
        <ele>1667</ele>
        <time>2017-01-18T11:35:58.079Z</time>
      </trkpt>
      <trkpt lat="42.99059" lon="-0.00478">
        <ele>1666</ele>
        <time>2017-01-18T11:35:59.079Z</time>
      </trkpt>
      <trkpt lat="42.99058" lon="-0.00478">
        <ele>1666</ele>
        <time>2017-01-18T11:36:00.079Z</time>
      </trkpt>
      <trkpt lat="42.99057" lon="-0.00479">
        <ele>1666</ele>
        <time>2017-01-18T11:36:01.079Z</time>
      </trkpt>
      <trkpt lat="42.99057" lon="-0.00479">
        <ele>1666</ele>
        <time>2017-01-18T11:36:02.079Z</time>
      </trkpt>
      <trkpt lat="42.99057" lon="-0.0048">
        <ele>1666</ele>
        <time>2017-01-18T11:36:03.079Z</time>
      </trkpt>
      <trkpt lat="42.99056" lon="-0.00481">
        <ele>1665</ele>
        <time>2017-01-18T11:36:04.079Z</time>
      </trkpt>
      <trkpt lat="42.99056" lon="-0.00481">
        <ele>1665</ele>
        <time>2017-01-18T11:36:05.079Z</time>
      </trkpt>
      <trkpt lat="42.99055" lon="-0.00483">
        <ele>1665</ele>
        <time>2017-01-18T11:36:06.079Z</time>
      </trkpt>
      <trkpt lat="42.99055" lon="-0.00483">
        <ele>1665</ele>
        <time>2017-01-18T11:36:07.079Z</time>
      </trkpt>
      <trkpt lat="42.99054" lon="-0.00484">
        <ele>1664</ele>
        <time>2017-01-18T11:36:08.079Z</time>
      </trkpt>
      <trkpt lat="42.99054" lon="-0.00484">
        <ele>1664</ele>
        <time>2017-01-18T11:36:09.079Z</time>
      </trkpt>
      <trkpt lat="42.99053" lon="-0.00485">
        <ele>1664</ele>
        <time>2017-01-18T11:36:10.079Z</time>
      </trkpt>
      <trkpt lat="42.99053" lon="-0.00485">
        <ele>1664</ele>
        <time>2017-01-18T11:36:11.079Z</time>
      </trkpt>
      <trkpt lat="42.99052" lon="-0.00486">
        <ele>1664</ele>
        <time>2017-01-18T11:36:12.079Z</time>
      </trkpt>
      <trkpt lat="42.99052" lon="-0.00486">
        <ele>1664</ele>
        <time>2017-01-18T11:36:13.079Z</time>
      </trkpt>
      <trkpt lat="42.99051" lon="-0.00487">
        <ele>1663</ele>
        <time>2017-01-18T11:36:14.079Z</time>
      </trkpt>
      <trkpt lat="42.9905" lon="-0.00488">
        <ele>1663</ele>
        <time>2017-01-18T11:36:15.079Z</time>
      </trkpt>
      <trkpt lat="42.9905" lon="-0.00488">
        <ele>1663</ele>
        <time>2017-01-18T11:36:16.079Z</time>
      </trkpt>
      <trkpt lat="42.9905" lon="-0.00489">
        <ele>1663</ele>
        <time>2017-01-18T11:36:17.079Z</time>
      </trkpt>
      <trkpt lat="42.99049" lon="-0.0049">
        <ele>1663</ele>
        <time>2017-01-18T11:36:18.079Z</time>
      </trkpt>
      <trkpt lat="42.99049" lon="-0.0049">
        <ele>1663</ele>
        <time>2017-01-18T11:36:19.079Z</time>
      </trkpt>
      <trkpt lat="42.99049" lon="-0.0049">
        <ele>1662</ele>
        <time>2017-01-18T11:36:20.079Z</time>
      </trkpt>
      <trkpt lat="42.99048" lon="-0.00492">
        <ele>1662</ele>
        <time>2017-01-18T11:36:21.079Z</time>
      </trkpt>
      <trkpt lat="42.99047" lon="-0.00493">
        <ele>1662</ele>
        <time>2017-01-18T11:36:22.079Z</time>
      </trkpt>
      <trkpt lat="42.99047" lon="-0.00493">
        <ele>1662</ele>
        <time>2017-01-18T11:36:23.079Z</time>
      </trkpt>
      <trkpt lat="42.99046" lon="-0.00494">
        <ele>1661</ele>
        <time>2017-01-18T11:36:24.079Z</time>
      </trkpt>
      <trkpt lat="42.99046" lon="-0.00494">
        <ele>1661</ele>
        <time>2017-01-18T11:36:25.079Z</time>
      </trkpt>
      <trkpt lat="42.99045" lon="-0.00495">
        <ele>1661</ele>
        <time>2017-01-18T11:36:26.079Z</time>
      </trkpt>
      <trkpt lat="42.99045" lon="-0.00496">
        <ele>1661</ele>
        <time>2017-01-18T11:36:27.079Z</time>
      </trkpt>
      <trkpt lat="42.99045" lon="-0.00496">
        <ele>1661</ele>
        <time>2017-01-18T11:36:28.079Z</time>
      </trkpt>
      <trkpt lat="42.99044" lon="-0.00497">
        <ele>1660</ele>
        <time>2017-01-18T11:36:29.079Z</time>
      </trkpt>
      <trkpt lat="42.99044" lon="-0.00497">
        <ele>1660</ele>
        <time>2017-01-18T11:36:30.079Z</time>
      </trkpt>
      <trkpt lat="42.99043" lon="-0.00498">
        <ele>1660</ele>
        <time>2017-01-18T11:36:31.079Z</time>
      </trkpt>
      <trkpt lat="42.99043" lon="-0.00498">
        <ele>1660</ele>
        <time>2017-01-18T11:36:32.079Z</time>
      </trkpt>
      <trkpt lat="42.99042" lon="-0.00499">
        <ele>1660</ele>
        <time>2017-01-18T11:36:33.079Z</time>
      </trkpt>
      <trkpt lat="42.99042" lon="-0.00499">
        <ele>1660</ele>
        <time>2017-01-18T11:36:34.079Z</time>
      </trkpt>
      <trkpt lat="42.99041" lon="-0.005">
        <ele>1659</ele>
        <time>2017-01-18T11:36:35.079Z</time>
      </trkpt>
      <trkpt lat="42.99041" lon="-0.005">
        <ele>1659</ele>
        <time>2017-01-18T11:36:36.079Z</time>
      </trkpt>
      <trkpt lat="42.99041" lon="-0.00501">
        <ele>1659</ele>
        <time>2017-01-18T11:36:37.079Z</time>
      </trkpt>
      <trkpt lat="42.99041" lon="-0.00501">
        <ele>1659</ele>
        <time>2017-01-18T11:36:38.079Z</time>
      </trkpt>
      <trkpt lat="42.9904" lon="-0.00501">
        <ele>1659</ele>
        <time>2017-01-18T11:36:39.079Z</time>
      </trkpt>
      <trkpt lat="42.9904" lon="-0.00502">
        <ele>1659</ele>
        <time>2017-01-18T11:36:40.079Z</time>
      </trkpt>
      <trkpt lat="42.99039" lon="-0.00502">
        <ele>1658</ele>
        <time>2017-01-18T11:36:41.079Z</time>
      </trkpt>
      <trkpt lat="42.99039" lon="-0.00503">
        <ele>1658</ele>
        <time>2017-01-18T11:36:42.079Z</time>
      </trkpt>
      <trkpt lat="42.99038" lon="-0.00504">
        <ele>1658</ele>
        <time>2017-01-18T11:36:43.079Z</time>
      </trkpt>
      <trkpt lat="42.99037" lon="-0.00504">
        <ele>1658</ele>
        <time>2017-01-18T11:36:44.079Z</time>
      </trkpt>
      <trkpt lat="42.99037" lon="-0.00505">
        <ele>1658</ele>
        <time>2017-01-18T11:36:45.079Z</time>
      </trkpt>
      <trkpt lat="42.99036" lon="-0.00505">
        <ele>1657</ele>
        <time>2017-01-18T11:36:46.079Z</time>
      </trkpt>
      <trkpt lat="42.99036" lon="-0.00506">
        <ele>1657</ele>
        <time>2017-01-18T11:36:47.079Z</time>
      </trkpt>
      <trkpt lat="42.99036" lon="-0.00506">
        <ele>1657</ele>
        <time>2017-01-18T11:36:48.079Z</time>
      </trkpt>
      <trkpt lat="42.99036" lon="-0.00506">
        <ele>1657</ele>
        <time>2017-01-18T11:36:49.079Z</time>
      </trkpt>
      <trkpt lat="42.99035" lon="-0.00506">
        <ele>1657</ele>
        <time>2017-01-18T11:36:50.079Z</time>
      </trkpt>
      <trkpt lat="42.99034" lon="-0.00507">
        <ele>1657</ele>
        <time>2017-01-18T11:36:51.079Z</time>
      </trkpt>
      <trkpt lat="42.99034" lon="-0.00507">
        <ele>1657</ele>
        <time>2017-01-18T11:36:52.079Z</time>
      </trkpt>
      <trkpt lat="42.99033" lon="-0.00508">
        <ele>1656</ele>
        <time>2017-01-18T11:36:53.079Z</time>
      </trkpt>
      <trkpt lat="42.99033" lon="-0.00508">
        <ele>1656</ele>
        <time>2017-01-18T11:36:54.079Z</time>
      </trkpt>
      <trkpt lat="42.99033" lon="-0.00509">
        <ele>1656</ele>
        <time>2017-01-18T11:36:55.079Z</time>
      </trkpt>
      <trkpt lat="42.99032" lon="-0.00509">
        <ele>1656</ele>
        <time>2017-01-18T11:36:56.079Z</time>
      </trkpt>
      <trkpt lat="42.99032" lon="-0.00509">
        <ele>1656</ele>
        <time>2017-01-18T11:36:57.079Z</time>
      </trkpt>
      <trkpt lat="42.99032" lon="-0.00509">
        <ele>1656</ele>
        <time>2017-01-18T11:36:58.079Z</time>
      </trkpt>
      <trkpt lat="42.99031" lon="-0.0051">
        <ele>1655</ele>
        <time>2017-01-18T11:36:59.079Z</time>
      </trkpt>
      <trkpt lat="42.99031" lon="-0.0051">
        <ele>1655</ele>
        <time>2017-01-18T11:37:00.079Z</time>
      </trkpt>
      <trkpt lat="42.9903" lon="-0.00511">
        <ele>1655</ele>
        <time>2017-01-18T11:37:01.079Z</time>
      </trkpt>
      <trkpt lat="42.99029" lon="-0.00512">
        <ele>1655</ele>
        <time>2017-01-18T11:37:02.079Z</time>
      </trkpt>
      <trkpt lat="42.99029" lon="-0.00512">
        <ele>1655</ele>
        <time>2017-01-18T11:37:03.079Z</time>
      </trkpt>
      <trkpt lat="42.99029" lon="-0.00512">
        <ele>1655</ele>
        <time>2017-01-18T11:37:04.079Z</time>
      </trkpt>
      <trkpt lat="42.99029" lon="-0.00513">
        <ele>1655</ele>
        <time>2017-01-18T11:37:05.079Z</time>
      </trkpt>
      <trkpt lat="42.99028" lon="-0.00513">
        <ele>1655</ele>
        <time>2017-01-18T11:37:06.079Z</time>
      </trkpt>
      <trkpt lat="42.99028" lon="-0.00513">
        <ele>1654</ele>
        <time>2017-01-18T11:37:07.079Z</time>
      </trkpt>
      <trkpt lat="42.99028" lon="-0.00513">
        <ele>1654</ele>
        <time>2017-01-18T11:37:08.079Z</time>
      </trkpt>
      <trkpt lat="42.99028" lon="-0.00513">
        <ele>1654</ele>
        <time>2017-01-18T11:37:09.079Z</time>
      </trkpt>
      <trkpt lat="42.99027" lon="-0.00514">
        <ele>1654</ele>
        <time>2017-01-18T11:37:10.079Z</time>
      </trkpt>
      <trkpt lat="42.99027" lon="-0.00514">
        <ele>1654</ele>
        <time>2017-01-18T11:37:11.079Z</time>
      </trkpt>
      <trkpt lat="42.99027" lon="-0.00515">
        <ele>1654</ele>
        <time>2017-01-18T11:37:12.079Z</time>
      </trkpt>
      <trkpt lat="42.99027" lon="-0.00515">
        <ele>1654</ele>
        <time>2017-01-18T11:37:13.079Z</time>
      </trkpt>
      <trkpt lat="42.99027" lon="-0.00515">
        <ele>1654</ele>
        <time>2017-01-18T11:37:14.079Z</time>
      </trkpt>
      <trkpt lat="42.99026" lon="-0.00516">
        <ele>1653</ele>
        <time>2017-01-18T11:37:15.079Z</time>
      </trkpt>
      <trkpt lat="42.99025" lon="-0.00517">
        <ele>1653</ele>
        <time>2017-01-18T11:37:16.079Z</time>
      </trkpt>
      <trkpt lat="42.99025" lon="-0.00517">
        <ele>1653</ele>
        <time>2017-01-18T11:37:17.079Z</time>
      </trkpt>
      <trkpt lat="42.99025" lon="-0.00517">
        <ele>1653</ele>
        <time>2017-01-18T11:37:18.079Z</time>
      </trkpt>
      <trkpt lat="42.99024" lon="-0.00519">
        <ele>1652</ele>
        <time>2017-01-18T11:37:19.079Z</time>
      </trkpt>
      <trkpt lat="42.99024" lon="-0.00519">
        <ele>1652</ele>
        <time>2017-01-18T11:37:20.079Z</time>
      </trkpt>
      <trkpt lat="42.99023" lon="-0.0052">
        <ele>1652</ele>
        <time>2017-01-18T11:37:21.079Z</time>
      </trkpt>
      <trkpt lat="42.99023" lon="-0.0052">
        <ele>1652</ele>
        <time>2017-01-18T11:37:22.079Z</time>
      </trkpt>
      <trkpt lat="42.99023" lon="-0.0052">
        <ele>1652</ele>
        <time>2017-01-18T11:37:23.079Z</time>
      </trkpt>
      <trkpt lat="42.99022" lon="-0.00521">
        <ele>1651</ele>
        <time>2017-01-18T11:37:24.079Z</time>
      </trkpt>
      <trkpt lat="42.99022" lon="-0.00522">
        <ele>1651</ele>
        <time>2017-01-18T11:37:25.079Z</time>
      </trkpt>
      <trkpt lat="42.99021" lon="-0.00522">
        <ele>1651</ele>
        <time>2017-01-18T11:37:26.079Z</time>
      </trkpt>
      <trkpt lat="42.99021" lon="-0.00523">
        <ele>1651</ele>
        <time>2017-01-18T11:37:27.079Z</time>
      </trkpt>
      <trkpt lat="42.9902" lon="-0.00524">
        <ele>1650</ele>
        <time>2017-01-18T11:37:28.079Z</time>
      </trkpt>
      <trkpt lat="42.9902" lon="-0.00524">
        <ele>1650</ele>
        <time>2017-01-18T11:37:29.079Z</time>
      </trkpt>
      <trkpt lat="42.99019" lon="-0.00524">
        <ele>1650</ele>
        <time>2017-01-18T11:37:30.079Z</time>
      </trkpt>
      <trkpt lat="42.99019" lon="-0.00524">
        <ele>1650</ele>
        <time>2017-01-18T11:37:31.079Z</time>
      </trkpt>
      <trkpt lat="42.99019" lon="-0.00524">
        <ele>1650</ele>
        <time>2017-01-18T11:37:32.079Z</time>
      </trkpt>
      <trkpt lat="42.99019" lon="-0.00524">
        <ele>1650</ele>
        <time>2017-01-18T11:37:33.079Z</time>
      </trkpt>
      <trkpt lat="42.99019" lon="-0.00525">
        <ele>1650</ele>
        <time>2017-01-18T11:37:34.079Z</time>
      </trkpt>
      <trkpt lat="42.99018" lon="-0.00525">
        <ele>1650</ele>
        <time>2017-01-18T11:37:35.079Z</time>
      </trkpt>
      <trkpt lat="42.99018" lon="-0.00526">
        <ele>1650</ele>
        <time>2017-01-18T11:37:36.079Z</time>
      </trkpt>
      <trkpt lat="42.99017" lon="-0.00526">
        <ele>1650</ele>
        <time>2017-01-18T11:37:37.079Z</time>
      </trkpt>
      <trkpt lat="42.99017" lon="-0.00527">
        <ele>1649</ele>
        <time>2017-01-18T11:37:38.079Z</time>
      </trkpt>
      <trkpt lat="42.99016" lon="-0.00527">
        <ele>1649</ele>
        <time>2017-01-18T11:37:39.079Z</time>
      </trkpt>
      <trkpt lat="42.99016" lon="-0.00527">
        <ele>1649</ele>
        <time>2017-01-18T11:37:40.079Z</time>
      </trkpt>
      <trkpt lat="42.99015" lon="-0.00528">
        <ele>1649</ele>
        <time>2017-01-18T11:37:41.079Z</time>
      </trkpt>
      <trkpt lat="42.99015" lon="-0.00528">
        <ele>1648</ele>
        <time>2017-01-18T11:37:42.079Z</time>
      </trkpt>
      <trkpt lat="42.99014" lon="-0.00529">
        <ele>1648</ele>
        <time>2017-01-18T11:37:43.079Z</time>
      </trkpt>
      <trkpt lat="42.99013" lon="-0.00529">
        <ele>1648</ele>
        <time>2017-01-18T11:37:44.079Z</time>
      </trkpt>
      <trkpt lat="42.99013" lon="-0.00529">
        <ele>1648</ele>
        <time>2017-01-18T11:37:45.079Z</time>
      </trkpt>
      <trkpt lat="42.99012" lon="-0.0053">
        <ele>1648</ele>
        <time>2017-01-18T11:37:46.079Z</time>
      </trkpt>
      <trkpt lat="42.99012" lon="-0.0053">
        <ele>1648</ele>
        <time>2017-01-18T11:37:47.079Z</time>
      </trkpt>
      <trkpt lat="42.99011" lon="-0.00531">
        <ele>1647</ele>
        <time>2017-01-18T11:37:48.079Z</time>
      </trkpt>
      <trkpt lat="42.9901" lon="-0.00531">
        <ele>1647</ele>
        <time>2017-01-18T11:37:49.079Z</time>
      </trkpt>
      <trkpt lat="42.9901" lon="-0.00531">
        <ele>1647</ele>
        <time>2017-01-18T11:37:50.079Z</time>
      </trkpt>
      <trkpt lat="42.99009" lon="-0.00531">
        <ele>1647</ele>
        <time>2017-01-18T11:37:51.079Z</time>
      </trkpt>
      <trkpt lat="42.99008" lon="-0.00532">
        <ele>1647</ele>
        <time>2017-01-18T11:37:52.079Z</time>
      </trkpt>
      <trkpt lat="42.99008" lon="-0.00532">
        <ele>1646</ele>
        <time>2017-01-18T11:37:53.079Z</time>
      </trkpt>
      <trkpt lat="42.99007" lon="-0.00532">
        <ele>1646</ele>
        <time>2017-01-18T11:37:54.079Z</time>
      </trkpt>
      <trkpt lat="42.99007" lon="-0.00533">
        <ele>1646</ele>
        <time>2017-01-18T11:37:55.079Z</time>
      </trkpt>
      <trkpt lat="42.99006" lon="-0.00533">
        <ele>1646</ele>
        <time>2017-01-18T11:37:56.079Z</time>
      </trkpt>
      <trkpt lat="42.99006" lon="-0.00533">
        <ele>1646</ele>
        <time>2017-01-18T11:37:57.079Z</time>
      </trkpt>
      <trkpt lat="42.99005" lon="-0.00534">
        <ele>1646</ele>
        <time>2017-01-18T11:37:58.079Z</time>
      </trkpt>
      <trkpt lat="42.99004" lon="-0.00534">
        <ele>1646</ele>
        <time>2017-01-18T11:37:59.079Z</time>
      </trkpt>
      <trkpt lat="42.99004" lon="-0.00535">
        <ele>1646</ele>
        <time>2017-01-18T11:38:00.079Z</time>
      </trkpt>
      <trkpt lat="42.99003" lon="-0.00535">
        <ele>1645</ele>
        <time>2017-01-18T11:38:01.079Z</time>
      </trkpt>
      <trkpt lat="42.99003" lon="-0.00535">
        <ele>1645</ele>
        <time>2017-01-18T11:38:02.079Z</time>
      </trkpt>
      <trkpt lat="42.99002" lon="-0.00536">
        <ele>1645</ele>
        <time>2017-01-18T11:38:03.079Z</time>
      </trkpt>
      <trkpt lat="42.99002" lon="-0.00536">
        <ele>1645</ele>
        <time>2017-01-18T11:38:04.079Z</time>
      </trkpt>
      <trkpt lat="42.99001" lon="-0.00537">
        <ele>1645</ele>
        <time>2017-01-18T11:38:05.079Z</time>
      </trkpt>
      <trkpt lat="42.99" lon="-0.00537">
        <ele>1644</ele>
        <time>2017-01-18T11:38:06.079Z</time>
      </trkpt>
      <trkpt lat="42.99" lon="-0.00538">
        <ele>1644</ele>
        <time>2017-01-18T11:38:07.079Z</time>
      </trkpt>
      <trkpt lat="42.98999" lon="-0.00538">
        <ele>1644</ele>
        <time>2017-01-18T11:38:08.079Z</time>
      </trkpt>
      <trkpt lat="42.98999" lon="-0.00539">
        <ele>1644</ele>
        <time>2017-01-18T11:38:09.079Z</time>
      </trkpt>
      <trkpt lat="42.98998" lon="-0.00539">
        <ele>1644</ele>
        <time>2017-01-18T11:38:10.079Z</time>
      </trkpt>
      <trkpt lat="42.98998" lon="-0.00539">
        <ele>1644</ele>
        <time>2017-01-18T11:38:11.079Z</time>
      </trkpt>
      <trkpt lat="42.98997" lon="-0.0054">
        <ele>1644</ele>
        <time>2017-01-18T11:38:12.079Z</time>
      </trkpt>
      <trkpt lat="42.98997" lon="-0.0054">
        <ele>1643</ele>
        <time>2017-01-18T11:38:13.079Z</time>
      </trkpt>
      <trkpt lat="42.98996" lon="-0.00541">
        <ele>1643</ele>
        <time>2017-01-18T11:38:14.079Z</time>
      </trkpt>
      <trkpt lat="42.98996" lon="-0.00541">
        <ele>1643</ele>
        <time>2017-01-18T11:38:15.079Z</time>
      </trkpt>
      <trkpt lat="42.98995" lon="-0.00541">
        <ele>1643</ele>
        <time>2017-01-18T11:38:16.079Z</time>
      </trkpt>
      <trkpt lat="42.98995" lon="-0.00542">
        <ele>1643</ele>
        <time>2017-01-18T11:38:17.079Z</time>
      </trkpt>
      <trkpt lat="42.98995" lon="-0.00542">
        <ele>1643</ele>
        <time>2017-01-18T11:38:18.079Z</time>
      </trkpt>
      <trkpt lat="42.98994" lon="-0.00542">
        <ele>1643</ele>
        <time>2017-01-18T11:38:19.079Z</time>
      </trkpt>
      <trkpt lat="42.98994" lon="-0.00542">
        <ele>1643</ele>
        <time>2017-01-18T11:38:20.079Z</time>
      </trkpt>
      <trkpt lat="42.98993" lon="-0.00543">
        <ele>1642</ele>
        <time>2017-01-18T11:38:21.079Z</time>
      </trkpt>
      <trkpt lat="42.98993" lon="-0.00543">
        <ele>1642</ele>
        <time>2017-01-18T11:38:22.079Z</time>
      </trkpt>
      <trkpt lat="42.98993" lon="-0.00543">
        <ele>1642</ele>
        <time>2017-01-18T11:38:23.079Z</time>
      </trkpt>
      <trkpt lat="42.98992" lon="-0.00543">
        <ele>1642</ele>
        <time>2017-01-18T11:38:24.079Z</time>
      </trkpt>
      <trkpt lat="42.98992" lon="-0.00543">
        <ele>1642</ele>
        <time>2017-01-18T11:38:25.079Z</time>
      </trkpt>
      <trkpt lat="42.98991" lon="-0.00544">
        <ele>1641</ele>
        <time>2017-01-18T11:38:26.079Z</time>
      </trkpt>
      <trkpt lat="42.98991" lon="-0.00544">
        <ele>1641</ele>
        <time>2017-01-18T11:38:27.079Z</time>
      </trkpt>
      <trkpt lat="42.98991" lon="-0.00544">
        <ele>1641</ele>
        <time>2017-01-18T11:38:28.079Z</time>
      </trkpt>
      <trkpt lat="42.9899" lon="-0.00544">
        <ele>1641</ele>
        <time>2017-01-18T11:38:29.079Z</time>
      </trkpt>
      <trkpt lat="42.9899" lon="-0.00545">
        <ele>1641</ele>
        <time>2017-01-18T11:38:30.079Z</time>
      </trkpt>
      <trkpt lat="42.98989" lon="-0.00545">
        <ele>1640</ele>
        <time>2017-01-18T11:38:31.079Z</time>
      </trkpt>
      <trkpt lat="42.98989" lon="-0.00545">
        <ele>1640</ele>
        <time>2017-01-18T11:38:32.079Z</time>
      </trkpt>
      <trkpt lat="42.98988" lon="-0.00546">
        <ele>1639</ele>
        <time>2017-01-18T11:38:33.079Z</time>
      </trkpt>
      <trkpt lat="42.98988" lon="-0.00547">
        <ele>1639</ele>
        <time>2017-01-18T11:38:34.079Z</time>
      </trkpt>
      <trkpt lat="42.98988" lon="-0.00547">
        <ele>1639</ele>
        <time>2017-01-18T11:38:35.079Z</time>
      </trkpt>
      <trkpt lat="42.98987" lon="-0.00548">
        <ele>1639</ele>
        <time>2017-01-18T11:38:36.079Z</time>
      </trkpt>
      <trkpt lat="42.98987" lon="-0.00548">
        <ele>1638</ele>
        <time>2017-01-18T11:38:37.079Z</time>
      </trkpt>
      <trkpt lat="42.98986" lon="-0.00549">
        <ele>1638</ele>
        <time>2017-01-18T11:38:38.079Z</time>
      </trkpt>
      <trkpt lat="42.98986" lon="-0.0055">
        <ele>1638</ele>
        <time>2017-01-18T11:38:39.079Z</time>
      </trkpt>
      <trkpt lat="42.98985" lon="-0.0055">
        <ele>1638</ele>
        <time>2017-01-18T11:38:40.079Z</time>
      </trkpt>
      <trkpt lat="42.98984" lon="-0.00551">
        <ele>1637</ele>
        <time>2017-01-18T11:38:41.079Z</time>
      </trkpt>
      <trkpt lat="42.98984" lon="-0.00551">
        <ele>1637</ele>
        <time>2017-01-18T11:38:42.079Z</time>
      </trkpt>
      <trkpt lat="42.98983" lon="-0.00552">
        <ele>1637</ele>
        <time>2017-01-18T11:38:43.079Z</time>
      </trkpt>
      <trkpt lat="42.98983" lon="-0.00552">
        <ele>1637</ele>
        <time>2017-01-18T11:38:44.079Z</time>
      </trkpt>
      <trkpt lat="42.98982" lon="-0.00553">
        <ele>1637</ele>
        <time>2017-01-18T11:38:45.079Z</time>
      </trkpt>
      <trkpt lat="42.98981" lon="-0.00553">
        <ele>1637</ele>
        <time>2017-01-18T11:38:46.079Z</time>
      </trkpt>
      <trkpt lat="42.98981" lon="-0.00554">
        <ele>1636</ele>
        <time>2017-01-18T11:38:47.079Z</time>
      </trkpt>
      <trkpt lat="42.98981" lon="-0.00555">
        <ele>1636</ele>
        <time>2017-01-18T11:38:48.079Z</time>
      </trkpt>
      <trkpt lat="42.9898" lon="-0.00555">
        <ele>1636</ele>
        <time>2017-01-18T11:38:49.079Z</time>
      </trkpt>
      <trkpt lat="42.9898" lon="-0.00556">
        <ele>1636</ele>
        <time>2017-01-18T11:38:50.079Z</time>
      </trkpt>
      <trkpt lat="42.98979" lon="-0.00557">
        <ele>1636</ele>
        <time>2017-01-18T11:38:51.079Z</time>
      </trkpt>
      <trkpt lat="42.98979" lon="-0.00557">
        <ele>1636</ele>
        <time>2017-01-18T11:38:52.079Z</time>
      </trkpt>
      <trkpt lat="42.98978" lon="-0.00558">
        <ele>1635</ele>
        <time>2017-01-18T11:38:53.079Z</time>
      </trkpt>
      <trkpt lat="42.98978" lon="-0.00559">
        <ele>1635</ele>
        <time>2017-01-18T11:38:54.079Z</time>
      </trkpt>
      <trkpt lat="42.98977" lon="-0.00559">
        <ele>1635</ele>
        <time>2017-01-18T11:38:55.079Z</time>
      </trkpt>
      <trkpt lat="42.98977" lon="-0.0056">
        <ele>1635</ele>
        <time>2017-01-18T11:38:56.079Z</time>
      </trkpt>
      <trkpt lat="42.98976" lon="-0.0056">
        <ele>1635</ele>
        <time>2017-01-18T11:38:57.079Z</time>
      </trkpt>
      <trkpt lat="42.98976" lon="-0.00561">
        <ele>1635</ele>
        <time>2017-01-18T11:38:58.079Z</time>
      </trkpt>
      <trkpt lat="42.98975" lon="-0.00561">
        <ele>1635</ele>
        <time>2017-01-18T11:38:59.079Z</time>
      </trkpt>
      <trkpt lat="42.98975" lon="-0.00562">
        <ele>1635</ele>
        <time>2017-01-18T11:39:00.079Z</time>
      </trkpt>
      <trkpt lat="42.98974" lon="-0.00562">
        <ele>1634</ele>
        <time>2017-01-18T11:39:01.079Z</time>
      </trkpt>
      <trkpt lat="42.98974" lon="-0.00562">
        <ele>1635</ele>
        <time>2017-01-18T11:39:02.079Z</time>
      </trkpt>
      <trkpt lat="42.98974" lon="-0.00562">
        <ele>1634</ele>
        <time>2017-01-18T11:39:03.079Z</time>
      </trkpt>
      <trkpt lat="42.98974" lon="-0.00562">
        <ele>1635</ele>
        <time>2017-01-18T11:39:04.079Z</time>
      </trkpt>
      <trkpt lat="42.98974" lon="-0.00562">
        <ele>1635</ele>
        <time>2017-01-18T11:39:05.079Z</time>
      </trkpt>
      <trkpt lat="42.98972" lon="-0.00564">
        <ele>1634</ele>
        <time>2017-01-18T11:39:07.079Z</time>
      </trkpt>
      <trkpt lat="42.98971" lon="-0.00564">
        <ele>1634</ele>
        <time>2017-01-18T11:39:08.079Z</time>
      </trkpt>
      <trkpt lat="42.98971" lon="-0.00565">
        <ele>1634</ele>
        <time>2017-01-18T11:39:09.079Z</time>
      </trkpt>
      <trkpt lat="42.9897" lon="-0.00565">
        <ele>1633</ele>
        <time>2017-01-18T11:39:10.079Z</time>
      </trkpt>
      <trkpt lat="42.98969" lon="-0.00566">
        <ele>1633</ele>
        <time>2017-01-18T11:39:11.079Z</time>
      </trkpt>
      <trkpt lat="42.98969" lon="-0.00566">
        <ele>1633</ele>
        <time>2017-01-18T11:39:12.079Z</time>
      </trkpt>
      <trkpt lat="42.98968" lon="-0.00567">
        <ele>1633</ele>
        <time>2017-01-18T11:39:13.079Z</time>
      </trkpt>
      <trkpt lat="42.98968" lon="-0.00567">
        <ele>1632</ele>
        <time>2017-01-18T11:39:14.079Z</time>
      </trkpt>
      <trkpt lat="42.98967" lon="-0.00568">
        <ele>1632</ele>
        <time>2017-01-18T11:39:15.079Z</time>
      </trkpt>
      <trkpt lat="42.98967" lon="-0.00568">
        <ele>1631</ele>
        <time>2017-01-18T11:39:16.079Z</time>
      </trkpt>
      <trkpt lat="42.98966" lon="-0.00569">
        <ele>1631</ele>
        <time>2017-01-18T11:39:17.079Z</time>
      </trkpt>
      <trkpt lat="42.98966" lon="-0.00569">
        <ele>1631</ele>
        <time>2017-01-18T11:39:18.079Z</time>
      </trkpt>
      <trkpt lat="42.98965" lon="-0.0057">
        <ele>1631</ele>
        <time>2017-01-18T11:39:19.079Z</time>
      </trkpt>
      <trkpt lat="42.98965" lon="-0.0057">
        <ele>1631</ele>
        <time>2017-01-18T11:39:20.079Z</time>
      </trkpt>
      <trkpt lat="42.98964" lon="-0.00571">
        <ele>1631</ele>
        <time>2017-01-18T11:39:21.079Z</time>
      </trkpt>
      <trkpt lat="42.98963" lon="-0.00571">
        <ele>1630</ele>
        <time>2017-01-18T11:39:22.079Z</time>
      </trkpt>
      <trkpt lat="42.98963" lon="-0.00572">
        <ele>1630</ele>
        <time>2017-01-18T11:39:23.079Z</time>
      </trkpt>
      <trkpt lat="42.98962" lon="-0.00572">
        <ele>1629</ele>
        <time>2017-01-18T11:39:24.079Z</time>
      </trkpt>
      <trkpt lat="42.98962" lon="-0.00573">
        <ele>1629</ele>
        <time>2017-01-18T11:39:25.079Z</time>
      </trkpt>
      <trkpt lat="42.98961" lon="-0.00574">
        <ele>1629</ele>
        <time>2017-01-18T11:39:26.079Z</time>
      </trkpt>
      <trkpt lat="42.98961" lon="-0.00574">
        <ele>1629</ele>
        <time>2017-01-18T11:39:27.079Z</time>
      </trkpt>
      <trkpt lat="42.9896" lon="-0.00575">
        <ele>1629</ele>
        <time>2017-01-18T11:39:28.079Z</time>
      </trkpt>
      <trkpt lat="42.9896" lon="-0.00575">
        <ele>1629</ele>
        <time>2017-01-18T11:39:29.079Z</time>
      </trkpt>
      <trkpt lat="42.98959" lon="-0.00575">
        <ele>1629</ele>
        <time>2017-01-18T11:39:30.079Z</time>
      </trkpt>
      <trkpt lat="42.98959" lon="-0.00576">
        <ele>1628</ele>
        <time>2017-01-18T11:39:31.079Z</time>
      </trkpt>
      <trkpt lat="42.98958" lon="-0.00576">
        <ele>1629</ele>
        <time>2017-01-18T11:39:32.079Z</time>
      </trkpt>
      <trkpt lat="42.98958" lon="-0.00577">
        <ele>1628</ele>
        <time>2017-01-18T11:39:33.079Z</time>
      </trkpt>
      <trkpt lat="42.98957" lon="-0.00577">
        <ele>1628</ele>
        <time>2017-01-18T11:39:34.079Z</time>
      </trkpt>
      <trkpt lat="42.98957" lon="-0.00578">
        <ele>1628</ele>
        <time>2017-01-18T11:39:35.079Z</time>
      </trkpt>
      <trkpt lat="42.98956" lon="-0.00578">
        <ele>1628</ele>
        <time>2017-01-18T11:39:36.079Z</time>
      </trkpt>
      <trkpt lat="42.98956" lon="-0.00579">
        <ele>1628</ele>
        <time>2017-01-18T11:39:37.079Z</time>
      </trkpt>
      <trkpt lat="42.98955" lon="-0.00579">
        <ele>1628</ele>
        <time>2017-01-18T11:39:38.079Z</time>
      </trkpt>
      <trkpt lat="42.98955" lon="-0.0058">
        <ele>1628</ele>
        <time>2017-01-18T11:39:39.079Z</time>
      </trkpt>
      <trkpt lat="42.98954" lon="-0.0058">
        <ele>1627</ele>
        <time>2017-01-18T11:39:40.079Z</time>
      </trkpt>
      <trkpt lat="42.98954" lon="-0.00581">
        <ele>1627</ele>
        <time>2017-01-18T11:39:41.079Z</time>
      </trkpt>
      <trkpt lat="42.98953" lon="-0.00581">
        <ele>1627</ele>
        <time>2017-01-18T11:39:42.079Z</time>
      </trkpt>
      <trkpt lat="42.98953" lon="-0.00582">
        <ele>1627</ele>
        <time>2017-01-18T11:39:43.079Z</time>
      </trkpt>
      <trkpt lat="42.98952" lon="-0.00582">
        <ele>1626</ele>
        <time>2017-01-18T11:39:44.079Z</time>
      </trkpt>
      <trkpt lat="42.98952" lon="-0.00583">
        <ele>1626</ele>
        <time>2017-01-18T11:39:45.079Z</time>
      </trkpt>
      <trkpt lat="42.98951" lon="-0.00583">
        <ele>1626</ele>
        <time>2017-01-18T11:39:46.079Z</time>
      </trkpt>
      <trkpt lat="42.98951" lon="-0.00584">
        <ele>1626</ele>
        <time>2017-01-18T11:39:47.079Z</time>
      </trkpt>
      <trkpt lat="42.9895" lon="-0.00584">
        <ele>1626</ele>
        <time>2017-01-18T11:39:48.079Z</time>
      </trkpt>
      <trkpt lat="42.9895" lon="-0.00585">
        <ele>1626</ele>
        <time>2017-01-18T11:39:49.079Z</time>
      </trkpt>
      <trkpt lat="42.98949" lon="-0.00585">
        <ele>1626</ele>
        <time>2017-01-18T11:39:50.079Z</time>
      </trkpt>
      <trkpt lat="42.98949" lon="-0.00586">
        <ele>1625</ele>
        <time>2017-01-18T11:39:51.079Z</time>
      </trkpt>
      <trkpt lat="42.98948" lon="-0.00586">
        <ele>1625</ele>
        <time>2017-01-18T11:39:52.079Z</time>
      </trkpt>
      <trkpt lat="42.98948" lon="-0.00587">
        <ele>1625</ele>
        <time>2017-01-18T11:39:53.079Z</time>
      </trkpt>
      <trkpt lat="42.98947" lon="-0.00588">
        <ele>1625</ele>
        <time>2017-01-18T11:39:54.079Z</time>
      </trkpt>
      <trkpt lat="42.98947" lon="-0.00588">
        <ele>1625</ele>
        <time>2017-01-18T11:39:55.079Z</time>
      </trkpt>
      <trkpt lat="42.98946" lon="-0.00589">
        <ele>1624</ele>
        <time>2017-01-18T11:39:56.079Z</time>
      </trkpt>
      <trkpt lat="42.98946" lon="-0.00589">
        <ele>1624</ele>
        <time>2017-01-18T11:39:57.079Z</time>
      </trkpt>
      <trkpt lat="42.98945" lon="-0.0059">
        <ele>1624</ele>
        <time>2017-01-18T11:39:58.079Z</time>
      </trkpt>
      <trkpt lat="42.98945" lon="-0.00591">
        <ele>1623</ele>
        <time>2017-01-18T11:39:59.079Z</time>
      </trkpt>
      <trkpt lat="42.98945" lon="-0.00591">
        <ele>1623</ele>
        <time>2017-01-18T11:40:00.079Z</time>
      </trkpt>
      <trkpt lat="42.98944" lon="-0.00592">
        <ele>1623</ele>
        <time>2017-01-18T11:40:01.079Z</time>
      </trkpt>
      <trkpt lat="42.98944" lon="-0.00592">
        <ele>1623</ele>
        <time>2017-01-18T11:40:02.079Z</time>
      </trkpt>
      <trkpt lat="42.98943" lon="-0.00593">
        <ele>1623</ele>
        <time>2017-01-18T11:40:03.079Z</time>
      </trkpt>
      <trkpt lat="42.98943" lon="-0.00593">
        <ele>1622</ele>
        <time>2017-01-18T11:40:04.079Z</time>
      </trkpt>
      <trkpt lat="42.98942" lon="-0.00594">
        <ele>1622</ele>
        <time>2017-01-18T11:40:05.079Z</time>
      </trkpt>
      <trkpt lat="42.98942" lon="-0.00594">
        <ele>1622</ele>
        <time>2017-01-18T11:40:06.079Z</time>
      </trkpt>
      <trkpt lat="42.98941" lon="-0.00595">
        <ele>1622</ele>
        <time>2017-01-18T11:40:07.079Z</time>
      </trkpt>
      <trkpt lat="42.98941" lon="-0.00595">
        <ele>1622</ele>
        <time>2017-01-18T11:40:08.079Z</time>
      </trkpt>
      <trkpt lat="42.9894" lon="-0.00596">
        <ele>1621</ele>
        <time>2017-01-18T11:40:09.079Z</time>
      </trkpt>
      <trkpt lat="42.9894" lon="-0.00596">
        <ele>1621</ele>
        <time>2017-01-18T11:40:10.079Z</time>
      </trkpt>
      <trkpt lat="42.98939" lon="-0.00597">
        <ele>1621</ele>
        <time>2017-01-18T11:40:11.079Z</time>
      </trkpt>
      <trkpt lat="42.98939" lon="-0.00597">
        <ele>1621</ele>
        <time>2017-01-18T11:40:12.079Z</time>
      </trkpt>
      <trkpt lat="42.98939" lon="-0.00598">
        <ele>1621</ele>
        <time>2017-01-18T11:40:13.079Z</time>
      </trkpt>
      <trkpt lat="42.98938" lon="-0.00599">
        <ele>1620</ele>
        <time>2017-01-18T11:40:14.079Z</time>
      </trkpt>
      <trkpt lat="42.98938" lon="-0.00599">
        <ele>1620</ele>
        <time>2017-01-18T11:40:15.079Z</time>
      </trkpt>
      <trkpt lat="42.98938" lon="-0.006">
        <ele>1620</ele>
        <time>2017-01-18T11:40:16.079Z</time>
      </trkpt>
      <trkpt lat="42.98937" lon="-0.006">
        <ele>1620</ele>
        <time>2017-01-18T11:40:17.079Z</time>
      </trkpt>
      <trkpt lat="42.98936" lon="-0.00601">
        <ele>1620</ele>
        <time>2017-01-18T11:40:18.079Z</time>
      </trkpt>
      <trkpt lat="42.98936" lon="-0.00601">
        <ele>1620</ele>
        <time>2017-01-18T11:40:19.079Z</time>
      </trkpt>
      <trkpt lat="42.98935" lon="-0.00602">
        <ele>1619</ele>
        <time>2017-01-18T11:40:20.079Z</time>
      </trkpt>
      <trkpt lat="42.98935" lon="-0.00603">
        <ele>1619</ele>
        <time>2017-01-18T11:40:21.079Z</time>
      </trkpt>
      <trkpt lat="42.98934" lon="-0.00603">
        <ele>1619</ele>
        <time>2017-01-18T11:40:22.079Z</time>
      </trkpt>
      <trkpt lat="42.98934" lon="-0.00604">
        <ele>1619</ele>
        <time>2017-01-18T11:40:23.079Z</time>
      </trkpt>
      <trkpt lat="42.98933" lon="-0.00604">
        <ele>1618</ele>
        <time>2017-01-18T11:40:24.079Z</time>
      </trkpt>
      <trkpt lat="42.98933" lon="-0.00605">
        <ele>1618</ele>
        <time>2017-01-18T11:40:25.079Z</time>
      </trkpt>
      <trkpt lat="42.98932" lon="-0.00605">
        <ele>1618</ele>
        <time>2017-01-18T11:40:26.079Z</time>
      </trkpt>
      <trkpt lat="42.98931" lon="-0.00606">
        <ele>1618</ele>
        <time>2017-01-18T11:40:27.079Z</time>
      </trkpt>
      <trkpt lat="42.98931" lon="-0.00606">
        <ele>1618</ele>
        <time>2017-01-18T11:40:28.079Z</time>
      </trkpt>
      <trkpt lat="42.9893" lon="-0.00607">
        <ele>1618</ele>
        <time>2017-01-18T11:40:29.079Z</time>
      </trkpt>
      <trkpt lat="42.98929" lon="-0.00607">
        <ele>1617</ele>
        <time>2017-01-18T11:40:30.079Z</time>
      </trkpt>
      <trkpt lat="42.98929" lon="-0.00608">
        <ele>1617</ele>
        <time>2017-01-18T11:40:31.079Z</time>
      </trkpt>
      <trkpt lat="42.98928" lon="-0.00609">
        <ele>1617</ele>
        <time>2017-01-18T11:40:32.079Z</time>
      </trkpt>
      <trkpt lat="42.98927" lon="-0.00609">
        <ele>1616</ele>
        <time>2017-01-18T11:40:33.079Z</time>
      </trkpt>
      <trkpt lat="42.98927" lon="-0.0061">
        <ele>1616</ele>
        <time>2017-01-18T11:40:34.079Z</time>
      </trkpt>
      <trkpt lat="42.98926" lon="-0.00611">
        <ele>1616</ele>
        <time>2017-01-18T11:40:35.079Z</time>
      </trkpt>
      <trkpt lat="42.98926" lon="-0.00611">
        <ele>1616</ele>
        <time>2017-01-18T11:40:36.079Z</time>
      </trkpt>
      <trkpt lat="42.98925" lon="-0.00612">
        <ele>1615</ele>
        <time>2017-01-18T11:40:37.079Z</time>
      </trkpt>
      <trkpt lat="42.98924" lon="-0.00612">
        <ele>1615</ele>
        <time>2017-01-18T11:40:38.079Z</time>
      </trkpt>
      <trkpt lat="42.98924" lon="-0.00613">
        <ele>1615</ele>
        <time>2017-01-18T11:40:39.079Z</time>
      </trkpt>
      <trkpt lat="42.98923" lon="-0.00614">
        <ele>1615</ele>
        <time>2017-01-18T11:40:40.079Z</time>
      </trkpt>
      <trkpt lat="42.98923" lon="-0.00614">
        <ele>1614</ele>
        <time>2017-01-18T11:40:41.079Z</time>
      </trkpt>
      <trkpt lat="42.98922" lon="-0.00615">
        <ele>1614</ele>
        <time>2017-01-18T11:40:42.079Z</time>
      </trkpt>
      <trkpt lat="42.98921" lon="-0.00616">
        <ele>1614</ele>
        <time>2017-01-18T11:40:43.079Z</time>
      </trkpt>
      <trkpt lat="42.98921" lon="-0.00617">
        <ele>1613</ele>
        <time>2017-01-18T11:40:44.079Z</time>
      </trkpt>
      <trkpt lat="42.9892" lon="-0.00618">
        <ele>1613</ele>
        <time>2017-01-18T11:40:45.079Z</time>
      </trkpt>
      <trkpt lat="42.9892" lon="-0.00618">
        <ele>1613</ele>
        <time>2017-01-18T11:40:46.079Z</time>
      </trkpt>
      <trkpt lat="42.98919" lon="-0.00619">
        <ele>1613</ele>
        <time>2017-01-18T11:40:47.079Z</time>
      </trkpt>
      <trkpt lat="42.98919" lon="-0.0062">
        <ele>1613</ele>
        <time>2017-01-18T11:40:48.079Z</time>
      </trkpt>
      <trkpt lat="42.98918" lon="-0.00621">
        <ele>1612</ele>
        <time>2017-01-18T11:40:49.079Z</time>
      </trkpt>
      <trkpt lat="42.98918" lon="-0.00622">
        <ele>1612</ele>
        <time>2017-01-18T11:40:50.079Z</time>
      </trkpt>
      <trkpt lat="42.98917" lon="-0.00623">
        <ele>1612</ele>
        <time>2017-01-18T11:40:51.079Z</time>
      </trkpt>
      <trkpt lat="42.98917" lon="-0.00623">
        <ele>1612</ele>
        <time>2017-01-18T11:40:52.079Z</time>
      </trkpt>
      <trkpt lat="42.98916" lon="-0.00624">
        <ele>1611</ele>
        <time>2017-01-18T11:40:53.079Z</time>
      </trkpt>
      <trkpt lat="42.98915" lon="-0.00625">
        <ele>1611</ele>
        <time>2017-01-18T11:40:54.079Z</time>
      </trkpt>
      <trkpt lat="42.98915" lon="-0.00625">
        <ele>1611</ele>
        <time>2017-01-18T11:40:55.079Z</time>
      </trkpt>
      <trkpt lat="42.98914" lon="-0.00626">
        <ele>1611</ele>
        <time>2017-01-18T11:40:56.079Z</time>
      </trkpt>
      <trkpt lat="42.98913" lon="-0.00627">
        <ele>1611</ele>
        <time>2017-01-18T11:40:57.079Z</time>
      </trkpt>
      <trkpt lat="42.98913" lon="-0.00627">
        <ele>1611</ele>
        <time>2017-01-18T11:40:58.079Z</time>
      </trkpt>
      <trkpt lat="42.98912" lon="-0.00628">
        <ele>1611</ele>
        <time>2017-01-18T11:40:59.079Z</time>
      </trkpt>
      <trkpt lat="42.98912" lon="-0.00629">
        <ele>1611</ele>
        <time>2017-01-18T11:41:00.079Z</time>
      </trkpt>
      <trkpt lat="42.98911" lon="-0.0063">
        <ele>1610</ele>
        <time>2017-01-18T11:41:01.079Z</time>
      </trkpt>
      <trkpt lat="42.98911" lon="-0.0063">
        <ele>1610</ele>
        <time>2017-01-18T11:41:02.079Z</time>
      </trkpt>
      <trkpt lat="42.98911" lon="-0.00631">
        <ele>1610</ele>
        <time>2017-01-18T11:41:03.079Z</time>
      </trkpt>
      <trkpt lat="42.98911" lon="-0.00632">
        <ele>1610</ele>
        <time>2017-01-18T11:41:04.079Z</time>
      </trkpt>
      <trkpt lat="42.9891" lon="-0.00632">
        <ele>1610</ele>
        <time>2017-01-18T11:41:05.079Z</time>
      </trkpt>
      <trkpt lat="42.9891" lon="-0.00633">
        <ele>1610</ele>
        <time>2017-01-18T11:41:06.079Z</time>
      </trkpt>
      <trkpt lat="42.98909" lon="-0.00633">
        <ele>1610</ele>
        <time>2017-01-18T11:41:07.079Z</time>
      </trkpt>
      <trkpt lat="42.98909" lon="-0.00634">
        <ele>1610</ele>
        <time>2017-01-18T11:41:08.079Z</time>
      </trkpt>
      <trkpt lat="42.98909" lon="-0.00634">
        <ele>1610</ele>
        <time>2017-01-18T11:41:09.079Z</time>
      </trkpt>
      <trkpt lat="42.98908" lon="-0.00635">
        <ele>1609</ele>
        <time>2017-01-18T11:41:10.079Z</time>
      </trkpt>
      <trkpt lat="42.98908" lon="-0.00636">
        <ele>1609</ele>
        <time>2017-01-18T11:41:11.079Z</time>
      </trkpt>
      <trkpt lat="42.98908" lon="-0.00636">
        <ele>1609</ele>
        <time>2017-01-18T11:41:12.079Z</time>
      </trkpt>
      <trkpt lat="42.98907" lon="-0.00637">
        <ele>1609</ele>
        <time>2017-01-18T11:41:13.079Z</time>
      </trkpt>
      <trkpt lat="42.98907" lon="-0.00637">
        <ele>1608</ele>
        <time>2017-01-18T11:41:14.079Z</time>
      </trkpt>
      <trkpt lat="42.98907" lon="-0.00638">
        <ele>1608</ele>
        <time>2017-01-18T11:41:15.079Z</time>
      </trkpt>
      <trkpt lat="42.98907" lon="-0.00638">
        <ele>1608</ele>
        <time>2017-01-18T11:41:16.079Z</time>
      </trkpt>
      <trkpt lat="42.98906" lon="-0.00639">
        <ele>1608</ele>
        <time>2017-01-18T11:41:17.079Z</time>
      </trkpt>
      <trkpt lat="42.98906" lon="-0.0064">
        <ele>1608</ele>
        <time>2017-01-18T11:41:18.079Z</time>
      </trkpt>
      <trkpt lat="42.98906" lon="-0.00641">
        <ele>1608</ele>
        <time>2017-01-18T11:41:19.079Z</time>
      </trkpt>
      <trkpt lat="42.98906" lon="-0.00641">
        <ele>1607</ele>
        <time>2017-01-18T11:41:20.079Z</time>
      </trkpt>
      <trkpt lat="42.98906" lon="-0.00642">
        <ele>1607</ele>
        <time>2017-01-18T11:41:21.079Z</time>
      </trkpt>
      <trkpt lat="42.98906" lon="-0.00643">
        <ele>1607</ele>
        <time>2017-01-18T11:41:22.079Z</time>
      </trkpt>
      <trkpt lat="42.98906" lon="-0.00643">
        <ele>1607</ele>
        <time>2017-01-18T11:41:23.079Z</time>
      </trkpt>
      <trkpt lat="42.98906" lon="-0.00644">
        <ele>1606</ele>
        <time>2017-01-18T11:41:24.079Z</time>
      </trkpt>
      <trkpt lat="42.98905" lon="-0.00645">
        <ele>1606</ele>
        <time>2017-01-18T11:41:25.079Z</time>
      </trkpt>
      <trkpt lat="42.98905" lon="-0.00645">
        <ele>1606</ele>
        <time>2017-01-18T11:41:26.079Z</time>
      </trkpt>
      <trkpt lat="42.98905" lon="-0.00646">
        <ele>1606</ele>
        <time>2017-01-18T11:41:27.079Z</time>
      </trkpt>
      <trkpt lat="42.98905" lon="-0.00647">
        <ele>1605</ele>
        <time>2017-01-18T11:41:28.079Z</time>
      </trkpt>
      <trkpt lat="42.98905" lon="-0.00648">
        <ele>1605</ele>
        <time>2017-01-18T11:41:29.079Z</time>
      </trkpt>
      <trkpt lat="42.98905" lon="-0.00649">
        <ele>1604</ele>
        <time>2017-01-18T11:41:30.079Z</time>
      </trkpt>
      <trkpt lat="42.98905" lon="-0.0065">
        <ele>1604</ele>
        <time>2017-01-18T11:41:31.079Z</time>
      </trkpt>
      <trkpt lat="42.98905" lon="-0.00651">
        <ele>1604</ele>
        <time>2017-01-18T11:41:32.079Z</time>
      </trkpt>
      <trkpt lat="42.98905" lon="-0.00652">
        <ele>1604</ele>
        <time>2017-01-18T11:41:33.079Z</time>
      </trkpt>
      <trkpt lat="42.98905" lon="-0.00653">
        <ele>1604</ele>
        <time>2017-01-18T11:41:34.079Z</time>
      </trkpt>
      <trkpt lat="42.98905" lon="-0.00654">
        <ele>1603</ele>
        <time>2017-01-18T11:41:35.079Z</time>
      </trkpt>
      <trkpt lat="42.98905" lon="-0.00655">
        <ele>1603</ele>
        <time>2017-01-18T11:41:36.079Z</time>
      </trkpt>
      <trkpt lat="42.98905" lon="-0.00656">
        <ele>1603</ele>
        <time>2017-01-18T11:41:37.079Z</time>
      </trkpt>
      <trkpt lat="42.98904" lon="-0.00657">
        <ele>1603</ele>
        <time>2017-01-18T11:41:38.079Z</time>
      </trkpt>
      <trkpt lat="42.98904" lon="-0.00657">
        <ele>1603</ele>
        <time>2017-01-18T11:41:39.079Z</time>
      </trkpt>
      <trkpt lat="42.98904" lon="-0.00658">
        <ele>1602</ele>
        <time>2017-01-18T11:41:40.079Z</time>
      </trkpt>
      <trkpt lat="42.98904" lon="-0.00659">
        <ele>1602</ele>
        <time>2017-01-18T11:41:41.079Z</time>
      </trkpt>
      <trkpt lat="42.98905" lon="-0.0066">
        <ele>1602</ele>
        <time>2017-01-18T11:41:42.079Z</time>
      </trkpt>
      <trkpt lat="42.98905" lon="-0.00661">
        <ele>1601</ele>
        <time>2017-01-18T11:41:43.079Z</time>
      </trkpt>
      <trkpt lat="42.98905" lon="-0.00662">
        <ele>1601</ele>
        <time>2017-01-18T11:41:44.079Z</time>
      </trkpt>
      <trkpt lat="42.98905" lon="-0.00663">
        <ele>1601</ele>
        <time>2017-01-18T11:41:45.079Z</time>
      </trkpt>
      <trkpt lat="42.98905" lon="-0.00664">
        <ele>1600</ele>
        <time>2017-01-18T11:41:46.079Z</time>
      </trkpt>
      <trkpt lat="42.98905" lon="-0.00665">
        <ele>1600</ele>
        <time>2017-01-18T11:41:47.079Z</time>
      </trkpt>
      <trkpt lat="42.98905" lon="-0.00666">
        <ele>1600</ele>
        <time>2017-01-18T11:41:48.079Z</time>
      </trkpt>
      <trkpt lat="42.98904" lon="-0.00667">
        <ele>1599</ele>
        <time>2017-01-18T11:41:49.079Z</time>
      </trkpt>
      <trkpt lat="42.98904" lon="-0.00668">
        <ele>1599</ele>
        <time>2017-01-18T11:41:50.079Z</time>
      </trkpt>
      <trkpt lat="42.98903" lon="-0.00668">
        <ele>1599</ele>
        <time>2017-01-18T11:41:51.079Z</time>
      </trkpt>
      <trkpt lat="42.98903" lon="-0.00669">
        <ele>1599</ele>
        <time>2017-01-18T11:41:52.079Z</time>
      </trkpt>
      <trkpt lat="42.98902" lon="-0.00669">
        <ele>1598</ele>
        <time>2017-01-18T11:41:53.079Z</time>
      </trkpt>
      <trkpt lat="42.98902" lon="-0.0067">
        <ele>1598</ele>
        <time>2017-01-18T11:41:54.079Z</time>
      </trkpt>
      <trkpt lat="42.98901" lon="-0.00671">
        <ele>1598</ele>
        <time>2017-01-18T11:41:55.079Z</time>
      </trkpt>
      <trkpt lat="42.989" lon="-0.00672">
        <ele>1598</ele>
        <time>2017-01-18T11:41:56.079Z</time>
      </trkpt>
      <trkpt lat="42.989" lon="-0.00673">
        <ele>1597</ele>
        <time>2017-01-18T11:41:57.079Z</time>
      </trkpt>
      <trkpt lat="42.98899" lon="-0.00674">
        <ele>1597</ele>
        <time>2017-01-18T11:41:58.079Z</time>
      </trkpt>
      <trkpt lat="42.98899" lon="-0.00675">
        <ele>1597</ele>
        <time>2017-01-18T11:41:59.079Z</time>
      </trkpt>
      <trkpt lat="42.98898" lon="-0.00676">
        <ele>1597</ele>
        <time>2017-01-18T11:42:00.079Z</time>
      </trkpt>
      <trkpt lat="42.98898" lon="-0.00677">
        <ele>1597</ele>
        <time>2017-01-18T11:42:01.079Z</time>
      </trkpt>
      <trkpt lat="42.98897" lon="-0.00677">
        <ele>1597</ele>
        <time>2017-01-18T11:42:02.079Z</time>
      </trkpt>
      <trkpt lat="42.98897" lon="-0.00678">
        <ele>1596</ele>
        <time>2017-01-18T11:42:03.079Z</time>
      </trkpt>
      <trkpt lat="42.98896" lon="-0.00679">
        <ele>1597</ele>
        <time>2017-01-18T11:42:04.079Z</time>
      </trkpt>
      <trkpt lat="42.98896" lon="-0.0068">
        <ele>1596</ele>
        <time>2017-01-18T11:42:05.079Z</time>
      </trkpt>
      <trkpt lat="42.98895" lon="-0.0068">
        <ele>1596</ele>
        <time>2017-01-18T11:42:06.079Z</time>
      </trkpt>
      <trkpt lat="42.98895" lon="-0.00681">
        <ele>1596</ele>
        <time>2017-01-18T11:42:07.079Z</time>
      </trkpt>
      <trkpt lat="42.98894" lon="-0.00682">
        <ele>1595</ele>
        <time>2017-01-18T11:42:08.079Z</time>
      </trkpt>
      <trkpt lat="42.98893" lon="-0.00683">
        <ele>1596</ele>
        <time>2017-01-18T11:42:09.079Z</time>
      </trkpt>
      <trkpt lat="42.98892" lon="-0.00683">
        <ele>1595</ele>
        <time>2017-01-18T11:42:10.079Z</time>
      </trkpt>
      <trkpt lat="42.98892" lon="-0.00684">
        <ele>1595</ele>
        <time>2017-01-18T11:42:11.079Z</time>
      </trkpt>
      <trkpt lat="42.98891" lon="-0.00685">
        <ele>1595</ele>
        <time>2017-01-18T11:42:12.079Z</time>
      </trkpt>
      <trkpt lat="42.9889" lon="-0.00685">
        <ele>1594</ele>
        <time>2017-01-18T11:42:13.079Z</time>
      </trkpt>
      <trkpt lat="42.9889" lon="-0.00686">
        <ele>1594</ele>
        <time>2017-01-18T11:42:14.079Z</time>
      </trkpt>
      <trkpt lat="42.98889" lon="-0.00687">
        <ele>1594</ele>
        <time>2017-01-18T11:42:15.079Z</time>
      </trkpt>
      <trkpt lat="42.98889" lon="-0.00688">
        <ele>1594</ele>
        <time>2017-01-18T11:42:16.079Z</time>
      </trkpt>
      <trkpt lat="42.98888" lon="-0.00689">
        <ele>1594</ele>
        <time>2017-01-18T11:42:17.079Z</time>
      </trkpt>
      <trkpt lat="42.98887" lon="-0.0069">
        <ele>1593</ele>
        <time>2017-01-18T11:42:18.079Z</time>
      </trkpt>
      <trkpt lat="42.98887" lon="-0.00691">
        <ele>1593</ele>
        <time>2017-01-18T11:42:19.079Z</time>
      </trkpt>
      <trkpt lat="42.98886" lon="-0.00692">
        <ele>1593</ele>
        <time>2017-01-18T11:42:20.079Z</time>
      </trkpt>
      <trkpt lat="42.98886" lon="-0.00693">
        <ele>1593</ele>
        <time>2017-01-18T11:42:21.079Z</time>
      </trkpt>
      <trkpt lat="42.98885" lon="-0.00694">
        <ele>1592</ele>
        <time>2017-01-18T11:42:22.079Z</time>
      </trkpt>
      <trkpt lat="42.98884" lon="-0.00695">
        <ele>1592</ele>
        <time>2017-01-18T11:42:23.079Z</time>
      </trkpt>
      <trkpt lat="42.98884" lon="-0.00695">
        <ele>1592</ele>
        <time>2017-01-18T11:42:24.079Z</time>
      </trkpt>
      <trkpt lat="42.98883" lon="-0.00696">
        <ele>1592</ele>
        <time>2017-01-18T11:42:25.079Z</time>
      </trkpt>
      <trkpt lat="42.98882" lon="-0.00696">
        <ele>1592</ele>
        <time>2017-01-18T11:42:26.079Z</time>
      </trkpt>
      <trkpt lat="42.98882" lon="-0.00697">
        <ele>1592</ele>
        <time>2017-01-18T11:42:27.079Z</time>
      </trkpt>
      <trkpt lat="42.98881" lon="-0.00697">
        <ele>1592</ele>
        <time>2017-01-18T11:42:28.079Z</time>
      </trkpt>
      <trkpt lat="42.9888" lon="-0.00698">
        <ele>1592</ele>
        <time>2017-01-18T11:42:29.079Z</time>
      </trkpt>
      <trkpt lat="42.9888" lon="-0.00698">
        <ele>1591</ele>
        <time>2017-01-18T11:42:30.079Z</time>
      </trkpt>
      <trkpt lat="42.98879" lon="-0.00699">
        <ele>1591</ele>
        <time>2017-01-18T11:42:31.079Z</time>
      </trkpt>
      <trkpt lat="42.98879" lon="-0.00699">
        <ele>1591</ele>
        <time>2017-01-18T11:42:32.079Z</time>
      </trkpt>
      <trkpt lat="42.98878" lon="-0.007">
        <ele>1591</ele>
        <time>2017-01-18T11:42:33.079Z</time>
      </trkpt>
      <trkpt lat="42.98877" lon="-0.007">
        <ele>1591</ele>
        <time>2017-01-18T11:42:34.079Z</time>
      </trkpt>
      <trkpt lat="42.98877" lon="-0.00701">
        <ele>1591</ele>
        <time>2017-01-18T11:42:35.079Z</time>
      </trkpt>
      <trkpt lat="42.98876" lon="-0.00701">
        <ele>1591</ele>
        <time>2017-01-18T11:42:36.079Z</time>
      </trkpt>
      <trkpt lat="42.98876" lon="-0.00702">
        <ele>1591</ele>
        <time>2017-01-18T11:42:37.079Z</time>
      </trkpt>
      <trkpt lat="42.98875" lon="-0.00703">
        <ele>1591</ele>
        <time>2017-01-18T11:42:38.079Z</time>
      </trkpt>
      <trkpt lat="42.98875" lon="-0.00703">
        <ele>1591</ele>
        <time>2017-01-18T11:42:39.079Z</time>
      </trkpt>
      <trkpt lat="42.98874" lon="-0.00703">
        <ele>1591</ele>
        <time>2017-01-18T11:42:40.079Z</time>
      </trkpt>
      <trkpt lat="42.98874" lon="-0.00703">
        <ele>1590</ele>
        <time>2017-01-18T11:42:41.079Z</time>
      </trkpt>
      <trkpt lat="42.98873" lon="-0.00704">
        <ele>1590</ele>
        <time>2017-01-18T11:42:42.079Z</time>
      </trkpt>
      <trkpt lat="42.98873" lon="-0.00704">
        <ele>1590</ele>
        <time>2017-01-18T11:42:43.079Z</time>
      </trkpt>
      <trkpt lat="42.98872" lon="-0.00704">
        <ele>1590</ele>
        <time>2017-01-18T11:42:44.079Z</time>
      </trkpt>
      <trkpt lat="42.98872" lon="-0.00704">
        <ele>1590</ele>
        <time>2017-01-18T11:42:45.079Z</time>
      </trkpt>
      <trkpt lat="42.98871" lon="-0.00704">
        <ele>1590</ele>
        <time>2017-01-18T11:42:46.079Z</time>
      </trkpt>
      <trkpt lat="42.98871" lon="-0.00705">
        <ele>1590</ele>
        <time>2017-01-18T11:42:47.079Z</time>
      </trkpt>
      <trkpt lat="42.9887" lon="-0.00705">
        <ele>1590</ele>
        <time>2017-01-18T11:42:48.079Z</time>
      </trkpt>
      <trkpt lat="42.9887" lon="-0.00705">
        <ele>1590</ele>
        <time>2017-01-18T11:42:49.079Z</time>
      </trkpt>
      <trkpt lat="42.98869" lon="-0.00706">
        <ele>1590</ele>
        <time>2017-01-18T11:42:50.079Z</time>
      </trkpt>
      <trkpt lat="42.98869" lon="-0.00706">
        <ele>1590</ele>
        <time>2017-01-18T11:42:51.079Z</time>
      </trkpt>
      <trkpt lat="42.98868" lon="-0.00707">
        <ele>1590</ele>
        <time>2017-01-18T11:42:52.079Z</time>
      </trkpt>
      <trkpt lat="42.98868" lon="-0.00707">
        <ele>1590</ele>
        <time>2017-01-18T11:42:53.079Z</time>
      </trkpt>
      <trkpt lat="42.98867" lon="-0.00707">
        <ele>1590</ele>
        <time>2017-01-18T11:42:54.079Z</time>
      </trkpt>
      <trkpt lat="42.98867" lon="-0.00707">
        <ele>1591</ele>
        <time>2017-01-18T11:42:55.079Z</time>
      </trkpt>
      <trkpt lat="42.98867" lon="-0.00708">
        <ele>1591</ele>
        <time>2017-01-18T11:42:56.079Z</time>
      </trkpt>
      <trkpt lat="42.98866" lon="-0.00708">
        <ele>1591</ele>
        <time>2017-01-18T11:42:57.079Z</time>
      </trkpt>
      <trkpt lat="42.98866" lon="-0.00708">
        <ele>1591</ele>
        <time>2017-01-18T11:42:58.079Z</time>
      </trkpt>
      <trkpt lat="42.98866" lon="-0.00708">
        <ele>1591</ele>
        <time>2017-01-18T11:42:59.079Z</time>
      </trkpt>
      <trkpt lat="42.98865" lon="-0.00708">
        <ele>1591</ele>
        <time>2017-01-18T11:43:00.079Z</time>
      </trkpt>
      <trkpt lat="42.98865" lon="-0.00709">
        <ele>1591</ele>
        <time>2017-01-18T11:43:01.079Z</time>
      </trkpt>
      <trkpt lat="42.98864" lon="-0.00709">
        <ele>1591</ele>
        <time>2017-01-18T11:43:02.079Z</time>
      </trkpt>
      <trkpt lat="42.98863" lon="-0.00709">
        <ele>1592</ele>
        <time>2017-01-18T11:43:03.079Z</time>
      </trkpt>
      <trkpt lat="42.98863" lon="-0.00709">
        <ele>1592</ele>
        <time>2017-01-18T11:43:04.079Z</time>
      </trkpt>
      <trkpt lat="42.98862" lon="-0.0071">
        <ele>1592</ele>
        <time>2017-01-18T11:43:05.079Z</time>
      </trkpt>
      <trkpt lat="42.98862" lon="-0.0071">
        <ele>1592</ele>
        <time>2017-01-18T11:43:06.079Z</time>
      </trkpt>
      <trkpt lat="42.98861" lon="-0.00711">
        <ele>1593</ele>
        <time>2017-01-18T11:43:07.079Z</time>
      </trkpt>
      <trkpt lat="42.9886" lon="-0.00711">
        <ele>1593</ele>
        <time>2017-01-18T11:43:08.079Z</time>
      </trkpt>
      <trkpt lat="42.98859" lon="-0.00712">
        <ele>1593</ele>
        <time>2017-01-18T11:43:09.079Z</time>
      </trkpt>
      <trkpt lat="42.98859" lon="-0.00712">
        <ele>1593</ele>
        <time>2017-01-18T11:43:10.079Z</time>
      </trkpt>
      <trkpt lat="42.98858" lon="-0.00713">
        <ele>1594</ele>
        <time>2017-01-18T11:43:11.079Z</time>
      </trkpt>
      <trkpt lat="42.98858" lon="-0.00713">
        <ele>1593</ele>
        <time>2017-01-18T11:43:12.079Z</time>
      </trkpt>
      <trkpt lat="42.98857" lon="-0.00714">
        <ele>1594</ele>
        <time>2017-01-18T11:43:13.079Z</time>
      </trkpt>
      <trkpt lat="42.98856" lon="-0.00714">
        <ele>1594</ele>
        <time>2017-01-18T11:43:14.079Z</time>
      </trkpt>
      <trkpt lat="42.98856" lon="-0.00715">
        <ele>1594</ele>
        <time>2017-01-18T11:43:15.079Z</time>
      </trkpt>
      <trkpt lat="42.98855" lon="-0.00715">
        <ele>1594</ele>
        <time>2017-01-18T11:43:16.079Z</time>
      </trkpt>
      <trkpt lat="42.98854" lon="-0.00716">
        <ele>1594</ele>
        <time>2017-01-18T11:43:17.079Z</time>
      </trkpt>
      <trkpt lat="42.98854" lon="-0.00716">
        <ele>1594</ele>
        <time>2017-01-18T11:43:18.079Z</time>
      </trkpt>
      <trkpt lat="42.98853" lon="-0.00717">
        <ele>1594</ele>
        <time>2017-01-18T11:43:19.079Z</time>
      </trkpt>
      <trkpt lat="42.98853" lon="-0.00717">
        <ele>1594</ele>
        <time>2017-01-18T11:43:20.079Z</time>
      </trkpt>
      <trkpt lat="42.98852" lon="-0.00717">
        <ele>1594</ele>
        <time>2017-01-18T11:43:21.079Z</time>
      </trkpt>
      <trkpt lat="42.98851" lon="-0.00717">
        <ele>1594</ele>
        <time>2017-01-18T11:43:22.079Z</time>
      </trkpt>
      <trkpt lat="42.98851" lon="-0.00718">
        <ele>1594</ele>
        <time>2017-01-18T11:43:23.079Z</time>
      </trkpt>
      <trkpt lat="42.9885" lon="-0.00718">
        <ele>1594</ele>
        <time>2017-01-18T11:43:24.079Z</time>
      </trkpt>
      <trkpt lat="42.98849" lon="-0.00718">
        <ele>1594</ele>
        <time>2017-01-18T11:43:25.079Z</time>
      </trkpt>
      <trkpt lat="42.98849" lon="-0.00718">
        <ele>1594</ele>
        <time>2017-01-18T11:43:26.079Z</time>
      </trkpt>
      <trkpt lat="42.98848" lon="-0.00718">
        <ele>1594</ele>
        <time>2017-01-18T11:43:27.079Z</time>
      </trkpt>
      <trkpt lat="42.98848" lon="-0.00719">
        <ele>1594</ele>
        <time>2017-01-18T11:43:28.079Z</time>
      </trkpt>
      <trkpt lat="42.98848" lon="-0.00719">
        <ele>1594</ele>
        <time>2017-01-18T11:43:29.079Z</time>
      </trkpt>
      <trkpt lat="42.98848" lon="-0.00719">
        <ele>1594</ele>
        <time>2017-01-18T11:43:30.079Z</time>
      </trkpt>
      <trkpt lat="42.98848" lon="-0.00719">
        <ele>1593</ele>
        <time>2017-01-18T11:43:31.079Z</time>
      </trkpt>
      <trkpt lat="42.98848" lon="-0.00719">
        <ele>1593</ele>
        <time>2017-01-18T11:43:32.079Z</time>
      </trkpt>
      <trkpt lat="42.98848" lon="-0.00719">
        <ele>1593</ele>
        <time>2017-01-18T11:43:33.079Z</time>
      </trkpt>
      <trkpt lat="42.98848" lon="-0.00719">
        <ele>1593</ele>
        <time>2017-01-18T11:43:34.079Z</time>
      </trkpt>
      <trkpt lat="42.98847" lon="-0.00719">
        <ele>1593</ele>
        <time>2017-01-18T11:43:36.075Z</time>
      </trkpt>
      <trkpt lat="42.98846" lon="-0.0072">
        <ele>1593</ele>
        <time>2017-01-18T11:43:37.075Z</time>
      </trkpt>
      <trkpt lat="42.98845" lon="-0.0072">
        <ele>1593</ele>
        <time>2017-01-18T11:43:38.075Z</time>
      </trkpt>
      <trkpt lat="42.98844" lon="-0.00721">
        <ele>1593</ele>
        <time>2017-01-18T11:43:39.075Z</time>
      </trkpt>
      <trkpt lat="42.98844" lon="-0.00721">
        <ele>1593</ele>
        <time>2017-01-18T11:43:40.075Z</time>
      </trkpt>
      <trkpt lat="42.98843" lon="-0.00721">
        <ele>1593</ele>
        <time>2017-01-18T11:43:41.075Z</time>
      </trkpt>
      <trkpt lat="42.98843" lon="-0.00722">
        <ele>1593</ele>
        <time>2017-01-18T11:43:42.075Z</time>
      </trkpt>
      <trkpt lat="42.98842" lon="-0.00722">
        <ele>1593</ele>
        <time>2017-01-18T11:43:43.075Z</time>
      </trkpt>
      <trkpt lat="42.98842" lon="-0.00723">
        <ele>1593</ele>
        <time>2017-01-18T11:43:44.075Z</time>
      </trkpt>
      <trkpt lat="42.98841" lon="-0.00723">
        <ele>1593</ele>
        <time>2017-01-18T11:43:45.075Z</time>
      </trkpt>
      <trkpt lat="42.9884" lon="-0.00723">
        <ele>1593</ele>
        <time>2017-01-18T11:43:46.075Z</time>
      </trkpt>
      <trkpt lat="42.98839" lon="-0.00722">
        <ele>1594</ele>
        <time>2017-01-18T11:43:47.075Z</time>
      </trkpt>
      <trkpt lat="42.98839" lon="-0.00722">
        <ele>1594</ele>
        <time>2017-01-18T11:43:48.075Z</time>
      </trkpt>
      <trkpt lat="42.98838" lon="-0.00722">
        <ele>1594</ele>
        <time>2017-01-18T11:43:49.075Z</time>
      </trkpt>
      <trkpt lat="42.98837" lon="-0.00722">
        <ele>1594</ele>
        <time>2017-01-18T11:43:50.075Z</time>
      </trkpt>
      <trkpt lat="42.98836" lon="-0.00721">
        <ele>1593</ele>
        <time>2017-01-18T11:43:51.075Z</time>
      </trkpt>
      <trkpt lat="42.98835" lon="-0.00721">
        <ele>1594</ele>
        <time>2017-01-18T11:43:52.075Z</time>
      </trkpt>
      <trkpt lat="42.98834" lon="-0.00721">
        <ele>1594</ele>
        <time>2017-01-18T11:43:53.075Z</time>
      </trkpt>
      <trkpt lat="42.98833" lon="-0.00721">
        <ele>1593</ele>
        <time>2017-01-18T11:43:54.075Z</time>
      </trkpt>
      <trkpt lat="42.98832" lon="-0.00721">
        <ele>1594</ele>
        <time>2017-01-18T11:43:55.075Z</time>
      </trkpt>
      <trkpt lat="42.98831" lon="-0.00721">
        <ele>1593</ele>
        <time>2017-01-18T11:43:56.075Z</time>
      </trkpt>
      <trkpt lat="42.9883" lon="-0.00721">
        <ele>1593</ele>
        <time>2017-01-18T11:43:57.075Z</time>
      </trkpt>
      <trkpt lat="42.9883" lon="-0.0072">
        <ele>1593</ele>
        <time>2017-01-18T11:43:58.075Z</time>
      </trkpt>
      <trkpt lat="42.98829" lon="-0.0072">
        <ele>1593</ele>
        <time>2017-01-18T11:43:59.075Z</time>
      </trkpt>
      <trkpt lat="42.98828" lon="-0.0072">
        <ele>1593</ele>
        <time>2017-01-18T11:44:00.075Z</time>
      </trkpt>
      <trkpt lat="42.98827" lon="-0.0072">
        <ele>1593</ele>
        <time>2017-01-18T11:44:01.075Z</time>
      </trkpt>
      <trkpt lat="42.98826" lon="-0.0072">
        <ele>1593</ele>
        <time>2017-01-18T11:44:02.075Z</time>
      </trkpt>
      <trkpt lat="42.98825" lon="-0.0072">
        <ele>1593</ele>
        <time>2017-01-18T11:44:03.075Z</time>
      </trkpt>
      <trkpt lat="42.98824" lon="-0.0072">
        <ele>1594</ele>
        <time>2017-01-18T11:44:04.075Z</time>
      </trkpt>
      <trkpt lat="42.98823" lon="-0.0072">
        <ele>1594</ele>
        <time>2017-01-18T11:44:05.075Z</time>
      </trkpt>
      <trkpt lat="42.98822" lon="-0.00719">
        <ele>1594</ele>
        <time>2017-01-18T11:44:06.075Z</time>
      </trkpt>
      <trkpt lat="42.98821" lon="-0.00719">
        <ele>1594</ele>
        <time>2017-01-18T11:44:07.075Z</time>
      </trkpt>
      <trkpt lat="42.9882" lon="-0.00719">
        <ele>1594</ele>
        <time>2017-01-18T11:44:08.075Z</time>
      </trkpt>
      <trkpt lat="42.98819" lon="-0.00719">
        <ele>1593</ele>
        <time>2017-01-18T11:44:09.075Z</time>
      </trkpt>
      <trkpt lat="42.98818" lon="-0.00719">
        <ele>1594</ele>
        <time>2017-01-18T11:44:10.075Z</time>
      </trkpt>
      <trkpt lat="42.98817" lon="-0.00719">
        <ele>1594</ele>
        <time>2017-01-18T11:44:11.075Z</time>
      </trkpt>
      <trkpt lat="42.98817" lon="-0.00719">
        <ele>1594</ele>
        <time>2017-01-18T11:44:12.075Z</time>
      </trkpt>
      <trkpt lat="42.98816" lon="-0.00719">
        <ele>1594</ele>
        <time>2017-01-18T11:44:13.075Z</time>
      </trkpt>
      <trkpt lat="42.98815" lon="-0.00718">
        <ele>1594</ele>
        <time>2017-01-18T11:44:14.075Z</time>
      </trkpt>
      <trkpt lat="42.98814" lon="-0.00718">
        <ele>1594</ele>
        <time>2017-01-18T11:44:15.075Z</time>
      </trkpt>
      <trkpt lat="42.98813" lon="-0.00718">
        <ele>1594</ele>
        <time>2017-01-18T11:44:16.075Z</time>
      </trkpt>
      <trkpt lat="42.98812" lon="-0.00718">
        <ele>1594</ele>
        <time>2017-01-18T11:44:17.075Z</time>
      </trkpt>
      <trkpt lat="42.98811" lon="-0.00718">
        <ele>1593</ele>
        <time>2017-01-18T11:44:18.075Z</time>
      </trkpt>
      <trkpt lat="42.9881" lon="-0.00718">
        <ele>1593</ele>
        <time>2017-01-18T11:44:19.075Z</time>
      </trkpt>
      <trkpt lat="42.9881" lon="-0.00717">
        <ele>1593</ele>
        <time>2017-01-18T11:44:20.075Z</time>
      </trkpt>
      <trkpt lat="42.98809" lon="-0.00717">
        <ele>1593</ele>
        <time>2017-01-18T11:44:21.075Z</time>
      </trkpt>
      <trkpt lat="42.98808" lon="-0.00717">
        <ele>1593</ele>
        <time>2017-01-18T11:44:22.075Z</time>
      </trkpt>
      <trkpt lat="42.98807" lon="-0.00717">
        <ele>1593</ele>
        <time>2017-01-18T11:44:23.075Z</time>
      </trkpt>
      <trkpt lat="42.98806" lon="-0.00717">
        <ele>1593</ele>
        <time>2017-01-18T11:44:24.075Z</time>
      </trkpt>
      <trkpt lat="42.98805" lon="-0.00717">
        <ele>1593</ele>
        <time>2017-01-18T11:44:25.075Z</time>
      </trkpt>
      <trkpt lat="42.98804" lon="-0.00717">
        <ele>1593</ele>
        <time>2017-01-18T11:44:26.075Z</time>
      </trkpt>
      <trkpt lat="42.98803" lon="-0.00717">
        <ele>1593</ele>
        <time>2017-01-18T11:44:27.075Z</time>
      </trkpt>
      <trkpt lat="42.98802" lon="-0.00717">
        <ele>1592</ele>
        <time>2017-01-18T11:44:28.075Z</time>
      </trkpt>
      <trkpt lat="42.98801" lon="-0.00716">
        <ele>1593</ele>
        <time>2017-01-18T11:44:29.075Z</time>
      </trkpt>
      <trkpt lat="42.988" lon="-0.00716">
        <ele>1592</ele>
        <time>2017-01-18T11:44:30.075Z</time>
      </trkpt>
      <trkpt lat="42.98799" lon="-0.00716">
        <ele>1592</ele>
        <time>2017-01-18T11:44:31.075Z</time>
      </trkpt>
      <trkpt lat="42.98798" lon="-0.00715">
        <ele>1592</ele>
        <time>2017-01-18T11:44:32.075Z</time>
      </trkpt>
      <trkpt lat="42.98798" lon="-0.00715">
        <ele>1592</ele>
        <time>2017-01-18T11:44:33.075Z</time>
      </trkpt>
      <trkpt lat="42.98797" lon="-0.00715">
        <ele>1592</ele>
        <time>2017-01-18T11:44:34.075Z</time>
      </trkpt>
      <trkpt lat="42.98796" lon="-0.00715">
        <ele>1593</ele>
        <time>2017-01-18T11:44:35.075Z</time>
      </trkpt>
      <trkpt lat="42.98795" lon="-0.00715">
        <ele>1592</ele>
        <time>2017-01-18T11:44:36.075Z</time>
      </trkpt>
      <trkpt lat="42.98794" lon="-0.00715">
        <ele>1593</ele>
        <time>2017-01-18T11:44:37.075Z</time>
      </trkpt>
      <trkpt lat="42.98793" lon="-0.00715">
        <ele>1593</ele>
        <time>2017-01-18T11:44:38.075Z</time>
      </trkpt>
      <trkpt lat="42.98792" lon="-0.00715">
        <ele>1593</ele>
        <time>2017-01-18T11:44:39.075Z</time>
      </trkpt>
      <trkpt lat="42.98792" lon="-0.00714">
        <ele>1593</ele>
        <time>2017-01-18T11:44:40.075Z</time>
      </trkpt>
      <trkpt lat="42.98791" lon="-0.00714">
        <ele>1593</ele>
        <time>2017-01-18T11:44:41.075Z</time>
      </trkpt>
      <trkpt lat="42.9879" lon="-0.00714">
        <ele>1593</ele>
        <time>2017-01-18T11:44:42.075Z</time>
      </trkpt>
      <trkpt lat="42.98789" lon="-0.00714">
        <ele>1592</ele>
        <time>2017-01-18T11:44:43.075Z</time>
      </trkpt>
      <trkpt lat="42.98788" lon="-0.00714">
        <ele>1592</ele>
        <time>2017-01-18T11:44:44.075Z</time>
      </trkpt>
      <trkpt lat="42.98787" lon="-0.00714">
        <ele>1592</ele>
        <time>2017-01-18T11:44:45.075Z</time>
      </trkpt>
      <trkpt lat="42.98786" lon="-0.00714">
        <ele>1593</ele>
        <time>2017-01-18T11:44:46.075Z</time>
      </trkpt>
      <trkpt lat="42.98785" lon="-0.00713">
        <ele>1593</ele>
        <time>2017-01-18T11:44:47.075Z</time>
      </trkpt>
      <trkpt lat="42.98785" lon="-0.00713">
        <ele>1593</ele>
        <time>2017-01-18T11:44:48.075Z</time>
      </trkpt>
      <trkpt lat="42.98784" lon="-0.00713">
        <ele>1593</ele>
        <time>2017-01-18T11:44:49.075Z</time>
      </trkpt>
      <trkpt lat="42.98783" lon="-0.00712">
        <ele>1593</ele>
        <time>2017-01-18T11:44:50.075Z</time>
      </trkpt>
      <trkpt lat="42.98782" lon="-0.00712">
        <ele>1593</ele>
        <time>2017-01-18T11:44:51.075Z</time>
      </trkpt>
      <trkpt lat="42.98781" lon="-0.00712">
        <ele>1593</ele>
        <time>2017-01-18T11:44:52.075Z</time>
      </trkpt>
      <trkpt lat="42.9878" lon="-0.00712">
        <ele>1593</ele>
        <time>2017-01-18T11:44:53.075Z</time>
      </trkpt>
      <trkpt lat="42.98779" lon="-0.00711">
        <ele>1594</ele>
        <time>2017-01-18T11:44:54.075Z</time>
      </trkpt>
      <trkpt lat="42.98778" lon="-0.00711">
        <ele>1593</ele>
        <time>2017-01-18T11:44:55.075Z</time>
      </trkpt>
      <trkpt lat="42.98777" lon="-0.00711">
        <ele>1593</ele>
        <time>2017-01-18T11:44:56.075Z</time>
      </trkpt>
      <trkpt lat="42.98776" lon="-0.00711">
        <ele>1593</ele>
        <time>2017-01-18T11:44:57.075Z</time>
      </trkpt>
      <trkpt lat="42.98775" lon="-0.00711">
        <ele>1593</ele>
        <time>2017-01-18T11:44:58.075Z</time>
      </trkpt>
      <trkpt lat="42.98774" lon="-0.0071">
        <ele>1593</ele>
        <time>2017-01-18T11:44:59.075Z</time>
      </trkpt>
      <trkpt lat="42.98773" lon="-0.0071">
        <ele>1593</ele>
        <time>2017-01-18T11:45:00.075Z</time>
      </trkpt>
      <trkpt lat="42.98772" lon="-0.0071">
        <ele>1594</ele>
        <time>2017-01-18T11:45:01.075Z</time>
      </trkpt>
      <trkpt lat="42.98771" lon="-0.0071">
        <ele>1593</ele>
        <time>2017-01-18T11:45:02.075Z</time>
      </trkpt>
      <trkpt lat="42.9877" lon="-0.00711">
        <ele>1593</ele>
        <time>2017-01-18T11:45:03.075Z</time>
      </trkpt>
      <trkpt lat="42.98769" lon="-0.00711">
        <ele>1593</ele>
        <time>2017-01-18T11:45:04.075Z</time>
      </trkpt>
      <trkpt lat="42.98769" lon="-0.00711">
        <ele>1593</ele>
        <time>2017-01-18T11:45:05.075Z</time>
      </trkpt>
      <trkpt lat="42.98768" lon="-0.00711">
        <ele>1593</ele>
        <time>2017-01-18T11:45:06.075Z</time>
      </trkpt>
      <trkpt lat="42.98767" lon="-0.00711">
        <ele>1593</ele>
        <time>2017-01-18T11:45:07.075Z</time>
      </trkpt>
      <trkpt lat="42.98766" lon="-0.00711">
        <ele>1593</ele>
        <time>2017-01-18T11:45:08.075Z</time>
      </trkpt>
      <trkpt lat="42.98765" lon="-0.00711">
        <ele>1593</ele>
        <time>2017-01-18T11:45:09.075Z</time>
      </trkpt>
      <trkpt lat="42.98764" lon="-0.00711">
        <ele>1593</ele>
        <time>2017-01-18T11:45:10.075Z</time>
      </trkpt>
      <trkpt lat="42.98764" lon="-0.00711">
        <ele>1593</ele>
        <time>2017-01-18T11:45:11.075Z</time>
      </trkpt>
      <trkpt lat="42.98763" lon="-0.0071">
        <ele>1593</ele>
        <time>2017-01-18T11:45:12.075Z</time>
      </trkpt>
      <trkpt lat="42.98762" lon="-0.0071">
        <ele>1593</ele>
        <time>2017-01-18T11:45:13.075Z</time>
      </trkpt>
      <trkpt lat="42.98761" lon="-0.0071">
        <ele>1593</ele>
        <time>2017-01-18T11:45:14.075Z</time>
      </trkpt>
      <trkpt lat="42.98761" lon="-0.0071">
        <ele>1593</ele>
        <time>2017-01-18T11:45:15.075Z</time>
      </trkpt>
      <trkpt lat="42.9876" lon="-0.0071">
        <ele>1593</ele>
        <time>2017-01-18T11:45:16.075Z</time>
      </trkpt>
      <trkpt lat="42.98759" lon="-0.0071">
        <ele>1593</ele>
        <time>2017-01-18T11:45:17.075Z</time>
      </trkpt>
      <trkpt lat="42.98759" lon="-0.0071">
        <ele>1593</ele>
        <time>2017-01-18T11:45:18.075Z</time>
      </trkpt>
      <trkpt lat="42.98758" lon="-0.00709">
        <ele>1593</ele>
        <time>2017-01-18T11:45:19.075Z</time>
      </trkpt>
      <trkpt lat="42.98757" lon="-0.00709">
        <ele>1593</ele>
        <time>2017-01-18T11:45:20.075Z</time>
      </trkpt>
      <trkpt lat="42.98756" lon="-0.00709">
        <ele>1593</ele>
        <time>2017-01-18T11:45:21.075Z</time>
      </trkpt>
      <trkpt lat="42.98756" lon="-0.00709">
        <ele>1593</ele>
        <time>2017-01-18T11:45:22.075Z</time>
      </trkpt>
      <trkpt lat="42.98755" lon="-0.00708">
        <ele>1593</ele>
        <time>2017-01-18T11:45:23.075Z</time>
      </trkpt>
      <trkpt lat="42.98754" lon="-0.00708">
        <ele>1593</ele>
        <time>2017-01-18T11:45:24.075Z</time>
      </trkpt>
      <trkpt lat="42.98754" lon="-0.00708">
        <ele>1593</ele>
        <time>2017-01-18T11:45:25.075Z</time>
      </trkpt>
      <trkpt lat="42.98753" lon="-0.00708">
        <ele>1593</ele>
        <time>2017-01-18T11:45:26.075Z</time>
      </trkpt>
      <trkpt lat="42.98752" lon="-0.00708">
        <ele>1593</ele>
        <time>2017-01-18T11:45:27.075Z</time>
      </trkpt>
      <trkpt lat="42.98751" lon="-0.00708">
        <ele>1594</ele>
        <time>2017-01-18T11:45:28.075Z</time>
      </trkpt>
      <trkpt lat="42.9875" lon="-0.00707">
        <ele>1594</ele>
        <time>2017-01-18T11:45:29.075Z</time>
      </trkpt>
      <trkpt lat="42.9875" lon="-0.00707">
        <ele>1594</ele>
        <time>2017-01-18T11:45:30.075Z</time>
      </trkpt>
      <trkpt lat="42.98749" lon="-0.00707">
        <ele>1594</ele>
        <time>2017-01-18T11:45:31.075Z</time>
      </trkpt>
      <trkpt lat="42.98748" lon="-0.00707">
        <ele>1594</ele>
        <time>2017-01-18T11:45:32.075Z</time>
      </trkpt>
      <trkpt lat="42.98747" lon="-0.00707">
        <ele>1594</ele>
        <time>2017-01-18T11:45:33.075Z</time>
      </trkpt>
      <trkpt lat="42.98746" lon="-0.00707">
        <ele>1594</ele>
        <time>2017-01-18T11:45:34.075Z</time>
      </trkpt>
      <trkpt lat="42.98746" lon="-0.00707">
        <ele>1595</ele>
        <time>2017-01-18T11:45:35.075Z</time>
      </trkpt>
      <trkpt lat="42.98745" lon="-0.00707">
        <ele>1595</ele>
        <time>2017-01-18T11:45:36.075Z</time>
      </trkpt>
      <trkpt lat="42.98744" lon="-0.00707">
        <ele>1595</ele>
        <time>2017-01-18T11:45:37.075Z</time>
      </trkpt>
      <trkpt lat="42.98743" lon="-0.00706">
        <ele>1595</ele>
        <time>2017-01-18T11:45:38.075Z</time>
      </trkpt>
      <trkpt lat="42.98743" lon="-0.00706">
        <ele>1595</ele>
        <time>2017-01-18T11:45:39.075Z</time>
      </trkpt>
      <trkpt lat="42.98742" lon="-0.00706">
        <ele>1595</ele>
        <time>2017-01-18T11:45:40.075Z</time>
      </trkpt>
      <trkpt lat="42.98741" lon="-0.00706">
        <ele>1595</ele>
        <time>2017-01-18T11:45:41.075Z</time>
      </trkpt>
      <trkpt lat="42.98741" lon="-0.00706">
        <ele>1595</ele>
        <time>2017-01-18T11:45:42.075Z</time>
      </trkpt>
      <trkpt lat="42.9874" lon="-0.00705">
        <ele>1595</ele>
        <time>2017-01-18T11:45:43.075Z</time>
      </trkpt>
      <trkpt lat="42.98739" lon="-0.00705">
        <ele>1595</ele>
        <time>2017-01-18T11:45:44.075Z</time>
      </trkpt>
      <trkpt lat="42.98738" lon="-0.00705">
        <ele>1596</ele>
        <time>2017-01-18T11:45:45.075Z</time>
      </trkpt>
      <trkpt lat="42.98738" lon="-0.00705">
        <ele>1596</ele>
        <time>2017-01-18T11:45:46.075Z</time>
      </trkpt>
      <trkpt lat="42.98737" lon="-0.00705">
        <ele>1596</ele>
        <time>2017-01-18T11:45:47.075Z</time>
      </trkpt>
      <trkpt lat="42.98736" lon="-0.00705">
        <ele>1596</ele>
        <time>2017-01-18T11:45:48.075Z</time>
      </trkpt>
      <trkpt lat="42.98736" lon="-0.00705">
        <ele>1596</ele>
        <time>2017-01-18T11:45:49.075Z</time>
      </trkpt>
      <trkpt lat="42.98735" lon="-0.00705">
        <ele>1596</ele>
        <time>2017-01-18T11:45:50.075Z</time>
      </trkpt>
      <trkpt lat="42.98734" lon="-0.00705">
        <ele>1597</ele>
        <time>2017-01-18T11:45:51.075Z</time>
      </trkpt>
      <trkpt lat="42.98733" lon="-0.00705">
        <ele>1596</ele>
        <time>2017-01-18T11:45:52.075Z</time>
      </trkpt>
      <trkpt lat="42.98733" lon="-0.00704">
        <ele>1597</ele>
        <time>2017-01-18T11:45:53.075Z</time>
      </trkpt>
      <trkpt lat="42.98732" lon="-0.00704">
        <ele>1597</ele>
        <time>2017-01-18T11:45:54.075Z</time>
      </trkpt>
      <trkpt lat="42.98732" lon="-0.00704">
        <ele>1597</ele>
        <time>2017-01-18T11:45:55.075Z</time>
      </trkpt>
      <trkpt lat="42.98731" lon="-0.00704">
        <ele>1597</ele>
        <time>2017-01-18T11:45:56.075Z</time>
      </trkpt>
      <trkpt lat="42.9873" lon="-0.00704">
        <ele>1597</ele>
        <time>2017-01-18T11:45:57.075Z</time>
      </trkpt>
      <trkpt lat="42.9873" lon="-0.00704">
        <ele>1597</ele>
        <time>2017-01-18T11:45:58.075Z</time>
      </trkpt>
      <trkpt lat="42.98729" lon="-0.00704">
        <ele>1597</ele>
        <time>2017-01-18T11:45:59.075Z</time>
      </trkpt>
      <trkpt lat="42.98729" lon="-0.00704">
        <ele>1598</ele>
        <time>2017-01-18T11:46:00.075Z</time>
      </trkpt>
      <trkpt lat="42.98728" lon="-0.00704">
        <ele>1598</ele>
        <time>2017-01-18T11:46:01.075Z</time>
      </trkpt>
      <trkpt lat="42.98727" lon="-0.00704">
        <ele>1598</ele>
        <time>2017-01-18T11:46:02.075Z</time>
      </trkpt>
      <trkpt lat="42.98727" lon="-0.00703">
        <ele>1598</ele>
        <time>2017-01-18T11:46:03.075Z</time>
      </trkpt>
      <trkpt lat="42.98726" lon="-0.00703">
        <ele>1598</ele>
        <time>2017-01-18T11:46:04.075Z</time>
      </trkpt>
      <trkpt lat="42.98725" lon="-0.00703">
        <ele>1599</ele>
        <time>2017-01-18T11:46:05.075Z</time>
      </trkpt>
      <trkpt lat="42.98725" lon="-0.00703">
        <ele>1599</ele>
        <time>2017-01-18T11:46:06.075Z</time>
      </trkpt>
      <trkpt lat="42.98724" lon="-0.00703">
        <ele>1599</ele>
        <time>2017-01-18T11:46:07.075Z</time>
      </trkpt>
      <trkpt lat="42.98724" lon="-0.00703">
        <ele>1599</ele>
        <time>2017-01-18T11:46:08.075Z</time>
      </trkpt>
      <trkpt lat="42.98723" lon="-0.00703">
        <ele>1599</ele>
        <time>2017-01-18T11:46:09.075Z</time>
      </trkpt>
      <trkpt lat="42.98723" lon="-0.00702">
        <ele>1599</ele>
        <time>2017-01-18T11:46:10.075Z</time>
      </trkpt>
      <trkpt lat="42.98722" lon="-0.00702">
        <ele>1599</ele>
        <time>2017-01-18T11:46:11.075Z</time>
      </trkpt>
      <trkpt lat="42.98721" lon="-0.00702">
        <ele>1600</ele>
        <time>2017-01-18T11:46:12.075Z</time>
      </trkpt>
      <trkpt lat="42.98721" lon="-0.00702">
        <ele>1600</ele>
        <time>2017-01-18T11:46:13.075Z</time>
      </trkpt>
      <trkpt lat="42.9872" lon="-0.00702">
        <ele>1600</ele>
        <time>2017-01-18T11:46:14.075Z</time>
      </trkpt>
      <trkpt lat="42.98719" lon="-0.00702">
        <ele>1600</ele>
        <time>2017-01-18T11:46:15.075Z</time>
      </trkpt>
      <trkpt lat="42.98719" lon="-0.00702">
        <ele>1600</ele>
        <time>2017-01-18T11:46:16.075Z</time>
      </trkpt>
      <trkpt lat="42.98718" lon="-0.00702">
        <ele>1600</ele>
        <time>2017-01-18T11:46:17.075Z</time>
      </trkpt>
      <trkpt lat="42.98718" lon="-0.00702">
        <ele>1601</ele>
        <time>2017-01-18T11:46:18.075Z</time>
      </trkpt>
      <trkpt lat="42.98717" lon="-0.00702">
        <ele>1601</ele>
        <time>2017-01-18T11:46:19.075Z</time>
      </trkpt>
      <trkpt lat="42.98717" lon="-0.00702">
        <ele>1601</ele>
        <time>2017-01-18T11:46:20.075Z</time>
      </trkpt>
      <trkpt lat="42.98716" lon="-0.00701">
        <ele>1601</ele>
        <time>2017-01-18T11:46:21.075Z</time>
      </trkpt>
      <trkpt lat="42.98716" lon="-0.00701">
        <ele>1601</ele>
        <time>2017-01-18T11:46:22.075Z</time>
      </trkpt>
      <trkpt lat="42.98715" lon="-0.00701">
        <ele>1601</ele>
        <time>2017-01-18T11:46:23.075Z</time>
      </trkpt>
      <trkpt lat="42.98714" lon="-0.00701">
        <ele>1601</ele>
        <time>2017-01-18T11:46:24.075Z</time>
      </trkpt>
      <trkpt lat="42.98714" lon="-0.007">
        <ele>1601</ele>
        <time>2017-01-18T11:46:25.075Z</time>
      </trkpt>
      <trkpt lat="42.98713" lon="-0.007">
        <ele>1601</ele>
        <time>2017-01-18T11:46:26.075Z</time>
      </trkpt>
      <trkpt lat="42.98713" lon="-0.007">
        <ele>1601</ele>
        <time>2017-01-18T11:46:27.075Z</time>
      </trkpt>
      <trkpt lat="42.98712" lon="-0.007">
        <ele>1601</ele>
        <time>2017-01-18T11:46:28.075Z</time>
      </trkpt>
      <trkpt lat="42.98712" lon="-0.007">
        <ele>1601</ele>
        <time>2017-01-18T11:46:29.075Z</time>
      </trkpt>
      <trkpt lat="42.98711" lon="-0.007">
        <ele>1601</ele>
        <time>2017-01-18T11:46:30.075Z</time>
      </trkpt>
      <trkpt lat="42.9871" lon="-0.00699">
        <ele>1601</ele>
        <time>2017-01-18T11:46:31.075Z</time>
      </trkpt>
      <trkpt lat="42.9871" lon="-0.00699">
        <ele>1601</ele>
        <time>2017-01-18T11:46:32.075Z</time>
      </trkpt>
      <trkpt lat="42.98709" lon="-0.00699">
        <ele>1601</ele>
        <time>2017-01-18T11:46:33.075Z</time>
      </trkpt>
      <trkpt lat="42.98709" lon="-0.00699">
        <ele>1601</ele>
        <time>2017-01-18T11:46:34.075Z</time>
      </trkpt>
      <trkpt lat="42.98708" lon="-0.00698">
        <ele>1601</ele>
        <time>2017-01-18T11:46:35.075Z</time>
      </trkpt>
      <trkpt lat="42.98708" lon="-0.00698">
        <ele>1602</ele>
        <time>2017-01-18T11:46:36.075Z</time>
      </trkpt>
      <trkpt lat="42.98707" lon="-0.00698">
        <ele>1601</ele>
        <time>2017-01-18T11:46:37.075Z</time>
      </trkpt>
      <trkpt lat="42.98707" lon="-0.00697">
        <ele>1601</ele>
        <time>2017-01-18T11:46:38.075Z</time>
      </trkpt>
      <trkpt lat="42.98706" lon="-0.00697">
        <ele>1601</ele>
        <time>2017-01-18T11:46:39.075Z</time>
      </trkpt>
      <trkpt lat="42.98706" lon="-0.00697">
        <ele>1601</ele>
        <time>2017-01-18T11:46:40.075Z</time>
      </trkpt>
      <trkpt lat="42.98705" lon="-0.00697">
        <ele>1601</ele>
        <time>2017-01-18T11:46:41.075Z</time>
      </trkpt>
      <trkpt lat="42.98705" lon="-0.00697">
        <ele>1601</ele>
        <time>2017-01-18T11:46:42.075Z</time>
      </trkpt>
      <trkpt lat="42.98704" lon="-0.00696">
        <ele>1601</ele>
        <time>2017-01-18T11:46:43.075Z</time>
      </trkpt>
      <trkpt lat="42.98703" lon="-0.00696">
        <ele>1601</ele>
        <time>2017-01-18T11:46:44.075Z</time>
      </trkpt>
      <trkpt lat="42.98703" lon="-0.00696">
        <ele>1602</ele>
        <time>2017-01-18T11:46:45.075Z</time>
      </trkpt>
      <trkpt lat="42.98702" lon="-0.00696">
        <ele>1602</ele>
        <time>2017-01-18T11:46:46.075Z</time>
      </trkpt>
      <trkpt lat="42.98702" lon="-0.00696">
        <ele>1602</ele>
        <time>2017-01-18T11:46:47.075Z</time>
      </trkpt>
      <trkpt lat="42.98701" lon="-0.00695">
        <ele>1602</ele>
        <time>2017-01-18T11:46:48.075Z</time>
      </trkpt>
      <trkpt lat="42.987" lon="-0.00695">
        <ele>1602</ele>
        <time>2017-01-18T11:46:49.075Z</time>
      </trkpt>
      <trkpt lat="42.987" lon="-0.00695">
        <ele>1602</ele>
        <time>2017-01-18T11:46:50.075Z</time>
      </trkpt>
      <trkpt lat="42.98699" lon="-0.00695">
        <ele>1602</ele>
        <time>2017-01-18T11:46:51.075Z</time>
      </trkpt>
      <trkpt lat="42.98699" lon="-0.00694">
        <ele>1602</ele>
        <time>2017-01-18T11:46:52.075Z</time>
      </trkpt>
      <trkpt lat="42.98698" lon="-0.00694">
        <ele>1602</ele>
        <time>2017-01-18T11:46:53.075Z</time>
      </trkpt>
      <trkpt lat="42.98697" lon="-0.00694">
        <ele>1602</ele>
        <time>2017-01-18T11:46:54.075Z</time>
      </trkpt>
      <trkpt lat="42.98697" lon="-0.00694">
        <ele>1602</ele>
        <time>2017-01-18T11:46:55.075Z</time>
      </trkpt>
      <trkpt lat="42.98696" lon="-0.00693">
        <ele>1602</ele>
        <time>2017-01-18T11:46:56.075Z</time>
      </trkpt>
      <trkpt lat="42.98696" lon="-0.00693">
        <ele>1602</ele>
        <time>2017-01-18T11:46:57.075Z</time>
      </trkpt>
      <trkpt lat="42.98695" lon="-0.00693">
        <ele>1602</ele>
        <time>2017-01-18T11:46:58.075Z</time>
      </trkpt>
      <trkpt lat="42.98695" lon="-0.00693">
        <ele>1602</ele>
        <time>2017-01-18T11:46:59.075Z</time>
      </trkpt>
      <trkpt lat="42.98694" lon="-0.00693">
        <ele>1602</ele>
        <time>2017-01-18T11:47:00.075Z</time>
      </trkpt>
      <trkpt lat="42.98694" lon="-0.00692">
        <ele>1602</ele>
        <time>2017-01-18T11:47:01.075Z</time>
      </trkpt>
      <trkpt lat="42.98693" lon="-0.00692">
        <ele>1602</ele>
        <time>2017-01-18T11:47:02.075Z</time>
      </trkpt>
      <trkpt lat="42.98692" lon="-0.00692">
        <ele>1602</ele>
        <time>2017-01-18T11:47:03.075Z</time>
      </trkpt>
      <trkpt lat="42.98692" lon="-0.00692">
        <ele>1602</ele>
        <time>2017-01-18T11:47:04.075Z</time>
      </trkpt>
      <trkpt lat="42.98691" lon="-0.00691">
        <ele>1602</ele>
        <time>2017-01-18T11:47:05.075Z</time>
      </trkpt>
      <trkpt lat="42.98691" lon="-0.00691">
        <ele>1602</ele>
        <time>2017-01-18T11:47:06.075Z</time>
      </trkpt>
      <trkpt lat="42.9869" lon="-0.00691">
        <ele>1602</ele>
        <time>2017-01-18T11:47:07.075Z</time>
      </trkpt>
      <trkpt lat="42.98689" lon="-0.0069">
        <ele>1602</ele>
        <time>2017-01-18T11:47:08.075Z</time>
      </trkpt>
      <trkpt lat="42.98689" lon="-0.0069">
        <ele>1603</ele>
        <time>2017-01-18T11:47:09.075Z</time>
      </trkpt>
      <trkpt lat="42.98688" lon="-0.0069">
        <ele>1603</ele>
        <time>2017-01-18T11:47:10.075Z</time>
      </trkpt>
      <trkpt lat="42.98687" lon="-0.00689">
        <ele>1603</ele>
        <time>2017-01-18T11:47:11.075Z</time>
      </trkpt>
      <trkpt lat="42.98686" lon="-0.00689">
        <ele>1603</ele>
        <time>2017-01-18T11:47:12.075Z</time>
      </trkpt>
      <trkpt lat="42.98686" lon="-0.00689">
        <ele>1603</ele>
        <time>2017-01-18T11:47:13.075Z</time>
      </trkpt>
      <trkpt lat="42.98686" lon="-0.00689">
        <ele>1603</ele>
        <time>2017-01-18T11:47:14.075Z</time>
      </trkpt>
      <trkpt lat="42.98685" lon="-0.00688">
        <ele>1603</ele>
        <time>2017-01-18T11:47:15.075Z</time>
      </trkpt>
      <trkpt lat="42.98684" lon="-0.00688">
        <ele>1603</ele>
        <time>2017-01-18T11:47:16.075Z</time>
      </trkpt>
      <trkpt lat="42.98683" lon="-0.00688">
        <ele>1603</ele>
        <time>2017-01-18T11:47:17.075Z</time>
      </trkpt>
      <trkpt lat="42.98683" lon="-0.00688">
        <ele>1603</ele>
        <time>2017-01-18T11:47:18.075Z</time>
      </trkpt>
      <trkpt lat="42.98682" lon="-0.00688">
        <ele>1603</ele>
        <time>2017-01-18T11:47:19.075Z</time>
      </trkpt>
      <trkpt lat="42.98681" lon="-0.00687">
        <ele>1603</ele>
        <time>2017-01-18T11:47:20.075Z</time>
      </trkpt>
      <trkpt lat="42.98681" lon="-0.00687">
        <ele>1603</ele>
        <time>2017-01-18T11:47:21.075Z</time>
      </trkpt>
      <trkpt lat="42.9868" lon="-0.00687">
        <ele>1603</ele>
        <time>2017-01-18T11:47:22.075Z</time>
      </trkpt>
      <trkpt lat="42.98679" lon="-0.00687">
        <ele>1603</ele>
        <time>2017-01-18T11:47:23.075Z</time>
      </trkpt>
      <trkpt lat="42.98679" lon="-0.00687">
        <ele>1603</ele>
        <time>2017-01-18T11:47:24.075Z</time>
      </trkpt>
      <trkpt lat="42.98678" lon="-0.00686">
        <ele>1603</ele>
        <time>2017-01-18T11:47:25.075Z</time>
      </trkpt>
      <trkpt lat="42.98677" lon="-0.00686">
        <ele>1603</ele>
        <time>2017-01-18T11:47:26.075Z</time>
      </trkpt>
      <trkpt lat="42.98677" lon="-0.00686">
        <ele>1603</ele>
        <time>2017-01-18T11:47:27.075Z</time>
      </trkpt>
      <trkpt lat="42.98676" lon="-0.00686">
        <ele>1603</ele>
        <time>2017-01-18T11:47:28.075Z</time>
      </trkpt>
      <trkpt lat="42.98675" lon="-0.00686">
        <ele>1603</ele>
        <time>2017-01-18T11:47:29.075Z</time>
      </trkpt>
      <trkpt lat="42.98674" lon="-0.00686">
        <ele>1603</ele>
        <time>2017-01-18T11:47:30.075Z</time>
      </trkpt>
      <trkpt lat="42.98674" lon="-0.00686">
        <ele>1603</ele>
        <time>2017-01-18T11:47:31.075Z</time>
      </trkpt>
      <trkpt lat="42.98673" lon="-0.00686">
        <ele>1603</ele>
        <time>2017-01-18T11:47:32.075Z</time>
      </trkpt>
      <trkpt lat="42.98672" lon="-0.00685">
        <ele>1604</ele>
        <time>2017-01-18T11:47:33.075Z</time>
      </trkpt>
      <trkpt lat="42.98672" lon="-0.00685">
        <ele>1604</ele>
        <time>2017-01-18T11:47:34.075Z</time>
      </trkpt>
      <trkpt lat="42.98671" lon="-0.00685">
        <ele>1604</ele>
        <time>2017-01-18T11:47:35.075Z</time>
      </trkpt>
      <trkpt lat="42.9867" lon="-0.00685">
        <ele>1604</ele>
        <time>2017-01-18T11:47:36.075Z</time>
      </trkpt>
      <trkpt lat="42.98669" lon="-0.00685">
        <ele>1604</ele>
        <time>2017-01-18T11:47:37.075Z</time>
      </trkpt>
      <trkpt lat="42.98669" lon="-0.00685">
        <ele>1604</ele>
        <time>2017-01-18T11:47:38.075Z</time>
      </trkpt>
      <trkpt lat="42.98668" lon="-0.00685">
        <ele>1604</ele>
        <time>2017-01-18T11:47:39.075Z</time>
      </trkpt>
      <trkpt lat="42.98667" lon="-0.00685">
        <ele>1604</ele>
        <time>2017-01-18T11:47:40.075Z</time>
      </trkpt>
      <trkpt lat="42.98666" lon="-0.00685">
        <ele>1604</ele>
        <time>2017-01-18T11:47:41.075Z</time>
      </trkpt>
      <trkpt lat="42.98666" lon="-0.00685">
        <ele>1604</ele>
        <time>2017-01-18T11:47:42.075Z</time>
      </trkpt>
      <trkpt lat="42.98666" lon="-0.00684">
        <ele>1605</ele>
        <time>2017-01-18T11:47:43.075Z</time>
      </trkpt>
      <trkpt lat="42.98665" lon="-0.00684">
        <ele>1605</ele>
        <time>2017-01-18T11:47:44.075Z</time>
      </trkpt>
      <trkpt lat="42.98664" lon="-0.00684">
        <ele>1605</ele>
        <time>2017-01-18T11:47:45.075Z</time>
      </trkpt>
      <trkpt lat="42.98664" lon="-0.00684">
        <ele>1605</ele>
        <time>2017-01-18T11:47:46.075Z</time>
      </trkpt>
      <trkpt lat="42.98663" lon="-0.00684">
        <ele>1605</ele>
        <time>2017-01-18T11:47:47.075Z</time>
      </trkpt>
      <trkpt lat="42.98662" lon="-0.00684">
        <ele>1605</ele>
        <time>2017-01-18T11:47:48.075Z</time>
      </trkpt>
      <trkpt lat="42.98662" lon="-0.00684">
        <ele>1605</ele>
        <time>2017-01-18T11:47:49.075Z</time>
      </trkpt>
      <trkpt lat="42.98661" lon="-0.00684">
        <ele>1605</ele>
        <time>2017-01-18T11:47:50.075Z</time>
      </trkpt>
      <trkpt lat="42.9866" lon="-0.00684">
        <ele>1605</ele>
        <time>2017-01-18T11:47:51.075Z</time>
      </trkpt>
      <trkpt lat="42.98659" lon="-0.00684">
        <ele>1605</ele>
        <time>2017-01-18T11:47:52.075Z</time>
      </trkpt>
      <trkpt lat="42.98658" lon="-0.00684">
        <ele>1605</ele>
        <time>2017-01-18T11:47:53.075Z</time>
      </trkpt>
      <trkpt lat="42.98658" lon="-0.00684">
        <ele>1606</ele>
        <time>2017-01-18T11:47:54.075Z</time>
      </trkpt>
      <trkpt lat="42.98657" lon="-0.00684">
        <ele>1606</ele>
        <time>2017-01-18T11:47:55.075Z</time>
      </trkpt>
      <trkpt lat="42.98656" lon="-0.00684">
        <ele>1606</ele>
        <time>2017-01-18T11:47:56.075Z</time>
      </trkpt>
      <trkpt lat="42.98655" lon="-0.00684">
        <ele>1606</ele>
        <time>2017-01-18T11:47:57.075Z</time>
      </trkpt>
      <trkpt lat="42.98655" lon="-0.00684">
        <ele>1606</ele>
        <time>2017-01-18T11:47:58.075Z</time>
      </trkpt>
      <trkpt lat="42.98654" lon="-0.00683">
        <ele>1606</ele>
        <time>2017-01-18T11:47:59.075Z</time>
      </trkpt>
      <trkpt lat="42.98653" lon="-0.00683">
        <ele>1606</ele>
        <time>2017-01-18T11:48:00.075Z</time>
      </trkpt>
      <trkpt lat="42.98653" lon="-0.00683">
        <ele>1606</ele>
        <time>2017-01-18T11:48:01.075Z</time>
      </trkpt>
      <trkpt lat="42.98652" lon="-0.00683">
        <ele>1606</ele>
        <time>2017-01-18T11:48:02.075Z</time>
      </trkpt>
      <trkpt lat="42.98651" lon="-0.00683">
        <ele>1606</ele>
        <time>2017-01-18T11:48:03.075Z</time>
      </trkpt>
      <trkpt lat="42.9865" lon="-0.00683">
        <ele>1606</ele>
        <time>2017-01-18T11:48:04.075Z</time>
      </trkpt>
      <trkpt lat="42.9865" lon="-0.00683">
        <ele>1606</ele>
        <time>2017-01-18T11:48:05.075Z</time>
      </trkpt>
      <trkpt lat="42.98649" lon="-0.00683">
        <ele>1606</ele>
        <time>2017-01-18T11:48:06.075Z</time>
      </trkpt>
      <trkpt lat="42.98648" lon="-0.00682">
        <ele>1606</ele>
        <time>2017-01-18T11:48:07.075Z</time>
      </trkpt>
      <trkpt lat="42.98648" lon="-0.00682">
        <ele>1606</ele>
        <time>2017-01-18T11:48:08.075Z</time>
      </trkpt>
      <trkpt lat="42.98647" lon="-0.00682">
        <ele>1606</ele>
        <time>2017-01-18T11:48:09.075Z</time>
      </trkpt>
      <trkpt lat="42.98646" lon="-0.00682">
        <ele>1606</ele>
        <time>2017-01-18T11:48:10.075Z</time>
      </trkpt>
      <trkpt lat="42.98646" lon="-0.00682">
        <ele>1606</ele>
        <time>2017-01-18T11:48:11.075Z</time>
      </trkpt>
      <trkpt lat="42.98645" lon="-0.00682">
        <ele>1606</ele>
        <time>2017-01-18T11:48:12.075Z</time>
      </trkpt>
      <trkpt lat="42.98644" lon="-0.00682">
        <ele>1606</ele>
        <time>2017-01-18T11:48:13.075Z</time>
      </trkpt>
      <trkpt lat="42.98644" lon="-0.00682">
        <ele>1606</ele>
        <time>2017-01-18T11:48:14.075Z</time>
      </trkpt>
      <trkpt lat="42.98643" lon="-0.00682">
        <ele>1606</ele>
        <time>2017-01-18T11:48:15.075Z</time>
      </trkpt>
      <trkpt lat="42.98642" lon="-0.00681">
        <ele>1606</ele>
        <time>2017-01-18T11:48:16.075Z</time>
      </trkpt>
      <trkpt lat="42.98641" lon="-0.00681">
        <ele>1606</ele>
        <time>2017-01-18T11:48:17.075Z</time>
      </trkpt>
      <trkpt lat="42.98641" lon="-0.00681">
        <ele>1606</ele>
        <time>2017-01-18T11:48:18.075Z</time>
      </trkpt>
      <trkpt lat="42.9864" lon="-0.00681">
        <ele>1606</ele>
        <time>2017-01-18T11:48:19.075Z</time>
      </trkpt>
      <trkpt lat="42.9864" lon="-0.00681">
        <ele>1606</ele>
        <time>2017-01-18T11:48:20.075Z</time>
      </trkpt>
      <trkpt lat="42.98638" lon="-0.0068">
        <ele>1606</ele>
        <time>2017-01-18T11:48:21.075Z</time>
      </trkpt>
      <trkpt lat="42.98638" lon="-0.0068">
        <ele>1606</ele>
        <time>2017-01-18T11:48:22.075Z</time>
      </trkpt>
      <trkpt lat="42.98637" lon="-0.0068">
        <ele>1606</ele>
        <time>2017-01-18T11:48:23.075Z</time>
      </trkpt>
      <trkpt lat="42.98637" lon="-0.0068">
        <ele>1607</ele>
        <time>2017-01-18T11:48:24.075Z</time>
      </trkpt>
      <trkpt lat="42.98636" lon="-0.0068">
        <ele>1606</ele>
        <time>2017-01-18T11:48:25.075Z</time>
      </trkpt>
      <trkpt lat="42.98635" lon="-0.00679">
        <ele>1607</ele>
        <time>2017-01-18T11:48:26.075Z</time>
      </trkpt>
      <trkpt lat="42.98635" lon="-0.00679">
        <ele>1607</ele>
        <time>2017-01-18T11:48:27.075Z</time>
      </trkpt>
      <trkpt lat="42.98634" lon="-0.00679">
        <ele>1607</ele>
        <time>2017-01-18T11:48:28.075Z</time>
      </trkpt>
      <trkpt lat="42.98633" lon="-0.00679">
        <ele>1607</ele>
        <time>2017-01-18T11:48:29.075Z</time>
      </trkpt>
      <trkpt lat="42.98633" lon="-0.00679">
        <ele>1607</ele>
        <time>2017-01-18T11:48:30.075Z</time>
      </trkpt>
      <trkpt lat="42.98632" lon="-0.00678">
        <ele>1607</ele>
        <time>2017-01-18T11:48:31.075Z</time>
      </trkpt>
      <trkpt lat="42.98631" lon="-0.00678">
        <ele>1607</ele>
        <time>2017-01-18T11:48:32.075Z</time>
      </trkpt>
      <trkpt lat="42.98631" lon="-0.00678">
        <ele>1607</ele>
        <time>2017-01-18T11:48:33.075Z</time>
      </trkpt>
      <trkpt lat="42.9863" lon="-0.00678">
        <ele>1607</ele>
        <time>2017-01-18T11:48:34.075Z</time>
      </trkpt>
      <trkpt lat="42.98629" lon="-0.00678">
        <ele>1607</ele>
        <time>2017-01-18T11:48:35.075Z</time>
      </trkpt>
      <trkpt lat="42.98629" lon="-0.00678">
        <ele>1607</ele>
        <time>2017-01-18T11:48:36.075Z</time>
      </trkpt>
      <trkpt lat="42.98628" lon="-0.00678">
        <ele>1607</ele>
        <time>2017-01-18T11:48:37.075Z</time>
      </trkpt>
      <trkpt lat="42.98627" lon="-0.00678">
        <ele>1607</ele>
        <time>2017-01-18T11:48:38.075Z</time>
      </trkpt>
      <trkpt lat="42.98626" lon="-0.00677">
        <ele>1607</ele>
        <time>2017-01-18T11:48:39.075Z</time>
      </trkpt>
      <trkpt lat="42.98626" lon="-0.00677">
        <ele>1607</ele>
        <time>2017-01-18T11:48:40.075Z</time>
      </trkpt>
      <trkpt lat="42.98625" lon="-0.00678">
        <ele>1607</ele>
        <time>2017-01-18T11:48:41.075Z</time>
      </trkpt>
      <trkpt lat="42.98624" lon="-0.00678">
        <ele>1608</ele>
        <time>2017-01-18T11:48:42.075Z</time>
      </trkpt>
      <trkpt lat="42.98623" lon="-0.00678">
        <ele>1608</ele>
        <time>2017-01-18T11:48:43.075Z</time>
      </trkpt>
      <trkpt lat="42.98623" lon="-0.00678">
        <ele>1608</ele>
        <time>2017-01-18T11:48:44.075Z</time>
      </trkpt>
      <trkpt lat="42.98622" lon="-0.00677">
        <ele>1608</ele>
        <time>2017-01-18T11:48:45.075Z</time>
      </trkpt>
      <trkpt lat="42.98621" lon="-0.00677">
        <ele>1608</ele>
        <time>2017-01-18T11:48:46.075Z</time>
      </trkpt>
      <trkpt lat="42.98621" lon="-0.00677">
        <ele>1608</ele>
        <time>2017-01-18T11:48:47.075Z</time>
      </trkpt>
      <trkpt lat="42.9862" lon="-0.00677">
        <ele>1608</ele>
        <time>2017-01-18T11:48:48.075Z</time>
      </trkpt>
      <trkpt lat="42.98619" lon="-0.00677">
        <ele>1609</ele>
        <time>2017-01-18T11:48:49.075Z</time>
      </trkpt>
      <trkpt lat="42.98618" lon="-0.00677">
        <ele>1609</ele>
        <time>2017-01-18T11:48:50.075Z</time>
      </trkpt>
      <trkpt lat="42.98618" lon="-0.00677">
        <ele>1609</ele>
        <time>2017-01-18T11:48:51.075Z</time>
      </trkpt>
      <trkpt lat="42.98617" lon="-0.00677">
        <ele>1609</ele>
        <time>2017-01-18T11:48:52.075Z</time>
      </trkpt>
      <trkpt lat="42.98616" lon="-0.00677">
        <ele>1609</ele>
        <time>2017-01-18T11:48:53.075Z</time>
      </trkpt>
      <trkpt lat="42.98616" lon="-0.00677">
        <ele>1609</ele>
        <time>2017-01-18T11:48:54.075Z</time>
      </trkpt>
      <trkpt lat="42.98615" lon="-0.00677">
        <ele>1609</ele>
        <time>2017-01-18T11:48:55.075Z</time>
      </trkpt>
      <trkpt lat="42.98614" lon="-0.00677">
        <ele>1609</ele>
        <time>2017-01-18T11:48:56.075Z</time>
      </trkpt>
      <trkpt lat="42.98613" lon="-0.00677">
        <ele>1609</ele>
        <time>2017-01-18T11:48:57.075Z</time>
      </trkpt>
      <trkpt lat="42.98613" lon="-0.00677">
        <ele>1609</ele>
        <time>2017-01-18T11:48:58.075Z</time>
      </trkpt>
      <trkpt lat="42.98612" lon="-0.00677">
        <ele>1609</ele>
        <time>2017-01-18T11:48:59.075Z</time>
      </trkpt>
      <trkpt lat="42.98612" lon="-0.00677">
        <ele>1609</ele>
        <time>2017-01-18T11:49:00.075Z</time>
      </trkpt>
      <trkpt lat="42.9861" lon="-0.00677">
        <ele>1609</ele>
        <time>2017-01-18T11:49:01.075Z</time>
      </trkpt>
      <trkpt lat="42.9861" lon="-0.00677">
        <ele>1609</ele>
        <time>2017-01-18T11:49:02.075Z</time>
      </trkpt>
      <trkpt lat="42.98609" lon="-0.00677">
        <ele>1609</ele>
        <time>2017-01-18T11:49:03.075Z</time>
      </trkpt>
      <trkpt lat="42.98609" lon="-0.00677">
        <ele>1609</ele>
        <time>2017-01-18T11:49:04.075Z</time>
      </trkpt>
      <trkpt lat="42.98608" lon="-0.00676">
        <ele>1609</ele>
        <time>2017-01-18T11:49:05.075Z</time>
      </trkpt>
      <trkpt lat="42.98608" lon="-0.00676">
        <ele>1609</ele>
        <time>2017-01-18T11:49:06.075Z</time>
      </trkpt>
      <trkpt lat="42.98607" lon="-0.00676">
        <ele>1609</ele>
        <time>2017-01-18T11:49:07.075Z</time>
      </trkpt>
      <trkpt lat="42.98606" lon="-0.00676">
        <ele>1609</ele>
        <time>2017-01-18T11:49:08.075Z</time>
      </trkpt>
      <trkpt lat="42.98606" lon="-0.00676">
        <ele>1609</ele>
        <time>2017-01-18T11:49:09.075Z</time>
      </trkpt>
      <trkpt lat="42.98605" lon="-0.00676">
        <ele>1609</ele>
        <time>2017-01-18T11:49:10.075Z</time>
      </trkpt>
      <trkpt lat="42.98604" lon="-0.00676">
        <ele>1609</ele>
        <time>2017-01-18T11:49:11.075Z</time>
      </trkpt>
      <trkpt lat="42.98604" lon="-0.00676">
        <ele>1609</ele>
        <time>2017-01-18T11:49:12.075Z</time>
      </trkpt>
      <trkpt lat="42.98602" lon="-0.00676">
        <ele>1609</ele>
        <time>2017-01-18T11:49:13.075Z</time>
      </trkpt>
      <trkpt lat="42.98602" lon="-0.00676">
        <ele>1609</ele>
        <time>2017-01-18T11:49:14.075Z</time>
      </trkpt>
      <trkpt lat="42.98602" lon="-0.00676">
        <ele>1609</ele>
        <time>2017-01-18T11:49:15.075Z</time>
      </trkpt>
      <trkpt lat="42.98601" lon="-0.00676">
        <ele>1609</ele>
        <time>2017-01-18T11:49:16.075Z</time>
      </trkpt>
      <trkpt lat="42.986" lon="-0.00676">
        <ele>1610</ele>
        <time>2017-01-18T11:49:17.075Z</time>
      </trkpt>
      <trkpt lat="42.986" lon="-0.00676">
        <ele>1610</ele>
        <time>2017-01-18T11:49:18.075Z</time>
      </trkpt>
      <trkpt lat="42.98598" lon="-0.00675">
        <ele>1610</ele>
        <time>2017-01-18T11:49:19.075Z</time>
      </trkpt>
      <trkpt lat="42.98598" lon="-0.00675">
        <ele>1610</ele>
        <time>2017-01-18T11:49:20.075Z</time>
      </trkpt>
      <trkpt lat="42.98597" lon="-0.00675">
        <ele>1610</ele>
        <time>2017-01-18T11:49:21.075Z</time>
      </trkpt>
      <trkpt lat="42.98597" lon="-0.00675">
        <ele>1610</ele>
        <time>2017-01-18T11:49:22.075Z</time>
      </trkpt>
      <trkpt lat="42.98596" lon="-0.00675">
        <ele>1610</ele>
        <time>2017-01-18T11:49:23.075Z</time>
      </trkpt>
      <trkpt lat="42.98595" lon="-0.00675">
        <ele>1610</ele>
        <time>2017-01-18T11:49:24.075Z</time>
      </trkpt>
      <trkpt lat="42.98594" lon="-0.00675">
        <ele>1610</ele>
        <time>2017-01-18T11:49:25.075Z</time>
      </trkpt>
      <trkpt lat="42.98594" lon="-0.00675">
        <ele>1610</ele>
        <time>2017-01-18T11:49:26.075Z</time>
      </trkpt>
      <trkpt lat="42.98594" lon="-0.00675">
        <ele>1610</ele>
        <time>2017-01-18T11:49:27.075Z</time>
      </trkpt>
      <trkpt lat="42.98592" lon="-0.00675">
        <ele>1610</ele>
        <time>2017-01-18T11:49:28.075Z</time>
      </trkpt>
      <trkpt lat="42.98592" lon="-0.00675">
        <ele>1610</ele>
        <time>2017-01-18T11:49:29.075Z</time>
      </trkpt>
      <trkpt lat="42.98591" lon="-0.00675">
        <ele>1610</ele>
        <time>2017-01-18T11:49:30.075Z</time>
      </trkpt>
      <trkpt lat="42.9859" lon="-0.00675">
        <ele>1610</ele>
        <time>2017-01-18T11:49:31.075Z</time>
      </trkpt>
      <trkpt lat="42.9859" lon="-0.00674">
        <ele>1610</ele>
        <time>2017-01-18T11:49:32.075Z</time>
      </trkpt>
      <trkpt lat="42.98589" lon="-0.00674">
        <ele>1610</ele>
        <time>2017-01-18T11:49:33.075Z</time>
      </trkpt>
      <trkpt lat="42.98588" lon="-0.00674">
        <ele>1610</ele>
        <time>2017-01-18T11:49:34.075Z</time>
      </trkpt>
      <trkpt lat="42.98588" lon="-0.00674">
        <ele>1610</ele>
        <time>2017-01-18T11:49:35.075Z</time>
      </trkpt>
      <trkpt lat="42.98587" lon="-0.00674">
        <ele>1610</ele>
        <time>2017-01-18T11:49:36.075Z</time>
      </trkpt>
      <trkpt lat="42.98586" lon="-0.00674">
        <ele>1611</ele>
        <time>2017-01-18T11:49:37.075Z</time>
      </trkpt>
      <trkpt lat="42.98586" lon="-0.00674">
        <ele>1611</ele>
        <time>2017-01-18T11:49:38.075Z</time>
      </trkpt>
      <trkpt lat="42.98586" lon="-0.00674">
        <ele>1611</ele>
        <time>2017-01-18T11:49:39.075Z</time>
      </trkpt>
      <trkpt lat="42.98584" lon="-0.00673">
        <ele>1611</ele>
        <time>2017-01-18T11:49:40.075Z</time>
      </trkpt>
      <trkpt lat="42.98584" lon="-0.00673">
        <ele>1611</ele>
        <time>2017-01-18T11:49:41.075Z</time>
      </trkpt>
      <trkpt lat="42.98583" lon="-0.00673">
        <ele>1611</ele>
        <time>2017-01-18T11:49:42.075Z</time>
      </trkpt>
      <trkpt lat="42.98582" lon="-0.00673">
        <ele>1611</ele>
        <time>2017-01-18T11:49:43.075Z</time>
      </trkpt>
      <trkpt lat="42.98582" lon="-0.00673">
        <ele>1611</ele>
        <time>2017-01-18T11:49:44.075Z</time>
      </trkpt>
      <trkpt lat="42.98582" lon="-0.00673">
        <ele>1611</ele>
        <time>2017-01-18T11:49:45.075Z</time>
      </trkpt>
      <trkpt lat="42.9858" lon="-0.00673">
        <ele>1611</ele>
        <time>2017-01-18T11:49:46.075Z</time>
      </trkpt>
      <trkpt lat="42.98579" lon="-0.00673">
        <ele>1611</ele>
        <time>2017-01-18T11:49:47.075Z</time>
      </trkpt>
      <trkpt lat="42.98578" lon="-0.00673">
        <ele>1611</ele>
        <time>2017-01-18T11:49:48.075Z</time>
      </trkpt>
      <trkpt lat="42.98578" lon="-0.00673">
        <ele>1611</ele>
        <time>2017-01-18T11:49:49.075Z</time>
      </trkpt>
      <trkpt lat="42.98577" lon="-0.00673">
        <ele>1611</ele>
        <time>2017-01-18T11:49:50.075Z</time>
      </trkpt>
      <trkpt lat="42.98577" lon="-0.00673">
        <ele>1611</ele>
        <time>2017-01-18T11:49:51.075Z</time>
      </trkpt>
      <trkpt lat="42.98575" lon="-0.00673">
        <ele>1611</ele>
        <time>2017-01-18T11:49:52.075Z</time>
      </trkpt>
      <trkpt lat="42.98575" lon="-0.00673">
        <ele>1611</ele>
        <time>2017-01-18T11:49:53.075Z</time>
      </trkpt>
      <trkpt lat="42.98574" lon="-0.00673">
        <ele>1611</ele>
        <time>2017-01-18T11:49:54.075Z</time>
      </trkpt>
      <trkpt lat="42.98574" lon="-0.00673">
        <ele>1611</ele>
        <time>2017-01-18T11:49:55.075Z</time>
      </trkpt>
      <trkpt lat="42.98572" lon="-0.00673">
        <ele>1612</ele>
        <time>2017-01-18T11:49:56.075Z</time>
      </trkpt>
      <trkpt lat="42.98571" lon="-0.00673">
        <ele>1612</ele>
        <time>2017-01-18T11:49:57.075Z</time>
      </trkpt>
      <trkpt lat="42.98571" lon="-0.00673">
        <ele>1612</ele>
        <time>2017-01-18T11:49:58.075Z</time>
      </trkpt>
      <trkpt lat="42.9857" lon="-0.00673">
        <ele>1612</ele>
        <time>2017-01-18T11:49:59.075Z</time>
      </trkpt>
      <trkpt lat="42.98569" lon="-0.00673">
        <ele>1612</ele>
        <time>2017-01-18T11:50:00.075Z</time>
      </trkpt>
      <trkpt lat="42.98569" lon="-0.00673">
        <ele>1612</ele>
        <time>2017-01-18T11:50:01.075Z</time>
      </trkpt>
      <trkpt lat="42.98568" lon="-0.00673">
        <ele>1612</ele>
        <time>2017-01-18T11:50:02.075Z</time>
      </trkpt>
      <trkpt lat="42.98568" lon="-0.00673">
        <ele>1612</ele>
        <time>2017-01-18T11:50:03.075Z</time>
      </trkpt>
      <trkpt lat="42.98566" lon="-0.00673">
        <ele>1612</ele>
        <time>2017-01-18T11:50:04.075Z</time>
      </trkpt>
      <trkpt lat="42.98565" lon="-0.00673">
        <ele>1612</ele>
        <time>2017-01-18T11:50:05.075Z</time>
      </trkpt>
      <trkpt lat="42.98565" lon="-0.00673">
        <ele>1612</ele>
        <time>2017-01-18T11:50:06.075Z</time>
      </trkpt>
      <trkpt lat="42.98565" lon="-0.00673">
        <ele>1612</ele>
        <time>2017-01-18T11:50:07.075Z</time>
      </trkpt>
      <trkpt lat="42.98564" lon="-0.00672">
        <ele>1612</ele>
        <time>2017-01-18T11:50:08.075Z</time>
      </trkpt>
      <trkpt lat="42.98562" lon="-0.00672">
        <ele>1612</ele>
        <time>2017-01-18T11:50:09.075Z</time>
      </trkpt>
      <trkpt lat="42.98562" lon="-0.00672">
        <ele>1612</ele>
        <time>2017-01-18T11:50:10.075Z</time>
      </trkpt>
      <trkpt lat="42.98561" lon="-0.00672">
        <ele>1612</ele>
        <time>2017-01-18T11:50:11.075Z</time>
      </trkpt>
      <trkpt lat="42.9856" lon="-0.00672">
        <ele>1612</ele>
        <time>2017-01-18T11:50:12.075Z</time>
      </trkpt>
      <trkpt lat="42.98559" lon="-0.00672">
        <ele>1612</ele>
        <time>2017-01-18T11:50:13.075Z</time>
      </trkpt>
      <trkpt lat="42.98559" lon="-0.00672">
        <ele>1612</ele>
        <time>2017-01-18T11:50:14.075Z</time>
      </trkpt>
      <trkpt lat="42.98558" lon="-0.00671">
        <ele>1612</ele>
        <time>2017-01-18T11:50:15.075Z</time>
      </trkpt>
      <trkpt lat="42.98557" lon="-0.00671">
        <ele>1612</ele>
        <time>2017-01-18T11:50:16.075Z</time>
      </trkpt>
      <trkpt lat="42.98556" lon="-0.00671">
        <ele>1612</ele>
        <time>2017-01-18T11:50:17.075Z</time>
      </trkpt>
      <trkpt lat="42.98556" lon="-0.00671">
        <ele>1612</ele>
        <time>2017-01-18T11:50:18.075Z</time>
      </trkpt>
      <trkpt lat="42.98555" lon="-0.00671">
        <ele>1613</ele>
        <time>2017-01-18T11:50:19.075Z</time>
      </trkpt>
      <trkpt lat="42.98555" lon="-0.00671">
        <ele>1613</ele>
        <time>2017-01-18T11:50:20.075Z</time>
      </trkpt>
      <trkpt lat="42.98553" lon="-0.00671">
        <ele>1613</ele>
        <time>2017-01-18T11:50:21.075Z</time>
      </trkpt>
      <trkpt lat="42.98553" lon="-0.00671">
        <ele>1613</ele>
        <time>2017-01-18T11:50:22.075Z</time>
      </trkpt>
      <trkpt lat="42.98552" lon="-0.00672">
        <ele>1613</ele>
        <time>2017-01-18T11:50:23.075Z</time>
      </trkpt>
      <trkpt lat="42.98551" lon="-0.00672">
        <ele>1613</ele>
        <time>2017-01-18T11:50:24.075Z</time>
      </trkpt>
      <trkpt lat="42.9855" lon="-0.00672">
        <ele>1613</ele>
        <time>2017-01-18T11:50:25.075Z</time>
      </trkpt>
      <trkpt lat="42.9855" lon="-0.00672">
        <ele>1613</ele>
        <time>2017-01-18T11:50:26.075Z</time>
      </trkpt>
      <trkpt lat="42.98549" lon="-0.00672">
        <ele>1612</ele>
        <time>2017-01-18T11:50:27.075Z</time>
      </trkpt>
      <trkpt lat="42.98548" lon="-0.00672">
        <ele>1612</ele>
        <time>2017-01-18T11:50:28.075Z</time>
      </trkpt>
      <trkpt lat="42.98548" lon="-0.00673">
        <ele>1612</ele>
        <time>2017-01-18T11:50:29.075Z</time>
      </trkpt>
      <trkpt lat="42.98547" lon="-0.00673">
        <ele>1613</ele>
        <time>2017-01-18T11:50:30.075Z</time>
      </trkpt>
      <trkpt lat="42.98546" lon="-0.00673">
        <ele>1613</ele>
        <time>2017-01-18T11:50:31.075Z</time>
      </trkpt>
      <trkpt lat="42.98546" lon="-0.00673">
        <ele>1613</ele>
        <time>2017-01-18T11:50:32.075Z</time>
      </trkpt>
      <trkpt lat="42.98545" lon="-0.00673">
        <ele>1613</ele>
        <time>2017-01-18T11:50:33.075Z</time>
      </trkpt>
      <trkpt lat="42.98545" lon="-0.00673">
        <ele>1613</ele>
        <time>2017-01-18T11:50:34.075Z</time>
      </trkpt>
      <trkpt lat="42.98544" lon="-0.00672">
        <ele>1613</ele>
        <time>2017-01-18T11:50:35.075Z</time>
      </trkpt>
      <trkpt lat="42.98543" lon="-0.00672">
        <ele>1613</ele>
        <time>2017-01-18T11:50:36.075Z</time>
      </trkpt>
      <trkpt lat="42.98542" lon="-0.00672">
        <ele>1613</ele>
        <time>2017-01-18T11:50:37.075Z</time>
      </trkpt>
      <trkpt lat="42.98542" lon="-0.00672">
        <ele>1614</ele>
        <time>2017-01-18T11:50:38.075Z</time>
      </trkpt>
      <trkpt lat="42.98541" lon="-0.00672">
        <ele>1614</ele>
        <time>2017-01-18T11:50:39.075Z</time>
      </trkpt>
      <trkpt lat="42.98541" lon="-0.00672">
        <ele>1614</ele>
        <time>2017-01-18T11:50:40.075Z</time>
      </trkpt>
      <trkpt lat="42.9854" lon="-0.00672">
        <ele>1614</ele>
        <time>2017-01-18T11:50:41.075Z</time>
      </trkpt>
      <trkpt lat="42.9854" lon="-0.00672">
        <ele>1614</ele>
        <time>2017-01-18T11:50:42.075Z</time>
      </trkpt>
      <trkpt lat="42.9854" lon="-0.00673">
        <ele>1614</ele>
        <time>2017-01-18T11:50:43.075Z</time>
      </trkpt>
      <trkpt lat="42.9854" lon="-0.00673">
        <ele>1614</ele>
        <time>2017-01-18T11:50:44.075Z</time>
      </trkpt>
      <trkpt lat="42.9854" lon="-0.00673">
        <ele>1614</ele>
        <time>2017-01-18T11:50:45.075Z</time>
      </trkpt>
      <trkpt lat="42.9854" lon="-0.00673">
        <ele>1613</ele>
        <time>2017-01-18T11:50:46.075Z</time>
      </trkpt>
      <trkpt lat="42.9854" lon="-0.00673">
        <ele>1613</ele>
        <time>2017-01-18T11:50:47.075Z</time>
      </trkpt>
      <trkpt lat="42.9854" lon="-0.00673">
        <ele>1613</ele>
        <time>2017-01-18T11:50:48.075Z</time>
      </trkpt>
      <trkpt lat="42.9854" lon="-0.00673">
        <ele>1613</ele>
        <time>2017-01-18T11:50:49.075Z</time>
      </trkpt>
      <trkpt lat="42.98539" lon="-0.00674">
        <ele>1613</ele>
        <time>2017-01-18T11:50:50.075Z</time>
      </trkpt>
      <trkpt lat="42.98539" lon="-0.00674">
        <ele>1613</ele>
        <time>2017-01-18T11:50:51.075Z</time>
      </trkpt>
      <trkpt lat="42.98539" lon="-0.00674">
        <ele>1614</ele>
        <time>2017-01-18T11:50:52.075Z</time>
      </trkpt>
      <trkpt lat="42.98539" lon="-0.00674">
        <ele>1614</ele>
        <time>2017-01-18T11:50:53.075Z</time>
      </trkpt>
      <trkpt lat="42.98539" lon="-0.00674">
        <ele>1614</ele>
        <time>2017-01-18T11:50:54.075Z</time>
      </trkpt>
      <trkpt lat="42.98539" lon="-0.00674">
        <ele>1614</ele>
        <time>2017-01-18T11:50:55.075Z</time>
      </trkpt>
      <trkpt lat="42.98539" lon="-0.00674">
        <ele>1614</ele>
        <time>2017-01-18T11:50:56.075Z</time>
      </trkpt>
      <trkpt lat="42.9854" lon="-0.00674">
        <ele>1614</ele>
        <time>2017-01-18T11:50:57.075Z</time>
      </trkpt>
      <trkpt lat="42.9854" lon="-0.00674">
        <ele>1614</ele>
        <time>2017-01-18T11:50:58.075Z</time>
      </trkpt>
      <trkpt lat="42.9854" lon="-0.00674">
        <ele>1614</ele>
        <time>2017-01-18T11:50:59.075Z</time>
      </trkpt>
      <trkpt lat="42.98536" lon="-0.00671">
        <ele>1614</ele>
        <time>2017-01-18T11:51:00.079Z</time>
      </trkpt>
      <trkpt lat="42.98535" lon="-0.0067">
        <ele>1614</ele>
        <time>2017-01-18T11:51:01.079Z</time>
      </trkpt>
      <trkpt lat="42.98535" lon="-0.00669">
        <ele>1614</ele>
        <time>2017-01-18T11:51:02.079Z</time>
      </trkpt>
      <trkpt lat="42.98534" lon="-0.00668">
        <ele>1614</ele>
        <time>2017-01-18T11:51:03.079Z</time>
      </trkpt>
      <trkpt lat="42.98534" lon="-0.00668">
        <ele>1614</ele>
        <time>2017-01-18T11:51:04.079Z</time>
      </trkpt>
      <trkpt lat="42.98533" lon="-0.00667">
        <ele>1614</ele>
        <time>2017-01-18T11:51:05.079Z</time>
      </trkpt>
      <trkpt lat="42.98533" lon="-0.00667">
        <ele>1614</ele>
        <time>2017-01-18T11:51:06.079Z</time>
      </trkpt>
      <trkpt lat="42.98532" lon="-0.00666">
        <ele>1613</ele>
        <time>2017-01-18T11:51:07.079Z</time>
      </trkpt>
      <trkpt lat="42.98532" lon="-0.00666">
        <ele>1613</ele>
        <time>2017-01-18T11:51:08.079Z</time>
      </trkpt>
      <trkpt lat="42.98532" lon="-0.00665">
        <ele>1613</ele>
        <time>2017-01-18T11:51:09.079Z</time>
      </trkpt>
      <trkpt lat="42.98531" lon="-0.00664">
        <ele>1613</ele>
        <time>2017-01-18T11:51:10.079Z</time>
      </trkpt>
      <trkpt lat="42.98531" lon="-0.00664">
        <ele>1613</ele>
        <time>2017-01-18T11:51:11.079Z</time>
      </trkpt>
      <trkpt lat="42.98529" lon="-0.00662">
        <ele>1612</ele>
        <time>2017-01-18T11:51:12.079Z</time>
      </trkpt>
      <trkpt lat="42.98529" lon="-0.00661">
        <ele>1612</ele>
        <time>2017-01-18T11:51:13.079Z</time>
      </trkpt>
      <trkpt lat="42.98528" lon="-0.00661">
        <ele>1612</ele>
        <time>2017-01-18T11:51:14.079Z</time>
      </trkpt>
      <trkpt lat="42.98527" lon="-0.0066">
        <ele>1612</ele>
        <time>2017-01-18T11:51:15.079Z</time>
      </trkpt>
      <trkpt lat="42.98527" lon="-0.00659">
        <ele>1612</ele>
        <time>2017-01-18T11:51:16.079Z</time>
      </trkpt>
      <trkpt lat="42.98526" lon="-0.00659">
        <ele>1612</ele>
        <time>2017-01-18T11:51:17.079Z</time>
      </trkpt>
      <trkpt lat="42.98525" lon="-0.00658">
        <ele>1612</ele>
        <time>2017-01-18T11:51:18.079Z</time>
      </trkpt>
      <trkpt lat="42.98525" lon="-0.00658">
        <ele>1612</ele>
        <time>2017-01-18T11:51:19.079Z</time>
      </trkpt>
      <trkpt lat="42.98524" lon="-0.00657">
        <ele>1612</ele>
        <time>2017-01-18T11:51:20.079Z</time>
      </trkpt>
      <trkpt lat="42.98524" lon="-0.00656">
        <ele>1611</ele>
        <time>2017-01-18T11:51:21.079Z</time>
      </trkpt>
      <trkpt lat="42.98523" lon="-0.00656">
        <ele>1611</ele>
        <time>2017-01-18T11:51:22.079Z</time>
      </trkpt>
      <trkpt lat="42.98522" lon="-0.00655">
        <ele>1611</ele>
        <time>2017-01-18T11:51:23.079Z</time>
      </trkpt>
      <trkpt lat="42.98522" lon="-0.00655">
        <ele>1611</ele>
        <time>2017-01-18T11:51:24.079Z</time>
      </trkpt>
      <trkpt lat="42.98521" lon="-0.00655">
        <ele>1610</ele>
        <time>2017-01-18T11:51:25.079Z</time>
      </trkpt>
      <trkpt lat="42.98521" lon="-0.00654">
        <ele>1610</ele>
        <time>2017-01-18T11:51:26.079Z</time>
      </trkpt>
      <trkpt lat="42.9852" lon="-0.00653">
        <ele>1610</ele>
        <time>2017-01-18T11:51:27.079Z</time>
      </trkpt>
      <trkpt lat="42.98519" lon="-0.00653">
        <ele>1610</ele>
        <time>2017-01-18T11:51:28.079Z</time>
      </trkpt>
      <trkpt lat="42.98519" lon="-0.00652">
        <ele>1610</ele>
        <time>2017-01-18T11:51:29.079Z</time>
      </trkpt>
      <trkpt lat="42.98518" lon="-0.00652">
        <ele>1610</ele>
        <time>2017-01-18T11:51:30.079Z</time>
      </trkpt>
      <trkpt lat="42.98518" lon="-0.00651">
        <ele>1610</ele>
        <time>2017-01-18T11:51:31.079Z</time>
      </trkpt>
      <trkpt lat="42.98517" lon="-0.00651">
        <ele>1610</ele>
        <time>2017-01-18T11:51:32.079Z</time>
      </trkpt>
      <trkpt lat="42.98516" lon="-0.0065">
        <ele>1609</ele>
        <time>2017-01-18T11:51:33.079Z</time>
      </trkpt>
      <trkpt lat="42.98516" lon="-0.0065">
        <ele>1609</ele>
        <time>2017-01-18T11:51:34.079Z</time>
      </trkpt>
      <trkpt lat="42.98515" lon="-0.00649">
        <ele>1609</ele>
        <time>2017-01-18T11:51:35.079Z</time>
      </trkpt>
      <trkpt lat="42.98514" lon="-0.00648">
        <ele>1609</ele>
        <time>2017-01-18T11:51:36.079Z</time>
      </trkpt>
      <trkpt lat="42.98514" lon="-0.00648">
        <ele>1608</ele>
        <time>2017-01-18T11:51:37.079Z</time>
      </trkpt>
      <trkpt lat="42.98513" lon="-0.00647">
        <ele>1608</ele>
        <time>2017-01-18T11:51:38.079Z</time>
      </trkpt>
      <trkpt lat="42.98513" lon="-0.00646">
        <ele>1608</ele>
        <time>2017-01-18T11:51:39.079Z</time>
      </trkpt>
      <trkpt lat="42.98512" lon="-0.00646">
        <ele>1608</ele>
        <time>2017-01-18T11:51:40.079Z</time>
      </trkpt>
      <trkpt lat="42.98511" lon="-0.00645">
        <ele>1608</ele>
        <time>2017-01-18T11:51:41.079Z</time>
      </trkpt>
      <trkpt lat="42.98511" lon="-0.00644">
        <ele>1608</ele>
        <time>2017-01-18T11:51:42.079Z</time>
      </trkpt>
      <trkpt lat="42.9851" lon="-0.00644">
        <ele>1607</ele>
        <time>2017-01-18T11:51:43.079Z</time>
      </trkpt>
      <trkpt lat="42.98509" lon="-0.00643">
        <ele>1607</ele>
        <time>2017-01-18T11:51:44.079Z</time>
      </trkpt>
      <trkpt lat="42.98509" lon="-0.00643">
        <ele>1607</ele>
        <time>2017-01-18T11:51:45.079Z</time>
      </trkpt>
      <trkpt lat="42.98508" lon="-0.00642">
        <ele>1607</ele>
        <time>2017-01-18T11:51:46.079Z</time>
      </trkpt>
      <trkpt lat="42.98507" lon="-0.00642">
        <ele>1607</ele>
        <time>2017-01-18T11:51:47.079Z</time>
      </trkpt>
      <trkpt lat="42.98507" lon="-0.00641">
        <ele>1607</ele>
        <time>2017-01-18T11:51:48.079Z</time>
      </trkpt>
      <trkpt lat="42.98506" lon="-0.0064">
        <ele>1606</ele>
        <time>2017-01-18T11:51:49.079Z</time>
      </trkpt>
      <trkpt lat="42.98505" lon="-0.0064">
        <ele>1606</ele>
        <time>2017-01-18T11:51:50.079Z</time>
      </trkpt>
      <trkpt lat="42.98505" lon="-0.00639">
        <ele>1606</ele>
        <time>2017-01-18T11:51:51.079Z</time>
      </trkpt>
      <trkpt lat="42.98504" lon="-0.00639">
        <ele>1606</ele>
        <time>2017-01-18T11:51:52.079Z</time>
      </trkpt>
      <trkpt lat="42.98503" lon="-0.00638">
        <ele>1606</ele>
        <time>2017-01-18T11:51:53.079Z</time>
      </trkpt>
      <trkpt lat="42.98502" lon="-0.00637">
        <ele>1606</ele>
        <time>2017-01-18T11:51:54.079Z</time>
      </trkpt>
      <trkpt lat="42.98502" lon="-0.00637">
        <ele>1606</ele>
        <time>2017-01-18T11:51:55.079Z</time>
      </trkpt>
      <trkpt lat="42.98501" lon="-0.00636">
        <ele>1606</ele>
        <time>2017-01-18T11:51:56.079Z</time>
      </trkpt>
      <trkpt lat="42.985" lon="-0.00635">
        <ele>1606</ele>
        <time>2017-01-18T11:51:57.079Z</time>
      </trkpt>
      <trkpt lat="42.985" lon="-0.00635">
        <ele>1606</ele>
        <time>2017-01-18T11:51:58.079Z</time>
      </trkpt>
      <trkpt lat="42.98499" lon="-0.00634">
        <ele>1606</ele>
        <time>2017-01-18T11:51:59.079Z</time>
      </trkpt>
      <trkpt lat="42.98498" lon="-0.00633">
        <ele>1606</ele>
        <time>2017-01-18T11:52:00.079Z</time>
      </trkpt>
      <trkpt lat="42.98498" lon="-0.00633">
        <ele>1606</ele>
        <time>2017-01-18T11:52:01.079Z</time>
      </trkpt>
      <trkpt lat="42.98497" lon="-0.00632">
        <ele>1605</ele>
        <time>2017-01-18T11:52:02.079Z</time>
      </trkpt>
      <trkpt lat="42.98497" lon="-0.00631">
        <ele>1605</ele>
        <time>2017-01-18T11:52:03.079Z</time>
      </trkpt>
      <trkpt lat="42.98496" lon="-0.0063">
        <ele>1605</ele>
        <time>2017-01-18T11:52:04.079Z</time>
      </trkpt>
      <trkpt lat="42.98495" lon="-0.0063">
        <ele>1605</ele>
        <time>2017-01-18T11:52:05.079Z</time>
      </trkpt>
      <trkpt lat="42.98495" lon="-0.00629">
        <ele>1605</ele>
        <time>2017-01-18T11:52:06.079Z</time>
      </trkpt>
      <trkpt lat="42.98494" lon="-0.00628">
        <ele>1605</ele>
        <time>2017-01-18T11:52:07.079Z</time>
      </trkpt>
      <trkpt lat="42.98493" lon="-0.00628">
        <ele>1605</ele>
        <time>2017-01-18T11:52:08.079Z</time>
      </trkpt>
      <trkpt lat="42.98492" lon="-0.00627">
        <ele>1604</ele>
        <time>2017-01-18T11:52:09.079Z</time>
      </trkpt>
      <trkpt lat="42.98492" lon="-0.00626">
        <ele>1605</ele>
        <time>2017-01-18T11:52:10.079Z</time>
      </trkpt>
      <trkpt lat="42.98491" lon="-0.00625">
        <ele>1604</ele>
        <time>2017-01-18T11:52:11.079Z</time>
      </trkpt>
      <trkpt lat="42.9849" lon="-0.00624">
        <ele>1604</ele>
        <time>2017-01-18T11:52:12.079Z</time>
      </trkpt>
      <trkpt lat="42.98489" lon="-0.00624">
        <ele>1604</ele>
        <time>2017-01-18T11:52:13.079Z</time>
      </trkpt>
      <trkpt lat="42.98488" lon="-0.00623">
        <ele>1604</ele>
        <time>2017-01-18T11:52:14.079Z</time>
      </trkpt>
      <trkpt lat="42.98487" lon="-0.00623">
        <ele>1604</ele>
        <time>2017-01-18T11:52:15.079Z</time>
      </trkpt>
      <trkpt lat="42.98487" lon="-0.00622">
        <ele>1604</ele>
        <time>2017-01-18T11:52:16.079Z</time>
      </trkpt>
      <trkpt lat="42.98486" lon="-0.00621">
        <ele>1604</ele>
        <time>2017-01-18T11:52:17.079Z</time>
      </trkpt>
      <trkpt lat="42.98485" lon="-0.0062">
        <ele>1604</ele>
        <time>2017-01-18T11:52:18.079Z</time>
      </trkpt>
      <trkpt lat="42.98485" lon="-0.0062">
        <ele>1604</ele>
        <time>2017-01-18T11:52:19.079Z</time>
      </trkpt>
      <trkpt lat="42.98484" lon="-0.00619">
        <ele>1604</ele>
        <time>2017-01-18T11:52:20.079Z</time>
      </trkpt>
      <trkpt lat="42.98483" lon="-0.00618">
        <ele>1604</ele>
        <time>2017-01-18T11:52:21.079Z</time>
      </trkpt>
      <trkpt lat="42.98482" lon="-0.00617">
        <ele>1604</ele>
        <time>2017-01-18T11:52:22.079Z</time>
      </trkpt>
      <trkpt lat="42.98481" lon="-0.00617">
        <ele>1604</ele>
        <time>2017-01-18T11:52:23.079Z</time>
      </trkpt>
      <trkpt lat="42.9848" lon="-0.00616">
        <ele>1604</ele>
        <time>2017-01-18T11:52:24.079Z</time>
      </trkpt>
      <trkpt lat="42.9848" lon="-0.00616">
        <ele>1604</ele>
        <time>2017-01-18T11:52:25.079Z</time>
      </trkpt>
      <trkpt lat="42.98479" lon="-0.00615">
        <ele>1604</ele>
        <time>2017-01-18T11:52:26.079Z</time>
      </trkpt>
      <trkpt lat="42.98478" lon="-0.00614">
        <ele>1604</ele>
        <time>2017-01-18T11:52:27.079Z</time>
      </trkpt>
      <trkpt lat="42.98477" lon="-0.00614">
        <ele>1604</ele>
        <time>2017-01-18T11:52:28.079Z</time>
      </trkpt>
      <trkpt lat="42.98477" lon="-0.00613">
        <ele>1604</ele>
        <time>2017-01-18T11:52:29.079Z</time>
      </trkpt>
      <trkpt lat="42.98476" lon="-0.00612">
        <ele>1604</ele>
        <time>2017-01-18T11:52:30.079Z</time>
      </trkpt>
      <trkpt lat="42.98475" lon="-0.00612">
        <ele>1603</ele>
        <time>2017-01-18T11:52:31.079Z</time>
      </trkpt>
      <trkpt lat="42.98475" lon="-0.00611">
        <ele>1604</ele>
        <time>2017-01-18T11:52:32.079Z</time>
      </trkpt>
      <trkpt lat="42.98474" lon="-0.0061">
        <ele>1603</ele>
        <time>2017-01-18T11:52:33.079Z</time>
      </trkpt>
      <trkpt lat="42.98473" lon="-0.00609">
        <ele>1603</ele>
        <time>2017-01-18T11:52:34.079Z</time>
      </trkpt>
      <trkpt lat="42.98472" lon="-0.00609">
        <ele>1603</ele>
        <time>2017-01-18T11:52:35.079Z</time>
      </trkpt>
      <trkpt lat="42.98471" lon="-0.00608">
        <ele>1603</ele>
        <time>2017-01-18T11:52:36.079Z</time>
      </trkpt>
      <trkpt lat="42.98471" lon="-0.00607">
        <ele>1603</ele>
        <time>2017-01-18T11:52:37.079Z</time>
      </trkpt>
      <trkpt lat="42.9847" lon="-0.00606">
        <ele>1603</ele>
        <time>2017-01-18T11:52:38.079Z</time>
      </trkpt>
      <trkpt lat="42.98469" lon="-0.00606">
        <ele>1603</ele>
        <time>2017-01-18T11:52:39.079Z</time>
      </trkpt>
      <trkpt lat="42.98468" lon="-0.00605">
        <ele>1603</ele>
        <time>2017-01-18T11:52:40.079Z</time>
      </trkpt>
      <trkpt lat="42.98468" lon="-0.00604">
        <ele>1603</ele>
        <time>2017-01-18T11:52:41.079Z</time>
      </trkpt>
      <trkpt lat="42.98467" lon="-0.00604">
        <ele>1603</ele>
        <time>2017-01-18T11:52:42.079Z</time>
      </trkpt>
      <trkpt lat="42.98467" lon="-0.00604">
        <ele>1603</ele>
        <time>2017-01-18T11:52:43.079Z</time>
      </trkpt>
      <trkpt lat="42.98467" lon="-0.00604">
        <ele>1602</ele>
        <time>2017-01-18T11:52:44.079Z</time>
      </trkpt>
      <trkpt lat="42.98467" lon="-0.00604">
        <ele>1602</ele>
        <time>2017-01-18T11:52:45.079Z</time>
      </trkpt>
      <trkpt lat="42.98467" lon="-0.00603">
        <ele>1602</ele>
        <time>2017-01-18T11:52:46.079Z</time>
      </trkpt>
      <trkpt lat="42.98466" lon="-0.00602">
        <ele>1602</ele>
        <time>2017-01-18T11:52:47.079Z</time>
      </trkpt>
      <trkpt lat="42.98466" lon="-0.00602">
        <ele>1602</ele>
        <time>2017-01-18T11:52:48.079Z</time>
      </trkpt>
      <trkpt lat="42.98465" lon="-0.00601">
        <ele>1602</ele>
        <time>2017-01-18T11:52:49.079Z</time>
      </trkpt>
      <trkpt lat="42.98465" lon="-0.006">
        <ele>1602</ele>
        <time>2017-01-18T11:52:50.079Z</time>
      </trkpt>
      <trkpt lat="42.98464" lon="-0.00599">
        <ele>1602</ele>
        <time>2017-01-18T11:52:51.079Z</time>
      </trkpt>
      <trkpt lat="42.98464" lon="-0.00598">
        <ele>1602</ele>
        <time>2017-01-18T11:52:52.079Z</time>
      </trkpt>
      <trkpt lat="42.98463" lon="-0.00597">
        <ele>1602</ele>
        <time>2017-01-18T11:52:53.079Z</time>
      </trkpt>
      <trkpt lat="42.98463" lon="-0.00596">
        <ele>1602</ele>
        <time>2017-01-18T11:52:54.079Z</time>
      </trkpt>
      <trkpt lat="42.98462" lon="-0.00595">
        <ele>1602</ele>
        <time>2017-01-18T11:52:55.079Z</time>
      </trkpt>
      <trkpt lat="42.98461" lon="-0.00594">
        <ele>1602</ele>
        <time>2017-01-18T11:52:56.079Z</time>
      </trkpt>
      <trkpt lat="42.98461" lon="-0.00593">
        <ele>1602</ele>
        <time>2017-01-18T11:52:57.079Z</time>
      </trkpt>
      <trkpt lat="42.9846" lon="-0.00592">
        <ele>1602</ele>
        <time>2017-01-18T11:52:58.079Z</time>
      </trkpt>
      <trkpt lat="42.9846" lon="-0.00591">
        <ele>1602</ele>
        <time>2017-01-18T11:52:59.079Z</time>
      </trkpt>
      <trkpt lat="42.9846" lon="-0.0059">
        <ele>1602</ele>
        <time>2017-01-18T11:53:00.079Z</time>
      </trkpt>
      <trkpt lat="42.98459" lon="-0.00589">
        <ele>1602</ele>
        <time>2017-01-18T11:53:01.079Z</time>
      </trkpt>
      <trkpt lat="42.98459" lon="-0.00588">
        <ele>1601</ele>
        <time>2017-01-18T11:53:02.079Z</time>
      </trkpt>
      <trkpt lat="42.98459" lon="-0.00587">
        <ele>1601</ele>
        <time>2017-01-18T11:53:03.079Z</time>
      </trkpt>
      <trkpt lat="42.98458" lon="-0.00586">
        <ele>1601</ele>
        <time>2017-01-18T11:53:04.079Z</time>
      </trkpt>
      <trkpt lat="42.98458" lon="-0.00585">
        <ele>1601</ele>
        <time>2017-01-18T11:53:05.079Z</time>
      </trkpt>
      <trkpt lat="42.98458" lon="-0.00583">
        <ele>1601</ele>
        <time>2017-01-18T11:53:06.079Z</time>
      </trkpt>
      <trkpt lat="42.98458" lon="-0.00582">
        <ele>1601</ele>
        <time>2017-01-18T11:53:07.079Z</time>
      </trkpt>
      <trkpt lat="42.98457" lon="-0.00581">
        <ele>1601</ele>
        <time>2017-01-18T11:53:08.079Z</time>
      </trkpt>
      <trkpt lat="42.98457" lon="-0.0058">
        <ele>1601</ele>
        <time>2017-01-18T11:53:09.079Z</time>
      </trkpt>
      <trkpt lat="42.98456" lon="-0.00579">
        <ele>1601</ele>
        <time>2017-01-18T11:53:10.079Z</time>
      </trkpt>
      <trkpt lat="42.98456" lon="-0.00578">
        <ele>1601</ele>
        <time>2017-01-18T11:53:11.079Z</time>
      </trkpt>
      <trkpt lat="42.98456" lon="-0.00577">
        <ele>1601</ele>
        <time>2017-01-18T11:53:12.079Z</time>
      </trkpt>
      <trkpt lat="42.98455" lon="-0.00576">
        <ele>1601</ele>
        <time>2017-01-18T11:53:13.079Z</time>
      </trkpt>
      <trkpt lat="42.98455" lon="-0.00575">
        <ele>1600</ele>
        <time>2017-01-18T11:53:14.079Z</time>
      </trkpt>
      <trkpt lat="42.98455" lon="-0.00573">
        <ele>1600</ele>
        <time>2017-01-18T11:53:15.079Z</time>
      </trkpt>
      <trkpt lat="42.98454" lon="-0.00572">
        <ele>1600</ele>
        <time>2017-01-18T11:53:16.079Z</time>
      </trkpt>
      <trkpt lat="42.98454" lon="-0.00571">
        <ele>1600</ele>
        <time>2017-01-18T11:53:17.079Z</time>
      </trkpt>
      <trkpt lat="42.98454" lon="-0.0057">
        <ele>1600</ele>
        <time>2017-01-18T11:53:18.079Z</time>
      </trkpt>
      <trkpt lat="42.98453" lon="-0.00569">
        <ele>1600</ele>
        <time>2017-01-18T11:53:19.079Z</time>
      </trkpt>
      <trkpt lat="42.98453" lon="-0.00568">
        <ele>1600</ele>
        <time>2017-01-18T11:53:20.079Z</time>
      </trkpt>
      <trkpt lat="42.98452" lon="-0.00567">
        <ele>1600</ele>
        <time>2017-01-18T11:53:21.079Z</time>
      </trkpt>
      <trkpt lat="42.98452" lon="-0.00566">
        <ele>1600</ele>
        <time>2017-01-18T11:53:22.079Z</time>
      </trkpt>
      <trkpt lat="42.98451" lon="-0.00565">
        <ele>1600</ele>
        <time>2017-01-18T11:53:23.079Z</time>
      </trkpt>
      <trkpt lat="42.98451" lon="-0.00563">
        <ele>1600</ele>
        <time>2017-01-18T11:53:24.079Z</time>
      </trkpt>
      <trkpt lat="42.9845" lon="-0.00563">
        <ele>1599</ele>
        <time>2017-01-18T11:53:25.079Z</time>
      </trkpt>
      <trkpt lat="42.9845" lon="-0.00562">
        <ele>1599</ele>
        <time>2017-01-18T11:53:26.079Z</time>
      </trkpt>
      <trkpt lat="42.98449" lon="-0.00561">
        <ele>1599</ele>
        <time>2017-01-18T11:53:27.079Z</time>
      </trkpt>
      <trkpt lat="42.98449" lon="-0.0056">
        <ele>1599</ele>
        <time>2017-01-18T11:53:28.079Z</time>
      </trkpt>
      <trkpt lat="42.98448" lon="-0.00559">
        <ele>1599</ele>
        <time>2017-01-18T11:53:29.079Z</time>
      </trkpt>
      <trkpt lat="42.98448" lon="-0.00558">
        <ele>1599</ele>
        <time>2017-01-18T11:53:30.079Z</time>
      </trkpt>
      <trkpt lat="42.98447" lon="-0.00557">
        <ele>1598</ele>
        <time>2017-01-18T11:53:31.079Z</time>
      </trkpt>
      <trkpt lat="42.98447" lon="-0.00556">
        <ele>1598</ele>
        <time>2017-01-18T11:53:32.079Z</time>
      </trkpt>
      <trkpt lat="42.98446" lon="-0.00555">
        <ele>1598</ele>
        <time>2017-01-18T11:53:33.079Z</time>
      </trkpt>
      <trkpt lat="42.98445" lon="-0.00554">
        <ele>1598</ele>
        <time>2017-01-18T11:53:34.079Z</time>
      </trkpt>
      <trkpt lat="42.98445" lon="-0.00553">
        <ele>1598</ele>
        <time>2017-01-18T11:53:35.079Z</time>
      </trkpt>
      <trkpt lat="42.98444" lon="-0.00552">
        <ele>1597</ele>
        <time>2017-01-18T11:53:36.079Z</time>
      </trkpt>
      <trkpt lat="42.98444" lon="-0.00551">
        <ele>1598</ele>
        <time>2017-01-18T11:53:37.079Z</time>
      </trkpt>
      <trkpt lat="42.98443" lon="-0.0055">
        <ele>1598</ele>
        <time>2017-01-18T11:53:38.079Z</time>
      </trkpt>
      <trkpt lat="42.98443" lon="-0.00549">
        <ele>1597</ele>
        <time>2017-01-18T11:53:39.079Z</time>
      </trkpt>
      <trkpt lat="42.98442" lon="-0.00548">
        <ele>1597</ele>
        <time>2017-01-18T11:53:40.079Z</time>
      </trkpt>
      <trkpt lat="42.98442" lon="-0.00547">
        <ele>1597</ele>
        <time>2017-01-18T11:53:41.079Z</time>
      </trkpt>
      <trkpt lat="42.98441" lon="-0.00546">
        <ele>1597</ele>
        <time>2017-01-18T11:53:42.079Z</time>
      </trkpt>
      <trkpt lat="42.9844" lon="-0.00545">
        <ele>1597</ele>
        <time>2017-01-18T11:53:43.079Z</time>
      </trkpt>
      <trkpt lat="42.9844" lon="-0.00544">
        <ele>1597</ele>
        <time>2017-01-18T11:53:44.079Z</time>
      </trkpt>
      <trkpt lat="42.98439" lon="-0.00543">
        <ele>1597</ele>
        <time>2017-01-18T11:53:45.079Z</time>
      </trkpt>
      <trkpt lat="42.98439" lon="-0.00542">
        <ele>1596</ele>
        <time>2017-01-18T11:53:46.079Z</time>
      </trkpt>
      <trkpt lat="42.98438" lon="-0.0054">
        <ele>1597</ele>
        <time>2017-01-18T11:53:47.079Z</time>
      </trkpt>
      <trkpt lat="42.98438" lon="-0.00539">
        <ele>1597</ele>
        <time>2017-01-18T11:53:48.079Z</time>
      </trkpt>
      <trkpt lat="42.98437" lon="-0.00538">
        <ele>1596</ele>
        <time>2017-01-18T11:53:49.079Z</time>
      </trkpt>
      <trkpt lat="42.98437" lon="-0.00537">
        <ele>1596</ele>
        <time>2017-01-18T11:53:50.079Z</time>
      </trkpt>
      <trkpt lat="42.98436" lon="-0.00537">
        <ele>1596</ele>
        <time>2017-01-18T11:53:51.079Z</time>
      </trkpt>
      <trkpt lat="42.98436" lon="-0.00536">
        <ele>1596</ele>
        <time>2017-01-18T11:53:52.079Z</time>
      </trkpt>
      <trkpt lat="42.98435" lon="-0.00535">
        <ele>1596</ele>
        <time>2017-01-18T11:53:53.079Z</time>
      </trkpt>
      <trkpt lat="42.98435" lon="-0.00534">
        <ele>1596</ele>
        <time>2017-01-18T11:53:54.079Z</time>
      </trkpt>
      <trkpt lat="42.98434" lon="-0.00533">
        <ele>1596</ele>
        <time>2017-01-18T11:53:55.079Z</time>
      </trkpt>
      <trkpt lat="42.98433" lon="-0.00532">
        <ele>1596</ele>
        <time>2017-01-18T11:53:56.079Z</time>
      </trkpt>
      <trkpt lat="42.98433" lon="-0.00531">
        <ele>1596</ele>
        <time>2017-01-18T11:53:57.079Z</time>
      </trkpt>
      <trkpt lat="42.98432" lon="-0.0053">
        <ele>1596</ele>
        <time>2017-01-18T11:53:58.079Z</time>
      </trkpt>
      <trkpt lat="42.98432" lon="-0.00529">
        <ele>1596</ele>
        <time>2017-01-18T11:53:59.079Z</time>
      </trkpt>
      <trkpt lat="42.98431" lon="-0.00528">
        <ele>1596</ele>
        <time>2017-01-18T11:54:00.079Z</time>
      </trkpt>
      <trkpt lat="42.98431" lon="-0.00527">
        <ele>1595</ele>
        <time>2017-01-18T11:54:01.079Z</time>
      </trkpt>
      <trkpt lat="42.9843" lon="-0.00526">
        <ele>1596</ele>
        <time>2017-01-18T11:54:02.079Z</time>
      </trkpt>
      <trkpt lat="42.9843" lon="-0.00525">
        <ele>1595</ele>
        <time>2017-01-18T11:54:03.079Z</time>
      </trkpt>
      <trkpt lat="42.98429" lon="-0.00524">
        <ele>1595</ele>
        <time>2017-01-18T11:54:04.079Z</time>
      </trkpt>
      <trkpt lat="42.98429" lon="-0.00523">
        <ele>1595</ele>
        <time>2017-01-18T11:54:05.079Z</time>
      </trkpt>
      <trkpt lat="42.98428" lon="-0.00522">
        <ele>1595</ele>
        <time>2017-01-18T11:54:06.079Z</time>
      </trkpt>
      <trkpt lat="42.98428" lon="-0.00521">
        <ele>1595</ele>
        <time>2017-01-18T11:54:07.079Z</time>
      </trkpt>
      <trkpt lat="42.98427" lon="-0.0052">
        <ele>1595</ele>
        <time>2017-01-18T11:54:08.079Z</time>
      </trkpt>
      <trkpt lat="42.98427" lon="-0.00519">
        <ele>1595</ele>
        <time>2017-01-18T11:54:09.079Z</time>
      </trkpt>
      <trkpt lat="42.98426" lon="-0.00518">
        <ele>1595</ele>
        <time>2017-01-18T11:54:10.079Z</time>
      </trkpt>
      <trkpt lat="42.98426" lon="-0.00517">
        <ele>1595</ele>
        <time>2017-01-18T11:54:11.079Z</time>
      </trkpt>
      <trkpt lat="42.98425" lon="-0.00516">
        <ele>1595</ele>
        <time>2017-01-18T11:54:12.079Z</time>
      </trkpt>
      <trkpt lat="42.98425" lon="-0.00516">
        <ele>1595</ele>
        <time>2017-01-18T11:54:13.079Z</time>
      </trkpt>
      <trkpt lat="42.98424" lon="-0.00515">
        <ele>1595</ele>
        <time>2017-01-18T11:54:14.079Z</time>
      </trkpt>
      <trkpt lat="42.98423" lon="-0.00514">
        <ele>1595</ele>
        <time>2017-01-18T11:54:15.079Z</time>
      </trkpt>
      <trkpt lat="42.98423" lon="-0.00514">
        <ele>1595</ele>
        <time>2017-01-18T11:54:16.079Z</time>
      </trkpt>
      <trkpt lat="42.98422" lon="-0.00514">
        <ele>1595</ele>
        <time>2017-01-18T11:54:17.079Z</time>
      </trkpt>
      <trkpt lat="42.98421" lon="-0.00514">
        <ele>1595</ele>
        <time>2017-01-18T11:54:18.079Z</time>
      </trkpt>
      <trkpt lat="42.98421" lon="-0.00514">
        <ele>1595</ele>
        <time>2017-01-18T11:54:19.079Z</time>
      </trkpt>
      <trkpt lat="42.9842" lon="-0.00514">
        <ele>1595</ele>
        <time>2017-01-18T11:54:20.079Z</time>
      </trkpt>
      <trkpt lat="42.9842" lon="-0.00514">
        <ele>1595</ele>
        <time>2017-01-18T11:54:21.079Z</time>
      </trkpt>
      <trkpt lat="42.98419" lon="-0.00514">
        <ele>1595</ele>
        <time>2017-01-18T11:54:22.079Z</time>
      </trkpt>
      <trkpt lat="42.98419" lon="-0.00515">
        <ele>1595</ele>
        <time>2017-01-18T11:54:23.079Z</time>
      </trkpt>
      <trkpt lat="42.98418" lon="-0.00515">
        <ele>1596</ele>
        <time>2017-01-18T11:54:24.079Z</time>
      </trkpt>
      <trkpt lat="42.98418" lon="-0.00515">
        <ele>1596</ele>
        <time>2017-01-18T11:54:25.079Z</time>
      </trkpt>
      <trkpt lat="42.98417" lon="-0.00515">
        <ele>1596</ele>
        <time>2017-01-18T11:54:26.079Z</time>
      </trkpt>
      <trkpt lat="42.98417" lon="-0.00515">
        <ele>1596</ele>
        <time>2017-01-18T11:54:27.079Z</time>
      </trkpt>
      <trkpt lat="42.98416" lon="-0.00515">
        <ele>1596</ele>
        <time>2017-01-18T11:54:28.079Z</time>
      </trkpt>
      <trkpt lat="42.98415" lon="-0.00514">
        <ele>1596</ele>
        <time>2017-01-18T11:54:29.079Z</time>
      </trkpt>
      <trkpt lat="42.98415" lon="-0.00514">
        <ele>1596</ele>
        <time>2017-01-18T11:54:30.079Z</time>
      </trkpt>
      <trkpt lat="42.98414" lon="-0.00513">
        <ele>1596</ele>
        <time>2017-01-18T11:54:31.079Z</time>
      </trkpt>
      <trkpt lat="42.98413" lon="-0.00512">
        <ele>1596</ele>
        <time>2017-01-18T11:54:32.079Z</time>
      </trkpt>
      <trkpt lat="42.98413" lon="-0.00511">
        <ele>1596</ele>
        <time>2017-01-18T11:54:33.079Z</time>
      </trkpt>
      <trkpt lat="42.98412" lon="-0.00511">
        <ele>1596</ele>
        <time>2017-01-18T11:54:34.079Z</time>
      </trkpt>
      <trkpt lat="42.98412" lon="-0.0051">
        <ele>1596</ele>
        <time>2017-01-18T11:54:35.079Z</time>
      </trkpt>
      <trkpt lat="42.98412" lon="-0.00509">
        <ele>1596</ele>
        <time>2017-01-18T11:54:36.079Z</time>
      </trkpt>
      <trkpt lat="42.98411" lon="-0.00508">
        <ele>1596</ele>
        <time>2017-01-18T11:54:37.079Z</time>
      </trkpt>
      <trkpt lat="42.9841" lon="-0.00508">
        <ele>1596</ele>
        <time>2017-01-18T11:54:38.079Z</time>
      </trkpt>
      <trkpt lat="42.9841" lon="-0.00507">
        <ele>1596</ele>
        <time>2017-01-18T11:54:39.079Z</time>
      </trkpt>
      <trkpt lat="42.98409" lon="-0.00506">
        <ele>1596</ele>
        <time>2017-01-18T11:54:40.079Z</time>
      </trkpt>
      <trkpt lat="42.98409" lon="-0.00505">
        <ele>1596</ele>
        <time>2017-01-18T11:54:41.079Z</time>
      </trkpt>
      <trkpt lat="42.98408" lon="-0.00504">
        <ele>1596</ele>
        <time>2017-01-18T11:54:42.079Z</time>
      </trkpt>
      <trkpt lat="42.98408" lon="-0.00503">
        <ele>1596</ele>
        <time>2017-01-18T11:54:43.079Z</time>
      </trkpt>
      <trkpt lat="42.98407" lon="-0.00502">
        <ele>1596</ele>
        <time>2017-01-18T11:54:44.079Z</time>
      </trkpt>
      <trkpt lat="42.98406" lon="-0.00502">
        <ele>1596</ele>
        <time>2017-01-18T11:54:45.079Z</time>
      </trkpt>
      <trkpt lat="42.98406" lon="-0.00501">
        <ele>1596</ele>
        <time>2017-01-18T11:54:46.079Z</time>
      </trkpt>
      <trkpt lat="42.98405" lon="-0.005">
        <ele>1596</ele>
        <time>2017-01-18T11:54:47.079Z</time>
      </trkpt>
      <trkpt lat="42.98405" lon="-0.00499">
        <ele>1596</ele>
        <time>2017-01-18T11:54:48.079Z</time>
      </trkpt>
      <trkpt lat="42.98404" lon="-0.00498">
        <ele>1596</ele>
        <time>2017-01-18T11:54:49.079Z</time>
      </trkpt>
      <trkpt lat="42.98404" lon="-0.00497">
        <ele>1596</ele>
        <time>2017-01-18T11:54:50.079Z</time>
      </trkpt>
      <trkpt lat="42.98403" lon="-0.00496">
        <ele>1596</ele>
        <time>2017-01-18T11:54:51.079Z</time>
      </trkpt>
      <trkpt lat="42.98403" lon="-0.00495">
        <ele>1596</ele>
        <time>2017-01-18T11:54:52.079Z</time>
      </trkpt>
      <trkpt lat="42.98402" lon="-0.00494">
        <ele>1596</ele>
        <time>2017-01-18T11:54:53.079Z</time>
      </trkpt>
      <trkpt lat="42.98402" lon="-0.00493">
        <ele>1596</ele>
        <time>2017-01-18T11:54:54.079Z</time>
      </trkpt>
      <trkpt lat="42.98401" lon="-0.00492">
        <ele>1596</ele>
        <time>2017-01-18T11:54:55.079Z</time>
      </trkpt>
      <trkpt lat="42.98401" lon="-0.00491">
        <ele>1596</ele>
        <time>2017-01-18T11:54:56.079Z</time>
      </trkpt>
      <trkpt lat="42.984" lon="-0.0049">
        <ele>1596</ele>
        <time>2017-01-18T11:54:57.079Z</time>
      </trkpt>
      <trkpt lat="42.98399" lon="-0.00489">
        <ele>1596</ele>
        <time>2017-01-18T11:54:58.079Z</time>
      </trkpt>
      <trkpt lat="42.98399" lon="-0.00488">
        <ele>1596</ele>
        <time>2017-01-18T11:54:59.079Z</time>
      </trkpt>
      <trkpt lat="42.98398" lon="-0.00487">
        <ele>1596</ele>
        <time>2017-01-18T11:55:00.079Z</time>
      </trkpt>
      <trkpt lat="42.98398" lon="-0.00486">
        <ele>1596</ele>
        <time>2017-01-18T11:55:01.079Z</time>
      </trkpt>
      <trkpt lat="42.98397" lon="-0.00485">
        <ele>1595</ele>
        <time>2017-01-18T11:55:02.079Z</time>
      </trkpt>
      <trkpt lat="42.98397" lon="-0.00484">
        <ele>1595</ele>
        <time>2017-01-18T11:55:03.079Z</time>
      </trkpt>
      <trkpt lat="42.98396" lon="-0.00483">
        <ele>1595</ele>
        <time>2017-01-18T11:55:04.079Z</time>
      </trkpt>
      <trkpt lat="42.98396" lon="-0.00483">
        <ele>1596</ele>
        <time>2017-01-18T11:55:05.079Z</time>
      </trkpt>
      <trkpt lat="42.98395" lon="-0.00482">
        <ele>1596</ele>
        <time>2017-01-18T11:55:06.079Z</time>
      </trkpt>
      <trkpt lat="42.98395" lon="-0.00481">
        <ele>1596</ele>
        <time>2017-01-18T11:55:07.079Z</time>
      </trkpt>
      <trkpt lat="42.98394" lon="-0.0048">
        <ele>1596</ele>
        <time>2017-01-18T11:55:08.079Z</time>
      </trkpt>
      <trkpt lat="42.98394" lon="-0.00479">
        <ele>1596</ele>
        <time>2017-01-18T11:55:09.079Z</time>
      </trkpt>
      <trkpt lat="42.98393" lon="-0.00478">
        <ele>1596</ele>
        <time>2017-01-18T11:55:10.079Z</time>
      </trkpt>
      <trkpt lat="42.98393" lon="-0.00478">
        <ele>1596</ele>
        <time>2017-01-18T11:55:11.079Z</time>
      </trkpt>
      <trkpt lat="42.98392" lon="-0.00477">
        <ele>1596</ele>
        <time>2017-01-18T11:55:12.079Z</time>
      </trkpt>
      <trkpt lat="42.98392" lon="-0.00476">
        <ele>1596</ele>
        <time>2017-01-18T11:55:13.079Z</time>
      </trkpt>
      <trkpt lat="42.98391" lon="-0.00475">
        <ele>1597</ele>
        <time>2017-01-18T11:55:14.079Z</time>
      </trkpt>
      <trkpt lat="42.98391" lon="-0.00475">
        <ele>1597</ele>
        <time>2017-01-18T11:55:15.079Z</time>
      </trkpt>
      <trkpt lat="42.9839" lon="-0.00474">
        <ele>1597</ele>
        <time>2017-01-18T11:55:16.079Z</time>
      </trkpt>
      <trkpt lat="42.9839" lon="-0.00473">
        <ele>1597</ele>
        <time>2017-01-18T11:55:17.079Z</time>
      </trkpt>
      <trkpt lat="42.98389" lon="-0.00472">
        <ele>1597</ele>
        <time>2017-01-18T11:55:18.079Z</time>
      </trkpt>
      <trkpt lat="42.98389" lon="-0.00471">
        <ele>1597</ele>
        <time>2017-01-18T11:55:19.079Z</time>
      </trkpt>
      <trkpt lat="42.98388" lon="-0.00471">
        <ele>1597</ele>
        <time>2017-01-18T11:55:20.079Z</time>
      </trkpt>
      <trkpt lat="42.98388" lon="-0.0047">
        <ele>1597</ele>
        <time>2017-01-18T11:55:21.079Z</time>
      </trkpt>
      <trkpt lat="42.98387" lon="-0.00469">
        <ele>1597</ele>
        <time>2017-01-18T11:55:22.079Z</time>
      </trkpt>
      <trkpt lat="42.98387" lon="-0.00468">
        <ele>1597</ele>
        <time>2017-01-18T11:55:23.079Z</time>
      </trkpt>
      <trkpt lat="42.98386" lon="-0.00467">
        <ele>1597</ele>
        <time>2017-01-18T11:55:24.079Z</time>
      </trkpt>
      <trkpt lat="42.98386" lon="-0.00466">
        <ele>1597</ele>
        <time>2017-01-18T11:55:25.079Z</time>
      </trkpt>
      <trkpt lat="42.98385" lon="-0.00465">
        <ele>1597</ele>
        <time>2017-01-18T11:55:26.079Z</time>
      </trkpt>
      <trkpt lat="42.98385" lon="-0.00464">
        <ele>1598</ele>
        <time>2017-01-18T11:55:27.079Z</time>
      </trkpt>
      <trkpt lat="42.98384" lon="-0.00464">
        <ele>1597</ele>
        <time>2017-01-18T11:55:28.079Z</time>
      </trkpt>
      <trkpt lat="42.98384" lon="-0.00463">
        <ele>1598</ele>
        <time>2017-01-18T11:55:29.079Z</time>
      </trkpt>
      <trkpt lat="42.98383" lon="-0.00462">
        <ele>1597</ele>
        <time>2017-01-18T11:55:30.079Z</time>
      </trkpt>
      <trkpt lat="42.98383" lon="-0.00461">
        <ele>1598</ele>
        <time>2017-01-18T11:55:31.079Z</time>
      </trkpt>
      <trkpt lat="42.98382" lon="-0.00461">
        <ele>1598</ele>
        <time>2017-01-18T11:55:32.079Z</time>
      </trkpt>
      <trkpt lat="42.98382" lon="-0.0046">
        <ele>1598</ele>
        <time>2017-01-18T11:55:33.079Z</time>
      </trkpt>
      <trkpt lat="42.98381" lon="-0.00459">
        <ele>1598</ele>
        <time>2017-01-18T11:55:34.079Z</time>
      </trkpt>
      <trkpt lat="42.98381" lon="-0.00458">
        <ele>1598</ele>
        <time>2017-01-18T11:55:35.079Z</time>
      </trkpt>
      <trkpt lat="42.9838" lon="-0.00458">
        <ele>1598</ele>
        <time>2017-01-18T11:55:36.079Z</time>
      </trkpt>
      <trkpt lat="42.9838" lon="-0.00457">
        <ele>1597</ele>
        <time>2017-01-18T11:55:37.079Z</time>
      </trkpt>
      <trkpt lat="42.98379" lon="-0.00456">
        <ele>1598</ele>
        <time>2017-01-18T11:55:38.079Z</time>
      </trkpt>
      <trkpt lat="42.98379" lon="-0.00455">
        <ele>1598</ele>
        <time>2017-01-18T11:55:39.079Z</time>
      </trkpt>
      <trkpt lat="42.98378" lon="-0.00454">
        <ele>1598</ele>
        <time>2017-01-18T11:55:40.079Z</time>
      </trkpt>
      <trkpt lat="42.98378" lon="-0.00454">
        <ele>1598</ele>
        <time>2017-01-18T11:55:41.079Z</time>
      </trkpt>
      <trkpt lat="42.98377" lon="-0.00453">
        <ele>1599</ele>
        <time>2017-01-18T11:55:42.079Z</time>
      </trkpt>
      <trkpt lat="42.98377" lon="-0.00452">
        <ele>1598</ele>
        <time>2017-01-18T11:55:43.079Z</time>
      </trkpt>
      <trkpt lat="42.98376" lon="-0.00451">
        <ele>1599</ele>
        <time>2017-01-18T11:55:44.079Z</time>
      </trkpt>
      <trkpt lat="42.98376" lon="-0.0045">
        <ele>1599</ele>
        <time>2017-01-18T11:55:45.079Z</time>
      </trkpt>
      <trkpt lat="42.98375" lon="-0.00449">
        <ele>1599</ele>
        <time>2017-01-18T11:55:46.079Z</time>
      </trkpt>
      <trkpt lat="42.98375" lon="-0.00449">
        <ele>1599</ele>
        <time>2017-01-18T11:55:47.079Z</time>
      </trkpt>
      <trkpt lat="42.98374" lon="-0.00448">
        <ele>1599</ele>
        <time>2017-01-18T11:55:48.079Z</time>
      </trkpt>
      <trkpt lat="42.98374" lon="-0.00448">
        <ele>1599</ele>
        <time>2017-01-18T11:55:49.079Z</time>
      </trkpt>
      <trkpt lat="42.98373" lon="-0.00448">
        <ele>1599</ele>
        <time>2017-01-18T11:55:50.079Z</time>
      </trkpt>
      <trkpt lat="42.98373" lon="-0.00448">
        <ele>1599</ele>
        <time>2017-01-18T11:55:51.079Z</time>
      </trkpt>
      <trkpt lat="42.98373" lon="-0.00448">
        <ele>1599</ele>
        <time>2017-01-18T11:55:52.079Z</time>
      </trkpt>
      <trkpt lat="42.98373" lon="-0.00448">
        <ele>1599</ele>
        <time>2017-01-18T11:55:53.079Z</time>
      </trkpt>
      <trkpt lat="42.98373" lon="-0.00448">
        <ele>1599</ele>
        <time>2017-01-18T11:55:54.079Z</time>
      </trkpt>
      <trkpt lat="42.98373" lon="-0.00448">
        <ele>1599</ele>
        <time>2017-01-18T11:55:55.079Z</time>
      </trkpt>
      <trkpt lat="42.98372" lon="-0.00447">
        <ele>1599</ele>
        <time>2017-01-18T11:55:56.079Z</time>
      </trkpt>
      <trkpt lat="42.98372" lon="-0.00447">
        <ele>1598</ele>
        <time>2017-01-18T11:55:57.079Z</time>
      </trkpt>
      <trkpt lat="42.98371" lon="-0.00446">
        <ele>1598</ele>
        <time>2017-01-18T11:55:58.079Z</time>
      </trkpt>
      <trkpt lat="42.98371" lon="-0.00446">
        <ele>1599</ele>
        <time>2017-01-18T11:55:59.079Z</time>
      </trkpt>
      <trkpt lat="42.9837" lon="-0.00445">
        <ele>1598</ele>
        <time>2017-01-18T11:56:00.079Z</time>
      </trkpt>
      <trkpt lat="42.9837" lon="-0.00445">
        <ele>1599</ele>
        <time>2017-01-18T11:56:01.079Z</time>
      </trkpt>
      <trkpt lat="42.98369" lon="-0.00444">
        <ele>1598</ele>
        <time>2017-01-18T11:56:02.079Z</time>
      </trkpt>
      <trkpt lat="42.98368" lon="-0.00444">
        <ele>1598</ele>
        <time>2017-01-18T11:56:03.079Z</time>
      </trkpt>
      <trkpt lat="42.98368" lon="-0.00443">
        <ele>1598</ele>
        <time>2017-01-18T11:56:04.079Z</time>
      </trkpt>
      <trkpt lat="42.98367" lon="-0.00443">
        <ele>1598</ele>
        <time>2017-01-18T11:56:05.079Z</time>
      </trkpt>
      <trkpt lat="42.98366" lon="-0.00442">
        <ele>1598</ele>
        <time>2017-01-18T11:56:06.079Z</time>
      </trkpt>
      <trkpt lat="42.98365" lon="-0.00442">
        <ele>1598</ele>
        <time>2017-01-18T11:56:07.079Z</time>
      </trkpt>
      <trkpt lat="42.98365" lon="-0.00441">
        <ele>1598</ele>
        <time>2017-01-18T11:56:08.079Z</time>
      </trkpt>
      <trkpt lat="42.98364" lon="-0.00441">
        <ele>1598</ele>
        <time>2017-01-18T11:56:09.079Z</time>
      </trkpt>
      <trkpt lat="42.98363" lon="-0.0044">
        <ele>1598</ele>
        <time>2017-01-18T11:56:10.079Z</time>
      </trkpt>
      <trkpt lat="42.98362" lon="-0.0044">
        <ele>1598</ele>
        <time>2017-01-18T11:56:11.079Z</time>
      </trkpt>
      <trkpt lat="42.98361" lon="-0.0044">
        <ele>1598</ele>
        <time>2017-01-18T11:56:12.079Z</time>
      </trkpt>
      <trkpt lat="42.98361" lon="-0.00439">
        <ele>1598</ele>
        <time>2017-01-18T11:56:13.079Z</time>
      </trkpt>
      <trkpt lat="42.9836" lon="-0.00439">
        <ele>1598</ele>
        <time>2017-01-18T11:56:14.079Z</time>
      </trkpt>
      <trkpt lat="42.98359" lon="-0.00438">
        <ele>1598</ele>
        <time>2017-01-18T11:56:15.079Z</time>
      </trkpt>
      <trkpt lat="42.98358" lon="-0.00438">
        <ele>1598</ele>
        <time>2017-01-18T11:56:16.079Z</time>
      </trkpt>
      <trkpt lat="42.98358" lon="-0.00437">
        <ele>1598</ele>
        <time>2017-01-18T11:56:17.079Z</time>
      </trkpt>
      <trkpt lat="42.98357" lon="-0.00437">
        <ele>1598</ele>
        <time>2017-01-18T11:56:18.079Z</time>
      </trkpt>
      <trkpt lat="42.98356" lon="-0.00436">
        <ele>1598</ele>
        <time>2017-01-18T11:56:19.079Z</time>
      </trkpt>
      <trkpt lat="42.98356" lon="-0.00436">
        <ele>1598</ele>
        <time>2017-01-18T11:56:20.079Z</time>
      </trkpt>
      <trkpt lat="42.98355" lon="-0.00435">
        <ele>1598</ele>
        <time>2017-01-18T11:56:21.079Z</time>
      </trkpt>
      <trkpt lat="42.98354" lon="-0.00435">
        <ele>1598</ele>
        <time>2017-01-18T11:56:22.079Z</time>
      </trkpt>
      <trkpt lat="42.98353" lon="-0.00434">
        <ele>1598</ele>
        <time>2017-01-18T11:56:23.079Z</time>
      </trkpt>
      <trkpt lat="42.98353" lon="-0.00434">
        <ele>1598</ele>
        <time>2017-01-18T11:56:24.079Z</time>
      </trkpt>
      <trkpt lat="42.98352" lon="-0.00434">
        <ele>1598</ele>
        <time>2017-01-18T11:56:25.079Z</time>
      </trkpt>
      <trkpt lat="42.98351" lon="-0.00433">
        <ele>1598</ele>
        <time>2017-01-18T11:56:26.079Z</time>
      </trkpt>
      <trkpt lat="42.98351" lon="-0.00433">
        <ele>1598</ele>
        <time>2017-01-18T11:56:27.079Z</time>
      </trkpt>
      <trkpt lat="42.9835" lon="-0.00432">
        <ele>1598</ele>
        <time>2017-01-18T11:56:28.079Z</time>
      </trkpt>
      <trkpt lat="42.98349" lon="-0.00432">
        <ele>1598</ele>
        <time>2017-01-18T11:56:29.079Z</time>
      </trkpt>
      <trkpt lat="42.98348" lon="-0.00431">
        <ele>1598</ele>
        <time>2017-01-18T11:56:30.079Z</time>
      </trkpt>
      <trkpt lat="42.98347" lon="-0.00431">
        <ele>1598</ele>
        <time>2017-01-18T11:56:31.079Z</time>
      </trkpt>
      <trkpt lat="42.98347" lon="-0.0043">
        <ele>1598</ele>
        <time>2017-01-18T11:56:32.079Z</time>
      </trkpt>
      <trkpt lat="42.98346" lon="-0.0043">
        <ele>1598</ele>
        <time>2017-01-18T11:56:33.079Z</time>
      </trkpt>
      <trkpt lat="42.98345" lon="-0.00429">
        <ele>1599</ele>
        <time>2017-01-18T11:56:34.079Z</time>
      </trkpt>
      <trkpt lat="42.98344" lon="-0.00429">
        <ele>1599</ele>
        <time>2017-01-18T11:56:35.079Z</time>
      </trkpt>
      <trkpt lat="42.98344" lon="-0.00428">
        <ele>1599</ele>
        <time>2017-01-18T11:56:36.079Z</time>
      </trkpt>
      <trkpt lat="42.98343" lon="-0.00428">
        <ele>1599</ele>
        <time>2017-01-18T11:56:37.079Z</time>
      </trkpt>
      <trkpt lat="42.98342" lon="-0.00427">
        <ele>1599</ele>
        <time>2017-01-18T11:56:38.079Z</time>
      </trkpt>
      <trkpt lat="42.98342" lon="-0.00427">
        <ele>1599</ele>
        <time>2017-01-18T11:56:39.079Z</time>
      </trkpt>
      <trkpt lat="42.98341" lon="-0.00426">
        <ele>1599</ele>
        <time>2017-01-18T11:56:40.079Z</time>
      </trkpt>
      <trkpt lat="42.9834" lon="-0.00426">
        <ele>1599</ele>
        <time>2017-01-18T11:56:41.079Z</time>
      </trkpt>
      <trkpt lat="42.98339" lon="-0.00425">
        <ele>1599</ele>
        <time>2017-01-18T11:56:42.079Z</time>
      </trkpt>
      <trkpt lat="42.98339" lon="-0.00424">
        <ele>1599</ele>
        <time>2017-01-18T11:56:43.079Z</time>
      </trkpt>
      <trkpt lat="42.98338" lon="-0.00424">
        <ele>1599</ele>
        <time>2017-01-18T11:56:44.079Z</time>
      </trkpt>
      <trkpt lat="42.98337" lon="-0.00423">
        <ele>1599</ele>
        <time>2017-01-18T11:56:45.079Z</time>
      </trkpt>
      <trkpt lat="42.98336" lon="-0.00422">
        <ele>1599</ele>
        <time>2017-01-18T11:56:46.079Z</time>
      </trkpt>
      <trkpt lat="42.98336" lon="-0.00422">
        <ele>1599</ele>
        <time>2017-01-18T11:56:47.079Z</time>
      </trkpt>
      <trkpt lat="42.98335" lon="-0.00421">
        <ele>1599</ele>
        <time>2017-01-18T11:56:48.079Z</time>
      </trkpt>
      <trkpt lat="42.98334" lon="-0.0042">
        <ele>1599</ele>
        <time>2017-01-18T11:56:49.079Z</time>
      </trkpt>
      <trkpt lat="42.98333" lon="-0.00419">
        <ele>1599</ele>
        <time>2017-01-18T11:56:50.079Z</time>
      </trkpt>
      <trkpt lat="42.98333" lon="-0.00419">
        <ele>1599</ele>
        <time>2017-01-18T11:56:51.079Z</time>
      </trkpt>
      <trkpt lat="42.98332" lon="-0.00419">
        <ele>1599</ele>
        <time>2017-01-18T11:56:52.079Z</time>
      </trkpt>
      <trkpt lat="42.98331" lon="-0.00418">
        <ele>1599</ele>
        <time>2017-01-18T11:56:53.079Z</time>
      </trkpt>
      <trkpt lat="42.98331" lon="-0.00418">
        <ele>1599</ele>
        <time>2017-01-18T11:56:54.079Z</time>
      </trkpt>
      <trkpt lat="42.9833" lon="-0.00417">
        <ele>1599</ele>
        <time>2017-01-18T11:56:55.079Z</time>
      </trkpt>
      <trkpt lat="42.98329" lon="-0.00417">
        <ele>1599</ele>
        <time>2017-01-18T11:56:56.079Z</time>
      </trkpt>
      <trkpt lat="42.98329" lon="-0.00416">
        <ele>1599</ele>
        <time>2017-01-18T11:56:57.079Z</time>
      </trkpt>
      <trkpt lat="42.98328" lon="-0.00416">
        <ele>1599</ele>
        <time>2017-01-18T11:56:58.079Z</time>
      </trkpt>
      <trkpt lat="42.98327" lon="-0.00415">
        <ele>1599</ele>
        <time>2017-01-18T11:56:59.079Z</time>
      </trkpt>
      <trkpt lat="42.98326" lon="-0.00415">
        <ele>1599</ele>
        <time>2017-01-18T11:57:00.079Z</time>
      </trkpt>
      <trkpt lat="42.98326" lon="-0.00414">
        <ele>1599</ele>
        <time>2017-01-18T11:57:01.079Z</time>
      </trkpt>
      <trkpt lat="42.98325" lon="-0.00414">
        <ele>1599</ele>
        <time>2017-01-18T11:57:02.079Z</time>
      </trkpt>
      <trkpt lat="42.98324" lon="-0.00413">
        <ele>1599</ele>
        <time>2017-01-18T11:57:03.079Z</time>
      </trkpt>
      <trkpt lat="42.98323" lon="-0.00413">
        <ele>1599</ele>
        <time>2017-01-18T11:57:04.079Z</time>
      </trkpt>
      <trkpt lat="42.98322" lon="-0.00412">
        <ele>1599</ele>
        <time>2017-01-18T11:57:05.079Z</time>
      </trkpt>
      <trkpt lat="42.98322" lon="-0.00412">
        <ele>1599</ele>
        <time>2017-01-18T11:57:06.079Z</time>
      </trkpt>
      <trkpt lat="42.98321" lon="-0.00411">
        <ele>1599</ele>
        <time>2017-01-18T11:57:07.079Z</time>
      </trkpt>
      <trkpt lat="42.9832" lon="-0.00411">
        <ele>1599</ele>
        <time>2017-01-18T11:57:08.079Z</time>
      </trkpt>
      <trkpt lat="42.9832" lon="-0.0041">
        <ele>1599</ele>
        <time>2017-01-18T11:57:09.079Z</time>
      </trkpt>
      <trkpt lat="42.98319" lon="-0.0041">
        <ele>1599</ele>
        <time>2017-01-18T11:57:10.079Z</time>
      </trkpt>
      <trkpt lat="42.98318" lon="-0.00409">
        <ele>1599</ele>
        <time>2017-01-18T11:57:11.079Z</time>
      </trkpt>
      <trkpt lat="42.98318" lon="-0.00409">
        <ele>1599</ele>
        <time>2017-01-18T11:57:12.079Z</time>
      </trkpt>
      <trkpt lat="42.98317" lon="-0.00408">
        <ele>1599</ele>
        <time>2017-01-18T11:57:13.079Z</time>
      </trkpt>
      <trkpt lat="42.98316" lon="-0.00408">
        <ele>1599</ele>
        <time>2017-01-18T11:57:14.079Z</time>
      </trkpt>
      <trkpt lat="42.98315" lon="-0.00407">
        <ele>1599</ele>
        <time>2017-01-18T11:57:15.079Z</time>
      </trkpt>
      <trkpt lat="42.98315" lon="-0.00407">
        <ele>1600</ele>
        <time>2017-01-18T11:57:16.079Z</time>
      </trkpt>
      <trkpt lat="42.98314" lon="-0.00406">
        <ele>1599</ele>
        <time>2017-01-18T11:57:17.079Z</time>
      </trkpt>
      <trkpt lat="42.98313" lon="-0.00406">
        <ele>1599</ele>
        <time>2017-01-18T11:57:18.079Z</time>
      </trkpt>
      <trkpt lat="42.98313" lon="-0.00405">
        <ele>1599</ele>
        <time>2017-01-18T11:57:19.079Z</time>
      </trkpt>
      <trkpt lat="42.98312" lon="-0.00405">
        <ele>1599</ele>
        <time>2017-01-18T11:57:20.079Z</time>
      </trkpt>
      <trkpt lat="42.98311" lon="-0.00404">
        <ele>1599</ele>
        <time>2017-01-18T11:57:21.079Z</time>
      </trkpt>
      <trkpt lat="42.9831" lon="-0.00404">
        <ele>1600</ele>
        <time>2017-01-18T11:57:22.079Z</time>
      </trkpt>
      <trkpt lat="42.9831" lon="-0.00403">
        <ele>1599</ele>
        <time>2017-01-18T11:57:23.079Z</time>
      </trkpt>
      <trkpt lat="42.98309" lon="-0.00403">
        <ele>1599</ele>
        <time>2017-01-18T11:57:24.079Z</time>
      </trkpt>
      <trkpt lat="42.98308" lon="-0.00402">
        <ele>1599</ele>
        <time>2017-01-18T11:57:25.079Z</time>
      </trkpt>
      <trkpt lat="42.98307" lon="-0.00402">
        <ele>1600</ele>
        <time>2017-01-18T11:57:26.079Z</time>
      </trkpt>
      <trkpt lat="42.98307" lon="-0.00401">
        <ele>1599</ele>
        <time>2017-01-18T11:57:27.079Z</time>
      </trkpt>
      <trkpt lat="42.98306" lon="-0.00401">
        <ele>1599</ele>
        <time>2017-01-18T11:57:28.079Z</time>
      </trkpt>
      <trkpt lat="42.98305" lon="-0.004">
        <ele>1600</ele>
        <time>2017-01-18T11:57:29.079Z</time>
      </trkpt>
      <trkpt lat="42.98304" lon="-0.004">
        <ele>1599</ele>
        <time>2017-01-18T11:57:30.079Z</time>
      </trkpt>
      <trkpt lat="42.98304" lon="-0.00399">
        <ele>1599</ele>
        <time>2017-01-18T11:57:31.079Z</time>
      </trkpt>
      <trkpt lat="42.98303" lon="-0.00399">
        <ele>1600</ele>
        <time>2017-01-18T11:57:32.079Z</time>
      </trkpt>
      <trkpt lat="42.98302" lon="-0.00399">
        <ele>1599</ele>
        <time>2017-01-18T11:57:33.079Z</time>
      </trkpt>
      <trkpt lat="42.98302" lon="-0.00398">
        <ele>1599</ele>
        <time>2017-01-18T11:57:34.079Z</time>
      </trkpt>
      <trkpt lat="42.98301" lon="-0.00398">
        <ele>1599</ele>
        <time>2017-01-18T11:57:35.079Z</time>
      </trkpt>
      <trkpt lat="42.983" lon="-0.00397">
        <ele>1600</ele>
        <time>2017-01-18T11:57:36.079Z</time>
      </trkpt>
      <trkpt lat="42.983" lon="-0.00397">
        <ele>1600</ele>
        <time>2017-01-18T11:57:37.079Z</time>
      </trkpt>
      <trkpt lat="42.98299" lon="-0.00397">
        <ele>1599</ele>
        <time>2017-01-18T11:57:38.079Z</time>
      </trkpt>
      <trkpt lat="42.98298" lon="-0.00396">
        <ele>1599</ele>
        <time>2017-01-18T11:57:39.079Z</time>
      </trkpt>
      <trkpt lat="42.98297" lon="-0.00396">
        <ele>1600</ele>
        <time>2017-01-18T11:57:40.079Z</time>
      </trkpt>
      <trkpt lat="42.98297" lon="-0.00395">
        <ele>1600</ele>
        <time>2017-01-18T11:57:41.079Z</time>
      </trkpt>
      <trkpt lat="42.98296" lon="-0.00395">
        <ele>1600</ele>
        <time>2017-01-18T11:57:42.079Z</time>
      </trkpt>
      <trkpt lat="42.98295" lon="-0.00395">
        <ele>1600</ele>
        <time>2017-01-18T11:57:43.079Z</time>
      </trkpt>
      <trkpt lat="42.98294" lon="-0.00394">
        <ele>1600</ele>
        <time>2017-01-18T11:57:44.079Z</time>
      </trkpt>
      <trkpt lat="42.98294" lon="-0.00394">
        <ele>1600</ele>
        <time>2017-01-18T11:57:45.079Z</time>
      </trkpt>
      <trkpt lat="42.98293" lon="-0.00393">
        <ele>1600</ele>
        <time>2017-01-18T11:57:46.079Z</time>
      </trkpt>
      <trkpt lat="42.98292" lon="-0.00393">
        <ele>1600</ele>
        <time>2017-01-18T11:57:47.079Z</time>
      </trkpt>
      <trkpt lat="42.98292" lon="-0.00392">
        <ele>1600</ele>
        <time>2017-01-18T11:57:48.079Z</time>
      </trkpt>
      <trkpt lat="42.98291" lon="-0.00392">
        <ele>1600</ele>
        <time>2017-01-18T11:57:49.079Z</time>
      </trkpt>
      <trkpt lat="42.9829" lon="-0.00391">
        <ele>1600</ele>
        <time>2017-01-18T11:57:50.079Z</time>
      </trkpt>
      <trkpt lat="42.9829" lon="-0.00391">
        <ele>1600</ele>
        <time>2017-01-18T11:57:51.079Z</time>
      </trkpt>
      <trkpt lat="42.98289" lon="-0.00391">
        <ele>1600</ele>
        <time>2017-01-18T11:57:52.079Z</time>
      </trkpt>
      <trkpt lat="42.98288" lon="-0.0039">
        <ele>1600</ele>
        <time>2017-01-18T11:57:53.079Z</time>
      </trkpt>
      <trkpt lat="42.98288" lon="-0.0039">
        <ele>1600</ele>
        <time>2017-01-18T11:57:54.079Z</time>
      </trkpt>
      <trkpt lat="42.98287" lon="-0.00389">
        <ele>1600</ele>
        <time>2017-01-18T11:57:55.079Z</time>
      </trkpt>
      <trkpt lat="42.98286" lon="-0.00389">
        <ele>1600</ele>
        <time>2017-01-18T11:57:56.079Z</time>
      </trkpt>
      <trkpt lat="42.98286" lon="-0.00388">
        <ele>1600</ele>
        <time>2017-01-18T11:57:57.079Z</time>
      </trkpt>
      <trkpt lat="42.98285" lon="-0.00388">
        <ele>1600</ele>
        <time>2017-01-18T11:57:58.079Z</time>
      </trkpt>
      <trkpt lat="42.98284" lon="-0.00387">
        <ele>1600</ele>
        <time>2017-01-18T11:57:59.079Z</time>
      </trkpt>
      <trkpt lat="42.98283" lon="-0.00387">
        <ele>1600</ele>
        <time>2017-01-18T11:58:00.079Z</time>
      </trkpt>
      <trkpt lat="42.98283" lon="-0.00386">
        <ele>1600</ele>
        <time>2017-01-18T11:58:01.079Z</time>
      </trkpt>
      <trkpt lat="42.98282" lon="-0.00386">
        <ele>1600</ele>
        <time>2017-01-18T11:58:02.079Z</time>
      </trkpt>
      <trkpt lat="42.98281" lon="-0.00385">
        <ele>1599</ele>
        <time>2017-01-18T11:58:03.079Z</time>
      </trkpt>
      <trkpt lat="42.98281" lon="-0.00385">
        <ele>1599</ele>
        <time>2017-01-18T11:58:04.079Z</time>
      </trkpt>
      <trkpt lat="42.9828" lon="-0.00385">
        <ele>1599</ele>
        <time>2017-01-18T11:58:05.079Z</time>
      </trkpt>
      <trkpt lat="42.98279" lon="-0.00384">
        <ele>1599</ele>
        <time>2017-01-18T11:58:06.079Z</time>
      </trkpt>
      <trkpt lat="42.98278" lon="-0.00384">
        <ele>1599</ele>
        <time>2017-01-18T11:58:07.079Z</time>
      </trkpt>
      <trkpt lat="42.98278" lon="-0.00383">
        <ele>1599</ele>
        <time>2017-01-18T11:58:08.079Z</time>
      </trkpt>
      <trkpt lat="42.98277" lon="-0.00383">
        <ele>1599</ele>
        <time>2017-01-18T11:58:09.079Z</time>
      </trkpt>
      <trkpt lat="42.98277" lon="-0.00382">
        <ele>1599</ele>
        <time>2017-01-18T11:58:10.079Z</time>
      </trkpt>
      <trkpt lat="42.98276" lon="-0.00381">
        <ele>1599</ele>
        <time>2017-01-18T11:58:11.079Z</time>
      </trkpt>
      <trkpt lat="42.98275" lon="-0.00381">
        <ele>1599</ele>
        <time>2017-01-18T11:58:12.079Z</time>
      </trkpt>
      <trkpt lat="42.98274" lon="-0.0038">
        <ele>1599</ele>
        <time>2017-01-18T11:58:13.079Z</time>
      </trkpt>
      <trkpt lat="42.98274" lon="-0.0038">
        <ele>1599</ele>
        <time>2017-01-18T11:58:14.079Z</time>
      </trkpt>
      <trkpt lat="42.98273" lon="-0.00379">
        <ele>1599</ele>
        <time>2017-01-18T11:58:15.079Z</time>
      </trkpt>
      <trkpt lat="42.98272" lon="-0.00379">
        <ele>1599</ele>
        <time>2017-01-18T11:58:16.079Z</time>
      </trkpt>
      <trkpt lat="42.98271" lon="-0.00378">
        <ele>1599</ele>
        <time>2017-01-18T11:58:17.079Z</time>
      </trkpt>
      <trkpt lat="42.98271" lon="-0.00378">
        <ele>1599</ele>
        <time>2017-01-18T11:58:18.079Z</time>
      </trkpt>
      <trkpt lat="42.9827" lon="-0.00377">
        <ele>1599</ele>
        <time>2017-01-18T11:58:19.079Z</time>
      </trkpt>
      <trkpt lat="42.98269" lon="-0.00377">
        <ele>1599</ele>
        <time>2017-01-18T11:58:20.079Z</time>
      </trkpt>
      <trkpt lat="42.98268" lon="-0.00376">
        <ele>1599</ele>
        <time>2017-01-18T11:58:21.079Z</time>
      </trkpt>
      <trkpt lat="42.98268" lon="-0.00376">
        <ele>1599</ele>
        <time>2017-01-18T11:58:22.079Z</time>
      </trkpt>
      <trkpt lat="42.98267" lon="-0.00375">
        <ele>1599</ele>
        <time>2017-01-18T11:58:23.079Z</time>
      </trkpt>
      <trkpt lat="42.98266" lon="-0.00375">
        <ele>1599</ele>
        <time>2017-01-18T11:58:24.079Z</time>
      </trkpt>
      <trkpt lat="42.98265" lon="-0.00374">
        <ele>1599</ele>
        <time>2017-01-18T11:58:25.079Z</time>
      </trkpt>
      <trkpt lat="42.98265" lon="-0.00374">
        <ele>1599</ele>
        <time>2017-01-18T11:58:26.079Z</time>
      </trkpt>
      <trkpt lat="42.98264" lon="-0.00373">
        <ele>1599</ele>
        <time>2017-01-18T11:58:27.079Z</time>
      </trkpt>
      <trkpt lat="42.98263" lon="-0.00373">
        <ele>1599</ele>
        <time>2017-01-18T11:58:28.079Z</time>
      </trkpt>
      <trkpt lat="42.98263" lon="-0.00372">
        <ele>1599</ele>
        <time>2017-01-18T11:58:29.079Z</time>
      </trkpt>
      <trkpt lat="42.98262" lon="-0.00372">
        <ele>1599</ele>
        <time>2017-01-18T11:58:30.079Z</time>
      </trkpt>
      <trkpt lat="42.98261" lon="-0.00371">
        <ele>1599</ele>
        <time>2017-01-18T11:58:31.079Z</time>
      </trkpt>
      <trkpt lat="42.9826" lon="-0.00371">
        <ele>1599</ele>
        <time>2017-01-18T11:58:32.079Z</time>
      </trkpt>
      <trkpt lat="42.9826" lon="-0.00371">
        <ele>1599</ele>
        <time>2017-01-18T11:58:33.079Z</time>
      </trkpt>
      <trkpt lat="42.98259" lon="-0.0037">
        <ele>1599</ele>
        <time>2017-01-18T11:58:34.079Z</time>
      </trkpt>
      <trkpt lat="42.98258" lon="-0.00369">
        <ele>1599</ele>
        <time>2017-01-18T11:58:35.079Z</time>
      </trkpt>
      <trkpt lat="42.98258" lon="-0.00369">
        <ele>1599</ele>
        <time>2017-01-18T11:58:36.079Z</time>
      </trkpt>
      <trkpt lat="42.98257" lon="-0.00368">
        <ele>1599</ele>
        <time>2017-01-18T11:58:37.079Z</time>
      </trkpt>
      <trkpt lat="42.98256" lon="-0.00368">
        <ele>1599</ele>
        <time>2017-01-18T11:58:38.079Z</time>
      </trkpt>
      <trkpt lat="42.98256" lon="-0.00367">
        <ele>1599</ele>
        <time>2017-01-18T11:58:39.079Z</time>
      </trkpt>
      <trkpt lat="42.98255" lon="-0.00367">
        <ele>1599</ele>
        <time>2017-01-18T11:58:40.079Z</time>
      </trkpt>
      <trkpt lat="42.98254" lon="-0.00366">
        <ele>1599</ele>
        <time>2017-01-18T11:58:41.079Z</time>
      </trkpt>
      <trkpt lat="42.98253" lon="-0.00366">
        <ele>1599</ele>
        <time>2017-01-18T11:58:42.079Z</time>
      </trkpt>
      <trkpt lat="42.98253" lon="-0.00365">
        <ele>1599</ele>
        <time>2017-01-18T11:58:43.079Z</time>
      </trkpt>
      <trkpt lat="42.98252" lon="-0.00365">
        <ele>1599</ele>
        <time>2017-01-18T11:58:44.079Z</time>
      </trkpt>
      <trkpt lat="42.98251" lon="-0.00364">
        <ele>1599</ele>
        <time>2017-01-18T11:58:45.079Z</time>
      </trkpt>
      <trkpt lat="42.9825" lon="-0.00364">
        <ele>1599</ele>
        <time>2017-01-18T11:58:46.079Z</time>
      </trkpt>
      <trkpt lat="42.9825" lon="-0.00363">
        <ele>1599</ele>
        <time>2017-01-18T11:58:47.079Z</time>
      </trkpt>
      <trkpt lat="42.98249" lon="-0.00363">
        <ele>1599</ele>
        <time>2017-01-18T11:58:48.079Z</time>
      </trkpt>
      <trkpt lat="42.98248" lon="-0.00362">
        <ele>1599</ele>
        <time>2017-01-18T11:58:49.079Z</time>
      </trkpt>
      <trkpt lat="42.98247" lon="-0.00362">
        <ele>1599</ele>
        <time>2017-01-18T11:58:50.079Z</time>
      </trkpt>
      <trkpt lat="42.98247" lon="-0.00361">
        <ele>1599</ele>
        <time>2017-01-18T11:58:51.079Z</time>
      </trkpt>
      <trkpt lat="42.98246" lon="-0.00361">
        <ele>1599</ele>
        <time>2017-01-18T11:58:52.079Z</time>
      </trkpt>
      <trkpt lat="42.98245" lon="-0.0036">
        <ele>1599</ele>
        <time>2017-01-18T11:58:53.079Z</time>
      </trkpt>
      <trkpt lat="42.98245" lon="-0.0036">
        <ele>1599</ele>
        <time>2017-01-18T11:58:54.079Z</time>
      </trkpt>
      <trkpt lat="42.98244" lon="-0.0036">
        <ele>1600</ele>
        <time>2017-01-18T11:58:55.079Z</time>
      </trkpt>
      <trkpt lat="42.98244" lon="-0.00359">
        <ele>1599</ele>
        <time>2017-01-18T11:58:56.079Z</time>
      </trkpt>
      <trkpt lat="42.98244" lon="-0.00359">
        <ele>1599</ele>
        <time>2017-01-18T11:58:57.079Z</time>
      </trkpt>
      <trkpt lat="42.98243" lon="-0.00359">
        <ele>1599</ele>
        <time>2017-01-18T11:58:58.079Z</time>
      </trkpt>
      <trkpt lat="42.98242" lon="-0.00358">
        <ele>1599</ele>
        <time>2017-01-18T11:58:59.079Z</time>
      </trkpt>
      <trkpt lat="42.98241" lon="-0.00358">
        <ele>1599</ele>
        <time>2017-01-18T11:59:00.079Z</time>
      </trkpt>
      <trkpt lat="42.98241" lon="-0.00357">
        <ele>1599</ele>
        <time>2017-01-18T11:59:01.079Z</time>
      </trkpt>
      <trkpt lat="42.9824" lon="-0.00357">
        <ele>1599</ele>
        <time>2017-01-18T11:59:02.079Z</time>
      </trkpt>
      <trkpt lat="42.98239" lon="-0.00356">
        <ele>1599</ele>
        <time>2017-01-18T11:59:03.079Z</time>
      </trkpt>
      <trkpt lat="42.98239" lon="-0.00356">
        <ele>1599</ele>
        <time>2017-01-18T11:59:04.079Z</time>
      </trkpt>
      <trkpt lat="42.98238" lon="-0.00355">
        <ele>1599</ele>
        <time>2017-01-18T11:59:05.079Z</time>
      </trkpt>
      <trkpt lat="42.98237" lon="-0.00354">
        <ele>1599</ele>
        <time>2017-01-18T11:59:06.079Z</time>
      </trkpt>
      <trkpt lat="42.98236" lon="-0.00354">
        <ele>1599</ele>
        <time>2017-01-18T11:59:07.079Z</time>
      </trkpt>
      <trkpt lat="42.98236" lon="-0.00353">
        <ele>1599</ele>
        <time>2017-01-18T11:59:08.079Z</time>
      </trkpt>
      <trkpt lat="42.98235" lon="-0.00353">
        <ele>1599</ele>
        <time>2017-01-18T11:59:09.079Z</time>
      </trkpt>
      <trkpt lat="42.98234" lon="-0.00352">
        <ele>1599</ele>
        <time>2017-01-18T11:59:10.079Z</time>
      </trkpt>
      <trkpt lat="42.98233" lon="-0.00352">
        <ele>1599</ele>
        <time>2017-01-18T11:59:11.079Z</time>
      </trkpt>
      <trkpt lat="42.98233" lon="-0.00351">
        <ele>1598</ele>
        <time>2017-01-18T11:59:12.079Z</time>
      </trkpt>
      <trkpt lat="42.98232" lon="-0.0035">
        <ele>1598</ele>
        <time>2017-01-18T11:59:13.079Z</time>
      </trkpt>
      <trkpt lat="42.98231" lon="-0.0035">
        <ele>1598</ele>
        <time>2017-01-18T11:59:14.079Z</time>
      </trkpt>
      <trkpt lat="42.98231" lon="-0.00349">
        <ele>1598</ele>
        <time>2017-01-18T11:59:15.079Z</time>
      </trkpt>
      <trkpt lat="42.9823" lon="-0.00349">
        <ele>1598</ele>
        <time>2017-01-18T11:59:16.079Z</time>
      </trkpt>
      <trkpt lat="42.98229" lon="-0.00348">
        <ele>1598</ele>
        <time>2017-01-18T11:59:17.079Z</time>
      </trkpt>
      <trkpt lat="42.98229" lon="-0.00348">
        <ele>1598</ele>
        <time>2017-01-18T11:59:18.079Z</time>
      </trkpt>
      <trkpt lat="42.98228" lon="-0.00347">
        <ele>1598</ele>
        <time>2017-01-18T11:59:19.079Z</time>
      </trkpt>
      <trkpt lat="42.98227" lon="-0.00347">
        <ele>1598</ele>
        <time>2017-01-18T11:59:20.079Z</time>
      </trkpt>
      <trkpt lat="42.98227" lon="-0.00346">
        <ele>1598</ele>
        <time>2017-01-18T11:59:21.079Z</time>
      </trkpt>
      <trkpt lat="42.98226" lon="-0.00346">
        <ele>1598</ele>
        <time>2017-01-18T11:59:22.079Z</time>
      </trkpt>
      <trkpt lat="42.98225" lon="-0.00345">
        <ele>1598</ele>
        <time>2017-01-18T11:59:23.079Z</time>
      </trkpt>
      <trkpt lat="42.98225" lon="-0.00345">
        <ele>1598</ele>
        <time>2017-01-18T11:59:24.079Z</time>
      </trkpt>
      <trkpt lat="42.98224" lon="-0.00344">
        <ele>1598</ele>
        <time>2017-01-18T11:59:25.079Z</time>
      </trkpt>
      <trkpt lat="42.98223" lon="-0.00344">
        <ele>1598</ele>
        <time>2017-01-18T11:59:26.079Z</time>
      </trkpt>
      <trkpt lat="42.98223" lon="-0.00343">
        <ele>1598</ele>
        <time>2017-01-18T11:59:27.079Z</time>
      </trkpt>
      <trkpt lat="42.98222" lon="-0.00343">
        <ele>1598</ele>
        <time>2017-01-18T11:59:28.079Z</time>
      </trkpt>
      <trkpt lat="42.98221" lon="-0.00342">
        <ele>1598</ele>
        <time>2017-01-18T11:59:29.079Z</time>
      </trkpt>
      <trkpt lat="42.98221" lon="-0.00342">
        <ele>1598</ele>
        <time>2017-01-18T11:59:30.079Z</time>
      </trkpt>
      <trkpt lat="42.9822" lon="-0.00342">
        <ele>1598</ele>
        <time>2017-01-18T11:59:31.079Z</time>
      </trkpt>
      <trkpt lat="42.9822" lon="-0.00341">
        <ele>1598</ele>
        <time>2017-01-18T11:59:32.079Z</time>
      </trkpt>
      <trkpt lat="42.98219" lon="-0.00341">
        <ele>1598</ele>
        <time>2017-01-18T11:59:33.079Z</time>
      </trkpt>
      <trkpt lat="42.98218" lon="-0.0034">
        <ele>1598</ele>
        <time>2017-01-18T11:59:34.079Z</time>
      </trkpt>
      <trkpt lat="42.98218" lon="-0.0034">
        <ele>1598</ele>
        <time>2017-01-18T11:59:35.079Z</time>
      </trkpt>
      <trkpt lat="42.98217" lon="-0.00339">
        <ele>1598</ele>
        <time>2017-01-18T11:59:36.079Z</time>
      </trkpt>
      <trkpt lat="42.98216" lon="-0.00339">
        <ele>1598</ele>
        <time>2017-01-18T11:59:37.079Z</time>
      </trkpt>
      <trkpt lat="42.98216" lon="-0.00338">
        <ele>1598</ele>
        <time>2017-01-18T11:59:38.079Z</time>
      </trkpt>
      <trkpt lat="42.98215" lon="-0.00338">
        <ele>1598</ele>
        <time>2017-01-18T11:59:39.079Z</time>
      </trkpt>
      <trkpt lat="42.98214" lon="-0.00337">
        <ele>1598</ele>
        <time>2017-01-18T11:59:40.079Z</time>
      </trkpt>
      <trkpt lat="42.98213" lon="-0.00337">
        <ele>1598</ele>
        <time>2017-01-18T11:59:41.079Z</time>
      </trkpt>
      <trkpt lat="42.98213" lon="-0.00336">
        <ele>1598</ele>
        <time>2017-01-18T11:59:42.079Z</time>
      </trkpt>
      <trkpt lat="42.98212" lon="-0.00336">
        <ele>1598</ele>
        <time>2017-01-18T11:59:43.079Z</time>
      </trkpt>
      <trkpt lat="42.98211" lon="-0.00336">
        <ele>1598</ele>
        <time>2017-01-18T11:59:44.079Z</time>
      </trkpt>
      <trkpt lat="42.9821" lon="-0.00335">
        <ele>1598</ele>
        <time>2017-01-18T11:59:45.079Z</time>
      </trkpt>
      <trkpt lat="42.9821" lon="-0.00335">
        <ele>1598</ele>
        <time>2017-01-18T11:59:46.079Z</time>
      </trkpt>
      <trkpt lat="42.98209" lon="-0.00334">
        <ele>1598</ele>
        <time>2017-01-18T11:59:47.079Z</time>
      </trkpt>
      <trkpt lat="42.98208" lon="-0.00334">
        <ele>1598</ele>
        <time>2017-01-18T11:59:48.079Z</time>
      </trkpt>
      <trkpt lat="42.98208" lon="-0.00333">
        <ele>1598</ele>
        <time>2017-01-18T11:59:49.079Z</time>
      </trkpt>
      <trkpt lat="42.98207" lon="-0.00333">
        <ele>1598</ele>
        <time>2017-01-18T11:59:50.079Z</time>
      </trkpt>
      <trkpt lat="42.98206" lon="-0.00333">
        <ele>1598</ele>
        <time>2017-01-18T11:59:51.079Z</time>
      </trkpt>
      <trkpt lat="42.98205" lon="-0.00333">
        <ele>1598</ele>
        <time>2017-01-18T11:59:52.079Z</time>
      </trkpt>
      <trkpt lat="42.98205" lon="-0.00332">
        <ele>1598</ele>
        <time>2017-01-18T11:59:53.079Z</time>
      </trkpt>
      <trkpt lat="42.98204" lon="-0.00332">
        <ele>1598</ele>
        <time>2017-01-18T11:59:54.079Z</time>
      </trkpt>
      <trkpt lat="42.98204" lon="-0.00331">
        <ele>1598</ele>
        <time>2017-01-18T11:59:55.079Z</time>
      </trkpt>
      <trkpt lat="42.98203" lon="-0.00331">
        <ele>1598</ele>
        <time>2017-01-18T11:59:56.079Z</time>
      </trkpt>
      <trkpt lat="42.98203" lon="-0.0033">
        <ele>1598</ele>
        <time>2017-01-18T11:59:57.079Z</time>
      </trkpt>
      <trkpt lat="42.98202" lon="-0.0033">
        <ele>1598</ele>
        <time>2017-01-18T11:59:58.079Z</time>
      </trkpt>
      <trkpt lat="42.98201" lon="-0.0033">
        <ele>1598</ele>
        <time>2017-01-18T11:59:59.079Z</time>
      </trkpt>
      <trkpt lat="42.98201" lon="-0.00329">
        <ele>1598</ele>
        <time>2017-01-18T12:00:00.079Z</time>
      </trkpt>
      <trkpt lat="42.982" lon="-0.00329">
        <ele>1598</ele>
        <time>2017-01-18T12:00:01.079Z</time>
      </trkpt>
      <trkpt lat="42.982" lon="-0.00328">
        <ele>1598</ele>
        <time>2017-01-18T12:00:02.079Z</time>
      </trkpt>
      <trkpt lat="42.98199" lon="-0.00328">
        <ele>1598</ele>
        <time>2017-01-18T12:00:03.079Z</time>
      </trkpt>
      <trkpt lat="42.98199" lon="-0.00327">
        <ele>1598</ele>
        <time>2017-01-18T12:00:04.079Z</time>
      </trkpt>
      <trkpt lat="42.98198" lon="-0.00327">
        <ele>1598</ele>
        <time>2017-01-18T12:00:05.079Z</time>
      </trkpt>
      <trkpt lat="42.98197" lon="-0.00326">
        <ele>1598</ele>
        <time>2017-01-18T12:00:06.079Z</time>
      </trkpt>
      <trkpt lat="42.98197" lon="-0.00326">
        <ele>1598</ele>
        <time>2017-01-18T12:00:07.079Z</time>
      </trkpt>
      <trkpt lat="42.98196" lon="-0.00325">
        <ele>1598</ele>
        <time>2017-01-18T12:00:08.079Z</time>
      </trkpt>
      <trkpt lat="42.98196" lon="-0.00325">
        <ele>1598</ele>
        <time>2017-01-18T12:00:09.079Z</time>
      </trkpt>
      <trkpt lat="42.98195" lon="-0.00324">
        <ele>1598</ele>
        <time>2017-01-18T12:00:10.079Z</time>
      </trkpt>
      <trkpt lat="42.98195" lon="-0.00324">
        <ele>1598</ele>
        <time>2017-01-18T12:00:11.079Z</time>
      </trkpt>
      <trkpt lat="42.98194" lon="-0.00323">
        <ele>1598</ele>
        <time>2017-01-18T12:00:12.079Z</time>
      </trkpt>
      <trkpt lat="42.98193" lon="-0.00322">
        <ele>1599</ele>
        <time>2017-01-18T12:00:13.079Z</time>
      </trkpt>
      <trkpt lat="42.98193" lon="-0.00322">
        <ele>1599</ele>
        <time>2017-01-18T12:00:14.079Z</time>
      </trkpt>
      <trkpt lat="42.98192" lon="-0.00321">
        <ele>1599</ele>
        <time>2017-01-18T12:00:15.079Z</time>
      </trkpt>
      <trkpt lat="42.98192" lon="-0.0032">
        <ele>1599</ele>
        <time>2017-01-18T12:00:16.079Z</time>
      </trkpt>
      <trkpt lat="42.98191" lon="-0.0032">
        <ele>1599</ele>
        <time>2017-01-18T12:00:17.079Z</time>
      </trkpt>
      <trkpt lat="42.98191" lon="-0.00319">
        <ele>1599</ele>
        <time>2017-01-18T12:00:18.079Z</time>
      </trkpt>
      <trkpt lat="42.9819" lon="-0.00318">
        <ele>1599</ele>
        <time>2017-01-18T12:00:19.079Z</time>
      </trkpt>
      <trkpt lat="42.9819" lon="-0.00318">
        <ele>1598</ele>
        <time>2017-01-18T12:00:20.079Z</time>
      </trkpt>
      <trkpt lat="42.98189" lon="-0.00317">
        <ele>1599</ele>
        <time>2017-01-18T12:00:21.079Z</time>
      </trkpt>
      <trkpt lat="42.98188" lon="-0.00316">
        <ele>1599</ele>
        <time>2017-01-18T12:00:22.079Z</time>
      </trkpt>
      <trkpt lat="42.98188" lon="-0.00315">
        <ele>1599</ele>
        <time>2017-01-18T12:00:23.079Z</time>
      </trkpt>
      <trkpt lat="42.98187" lon="-0.00315">
        <ele>1599</ele>
        <time>2017-01-18T12:00:24.079Z</time>
      </trkpt>
      <trkpt lat="42.98187" lon="-0.00314">
        <ele>1599</ele>
        <time>2017-01-18T12:00:25.079Z</time>
      </trkpt>
      <trkpt lat="42.98186" lon="-0.00313">
        <ele>1599</ele>
        <time>2017-01-18T12:00:26.079Z</time>
      </trkpt>
      <trkpt lat="42.98186" lon="-0.00312">
        <ele>1599</ele>
        <time>2017-01-18T12:00:27.079Z</time>
      </trkpt>
      <trkpt lat="42.98185" lon="-0.00311">
        <ele>1600</ele>
        <time>2017-01-18T12:00:28.079Z</time>
      </trkpt>
      <trkpt lat="42.98185" lon="-0.00311">
        <ele>1600</ele>
        <time>2017-01-18T12:00:29.079Z</time>
      </trkpt>
      <trkpt lat="42.98184" lon="-0.0031">
        <ele>1600</ele>
        <time>2017-01-18T12:00:30.079Z</time>
      </trkpt>
      <trkpt lat="42.98184" lon="-0.00309">
        <ele>1600</ele>
        <time>2017-01-18T12:00:31.079Z</time>
      </trkpt>
      <trkpt lat="42.98184" lon="-0.00309">
        <ele>1600</ele>
        <time>2017-01-18T12:00:32.079Z</time>
      </trkpt>
      <trkpt lat="42.98183" lon="-0.00308">
        <ele>1600</ele>
        <time>2017-01-18T12:00:33.079Z</time>
      </trkpt>
      <trkpt lat="42.98183" lon="-0.00307">
        <ele>1600</ele>
        <time>2017-01-18T12:00:34.079Z</time>
      </trkpt>
      <trkpt lat="42.98182" lon="-0.00306">
        <ele>1600</ele>
        <time>2017-01-18T12:00:35.079Z</time>
      </trkpt>
      <trkpt lat="42.98182" lon="-0.00305">
        <ele>1600</ele>
        <time>2017-01-18T12:00:36.079Z</time>
      </trkpt>
      <trkpt lat="42.98181" lon="-0.00304">
        <ele>1601</ele>
        <time>2017-01-18T12:00:37.079Z</time>
      </trkpt>
      <trkpt lat="42.98181" lon="-0.00304">
        <ele>1600</ele>
        <time>2017-01-18T12:00:38.079Z</time>
      </trkpt>
      <trkpt lat="42.9818" lon="-0.00303">
        <ele>1600</ele>
        <time>2017-01-18T12:00:39.079Z</time>
      </trkpt>
      <trkpt lat="42.9818" lon="-0.00302">
        <ele>1601</ele>
        <time>2017-01-18T12:00:40.079Z</time>
      </trkpt>
      <trkpt lat="42.98179" lon="-0.00301">
        <ele>1600</ele>
        <time>2017-01-18T12:00:41.079Z</time>
      </trkpt>
      <trkpt lat="42.98179" lon="-0.003">
        <ele>1601</ele>
        <time>2017-01-18T12:00:42.079Z</time>
      </trkpt>
      <trkpt lat="42.98179" lon="-0.00299">
        <ele>1601</ele>
        <time>2017-01-18T12:00:43.079Z</time>
      </trkpt>
      <trkpt lat="42.98178" lon="-0.00299">
        <ele>1601</ele>
        <time>2017-01-18T12:00:44.079Z</time>
      </trkpt>
      <trkpt lat="42.98178" lon="-0.00298">
        <ele>1601</ele>
        <time>2017-01-18T12:00:45.079Z</time>
      </trkpt>
      <trkpt lat="42.98177" lon="-0.00297">
        <ele>1601</ele>
        <time>2017-01-18T12:00:46.079Z</time>
      </trkpt>
      <trkpt lat="42.98177" lon="-0.00296">
        <ele>1601</ele>
        <time>2017-01-18T12:00:47.079Z</time>
      </trkpt>
      <trkpt lat="42.98177" lon="-0.00296">
        <ele>1601</ele>
        <time>2017-01-18T12:00:48.079Z</time>
      </trkpt>
      <trkpt lat="42.98176" lon="-0.00295">
        <ele>1601</ele>
        <time>2017-01-18T12:00:49.079Z</time>
      </trkpt>
      <trkpt lat="42.98176" lon="-0.00294">
        <ele>1601</ele>
        <time>2017-01-18T12:00:50.079Z</time>
      </trkpt>
      <trkpt lat="42.98175" lon="-0.00293">
        <ele>1601</ele>
        <time>2017-01-18T12:00:51.079Z</time>
      </trkpt>
      <trkpt lat="42.98175" lon="-0.00292">
        <ele>1601</ele>
        <time>2017-01-18T12:00:52.079Z</time>
      </trkpt>
      <trkpt lat="42.98174" lon="-0.00292">
        <ele>1601</ele>
        <time>2017-01-18T12:00:53.079Z</time>
      </trkpt>
      <trkpt lat="42.98174" lon="-0.00291">
        <ele>1601</ele>
        <time>2017-01-18T12:00:54.079Z</time>
      </trkpt>
      <trkpt lat="42.98173" lon="-0.0029">
        <ele>1601</ele>
        <time>2017-01-18T12:00:55.079Z</time>
      </trkpt>
      <trkpt lat="42.98173" lon="-0.00289">
        <ele>1601</ele>
        <time>2017-01-18T12:00:56.079Z</time>
      </trkpt>
      <trkpt lat="42.98172" lon="-0.00288">
        <ele>1601</ele>
        <time>2017-01-18T12:00:57.079Z</time>
      </trkpt>
      <trkpt lat="42.98172" lon="-0.00287">
        <ele>1600</ele>
        <time>2017-01-18T12:00:58.079Z</time>
      </trkpt>
      <trkpt lat="42.98172" lon="-0.00286">
        <ele>1601</ele>
        <time>2017-01-18T12:00:59.079Z</time>
      </trkpt>
      <trkpt lat="42.98171" lon="-0.00285">
        <ele>1600</ele>
        <time>2017-01-18T12:01:00.079Z</time>
      </trkpt>
      <trkpt lat="42.98171" lon="-0.00284">
        <ele>1600</ele>
        <time>2017-01-18T12:01:01.079Z</time>
      </trkpt>
      <trkpt lat="42.9817" lon="-0.00284">
        <ele>1600</ele>
        <time>2017-01-18T12:01:02.079Z</time>
      </trkpt>
      <trkpt lat="42.9817" lon="-0.00283">
        <ele>1600</ele>
        <time>2017-01-18T12:01:03.079Z</time>
      </trkpt>
      <trkpt lat="42.9817" lon="-0.00282">
        <ele>1600</ele>
        <time>2017-01-18T12:01:04.079Z</time>
      </trkpt>
      <trkpt lat="42.98169" lon="-0.00281">
        <ele>1600</ele>
        <time>2017-01-18T12:01:05.079Z</time>
      </trkpt>
      <trkpt lat="42.98169" lon="-0.00281">
        <ele>1600</ele>
        <time>2017-01-18T12:01:06.079Z</time>
      </trkpt>
      <trkpt lat="42.98168" lon="-0.0028">
        <ele>1600</ele>
        <time>2017-01-18T12:01:07.079Z</time>
      </trkpt>
      <trkpt lat="42.98168" lon="-0.00279">
        <ele>1600</ele>
        <time>2017-01-18T12:01:08.079Z</time>
      </trkpt>
      <trkpt lat="42.98167" lon="-0.00278">
        <ele>1600</ele>
        <time>2017-01-18T12:01:09.079Z</time>
      </trkpt>
      <trkpt lat="42.98167" lon="-0.00277">
        <ele>1600</ele>
        <time>2017-01-18T12:01:10.079Z</time>
      </trkpt>
      <trkpt lat="42.98167" lon="-0.00276">
        <ele>1600</ele>
        <time>2017-01-18T12:01:11.079Z</time>
      </trkpt>
      <trkpt lat="42.98166" lon="-0.00276">
        <ele>1600</ele>
        <time>2017-01-18T12:01:12.079Z</time>
      </trkpt>
      <trkpt lat="42.98166" lon="-0.00275">
        <ele>1599</ele>
        <time>2017-01-18T12:01:13.079Z</time>
      </trkpt>
      <trkpt lat="42.98166" lon="-0.00274">
        <ele>1599</ele>
        <time>2017-01-18T12:01:14.079Z</time>
      </trkpt>
      <trkpt lat="42.98165" lon="-0.00273">
        <ele>1599</ele>
        <time>2017-01-18T12:01:15.079Z</time>
      </trkpt>
      <trkpt lat="42.98165" lon="-0.00273">
        <ele>1599</ele>
        <time>2017-01-18T12:01:16.079Z</time>
      </trkpt>
      <trkpt lat="42.98165" lon="-0.00272">
        <ele>1599</ele>
        <time>2017-01-18T12:01:17.079Z</time>
      </trkpt>
      <trkpt lat="42.98164" lon="-0.00271">
        <ele>1599</ele>
        <time>2017-01-18T12:01:18.079Z</time>
      </trkpt>
      <trkpt lat="42.98164" lon="-0.0027">
        <ele>1599</ele>
        <time>2017-01-18T12:01:19.079Z</time>
      </trkpt>
      <trkpt lat="42.98164" lon="-0.00269">
        <ele>1599</ele>
        <time>2017-01-18T12:01:20.079Z</time>
      </trkpt>
      <trkpt lat="42.98163" lon="-0.00268">
        <ele>1599</ele>
        <time>2017-01-18T12:01:21.079Z</time>
      </trkpt>
      <trkpt lat="42.98163" lon="-0.00268">
        <ele>1599</ele>
        <time>2017-01-18T12:01:22.079Z</time>
      </trkpt>
      <trkpt lat="42.98163" lon="-0.00267">
        <ele>1599</ele>
        <time>2017-01-18T12:01:23.079Z</time>
      </trkpt>
      <trkpt lat="42.98162" lon="-0.00266">
        <ele>1599</ele>
        <time>2017-01-18T12:01:24.079Z</time>
      </trkpt>
      <trkpt lat="42.98162" lon="-0.00265">
        <ele>1599</ele>
        <time>2017-01-18T12:01:25.079Z</time>
      </trkpt>
      <trkpt lat="42.98162" lon="-0.00264">
        <ele>1599</ele>
        <time>2017-01-18T12:01:26.079Z</time>
      </trkpt>
      <trkpt lat="42.98162" lon="-0.00264">
        <ele>1599</ele>
        <time>2017-01-18T12:01:27.079Z</time>
      </trkpt>
      <trkpt lat="42.98161" lon="-0.00263">
        <ele>1599</ele>
        <time>2017-01-18T12:01:28.079Z</time>
      </trkpt>
      <trkpt lat="42.98161" lon="-0.00262">
        <ele>1599</ele>
        <time>2017-01-18T12:01:29.079Z</time>
      </trkpt>
      <trkpt lat="42.98161" lon="-0.00262">
        <ele>1599</ele>
        <time>2017-01-18T12:01:30.079Z</time>
      </trkpt>
      <trkpt lat="42.98161" lon="-0.00261">
        <ele>1599</ele>
        <time>2017-01-18T12:01:31.079Z</time>
      </trkpt>
      <trkpt lat="42.98161" lon="-0.0026">
        <ele>1599</ele>
        <time>2017-01-18T12:01:32.079Z</time>
      </trkpt>
      <trkpt lat="42.98161" lon="-0.0026">
        <ele>1599</ele>
        <time>2017-01-18T12:01:33.079Z</time>
      </trkpt>
      <trkpt lat="42.9816" lon="-0.00259">
        <ele>1599</ele>
        <time>2017-01-18T12:01:34.079Z</time>
      </trkpt>
      <trkpt lat="42.9816" lon="-0.00258">
        <ele>1599</ele>
        <time>2017-01-18T12:01:35.079Z</time>
      </trkpt>
      <trkpt lat="42.9816" lon="-0.00257">
        <ele>1599</ele>
        <time>2017-01-18T12:01:36.079Z</time>
      </trkpt>
      <trkpt lat="42.9816" lon="-0.00257">
        <ele>1599</ele>
        <time>2017-01-18T12:01:37.079Z</time>
      </trkpt>
      <trkpt lat="42.98159" lon="-0.00256">
        <ele>1599</ele>
        <time>2017-01-18T12:01:38.079Z</time>
      </trkpt>
      <trkpt lat="42.98159" lon="-0.00255">
        <ele>1599</ele>
        <time>2017-01-18T12:01:39.079Z</time>
      </trkpt>
      <trkpt lat="42.98159" lon="-0.00254">
        <ele>1599</ele>
        <time>2017-01-18T12:01:40.079Z</time>
      </trkpt>
      <trkpt lat="42.98159" lon="-0.00253">
        <ele>1599</ele>
        <time>2017-01-18T12:01:41.079Z</time>
      </trkpt>
      <trkpt lat="42.98159" lon="-0.00253">
        <ele>1599</ele>
        <time>2017-01-18T12:01:42.079Z</time>
      </trkpt>
      <trkpt lat="42.98158" lon="-0.00252">
        <ele>1599</ele>
        <time>2017-01-18T12:01:43.079Z</time>
      </trkpt>
      <trkpt lat="42.98158" lon="-0.00251">
        <ele>1599</ele>
        <time>2017-01-18T12:01:44.079Z</time>
      </trkpt>
      <trkpt lat="42.98158" lon="-0.0025">
        <ele>1599</ele>
        <time>2017-01-18T12:01:45.079Z</time>
      </trkpt>
      <trkpt lat="42.98158" lon="-0.0025">
        <ele>1599</ele>
        <time>2017-01-18T12:01:46.079Z</time>
      </trkpt>
      <trkpt lat="42.98157" lon="-0.00249">
        <ele>1599</ele>
        <time>2017-01-18T12:01:47.079Z</time>
      </trkpt>
      <trkpt lat="42.98157" lon="-0.00248">
        <ele>1599</ele>
        <time>2017-01-18T12:01:48.079Z</time>
      </trkpt>
      <trkpt lat="42.98157" lon="-0.00247">
        <ele>1599</ele>
        <time>2017-01-18T12:01:49.079Z</time>
      </trkpt>
      <trkpt lat="42.98157" lon="-0.00247">
        <ele>1599</ele>
        <time>2017-01-18T12:01:50.079Z</time>
      </trkpt>
      <trkpt lat="42.98157" lon="-0.00246">
        <ele>1599</ele>
        <time>2017-01-18T12:01:51.079Z</time>
      </trkpt>
      <trkpt lat="42.98157" lon="-0.00245">
        <ele>1599</ele>
        <time>2017-01-18T12:01:52.079Z</time>
      </trkpt>
      <trkpt lat="42.98156" lon="-0.00244">
        <ele>1599</ele>
        <time>2017-01-18T12:01:53.079Z</time>
      </trkpt>
      <trkpt lat="42.98156" lon="-0.00244">
        <ele>1599</ele>
        <time>2017-01-18T12:01:54.079Z</time>
      </trkpt>
      <trkpt lat="42.98156" lon="-0.00243">
        <ele>1599</ele>
        <time>2017-01-18T12:01:55.079Z</time>
      </trkpt>
      <trkpt lat="42.98156" lon="-0.00242">
        <ele>1599</ele>
        <time>2017-01-18T12:01:56.079Z</time>
      </trkpt>
      <trkpt lat="42.98156" lon="-0.00241">
        <ele>1599</ele>
        <time>2017-01-18T12:01:57.079Z</time>
      </trkpt>
      <trkpt lat="42.98155" lon="-0.0024">
        <ele>1599</ele>
        <time>2017-01-18T12:01:58.079Z</time>
      </trkpt>
      <trkpt lat="42.98155" lon="-0.00239">
        <ele>1599</ele>
        <time>2017-01-18T12:01:59.079Z</time>
      </trkpt>
      <trkpt lat="42.98155" lon="-0.00239">
        <ele>1599</ele>
        <time>2017-01-18T12:02:00.079Z</time>
      </trkpt>
      <trkpt lat="42.98155" lon="-0.00238">
        <ele>1599</ele>
        <time>2017-01-18T12:02:01.079Z</time>
      </trkpt>
      <trkpt lat="42.98155" lon="-0.00237">
        <ele>1599</ele>
        <time>2017-01-18T12:02:02.079Z</time>
      </trkpt>
      <trkpt lat="42.98154" lon="-0.00236">
        <ele>1600</ele>
        <time>2017-01-18T12:02:03.079Z</time>
      </trkpt>
      <trkpt lat="42.98154" lon="-0.00235">
        <ele>1600</ele>
        <time>2017-01-18T12:02:04.079Z</time>
      </trkpt>
      <trkpt lat="42.98154" lon="-0.00234">
        <ele>1600</ele>
        <time>2017-01-18T12:02:05.079Z</time>
      </trkpt>
      <trkpt lat="42.98154" lon="-0.00233">
        <ele>1600</ele>
        <time>2017-01-18T12:02:06.079Z</time>
      </trkpt>
      <trkpt lat="42.98153" lon="-0.00232">
        <ele>1599</ele>
        <time>2017-01-18T12:02:07.079Z</time>
      </trkpt>
      <trkpt lat="42.98153" lon="-0.00232">
        <ele>1600</ele>
        <time>2017-01-18T12:02:08.079Z</time>
      </trkpt>
      <trkpt lat="42.98153" lon="-0.00231">
        <ele>1600</ele>
        <time>2017-01-18T12:02:09.079Z</time>
      </trkpt>
      <trkpt lat="42.98152" lon="-0.0023">
        <ele>1600</ele>
        <time>2017-01-18T12:02:10.079Z</time>
      </trkpt>
      <trkpt lat="42.98152" lon="-0.0023">
        <ele>1600</ele>
        <time>2017-01-18T12:02:11.079Z</time>
      </trkpt>
      <trkpt lat="42.98152" lon="-0.00229">
        <ele>1600</ele>
        <time>2017-01-18T12:02:12.079Z</time>
      </trkpt>
      <trkpt lat="42.98152" lon="-0.00229">
        <ele>1600</ele>
        <time>2017-01-18T12:02:13.079Z</time>
      </trkpt>
      <trkpt lat="42.98152" lon="-0.00228">
        <ele>1600</ele>
        <time>2017-01-18T12:02:14.079Z</time>
      </trkpt>
      <trkpt lat="42.98151" lon="-0.00228">
        <ele>1600</ele>
        <time>2017-01-18T12:02:15.079Z</time>
      </trkpt>
      <trkpt lat="42.98151" lon="-0.00228">
        <ele>1601</ele>
        <time>2017-01-18T12:02:16.079Z</time>
      </trkpt>
      <trkpt lat="42.98151" lon="-0.00227">
        <ele>1601</ele>
        <time>2017-01-18T12:02:17.079Z</time>
      </trkpt>
      <trkpt lat="42.98151" lon="-0.00227">
        <ele>1601</ele>
        <time>2017-01-18T12:02:18.079Z</time>
      </trkpt>
      <trkpt lat="42.9815" lon="-0.00226">
        <ele>1601</ele>
        <time>2017-01-18T12:02:19.079Z</time>
      </trkpt>
      <trkpt lat="42.9815" lon="-0.00226">
        <ele>1601</ele>
        <time>2017-01-18T12:02:20.079Z</time>
      </trkpt>
      <trkpt lat="42.9815" lon="-0.00225">
        <ele>1601</ele>
        <time>2017-01-18T12:02:21.079Z</time>
      </trkpt>
      <trkpt lat="42.9815" lon="-0.00225">
        <ele>1601</ele>
        <time>2017-01-18T12:02:22.079Z</time>
      </trkpt>
      <trkpt lat="42.9815" lon="-0.00224">
        <ele>1601</ele>
        <time>2017-01-18T12:02:23.079Z</time>
      </trkpt>
      <trkpt lat="42.9815" lon="-0.00224">
        <ele>1601</ele>
        <time>2017-01-18T12:02:24.079Z</time>
      </trkpt>
      <trkpt lat="42.98149" lon="-0.00223">
        <ele>1601</ele>
        <time>2017-01-18T12:02:25.079Z</time>
      </trkpt>
      <trkpt lat="42.98149" lon="-0.00223">
        <ele>1601</ele>
        <time>2017-01-18T12:02:26.079Z</time>
      </trkpt>
      <trkpt lat="42.98149" lon="-0.00222">
        <ele>1601</ele>
        <time>2017-01-18T12:02:27.079Z</time>
      </trkpt>
      <trkpt lat="42.98149" lon="-0.00221">
        <ele>1601</ele>
        <time>2017-01-18T12:02:28.079Z</time>
      </trkpt>
      <trkpt lat="42.98149" lon="-0.00221">
        <ele>1601</ele>
        <time>2017-01-18T12:02:29.079Z</time>
      </trkpt>
      <trkpt lat="42.98148" lon="-0.0022">
        <ele>1601</ele>
        <time>2017-01-18T12:02:30.079Z</time>
      </trkpt>
      <trkpt lat="42.98148" lon="-0.00219">
        <ele>1601</ele>
        <time>2017-01-18T12:02:31.079Z</time>
      </trkpt>
      <trkpt lat="42.98148" lon="-0.00219">
        <ele>1601</ele>
        <time>2017-01-18T12:02:32.079Z</time>
      </trkpt>
      <trkpt lat="42.98148" lon="-0.00218">
        <ele>1601</ele>
        <time>2017-01-18T12:02:33.079Z</time>
      </trkpt>
      <trkpt lat="42.98147" lon="-0.00217">
        <ele>1601</ele>
        <time>2017-01-18T12:02:34.079Z</time>
      </trkpt>
      <trkpt lat="42.98147" lon="-0.00216">
        <ele>1602</ele>
        <time>2017-01-18T12:02:35.079Z</time>
      </trkpt>
      <trkpt lat="42.98147" lon="-0.00215">
        <ele>1602</ele>
        <time>2017-01-18T12:02:36.079Z</time>
      </trkpt>
      <trkpt lat="42.98147" lon="-0.00215">
        <ele>1602</ele>
        <time>2017-01-18T12:02:37.079Z</time>
      </trkpt>
      <trkpt lat="42.98147" lon="-0.00214">
        <ele>1601</ele>
        <time>2017-01-18T12:02:38.079Z</time>
      </trkpt>
      <trkpt lat="42.98147" lon="-0.00214">
        <ele>1601</ele>
        <time>2017-01-18T12:02:39.079Z</time>
      </trkpt>
      <trkpt lat="42.98146" lon="-0.00213">
        <ele>1601</ele>
        <time>2017-01-18T12:02:40.079Z</time>
      </trkpt>
      <trkpt lat="42.98146" lon="-0.00213">
        <ele>1601</ele>
        <time>2017-01-18T12:02:41.079Z</time>
      </trkpt>
      <trkpt lat="42.98146" lon="-0.00213">
        <ele>1601</ele>
        <time>2017-01-18T12:02:42.079Z</time>
      </trkpt>
      <trkpt lat="42.98146" lon="-0.00213">
        <ele>1601</ele>
        <time>2017-01-18T12:02:43.079Z</time>
      </trkpt>
      <trkpt lat="42.98146" lon="-0.00212">
        <ele>1601</ele>
        <time>2017-01-18T12:02:44.079Z</time>
      </trkpt>
      <trkpt lat="42.98145" lon="-0.00212">
        <ele>1601</ele>
        <time>2017-01-18T12:02:45.079Z</time>
      </trkpt>
      <trkpt lat="42.98145" lon="-0.00211">
        <ele>1601</ele>
        <time>2017-01-18T12:02:46.079Z</time>
      </trkpt>
      <trkpt lat="42.98145" lon="-0.00211">
        <ele>1601</ele>
        <time>2017-01-18T12:02:47.079Z</time>
      </trkpt>
      <trkpt lat="42.98145" lon="-0.0021">
        <ele>1601</ele>
        <time>2017-01-18T12:02:48.079Z</time>
      </trkpt>
      <trkpt lat="42.98144" lon="-0.0021">
        <ele>1601</ele>
        <time>2017-01-18T12:02:49.079Z</time>
      </trkpt>
      <trkpt lat="42.98144" lon="-0.00209">
        <ele>1601</ele>
        <time>2017-01-18T12:02:50.079Z</time>
      </trkpt>
      <trkpt lat="42.98144" lon="-0.00209">
        <ele>1601</ele>
        <time>2017-01-18T12:02:51.079Z</time>
      </trkpt>
      <trkpt lat="42.98144" lon="-0.00209">
        <ele>1601</ele>
        <time>2017-01-18T12:02:52.079Z</time>
      </trkpt>
      <trkpt lat="42.98144" lon="-0.00209">
        <ele>1601</ele>
        <time>2017-01-18T12:02:53.079Z</time>
      </trkpt>
      <trkpt lat="42.98144" lon="-0.00209">
        <ele>1601</ele>
        <time>2017-01-18T12:02:54.079Z</time>
      </trkpt>
      <trkpt lat="42.98144" lon="-0.00209">
        <ele>1601</ele>
        <time>2017-01-18T12:02:55.079Z</time>
      </trkpt>
      <trkpt lat="42.98142" lon="-0.00207">
        <ele>1601</ele>
        <time>2017-01-18T12:02:57.068Z</time>
      </trkpt>
      <trkpt lat="42.9814" lon="-0.00206">
        <ele>1601</ele>
        <time>2017-01-18T12:02:58.068Z</time>
      </trkpt>
      <trkpt lat="42.9814" lon="-0.00206">
        <ele>1601</ele>
        <time>2017-01-18T12:02:59.068Z</time>
      </trkpt>
      <trkpt lat="42.98139" lon="-0.00205">
        <ele>1601</ele>
        <time>2017-01-18T12:03:00.068Z</time>
      </trkpt>
      <trkpt lat="42.98139" lon="-0.00205">
        <ele>1601</ele>
        <time>2017-01-18T12:03:01.068Z</time>
      </trkpt>
      <trkpt lat="42.98138" lon="-0.00205">
        <ele>1601</ele>
        <time>2017-01-18T12:03:02.068Z</time>
      </trkpt>
      <trkpt lat="42.98138" lon="-0.00204">
        <ele>1601</ele>
        <time>2017-01-18T12:03:03.068Z</time>
      </trkpt>
      <trkpt lat="42.98136" lon="-0.00203">
        <ele>1601</ele>
        <time>2017-01-18T12:03:04.068Z</time>
      </trkpt>
      <trkpt lat="42.98135" lon="-0.00203">
        <ele>1601</ele>
        <time>2017-01-18T12:03:05.068Z</time>
      </trkpt>
      <trkpt lat="42.98135" lon="-0.00202">
        <ele>1601</ele>
        <time>2017-01-18T12:03:06.068Z</time>
      </trkpt>
      <trkpt lat="42.98135" lon="-0.00202">
        <ele>1601</ele>
        <time>2017-01-18T12:03:07.068Z</time>
      </trkpt>
      <trkpt lat="42.98134" lon="-0.00202">
        <ele>1600</ele>
        <time>2017-01-18T12:03:08.068Z</time>
      </trkpt>
      <trkpt lat="42.98133" lon="-0.00201">
        <ele>1600</ele>
        <time>2017-01-18T12:03:09.068Z</time>
      </trkpt>
      <trkpt lat="42.98132" lon="-0.002">
        <ele>1601</ele>
        <time>2017-01-18T12:03:10.068Z</time>
      </trkpt>
      <trkpt lat="42.98132" lon="-0.002">
        <ele>1601</ele>
        <time>2017-01-18T12:03:11.068Z</time>
      </trkpt>
      <trkpt lat="42.98131" lon="-0.002">
        <ele>1601</ele>
        <time>2017-01-18T12:03:12.068Z</time>
      </trkpt>
      <trkpt lat="42.9813" lon="-0.00199">
        <ele>1601</ele>
        <time>2017-01-18T12:03:13.068Z</time>
      </trkpt>
      <trkpt lat="42.98129" lon="-0.00199">
        <ele>1601</ele>
        <time>2017-01-18T12:03:14.068Z</time>
      </trkpt>
      <trkpt lat="42.98128" lon="-0.00198">
        <ele>1601</ele>
        <time>2017-01-18T12:03:15.068Z</time>
      </trkpt>
      <trkpt lat="42.98128" lon="-0.00198">
        <ele>1601</ele>
        <time>2017-01-18T12:03:16.068Z</time>
      </trkpt>
      <trkpt lat="42.98126" lon="-0.00197">
        <ele>1600</ele>
        <time>2017-01-18T12:03:17.068Z</time>
      </trkpt>
      <trkpt lat="42.98126" lon="-0.00197">
        <ele>1600</ele>
        <time>2017-01-18T12:03:18.068Z</time>
      </trkpt>
      <trkpt lat="42.98125" lon="-0.00197">
        <ele>1600</ele>
        <time>2017-01-18T12:03:19.068Z</time>
      </trkpt>
      <trkpt lat="42.98124" lon="-0.00196">
        <ele>1600</ele>
        <time>2017-01-18T12:03:20.068Z</time>
      </trkpt>
      <trkpt lat="42.98123" lon="-0.00196">
        <ele>1600</ele>
        <time>2017-01-18T12:03:21.068Z</time>
      </trkpt>
      <trkpt lat="42.98122" lon="-0.00196">
        <ele>1600</ele>
        <time>2017-01-18T12:03:22.068Z</time>
      </trkpt>
      <trkpt lat="42.98121" lon="-0.00195">
        <ele>1600</ele>
        <time>2017-01-18T12:03:23.068Z</time>
      </trkpt>
      <trkpt lat="42.98121" lon="-0.00195">
        <ele>1600</ele>
        <time>2017-01-18T12:03:24.068Z</time>
      </trkpt>
      <trkpt lat="42.9812" lon="-0.00195">
        <ele>1600</ele>
        <time>2017-01-18T12:03:25.068Z</time>
      </trkpt>
      <trkpt lat="42.98119" lon="-0.00195">
        <ele>1600</ele>
        <time>2017-01-18T12:03:26.068Z</time>
      </trkpt>
      <trkpt lat="42.98118" lon="-0.00194">
        <ele>1600</ele>
        <time>2017-01-18T12:03:27.068Z</time>
      </trkpt>
      <trkpt lat="42.98117" lon="-0.00194">
        <ele>1600</ele>
        <time>2017-01-18T12:03:28.068Z</time>
      </trkpt>
      <trkpt lat="42.98116" lon="-0.00194">
        <ele>1600</ele>
        <time>2017-01-18T12:03:29.068Z</time>
      </trkpt>
      <trkpt lat="42.98115" lon="-0.00194">
        <ele>1600</ele>
        <time>2017-01-18T12:03:30.068Z</time>
      </trkpt>
      <trkpt lat="42.98114" lon="-0.00194">
        <ele>1600</ele>
        <time>2017-01-18T12:03:31.068Z</time>
      </trkpt>
      <trkpt lat="42.98113" lon="-0.00194">
        <ele>1600</ele>
        <time>2017-01-18T12:03:32.068Z</time>
      </trkpt>
      <trkpt lat="42.98112" lon="-0.00194">
        <ele>1600</ele>
        <time>2017-01-18T12:03:33.068Z</time>
      </trkpt>
      <trkpt lat="42.98112" lon="-0.00194">
        <ele>1600</ele>
        <time>2017-01-18T12:03:34.068Z</time>
      </trkpt>
      <trkpt lat="42.98111" lon="-0.00194">
        <ele>1599</ele>
        <time>2017-01-18T12:03:35.068Z</time>
      </trkpt>
      <trkpt lat="42.9811" lon="-0.00194">
        <ele>1599</ele>
        <time>2017-01-18T12:03:36.068Z</time>
      </trkpt>
      <trkpt lat="42.9811" lon="-0.00194">
        <ele>1599</ele>
        <time>2017-01-18T12:03:37.068Z</time>
      </trkpt>
      <trkpt lat="42.98109" lon="-0.00194">
        <ele>1599</ele>
        <time>2017-01-18T12:03:38.068Z</time>
      </trkpt>
      <trkpt lat="42.98107" lon="-0.00195">
        <ele>1599</ele>
        <time>2017-01-18T12:03:39.068Z</time>
      </trkpt>
      <trkpt lat="42.98107" lon="-0.00195">
        <ele>1599</ele>
        <time>2017-01-18T12:03:40.068Z</time>
      </trkpt>
      <trkpt lat="42.98105" lon="-0.00195">
        <ele>1599</ele>
        <time>2017-01-18T12:03:41.068Z</time>
      </trkpt>
      <trkpt lat="42.98105" lon="-0.00195">
        <ele>1599</ele>
        <time>2017-01-18T12:03:42.068Z</time>
      </trkpt>
      <trkpt lat="42.98105" lon="-0.00195">
        <ele>1599</ele>
        <time>2017-01-18T12:03:43.068Z</time>
      </trkpt>
      <trkpt lat="42.98104" lon="-0.00195">
        <ele>1599</ele>
        <time>2017-01-18T12:03:44.068Z</time>
      </trkpt>
      <trkpt lat="42.98102" lon="-0.00196">
        <ele>1599</ele>
        <time>2017-01-18T12:03:45.068Z</time>
      </trkpt>
      <trkpt lat="42.98102" lon="-0.00196">
        <ele>1599</ele>
        <time>2017-01-18T12:03:46.068Z</time>
      </trkpt>
      <trkpt lat="42.98101" lon="-0.00196">
        <ele>1598</ele>
        <time>2017-01-18T12:03:47.068Z</time>
      </trkpt>
      <trkpt lat="42.981" lon="-0.00196">
        <ele>1598</ele>
        <time>2017-01-18T12:03:48.068Z</time>
      </trkpt>
      <trkpt lat="42.98099" lon="-0.00197">
        <ele>1598</ele>
        <time>2017-01-18T12:03:49.068Z</time>
      </trkpt>
      <trkpt lat="42.98098" lon="-0.00197">
        <ele>1598</ele>
        <time>2017-01-18T12:03:50.068Z</time>
      </trkpt>
      <trkpt lat="42.98097" lon="-0.00197">
        <ele>1598</ele>
        <time>2017-01-18T12:03:51.068Z</time>
      </trkpt>
      <trkpt lat="42.98096" lon="-0.00197">
        <ele>1598</ele>
        <time>2017-01-18T12:03:52.068Z</time>
      </trkpt>
      <trkpt lat="42.98095" lon="-0.00197">
        <ele>1598</ele>
        <time>2017-01-18T12:03:53.068Z</time>
      </trkpt>
      <trkpt lat="42.98095" lon="-0.00197">
        <ele>1598</ele>
        <time>2017-01-18T12:03:54.068Z</time>
      </trkpt>
      <trkpt lat="42.98094" lon="-0.00197">
        <ele>1598</ele>
        <time>2017-01-18T12:03:55.068Z</time>
      </trkpt>
      <trkpt lat="42.98093" lon="-0.00198">
        <ele>1598</ele>
        <time>2017-01-18T12:03:56.068Z</time>
      </trkpt>
      <trkpt lat="42.98091" lon="-0.00198">
        <ele>1598</ele>
        <time>2017-01-18T12:03:57.068Z</time>
      </trkpt>
      <trkpt lat="42.9809" lon="-0.00198">
        <ele>1598</ele>
        <time>2017-01-18T12:03:58.068Z</time>
      </trkpt>
      <trkpt lat="42.98089" lon="-0.00198">
        <ele>1598</ele>
        <time>2017-01-18T12:03:59.068Z</time>
      </trkpt>
      <trkpt lat="42.98089" lon="-0.00198">
        <ele>1597</ele>
        <time>2017-01-18T12:04:00.068Z</time>
      </trkpt>
      <trkpt lat="42.98088" lon="-0.00198">
        <ele>1597</ele>
        <time>2017-01-18T12:04:01.068Z</time>
      </trkpt>
      <trkpt lat="42.98087" lon="-0.00198">
        <ele>1597</ele>
        <time>2017-01-18T12:04:02.068Z</time>
      </trkpt>
      <trkpt lat="42.98087" lon="-0.00198">
        <ele>1597</ele>
        <time>2017-01-18T12:04:03.068Z</time>
      </trkpt>
      <trkpt lat="42.98085" lon="-0.00198">
        <ele>1597</ele>
        <time>2017-01-18T12:04:04.068Z</time>
      </trkpt>
      <trkpt lat="42.98084" lon="-0.00198">
        <ele>1597</ele>
        <time>2017-01-18T12:04:05.068Z</time>
      </trkpt>
      <trkpt lat="42.98083" lon="-0.00198">
        <ele>1596</ele>
        <time>2017-01-18T12:04:06.068Z</time>
      </trkpt>
      <trkpt lat="42.98082" lon="-0.00199">
        <ele>1596</ele>
        <time>2017-01-18T12:04:07.068Z</time>
      </trkpt>
      <trkpt lat="42.98081" lon="-0.00199">
        <ele>1597</ele>
        <time>2017-01-18T12:04:08.068Z</time>
      </trkpt>
      <trkpt lat="42.9808" lon="-0.00199">
        <ele>1596</ele>
        <time>2017-01-18T12:04:09.068Z</time>
      </trkpt>
      <trkpt lat="42.9808" lon="-0.00199">
        <ele>1596</ele>
        <time>2017-01-18T12:04:10.068Z</time>
      </trkpt>
      <trkpt lat="42.9808" lon="-0.00199">
        <ele>1596</ele>
        <time>2017-01-18T12:04:11.068Z</time>
      </trkpt>
      <trkpt lat="42.98078" lon="-0.00199">
        <ele>1596</ele>
        <time>2017-01-18T12:04:12.068Z</time>
      </trkpt>
      <trkpt lat="42.98077" lon="-0.00199">
        <ele>1596</ele>
        <time>2017-01-18T12:04:13.068Z</time>
      </trkpt>
      <trkpt lat="42.98076" lon="-0.00199">
        <ele>1596</ele>
        <time>2017-01-18T12:04:14.068Z</time>
      </trkpt>
      <trkpt lat="42.98075" lon="-0.002">
        <ele>1596</ele>
        <time>2017-01-18T12:04:15.068Z</time>
      </trkpt>
      <trkpt lat="42.98074" lon="-0.002">
        <ele>1596</ele>
        <time>2017-01-18T12:04:16.068Z</time>
      </trkpt>
      <trkpt lat="42.98073" lon="-0.002">
        <ele>1596</ele>
        <time>2017-01-18T12:04:17.068Z</time>
      </trkpt>
      <trkpt lat="42.98072" lon="-0.002">
        <ele>1596</ele>
        <time>2017-01-18T12:04:18.068Z</time>
      </trkpt>
      <trkpt lat="42.98071" lon="-0.002">
        <ele>1596</ele>
        <time>2017-01-18T12:04:19.068Z</time>
      </trkpt>
      <trkpt lat="42.98071" lon="-0.002">
        <ele>1596</ele>
        <time>2017-01-18T12:04:20.068Z</time>
      </trkpt>
      <trkpt lat="42.98069" lon="-0.002">
        <ele>1596</ele>
        <time>2017-01-18T12:04:21.068Z</time>
      </trkpt>
      <trkpt lat="42.98068" lon="-0.002">
        <ele>1596</ele>
        <time>2017-01-18T12:04:22.068Z</time>
      </trkpt>
      <trkpt lat="42.98067" lon="-0.002">
        <ele>1596</ele>
        <time>2017-01-18T12:04:23.068Z</time>
      </trkpt>
      <trkpt lat="42.98066" lon="-0.002">
        <ele>1596</ele>
        <time>2017-01-18T12:04:24.068Z</time>
      </trkpt>
      <trkpt lat="42.98065" lon="-0.002">
        <ele>1596</ele>
        <time>2017-01-18T12:04:25.068Z</time>
      </trkpt>
      <trkpt lat="42.98064" lon="-0.00199">
        <ele>1596</ele>
        <time>2017-01-18T12:04:26.068Z</time>
      </trkpt>
      <trkpt lat="42.98063" lon="-0.00199">
        <ele>1596</ele>
        <time>2017-01-18T12:04:27.068Z</time>
      </trkpt>
      <trkpt lat="42.98062" lon="-0.00199">
        <ele>1596</ele>
        <time>2017-01-18T12:04:28.068Z</time>
      </trkpt>
      <trkpt lat="42.98062" lon="-0.00199">
        <ele>1596</ele>
        <time>2017-01-18T12:04:29.068Z</time>
      </trkpt>
      <trkpt lat="42.98061" lon="-0.00199">
        <ele>1596</ele>
        <time>2017-01-18T12:04:30.068Z</time>
      </trkpt>
      <trkpt lat="42.9806" lon="-0.00199">
        <ele>1595</ele>
        <time>2017-01-18T12:04:31.068Z</time>
      </trkpt>
      <trkpt lat="42.98059" lon="-0.00199">
        <ele>1596</ele>
        <time>2017-01-18T12:04:32.068Z</time>
      </trkpt>
      <trkpt lat="42.98058" lon="-0.00199">
        <ele>1595</ele>
        <time>2017-01-18T12:04:33.068Z</time>
      </trkpt>
      <trkpt lat="42.98057" lon="-0.00199">
        <ele>1595</ele>
        <time>2017-01-18T12:04:34.068Z</time>
      </trkpt>
      <trkpt lat="42.98056" lon="-0.00199">
        <ele>1595</ele>
        <time>2017-01-18T12:04:35.068Z</time>
      </trkpt>
      <trkpt lat="42.98055" lon="-0.00199">
        <ele>1595</ele>
        <time>2017-01-18T12:04:36.068Z</time>
      </trkpt>
      <trkpt lat="42.98054" lon="-0.00199">
        <ele>1595</ele>
        <time>2017-01-18T12:04:37.068Z</time>
      </trkpt>
      <trkpt lat="42.98053" lon="-0.00199">
        <ele>1595</ele>
        <time>2017-01-18T12:04:38.068Z</time>
      </trkpt>
      <trkpt lat="42.98052" lon="-0.00199">
        <ele>1595</ele>
        <time>2017-01-18T12:04:39.068Z</time>
      </trkpt>
      <trkpt lat="42.98051" lon="-0.00199">
        <ele>1595</ele>
        <time>2017-01-18T12:04:40.068Z</time>
      </trkpt>
      <trkpt lat="42.98051" lon="-0.00198">
        <ele>1595</ele>
        <time>2017-01-18T12:04:41.068Z</time>
      </trkpt>
      <trkpt lat="42.9805" lon="-0.00198">
        <ele>1595</ele>
        <time>2017-01-18T12:04:42.068Z</time>
      </trkpt>
      <trkpt lat="42.98049" lon="-0.00198">
        <ele>1595</ele>
        <time>2017-01-18T12:04:43.068Z</time>
      </trkpt>
      <trkpt lat="42.98048" lon="-0.00198">
        <ele>1595</ele>
        <time>2017-01-18T12:04:44.068Z</time>
      </trkpt>
      <trkpt lat="42.98047" lon="-0.00198">
        <ele>1595</ele>
        <time>2017-01-18T12:04:45.068Z</time>
      </trkpt>
      <trkpt lat="42.98046" lon="-0.00198">
        <ele>1595</ele>
        <time>2017-01-18T12:04:46.068Z</time>
      </trkpt>
      <trkpt lat="42.98045" lon="-0.00197">
        <ele>1595</ele>
        <time>2017-01-18T12:04:47.068Z</time>
      </trkpt>
      <trkpt lat="42.98044" lon="-0.00197">
        <ele>1595</ele>
        <time>2017-01-18T12:04:48.068Z</time>
      </trkpt>
      <trkpt lat="42.98043" lon="-0.00197">
        <ele>1594</ele>
        <time>2017-01-18T12:04:49.068Z</time>
      </trkpt>
      <trkpt lat="42.98042" lon="-0.00197">
        <ele>1594</ele>
        <time>2017-01-18T12:04:50.068Z</time>
      </trkpt>
      <trkpt lat="42.98041" lon="-0.00197">
        <ele>1594</ele>
        <time>2017-01-18T12:04:51.068Z</time>
      </trkpt>
      <trkpt lat="42.9804" lon="-0.00197">
        <ele>1594</ele>
        <time>2017-01-18T12:04:52.068Z</time>
      </trkpt>
      <trkpt lat="42.98039" lon="-0.00197">
        <ele>1594</ele>
        <time>2017-01-18T12:04:53.068Z</time>
      </trkpt>
      <trkpt lat="42.98039" lon="-0.00197">
        <ele>1594</ele>
        <time>2017-01-18T12:04:54.068Z</time>
      </trkpt>
      <trkpt lat="42.98038" lon="-0.00197">
        <ele>1594</ele>
        <time>2017-01-18T12:04:55.068Z</time>
      </trkpt>
      <trkpt lat="42.98037" lon="-0.00197">
        <ele>1594</ele>
        <time>2017-01-18T12:04:56.068Z</time>
      </trkpt>
      <trkpt lat="42.98036" lon="-0.00197">
        <ele>1594</ele>
        <time>2017-01-18T12:04:57.068Z</time>
      </trkpt>
      <trkpt lat="42.98035" lon="-0.00196">
        <ele>1594</ele>
        <time>2017-01-18T12:04:58.068Z</time>
      </trkpt>
      <trkpt lat="42.98034" lon="-0.00196">
        <ele>1594</ele>
        <time>2017-01-18T12:04:59.068Z</time>
      </trkpt>
      <trkpt lat="42.98034" lon="-0.00196">
        <ele>1594</ele>
        <time>2017-01-18T12:05:00.068Z</time>
      </trkpt>
      <trkpt lat="42.98034" lon="-0.00197">
        <ele>1594</ele>
        <time>2017-01-18T12:05:01.068Z</time>
      </trkpt>
      <trkpt lat="42.98033" lon="-0.00197">
        <ele>1594</ele>
        <time>2017-01-18T12:05:02.068Z</time>
      </trkpt>
      <trkpt lat="42.98034" lon="-0.00197">
        <ele>1594</ele>
        <time>2017-01-18T12:05:03.068Z</time>
      </trkpt>
      <trkpt lat="42.98034" lon="-0.00197">
        <ele>1594</ele>
        <time>2017-01-18T12:05:04.068Z</time>
      </trkpt>
      <trkpt lat="42.98034" lon="-0.00198">
        <ele>1594</ele>
        <time>2017-01-18T12:05:05.068Z</time>
      </trkpt>
      <trkpt lat="42.98034" lon="-0.00198">
        <ele>1594</ele>
        <time>2017-01-18T12:05:06.068Z</time>
      </trkpt>
      <trkpt lat="42.98034" lon="-0.00198">
        <ele>1594</ele>
        <time>2017-01-18T12:05:07.068Z</time>
      </trkpt>
      <trkpt lat="42.98034" lon="-0.00198">
        <ele>1594</ele>
        <time>2017-01-18T12:05:08.068Z</time>
      </trkpt>
      <trkpt lat="42.98034" lon="-0.00198">
        <ele>1594</ele>
        <time>2017-01-18T12:05:09.068Z</time>
      </trkpt>
      <trkpt lat="42.98034" lon="-0.00197">
        <ele>1594</ele>
        <time>2017-01-18T12:05:10.068Z</time>
      </trkpt>
      <trkpt lat="42.98034" lon="-0.00197">
        <ele>1594</ele>
        <time>2017-01-18T12:05:11.068Z</time>
      </trkpt>
      <trkpt lat="42.98034" lon="-0.00196">
        <ele>1595</ele>
        <time>2017-01-18T12:05:12.072Z</time>
      </trkpt>
      <trkpt lat="42.98033" lon="-0.00196">
        <ele>1595</ele>
        <time>2017-01-18T12:05:13.072Z</time>
      </trkpt>
      <trkpt lat="42.98033" lon="-0.00196">
        <ele>1595</ele>
        <time>2017-01-18T12:05:14.072Z</time>
      </trkpt>
      <trkpt lat="42.98032" lon="-0.00196">
        <ele>1595</ele>
        <time>2017-01-18T12:05:15.072Z</time>
      </trkpt>
      <trkpt lat="42.98031" lon="-0.00196">
        <ele>1595</ele>
        <time>2017-01-18T12:05:16.072Z</time>
      </trkpt>
      <trkpt lat="42.9803" lon="-0.00195">
        <ele>1595</ele>
        <time>2017-01-18T12:05:17.072Z</time>
      </trkpt>
      <trkpt lat="42.98029" lon="-0.00195">
        <ele>1595</ele>
        <time>2017-01-18T12:05:18.072Z</time>
      </trkpt>
      <trkpt lat="42.98028" lon="-0.00195">
        <ele>1595</ele>
        <time>2017-01-18T12:05:19.072Z</time>
      </trkpt>
      <trkpt lat="42.98028" lon="-0.00195">
        <ele>1595</ele>
        <time>2017-01-18T12:05:20.072Z</time>
      </trkpt>
      <trkpt lat="42.98027" lon="-0.00195">
        <ele>1595</ele>
        <time>2017-01-18T12:05:21.072Z</time>
      </trkpt>
      <trkpt lat="42.98026" lon="-0.00194">
        <ele>1595</ele>
        <time>2017-01-18T12:05:22.072Z</time>
      </trkpt>
      <trkpt lat="42.98025" lon="-0.00194">
        <ele>1595</ele>
        <time>2017-01-18T12:05:23.072Z</time>
      </trkpt>
      <trkpt lat="42.98024" lon="-0.00194">
        <ele>1595</ele>
        <time>2017-01-18T12:05:24.072Z</time>
      </trkpt>
      <trkpt lat="42.98023" lon="-0.00194">
        <ele>1595</ele>
        <time>2017-01-18T12:05:25.072Z</time>
      </trkpt>
      <trkpt lat="42.98022" lon="-0.00194">
        <ele>1595</ele>
        <time>2017-01-18T12:05:26.072Z</time>
      </trkpt>
      <trkpt lat="42.98021" lon="-0.00194">
        <ele>1595</ele>
        <time>2017-01-18T12:05:27.072Z</time>
      </trkpt>
      <trkpt lat="42.9802" lon="-0.00193">
        <ele>1595</ele>
        <time>2017-01-18T12:05:28.072Z</time>
      </trkpt>
      <trkpt lat="42.9802" lon="-0.00193">
        <ele>1595</ele>
        <time>2017-01-18T12:05:29.072Z</time>
      </trkpt>
      <trkpt lat="42.98019" lon="-0.00193">
        <ele>1595</ele>
        <time>2017-01-18T12:05:30.072Z</time>
      </trkpt>
      <trkpt lat="42.98018" lon="-0.00193">
        <ele>1595</ele>
        <time>2017-01-18T12:05:31.072Z</time>
      </trkpt>
      <trkpt lat="42.98017" lon="-0.00193">
        <ele>1595</ele>
        <time>2017-01-18T12:05:32.072Z</time>
      </trkpt>
      <trkpt lat="42.98016" lon="-0.00193">
        <ele>1594</ele>
        <time>2017-01-18T12:05:33.072Z</time>
      </trkpt>
      <trkpt lat="42.98015" lon="-0.00193">
        <ele>1594</ele>
        <time>2017-01-18T12:05:34.072Z</time>
      </trkpt>
      <trkpt lat="42.98014" lon="-0.00193">
        <ele>1594</ele>
        <time>2017-01-18T12:05:35.072Z</time>
      </trkpt>
      <trkpt lat="42.98014" lon="-0.00193">
        <ele>1594</ele>
        <time>2017-01-18T12:05:36.072Z</time>
      </trkpt>
      <trkpt lat="42.98013" lon="-0.00193">
        <ele>1594</ele>
        <time>2017-01-18T12:05:37.072Z</time>
      </trkpt>
      <trkpt lat="42.98012" lon="-0.00193">
        <ele>1593</ele>
        <time>2017-01-18T12:05:38.072Z</time>
      </trkpt>
      <trkpt lat="42.98011" lon="-0.00193">
        <ele>1593</ele>
        <time>2017-01-18T12:05:39.072Z</time>
      </trkpt>
      <trkpt lat="42.9801" lon="-0.00193">
        <ele>1593</ele>
        <time>2017-01-18T12:05:40.072Z</time>
      </trkpt>
      <trkpt lat="42.98009" lon="-0.00194">
        <ele>1593</ele>
        <time>2017-01-18T12:05:41.072Z</time>
      </trkpt>
      <trkpt lat="42.98008" lon="-0.00194">
        <ele>1593</ele>
        <time>2017-01-18T12:05:42.072Z</time>
      </trkpt>
      <trkpt lat="42.98007" lon="-0.00194">
        <ele>1593</ele>
        <time>2017-01-18T12:05:43.072Z</time>
      </trkpt>
      <trkpt lat="42.98006" lon="-0.00194">
        <ele>1593</ele>
        <time>2017-01-18T12:05:44.072Z</time>
      </trkpt>
      <trkpt lat="42.98005" lon="-0.00194">
        <ele>1593</ele>
        <time>2017-01-18T12:05:45.072Z</time>
      </trkpt>
      <trkpt lat="42.98004" lon="-0.00194">
        <ele>1593</ele>
        <time>2017-01-18T12:05:46.072Z</time>
      </trkpt>
      <trkpt lat="42.98003" lon="-0.00194">
        <ele>1593</ele>
        <time>2017-01-18T12:05:47.072Z</time>
      </trkpt>
      <trkpt lat="42.98002" lon="-0.00194">
        <ele>1593</ele>
        <time>2017-01-18T12:05:48.072Z</time>
      </trkpt>
      <trkpt lat="42.98002" lon="-0.00194">
        <ele>1593</ele>
        <time>2017-01-18T12:05:49.072Z</time>
      </trkpt>
      <trkpt lat="42.98001" lon="-0.00194">
        <ele>1593</ele>
        <time>2017-01-18T12:05:50.072Z</time>
      </trkpt>
      <trkpt lat="42.98" lon="-0.00194">
        <ele>1593</ele>
        <time>2017-01-18T12:05:51.072Z</time>
      </trkpt>
      <trkpt lat="42.97999" lon="-0.00194">
        <ele>1593</ele>
        <time>2017-01-18T12:05:52.072Z</time>
      </trkpt>
      <trkpt lat="42.97998" lon="-0.00194">
        <ele>1593</ele>
        <time>2017-01-18T12:05:53.072Z</time>
      </trkpt>
      <trkpt lat="42.97997" lon="-0.00194">
        <ele>1593</ele>
        <time>2017-01-18T12:05:54.072Z</time>
      </trkpt>
      <trkpt lat="42.97997" lon="-0.00193">
        <ele>1593</ele>
        <time>2017-01-18T12:05:55.072Z</time>
      </trkpt>
      <trkpt lat="42.97996" lon="-0.00193">
        <ele>1593</ele>
        <time>2017-01-18T12:05:56.072Z</time>
      </trkpt>
      <trkpt lat="42.97995" lon="-0.00193">
        <ele>1593</ele>
        <time>2017-01-18T12:05:57.072Z</time>
      </trkpt>
      <trkpt lat="42.97994" lon="-0.00193">
        <ele>1592</ele>
        <time>2017-01-18T12:05:58.072Z</time>
      </trkpt>
      <trkpt lat="42.97993" lon="-0.00193">
        <ele>1592</ele>
        <time>2017-01-18T12:05:59.072Z</time>
      </trkpt>
      <trkpt lat="42.97992" lon="-0.00193">
        <ele>1592</ele>
        <time>2017-01-18T12:06:00.072Z</time>
      </trkpt>
      <trkpt lat="42.97991" lon="-0.00193">
        <ele>1592</ele>
        <time>2017-01-18T12:06:01.072Z</time>
      </trkpt>
      <trkpt lat="42.9799" lon="-0.00193">
        <ele>1592</ele>
        <time>2017-01-18T12:06:02.072Z</time>
      </trkpt>
      <trkpt lat="42.9799" lon="-0.00193">
        <ele>1591</ele>
        <time>2017-01-18T12:06:03.072Z</time>
      </trkpt>
      <trkpt lat="42.97989" lon="-0.00193">
        <ele>1591</ele>
        <time>2017-01-18T12:06:04.072Z</time>
      </trkpt>
      <trkpt lat="42.97988" lon="-0.00193">
        <ele>1591</ele>
        <time>2017-01-18T12:06:05.072Z</time>
      </trkpt>
      <trkpt lat="42.97987" lon="-0.00193">
        <ele>1591</ele>
        <time>2017-01-18T12:06:06.072Z</time>
      </trkpt>
      <trkpt lat="42.97986" lon="-0.00193">
        <ele>1591</ele>
        <time>2017-01-18T12:06:07.072Z</time>
      </trkpt>
      <trkpt lat="42.97985" lon="-0.00193">
        <ele>1591</ele>
        <time>2017-01-18T12:06:08.072Z</time>
      </trkpt>
      <trkpt lat="42.97984" lon="-0.00193">
        <ele>1591</ele>
        <time>2017-01-18T12:06:09.072Z</time>
      </trkpt>
      <trkpt lat="42.97984" lon="-0.00193">
        <ele>1591</ele>
        <time>2017-01-18T12:06:10.072Z</time>
      </trkpt>
      <trkpt lat="42.97983" lon="-0.00193">
        <ele>1591</ele>
        <time>2017-01-18T12:06:11.072Z</time>
      </trkpt>
      <trkpt lat="42.97982" lon="-0.00193">
        <ele>1591</ele>
        <time>2017-01-18T12:06:12.072Z</time>
      </trkpt>
      <trkpt lat="42.97981" lon="-0.00194">
        <ele>1591</ele>
        <time>2017-01-18T12:06:13.072Z</time>
      </trkpt>
      <trkpt lat="42.9798" lon="-0.00194">
        <ele>1591</ele>
        <time>2017-01-18T12:06:14.072Z</time>
      </trkpt>
      <trkpt lat="42.97979" lon="-0.00194">
        <ele>1590</ele>
        <time>2017-01-18T12:06:15.072Z</time>
      </trkpt>
      <trkpt lat="42.97978" lon="-0.00194">
        <ele>1590</ele>
        <time>2017-01-18T12:06:16.072Z</time>
      </trkpt>
      <trkpt lat="42.97977" lon="-0.00194">
        <ele>1590</ele>
        <time>2017-01-18T12:06:17.072Z</time>
      </trkpt>
      <trkpt lat="42.97976" lon="-0.00194">
        <ele>1590</ele>
        <time>2017-01-18T12:06:18.072Z</time>
      </trkpt>
      <trkpt lat="42.97975" lon="-0.00194">
        <ele>1590</ele>
        <time>2017-01-18T12:06:19.072Z</time>
      </trkpt>
      <trkpt lat="42.97975" lon="-0.00194">
        <ele>1589</ele>
        <time>2017-01-18T12:06:20.072Z</time>
      </trkpt>
      <trkpt lat="42.97974" lon="-0.00194">
        <ele>1589</ele>
        <time>2017-01-18T12:06:21.072Z</time>
      </trkpt>
      <trkpt lat="42.97973" lon="-0.00194">
        <ele>1589</ele>
        <time>2017-01-18T12:06:22.072Z</time>
      </trkpt>
      <trkpt lat="42.97972" lon="-0.00195">
        <ele>1589</ele>
        <time>2017-01-18T12:06:23.072Z</time>
      </trkpt>
      <trkpt lat="42.97971" lon="-0.00195">
        <ele>1589</ele>
        <time>2017-01-18T12:06:24.072Z</time>
      </trkpt>
      <trkpt lat="42.9797" lon="-0.00195">
        <ele>1589</ele>
        <time>2017-01-18T12:06:25.072Z</time>
      </trkpt>
      <trkpt lat="42.97969" lon="-0.00195">
        <ele>1589</ele>
        <time>2017-01-18T12:06:26.072Z</time>
      </trkpt>
      <trkpt lat="42.97969" lon="-0.00196">
        <ele>1589</ele>
        <time>2017-01-18T12:06:27.072Z</time>
      </trkpt>
      <trkpt lat="42.97968" lon="-0.00196">
        <ele>1589</ele>
        <time>2017-01-18T12:06:28.072Z</time>
      </trkpt>
      <trkpt lat="42.97967" lon="-0.00196">
        <ele>1589</ele>
        <time>2017-01-18T12:06:29.072Z</time>
      </trkpt>
      <trkpt lat="42.97967" lon="-0.00196">
        <ele>1589</ele>
        <time>2017-01-18T12:06:30.072Z</time>
      </trkpt>
      <trkpt lat="42.97966" lon="-0.00196">
        <ele>1589</ele>
        <time>2017-01-18T12:06:31.072Z</time>
      </trkpt>
      <trkpt lat="42.97965" lon="-0.00196">
        <ele>1589</ele>
        <time>2017-01-18T12:06:32.072Z</time>
      </trkpt>
      <trkpt lat="42.97964" lon="-0.00197">
        <ele>1589</ele>
        <time>2017-01-18T12:06:33.072Z</time>
      </trkpt>
      <trkpt lat="42.97964" lon="-0.00197">
        <ele>1589</ele>
        <time>2017-01-18T12:06:34.072Z</time>
      </trkpt>
      <trkpt lat="42.97963" lon="-0.00197">
        <ele>1589</ele>
        <time>2017-01-18T12:06:35.072Z</time>
      </trkpt>
      <trkpt lat="42.97962" lon="-0.00197">
        <ele>1590</ele>
        <time>2017-01-18T12:06:36.072Z</time>
      </trkpt>
      <trkpt lat="42.97962" lon="-0.00198">
        <ele>1590</ele>
        <time>2017-01-18T12:06:37.072Z</time>
      </trkpt>
      <trkpt lat="42.97962" lon="-0.00198">
        <ele>1590</ele>
        <time>2017-01-18T12:06:38.072Z</time>
      </trkpt>
      <trkpt lat="42.97962" lon="-0.00198">
        <ele>1591</ele>
        <time>2017-01-18T12:06:39.072Z</time>
      </trkpt>
      <trkpt lat="42.97961" lon="-0.00198">
        <ele>1591</ele>
        <time>2017-01-18T12:06:40.072Z</time>
      </trkpt>
      <trkpt lat="42.97961" lon="-0.00198">
        <ele>1591</ele>
        <time>2017-01-18T12:06:41.072Z</time>
      </trkpt>
      <trkpt lat="42.97961" lon="-0.00198">
        <ele>1591</ele>
        <time>2017-01-18T12:06:42.072Z</time>
      </trkpt>
      <trkpt lat="42.97961" lon="-0.00198">
        <ele>1592</ele>
        <time>2017-01-18T12:06:43.072Z</time>
      </trkpt>
      <trkpt lat="42.97961" lon="-0.00198">
        <ele>1593</ele>
        <time>2017-01-18T12:06:44.072Z</time>
      </trkpt>
      <trkpt lat="42.97959" lon="-0.002">
        <ele>1591</ele>
        <time>2017-01-18T12:06:46.068Z</time>
      </trkpt>
      <trkpt lat="42.97959" lon="-0.002">
        <ele>1590</ele>
        <time>2017-01-18T12:06:47.068Z</time>
      </trkpt>
      <trkpt lat="42.97958" lon="-0.002">
        <ele>1590</ele>
        <time>2017-01-18T12:06:48.068Z</time>
      </trkpt>
      <trkpt lat="42.97957" lon="-0.00201">
        <ele>1590</ele>
        <time>2017-01-18T12:06:49.068Z</time>
      </trkpt>
      <trkpt lat="42.97956" lon="-0.00201">
        <ele>1590</ele>
        <time>2017-01-18T12:06:50.068Z</time>
      </trkpt>
      <trkpt lat="42.97955" lon="-0.00201">
        <ele>1590</ele>
        <time>2017-01-18T12:06:51.068Z</time>
      </trkpt>
      <trkpt lat="42.97955" lon="-0.00201">
        <ele>1589</ele>
        <time>2017-01-18T12:06:52.068Z</time>
      </trkpt>
      <trkpt lat="42.97954" lon="-0.00202">
        <ele>1589</ele>
        <time>2017-01-18T12:06:53.068Z</time>
      </trkpt>
      <trkpt lat="42.97953" lon="-0.00202">
        <ele>1590</ele>
        <time>2017-01-18T12:06:54.068Z</time>
      </trkpt>
      <trkpt lat="42.97952" lon="-0.00202">
        <ele>1590</ele>
        <time>2017-01-18T12:06:55.068Z</time>
      </trkpt>
      <trkpt lat="42.97951" lon="-0.00202">
        <ele>1590</ele>
        <time>2017-01-18T12:06:56.068Z</time>
      </trkpt>
      <trkpt lat="42.9795" lon="-0.00203">
        <ele>1590</ele>
        <time>2017-01-18T12:06:57.068Z</time>
      </trkpt>
      <trkpt lat="42.97949" lon="-0.00203">
        <ele>1590</ele>
        <time>2017-01-18T12:06:58.068Z</time>
      </trkpt>
      <trkpt lat="42.97948" lon="-0.00203">
        <ele>1590</ele>
        <time>2017-01-18T12:06:59.068Z</time>
      </trkpt>
      <trkpt lat="42.97947" lon="-0.00204">
        <ele>1590</ele>
        <time>2017-01-18T12:07:00.068Z</time>
      </trkpt>
      <trkpt lat="42.97947" lon="-0.00204">
        <ele>1590</ele>
        <time>2017-01-18T12:07:01.068Z</time>
      </trkpt>
      <trkpt lat="42.97946" lon="-0.00204">
        <ele>1590</ele>
        <time>2017-01-18T12:07:02.068Z</time>
      </trkpt>
      <trkpt lat="42.97945" lon="-0.00205">
        <ele>1590</ele>
        <time>2017-01-18T12:07:03.068Z</time>
      </trkpt>
      <trkpt lat="42.97944" lon="-0.00205">
        <ele>1590</ele>
        <time>2017-01-18T12:07:04.068Z</time>
      </trkpt>
      <trkpt lat="42.97943" lon="-0.00206">
        <ele>1589</ele>
        <time>2017-01-18T12:07:05.068Z</time>
      </trkpt>
      <trkpt lat="42.97943" lon="-0.00206">
        <ele>1589</ele>
        <time>2017-01-18T12:07:06.068Z</time>
      </trkpt>
      <trkpt lat="42.97942" lon="-0.00207">
        <ele>1589</ele>
        <time>2017-01-18T12:07:07.068Z</time>
      </trkpt>
      <trkpt lat="42.97941" lon="-0.00207">
        <ele>1589</ele>
        <time>2017-01-18T12:07:08.068Z</time>
      </trkpt>
      <trkpt lat="42.97941" lon="-0.00207">
        <ele>1588</ele>
        <time>2017-01-18T12:07:09.068Z</time>
      </trkpt>
      <trkpt lat="42.9794" lon="-0.00208">
        <ele>1588</ele>
        <time>2017-01-18T12:07:10.068Z</time>
      </trkpt>
      <trkpt lat="42.97939" lon="-0.00208">
        <ele>1589</ele>
        <time>2017-01-18T12:07:11.068Z</time>
      </trkpt>
      <trkpt lat="42.97938" lon="-0.00209">
        <ele>1589</ele>
        <time>2017-01-18T12:07:12.068Z</time>
      </trkpt>
      <trkpt lat="42.97937" lon="-0.00209">
        <ele>1588</ele>
        <time>2017-01-18T12:07:13.068Z</time>
      </trkpt>
      <trkpt lat="42.97936" lon="-0.00209">
        <ele>1588</ele>
        <time>2017-01-18T12:07:14.068Z</time>
      </trkpt>
      <trkpt lat="42.97936" lon="-0.0021">
        <ele>1588</ele>
        <time>2017-01-18T12:07:15.068Z</time>
      </trkpt>
      <trkpt lat="42.97935" lon="-0.0021">
        <ele>1588</ele>
        <time>2017-01-18T12:07:16.068Z</time>
      </trkpt>
      <trkpt lat="42.97934" lon="-0.0021">
        <ele>1588</ele>
        <time>2017-01-18T12:07:17.068Z</time>
      </trkpt>
      <trkpt lat="42.97933" lon="-0.00211">
        <ele>1588</ele>
        <time>2017-01-18T12:07:18.068Z</time>
      </trkpt>
      <trkpt lat="42.97933" lon="-0.00211">
        <ele>1588</ele>
        <time>2017-01-18T12:07:19.068Z</time>
      </trkpt>
      <trkpt lat="42.97932" lon="-0.00211">
        <ele>1587</ele>
        <time>2017-01-18T12:07:20.068Z</time>
      </trkpt>
      <trkpt lat="42.97931" lon="-0.00212">
        <ele>1588</ele>
        <time>2017-01-18T12:07:21.068Z</time>
      </trkpt>
      <trkpt lat="42.97931" lon="-0.00212">
        <ele>1587</ele>
        <time>2017-01-18T12:07:22.068Z</time>
      </trkpt>
      <trkpt lat="42.9793" lon="-0.00212">
        <ele>1588</ele>
        <time>2017-01-18T12:07:23.068Z</time>
      </trkpt>
      <trkpt lat="42.9793" lon="-0.00212">
        <ele>1587</ele>
        <time>2017-01-18T12:07:24.068Z</time>
      </trkpt>
      <trkpt lat="42.97929" lon="-0.00213">
        <ele>1587</ele>
        <time>2017-01-18T12:07:25.068Z</time>
      </trkpt>
      <trkpt lat="42.97928" lon="-0.00213">
        <ele>1587</ele>
        <time>2017-01-18T12:07:26.068Z</time>
      </trkpt>
      <trkpt lat="42.97928" lon="-0.00214">
        <ele>1587</ele>
        <time>2017-01-18T12:07:27.068Z</time>
      </trkpt>
      <trkpt lat="42.97927" lon="-0.00214">
        <ele>1586</ele>
        <time>2017-01-18T12:07:28.068Z</time>
      </trkpt>
      <trkpt lat="42.97926" lon="-0.00214">
        <ele>1586</ele>
        <time>2017-01-18T12:07:29.068Z</time>
      </trkpt>
      <trkpt lat="42.97925" lon="-0.00215">
        <ele>1586</ele>
        <time>2017-01-18T12:07:30.068Z</time>
      </trkpt>
      <trkpt lat="42.97925" lon="-0.00215">
        <ele>1586</ele>
        <time>2017-01-18T12:07:31.068Z</time>
      </trkpt>
      <trkpt lat="42.97924" lon="-0.00216">
        <ele>1586</ele>
        <time>2017-01-18T12:07:32.068Z</time>
      </trkpt>
      <trkpt lat="42.97923" lon="-0.00216">
        <ele>1586</ele>
        <time>2017-01-18T12:07:33.068Z</time>
      </trkpt>
      <trkpt lat="42.97922" lon="-0.00217">
        <ele>1586</ele>
        <time>2017-01-18T12:07:34.068Z</time>
      </trkpt>
      <trkpt lat="42.97921" lon="-0.00217">
        <ele>1586</ele>
        <time>2017-01-18T12:07:35.068Z</time>
      </trkpt>
      <trkpt lat="42.9792" lon="-0.00218">
        <ele>1586</ele>
        <time>2017-01-18T12:07:36.068Z</time>
      </trkpt>
      <trkpt lat="42.9792" lon="-0.00218">
        <ele>1586</ele>
        <time>2017-01-18T12:07:37.068Z</time>
      </trkpt>
      <trkpt lat="42.97919" lon="-0.00219">
        <ele>1586</ele>
        <time>2017-01-18T12:07:38.068Z</time>
      </trkpt>
      <trkpt lat="42.97918" lon="-0.00219">
        <ele>1586</ele>
        <time>2017-01-18T12:07:39.068Z</time>
      </trkpt>
      <trkpt lat="42.97917" lon="-0.0022">
        <ele>1586</ele>
        <time>2017-01-18T12:07:40.068Z</time>
      </trkpt>
      <trkpt lat="42.97916" lon="-0.0022">
        <ele>1586</ele>
        <time>2017-01-18T12:07:41.068Z</time>
      </trkpt>
      <trkpt lat="42.97915" lon="-0.00221">
        <ele>1586</ele>
        <time>2017-01-18T12:07:42.068Z</time>
      </trkpt>
      <trkpt lat="42.97914" lon="-0.00221">
        <ele>1586</ele>
        <time>2017-01-18T12:07:43.068Z</time>
      </trkpt>
      <trkpt lat="42.97913" lon="-0.00221">
        <ele>1586</ele>
        <time>2017-01-18T12:07:44.068Z</time>
      </trkpt>
      <trkpt lat="42.97912" lon="-0.00222">
        <ele>1586</ele>
        <time>2017-01-18T12:07:45.068Z</time>
      </trkpt>
      <trkpt lat="42.97912" lon="-0.00222">
        <ele>1586</ele>
        <time>2017-01-18T12:07:46.068Z</time>
      </trkpt>
      <trkpt lat="42.97911" lon="-0.00222">
        <ele>1585</ele>
        <time>2017-01-18T12:07:47.068Z</time>
      </trkpt>
      <trkpt lat="42.97911" lon="-0.00223">
        <ele>1585</ele>
        <time>2017-01-18T12:07:48.068Z</time>
      </trkpt>
      <trkpt lat="42.9791" lon="-0.00223">
        <ele>1585</ele>
        <time>2017-01-18T12:07:49.068Z</time>
      </trkpt>
      <trkpt lat="42.97909" lon="-0.00224">
        <ele>1585</ele>
        <time>2017-01-18T12:07:50.068Z</time>
      </trkpt>
      <trkpt lat="42.97909" lon="-0.00224">
        <ele>1585</ele>
        <time>2017-01-18T12:07:51.068Z</time>
      </trkpt>
      <trkpt lat="42.97908" lon="-0.00224">
        <ele>1585</ele>
        <time>2017-01-18T12:07:52.068Z</time>
      </trkpt>
      <trkpt lat="42.97907" lon="-0.00225">
        <ele>1585</ele>
        <time>2017-01-18T12:07:53.068Z</time>
      </trkpt>
      <trkpt lat="42.97906" lon="-0.00225">
        <ele>1585</ele>
        <time>2017-01-18T12:07:54.068Z</time>
      </trkpt>
      <trkpt lat="42.97906" lon="-0.00226">
        <ele>1585</ele>
        <time>2017-01-18T12:07:55.068Z</time>
      </trkpt>
      <trkpt lat="42.97905" lon="-0.00226">
        <ele>1585</ele>
        <time>2017-01-18T12:07:56.068Z</time>
      </trkpt>
      <trkpt lat="42.97904" lon="-0.00227">
        <ele>1585</ele>
        <time>2017-01-18T12:07:57.068Z</time>
      </trkpt>
      <trkpt lat="42.97903" lon="-0.00228">
        <ele>1585</ele>
        <time>2017-01-18T12:07:58.068Z</time>
      </trkpt>
      <trkpt lat="42.97903" lon="-0.00228">
        <ele>1585</ele>
        <time>2017-01-18T12:07:59.068Z</time>
      </trkpt>
      <trkpt lat="42.97902" lon="-0.00229">
        <ele>1585</ele>
        <time>2017-01-18T12:08:00.068Z</time>
      </trkpt>
      <trkpt lat="42.97901" lon="-0.0023">
        <ele>1584</ele>
        <time>2017-01-18T12:08:01.068Z</time>
      </trkpt>
      <trkpt lat="42.97901" lon="-0.0023">
        <ele>1584</ele>
        <time>2017-01-18T12:08:02.068Z</time>
      </trkpt>
      <trkpt lat="42.979" lon="-0.00231">
        <ele>1584</ele>
        <time>2017-01-18T12:08:03.068Z</time>
      </trkpt>
      <trkpt lat="42.97899" lon="-0.00232">
        <ele>1584</ele>
        <time>2017-01-18T12:08:04.068Z</time>
      </trkpt>
      <trkpt lat="42.97899" lon="-0.00232">
        <ele>1584</ele>
        <time>2017-01-18T12:08:05.068Z</time>
      </trkpt>
      <trkpt lat="42.97898" lon="-0.00233">
        <ele>1584</ele>
        <time>2017-01-18T12:08:06.068Z</time>
      </trkpt>
      <trkpt lat="42.97897" lon="-0.00234">
        <ele>1584</ele>
        <time>2017-01-18T12:08:07.068Z</time>
      </trkpt>
      <trkpt lat="42.97896" lon="-0.00234">
        <ele>1584</ele>
        <time>2017-01-18T12:08:08.068Z</time>
      </trkpt>
      <trkpt lat="42.97896" lon="-0.00235">
        <ele>1584</ele>
        <time>2017-01-18T12:08:09.068Z</time>
      </trkpt>
      <trkpt lat="42.97895" lon="-0.00236">
        <ele>1584</ele>
        <time>2017-01-18T12:08:10.068Z</time>
      </trkpt>
      <trkpt lat="42.97894" lon="-0.00236">
        <ele>1584</ele>
        <time>2017-01-18T12:08:11.068Z</time>
      </trkpt>
      <trkpt lat="42.97894" lon="-0.00237">
        <ele>1584</ele>
        <time>2017-01-18T12:08:12.068Z</time>
      </trkpt>
      <trkpt lat="42.97893" lon="-0.00238">
        <ele>1584</ele>
        <time>2017-01-18T12:08:13.068Z</time>
      </trkpt>
      <trkpt lat="42.97892" lon="-0.00238">
        <ele>1584</ele>
        <time>2017-01-18T12:08:14.068Z</time>
      </trkpt>
      <trkpt lat="42.97891" lon="-0.00239">
        <ele>1584</ele>
        <time>2017-01-18T12:08:15.068Z</time>
      </trkpt>
      <trkpt lat="42.97891" lon="-0.0024">
        <ele>1584</ele>
        <time>2017-01-18T12:08:16.068Z</time>
      </trkpt>
      <trkpt lat="42.9789" lon="-0.00241">
        <ele>1584</ele>
        <time>2017-01-18T12:08:17.068Z</time>
      </trkpt>
      <trkpt lat="42.97889" lon="-0.00241">
        <ele>1584</ele>
        <time>2017-01-18T12:08:18.068Z</time>
      </trkpt>
      <trkpt lat="42.97889" lon="-0.00242">
        <ele>1584</ele>
        <time>2017-01-18T12:08:19.068Z</time>
      </trkpt>
      <trkpt lat="42.97888" lon="-0.00243">
        <ele>1584</ele>
        <time>2017-01-18T12:08:20.068Z</time>
      </trkpt>
      <trkpt lat="42.97887" lon="-0.00244">
        <ele>1583</ele>
        <time>2017-01-18T12:08:21.068Z</time>
      </trkpt>
      <trkpt lat="42.97887" lon="-0.00245">
        <ele>1584</ele>
        <time>2017-01-18T12:08:22.068Z</time>
      </trkpt>
      <trkpt lat="42.97886" lon="-0.00245">
        <ele>1584</ele>
        <time>2017-01-18T12:08:23.068Z</time>
      </trkpt>
      <trkpt lat="42.97885" lon="-0.00246">
        <ele>1583</ele>
        <time>2017-01-18T12:08:24.068Z</time>
      </trkpt>
      <trkpt lat="42.97885" lon="-0.00247">
        <ele>1583</ele>
        <time>2017-01-18T12:08:25.068Z</time>
      </trkpt>
      <trkpt lat="42.97884" lon="-0.00248">
        <ele>1584</ele>
        <time>2017-01-18T12:08:26.068Z</time>
      </trkpt>
      <trkpt lat="42.97883" lon="-0.00249">
        <ele>1583</ele>
        <time>2017-01-18T12:08:27.068Z</time>
      </trkpt>
      <trkpt lat="42.97883" lon="-0.0025">
        <ele>1584</ele>
        <time>2017-01-18T12:08:28.068Z</time>
      </trkpt>
      <trkpt lat="42.97882" lon="-0.0025">
        <ele>1584</ele>
        <time>2017-01-18T12:08:29.068Z</time>
      </trkpt>
      <trkpt lat="42.97881" lon="-0.00251">
        <ele>1583</ele>
        <time>2017-01-18T12:08:30.068Z</time>
      </trkpt>
      <trkpt lat="42.97881" lon="-0.00252">
        <ele>1583</ele>
        <time>2017-01-18T12:08:31.068Z</time>
      </trkpt>
      <trkpt lat="42.9788" lon="-0.00253">
        <ele>1583</ele>
        <time>2017-01-18T12:08:32.068Z</time>
      </trkpt>
      <trkpt lat="42.97879" lon="-0.00254">
        <ele>1583</ele>
        <time>2017-01-18T12:08:33.068Z</time>
      </trkpt>
      <trkpt lat="42.97879" lon="-0.00255">
        <ele>1583</ele>
        <time>2017-01-18T12:08:34.068Z</time>
      </trkpt>
      <trkpt lat="42.97878" lon="-0.00256">
        <ele>1583</ele>
        <time>2017-01-18T12:08:35.068Z</time>
      </trkpt>
      <trkpt lat="42.97878" lon="-0.00257">
        <ele>1583</ele>
        <time>2017-01-18T12:08:36.068Z</time>
      </trkpt>
      <trkpt lat="42.97877" lon="-0.00257">
        <ele>1583</ele>
        <time>2017-01-18T12:08:37.068Z</time>
      </trkpt>
      <trkpt lat="42.97877" lon="-0.00258">
        <ele>1583</ele>
        <time>2017-01-18T12:08:38.068Z</time>
      </trkpt>
      <trkpt lat="42.97876" lon="-0.00259">
        <ele>1583</ele>
        <time>2017-01-18T12:08:39.068Z</time>
      </trkpt>
      <trkpt lat="42.97876" lon="-0.0026">
        <ele>1584</ele>
        <time>2017-01-18T12:08:40.068Z</time>
      </trkpt>
      <trkpt lat="42.97875" lon="-0.00261">
        <ele>1583</ele>
        <time>2017-01-18T12:08:41.068Z</time>
      </trkpt>
      <trkpt lat="42.97874" lon="-0.00262">
        <ele>1583</ele>
        <time>2017-01-18T12:08:42.068Z</time>
      </trkpt>
      <trkpt lat="42.97874" lon="-0.00263">
        <ele>1584</ele>
        <time>2017-01-18T12:08:43.068Z</time>
      </trkpt>
      <trkpt lat="42.97873" lon="-0.00264">
        <ele>1583</ele>
        <time>2017-01-18T12:08:44.068Z</time>
      </trkpt>
      <trkpt lat="42.97873" lon="-0.00265">
        <ele>1584</ele>
        <time>2017-01-18T12:08:45.068Z</time>
      </trkpt>
      <trkpt lat="42.97873" lon="-0.00266">
        <ele>1584</ele>
        <time>2017-01-18T12:08:46.068Z</time>
      </trkpt>
      <trkpt lat="42.97872" lon="-0.00267">
        <ele>1584</ele>
        <time>2017-01-18T12:08:47.068Z</time>
      </trkpt>
      <trkpt lat="42.97872" lon="-0.00268">
        <ele>1583</ele>
        <time>2017-01-18T12:08:48.068Z</time>
      </trkpt>
      <trkpt lat="42.97871" lon="-0.00269">
        <ele>1583</ele>
        <time>2017-01-18T12:08:49.068Z</time>
      </trkpt>
      <trkpt lat="42.97871" lon="-0.0027">
        <ele>1583</ele>
        <time>2017-01-18T12:08:50.068Z</time>
      </trkpt>
      <trkpt lat="42.9787" lon="-0.0027">
        <ele>1583</ele>
        <time>2017-01-18T12:08:51.068Z</time>
      </trkpt>
      <trkpt lat="42.9787" lon="-0.00271">
        <ele>1583</ele>
        <time>2017-01-18T12:08:52.068Z</time>
      </trkpt>
      <trkpt lat="42.9787" lon="-0.00271">
        <ele>1583</ele>
        <time>2017-01-18T12:08:53.068Z</time>
      </trkpt>
      <trkpt lat="42.9787" lon="-0.0027">
        <ele>1583</ele>
        <time>2017-01-18T12:08:54.068Z</time>
      </trkpt>
      <trkpt lat="42.9787" lon="-0.0027">
        <ele>1583</ele>
        <time>2017-01-18T12:08:55.068Z</time>
      </trkpt>
      <trkpt lat="42.9787" lon="-0.0027">
        <ele>1583</ele>
        <time>2017-01-18T12:08:56.068Z</time>
      </trkpt>
      <trkpt lat="42.9787" lon="-0.00271">
        <ele>1583</ele>
        <time>2017-01-18T12:08:57.068Z</time>
      </trkpt>
      <trkpt lat="42.97868" lon="-0.00271">
        <ele>1583</ele>
        <time>2017-01-18T12:08:58.076Z</time>
      </trkpt>
      <trkpt lat="42.97868" lon="-0.00271">
        <ele>1583</ele>
        <time>2017-01-18T12:08:59.076Z</time>
      </trkpt>
      <trkpt lat="42.97868" lon="-0.00271">
        <ele>1583</ele>
        <time>2017-01-18T12:09:00.076Z</time>
      </trkpt>
      <trkpt lat="42.97868" lon="-0.00272">
        <ele>1583</ele>
        <time>2017-01-18T12:09:01.076Z</time>
      </trkpt>
      <trkpt lat="42.97868" lon="-0.00272">
        <ele>1583</ele>
        <time>2017-01-18T12:09:02.076Z</time>
      </trkpt>
      <trkpt lat="42.97868" lon="-0.00272">
        <ele>1583</ele>
        <time>2017-01-18T12:09:03.076Z</time>
      </trkpt>
      <trkpt lat="42.97867" lon="-0.00272">
        <ele>1584</ele>
        <time>2017-01-18T12:09:04.076Z</time>
      </trkpt>
      <trkpt lat="42.97867" lon="-0.00272">
        <ele>1584</ele>
        <time>2017-01-18T12:09:05.076Z</time>
      </trkpt>
      <trkpt lat="42.97867" lon="-0.00272">
        <ele>1584</ele>
        <time>2017-01-18T12:09:06.076Z</time>
      </trkpt>
      <trkpt lat="42.97865" lon="-0.00274">
        <ele>1583</ele>
        <time>2017-01-18T12:09:07.084Z</time>
      </trkpt>
      <trkpt lat="42.97866" lon="-0.00274">
        <ele>1583</ele>
        <time>2017-01-18T12:09:08.084Z</time>
      </trkpt>
      <trkpt lat="42.97866" lon="-0.00274">
        <ele>1583</ele>
        <time>2017-01-18T12:09:09.084Z</time>
      </trkpt>
      <trkpt lat="42.97866" lon="-0.00274">
        <ele>1583</ele>
        <time>2017-01-18T12:09:10.084Z</time>
      </trkpt>
      <trkpt lat="42.97866" lon="-0.00274">
        <ele>1583</ele>
        <time>2017-01-18T12:09:11.084Z</time>
      </trkpt>
      <trkpt lat="42.97866" lon="-0.00274">
        <ele>1583</ele>
        <time>2017-01-18T12:09:12.084Z</time>
      </trkpt>
      <trkpt lat="42.97866" lon="-0.00276">
        <ele>1584</ele>
        <time>2017-01-18T12:09:13.092Z</time>
      </trkpt>
      <trkpt lat="42.97866" lon="-0.00277">
        <ele>1584</ele>
        <time>2017-01-18T12:09:14.092Z</time>
      </trkpt>
      <trkpt lat="42.97866" lon="-0.00277">
        <ele>1584</ele>
        <time>2017-01-18T12:09:15.092Z</time>
      </trkpt>
      <trkpt lat="42.97866" lon="-0.00277">
        <ele>1584</ele>
        <time>2017-01-18T12:09:16.092Z</time>
      </trkpt>
      <trkpt lat="42.97866" lon="-0.00277">
        <ele>1584</ele>
        <time>2017-01-18T12:09:17.092Z</time>
      </trkpt>
      <trkpt lat="42.97866" lon="-0.00277">
        <ele>1584</ele>
        <time>2017-01-18T12:09:18.092Z</time>
      </trkpt>
      <trkpt lat="42.97866" lon="-0.00277">
        <ele>1584</ele>
        <time>2017-01-18T12:09:19.092Z</time>
      </trkpt>
      <trkpt lat="42.97866" lon="-0.00277">
        <ele>1584</ele>
        <time>2017-01-18T12:09:20.092Z</time>
      </trkpt>
      <trkpt lat="42.97866" lon="-0.00277">
        <ele>1584</ele>
        <time>2017-01-18T12:09:21.092Z</time>
      </trkpt>
      <trkpt lat="42.97867" lon="-0.00273">
        <ele>1584</ele>
        <time>2017-01-18T12:09:22.100Z</time>
      </trkpt>
      <trkpt lat="42.97867" lon="-0.00273">
        <ele>1584</ele>
        <time>2017-01-18T12:09:23.100Z</time>
      </trkpt>
      <trkpt lat="42.97867" lon="-0.00273">
        <ele>1584</ele>
        <time>2017-01-18T12:09:24.100Z</time>
      </trkpt>
      <trkpt lat="42.97867" lon="-0.00273">
        <ele>1583</ele>
        <time>2017-01-18T12:09:25.100Z</time>
      </trkpt>
      <trkpt lat="42.97867" lon="-0.00273">
        <ele>1583</ele>
        <time>2017-01-18T12:09:26.100Z</time>
      </trkpt>
      <trkpt lat="42.97867" lon="-0.00273">
        <ele>1583</ele>
        <time>2017-01-18T12:09:27.100Z</time>
      </trkpt>
      <trkpt lat="42.97868" lon="-0.00273">
        <ele>1583</ele>
        <time>2017-01-18T12:09:28.100Z</time>
      </trkpt>
      <trkpt lat="42.97866" lon="-0.00277">
        <ele>1582</ele>
        <time>2017-01-18T12:09:30.100Z</time>
      </trkpt>
      <trkpt lat="42.97866" lon="-0.00278">
        <ele>1582</ele>
        <time>2017-01-18T12:09:31.100Z</time>
      </trkpt>
      <trkpt lat="42.97866" lon="-0.0028">
        <ele>1582</ele>
        <time>2017-01-18T12:09:32.100Z</time>
      </trkpt>
      <trkpt lat="42.97866" lon="-0.00281">
        <ele>1582</ele>
        <time>2017-01-18T12:09:33.100Z</time>
      </trkpt>
      <trkpt lat="42.97866" lon="-0.00281">
        <ele>1582</ele>
        <time>2017-01-18T12:09:34.100Z</time>
      </trkpt>
      <trkpt lat="42.97865" lon="-0.00283">
        <ele>1582</ele>
        <time>2017-01-18T12:09:35.100Z</time>
      </trkpt>
      <trkpt lat="42.97865" lon="-0.00284">
        <ele>1582</ele>
        <time>2017-01-18T12:09:36.100Z</time>
      </trkpt>
      <trkpt lat="42.97864" lon="-0.00285">
        <ele>1582</ele>
        <time>2017-01-18T12:09:37.100Z</time>
      </trkpt>
      <trkpt lat="42.97864" lon="-0.00285">
        <ele>1582</ele>
        <time>2017-01-18T12:09:38.100Z</time>
      </trkpt>
      <trkpt lat="42.97864" lon="-0.00288">
        <ele>1582</ele>
        <time>2017-01-18T12:09:39.100Z</time>
      </trkpt>
      <trkpt lat="42.97864" lon="-0.00288">
        <ele>1582</ele>
        <time>2017-01-18T12:09:40.100Z</time>
      </trkpt>
      <trkpt lat="42.97863" lon="-0.0029">
        <ele>1582</ele>
        <time>2017-01-18T12:09:41.100Z</time>
      </trkpt>
      <trkpt lat="42.97863" lon="-0.00291">
        <ele>1582</ele>
        <time>2017-01-18T12:09:42.100Z</time>
      </trkpt>
      <trkpt lat="42.97862" lon="-0.00292">
        <ele>1582</ele>
        <time>2017-01-18T12:09:43.100Z</time>
      </trkpt>
      <trkpt lat="42.97862" lon="-0.00293">
        <ele>1582</ele>
        <time>2017-01-18T12:09:44.100Z</time>
      </trkpt>
      <trkpt lat="42.97862" lon="-0.00294">
        <ele>1582</ele>
        <time>2017-01-18T12:09:45.100Z</time>
      </trkpt>
      <trkpt lat="42.97861" lon="-0.00296">
        <ele>1582</ele>
        <time>2017-01-18T12:09:46.100Z</time>
      </trkpt>
      <trkpt lat="42.97861" lon="-0.00296">
        <ele>1582</ele>
        <time>2017-01-18T12:09:47.100Z</time>
      </trkpt>
      <trkpt lat="42.9786" lon="-0.00298">
        <ele>1582</ele>
        <time>2017-01-18T12:09:48.100Z</time>
      </trkpt>
      <trkpt lat="42.9786" lon="-0.00299">
        <ele>1582</ele>
        <time>2017-01-18T12:09:49.100Z</time>
      </trkpt>
      <trkpt lat="42.97859" lon="-0.003">
        <ele>1582</ele>
        <time>2017-01-18T12:09:50.100Z</time>
      </trkpt>
      <trkpt lat="42.97859" lon="-0.00301">
        <ele>1582</ele>
        <time>2017-01-18T12:09:51.100Z</time>
      </trkpt>
      <trkpt lat="42.97858" lon="-0.00302">
        <ele>1582</ele>
        <time>2017-01-18T12:09:52.100Z</time>
      </trkpt>
      <trkpt lat="42.97858" lon="-0.00303">
        <ele>1582</ele>
        <time>2017-01-18T12:09:53.100Z</time>
      </trkpt>
      <trkpt lat="42.97857" lon="-0.00304">
        <ele>1582</ele>
        <time>2017-01-18T12:09:54.100Z</time>
      </trkpt>
      <trkpt lat="42.97857" lon="-0.00305">
        <ele>1581</ele>
        <time>2017-01-18T12:09:55.100Z</time>
      </trkpt>
      <trkpt lat="42.97856" lon="-0.00306">
        <ele>1581</ele>
        <time>2017-01-18T12:09:56.100Z</time>
      </trkpt>
      <trkpt lat="42.97856" lon="-0.00308">
        <ele>1581</ele>
        <time>2017-01-18T12:09:57.100Z</time>
      </trkpt>
      <trkpt lat="42.97855" lon="-0.00309">
        <ele>1581</ele>
        <time>2017-01-18T12:09:58.100Z</time>
      </trkpt>
      <trkpt lat="42.97855" lon="-0.0031">
        <ele>1581</ele>
        <time>2017-01-18T12:09:59.100Z</time>
      </trkpt>
      <trkpt lat="42.97855" lon="-0.00311">
        <ele>1581</ele>
        <time>2017-01-18T12:10:00.100Z</time>
      </trkpt>
      <trkpt lat="42.97855" lon="-0.00311">
        <ele>1581</ele>
        <time>2017-01-18T12:10:01.100Z</time>
      </trkpt>
      <trkpt lat="42.97853" lon="-0.00313">
        <ele>1581</ele>
        <time>2017-01-18T12:10:02.100Z</time>
      </trkpt>
      <trkpt lat="42.97853" lon="-0.00314">
        <ele>1581</ele>
        <time>2017-01-18T12:10:03.100Z</time>
      </trkpt>
      <trkpt lat="42.97852" lon="-0.00315">
        <ele>1581</ele>
        <time>2017-01-18T12:10:04.100Z</time>
      </trkpt>
      <trkpt lat="42.97851" lon="-0.00316">
        <ele>1581</ele>
        <time>2017-01-18T12:10:05.100Z</time>
      </trkpt>
      <trkpt lat="42.97851" lon="-0.00317">
        <ele>1581</ele>
        <time>2017-01-18T12:10:06.100Z</time>
      </trkpt>
      <trkpt lat="42.9785" lon="-0.00318">
        <ele>1580</ele>
        <time>2017-01-18T12:10:07.100Z</time>
      </trkpt>
      <trkpt lat="42.97849" lon="-0.00319">
        <ele>1580</ele>
        <time>2017-01-18T12:10:08.100Z</time>
      </trkpt>
      <trkpt lat="42.97849" lon="-0.0032">
        <ele>1580</ele>
        <time>2017-01-18T12:10:09.100Z</time>
      </trkpt>
      <trkpt lat="42.97848" lon="-0.00321">
        <ele>1580</ele>
        <time>2017-01-18T12:10:10.100Z</time>
      </trkpt>
      <trkpt lat="42.97847" lon="-0.00322">
        <ele>1580</ele>
        <time>2017-01-18T12:10:11.100Z</time>
      </trkpt>
      <trkpt lat="42.97847" lon="-0.00323">
        <ele>1580</ele>
        <time>2017-01-18T12:10:12.100Z</time>
      </trkpt>
      <trkpt lat="42.97846" lon="-0.00324">
        <ele>1580</ele>
        <time>2017-01-18T12:10:13.100Z</time>
      </trkpt>
      <trkpt lat="42.97845" lon="-0.00325">
        <ele>1580</ele>
        <time>2017-01-18T12:10:14.100Z</time>
      </trkpt>
      <trkpt lat="42.97845" lon="-0.00326">
        <ele>1580</ele>
        <time>2017-01-18T12:10:15.100Z</time>
      </trkpt>
      <trkpt lat="42.97844" lon="-0.00327">
        <ele>1580</ele>
        <time>2017-01-18T12:10:16.100Z</time>
      </trkpt>
      <trkpt lat="42.97844" lon="-0.00328">
        <ele>1580</ele>
        <time>2017-01-18T12:10:17.100Z</time>
      </trkpt>
      <trkpt lat="42.97843" lon="-0.00329">
        <ele>1580</ele>
        <time>2017-01-18T12:10:18.100Z</time>
      </trkpt>
      <trkpt lat="42.97842" lon="-0.0033">
        <ele>1580</ele>
        <time>2017-01-18T12:10:19.100Z</time>
      </trkpt>
      <trkpt lat="42.97842" lon="-0.00331">
        <ele>1579</ele>
        <time>2017-01-18T12:10:20.100Z</time>
      </trkpt>
      <trkpt lat="42.97841" lon="-0.00332">
        <ele>1579</ele>
        <time>2017-01-18T12:10:21.100Z</time>
      </trkpt>
      <trkpt lat="42.9784" lon="-0.00333">
        <ele>1579</ele>
        <time>2017-01-18T12:10:22.100Z</time>
      </trkpt>
      <trkpt lat="42.9784" lon="-0.00334">
        <ele>1579</ele>
        <time>2017-01-18T12:10:23.100Z</time>
      </trkpt>
      <trkpt lat="42.97839" lon="-0.00335">
        <ele>1579</ele>
        <time>2017-01-18T12:10:24.100Z</time>
      </trkpt>
      <trkpt lat="42.97838" lon="-0.00335">
        <ele>1579</ele>
        <time>2017-01-18T12:10:25.100Z</time>
      </trkpt>
      <trkpt lat="42.97838" lon="-0.00336">
        <ele>1579</ele>
        <time>2017-01-18T12:10:26.100Z</time>
      </trkpt>
      <trkpt lat="42.97837" lon="-0.00337">
        <ele>1579</ele>
        <time>2017-01-18T12:10:27.100Z</time>
      </trkpt>
      <trkpt lat="42.97836" lon="-0.00338">
        <ele>1579</ele>
        <time>2017-01-18T12:10:28.100Z</time>
      </trkpt>
      <trkpt lat="42.97836" lon="-0.00339">
        <ele>1579</ele>
        <time>2017-01-18T12:10:29.100Z</time>
      </trkpt>
      <trkpt lat="42.97835" lon="-0.00339">
        <ele>1578</ele>
        <time>2017-01-18T12:10:30.100Z</time>
      </trkpt>
      <trkpt lat="42.97834" lon="-0.0034">
        <ele>1578</ele>
        <time>2017-01-18T12:10:31.100Z</time>
      </trkpt>
      <trkpt lat="42.97834" lon="-0.00341">
        <ele>1578</ele>
        <time>2017-01-18T12:10:32.100Z</time>
      </trkpt>
      <trkpt lat="42.97833" lon="-0.00342">
        <ele>1578</ele>
        <time>2017-01-18T12:10:33.100Z</time>
      </trkpt>
      <trkpt lat="42.97832" lon="-0.00342">
        <ele>1578</ele>
        <time>2017-01-18T12:10:34.100Z</time>
      </trkpt>
      <trkpt lat="42.97832" lon="-0.00343">
        <ele>1578</ele>
        <time>2017-01-18T12:10:35.100Z</time>
      </trkpt>
      <trkpt lat="42.97831" lon="-0.00344">
        <ele>1578</ele>
        <time>2017-01-18T12:10:36.100Z</time>
      </trkpt>
      <trkpt lat="42.9783" lon="-0.00345">
        <ele>1578</ele>
        <time>2017-01-18T12:10:37.100Z</time>
      </trkpt>
      <trkpt lat="42.9783" lon="-0.00346">
        <ele>1578</ele>
        <time>2017-01-18T12:10:38.100Z</time>
      </trkpt>
      <trkpt lat="42.97829" lon="-0.00347">
        <ele>1578</ele>
        <time>2017-01-18T12:10:39.100Z</time>
      </trkpt>
      <trkpt lat="42.97829" lon="-0.00348">
        <ele>1578</ele>
        <time>2017-01-18T12:10:40.100Z</time>
      </trkpt>
      <trkpt lat="42.97828" lon="-0.00349">
        <ele>1578</ele>
        <time>2017-01-18T12:10:41.100Z</time>
      </trkpt>
      <trkpt lat="42.97828" lon="-0.0035">
        <ele>1577</ele>
        <time>2017-01-18T12:10:42.100Z</time>
      </trkpt>
      <trkpt lat="42.97827" lon="-0.00351">
        <ele>1577</ele>
        <time>2017-01-18T12:10:43.100Z</time>
      </trkpt>
      <trkpt lat="42.97827" lon="-0.00352">
        <ele>1578</ele>
        <time>2017-01-18T12:10:44.100Z</time>
      </trkpt>
      <trkpt lat="42.97826" lon="-0.00353">
        <ele>1578</ele>
        <time>2017-01-18T12:10:45.100Z</time>
      </trkpt>
      <trkpt lat="42.97826" lon="-0.00354">
        <ele>1577</ele>
        <time>2017-01-18T12:10:46.100Z</time>
      </trkpt>
      <trkpt lat="42.97825" lon="-0.00355">
        <ele>1577</ele>
        <time>2017-01-18T12:10:47.100Z</time>
      </trkpt>
      <trkpt lat="42.97824" lon="-0.00356">
        <ele>1577</ele>
        <time>2017-01-18T12:10:48.100Z</time>
      </trkpt>
      <trkpt lat="42.97824" lon="-0.00357">
        <ele>1578</ele>
        <time>2017-01-18T12:10:49.100Z</time>
      </trkpt>
      <trkpt lat="42.97823" lon="-0.00357">
        <ele>1577</ele>
        <time>2017-01-18T12:10:50.100Z</time>
      </trkpt>
      <trkpt lat="42.97822" lon="-0.00358">
        <ele>1577</ele>
        <time>2017-01-18T12:10:51.100Z</time>
      </trkpt>
      <trkpt lat="42.97822" lon="-0.00359">
        <ele>1577</ele>
        <time>2017-01-18T12:10:52.100Z</time>
      </trkpt>
      <trkpt lat="42.97821" lon="-0.0036">
        <ele>1577</ele>
        <time>2017-01-18T12:10:53.100Z</time>
      </trkpt>
      <trkpt lat="42.97821" lon="-0.00361">
        <ele>1577</ele>
        <time>2017-01-18T12:10:54.100Z</time>
      </trkpt>
      <trkpt lat="42.9782" lon="-0.00362">
        <ele>1577</ele>
        <time>2017-01-18T12:10:55.100Z</time>
      </trkpt>
      <trkpt lat="42.9782" lon="-0.00364">
        <ele>1577</ele>
        <time>2017-01-18T12:10:56.100Z</time>
      </trkpt>
      <trkpt lat="42.97819" lon="-0.00365">
        <ele>1577</ele>
        <time>2017-01-18T12:10:57.100Z</time>
      </trkpt>
      <trkpt lat="42.97818" lon="-0.00366">
        <ele>1577</ele>
        <time>2017-01-18T12:10:58.100Z</time>
      </trkpt>
      <trkpt lat="42.97818" lon="-0.00367">
        <ele>1577</ele>
        <time>2017-01-18T12:10:59.100Z</time>
      </trkpt>
      <trkpt lat="42.97817" lon="-0.00368">
        <ele>1577</ele>
        <time>2017-01-18T12:11:00.100Z</time>
      </trkpt>
      <trkpt lat="42.97817" lon="-0.00369">
        <ele>1577</ele>
        <time>2017-01-18T12:11:01.100Z</time>
      </trkpt>
      <trkpt lat="42.97816" lon="-0.0037">
        <ele>1577</ele>
        <time>2017-01-18T12:11:02.100Z</time>
      </trkpt>
      <trkpt lat="42.97816" lon="-0.00371">
        <ele>1577</ele>
        <time>2017-01-18T12:11:03.100Z</time>
      </trkpt>
      <trkpt lat="42.97815" lon="-0.00372">
        <ele>1577</ele>
        <time>2017-01-18T12:11:04.100Z</time>
      </trkpt>
      <trkpt lat="42.97815" lon="-0.00373">
        <ele>1577</ele>
        <time>2017-01-18T12:11:05.100Z</time>
      </trkpt>
      <trkpt lat="42.97814" lon="-0.00374">
        <ele>1576</ele>
        <time>2017-01-18T12:11:06.100Z</time>
      </trkpt>
      <trkpt lat="42.97814" lon="-0.00374">
        <ele>1576</ele>
        <time>2017-01-18T12:11:07.100Z</time>
      </trkpt>
      <trkpt lat="42.97813" lon="-0.00375">
        <ele>1576</ele>
        <time>2017-01-18T12:11:08.100Z</time>
      </trkpt>
      <trkpt lat="42.97813" lon="-0.00376">
        <ele>1576</ele>
        <time>2017-01-18T12:11:09.100Z</time>
      </trkpt>
      <trkpt lat="42.97812" lon="-0.00378">
        <ele>1576</ele>
        <time>2017-01-18T12:11:10.100Z</time>
      </trkpt>
      <trkpt lat="42.97812" lon="-0.00378">
        <ele>1575</ele>
        <time>2017-01-18T12:11:11.100Z</time>
      </trkpt>
      <trkpt lat="42.97811" lon="-0.00379">
        <ele>1575</ele>
        <time>2017-01-18T12:11:12.100Z</time>
      </trkpt>
      <trkpt lat="42.97811" lon="-0.0038">
        <ele>1575</ele>
        <time>2017-01-18T12:11:13.100Z</time>
      </trkpt>
      <trkpt lat="42.9781" lon="-0.00381">
        <ele>1575</ele>
        <time>2017-01-18T12:11:14.100Z</time>
      </trkpt>
      <trkpt lat="42.97809" lon="-0.00382">
        <ele>1575</ele>
        <time>2017-01-18T12:11:15.100Z</time>
      </trkpt>
      <trkpt lat="42.97809" lon="-0.00383">
        <ele>1574</ele>
        <time>2017-01-18T12:11:16.100Z</time>
      </trkpt>
      <trkpt lat="42.97808" lon="-0.00384">
        <ele>1574</ele>
        <time>2017-01-18T12:11:17.100Z</time>
      </trkpt>
      <trkpt lat="42.97808" lon="-0.00385">
        <ele>1574</ele>
        <time>2017-01-18T12:11:18.100Z</time>
      </trkpt>
      <trkpt lat="42.97807" lon="-0.00386">
        <ele>1574</ele>
        <time>2017-01-18T12:11:19.100Z</time>
      </trkpt>
      <trkpt lat="42.97806" lon="-0.00387">
        <ele>1574</ele>
        <time>2017-01-18T12:11:20.100Z</time>
      </trkpt>
      <trkpt lat="42.97806" lon="-0.00388">
        <ele>1574</ele>
        <time>2017-01-18T12:11:21.100Z</time>
      </trkpt>
      <trkpt lat="42.97805" lon="-0.00389">
        <ele>1574</ele>
        <time>2017-01-18T12:11:22.100Z</time>
      </trkpt>
      <trkpt lat="42.97804" lon="-0.0039">
        <ele>1574</ele>
        <time>2017-01-18T12:11:23.100Z</time>
      </trkpt>
      <trkpt lat="42.97804" lon="-0.00391">
        <ele>1574</ele>
        <time>2017-01-18T12:11:24.100Z</time>
      </trkpt>
      <trkpt lat="42.97803" lon="-0.00391">
        <ele>1574</ele>
        <time>2017-01-18T12:11:25.100Z</time>
      </trkpt>
      <trkpt lat="42.97802" lon="-0.00392">
        <ele>1574</ele>
        <time>2017-01-18T12:11:26.100Z</time>
      </trkpt>
      <trkpt lat="42.97801" lon="-0.00393">
        <ele>1574</ele>
        <time>2017-01-18T12:11:27.100Z</time>
      </trkpt>
      <trkpt lat="42.97801" lon="-0.00394">
        <ele>1574</ele>
        <time>2017-01-18T12:11:28.100Z</time>
      </trkpt>
      <trkpt lat="42.978" lon="-0.00395">
        <ele>1574</ele>
        <time>2017-01-18T12:11:29.100Z</time>
      </trkpt>
      <trkpt lat="42.97799" lon="-0.00396">
        <ele>1574</ele>
        <time>2017-01-18T12:11:30.100Z</time>
      </trkpt>
      <trkpt lat="42.97799" lon="-0.00397">
        <ele>1574</ele>
        <time>2017-01-18T12:11:31.100Z</time>
      </trkpt>
      <trkpt lat="42.97798" lon="-0.00398">
        <ele>1574</ele>
        <time>2017-01-18T12:11:32.100Z</time>
      </trkpt>
      <trkpt lat="42.97797" lon="-0.00399">
        <ele>1573</ele>
        <time>2017-01-18T12:11:33.100Z</time>
      </trkpt>
      <trkpt lat="42.97797" lon="-0.004">
        <ele>1573</ele>
        <time>2017-01-18T12:11:34.100Z</time>
      </trkpt>
      <trkpt lat="42.97796" lon="-0.004">
        <ele>1573</ele>
        <time>2017-01-18T12:11:35.100Z</time>
      </trkpt>
      <trkpt lat="42.97796" lon="-0.00401">
        <ele>1573</ele>
        <time>2017-01-18T12:11:36.100Z</time>
      </trkpt>
      <trkpt lat="42.97795" lon="-0.00402">
        <ele>1573</ele>
        <time>2017-01-18T12:11:37.100Z</time>
      </trkpt>
      <trkpt lat="42.97794" lon="-0.00403">
        <ele>1573</ele>
        <time>2017-01-18T12:11:38.100Z</time>
      </trkpt>
      <trkpt lat="42.97794" lon="-0.00404">
        <ele>1573</ele>
        <time>2017-01-18T12:11:39.100Z</time>
      </trkpt>
      <trkpt lat="42.97793" lon="-0.00405">
        <ele>1573</ele>
        <time>2017-01-18T12:11:40.100Z</time>
      </trkpt>
      <trkpt lat="42.97792" lon="-0.00406">
        <ele>1573</ele>
        <time>2017-01-18T12:11:41.100Z</time>
      </trkpt>
      <trkpt lat="42.97792" lon="-0.00407">
        <ele>1573</ele>
        <time>2017-01-18T12:11:42.100Z</time>
      </trkpt>
      <trkpt lat="42.97791" lon="-0.00408">
        <ele>1573</ele>
        <time>2017-01-18T12:11:43.100Z</time>
      </trkpt>
      <trkpt lat="42.9779" lon="-0.00408">
        <ele>1573</ele>
        <time>2017-01-18T12:11:44.100Z</time>
      </trkpt>
      <trkpt lat="42.9779" lon="-0.00409">
        <ele>1573</ele>
        <time>2017-01-18T12:11:45.100Z</time>
      </trkpt>
      <trkpt lat="42.97789" lon="-0.0041">
        <ele>1572</ele>
        <time>2017-01-18T12:11:46.100Z</time>
      </trkpt>
      <trkpt lat="42.97788" lon="-0.00411">
        <ele>1572</ele>
        <time>2017-01-18T12:11:47.100Z</time>
      </trkpt>
      <trkpt lat="42.97788" lon="-0.00412">
        <ele>1572</ele>
        <time>2017-01-18T12:11:48.100Z</time>
      </trkpt>
      <trkpt lat="42.97787" lon="-0.00413">
        <ele>1572</ele>
        <time>2017-01-18T12:11:49.100Z</time>
      </trkpt>
      <trkpt lat="42.97786" lon="-0.00414">
        <ele>1572</ele>
        <time>2017-01-18T12:11:50.100Z</time>
      </trkpt>
      <trkpt lat="42.97786" lon="-0.00415">
        <ele>1572</ele>
        <time>2017-01-18T12:11:51.100Z</time>
      </trkpt>
      <trkpt lat="42.97785" lon="-0.00416">
        <ele>1572</ele>
        <time>2017-01-18T12:11:52.100Z</time>
      </trkpt>
      <trkpt lat="42.97785" lon="-0.00417">
        <ele>1572</ele>
        <time>2017-01-18T12:11:53.100Z</time>
      </trkpt>
      <trkpt lat="42.97784" lon="-0.00418">
        <ele>1572</ele>
        <time>2017-01-18T12:11:54.100Z</time>
      </trkpt>
      <trkpt lat="42.97783" lon="-0.00418">
        <ele>1571</ele>
        <time>2017-01-18T12:11:55.100Z</time>
      </trkpt>
      <trkpt lat="42.97783" lon="-0.00419">
        <ele>1571</ele>
        <time>2017-01-18T12:11:56.100Z</time>
      </trkpt>
      <trkpt lat="42.97782" lon="-0.0042">
        <ele>1571</ele>
        <time>2017-01-18T12:11:57.100Z</time>
      </trkpt>
      <trkpt lat="42.97781" lon="-0.00421">
        <ele>1571</ele>
        <time>2017-01-18T12:11:58.100Z</time>
      </trkpt>
      <trkpt lat="42.97781" lon="-0.00422">
        <ele>1571</ele>
        <time>2017-01-18T12:11:59.100Z</time>
      </trkpt>
      <trkpt lat="42.9778" lon="-0.00423">
        <ele>1571</ele>
        <time>2017-01-18T12:12:00.100Z</time>
      </trkpt>
      <trkpt lat="42.9778" lon="-0.00424">
        <ele>1571</ele>
        <time>2017-01-18T12:12:01.100Z</time>
      </trkpt>
      <trkpt lat="42.97779" lon="-0.00425">
        <ele>1571</ele>
        <time>2017-01-18T12:12:02.100Z</time>
      </trkpt>
      <trkpt lat="42.97779" lon="-0.00426">
        <ele>1571</ele>
        <time>2017-01-18T12:12:03.100Z</time>
      </trkpt>
      <trkpt lat="42.97778" lon="-0.00427">
        <ele>1571</ele>
        <time>2017-01-18T12:12:04.100Z</time>
      </trkpt>
      <trkpt lat="42.97778" lon="-0.00428">
        <ele>1571</ele>
        <time>2017-01-18T12:12:05.100Z</time>
      </trkpt>
      <trkpt lat="42.97777" lon="-0.00429">
        <ele>1571</ele>
        <time>2017-01-18T12:12:06.100Z</time>
      </trkpt>
      <trkpt lat="42.97776" lon="-0.0043">
        <ele>1571</ele>
        <time>2017-01-18T12:12:07.100Z</time>
      </trkpt>
      <trkpt lat="42.97775" lon="-0.00431">
        <ele>1571</ele>
        <time>2017-01-18T12:12:08.100Z</time>
      </trkpt>
      <trkpt lat="42.97775" lon="-0.00432">
        <ele>1571</ele>
        <time>2017-01-18T12:12:09.100Z</time>
      </trkpt>
      <trkpt lat="42.97774" lon="-0.00433">
        <ele>1571</ele>
        <time>2017-01-18T12:12:10.100Z</time>
      </trkpt>
      <trkpt lat="42.97773" lon="-0.00434">
        <ele>1571</ele>
        <time>2017-01-18T12:12:11.100Z</time>
      </trkpt>
      <trkpt lat="42.97772" lon="-0.00435">
        <ele>1571</ele>
        <time>2017-01-18T12:12:12.100Z</time>
      </trkpt>
      <trkpt lat="42.97771" lon="-0.00436">
        <ele>1571</ele>
        <time>2017-01-18T12:12:13.100Z</time>
      </trkpt>
      <trkpt lat="42.97771" lon="-0.00437">
        <ele>1571</ele>
        <time>2017-01-18T12:12:14.100Z</time>
      </trkpt>
      <trkpt lat="42.9777" lon="-0.00438">
        <ele>1571</ele>
        <time>2017-01-18T12:12:15.100Z</time>
      </trkpt>
      <trkpt lat="42.97769" lon="-0.0044">
        <ele>1571</ele>
        <time>2017-01-18T12:12:16.100Z</time>
      </trkpt>
      <trkpt lat="42.97768" lon="-0.00441">
        <ele>1570</ele>
        <time>2017-01-18T12:12:17.100Z</time>
      </trkpt>
      <trkpt lat="42.97767" lon="-0.00442">
        <ele>1571</ele>
        <time>2017-01-18T12:12:18.100Z</time>
      </trkpt>
      <trkpt lat="42.97767" lon="-0.00443">
        <ele>1571</ele>
        <time>2017-01-18T12:12:19.100Z</time>
      </trkpt>
      <trkpt lat="42.97766" lon="-0.00444">
        <ele>1571</ele>
        <time>2017-01-18T12:12:20.100Z</time>
      </trkpt>
      <trkpt lat="42.97765" lon="-0.00445">
        <ele>1571</ele>
        <time>2017-01-18T12:12:21.100Z</time>
      </trkpt>
      <trkpt lat="42.97765" lon="-0.00446">
        <ele>1571</ele>
        <time>2017-01-18T12:12:22.100Z</time>
      </trkpt>
      <trkpt lat="42.97764" lon="-0.00447">
        <ele>1570</ele>
        <time>2017-01-18T12:12:23.100Z</time>
      </trkpt>
      <trkpt lat="42.97764" lon="-0.00448">
        <ele>1570</ele>
        <time>2017-01-18T12:12:24.100Z</time>
      </trkpt>
      <trkpt lat="42.97763" lon="-0.00449">
        <ele>1570</ele>
        <time>2017-01-18T12:12:25.100Z</time>
      </trkpt>
      <trkpt lat="42.97762" lon="-0.0045">
        <ele>1570</ele>
        <time>2017-01-18T12:12:26.100Z</time>
      </trkpt>
      <trkpt lat="42.97762" lon="-0.00451">
        <ele>1570</ele>
        <time>2017-01-18T12:12:27.100Z</time>
      </trkpt>
      <trkpt lat="42.97761" lon="-0.00452">
        <ele>1570</ele>
        <time>2017-01-18T12:12:28.100Z</time>
      </trkpt>
      <trkpt lat="42.9776" lon="-0.00453">
        <ele>1570</ele>
        <time>2017-01-18T12:12:29.100Z</time>
      </trkpt>
      <trkpt lat="42.9776" lon="-0.00454">
        <ele>1570</ele>
        <time>2017-01-18T12:12:30.100Z</time>
      </trkpt>
      <trkpt lat="42.97759" lon="-0.00455">
        <ele>1570</ele>
        <time>2017-01-18T12:12:31.100Z</time>
      </trkpt>
      <trkpt lat="42.97758" lon="-0.00456">
        <ele>1570</ele>
        <time>2017-01-18T12:12:32.100Z</time>
      </trkpt>
      <trkpt lat="42.97757" lon="-0.00457">
        <ele>1570</ele>
        <time>2017-01-18T12:12:33.100Z</time>
      </trkpt>
      <trkpt lat="42.97757" lon="-0.00458">
        <ele>1570</ele>
        <time>2017-01-18T12:12:34.100Z</time>
      </trkpt>
      <trkpt lat="42.97756" lon="-0.00459">
        <ele>1570</ele>
        <time>2017-01-18T12:12:35.100Z</time>
      </trkpt>
      <trkpt lat="42.97755" lon="-0.0046">
        <ele>1570</ele>
        <time>2017-01-18T12:12:36.100Z</time>
      </trkpt>
      <trkpt lat="42.97755" lon="-0.00461">
        <ele>1569</ele>
        <time>2017-01-18T12:12:37.100Z</time>
      </trkpt>
      <trkpt lat="42.97754" lon="-0.00462">
        <ele>1569</ele>
        <time>2017-01-18T12:12:38.100Z</time>
      </trkpt>
      <trkpt lat="42.97754" lon="-0.00463">
        <ele>1569</ele>
        <time>2017-01-18T12:12:39.100Z</time>
      </trkpt>
      <trkpt lat="42.97753" lon="-0.00464">
        <ele>1569</ele>
        <time>2017-01-18T12:12:40.100Z</time>
      </trkpt>
      <trkpt lat="42.97752" lon="-0.00465">
        <ele>1569</ele>
        <time>2017-01-18T12:12:41.100Z</time>
      </trkpt>
      <trkpt lat="42.97752" lon="-0.00466">
        <ele>1569</ele>
        <time>2017-01-18T12:12:42.100Z</time>
      </trkpt>
      <trkpt lat="42.97751" lon="-0.00468">
        <ele>1569</ele>
        <time>2017-01-18T12:12:43.100Z</time>
      </trkpt>
      <trkpt lat="42.9775" lon="-0.00469">
        <ele>1568</ele>
        <time>2017-01-18T12:12:44.100Z</time>
      </trkpt>
      <trkpt lat="42.9775" lon="-0.0047">
        <ele>1568</ele>
        <time>2017-01-18T12:12:45.100Z</time>
      </trkpt>
      <trkpt lat="42.97749" lon="-0.00471">
        <ele>1568</ele>
        <time>2017-01-18T12:12:46.100Z</time>
      </trkpt>
      <trkpt lat="42.97748" lon="-0.00472">
        <ele>1568</ele>
        <time>2017-01-18T12:12:47.100Z</time>
      </trkpt>
      <trkpt lat="42.97748" lon="-0.00473">
        <ele>1568</ele>
        <time>2017-01-18T12:12:48.100Z</time>
      </trkpt>
      <trkpt lat="42.97747" lon="-0.00474">
        <ele>1568</ele>
        <time>2017-01-18T12:12:49.100Z</time>
      </trkpt>
      <trkpt lat="42.97747" lon="-0.00475">
        <ele>1568</ele>
        <time>2017-01-18T12:12:50.100Z</time>
      </trkpt>
      <trkpt lat="42.97746" lon="-0.00476">
        <ele>1568</ele>
        <time>2017-01-18T12:12:51.100Z</time>
      </trkpt>
      <trkpt lat="42.97745" lon="-0.00477">
        <ele>1568</ele>
        <time>2017-01-18T12:12:52.100Z</time>
      </trkpt>
      <trkpt lat="42.97744" lon="-0.00478">
        <ele>1568</ele>
        <time>2017-01-18T12:12:53.100Z</time>
      </trkpt>
      <trkpt lat="42.97744" lon="-0.00479">
        <ele>1568</ele>
        <time>2017-01-18T12:12:54.100Z</time>
      </trkpt>
      <trkpt lat="42.97743" lon="-0.0048">
        <ele>1568</ele>
        <time>2017-01-18T12:12:55.100Z</time>
      </trkpt>
      <trkpt lat="42.97743" lon="-0.00481">
        <ele>1568</ele>
        <time>2017-01-18T12:12:56.100Z</time>
      </trkpt>
      <trkpt lat="42.97742" lon="-0.00482">
        <ele>1568</ele>
        <time>2017-01-18T12:12:57.100Z</time>
      </trkpt>
      <trkpt lat="42.97741" lon="-0.00483">
        <ele>1568</ele>
        <time>2017-01-18T12:12:58.100Z</time>
      </trkpt>
      <trkpt lat="42.97741" lon="-0.00484">
        <ele>1568</ele>
        <time>2017-01-18T12:12:59.100Z</time>
      </trkpt>
      <trkpt lat="42.9774" lon="-0.00485">
        <ele>1567</ele>
        <time>2017-01-18T12:13:00.100Z</time>
      </trkpt>
      <trkpt lat="42.9774" lon="-0.00487">
        <ele>1567</ele>
        <time>2017-01-18T12:13:01.100Z</time>
      </trkpt>
      <trkpt lat="42.97739" lon="-0.00488">
        <ele>1567</ele>
        <time>2017-01-18T12:13:02.100Z</time>
      </trkpt>
      <trkpt lat="42.97739" lon="-0.00489">
        <ele>1567</ele>
        <time>2017-01-18T12:13:03.100Z</time>
      </trkpt>
      <trkpt lat="42.97738" lon="-0.0049">
        <ele>1567</ele>
        <time>2017-01-18T12:13:04.100Z</time>
      </trkpt>
      <trkpt lat="42.97738" lon="-0.00491">
        <ele>1567</ele>
        <time>2017-01-18T12:13:05.100Z</time>
      </trkpt>
      <trkpt lat="42.97738" lon="-0.00492">
        <ele>1567</ele>
        <time>2017-01-18T12:13:06.100Z</time>
      </trkpt>
      <trkpt lat="42.97737" lon="-0.00493">
        <ele>1567</ele>
        <time>2017-01-18T12:13:07.100Z</time>
      </trkpt>
      <trkpt lat="42.97737" lon="-0.00495">
        <ele>1567</ele>
        <time>2017-01-18T12:13:08.100Z</time>
      </trkpt>
      <trkpt lat="42.97736" lon="-0.00496">
        <ele>1567</ele>
        <time>2017-01-18T12:13:09.100Z</time>
      </trkpt>
      <trkpt lat="42.97736" lon="-0.00497">
        <ele>1567</ele>
        <time>2017-01-18T12:13:10.100Z</time>
      </trkpt>
      <trkpt lat="42.97736" lon="-0.00498">
        <ele>1567</ele>
        <time>2017-01-18T12:13:11.100Z</time>
      </trkpt>
      <trkpt lat="42.97735" lon="-0.00499">
        <ele>1567</ele>
        <time>2017-01-18T12:13:12.100Z</time>
      </trkpt>
      <trkpt lat="42.97735" lon="-0.005">
        <ele>1566</ele>
        <time>2017-01-18T12:13:13.100Z</time>
      </trkpt>
      <trkpt lat="42.97734" lon="-0.00501">
        <ele>1566</ele>
        <time>2017-01-18T12:13:14.100Z</time>
      </trkpt>
      <trkpt lat="42.97734" lon="-0.00502">
        <ele>1566</ele>
        <time>2017-01-18T12:13:15.100Z</time>
      </trkpt>
      <trkpt lat="42.97734" lon="-0.00503">
        <ele>1566</ele>
        <time>2017-01-18T12:13:16.100Z</time>
      </trkpt>
      <trkpt lat="42.97734" lon="-0.00505">
        <ele>1566</ele>
        <time>2017-01-18T12:13:17.100Z</time>
      </trkpt>
      <trkpt lat="42.97734" lon="-0.00506">
        <ele>1565</ele>
        <time>2017-01-18T12:13:18.100Z</time>
      </trkpt>
      <trkpt lat="42.97733" lon="-0.00507">
        <ele>1565</ele>
        <time>2017-01-18T12:13:19.100Z</time>
      </trkpt>
      <trkpt lat="42.97733" lon="-0.00508">
        <ele>1565</ele>
        <time>2017-01-18T12:13:20.100Z</time>
      </trkpt>
      <trkpt lat="42.97732" lon="-0.00509">
        <ele>1565</ele>
        <time>2017-01-18T12:13:21.100Z</time>
      </trkpt>
      <trkpt lat="42.97732" lon="-0.0051">
        <ele>1565</ele>
        <time>2017-01-18T12:13:22.100Z</time>
      </trkpt>
      <trkpt lat="42.97732" lon="-0.00511">
        <ele>1565</ele>
        <time>2017-01-18T12:13:23.100Z</time>
      </trkpt>
      <trkpt lat="42.97731" lon="-0.00512">
        <ele>1565</ele>
        <time>2017-01-18T12:13:24.100Z</time>
      </trkpt>
      <trkpt lat="42.97731" lon="-0.00514">
        <ele>1565</ele>
        <time>2017-01-18T12:13:25.100Z</time>
      </trkpt>
      <trkpt lat="42.97731" lon="-0.00515">
        <ele>1565</ele>
        <time>2017-01-18T12:13:26.100Z</time>
      </trkpt>
      <trkpt lat="42.9773" lon="-0.00516">
        <ele>1565</ele>
        <time>2017-01-18T12:13:27.100Z</time>
      </trkpt>
      <trkpt lat="42.9773" lon="-0.00517">
        <ele>1565</ele>
        <time>2017-01-18T12:13:28.100Z</time>
      </trkpt>
      <trkpt lat="42.97729" lon="-0.00518">
        <ele>1565</ele>
        <time>2017-01-18T12:13:29.100Z</time>
      </trkpt>
      <trkpt lat="42.97729" lon="-0.00519">
        <ele>1565</ele>
        <time>2017-01-18T12:13:30.100Z</time>
      </trkpt>
      <trkpt lat="42.97729" lon="-0.0052">
        <ele>1565</ele>
        <time>2017-01-18T12:13:31.100Z</time>
      </trkpt>
      <trkpt lat="42.97728" lon="-0.00521">
        <ele>1565</ele>
        <time>2017-01-18T12:13:32.100Z</time>
      </trkpt>
      <trkpt lat="42.97728" lon="-0.00522">
        <ele>1565</ele>
        <time>2017-01-18T12:13:33.100Z</time>
      </trkpt>
      <trkpt lat="42.97727" lon="-0.00523">
        <ele>1565</ele>
        <time>2017-01-18T12:13:34.100Z</time>
      </trkpt>
      <trkpt lat="42.97727" lon="-0.00524">
        <ele>1565</ele>
        <time>2017-01-18T12:13:35.100Z</time>
      </trkpt>
      <trkpt lat="42.97726" lon="-0.00525">
        <ele>1565</ele>
        <time>2017-01-18T12:13:36.100Z</time>
      </trkpt>
      <trkpt lat="42.97726" lon="-0.00526">
        <ele>1565</ele>
        <time>2017-01-18T12:13:37.100Z</time>
      </trkpt>
      <trkpt lat="42.97725" lon="-0.00527">
        <ele>1565</ele>
        <time>2017-01-18T12:13:38.100Z</time>
      </trkpt>
      <trkpt lat="42.97725" lon="-0.00528">
        <ele>1565</ele>
        <time>2017-01-18T12:13:39.100Z</time>
      </trkpt>
      <trkpt lat="42.97724" lon="-0.00529">
        <ele>1565</ele>
        <time>2017-01-18T12:13:40.100Z</time>
      </trkpt>
      <trkpt lat="42.97724" lon="-0.0053">
        <ele>1565</ele>
        <time>2017-01-18T12:13:41.100Z</time>
      </trkpt>
      <trkpt lat="42.97723" lon="-0.00531">
        <ele>1565</ele>
        <time>2017-01-18T12:13:42.100Z</time>
      </trkpt>
      <trkpt lat="42.97723" lon="-0.00532">
        <ele>1565</ele>
        <time>2017-01-18T12:13:43.100Z</time>
      </trkpt>
      <trkpt lat="42.97723" lon="-0.00532">
        <ele>1565</ele>
        <time>2017-01-18T12:13:44.100Z</time>
      </trkpt>
      <trkpt lat="42.97723" lon="-0.00533">
        <ele>1565</ele>
        <time>2017-01-18T12:13:45.100Z</time>
      </trkpt>
      <trkpt lat="42.97723" lon="-0.00533">
        <ele>1565</ele>
        <time>2017-01-18T12:13:46.100Z</time>
      </trkpt>
      <trkpt lat="42.97722" lon="-0.00533">
        <ele>1565</ele>
        <time>2017-01-18T12:13:47.100Z</time>
      </trkpt>
      <trkpt lat="42.97722" lon="-0.00533">
        <ele>1565</ele>
        <time>2017-01-18T12:13:48.100Z</time>
      </trkpt>
      <trkpt lat="42.97722" lon="-0.00533">
        <ele>1565</ele>
        <time>2017-01-18T12:13:49.100Z</time>
      </trkpt>
      <trkpt lat="42.97722" lon="-0.00533">
        <ele>1565</ele>
        <time>2017-01-18T12:13:50.100Z</time>
      </trkpt>
      <trkpt lat="42.97722" lon="-0.00533">
        <ele>1565</ele>
        <time>2017-01-18T12:13:51.100Z</time>
      </trkpt>
      <trkpt lat="42.97721" lon="-0.00536">
        <ele>1564</ele>
        <time>2017-01-18T12:13:53.096Z</time>
      </trkpt>
      <trkpt lat="42.9772" lon="-0.00537">
        <ele>1564</ele>
        <time>2017-01-18T12:13:54.096Z</time>
      </trkpt>
      <trkpt lat="42.9772" lon="-0.00538">
        <ele>1564</ele>
        <time>2017-01-18T12:13:55.096Z</time>
      </trkpt>
      <trkpt lat="42.97719" lon="-0.00539">
        <ele>1565</ele>
        <time>2017-01-18T12:13:56.096Z</time>
      </trkpt>
      <trkpt lat="42.97719" lon="-0.0054">
        <ele>1564</ele>
        <time>2017-01-18T12:13:57.096Z</time>
      </trkpt>
      <trkpt lat="42.97718" lon="-0.00541">
        <ele>1564</ele>
        <time>2017-01-18T12:13:58.096Z</time>
      </trkpt>
      <trkpt lat="42.97718" lon="-0.00542">
        <ele>1564</ele>
        <time>2017-01-18T12:13:59.096Z</time>
      </trkpt>
      <trkpt lat="42.97718" lon="-0.00543">
        <ele>1564</ele>
        <time>2017-01-18T12:14:00.096Z</time>
      </trkpt>
      <trkpt lat="42.97717" lon="-0.00544">
        <ele>1564</ele>
        <time>2017-01-18T12:14:01.096Z</time>
      </trkpt>
      <trkpt lat="42.97717" lon="-0.00545">
        <ele>1564</ele>
        <time>2017-01-18T12:14:02.096Z</time>
      </trkpt>
      <trkpt lat="42.97716" lon="-0.00546">
        <ele>1564</ele>
        <time>2017-01-18T12:14:03.096Z</time>
      </trkpt>
      <trkpt lat="42.97716" lon="-0.00547">
        <ele>1564</ele>
        <time>2017-01-18T12:14:04.096Z</time>
      </trkpt>
      <trkpt lat="42.97715" lon="-0.00548">
        <ele>1564</ele>
        <time>2017-01-18T12:14:05.096Z</time>
      </trkpt>
      <trkpt lat="42.97714" lon="-0.00549">
        <ele>1564</ele>
        <time>2017-01-18T12:14:06.096Z</time>
      </trkpt>
      <trkpt lat="42.97714" lon="-0.0055">
        <ele>1563</ele>
        <time>2017-01-18T12:14:07.096Z</time>
      </trkpt>
      <trkpt lat="42.97713" lon="-0.00551">
        <ele>1563</ele>
        <time>2017-01-18T12:14:08.096Z</time>
      </trkpt>
      <trkpt lat="42.97713" lon="-0.00551">
        <ele>1563</ele>
        <time>2017-01-18T12:14:09.096Z</time>
      </trkpt>
      <trkpt lat="42.97713" lon="-0.00553">
        <ele>1563</ele>
        <time>2017-01-18T12:14:10.096Z</time>
      </trkpt>
      <trkpt lat="42.97712" lon="-0.00554">
        <ele>1563</ele>
        <time>2017-01-18T12:14:11.096Z</time>
      </trkpt>
      <trkpt lat="42.97711" lon="-0.00555">
        <ele>1563</ele>
        <time>2017-01-18T12:14:12.096Z</time>
      </trkpt>
      <trkpt lat="42.97711" lon="-0.00556">
        <ele>1563</ele>
        <time>2017-01-18T12:14:13.096Z</time>
      </trkpt>
      <trkpt lat="42.9771" lon="-0.00557">
        <ele>1563</ele>
        <time>2017-01-18T12:14:14.096Z</time>
      </trkpt>
      <trkpt lat="42.9771" lon="-0.00558">
        <ele>1563</ele>
        <time>2017-01-18T12:14:15.096Z</time>
      </trkpt>
      <trkpt lat="42.97709" lon="-0.00559">
        <ele>1563</ele>
        <time>2017-01-18T12:14:16.096Z</time>
      </trkpt>
      <trkpt lat="42.97709" lon="-0.0056">
        <ele>1563</ele>
        <time>2017-01-18T12:14:17.096Z</time>
      </trkpt>
      <trkpt lat="42.97708" lon="-0.00561">
        <ele>1563</ele>
        <time>2017-01-18T12:14:18.096Z</time>
      </trkpt>
      <trkpt lat="42.97708" lon="-0.00562">
        <ele>1563</ele>
        <time>2017-01-18T12:14:19.096Z</time>
      </trkpt>
      <trkpt lat="42.97707" lon="-0.00563">
        <ele>1563</ele>
        <time>2017-01-18T12:14:20.096Z</time>
      </trkpt>
      <trkpt lat="42.97707" lon="-0.00564">
        <ele>1563</ele>
        <time>2017-01-18T12:14:21.096Z</time>
      </trkpt>
      <trkpt lat="42.97706" lon="-0.00565">
        <ele>1563</ele>
        <time>2017-01-18T12:14:22.096Z</time>
      </trkpt>
      <trkpt lat="42.97705" lon="-0.00565">
        <ele>1563</ele>
        <time>2017-01-18T12:14:23.096Z</time>
      </trkpt>
      <trkpt lat="42.97705" lon="-0.00566">
        <ele>1563</ele>
        <time>2017-01-18T12:14:24.096Z</time>
      </trkpt>
      <trkpt lat="42.97704" lon="-0.00567">
        <ele>1563</ele>
        <time>2017-01-18T12:14:25.096Z</time>
      </trkpt>
      <trkpt lat="42.97704" lon="-0.00568">
        <ele>1562</ele>
        <time>2017-01-18T12:14:26.096Z</time>
      </trkpt>
      <trkpt lat="42.97703" lon="-0.00569">
        <ele>1563</ele>
        <time>2017-01-18T12:14:27.096Z</time>
      </trkpt>
      <trkpt lat="42.97703" lon="-0.0057">
        <ele>1563</ele>
        <time>2017-01-18T12:14:28.096Z</time>
      </trkpt>
      <trkpt lat="42.97702" lon="-0.00571">
        <ele>1562</ele>
        <time>2017-01-18T12:14:29.096Z</time>
      </trkpt>
      <trkpt lat="42.97701" lon="-0.00572">
        <ele>1562</ele>
        <time>2017-01-18T12:14:30.096Z</time>
      </trkpt>
      <trkpt lat="42.97701" lon="-0.00573">
        <ele>1562</ele>
        <time>2017-01-18T12:14:31.096Z</time>
      </trkpt>
      <trkpt lat="42.977" lon="-0.00574">
        <ele>1562</ele>
        <time>2017-01-18T12:14:32.096Z</time>
      </trkpt>
      <trkpt lat="42.977" lon="-0.00575">
        <ele>1562</ele>
        <time>2017-01-18T12:14:33.096Z</time>
      </trkpt>
      <trkpt lat="42.97699" lon="-0.00576">
        <ele>1562</ele>
        <time>2017-01-18T12:14:34.096Z</time>
      </trkpt>
      <trkpt lat="42.97698" lon="-0.00577">
        <ele>1562</ele>
        <time>2017-01-18T12:14:35.096Z</time>
      </trkpt>
      <trkpt lat="42.97698" lon="-0.00578">
        <ele>1562</ele>
        <time>2017-01-18T12:14:36.096Z</time>
      </trkpt>
      <trkpt lat="42.97697" lon="-0.00579">
        <ele>1562</ele>
        <time>2017-01-18T12:14:37.096Z</time>
      </trkpt>
      <trkpt lat="42.97697" lon="-0.0058">
        <ele>1562</ele>
        <time>2017-01-18T12:14:38.096Z</time>
      </trkpt>
      <trkpt lat="42.97696" lon="-0.00581">
        <ele>1562</ele>
        <time>2017-01-18T12:14:39.096Z</time>
      </trkpt>
      <trkpt lat="42.97695" lon="-0.00582">
        <ele>1562</ele>
        <time>2017-01-18T12:14:40.096Z</time>
      </trkpt>
      <trkpt lat="42.97695" lon="-0.00583">
        <ele>1562</ele>
        <time>2017-01-18T12:14:41.096Z</time>
      </trkpt>
      <trkpt lat="42.97694" lon="-0.00584">
        <ele>1562</ele>
        <time>2017-01-18T12:14:42.096Z</time>
      </trkpt>
      <trkpt lat="42.97694" lon="-0.00585">
        <ele>1562</ele>
        <time>2017-01-18T12:14:43.096Z</time>
      </trkpt>
      <trkpt lat="42.97693" lon="-0.00586">
        <ele>1562</ele>
        <time>2017-01-18T12:14:44.096Z</time>
      </trkpt>
      <trkpt lat="42.97693" lon="-0.00586">
        <ele>1562</ele>
        <time>2017-01-18T12:14:45.096Z</time>
      </trkpt>
      <trkpt lat="42.97692" lon="-0.00587">
        <ele>1562</ele>
        <time>2017-01-18T12:14:46.096Z</time>
      </trkpt>
      <trkpt lat="42.97692" lon="-0.00588">
        <ele>1562</ele>
        <time>2017-01-18T12:14:47.096Z</time>
      </trkpt>
      <trkpt lat="42.97691" lon="-0.00589">
        <ele>1561</ele>
        <time>2017-01-18T12:14:48.096Z</time>
      </trkpt>
      <trkpt lat="42.97691" lon="-0.0059">
        <ele>1561</ele>
        <time>2017-01-18T12:14:49.096Z</time>
      </trkpt>
      <trkpt lat="42.9769" lon="-0.00591">
        <ele>1561</ele>
        <time>2017-01-18T12:14:50.096Z</time>
      </trkpt>
      <trkpt lat="42.97689" lon="-0.00592">
        <ele>1561</ele>
        <time>2017-01-18T12:14:51.096Z</time>
      </trkpt>
      <trkpt lat="42.97689" lon="-0.00593">
        <ele>1561</ele>
        <time>2017-01-18T12:14:52.096Z</time>
      </trkpt>
      <trkpt lat="42.97688" lon="-0.00594">
        <ele>1561</ele>
        <time>2017-01-18T12:14:53.096Z</time>
      </trkpt>
      <trkpt lat="42.97687" lon="-0.00595">
        <ele>1561</ele>
        <time>2017-01-18T12:14:54.096Z</time>
      </trkpt>
      <trkpt lat="42.97687" lon="-0.00596">
        <ele>1561</ele>
        <time>2017-01-18T12:14:55.096Z</time>
      </trkpt>
      <trkpt lat="42.97686" lon="-0.00596">
        <ele>1561</ele>
        <time>2017-01-18T12:14:56.096Z</time>
      </trkpt>
      <trkpt lat="42.97685" lon="-0.00597">
        <ele>1561</ele>
        <time>2017-01-18T12:14:57.096Z</time>
      </trkpt>
      <trkpt lat="42.97684" lon="-0.00598">
        <ele>1561</ele>
        <time>2017-01-18T12:14:58.096Z</time>
      </trkpt>
      <trkpt lat="42.97683" lon="-0.00599">
        <ele>1561</ele>
        <time>2017-01-18T12:14:59.096Z</time>
      </trkpt>
      <trkpt lat="42.97682" lon="-0.006">
        <ele>1561</ele>
        <time>2017-01-18T12:15:00.096Z</time>
      </trkpt>
      <trkpt lat="42.97682" lon="-0.00601">
        <ele>1561</ele>
        <time>2017-01-18T12:15:01.096Z</time>
      </trkpt>
      <trkpt lat="42.97681" lon="-0.00601">
        <ele>1561</ele>
        <time>2017-01-18T12:15:02.096Z</time>
      </trkpt>
      <trkpt lat="42.9768" lon="-0.00602">
        <ele>1561</ele>
        <time>2017-01-18T12:15:03.096Z</time>
      </trkpt>
      <trkpt lat="42.9768" lon="-0.00603">
        <ele>1561</ele>
        <time>2017-01-18T12:15:04.096Z</time>
      </trkpt>
      <trkpt lat="42.97679" lon="-0.00604">
        <ele>1561</ele>
        <time>2017-01-18T12:15:05.096Z</time>
      </trkpt>
      <trkpt lat="42.97678" lon="-0.00605">
        <ele>1560</ele>
        <time>2017-01-18T12:15:06.096Z</time>
      </trkpt>
      <trkpt lat="42.97678" lon="-0.00605">
        <ele>1560</ele>
        <time>2017-01-18T12:15:07.096Z</time>
      </trkpt>
      <trkpt lat="42.97677" lon="-0.00606">
        <ele>1560</ele>
        <time>2017-01-18T12:15:08.096Z</time>
      </trkpt>
      <trkpt lat="42.97676" lon="-0.00606">
        <ele>1560</ele>
        <time>2017-01-18T12:15:09.096Z</time>
      </trkpt>
      <trkpt lat="42.97675" lon="-0.00607">
        <ele>1560</ele>
        <time>2017-01-18T12:15:10.096Z</time>
      </trkpt>
      <trkpt lat="42.97674" lon="-0.00608">
        <ele>1560</ele>
        <time>2017-01-18T12:15:11.096Z</time>
      </trkpt>
      <trkpt lat="42.97673" lon="-0.00609">
        <ele>1560</ele>
        <time>2017-01-18T12:15:12.096Z</time>
      </trkpt>
      <trkpt lat="42.97673" lon="-0.00609">
        <ele>1559</ele>
        <time>2017-01-18T12:15:13.096Z</time>
      </trkpt>
      <trkpt lat="42.97672" lon="-0.0061">
        <ele>1559</ele>
        <time>2017-01-18T12:15:14.096Z</time>
      </trkpt>
      <trkpt lat="42.97671" lon="-0.00611">
        <ele>1559</ele>
        <time>2017-01-18T12:15:15.096Z</time>
      </trkpt>
      <trkpt lat="42.9767" lon="-0.00611">
        <ele>1559</ele>
        <time>2017-01-18T12:15:16.096Z</time>
      </trkpt>
      <trkpt lat="42.97669" lon="-0.00612">
        <ele>1559</ele>
        <time>2017-01-18T12:15:17.096Z</time>
      </trkpt>
      <trkpt lat="42.97668" lon="-0.00613">
        <ele>1559</ele>
        <time>2017-01-18T12:15:18.096Z</time>
      </trkpt>
      <trkpt lat="42.97668" lon="-0.00613">
        <ele>1559</ele>
        <time>2017-01-18T12:15:19.096Z</time>
      </trkpt>
      <trkpt lat="42.97667" lon="-0.00613">
        <ele>1559</ele>
        <time>2017-01-18T12:15:20.096Z</time>
      </trkpt>
      <trkpt lat="42.97666" lon="-0.00614">
        <ele>1559</ele>
        <time>2017-01-18T12:15:21.096Z</time>
      </trkpt>
      <trkpt lat="42.97666" lon="-0.00615">
        <ele>1559</ele>
        <time>2017-01-18T12:15:22.096Z</time>
      </trkpt>
      <trkpt lat="42.97665" lon="-0.00615">
        <ele>1559</ele>
        <time>2017-01-18T12:15:23.096Z</time>
      </trkpt>
      <trkpt lat="42.97664" lon="-0.00616">
        <ele>1558</ele>
        <time>2017-01-18T12:15:24.096Z</time>
      </trkpt>
      <trkpt lat="42.97663" lon="-0.00616">
        <ele>1558</ele>
        <time>2017-01-18T12:15:25.096Z</time>
      </trkpt>
      <trkpt lat="42.97662" lon="-0.00617">
        <ele>1558</ele>
        <time>2017-01-18T12:15:26.096Z</time>
      </trkpt>
      <trkpt lat="42.97662" lon="-0.00617">
        <ele>1558</ele>
        <time>2017-01-18T12:15:27.096Z</time>
      </trkpt>
      <trkpt lat="42.97661" lon="-0.00618">
        <ele>1558</ele>
        <time>2017-01-18T12:15:28.096Z</time>
      </trkpt>
      <trkpt lat="42.9766" lon="-0.00618">
        <ele>1559</ele>
        <time>2017-01-18T12:15:29.096Z</time>
      </trkpt>
      <trkpt lat="42.97659" lon="-0.00619">
        <ele>1558</ele>
        <time>2017-01-18T12:15:30.096Z</time>
      </trkpt>
      <trkpt lat="42.97658" lon="-0.00619">
        <ele>1558</ele>
        <time>2017-01-18T12:15:31.096Z</time>
      </trkpt>
      <trkpt lat="42.97658" lon="-0.0062">
        <ele>1558</ele>
        <time>2017-01-18T12:15:32.096Z</time>
      </trkpt>
      <trkpt lat="42.97657" lon="-0.0062">
        <ele>1558</ele>
        <time>2017-01-18T12:15:33.096Z</time>
      </trkpt>
      <trkpt lat="42.97656" lon="-0.0062">
        <ele>1558</ele>
        <time>2017-01-18T12:15:34.096Z</time>
      </trkpt>
      <trkpt lat="42.97655" lon="-0.00621">
        <ele>1558</ele>
        <time>2017-01-18T12:15:35.096Z</time>
      </trkpt>
      <trkpt lat="42.97654" lon="-0.00621">
        <ele>1558</ele>
        <time>2017-01-18T12:15:36.096Z</time>
      </trkpt>
      <trkpt lat="42.97654" lon="-0.00622">
        <ele>1558</ele>
        <time>2017-01-18T12:15:37.096Z</time>
      </trkpt>
      <trkpt lat="42.97653" lon="-0.00622">
        <ele>1558</ele>
        <time>2017-01-18T12:15:38.096Z</time>
      </trkpt>
      <trkpt lat="42.97652" lon="-0.00622">
        <ele>1558</ele>
        <time>2017-01-18T12:15:39.096Z</time>
      </trkpt>
      <trkpt lat="42.97651" lon="-0.00622">
        <ele>1558</ele>
        <time>2017-01-18T12:15:40.096Z</time>
      </trkpt>
      <trkpt lat="42.9765" lon="-0.00622">
        <ele>1558</ele>
        <time>2017-01-18T12:15:41.096Z</time>
      </trkpt>
      <trkpt lat="42.97649" lon="-0.00622">
        <ele>1558</ele>
        <time>2017-01-18T12:15:42.096Z</time>
      </trkpt>
      <trkpt lat="42.97648" lon="-0.00622">
        <ele>1558</ele>
        <time>2017-01-18T12:15:43.096Z</time>
      </trkpt>
      <trkpt lat="42.97647" lon="-0.00622">
        <ele>1557</ele>
        <time>2017-01-18T12:15:44.096Z</time>
      </trkpt>
      <trkpt lat="42.97646" lon="-0.00623">
        <ele>1558</ele>
        <time>2017-01-18T12:15:45.096Z</time>
      </trkpt>
      <trkpt lat="42.97645" lon="-0.00623">
        <ele>1558</ele>
        <time>2017-01-18T12:15:46.096Z</time>
      </trkpt>
      <trkpt lat="42.97644" lon="-0.00623">
        <ele>1558</ele>
        <time>2017-01-18T12:15:47.096Z</time>
      </trkpt>
      <trkpt lat="42.97643" lon="-0.00623">
        <ele>1558</ele>
        <time>2017-01-18T12:15:48.096Z</time>
      </trkpt>
      <trkpt lat="42.97643" lon="-0.00623">
        <ele>1558</ele>
        <time>2017-01-18T12:15:49.096Z</time>
      </trkpt>
      <trkpt lat="42.97642" lon="-0.00624">
        <ele>1558</ele>
        <time>2017-01-18T12:15:50.096Z</time>
      </trkpt>
      <trkpt lat="42.97641" lon="-0.00624">
        <ele>1558</ele>
        <time>2017-01-18T12:15:51.096Z</time>
      </trkpt>
      <trkpt lat="42.9764" lon="-0.00624">
        <ele>1558</ele>
        <time>2017-01-18T12:15:52.096Z</time>
      </trkpt>
      <trkpt lat="42.97639" lon="-0.00624">
        <ele>1558</ele>
        <time>2017-01-18T12:15:53.096Z</time>
      </trkpt>
      <trkpt lat="42.97639" lon="-0.00624">
        <ele>1558</ele>
        <time>2017-01-18T12:15:54.096Z</time>
      </trkpt>
      <trkpt lat="42.97638" lon="-0.00625">
        <ele>1557</ele>
        <time>2017-01-18T12:15:55.096Z</time>
      </trkpt>
      <trkpt lat="42.97637" lon="-0.00625">
        <ele>1557</ele>
        <time>2017-01-18T12:15:56.096Z</time>
      </trkpt>
      <trkpt lat="42.97636" lon="-0.00625">
        <ele>1557</ele>
        <time>2017-01-18T12:15:57.096Z</time>
      </trkpt>
      <trkpt lat="42.97635" lon="-0.00625">
        <ele>1557</ele>
        <time>2017-01-18T12:15:58.096Z</time>
      </trkpt>
      <trkpt lat="42.97634" lon="-0.00625">
        <ele>1557</ele>
        <time>2017-01-18T12:15:59.096Z</time>
      </trkpt>
      <trkpt lat="42.97633" lon="-0.00626">
        <ele>1557</ele>
        <time>2017-01-18T12:16:00.096Z</time>
      </trkpt>
      <trkpt lat="42.97632" lon="-0.00626">
        <ele>1557</ele>
        <time>2017-01-18T12:16:01.096Z</time>
      </trkpt>
      <trkpt lat="42.97631" lon="-0.00626">
        <ele>1557</ele>
        <time>2017-01-18T12:16:02.096Z</time>
      </trkpt>
      <trkpt lat="42.97631" lon="-0.00626">
        <ele>1557</ele>
        <time>2017-01-18T12:16:03.096Z</time>
      </trkpt>
      <trkpt lat="42.9763" lon="-0.00626">
        <ele>1557</ele>
        <time>2017-01-18T12:16:04.096Z</time>
      </trkpt>
      <trkpt lat="42.97629" lon="-0.00626">
        <ele>1557</ele>
        <time>2017-01-18T12:16:05.096Z</time>
      </trkpt>
      <trkpt lat="42.97628" lon="-0.00626">
        <ele>1557</ele>
        <time>2017-01-18T12:16:06.096Z</time>
      </trkpt>
      <trkpt lat="42.97627" lon="-0.00626">
        <ele>1557</ele>
        <time>2017-01-18T12:16:07.096Z</time>
      </trkpt>
      <trkpt lat="42.97626" lon="-0.00626">
        <ele>1556</ele>
        <time>2017-01-18T12:16:08.096Z</time>
      </trkpt>
      <trkpt lat="42.97625" lon="-0.00627">
        <ele>1556</ele>
        <time>2017-01-18T12:16:09.096Z</time>
      </trkpt>
      <trkpt lat="42.97624" lon="-0.00627">
        <ele>1556</ele>
        <time>2017-01-18T12:16:10.096Z</time>
      </trkpt>
      <trkpt lat="42.97623" lon="-0.00627">
        <ele>1556</ele>
        <time>2017-01-18T12:16:11.096Z</time>
      </trkpt>
      <trkpt lat="42.97622" lon="-0.00627">
        <ele>1556</ele>
        <time>2017-01-18T12:16:12.096Z</time>
      </trkpt>
      <trkpt lat="42.97621" lon="-0.00628">
        <ele>1556</ele>
        <time>2017-01-18T12:16:13.096Z</time>
      </trkpt>
      <trkpt lat="42.97621" lon="-0.00628">
        <ele>1556</ele>
        <time>2017-01-18T12:16:14.096Z</time>
      </trkpt>
      <trkpt lat="42.9762" lon="-0.00628">
        <ele>1556</ele>
        <time>2017-01-18T12:16:15.096Z</time>
      </trkpt>
      <trkpt lat="42.97619" lon="-0.00628">
        <ele>1556</ele>
        <time>2017-01-18T12:16:16.096Z</time>
      </trkpt>
      <trkpt lat="42.97618" lon="-0.00629">
        <ele>1556</ele>
        <time>2017-01-18T12:16:17.096Z</time>
      </trkpt>
      <trkpt lat="42.97617" lon="-0.00629">
        <ele>1555</ele>
        <time>2017-01-18T12:16:18.096Z</time>
      </trkpt>
      <trkpt lat="42.97616" lon="-0.00629">
        <ele>1555</ele>
        <time>2017-01-18T12:16:19.096Z</time>
      </trkpt>
      <trkpt lat="42.97615" lon="-0.00629">
        <ele>1555</ele>
        <time>2017-01-18T12:16:20.096Z</time>
      </trkpt>
      <trkpt lat="42.97614" lon="-0.00629">
        <ele>1555</ele>
        <time>2017-01-18T12:16:21.096Z</time>
      </trkpt>
      <trkpt lat="42.97613" lon="-0.00629">
        <ele>1554</ele>
        <time>2017-01-18T12:16:22.096Z</time>
      </trkpt>
      <trkpt lat="42.97612" lon="-0.00629">
        <ele>1554</ele>
        <time>2017-01-18T12:16:23.096Z</time>
      </trkpt>
      <trkpt lat="42.97611" lon="-0.0063">
        <ele>1554</ele>
        <time>2017-01-18T12:16:24.096Z</time>
      </trkpt>
      <trkpt lat="42.9761" lon="-0.0063">
        <ele>1554</ele>
        <time>2017-01-18T12:16:25.096Z</time>
      </trkpt>
      <trkpt lat="42.97609" lon="-0.0063">
        <ele>1554</ele>
        <time>2017-01-18T12:16:26.096Z</time>
      </trkpt>
      <trkpt lat="42.97608" lon="-0.0063">
        <ele>1554</ele>
        <time>2017-01-18T12:16:27.096Z</time>
      </trkpt>
      <trkpt lat="42.97607" lon="-0.0063">
        <ele>1554</ele>
        <time>2017-01-18T12:16:28.096Z</time>
      </trkpt>
      <trkpt lat="42.97606" lon="-0.00631">
        <ele>1554</ele>
        <time>2017-01-18T12:16:29.096Z</time>
      </trkpt>
      <trkpt lat="42.97606" lon="-0.00631">
        <ele>1553</ele>
        <time>2017-01-18T12:16:30.096Z</time>
      </trkpt>
      <trkpt lat="42.97605" lon="-0.00631">
        <ele>1554</ele>
        <time>2017-01-18T12:16:31.096Z</time>
      </trkpt>
      <trkpt lat="42.97604" lon="-0.00631">
        <ele>1553</ele>
        <time>2017-01-18T12:16:32.096Z</time>
      </trkpt>
      <trkpt lat="42.97603" lon="-0.00631">
        <ele>1553</ele>
        <time>2017-01-18T12:16:33.096Z</time>
      </trkpt>
      <trkpt lat="42.97602" lon="-0.00631">
        <ele>1553</ele>
        <time>2017-01-18T12:16:34.096Z</time>
      </trkpt>
      <trkpt lat="42.97601" lon="-0.00632">
        <ele>1553</ele>
        <time>2017-01-18T12:16:35.096Z</time>
      </trkpt>
      <trkpt lat="42.976" lon="-0.00632">
        <ele>1553</ele>
        <time>2017-01-18T12:16:36.096Z</time>
      </trkpt>
      <trkpt lat="42.97599" lon="-0.00632">
        <ele>1553</ele>
        <time>2017-01-18T12:16:37.096Z</time>
      </trkpt>
      <trkpt lat="42.97598" lon="-0.00632">
        <ele>1553</ele>
        <time>2017-01-18T12:16:38.096Z</time>
      </trkpt>
      <trkpt lat="42.97597" lon="-0.00632">
        <ele>1552</ele>
        <time>2017-01-18T12:16:39.096Z</time>
      </trkpt>
      <trkpt lat="42.97596" lon="-0.00633">
        <ele>1552</ele>
        <time>2017-01-18T12:16:40.096Z</time>
      </trkpt>
      <trkpt lat="42.97595" lon="-0.00633">
        <ele>1552</ele>
        <time>2017-01-18T12:16:41.096Z</time>
      </trkpt>
      <trkpt lat="42.97594" lon="-0.00633">
        <ele>1552</ele>
        <time>2017-01-18T12:16:42.096Z</time>
      </trkpt>
      <trkpt lat="42.97593" lon="-0.00633">
        <ele>1552</ele>
        <time>2017-01-18T12:16:43.096Z</time>
      </trkpt>
      <trkpt lat="42.97593" lon="-0.00634">
        <ele>1552</ele>
        <time>2017-01-18T12:16:44.096Z</time>
      </trkpt>
      <trkpt lat="42.97592" lon="-0.00634">
        <ele>1552</ele>
        <time>2017-01-18T12:16:45.096Z</time>
      </trkpt>
      <trkpt lat="42.97591" lon="-0.00634">
        <ele>1552</ele>
        <time>2017-01-18T12:16:46.096Z</time>
      </trkpt>
      <trkpt lat="42.9759" lon="-0.00635">
        <ele>1552</ele>
        <time>2017-01-18T12:16:47.096Z</time>
      </trkpt>
      <trkpt lat="42.97589" lon="-0.00635">
        <ele>1552</ele>
        <time>2017-01-18T12:16:48.096Z</time>
      </trkpt>
      <trkpt lat="42.97588" lon="-0.00636">
        <ele>1552</ele>
        <time>2017-01-18T12:16:49.096Z</time>
      </trkpt>
      <trkpt lat="42.97587" lon="-0.00636">
        <ele>1552</ele>
        <time>2017-01-18T12:16:50.096Z</time>
      </trkpt>
      <trkpt lat="42.97586" lon="-0.00637">
        <ele>1552</ele>
        <time>2017-01-18T12:16:51.096Z</time>
      </trkpt>
      <trkpt lat="42.97585" lon="-0.00637">
        <ele>1553</ele>
        <time>2017-01-18T12:16:52.096Z</time>
      </trkpt>
      <trkpt lat="42.97584" lon="-0.00638">
        <ele>1552</ele>
        <time>2017-01-18T12:16:53.096Z</time>
      </trkpt>
      <trkpt lat="42.97583" lon="-0.00638">
        <ele>1552</ele>
        <time>2017-01-18T12:16:54.096Z</time>
      </trkpt>
      <trkpt lat="42.97583" lon="-0.00639">
        <ele>1552</ele>
        <time>2017-01-18T12:16:55.096Z</time>
      </trkpt>
      <trkpt lat="42.97582" lon="-0.00639">
        <ele>1552</ele>
        <time>2017-01-18T12:16:56.096Z</time>
      </trkpt>
      <trkpt lat="42.97581" lon="-0.0064">
        <ele>1552</ele>
        <time>2017-01-18T12:16:57.096Z</time>
      </trkpt>
      <trkpt lat="42.9758" lon="-0.0064">
        <ele>1552</ele>
        <time>2017-01-18T12:16:58.096Z</time>
      </trkpt>
      <trkpt lat="42.97579" lon="-0.00641">
        <ele>1552</ele>
        <time>2017-01-18T12:16:59.096Z</time>
      </trkpt>
      <trkpt lat="42.97578" lon="-0.00642">
        <ele>1552</ele>
        <time>2017-01-18T12:17:00.096Z</time>
      </trkpt>
      <trkpt lat="42.97577" lon="-0.00642">
        <ele>1552</ele>
        <time>2017-01-18T12:17:01.096Z</time>
      </trkpt>
      <trkpt lat="42.97577" lon="-0.00643">
        <ele>1552</ele>
        <time>2017-01-18T12:17:02.096Z</time>
      </trkpt>
      <trkpt lat="42.97576" lon="-0.00644">
        <ele>1553</ele>
        <time>2017-01-18T12:17:03.096Z</time>
      </trkpt>
      <trkpt lat="42.97575" lon="-0.00645">
        <ele>1553</ele>
        <time>2017-01-18T12:17:04.096Z</time>
      </trkpt>
      <trkpt lat="42.97574" lon="-0.00645">
        <ele>1553</ele>
        <time>2017-01-18T12:17:05.096Z</time>
      </trkpt>
      <trkpt lat="42.97574" lon="-0.00646">
        <ele>1553</ele>
        <time>2017-01-18T12:17:06.096Z</time>
      </trkpt>
      <trkpt lat="42.97573" lon="-0.00647">
        <ele>1553</ele>
        <time>2017-01-18T12:17:07.096Z</time>
      </trkpt>
      <trkpt lat="42.97572" lon="-0.00648">
        <ele>1553</ele>
        <time>2017-01-18T12:17:08.096Z</time>
      </trkpt>
      <trkpt lat="42.97571" lon="-0.00649">
        <ele>1553</ele>
        <time>2017-01-18T12:17:09.096Z</time>
      </trkpt>
      <trkpt lat="42.97571" lon="-0.0065">
        <ele>1553</ele>
        <time>2017-01-18T12:17:10.096Z</time>
      </trkpt>
      <trkpt lat="42.9757" lon="-0.00651">
        <ele>1553</ele>
        <time>2017-01-18T12:17:11.096Z</time>
      </trkpt>
      <trkpt lat="42.9757" lon="-0.00652">
        <ele>1553</ele>
        <time>2017-01-18T12:17:12.096Z</time>
      </trkpt>
      <trkpt lat="42.97569" lon="-0.00652">
        <ele>1553</ele>
        <time>2017-01-18T12:17:13.096Z</time>
      </trkpt>
      <trkpt lat="42.97569" lon="-0.00653">
        <ele>1552</ele>
        <time>2017-01-18T12:17:14.096Z</time>
      </trkpt>
      <trkpt lat="42.97568" lon="-0.00654">
        <ele>1552</ele>
        <time>2017-01-18T12:17:15.096Z</time>
      </trkpt>
      <trkpt lat="42.97567" lon="-0.00655">
        <ele>1552</ele>
        <time>2017-01-18T12:17:16.096Z</time>
      </trkpt>
      <trkpt lat="42.97567" lon="-0.00655">
        <ele>1552</ele>
        <time>2017-01-18T12:17:17.096Z</time>
      </trkpt>
      <trkpt lat="42.97566" lon="-0.00656">
        <ele>1552</ele>
        <time>2017-01-18T12:17:18.096Z</time>
      </trkpt>
      <trkpt lat="42.97565" lon="-0.00658">
        <ele>1552</ele>
        <time>2017-01-18T12:17:19.096Z</time>
      </trkpt>
      <trkpt lat="42.97565" lon="-0.00659">
        <ele>1552</ele>
        <time>2017-01-18T12:17:20.096Z</time>
      </trkpt>
      <trkpt lat="42.97564" lon="-0.0066">
        <ele>1551</ele>
        <time>2017-01-18T12:17:21.096Z</time>
      </trkpt>
      <trkpt lat="42.97563" lon="-0.00661">
        <ele>1551</ele>
        <time>2017-01-18T12:17:22.096Z</time>
      </trkpt>
      <trkpt lat="42.97563" lon="-0.00662">
        <ele>1552</ele>
        <time>2017-01-18T12:17:23.096Z</time>
      </trkpt>
      <trkpt lat="42.97562" lon="-0.00663">
        <ele>1551</ele>
        <time>2017-01-18T12:17:24.096Z</time>
      </trkpt>
      <trkpt lat="42.97562" lon="-0.00664">
        <ele>1551</ele>
        <time>2017-01-18T12:17:25.096Z</time>
      </trkpt>
      <trkpt lat="42.97561" lon="-0.00665">
        <ele>1551</ele>
        <time>2017-01-18T12:17:26.096Z</time>
      </trkpt>
      <trkpt lat="42.97561" lon="-0.00666">
        <ele>1551</ele>
        <time>2017-01-18T12:17:27.096Z</time>
      </trkpt>
      <trkpt lat="42.9756" lon="-0.00667">
        <ele>1551</ele>
        <time>2017-01-18T12:17:28.096Z</time>
      </trkpt>
      <trkpt lat="42.97559" lon="-0.00668">
        <ele>1552</ele>
        <time>2017-01-18T12:17:29.096Z</time>
      </trkpt>
      <trkpt lat="42.97559" lon="-0.00669">
        <ele>1552</ele>
        <time>2017-01-18T12:17:30.096Z</time>
      </trkpt>
      <trkpt lat="42.97558" lon="-0.0067">
        <ele>1551</ele>
        <time>2017-01-18T12:17:31.096Z</time>
      </trkpt>
      <trkpt lat="42.97558" lon="-0.00671">
        <ele>1551</ele>
        <time>2017-01-18T12:17:32.096Z</time>
      </trkpt>
      <trkpt lat="42.97557" lon="-0.00672">
        <ele>1551</ele>
        <time>2017-01-18T12:17:33.096Z</time>
      </trkpt>
      <trkpt lat="42.97557" lon="-0.00673">
        <ele>1551</ele>
        <time>2017-01-18T12:17:34.096Z</time>
      </trkpt>
      <trkpt lat="42.97556" lon="-0.00675">
        <ele>1551</ele>
        <time>2017-01-18T12:17:35.096Z</time>
      </trkpt>
      <trkpt lat="42.97556" lon="-0.00676">
        <ele>1551</ele>
        <time>2017-01-18T12:17:36.096Z</time>
      </trkpt>
      <trkpt lat="42.97555" lon="-0.00677">
        <ele>1551</ele>
        <time>2017-01-18T12:17:37.096Z</time>
      </trkpt>
      <trkpt lat="42.97555" lon="-0.00678">
        <ele>1551</ele>
        <time>2017-01-18T12:17:38.096Z</time>
      </trkpt>
      <trkpt lat="42.97554" lon="-0.0068">
        <ele>1551</ele>
        <time>2017-01-18T12:17:39.096Z</time>
      </trkpt>
      <trkpt lat="42.97554" lon="-0.00681">
        <ele>1551</ele>
        <time>2017-01-18T12:17:40.096Z</time>
      </trkpt>
      <trkpt lat="42.97553" lon="-0.00682">
        <ele>1551</ele>
        <time>2017-01-18T12:17:41.096Z</time>
      </trkpt>
      <trkpt lat="42.97553" lon="-0.00683">
        <ele>1551</ele>
        <time>2017-01-18T12:17:42.096Z</time>
      </trkpt>
      <trkpt lat="42.97552" lon="-0.00685">
        <ele>1550</ele>
        <time>2017-01-18T12:17:43.096Z</time>
      </trkpt>
      <trkpt lat="42.97552" lon="-0.00686">
        <ele>1550</ele>
        <time>2017-01-18T12:17:44.096Z</time>
      </trkpt>
      <trkpt lat="42.97552" lon="-0.00687">
        <ele>1550</ele>
        <time>2017-01-18T12:17:45.096Z</time>
      </trkpt>
      <trkpt lat="42.97551" lon="-0.00688">
        <ele>1550</ele>
        <time>2017-01-18T12:17:46.096Z</time>
      </trkpt>
      <trkpt lat="42.97551" lon="-0.0069">
        <ele>1550</ele>
        <time>2017-01-18T12:17:47.096Z</time>
      </trkpt>
      <trkpt lat="42.97551" lon="-0.00691">
        <ele>1550</ele>
        <time>2017-01-18T12:17:48.096Z</time>
      </trkpt>
      <trkpt lat="42.97551" lon="-0.00693">
        <ele>1550</ele>
        <time>2017-01-18T12:17:49.096Z</time>
      </trkpt>
      <trkpt lat="42.9755" lon="-0.00694">
        <ele>1550</ele>
        <time>2017-01-18T12:17:50.096Z</time>
      </trkpt>
      <trkpt lat="42.9755" lon="-0.00695">
        <ele>1550</ele>
        <time>2017-01-18T12:17:51.096Z</time>
      </trkpt>
      <trkpt lat="42.97549" lon="-0.00696">
        <ele>1550</ele>
        <time>2017-01-18T12:17:52.096Z</time>
      </trkpt>
      <trkpt lat="42.97549" lon="-0.00698">
        <ele>1550</ele>
        <time>2017-01-18T12:17:53.096Z</time>
      </trkpt>
      <trkpt lat="42.97549" lon="-0.00699">
        <ele>1550</ele>
        <time>2017-01-18T12:17:54.096Z</time>
      </trkpt>
      <trkpt lat="42.97548" lon="-0.007">
        <ele>1549</ele>
        <time>2017-01-18T12:17:55.096Z</time>
      </trkpt>
      <trkpt lat="42.97548" lon="-0.00701">
        <ele>1549</ele>
        <time>2017-01-18T12:17:56.096Z</time>
      </trkpt>
      <trkpt lat="42.97547" lon="-0.00702">
        <ele>1549</ele>
        <time>2017-01-18T12:17:57.096Z</time>
      </trkpt>
      <trkpt lat="42.97547" lon="-0.00703">
        <ele>1549</ele>
        <time>2017-01-18T12:17:58.096Z</time>
      </trkpt>
      <trkpt lat="42.97547" lon="-0.00704">
        <ele>1549</ele>
        <time>2017-01-18T12:17:59.096Z</time>
      </trkpt>
      <trkpt lat="42.97546" lon="-0.00705">
        <ele>1549</ele>
        <time>2017-01-18T12:18:00.096Z</time>
      </trkpt>
      <trkpt lat="42.97546" lon="-0.00707">
        <ele>1549</ele>
        <time>2017-01-18T12:18:01.096Z</time>
      </trkpt>
      <trkpt lat="42.97545" lon="-0.00708">
        <ele>1549</ele>
        <time>2017-01-18T12:18:02.096Z</time>
      </trkpt>
      <trkpt lat="42.97545" lon="-0.00709">
        <ele>1549</ele>
        <time>2017-01-18T12:18:03.096Z</time>
      </trkpt>
      <trkpt lat="42.97545" lon="-0.0071">
        <ele>1548</ele>
        <time>2017-01-18T12:18:04.096Z</time>
      </trkpt>
      <trkpt lat="42.97544" lon="-0.00711">
        <ele>1548</ele>
        <time>2017-01-18T12:18:05.096Z</time>
      </trkpt>
      <trkpt lat="42.97544" lon="-0.00713">
        <ele>1548</ele>
        <time>2017-01-18T12:18:06.096Z</time>
      </trkpt>
      <trkpt lat="42.97544" lon="-0.00714">
        <ele>1548</ele>
        <time>2017-01-18T12:18:07.096Z</time>
      </trkpt>
      <trkpt lat="42.97543" lon="-0.00715">
        <ele>1548</ele>
        <time>2017-01-18T12:18:08.096Z</time>
      </trkpt>
      <trkpt lat="42.97543" lon="-0.00717">
        <ele>1547</ele>
        <time>2017-01-18T12:18:09.096Z</time>
      </trkpt>
      <trkpt lat="42.97542" lon="-0.00718">
        <ele>1547</ele>
        <time>2017-01-18T12:18:10.096Z</time>
      </trkpt>
      <trkpt lat="42.97542" lon="-0.00719">
        <ele>1547</ele>
        <time>2017-01-18T12:18:11.096Z</time>
      </trkpt>
      <trkpt lat="42.97541" lon="-0.00721">
        <ele>1547</ele>
        <time>2017-01-18T12:18:12.096Z</time>
      </trkpt>
      <trkpt lat="42.97541" lon="-0.00721">
        <ele>1547</ele>
        <time>2017-01-18T12:18:13.096Z</time>
      </trkpt>
      <trkpt lat="42.97541" lon="-0.00722">
        <ele>1547</ele>
        <time>2017-01-18T12:18:14.096Z</time>
      </trkpt>
      <trkpt lat="42.97541" lon="-0.00723">
        <ele>1547</ele>
        <time>2017-01-18T12:18:15.096Z</time>
      </trkpt>
      <trkpt lat="42.9754" lon="-0.00724">
        <ele>1547</ele>
        <time>2017-01-18T12:18:16.096Z</time>
      </trkpt>
      <trkpt lat="42.9754" lon="-0.00725">
        <ele>1547</ele>
        <time>2017-01-18T12:18:17.096Z</time>
      </trkpt>
      <trkpt lat="42.9754" lon="-0.00727">
        <ele>1546</ele>
        <time>2017-01-18T12:18:18.096Z</time>
      </trkpt>
      <trkpt lat="42.97539" lon="-0.00729">
        <ele>1546</ele>
        <time>2017-01-18T12:18:19.096Z</time>
      </trkpt>
      <trkpt lat="42.97539" lon="-0.00729">
        <ele>1546</ele>
        <time>2017-01-18T12:18:20.096Z</time>
      </trkpt>
      <trkpt lat="42.97538" lon="-0.0073">
        <ele>1546</ele>
        <time>2017-01-18T12:18:21.096Z</time>
      </trkpt>
      <trkpt lat="42.97538" lon="-0.00732">
        <ele>1546</ele>
        <time>2017-01-18T12:18:22.096Z</time>
      </trkpt>
      <trkpt lat="42.97538" lon="-0.00733">
        <ele>1546</ele>
        <time>2017-01-18T12:18:23.096Z</time>
      </trkpt>
      <trkpt lat="42.97537" lon="-0.00734">
        <ele>1546</ele>
        <time>2017-01-18T12:18:24.096Z</time>
      </trkpt>
      <trkpt lat="42.97537" lon="-0.00735">
        <ele>1546</ele>
        <time>2017-01-18T12:18:25.096Z</time>
      </trkpt>
      <trkpt lat="42.97537" lon="-0.00736">
        <ele>1546</ele>
        <time>2017-01-18T12:18:26.096Z</time>
      </trkpt>
      <trkpt lat="42.97536" lon="-0.00737">
        <ele>1546</ele>
        <time>2017-01-18T12:18:27.096Z</time>
      </trkpt>
      <trkpt lat="42.97536" lon="-0.00738">
        <ele>1546</ele>
        <time>2017-01-18T12:18:28.096Z</time>
      </trkpt>
      <trkpt lat="42.97536" lon="-0.00739">
        <ele>1546</ele>
        <time>2017-01-18T12:18:29.096Z</time>
      </trkpt>
      <trkpt lat="42.97535" lon="-0.0074">
        <ele>1546</ele>
        <time>2017-01-18T12:18:30.096Z</time>
      </trkpt>
      <trkpt lat="42.97535" lon="-0.00741">
        <ele>1546</ele>
        <time>2017-01-18T12:18:31.096Z</time>
      </trkpt>
      <trkpt lat="42.97535" lon="-0.00743">
        <ele>1546</ele>
        <time>2017-01-18T12:18:32.096Z</time>
      </trkpt>
      <trkpt lat="42.97535" lon="-0.00744">
        <ele>1545</ele>
        <time>2017-01-18T12:18:33.096Z</time>
      </trkpt>
      <trkpt lat="42.97534" lon="-0.00745">
        <ele>1545</ele>
        <time>2017-01-18T12:18:34.096Z</time>
      </trkpt>
      <trkpt lat="42.97534" lon="-0.00746">
        <ele>1545</ele>
        <time>2017-01-18T12:18:35.096Z</time>
      </trkpt>
      <trkpt lat="42.97534" lon="-0.00747">
        <ele>1545</ele>
        <time>2017-01-18T12:18:36.096Z</time>
      </trkpt>
      <trkpt lat="42.97534" lon="-0.00748">
        <ele>1545</ele>
        <time>2017-01-18T12:18:37.096Z</time>
      </trkpt>
      <trkpt lat="42.97533" lon="-0.00749">
        <ele>1545</ele>
        <time>2017-01-18T12:18:38.096Z</time>
      </trkpt>
      <trkpt lat="42.97533" lon="-0.0075">
        <ele>1545</ele>
        <time>2017-01-18T12:18:39.096Z</time>
      </trkpt>
      <trkpt lat="42.97533" lon="-0.00751">
        <ele>1545</ele>
        <time>2017-01-18T12:18:40.096Z</time>
      </trkpt>
      <trkpt lat="42.97532" lon="-0.00753">
        <ele>1545</ele>
        <time>2017-01-18T12:18:41.096Z</time>
      </trkpt>
      <trkpt lat="42.97532" lon="-0.00753">
        <ele>1545</ele>
        <time>2017-01-18T12:18:42.096Z</time>
      </trkpt>
      <trkpt lat="42.97532" lon="-0.00754">
        <ele>1545</ele>
        <time>2017-01-18T12:18:43.096Z</time>
      </trkpt>
      <trkpt lat="42.97532" lon="-0.00755">
        <ele>1544</ele>
        <time>2017-01-18T12:18:44.096Z</time>
      </trkpt>
      <trkpt lat="42.97532" lon="-0.00756">
        <ele>1545</ele>
        <time>2017-01-18T12:18:45.096Z</time>
      </trkpt>
      <trkpt lat="42.97532" lon="-0.00757">
        <ele>1544</ele>
        <time>2017-01-18T12:18:46.096Z</time>
      </trkpt>
      <trkpt lat="42.97532" lon="-0.00758">
        <ele>1544</ele>
        <time>2017-01-18T12:18:47.096Z</time>
      </trkpt>
      <trkpt lat="42.97531" lon="-0.0076">
        <ele>1545</ele>
        <time>2017-01-18T12:18:48.096Z</time>
      </trkpt>
      <trkpt lat="42.97531" lon="-0.0076">
        <ele>1545</ele>
        <time>2017-01-18T12:18:49.096Z</time>
      </trkpt>
      <trkpt lat="42.97531" lon="-0.00763">
        <ele>1544</ele>
        <time>2017-01-18T12:18:50.096Z</time>
      </trkpt>
      <trkpt lat="42.97531" lon="-0.00763">
        <ele>1544</ele>
        <time>2017-01-18T12:18:51.096Z</time>
      </trkpt>
      <trkpt lat="42.97531" lon="-0.00766">
        <ele>1544</ele>
        <time>2017-01-18T12:18:52.096Z</time>
      </trkpt>
      <trkpt lat="42.97531" lon="-0.00766">
        <ele>1544</ele>
        <time>2017-01-18T12:18:53.096Z</time>
      </trkpt>
      <trkpt lat="42.97531" lon="-0.00767">
        <ele>1544</ele>
        <time>2017-01-18T12:18:54.096Z</time>
      </trkpt>
      <trkpt lat="42.97531" lon="-0.00768">
        <ele>1543</ele>
        <time>2017-01-18T12:18:55.096Z</time>
      </trkpt>
      <trkpt lat="42.97531" lon="-0.00769">
        <ele>1543</ele>
        <time>2017-01-18T12:18:56.096Z</time>
      </trkpt>
      <trkpt lat="42.97532" lon="-0.00772">
        <ele>1543</ele>
        <time>2017-01-18T12:18:57.096Z</time>
      </trkpt>
      <trkpt lat="42.97532" lon="-0.00772">
        <ele>1543</ele>
        <time>2017-01-18T12:18:58.096Z</time>
      </trkpt>
      <trkpt lat="42.97532" lon="-0.00775">
        <ele>1543</ele>
        <time>2017-01-18T12:18:59.096Z</time>
      </trkpt>
      <trkpt lat="42.97532" lon="-0.00775">
        <ele>1543</ele>
        <time>2017-01-18T12:19:00.096Z</time>
      </trkpt>
      <trkpt lat="42.97532" lon="-0.00776">
        <ele>1543</ele>
        <time>2017-01-18T12:19:01.096Z</time>
      </trkpt>
      <trkpt lat="42.97533" lon="-0.00779">
        <ele>1542</ele>
        <time>2017-01-18T12:19:02.096Z</time>
      </trkpt>
      <trkpt lat="42.97533" lon="-0.00779">
        <ele>1542</ele>
        <time>2017-01-18T12:19:03.096Z</time>
      </trkpt>
      <trkpt lat="42.97533" lon="-0.0078">
        <ele>1542</ele>
        <time>2017-01-18T12:19:04.096Z</time>
      </trkpt>
      <trkpt lat="42.97533" lon="-0.00781">
        <ele>1542</ele>
        <time>2017-01-18T12:19:05.096Z</time>
      </trkpt>
      <trkpt lat="42.97533" lon="-0.00783">
        <ele>1542</ele>
        <time>2017-01-18T12:19:06.096Z</time>
      </trkpt>
      <trkpt lat="42.97534" lon="-0.00785">
        <ele>1541</ele>
        <time>2017-01-18T12:19:07.096Z</time>
      </trkpt>
      <trkpt lat="42.97534" lon="-0.00785">
        <ele>1541</ele>
        <time>2017-01-18T12:19:08.096Z</time>
      </trkpt>
      <trkpt lat="42.97534" lon="-0.00786">
        <ele>1542</ele>
        <time>2017-01-18T12:19:09.096Z</time>
      </trkpt>
      <trkpt lat="42.97534" lon="-0.00789">
        <ele>1541</ele>
        <time>2017-01-18T12:19:10.096Z</time>
      </trkpt>
      <trkpt lat="42.97534" lon="-0.00789">
        <ele>1541</ele>
        <time>2017-01-18T12:19:11.096Z</time>
      </trkpt>
      <trkpt lat="42.97535" lon="-0.0079">
        <ele>1541</ele>
        <time>2017-01-18T12:19:12.096Z</time>
      </trkpt>
      <trkpt lat="42.97535" lon="-0.00791">
        <ele>1541</ele>
        <time>2017-01-18T12:19:13.096Z</time>
      </trkpt>
      <trkpt lat="42.97535" lon="-0.00793">
        <ele>1541</ele>
        <time>2017-01-18T12:19:14.096Z</time>
      </trkpt>
      <trkpt lat="42.97535" lon="-0.00794">
        <ele>1541</ele>
        <time>2017-01-18T12:19:15.096Z</time>
      </trkpt>
      <trkpt lat="42.97536" lon="-0.00795">
        <ele>1541</ele>
        <time>2017-01-18T12:19:16.096Z</time>
      </trkpt>
      <trkpt lat="42.97536" lon="-0.00796">
        <ele>1541</ele>
        <time>2017-01-18T12:19:17.096Z</time>
      </trkpt>
      <trkpt lat="42.97536" lon="-0.00798">
        <ele>1541</ele>
        <time>2017-01-18T12:19:18.096Z</time>
      </trkpt>
      <trkpt lat="42.97537" lon="-0.008">
        <ele>1540</ele>
        <time>2017-01-18T12:19:19.096Z</time>
      </trkpt>
      <trkpt lat="42.97537" lon="-0.008">
        <ele>1540</ele>
        <time>2017-01-18T12:19:20.096Z</time>
      </trkpt>
      <trkpt lat="42.97538" lon="-0.00803">
        <ele>1540</ele>
        <time>2017-01-18T12:19:21.096Z</time>
      </trkpt>
      <trkpt lat="42.97538" lon="-0.00803">
        <ele>1540</ele>
        <time>2017-01-18T12:19:22.096Z</time>
      </trkpt>
      <trkpt lat="42.97538" lon="-0.00804">
        <ele>1540</ele>
        <time>2017-01-18T12:19:23.096Z</time>
      </trkpt>
      <trkpt lat="42.97539" lon="-0.00805">
        <ele>1540</ele>
        <time>2017-01-18T12:19:24.096Z</time>
      </trkpt>
      <trkpt lat="42.97539" lon="-0.00807">
        <ele>1540</ele>
        <time>2017-01-18T12:19:25.096Z</time>
      </trkpt>
      <trkpt lat="42.97539" lon="-0.00808">
        <ele>1540</ele>
        <time>2017-01-18T12:19:26.096Z</time>
      </trkpt>
      <trkpt lat="42.9754" lon="-0.0081">
        <ele>1539</ele>
        <time>2017-01-18T12:19:27.096Z</time>
      </trkpt>
      <trkpt lat="42.9754" lon="-0.00811">
        <ele>1539</ele>
        <time>2017-01-18T12:19:28.096Z</time>
      </trkpt>
      <trkpt lat="42.9754" lon="-0.00811">
        <ele>1539</ele>
        <time>2017-01-18T12:19:29.096Z</time>
      </trkpt>
      <trkpt lat="42.97541" lon="-0.00812">
        <ele>1539</ele>
        <time>2017-01-18T12:19:30.096Z</time>
      </trkpt>
      <trkpt lat="42.97541" lon="-0.00814">
        <ele>1539</ele>
        <time>2017-01-18T12:19:31.096Z</time>
      </trkpt>
      <trkpt lat="42.97542" lon="-0.00815">
        <ele>1539</ele>
        <time>2017-01-18T12:19:32.096Z</time>
      </trkpt>
      <trkpt lat="42.97542" lon="-0.00816">
        <ele>1539</ele>
        <time>2017-01-18T12:19:33.096Z</time>
      </trkpt>
      <trkpt lat="42.97543" lon="-0.00817">
        <ele>1539</ele>
        <time>2017-01-18T12:19:34.096Z</time>
      </trkpt>
      <trkpt lat="42.97543" lon="-0.00819">
        <ele>1539</ele>
        <time>2017-01-18T12:19:35.096Z</time>
      </trkpt>
      <trkpt lat="42.97543" lon="-0.0082">
        <ele>1539</ele>
        <time>2017-01-18T12:19:36.096Z</time>
      </trkpt>
      <trkpt lat="42.97544" lon="-0.00821">
        <ele>1539</ele>
        <time>2017-01-18T12:19:37.096Z</time>
      </trkpt>
      <trkpt lat="42.97544" lon="-0.00822">
        <ele>1539</ele>
        <time>2017-01-18T12:19:38.096Z</time>
      </trkpt>
      <trkpt lat="42.97545" lon="-0.00825">
        <ele>1539</ele>
        <time>2017-01-18T12:19:39.096Z</time>
      </trkpt>
      <trkpt lat="42.97545" lon="-0.00825">
        <ele>1539</ele>
        <time>2017-01-18T12:19:40.096Z</time>
      </trkpt>
      <trkpt lat="42.97545" lon="-0.00826">
        <ele>1538</ele>
        <time>2017-01-18T12:19:41.096Z</time>
      </trkpt>
      <trkpt lat="42.97546" lon="-0.00827">
        <ele>1538</ele>
        <time>2017-01-18T12:19:42.096Z</time>
      </trkpt>
      <trkpt lat="42.97546" lon="-0.00828">
        <ele>1538</ele>
        <time>2017-01-18T12:19:43.096Z</time>
      </trkpt>
      <trkpt lat="42.97547" lon="-0.00829">
        <ele>1538</ele>
        <time>2017-01-18T12:19:44.096Z</time>
      </trkpt>
      <trkpt lat="42.97547" lon="-0.0083">
        <ele>1538</ele>
        <time>2017-01-18T12:19:45.096Z</time>
      </trkpt>
      <trkpt lat="42.97547" lon="-0.00831">
        <ele>1538</ele>
        <time>2017-01-18T12:19:46.096Z</time>
      </trkpt>
      <trkpt lat="42.97548" lon="-0.00834">
        <ele>1538</ele>
        <time>2017-01-18T12:19:47.096Z</time>
      </trkpt>
      <trkpt lat="42.97548" lon="-0.00834">
        <ele>1538</ele>
        <time>2017-01-18T12:19:48.096Z</time>
      </trkpt>
      <trkpt lat="42.97549" lon="-0.00836">
        <ele>1538</ele>
        <time>2017-01-18T12:19:49.096Z</time>
      </trkpt>
      <trkpt lat="42.9755" lon="-0.00838">
        <ele>1538</ele>
        <time>2017-01-18T12:19:50.096Z</time>
      </trkpt>
      <trkpt lat="42.9755" lon="-0.00838">
        <ele>1538</ele>
        <time>2017-01-18T12:19:51.096Z</time>
      </trkpt>
      <trkpt lat="42.97551" lon="-0.0084">
        <ele>1537</ele>
        <time>2017-01-18T12:19:52.096Z</time>
      </trkpt>
      <trkpt lat="42.97551" lon="-0.0084">
        <ele>1537</ele>
        <time>2017-01-18T12:19:53.096Z</time>
      </trkpt>
      <trkpt lat="42.97551" lon="-0.00841">
        <ele>1537</ele>
        <time>2017-01-18T12:19:54.096Z</time>
      </trkpt>
      <trkpt lat="42.97552" lon="-0.00842">
        <ele>1537</ele>
        <time>2017-01-18T12:19:55.096Z</time>
      </trkpt>
      <trkpt lat="42.97552" lon="-0.00843">
        <ele>1537</ele>
        <time>2017-01-18T12:19:56.096Z</time>
      </trkpt>
      <trkpt lat="42.97553" lon="-0.00846">
        <ele>1536</ele>
        <time>2017-01-18T12:19:57.096Z</time>
      </trkpt>
      <trkpt lat="42.97553" lon="-0.00846">
        <ele>1536</ele>
        <time>2017-01-18T12:19:58.096Z</time>
      </trkpt>
      <trkpt lat="42.97554" lon="-0.00847">
        <ele>1536</ele>
        <time>2017-01-18T12:19:59.096Z</time>
      </trkpt>
      <trkpt lat="42.97554" lon="-0.00848">
        <ele>1536</ele>
        <time>2017-01-18T12:20:00.096Z</time>
      </trkpt>
      <trkpt lat="42.97555" lon="-0.0085">
        <ele>1536</ele>
        <time>2017-01-18T12:20:01.096Z</time>
      </trkpt>
      <trkpt lat="42.97555" lon="-0.0085">
        <ele>1536</ele>
        <time>2017-01-18T12:20:02.096Z</time>
      </trkpt>
      <trkpt lat="42.97556" lon="-0.00852">
        <ele>1536</ele>
        <time>2017-01-18T12:20:03.096Z</time>
      </trkpt>
      <trkpt lat="42.97557" lon="-0.00854">
        <ele>1536</ele>
        <time>2017-01-18T12:20:04.096Z</time>
      </trkpt>
      <trkpt lat="42.97557" lon="-0.00854">
        <ele>1536</ele>
        <time>2017-01-18T12:20:05.096Z</time>
      </trkpt>
      <trkpt lat="42.97557" lon="-0.00855">
        <ele>1536</ele>
        <time>2017-01-18T12:20:06.096Z</time>
      </trkpt>
      <trkpt lat="42.97558" lon="-0.00858">
        <ele>1535</ele>
        <time>2017-01-18T12:20:07.096Z</time>
      </trkpt>
      <trkpt lat="42.97558" lon="-0.00859">
        <ele>1535</ele>
        <time>2017-01-18T12:20:08.096Z</time>
      </trkpt>
      <trkpt lat="42.97559" lon="-0.0086">
        <ele>1535</ele>
        <time>2017-01-18T12:20:09.096Z</time>
      </trkpt>
      <trkpt lat="42.97559" lon="-0.00861">
        <ele>1535</ele>
        <time>2017-01-18T12:20:10.096Z</time>
      </trkpt>
      <trkpt lat="42.97559" lon="-0.00861">
        <ele>1535</ele>
        <time>2017-01-18T12:20:11.096Z</time>
      </trkpt>
      <trkpt lat="42.9756" lon="-0.00863">
        <ele>1535</ele>
        <time>2017-01-18T12:20:12.096Z</time>
      </trkpt>
      <trkpt lat="42.9756" lon="-0.00863">
        <ele>1535</ele>
        <time>2017-01-18T12:20:13.096Z</time>
      </trkpt>
      <trkpt lat="42.9756" lon="-0.00864">
        <ele>1535</ele>
        <time>2017-01-18T12:20:14.096Z</time>
      </trkpt>
      <trkpt lat="42.97561" lon="-0.00865">
        <ele>1535</ele>
        <time>2017-01-18T12:20:15.096Z</time>
      </trkpt>
      <trkpt lat="42.97561" lon="-0.00868">
        <ele>1534</ele>
        <time>2017-01-18T12:20:16.096Z</time>
      </trkpt>
      <trkpt lat="42.97561" lon="-0.00869">
        <ele>1535</ele>
        <time>2017-01-18T12:20:17.096Z</time>
      </trkpt>
      <trkpt lat="42.97561" lon="-0.0087">
        <ele>1534</ele>
        <time>2017-01-18T12:20:18.096Z</time>
      </trkpt>
      <trkpt lat="42.97562" lon="-0.00871">
        <ele>1534</ele>
        <time>2017-01-18T12:20:19.096Z</time>
      </trkpt>
      <trkpt lat="42.97562" lon="-0.00872">
        <ele>1534</ele>
        <time>2017-01-18T12:20:20.096Z</time>
      </trkpt>
      <trkpt lat="42.97562" lon="-0.00873">
        <ele>1534</ele>
        <time>2017-01-18T12:20:21.096Z</time>
      </trkpt>
      <trkpt lat="42.97562" lon="-0.00875">
        <ele>1534</ele>
        <time>2017-01-18T12:20:22.096Z</time>
      </trkpt>
      <trkpt lat="42.97562" lon="-0.00876">
        <ele>1534</ele>
        <time>2017-01-18T12:20:23.096Z</time>
      </trkpt>
      <trkpt lat="42.97562" lon="-0.00878">
        <ele>1534</ele>
        <time>2017-01-18T12:20:24.096Z</time>
      </trkpt>
      <trkpt lat="42.97562" lon="-0.00878">
        <ele>1534</ele>
        <time>2017-01-18T12:20:25.096Z</time>
      </trkpt>
      <trkpt lat="42.97563" lon="-0.0088">
        <ele>1534</ele>
        <time>2017-01-18T12:20:26.096Z</time>
      </trkpt>
      <trkpt lat="42.97563" lon="-0.0088">
        <ele>1534</ele>
        <time>2017-01-18T12:20:27.096Z</time>
      </trkpt>
      <trkpt lat="42.97564" lon="-0.00883">
        <ele>1534</ele>
        <time>2017-01-18T12:20:28.096Z</time>
      </trkpt>
      <trkpt lat="42.97564" lon="-0.00883">
        <ele>1534</ele>
        <time>2017-01-18T12:20:29.096Z</time>
      </trkpt>
      <trkpt lat="42.97564" lon="-0.00885">
        <ele>1533</ele>
        <time>2017-01-18T12:20:30.096Z</time>
      </trkpt>
      <trkpt lat="42.97564" lon="-0.00885">
        <ele>1533</ele>
        <time>2017-01-18T12:20:31.096Z</time>
      </trkpt>
      <trkpt lat="42.97565" lon="-0.00888">
        <ele>1533</ele>
        <time>2017-01-18T12:20:32.096Z</time>
      </trkpt>
      <trkpt lat="42.97566" lon="-0.00889">
        <ele>1533</ele>
        <time>2017-01-18T12:20:33.096Z</time>
      </trkpt>
      <trkpt lat="42.97566" lon="-0.0089">
        <ele>1533</ele>
        <time>2017-01-18T12:20:34.096Z</time>
      </trkpt>
      <trkpt lat="42.97566" lon="-0.0089">
        <ele>1533</ele>
        <time>2017-01-18T12:20:35.096Z</time>
      </trkpt>
      <trkpt lat="42.97566" lon="-0.00893">
        <ele>1533</ele>
        <time>2017-01-18T12:20:36.096Z</time>
      </trkpt>
      <trkpt lat="42.97567" lon="-0.00894">
        <ele>1533</ele>
        <time>2017-01-18T12:20:37.096Z</time>
      </trkpt>
      <trkpt lat="42.97567" lon="-0.00895">
        <ele>1533</ele>
        <time>2017-01-18T12:20:38.096Z</time>
      </trkpt>
      <trkpt lat="42.97567" lon="-0.00895">
        <ele>1533</ele>
        <time>2017-01-18T12:20:39.096Z</time>
      </trkpt>
      <trkpt lat="42.97567" lon="-0.00896">
        <ele>1533</ele>
        <time>2017-01-18T12:20:40.096Z</time>
      </trkpt>
      <trkpt lat="42.97567" lon="-0.00899">
        <ele>1533</ele>
        <time>2017-01-18T12:20:41.096Z</time>
      </trkpt>
      <trkpt lat="42.97567" lon="-0.00899">
        <ele>1533</ele>
        <time>2017-01-18T12:20:42.096Z</time>
      </trkpt>
      <trkpt lat="42.97568" lon="-0.009">
        <ele>1532</ele>
        <time>2017-01-18T12:20:43.096Z</time>
      </trkpt>
      <trkpt lat="42.97568" lon="-0.00903">
        <ele>1532</ele>
        <time>2017-01-18T12:20:44.096Z</time>
      </trkpt>
      <trkpt lat="42.97568" lon="-0.00904">
        <ele>1532</ele>
        <time>2017-01-18T12:20:45.096Z</time>
      </trkpt>
      <trkpt lat="42.97568" lon="-0.00906">
        <ele>1532</ele>
        <time>2017-01-18T12:20:46.096Z</time>
      </trkpt>
      <trkpt lat="42.97568" lon="-0.00907">
        <ele>1532</ele>
        <time>2017-01-18T12:20:47.096Z</time>
      </trkpt>
      <trkpt lat="42.97568" lon="-0.00908">
        <ele>1531</ele>
        <time>2017-01-18T12:20:48.096Z</time>
      </trkpt>
      <trkpt lat="42.97568" lon="-0.0091">
        <ele>1531</ele>
        <time>2017-01-18T12:20:49.096Z</time>
      </trkpt>
      <trkpt lat="42.97568" lon="-0.00911">
        <ele>1531</ele>
        <time>2017-01-18T12:20:50.096Z</time>
      </trkpt>
      <trkpt lat="42.97568" lon="-0.00912">
        <ele>1531</ele>
        <time>2017-01-18T12:20:51.096Z</time>
      </trkpt>
      <trkpt lat="42.97568" lon="-0.00913">
        <ele>1531</ele>
        <time>2017-01-18T12:20:52.096Z</time>
      </trkpt>
      <trkpt lat="42.97568" lon="-0.00915">
        <ele>1531</ele>
        <time>2017-01-18T12:20:53.096Z</time>
      </trkpt>
      <trkpt lat="42.97568" lon="-0.00916">
        <ele>1530</ele>
        <time>2017-01-18T12:20:54.096Z</time>
      </trkpt>
      <trkpt lat="42.97568" lon="-0.00917">
        <ele>1530</ele>
        <time>2017-01-18T12:20:55.096Z</time>
      </trkpt>
      <trkpt lat="42.97568" lon="-0.00919">
        <ele>1530</ele>
        <time>2017-01-18T12:20:56.096Z</time>
      </trkpt>
      <trkpt lat="42.97567" lon="-0.0092">
        <ele>1530</ele>
        <time>2017-01-18T12:20:57.096Z</time>
      </trkpt>
      <trkpt lat="42.97567" lon="-0.0092">
        <ele>1530</ele>
        <time>2017-01-18T12:20:58.096Z</time>
      </trkpt>
      <trkpt lat="42.97567" lon="-0.00923">
        <ele>1530</ele>
        <time>2017-01-18T12:20:59.096Z</time>
      </trkpt>
      <trkpt lat="42.97567" lon="-0.00924">
        <ele>1530</ele>
        <time>2017-01-18T12:21:00.096Z</time>
      </trkpt>
      <trkpt lat="42.97567" lon="-0.00925">
        <ele>1530</ele>
        <time>2017-01-18T12:21:01.096Z</time>
      </trkpt>
      <trkpt lat="42.97567" lon="-0.00927">
        <ele>1530</ele>
        <time>2017-01-18T12:21:02.096Z</time>
      </trkpt>
      <trkpt lat="42.97566" lon="-0.00928">
        <ele>1530</ele>
        <time>2017-01-18T12:21:03.096Z</time>
      </trkpt>
      <trkpt lat="42.97566" lon="-0.00929">
        <ele>1530</ele>
        <time>2017-01-18T12:21:04.096Z</time>
      </trkpt>
      <trkpt lat="42.97566" lon="-0.0093">
        <ele>1530</ele>
        <time>2017-01-18T12:21:05.096Z</time>
      </trkpt>
      <trkpt lat="42.97566" lon="-0.00932">
        <ele>1530</ele>
        <time>2017-01-18T12:21:06.096Z</time>
      </trkpt>
      <trkpt lat="42.97566" lon="-0.00933">
        <ele>1529</ele>
        <time>2017-01-18T12:21:07.096Z</time>
      </trkpt>
      <trkpt lat="42.97566" lon="-0.00933">
        <ele>1529</ele>
        <time>2017-01-18T12:21:08.096Z</time>
      </trkpt>
      <trkpt lat="42.97566" lon="-0.00936">
        <ele>1530</ele>
        <time>2017-01-18T12:21:09.096Z</time>
      </trkpt>
      <trkpt lat="42.97566" lon="-0.00937">
        <ele>1530</ele>
        <time>2017-01-18T12:21:10.096Z</time>
      </trkpt>
      <trkpt lat="42.97567" lon="-0.00938">
        <ele>1529</ele>
        <time>2017-01-18T12:21:11.096Z</time>
      </trkpt>
      <trkpt lat="42.97567" lon="-0.00939">
        <ele>1530</ele>
        <time>2017-01-18T12:21:12.096Z</time>
      </trkpt>
      <trkpt lat="42.97567" lon="-0.0094">
        <ele>1530</ele>
        <time>2017-01-18T12:21:13.096Z</time>
      </trkpt>
      <trkpt lat="42.97566" lon="-0.00941">
        <ele>1529</ele>
        <time>2017-01-18T12:21:14.096Z</time>
      </trkpt>
      <trkpt lat="42.97566" lon="-0.00942">
        <ele>1529</ele>
        <time>2017-01-18T12:21:15.096Z</time>
      </trkpt>
      <trkpt lat="42.97566" lon="-0.00943">
        <ele>1529</ele>
        <time>2017-01-18T12:21:16.096Z</time>
      </trkpt>
      <trkpt lat="42.97566" lon="-0.00944">
        <ele>1529</ele>
        <time>2017-01-18T12:21:17.096Z</time>
      </trkpt>
      <trkpt lat="42.97565" lon="-0.00946">
        <ele>1529</ele>
        <time>2017-01-18T12:21:18.096Z</time>
      </trkpt>
      <trkpt lat="42.97565" lon="-0.00947">
        <ele>1529</ele>
        <time>2017-01-18T12:21:19.096Z</time>
      </trkpt>
      <trkpt lat="42.97565" lon="-0.00948">
        <ele>1529</ele>
        <time>2017-01-18T12:21:20.096Z</time>
      </trkpt>
      <trkpt lat="42.97565" lon="-0.00949">
        <ele>1528</ele>
        <time>2017-01-18T12:21:21.096Z</time>
      </trkpt>
      <trkpt lat="42.97564" lon="-0.00951">
        <ele>1528</ele>
        <time>2017-01-18T12:21:22.096Z</time>
      </trkpt>
      <trkpt lat="42.97564" lon="-0.00952">
        <ele>1528</ele>
        <time>2017-01-18T12:21:23.096Z</time>
      </trkpt>
      <trkpt lat="42.97564" lon="-0.00953">
        <ele>1528</ele>
        <time>2017-01-18T12:21:24.096Z</time>
      </trkpt>
      <trkpt lat="42.97564" lon="-0.00954">
        <ele>1528</ele>
        <time>2017-01-18T12:21:25.096Z</time>
      </trkpt>
      <trkpt lat="42.97563" lon="-0.00955">
        <ele>1528</ele>
        <time>2017-01-18T12:21:26.096Z</time>
      </trkpt>
      <trkpt lat="42.97563" lon="-0.00957">
        <ele>1527</ele>
        <time>2017-01-18T12:21:27.096Z</time>
      </trkpt>
      <trkpt lat="42.97563" lon="-0.00958">
        <ele>1527</ele>
        <time>2017-01-18T12:21:28.096Z</time>
      </trkpt>
      <trkpt lat="42.97563" lon="-0.00959">
        <ele>1527</ele>
        <time>2017-01-18T12:21:29.096Z</time>
      </trkpt>
      <trkpt lat="42.97562" lon="-0.0096">
        <ele>1527</ele>
        <time>2017-01-18T12:21:30.096Z</time>
      </trkpt>
      <trkpt lat="42.97562" lon="-0.00962">
        <ele>1527</ele>
        <time>2017-01-18T12:21:31.096Z</time>
      </trkpt>
      <trkpt lat="42.97562" lon="-0.00963">
        <ele>1527</ele>
        <time>2017-01-18T12:21:32.096Z</time>
      </trkpt>
      <trkpt lat="42.97562" lon="-0.00964">
        <ele>1527</ele>
        <time>2017-01-18T12:21:33.096Z</time>
      </trkpt>
      <trkpt lat="42.97561" lon="-0.00966">
        <ele>1527</ele>
        <time>2017-01-18T12:21:34.096Z</time>
      </trkpt>
      <trkpt lat="42.97561" lon="-0.00967">
        <ele>1527</ele>
        <time>2017-01-18T12:21:35.096Z</time>
      </trkpt>
      <trkpt lat="42.97561" lon="-0.00968">
        <ele>1527</ele>
        <time>2017-01-18T12:21:36.096Z</time>
      </trkpt>
      <trkpt lat="42.97561" lon="-0.0097">
        <ele>1527</ele>
        <time>2017-01-18T12:21:37.096Z</time>
      </trkpt>
      <trkpt lat="42.97561" lon="-0.00971">
        <ele>1527</ele>
        <time>2017-01-18T12:21:38.096Z</time>
      </trkpt>
      <trkpt lat="42.9756" lon="-0.00972">
        <ele>1527</ele>
        <time>2017-01-18T12:21:39.096Z</time>
      </trkpt>
      <trkpt lat="42.9756" lon="-0.00973">
        <ele>1526</ele>
        <time>2017-01-18T12:21:40.096Z</time>
      </trkpt>
      <trkpt lat="42.9756" lon="-0.00975">
        <ele>1526</ele>
        <time>2017-01-18T12:21:41.096Z</time>
      </trkpt>
      <trkpt lat="42.9756" lon="-0.00976">
        <ele>1526</ele>
        <time>2017-01-18T12:21:42.096Z</time>
      </trkpt>
      <trkpt lat="42.9756" lon="-0.00977">
        <ele>1526</ele>
        <time>2017-01-18T12:21:43.096Z</time>
      </trkpt>
      <trkpt lat="42.97559" lon="-0.00979">
        <ele>1526</ele>
        <time>2017-01-18T12:21:44.096Z</time>
      </trkpt>
      <trkpt lat="42.97559" lon="-0.0098">
        <ele>1526</ele>
        <time>2017-01-18T12:21:45.096Z</time>
      </trkpt>
      <trkpt lat="42.97559" lon="-0.00981">
        <ele>1525</ele>
        <time>2017-01-18T12:21:46.096Z</time>
      </trkpt>
      <trkpt lat="42.97559" lon="-0.00983">
        <ele>1525</ele>
        <time>2017-01-18T12:21:47.096Z</time>
      </trkpt>
      <trkpt lat="42.97559" lon="-0.00984">
        <ele>1525</ele>
        <time>2017-01-18T12:21:48.096Z</time>
      </trkpt>
      <trkpt lat="42.97559" lon="-0.00985">
        <ele>1525</ele>
        <time>2017-01-18T12:21:49.096Z</time>
      </trkpt>
      <trkpt lat="42.97558" lon="-0.00987">
        <ele>1525</ele>
        <time>2017-01-18T12:21:50.096Z</time>
      </trkpt>
      <trkpt lat="42.97558" lon="-0.00988">
        <ele>1525</ele>
        <time>2017-01-18T12:21:51.096Z</time>
      </trkpt>
      <trkpt lat="42.97558" lon="-0.00989">
        <ele>1524</ele>
        <time>2017-01-18T12:21:52.096Z</time>
      </trkpt>
      <trkpt lat="42.97558" lon="-0.0099">
        <ele>1524</ele>
        <time>2017-01-18T12:21:53.096Z</time>
      </trkpt>
      <trkpt lat="42.97558" lon="-0.00992">
        <ele>1524</ele>
        <time>2017-01-18T12:21:54.096Z</time>
      </trkpt>
      <trkpt lat="42.97558" lon="-0.00993">
        <ele>1524</ele>
        <time>2017-01-18T12:21:55.096Z</time>
      </trkpt>
      <trkpt lat="42.97557" lon="-0.00994">
        <ele>1524</ele>
        <time>2017-01-18T12:21:56.096Z</time>
      </trkpt>
      <trkpt lat="42.97557" lon="-0.00996">
        <ele>1524</ele>
        <time>2017-01-18T12:21:57.096Z</time>
      </trkpt>
      <trkpt lat="42.97557" lon="-0.00997">
        <ele>1524</ele>
        <time>2017-01-18T12:21:58.096Z</time>
      </trkpt>
      <trkpt lat="42.97557" lon="-0.00998">
        <ele>1524</ele>
        <time>2017-01-18T12:21:59.096Z</time>
      </trkpt>
      <trkpt lat="42.97557" lon="-0.00999">
        <ele>1524</ele>
        <time>2017-01-18T12:22:00.096Z</time>
      </trkpt>
      <trkpt lat="42.97556" lon="-0.01001">
        <ele>1524</ele>
        <time>2017-01-18T12:22:01.096Z</time>
      </trkpt>
      <trkpt lat="42.97556" lon="-0.01002">
        <ele>1523</ele>
        <time>2017-01-18T12:22:02.096Z</time>
      </trkpt>
      <trkpt lat="42.97556" lon="-0.01003">
        <ele>1523</ele>
        <time>2017-01-18T12:22:03.096Z</time>
      </trkpt>
      <trkpt lat="42.97555" lon="-0.01005">
        <ele>1523</ele>
        <time>2017-01-18T12:22:04.096Z</time>
      </trkpt>
      <trkpt lat="42.97555" lon="-0.01006">
        <ele>1523</ele>
        <time>2017-01-18T12:22:05.096Z</time>
      </trkpt>
      <trkpt lat="42.97555" lon="-0.01007">
        <ele>1523</ele>
        <time>2017-01-18T12:22:06.096Z</time>
      </trkpt>
      <trkpt lat="42.97555" lon="-0.01008">
        <ele>1523</ele>
        <time>2017-01-18T12:22:07.096Z</time>
      </trkpt>
      <trkpt lat="42.97555" lon="-0.0101">
        <ele>1522</ele>
        <time>2017-01-18T12:22:08.096Z</time>
      </trkpt>
      <trkpt lat="42.97554" lon="-0.01011">
        <ele>1522</ele>
        <time>2017-01-18T12:22:09.096Z</time>
      </trkpt>
      <trkpt lat="42.97554" lon="-0.01012">
        <ele>1522</ele>
        <time>2017-01-18T12:22:10.096Z</time>
      </trkpt>
      <trkpt lat="42.97554" lon="-0.01013">
        <ele>1522</ele>
        <time>2017-01-18T12:22:11.096Z</time>
      </trkpt>
      <trkpt lat="42.97554" lon="-0.01014">
        <ele>1522</ele>
        <time>2017-01-18T12:22:12.096Z</time>
      </trkpt>
      <trkpt lat="42.97554" lon="-0.01016">
        <ele>1522</ele>
        <time>2017-01-18T12:22:13.096Z</time>
      </trkpt>
      <trkpt lat="42.97554" lon="-0.01017">
        <ele>1522</ele>
        <time>2017-01-18T12:22:14.096Z</time>
      </trkpt>
      <trkpt lat="42.97553" lon="-0.01018">
        <ele>1522</ele>
        <time>2017-01-18T12:22:15.096Z</time>
      </trkpt>
      <trkpt lat="42.97553" lon="-0.01019">
        <ele>1522</ele>
        <time>2017-01-18T12:22:16.096Z</time>
      </trkpt>
      <trkpt lat="42.97553" lon="-0.0102">
        <ele>1522</ele>
        <time>2017-01-18T12:22:17.096Z</time>
      </trkpt>
      <trkpt lat="42.97553" lon="-0.01022">
        <ele>1522</ele>
        <time>2017-01-18T12:22:18.096Z</time>
      </trkpt>
      <trkpt lat="42.97553" lon="-0.01023">
        <ele>1522</ele>
        <time>2017-01-18T12:22:19.096Z</time>
      </trkpt>
      <trkpt lat="42.97552" lon="-0.01024">
        <ele>1522</ele>
        <time>2017-01-18T12:22:20.096Z</time>
      </trkpt>
      <trkpt lat="42.97552" lon="-0.01026">
        <ele>1522</ele>
        <time>2017-01-18T12:22:21.096Z</time>
      </trkpt>
      <trkpt lat="42.97552" lon="-0.01027">
        <ele>1522</ele>
        <time>2017-01-18T12:22:22.096Z</time>
      </trkpt>
      <trkpt lat="42.97552" lon="-0.01028">
        <ele>1521</ele>
        <time>2017-01-18T12:22:23.096Z</time>
      </trkpt>
      <trkpt lat="42.97552" lon="-0.0103">
        <ele>1521</ele>
        <time>2017-01-18T12:22:24.096Z</time>
      </trkpt>
      <trkpt lat="42.97551" lon="-0.01031">
        <ele>1521</ele>
        <time>2017-01-18T12:22:25.096Z</time>
      </trkpt>
      <trkpt lat="42.97551" lon="-0.01032">
        <ele>1521</ele>
        <time>2017-01-18T12:22:26.096Z</time>
      </trkpt>
      <trkpt lat="42.97551" lon="-0.01033">
        <ele>1521</ele>
        <time>2017-01-18T12:22:27.096Z</time>
      </trkpt>
      <trkpt lat="42.97551" lon="-0.01035">
        <ele>1521</ele>
        <time>2017-01-18T12:22:28.096Z</time>
      </trkpt>
      <trkpt lat="42.9755" lon="-0.01036">
        <ele>1521</ele>
        <time>2017-01-18T12:22:29.096Z</time>
      </trkpt>
      <trkpt lat="42.9755" lon="-0.01037">
        <ele>1521</ele>
        <time>2017-01-18T12:22:30.096Z</time>
      </trkpt>
      <trkpt lat="42.9755" lon="-0.01039">
        <ele>1520</ele>
        <time>2017-01-18T12:22:31.096Z</time>
      </trkpt>
      <trkpt lat="42.97549" lon="-0.0104">
        <ele>1520</ele>
        <time>2017-01-18T12:22:32.096Z</time>
      </trkpt>
      <trkpt lat="42.97549" lon="-0.01042">
        <ele>1520</ele>
        <time>2017-01-18T12:22:33.096Z</time>
      </trkpt>
      <trkpt lat="42.97549" lon="-0.01043">
        <ele>1520</ele>
        <time>2017-01-18T12:22:34.096Z</time>
      </trkpt>
      <trkpt lat="42.97548" lon="-0.01044">
        <ele>1520</ele>
        <time>2017-01-18T12:22:35.096Z</time>
      </trkpt>
      <trkpt lat="42.97548" lon="-0.01046">
        <ele>1520</ele>
        <time>2017-01-18T12:22:36.096Z</time>
      </trkpt>
      <trkpt lat="42.97548" lon="-0.01047">
        <ele>1520</ele>
        <time>2017-01-18T12:22:37.096Z</time>
      </trkpt>
      <trkpt lat="42.97548" lon="-0.01048">
        <ele>1521</ele>
        <time>2017-01-18T12:22:38.096Z</time>
      </trkpt>
      <trkpt lat="42.97548" lon="-0.01049">
        <ele>1520</ele>
        <time>2017-01-18T12:22:39.096Z</time>
      </trkpt>
      <trkpt lat="42.97547" lon="-0.01051">
        <ele>1520</ele>
        <time>2017-01-18T12:22:40.096Z</time>
      </trkpt>
      <trkpt lat="42.97547" lon="-0.01052">
        <ele>1520</ele>
        <time>2017-01-18T12:22:41.096Z</time>
      </trkpt>
      <trkpt lat="42.97547" lon="-0.01053">
        <ele>1520</ele>
        <time>2017-01-18T12:22:42.096Z</time>
      </trkpt>
      <trkpt lat="42.97546" lon="-0.01054">
        <ele>1521</ele>
        <time>2017-01-18T12:22:43.096Z</time>
      </trkpt>
      <trkpt lat="42.97546" lon="-0.01055">
        <ele>1520</ele>
        <time>2017-01-18T12:22:44.096Z</time>
      </trkpt>
      <trkpt lat="42.97546" lon="-0.01056">
        <ele>1520</ele>
        <time>2017-01-18T12:22:45.096Z</time>
      </trkpt>
      <trkpt lat="42.97546" lon="-0.01057">
        <ele>1520</ele>
        <time>2017-01-18T12:22:46.096Z</time>
      </trkpt>
      <trkpt lat="42.97546" lon="-0.01058">
        <ele>1520</ele>
        <time>2017-01-18T12:22:47.096Z</time>
      </trkpt>
      <trkpt lat="42.97546" lon="-0.01058">
        <ele>1520</ele>
        <time>2017-01-18T12:22:48.096Z</time>
      </trkpt>
      <trkpt lat="42.97546" lon="-0.01059">
        <ele>1519</ele>
        <time>2017-01-18T12:22:49.096Z</time>
      </trkpt>
      <trkpt lat="42.97546" lon="-0.0106">
        <ele>1519</ele>
        <time>2017-01-18T12:22:50.096Z</time>
      </trkpt>
      <trkpt lat="42.97546" lon="-0.0106">
        <ele>1519</ele>
        <time>2017-01-18T12:22:51.096Z</time>
      </trkpt>
      <trkpt lat="42.97546" lon="-0.0106">
        <ele>1520</ele>
        <time>2017-01-18T12:22:52.096Z</time>
      </trkpt>
      <trkpt lat="42.97545" lon="-0.01061">
        <ele>1519</ele>
        <time>2017-01-18T12:22:53.096Z</time>
      </trkpt>
      <trkpt lat="42.97545" lon="-0.01061">
        <ele>1519</ele>
        <time>2017-01-18T12:22:54.096Z</time>
      </trkpt>
      <trkpt lat="42.97545" lon="-0.01062">
        <ele>1519</ele>
        <time>2017-01-18T12:22:55.096Z</time>
      </trkpt>
      <trkpt lat="42.97544" lon="-0.01062">
        <ele>1519</ele>
        <time>2017-01-18T12:22:56.096Z</time>
      </trkpt>
      <trkpt lat="42.97544" lon="-0.01062">
        <ele>1518</ele>
        <time>2017-01-18T12:22:57.096Z</time>
      </trkpt>
      <trkpt lat="42.97544" lon="-0.01062">
        <ele>1518</ele>
        <time>2017-01-18T12:22:58.096Z</time>
      </trkpt>
      <trkpt lat="42.97543" lon="-0.01061">
        <ele>1518</ele>
        <time>2017-01-18T12:22:59.096Z</time>
      </trkpt>
      <trkpt lat="42.97543" lon="-0.01061">
        <ele>1518</ele>
        <time>2017-01-18T12:23:00.096Z</time>
      </trkpt>
      <trkpt lat="42.97542" lon="-0.01061">
        <ele>1518</ele>
        <time>2017-01-18T12:23:01.096Z</time>
      </trkpt>
      <trkpt lat="42.97542" lon="-0.01061">
        <ele>1518</ele>
        <time>2017-01-18T12:23:02.096Z</time>
      </trkpt>
      <trkpt lat="42.97541" lon="-0.01061">
        <ele>1518</ele>
        <time>2017-01-18T12:23:03.096Z</time>
      </trkpt>
      <trkpt lat="42.97541" lon="-0.0106">
        <ele>1518</ele>
        <time>2017-01-18T12:23:04.096Z</time>
      </trkpt>
      <trkpt lat="42.9754" lon="-0.0106">
        <ele>1518</ele>
        <time>2017-01-18T12:23:05.096Z</time>
      </trkpt>
      <trkpt lat="42.9754" lon="-0.0106">
        <ele>1518</ele>
        <time>2017-01-18T12:23:06.096Z</time>
      </trkpt>
      <trkpt lat="42.97539" lon="-0.01059">
        <ele>1518</ele>
        <time>2017-01-18T12:23:07.096Z</time>
      </trkpt>
      <trkpt lat="42.97539" lon="-0.01059">
        <ele>1518</ele>
        <time>2017-01-18T12:23:08.096Z</time>
      </trkpt>
      <trkpt lat="42.97538" lon="-0.01059">
        <ele>1518</ele>
        <time>2017-01-18T12:23:09.096Z</time>
      </trkpt>
      <trkpt lat="42.97537" lon="-0.01059">
        <ele>1518</ele>
        <time>2017-01-18T12:23:10.096Z</time>
      </trkpt>
      <trkpt lat="42.97536" lon="-0.01059">
        <ele>1518</ele>
        <time>2017-01-18T12:23:11.096Z</time>
      </trkpt>
      <trkpt lat="42.97536" lon="-0.01059">
        <ele>1518</ele>
        <time>2017-01-18T12:23:12.096Z</time>
      </trkpt>
      <trkpt lat="42.97535" lon="-0.0106">
        <ele>1518</ele>
        <time>2017-01-18T12:23:13.096Z</time>
      </trkpt>
      <trkpt lat="42.97534" lon="-0.0106">
        <ele>1518</ele>
        <time>2017-01-18T12:23:14.096Z</time>
      </trkpt>
      <trkpt lat="42.97533" lon="-0.0106">
        <ele>1517</ele>
        <time>2017-01-18T12:23:15.096Z</time>
      </trkpt>
      <trkpt lat="42.97533" lon="-0.01061">
        <ele>1517</ele>
        <time>2017-01-18T12:23:16.096Z</time>
      </trkpt>
      <trkpt lat="42.97532" lon="-0.01061">
        <ele>1517</ele>
        <time>2017-01-18T12:23:17.096Z</time>
      </trkpt>
      <trkpt lat="42.97531" lon="-0.01062">
        <ele>1517</ele>
        <time>2017-01-18T12:23:18.096Z</time>
      </trkpt>
      <trkpt lat="42.9753" lon="-0.01062">
        <ele>1518</ele>
        <time>2017-01-18T12:23:19.096Z</time>
      </trkpt>
      <trkpt lat="42.9753" lon="-0.01062">
        <ele>1518</ele>
        <time>2017-01-18T12:23:20.096Z</time>
      </trkpt>
      <trkpt lat="42.97529" lon="-0.01063">
        <ele>1518</ele>
        <time>2017-01-18T12:23:21.096Z</time>
      </trkpt>
      <trkpt lat="42.97528" lon="-0.01063">
        <ele>1518</ele>
        <time>2017-01-18T12:23:22.096Z</time>
      </trkpt>
      <trkpt lat="42.97528" lon="-0.01064">
        <ele>1518</ele>
        <time>2017-01-18T12:23:23.096Z</time>
      </trkpt>
      <trkpt lat="42.97527" lon="-0.01064">
        <ele>1518</ele>
        <time>2017-01-18T12:23:24.096Z</time>
      </trkpt>
      <trkpt lat="42.97526" lon="-0.01064">
        <ele>1518</ele>
        <time>2017-01-18T12:23:25.096Z</time>
      </trkpt>
      <trkpt lat="42.97525" lon="-0.01065">
        <ele>1518</ele>
        <time>2017-01-18T12:23:26.096Z</time>
      </trkpt>
      <trkpt lat="42.97525" lon="-0.01065">
        <ele>1518</ele>
        <time>2017-01-18T12:23:27.096Z</time>
      </trkpt>
      <trkpt lat="42.97524" lon="-0.01065">
        <ele>1518</ele>
        <time>2017-01-18T12:23:28.096Z</time>
      </trkpt>
      <trkpt lat="42.97523" lon="-0.01066">
        <ele>1518</ele>
        <time>2017-01-18T12:23:29.096Z</time>
      </trkpt>
      <trkpt lat="42.97522" lon="-0.01066">
        <ele>1518</ele>
        <time>2017-01-18T12:23:30.096Z</time>
      </trkpt>
      <trkpt lat="42.97522" lon="-0.01067">
        <ele>1518</ele>
        <time>2017-01-18T12:23:31.096Z</time>
      </trkpt>
      <trkpt lat="42.97521" lon="-0.01067">
        <ele>1518</ele>
        <time>2017-01-18T12:23:32.096Z</time>
      </trkpt>
      <trkpt lat="42.9752" lon="-0.01068">
        <ele>1518</ele>
        <time>2017-01-18T12:23:33.096Z</time>
      </trkpt>
      <trkpt lat="42.9752" lon="-0.01068">
        <ele>1518</ele>
        <time>2017-01-18T12:23:34.096Z</time>
      </trkpt>
      <trkpt lat="42.97519" lon="-0.01069">
        <ele>1518</ele>
        <time>2017-01-18T12:23:35.096Z</time>
      </trkpt>
      <trkpt lat="42.97518" lon="-0.01069">
        <ele>1518</ele>
        <time>2017-01-18T12:23:36.096Z</time>
      </trkpt>
      <trkpt lat="42.97518" lon="-0.0107">
        <ele>1519</ele>
        <time>2017-01-18T12:23:37.096Z</time>
      </trkpt>
      <trkpt lat="42.97517" lon="-0.01071">
        <ele>1519</ele>
        <time>2017-01-18T12:23:38.096Z</time>
      </trkpt>
      <trkpt lat="42.97517" lon="-0.01071">
        <ele>1519</ele>
        <time>2017-01-18T12:23:39.096Z</time>
      </trkpt>
      <trkpt lat="42.97516" lon="-0.01072">
        <ele>1519</ele>
        <time>2017-01-18T12:23:40.096Z</time>
      </trkpt>
      <trkpt lat="42.97515" lon="-0.01072">
        <ele>1518</ele>
        <time>2017-01-18T12:23:41.096Z</time>
      </trkpt>
      <trkpt lat="42.97515" lon="-0.01072">
        <ele>1518</ele>
        <time>2017-01-18T12:23:42.096Z</time>
      </trkpt>
      <trkpt lat="42.97514" lon="-0.01073">
        <ele>1518</ele>
        <time>2017-01-18T12:23:43.096Z</time>
      </trkpt>
      <trkpt lat="42.97514" lon="-0.01073">
        <ele>1518</ele>
        <time>2017-01-18T12:23:44.096Z</time>
      </trkpt>
      <trkpt lat="42.97513" lon="-0.01074">
        <ele>1518</ele>
        <time>2017-01-18T12:23:45.096Z</time>
      </trkpt>
      <trkpt lat="42.97513" lon="-0.01074">
        <ele>1518</ele>
        <time>2017-01-18T12:23:46.096Z</time>
      </trkpt>
      <trkpt lat="42.97512" lon="-0.01074">
        <ele>1518</ele>
        <time>2017-01-18T12:23:47.096Z</time>
      </trkpt>
      <trkpt lat="42.97512" lon="-0.01074">
        <ele>1519</ele>
        <time>2017-01-18T12:23:48.096Z</time>
      </trkpt>
      <trkpt lat="42.97511" lon="-0.01074">
        <ele>1519</ele>
        <time>2017-01-18T12:23:49.096Z</time>
      </trkpt>
      <trkpt lat="42.97511" lon="-0.01074">
        <ele>1519</ele>
        <time>2017-01-18T12:23:50.096Z</time>
      </trkpt>
      <trkpt lat="42.97511" lon="-0.01074">
        <ele>1519</ele>
        <time>2017-01-18T12:23:51.096Z</time>
      </trkpt>
      <trkpt lat="42.97511" lon="-0.01074">
        <ele>1519</ele>
        <time>2017-01-18T12:23:52.096Z</time>
      </trkpt>
      <trkpt lat="42.97511" lon="-0.01074">
        <ele>1519</ele>
        <time>2017-01-18T12:23:53.096Z</time>
      </trkpt>
      <trkpt lat="42.97511" lon="-0.01073">
        <ele>1519</ele>
        <time>2017-01-18T12:23:54.096Z</time>
      </trkpt>
      <trkpt lat="42.97511" lon="-0.01073">
        <ele>1519</ele>
        <time>2017-01-18T12:23:55.096Z</time>
      </trkpt>
      <trkpt lat="42.97511" lon="-0.01074">
        <ele>1519</ele>
        <time>2017-01-18T12:23:56.096Z</time>
      </trkpt>
      <trkpt lat="42.97508" lon="-0.01074">
        <ele>1519</ele>
        <time>2017-01-18T12:23:58.092Z</time>
      </trkpt>
      <trkpt lat="42.97508" lon="-0.01073">
        <ele>1518</ele>
        <time>2017-01-18T12:23:59.092Z</time>
      </trkpt>
      <trkpt lat="42.97508" lon="-0.01073">
        <ele>1519</ele>
        <time>2017-01-18T12:24:00.092Z</time>
      </trkpt>
      <trkpt lat="42.97508" lon="-0.01073">
        <ele>1518</ele>
        <time>2017-01-18T12:24:01.092Z</time>
      </trkpt>
      <trkpt lat="42.97508" lon="-0.01073">
        <ele>1518</ele>
        <time>2017-01-18T12:24:02.092Z</time>
      </trkpt>
      <trkpt lat="42.97508" lon="-0.01073">
        <ele>1518</ele>
        <time>2017-01-18T12:24:03.092Z</time>
      </trkpt>
      <trkpt lat="42.97508" lon="-0.01072">
        <ele>1518</ele>
        <time>2017-01-18T12:24:04.092Z</time>
      </trkpt>
      <trkpt lat="42.97508" lon="-0.01071">
        <ele>1518</ele>
        <time>2017-01-18T12:24:05.092Z</time>
      </trkpt>
      <trkpt lat="42.97508" lon="-0.01071">
        <ele>1518</ele>
        <time>2017-01-18T12:24:06.092Z</time>
      </trkpt>
      <trkpt lat="42.97508" lon="-0.01071">
        <ele>1519</ele>
        <time>2017-01-18T12:24:07.092Z</time>
      </trkpt>
      <trkpt lat="42.97508" lon="-0.01071">
        <ele>1519</ele>
        <time>2017-01-18T12:24:08.092Z</time>
      </trkpt>
      <trkpt lat="42.97508" lon="-0.01071">
        <ele>1519</ele>
        <time>2017-01-18T12:24:09.092Z</time>
      </trkpt>
      <trkpt lat="42.97509" lon="-0.01071">
        <ele>1519</ele>
        <time>2017-01-18T12:24:10.092Z</time>
      </trkpt>
      <trkpt lat="42.97508" lon="-0.01071">
        <ele>1519</ele>
        <time>2017-01-18T12:24:11.092Z</time>
      </trkpt>
      <trkpt lat="42.97507" lon="-0.01072">
        <ele>1519</ele>
        <time>2017-01-18T12:24:12.104Z</time>
      </trkpt>
      <trkpt lat="42.97508" lon="-0.01071">
        <ele>1519</ele>
        <time>2017-01-18T12:24:13.104Z</time>
      </trkpt>
      <trkpt lat="42.97508" lon="-0.01071">
        <ele>1519</ele>
        <time>2017-01-18T12:24:14.104Z</time>
      </trkpt>
      <trkpt lat="42.97508" lon="-0.01071">
        <ele>1519</ele>
        <time>2017-01-18T12:24:15.104Z</time>
      </trkpt>
      <trkpt lat="42.97507" lon="-0.01071">
        <ele>1519</ele>
        <time>2017-01-18T12:24:16.104Z</time>
      </trkpt>
      <trkpt lat="42.97507" lon="-0.01071">
        <ele>1519</ele>
        <time>2017-01-18T12:24:17.104Z</time>
      </trkpt>
      <trkpt lat="42.97507" lon="-0.01074">
        <ele>1520</ele>
        <time>2017-01-18T12:24:18.116Z</time>
      </trkpt>
      <trkpt lat="42.97507" lon="-0.01074">
        <ele>1520</ele>
        <time>2017-01-18T12:24:19.116Z</time>
      </trkpt>
      <trkpt lat="42.97508" lon="-0.01075">
        <ele>1520</ele>
        <time>2017-01-18T12:24:20.116Z</time>
      </trkpt>
      <trkpt lat="42.97508" lon="-0.01075">
        <ele>1519</ele>
        <time>2017-01-18T12:24:21.116Z</time>
      </trkpt>
      <trkpt lat="42.97509" lon="-0.01075">
        <ele>1519</ele>
        <time>2017-01-18T12:24:22.116Z</time>
      </trkpt>
      <trkpt lat="42.97509" lon="-0.01075">
        <ele>1519</ele>
        <time>2017-01-18T12:24:23.116Z</time>
      </trkpt>
      <trkpt lat="42.97509" lon="-0.01075">
        <ele>1520</ele>
        <time>2017-01-18T12:24:24.116Z</time>
      </trkpt>
      <trkpt lat="42.97509" lon="-0.01075">
        <ele>1520</ele>
        <time>2017-01-18T12:24:25.116Z</time>
      </trkpt>
      <trkpt lat="42.97509" lon="-0.01075">
        <ele>1520</ele>
        <time>2017-01-18T12:24:26.116Z</time>
      </trkpt>
      <trkpt lat="42.97509" lon="-0.01075">
        <ele>1520</ele>
        <time>2017-01-18T12:24:27.116Z</time>
      </trkpt>
      <trkpt lat="42.97509" lon="-0.01075">
        <ele>1520</ele>
        <time>2017-01-18T12:24:28.116Z</time>
      </trkpt>
      <trkpt lat="42.97509" lon="-0.01075">
        <ele>1520</ele>
        <time>2017-01-18T12:24:29.116Z</time>
      </trkpt>
      <trkpt lat="42.97508" lon="-0.01073">
        <ele>1519</ele>
        <time>2017-01-18T12:24:30.003Z</time>
      </trkpt>
      <trkpt lat="42.97508" lon="-0.01073">
        <ele>1519</ele>
        <time>2017-01-18T12:24:31.003Z</time>
      </trkpt>
      <trkpt lat="42.97508" lon="-0.01073">
        <ele>1519</ele>
        <time>2017-01-18T12:24:32.003Z</time>
      </trkpt>
      <trkpt lat="42.97508" lon="-0.01073">
        <ele>1519</ele>
        <time>2017-01-18T12:24:33.003Z</time>
      </trkpt>
      <trkpt lat="42.97508" lon="-0.01073">
        <ele>1519</ele>
        <time>2017-01-18T12:24:34.003Z</time>
      </trkpt>
      <trkpt lat="42.97508" lon="-0.01071">
        <ele>1519</ele>
        <time>2017-01-18T12:24:35.011Z</time>
      </trkpt>
      <trkpt lat="42.97508" lon="-0.01071">
        <ele>1519</ele>
        <time>2017-01-18T12:24:36.011Z</time>
      </trkpt>
      <trkpt lat="42.97508" lon="-0.01071">
        <ele>1519</ele>
        <time>2017-01-18T12:24:37.011Z</time>
      </trkpt>
      <trkpt lat="42.97508" lon="-0.01071">
        <ele>1519</ele>
        <time>2017-01-18T12:24:38.011Z</time>
      </trkpt>
      <trkpt lat="42.97508" lon="-0.01071">
        <ele>1519</ele>
        <time>2017-01-18T12:24:39.011Z</time>
      </trkpt>
      <trkpt lat="42.97508" lon="-0.01071">
        <ele>1519</ele>
        <time>2017-01-18T12:24:40.019Z</time>
      </trkpt>
      <trkpt lat="42.97508" lon="-0.01071">
        <ele>1519</ele>
        <time>2017-01-18T12:24:41.019Z</time>
      </trkpt>
      <trkpt lat="42.97509" lon="-0.01071">
        <ele>1519</ele>
        <time>2017-01-18T12:24:42.019Z</time>
      </trkpt>
      <trkpt lat="42.97508" lon="-0.01071">
        <ele>1519</ele>
        <time>2017-01-18T12:24:43.019Z</time>
      </trkpt>
      <trkpt lat="42.97508" lon="-0.01071">
        <ele>1519</ele>
        <time>2017-01-18T12:24:44.019Z</time>
      </trkpt>
      <trkpt lat="42.97508" lon="-0.01071">
        <ele>1519</ele>
        <time>2017-01-18T12:24:45.019Z</time>
      </trkpt>
      <trkpt lat="42.97508" lon="-0.01072">
        <ele>1519</ele>
        <time>2017-01-18T12:24:46.019Z</time>
      </trkpt>
      <trkpt lat="42.97508" lon="-0.01072">
        <ele>1518</ele>
        <time>2017-01-18T12:24:47.019Z</time>
      </trkpt>
      <trkpt lat="42.97508" lon="-0.01072">
        <ele>1518</ele>
        <time>2017-01-18T12:24:48.019Z</time>
      </trkpt>
      <trkpt lat="42.97508" lon="-0.01072">
        <ele>1518</ele>
        <time>2017-01-18T12:24:49.019Z</time>
      </trkpt>
      <trkpt lat="42.97508" lon="-0.01072">
        <ele>1518</ele>
        <time>2017-01-18T12:24:50.019Z</time>
      </trkpt>
      <trkpt lat="42.97508" lon="-0.01072">
        <ele>1518</ele>
        <time>2017-01-18T12:24:51.019Z</time>
      </trkpt>
      <trkpt lat="42.97507" lon="-0.01071">
        <ele>1519</ele>
        <time>2017-01-18T12:24:52.027Z</time>
      </trkpt>
      <trkpt lat="42.97508" lon="-0.01071">
        <ele>1519</ele>
        <time>2017-01-18T12:24:53.027Z</time>
      </trkpt>
      <trkpt lat="42.97508" lon="-0.0107">
        <ele>1519</ele>
        <time>2017-01-18T12:24:54.027Z</time>
      </trkpt>
      <trkpt lat="42.97508" lon="-0.0107">
        <ele>1519</ele>
        <time>2017-01-18T12:24:55.027Z</time>
      </trkpt>
      <trkpt lat="42.97508" lon="-0.0107">
        <ele>1519</ele>
        <time>2017-01-18T12:24:56.027Z</time>
      </trkpt>
      <trkpt lat="42.97508" lon="-0.0107">
        <ele>1519</ele>
        <time>2017-01-18T12:24:57.027Z</time>
      </trkpt>
      <trkpt lat="42.97508" lon="-0.0107">
        <ele>1519</ele>
        <time>2017-01-18T12:24:58.027Z</time>
      </trkpt>
      <trkpt lat="42.97508" lon="-0.0107">
        <ele>1519</ele>
        <time>2017-01-18T12:24:59.027Z</time>
      </trkpt>
      <trkpt lat="42.9751" lon="-0.0107">
        <ele>1518</ele>
        <time>2017-01-18T12:25:00.035Z</time>
      </trkpt>
      <trkpt lat="42.9751" lon="-0.0107">
        <ele>1518</ele>
        <time>2017-01-18T12:25:01.035Z</time>
      </trkpt>
      <trkpt lat="42.9751" lon="-0.0107">
        <ele>1518</ele>
        <time>2017-01-18T12:25:02.035Z</time>
      </trkpt>
      <trkpt lat="42.9751" lon="-0.0107">
        <ele>1518</ele>
        <time>2017-01-18T12:25:03.035Z</time>
      </trkpt>
      <trkpt lat="42.9751" lon="-0.0107">
        <ele>1518</ele>
        <time>2017-01-18T12:25:04.035Z</time>
      </trkpt>
      <trkpt lat="42.9751" lon="-0.0107">
        <ele>1518</ele>
        <time>2017-01-18T12:25:05.035Z</time>
      </trkpt>
      <trkpt lat="42.9751" lon="-0.0107">
        <ele>1518</ele>
        <time>2017-01-18T12:25:06.035Z</time>
      </trkpt>
      <trkpt lat="42.9751" lon="-0.0107">
        <ele>1518</ele>
        <time>2017-01-18T12:25:07.035Z</time>
      </trkpt>
    </trkseg>
  </trk>
</gpx>